<?xml version="1.0" encoding="UTF-8" standalone="no" ?>
<gpx xmlns="http://www.topografix.com/GPX/1/1" xmlns:xsi="http://www.w3.org/2001/XMLSchema-instance" xsi:schemaLocation="http://www.topografix.com/GPX/1/1 http://www.topografix.com/GPX/1/1/gpx.xsd" version="1.1" creator="VisuGPX - https://www.visugpx.com">
  <metadata>
    <name>Le chateau</name>
    <desc><![CDATA[Parcoures VTC ]]></desc>
  </metadata>
  <wpt lat="44.01627" lon="4.73225">
    <ele>125.1</ele>
    <name><![CDATA[Chateau D. Aqueria]]></name>
    <desc><![CDATA[]]></desc>
  </wpt>
  <wpt lat="44.01243" lon="4.69839">
    <ele>164.4</ele>
    <name><![CDATA[Point de cheminement]]></name>
    <desc><![CDATA[]]></desc>
  </wpt>
  <wpt lat="44.01746" lon="4.62569">
    <ele>305.8</ele>
    <name><![CDATA[Entre D4 Valliguiere Et D504 St Victor La Coste]]></name>
    <desc><![CDATA[]]></desc>
  </wpt>
  <wpt lat="44.05743" lon="4.63633">
    <ele>171.7</ele>
    <name><![CDATA[Chateau De St Victor La Coste]]></name>
    <desc><![CDATA[]]></desc>
  </wpt>
  <trk>
    <name><![CDATA[Le Chateau]]></name>
    <desc><![CDATA[]]></desc>
    <trkseg>
      <trkpt lat="44.02403" lon="4.80039">
        <ele>80.1</ele>
        <time>2012-06-13T05:39:59.000Z</time>
      </trkpt>
      <trkpt lat="44.024" lon="4.80044">
        <ele>80.5</ele>
        <time>2012-06-13T05:40:06.000Z</time>
      </trkpt>
      <trkpt lat="44.0241" lon="4.80025">
        <ele>92.7</ele>
        <time>2012-06-13T05:40:38.000Z</time>
      </trkpt>
      <trkpt lat="44.02414" lon="4.8003">
        <ele>94.3</ele>
        <time>2012-06-13T05:40:39.000Z</time>
      </trkpt>
      <trkpt lat="44.02418" lon="4.80023">
        <ele>91.1</ele>
        <time>2012-06-13T05:40:47.000Z</time>
      </trkpt>
      <trkpt lat="44.02425" lon="4.80022">
        <ele>92.2</ele>
        <time>2012-06-13T05:40:50.000Z</time>
      </trkpt>
      <trkpt lat="44.02428" lon="4.80018">
        <ele>92.7</ele>
        <time>2012-06-13T05:40:52.000Z</time>
      </trkpt>
      <trkpt lat="44.02432" lon="4.80012">
        <ele>90.6</ele>
        <time>2012-06-13T05:40:55.000Z</time>
      </trkpt>
      <trkpt lat="44.02436" lon="4.80008">
        <ele>93.1</ele>
        <time>2012-06-13T05:40:56.000Z</time>
      </trkpt>
      <trkpt lat="44.02441" lon="4.80008">
        <ele>91.8</ele>
        <time>2012-06-13T05:40:58.000Z</time>
      </trkpt>
      <trkpt lat="44.02446" lon="4.80006">
        <ele>92.4</ele>
        <time>2012-06-13T05:41:02.000Z</time>
      </trkpt>
      <trkpt lat="44.02453" lon="4.80014">
        <ele>90.6</ele>
        <time>2012-06-13T05:41:04.000Z</time>
      </trkpt>
      <trkpt lat="44.02457" lon="4.80018">
        <ele>91</ele>
        <time>2012-06-13T05:41:06.000Z</time>
      </trkpt>
      <trkpt lat="44.0246" lon="4.80025">
        <ele>91.1</ele>
        <time>2012-06-13T05:41:08.000Z</time>
      </trkpt>
      <trkpt lat="44.0246" lon="4.80031">
        <ele>88.8</ele>
        <time>2012-06-13T05:41:09.000Z</time>
      </trkpt>
      <trkpt lat="44.02463" lon="4.80038">
        <ele>88.8</ele>
        <time>2012-06-13T05:41:11.000Z</time>
      </trkpt>
      <trkpt lat="44.02466" lon="4.80046">
        <ele>88.1</ele>
        <time>2012-06-13T05:41:13.000Z</time>
      </trkpt>
      <trkpt lat="44.02471" lon="4.8005">
        <ele>89.3</ele>
        <time>2012-06-13T05:41:15.000Z</time>
      </trkpt>
      <trkpt lat="44.02474" lon="4.80055">
        <ele>89.7</ele>
        <time>2012-06-13T05:41:16.000Z</time>
      </trkpt>
      <trkpt lat="44.02476" lon="4.80064">
        <ele>88.8</ele>
        <time>2012-06-13T05:41:17.000Z</time>
      </trkpt>
      <trkpt lat="44.02477" lon="4.80071">
        <ele>89</ele>
        <time>2012-06-13T05:41:19.000Z</time>
      </trkpt>
      <trkpt lat="44.02482" lon="4.80075">
        <ele>89.8</ele>
        <time>2012-06-13T05:41:21.000Z</time>
      </trkpt>
      <trkpt lat="44.02483" lon="4.80083">
        <ele>90</ele>
        <time>2012-06-13T05:41:23.000Z</time>
      </trkpt>
      <trkpt lat="44.02483" lon="4.80094">
        <ele>88.6</ele>
        <time>2012-06-13T05:41:25.000Z</time>
      </trkpt>
      <trkpt lat="44.02484" lon="4.80102">
        <ele>89.3</ele>
        <time>2012-06-13T05:41:27.000Z</time>
      </trkpt>
      <trkpt lat="44.02485" lon="4.80113">
        <ele>89.4</ele>
        <time>2012-06-13T05:41:29.000Z</time>
      </trkpt>
      <trkpt lat="44.02487" lon="4.80121">
        <ele>88.6</ele>
        <time>2012-06-13T05:41:32.000Z</time>
      </trkpt>
      <trkpt lat="44.02486" lon="4.80127">
        <ele>88.3</ele>
        <time>2012-06-13T05:41:33.000Z</time>
      </trkpt>
      <trkpt lat="44.02488" lon="4.80135">
        <ele>87.7</ele>
        <time>2012-06-13T05:41:35.000Z</time>
      </trkpt>
      <trkpt lat="44.02557" lon="4.80292">
        <ele>87.7</ele>
        <time>2012-06-13T05:42:22.000Z</time>
      </trkpt>
      <trkpt lat="44.02556" lon="4.80302">
        <ele>87.8</ele>
        <time>2012-06-13T05:42:23.000Z</time>
      </trkpt>
      <trkpt lat="44.02554" lon="4.80308">
        <ele>87.4</ele>
        <time>2012-06-13T05:42:24.000Z</time>
      </trkpt>
      <trkpt lat="44.0255" lon="4.80313">
        <ele>87.6</ele>
        <time>2012-06-13T05:42:25.000Z</time>
      </trkpt>
      <trkpt lat="44.02527" lon="4.80388">
        <ele>88.4</ele>
        <time>2012-06-13T05:42:38.000Z</time>
      </trkpt>
      <trkpt lat="44.02524" lon="4.80393">
        <ele>88.5</ele>
        <time>2012-06-13T05:42:39.000Z</time>
      </trkpt>
      <trkpt lat="44.02524" lon="4.80402">
        <ele>88.4</ele>
        <time>2012-06-13T05:42:41.000Z</time>
      </trkpt>
      <trkpt lat="44.02523" lon="4.80411">
        <ele>88.2</ele>
        <time>2012-06-13T05:42:43.000Z</time>
      </trkpt>
      <trkpt lat="44.02523" lon="4.80418">
        <ele>88.1</ele>
        <time>2012-06-13T05:42:44.000Z</time>
      </trkpt>
      <trkpt lat="44.0252" lon="4.80425">
        <ele>88</ele>
        <time>2012-06-13T05:42:45.000Z</time>
      </trkpt>
      <trkpt lat="44.02518" lon="4.80448">
        <ele>87.3</ele>
        <time>2012-06-13T05:42:48.000Z</time>
      </trkpt>
      <trkpt lat="44.02527" lon="4.80523">
        <ele>84.4</ele>
        <time>2012-06-13T05:43:01.000Z</time>
      </trkpt>
      <trkpt lat="44.02536" lon="4.80528">
        <ele>82.9</ele>
        <time>2012-06-13T05:43:02.000Z</time>
      </trkpt>
      <trkpt lat="44.02541" lon="4.8053">
        <ele>83.1</ele>
        <time>2012-06-13T05:43:03.000Z</time>
      </trkpt>
      <trkpt lat="44.02546" lon="4.80531">
        <ele>83</ele>
        <time>2012-06-13T05:43:04.000Z</time>
      </trkpt>
      <trkpt lat="44.02551" lon="4.80532">
        <ele>83.2</ele>
        <time>2012-06-13T05:43:05.000Z</time>
      </trkpt>
      <trkpt lat="44.02557" lon="4.80532">
        <ele>82</ele>
        <time>2012-06-13T05:43:07.000Z</time>
      </trkpt>
      <trkpt lat="44.02563" lon="4.80532">
        <ele>82.5</ele>
        <time>2012-06-13T05:43:08.000Z</time>
      </trkpt>
      <trkpt lat="44.02573" lon="4.8053">
        <ele>80.8</ele>
        <time>2012-06-13T05:43:10.000Z</time>
      </trkpt>
      <trkpt lat="44.02579" lon="4.80526">
        <ele>82.2</ele>
        <time>2012-06-13T05:43:12.000Z</time>
      </trkpt>
      <trkpt lat="44.02582" lon="4.8052">
        <ele>82.2</ele>
        <time>2012-06-13T05:43:13.000Z</time>
      </trkpt>
      <trkpt lat="44.02587" lon="4.80519">
        <ele>81.7</ele>
        <time>2012-06-13T05:43:14.000Z</time>
      </trkpt>
      <trkpt lat="44.02592" lon="4.80516">
        <ele>81.2</ele>
        <time>2012-06-13T05:43:16.000Z</time>
      </trkpt>
      <trkpt lat="44.02596" lon="4.80507">
        <ele>82.8</ele>
        <time>2012-06-13T05:43:18.000Z</time>
      </trkpt>
      <trkpt lat="44.02598" lon="4.80513">
        <ele>81.9</ele>
        <time>2012-06-13T05:43:19.000Z</time>
      </trkpt>
      <trkpt lat="44.02606" lon="4.80516">
        <ele>81.7</ele>
        <time>2012-06-13T05:43:21.000Z</time>
      </trkpt>
      <trkpt lat="44.02614" lon="4.80517">
        <ele>83.2</ele>
        <time>2012-06-13T05:43:22.000Z</time>
      </trkpt>
      <trkpt lat="44.02618" lon="4.80512">
        <ele>82.9</ele>
        <time>2012-06-13T05:43:23.000Z</time>
      </trkpt>
      <trkpt lat="44.0262" lon="4.80505">
        <ele>83.2</ele>
        <time>2012-06-13T05:43:25.000Z</time>
      </trkpt>
      <trkpt lat="44.02625" lon="4.80505">
        <ele>82.9</ele>
        <time>2012-06-13T05:43:27.000Z</time>
      </trkpt>
      <trkpt lat="44.02635" lon="4.80506">
        <ele>86.4</ele>
        <time>2012-06-13T05:43:29.000Z</time>
      </trkpt>
      <trkpt lat="44.02641" lon="4.80506">
        <ele>87.3</ele>
        <time>2012-06-13T05:43:30.000Z</time>
      </trkpt>
      <trkpt lat="44.02645" lon="4.80505">
        <ele>87.5</ele>
        <time>2012-06-13T05:43:32.000Z</time>
      </trkpt>
      <trkpt lat="44.02654" lon="4.80506">
        <ele>88.7</ele>
        <time>2012-06-13T05:43:34.000Z</time>
      </trkpt>
      <trkpt lat="44.0266" lon="4.80504">
        <ele>88.9</ele>
        <time>2012-06-13T05:43:35.000Z</time>
      </trkpt>
      <trkpt lat="44.02666" lon="4.80505">
        <ele>90</ele>
        <time>2012-06-13T05:43:36.000Z</time>
      </trkpt>
      <trkpt lat="44.02674" lon="4.80503">
        <ele>89.6</ele>
        <time>2012-06-13T05:43:37.000Z</time>
      </trkpt>
      <trkpt lat="44.02678" lon="4.80504">
        <ele>89.2</ele>
        <time>2012-06-13T05:43:38.000Z</time>
      </trkpt>
      <trkpt lat="44.02686" lon="4.805">
        <ele>88.8</ele>
        <time>2012-06-13T05:43:40.000Z</time>
      </trkpt>
      <trkpt lat="44.02693" lon="4.80495">
        <ele>87.2</ele>
        <time>2012-06-13T05:43:43.000Z</time>
      </trkpt>
      <trkpt lat="44.02694" lon="4.80489">
        <ele>87</ele>
        <time>2012-06-13T05:43:45.000Z</time>
      </trkpt>
      <trkpt lat="44.02698" lon="4.80482">
        <ele>88.1</ele>
        <time>2012-06-13T05:43:47.000Z</time>
      </trkpt>
      <trkpt lat="44.027" lon="4.80476">
        <ele>87.9</ele>
        <time>2012-06-13T05:43:49.000Z</time>
      </trkpt>
      <trkpt lat="44.02704" lon="4.80473">
        <ele>88.7</ele>
        <time>2012-06-13T05:43:50.000Z</time>
      </trkpt>
      <trkpt lat="44.02705" lon="4.80463">
        <ele>89.5</ele>
        <time>2012-06-13T05:43:52.000Z</time>
      </trkpt>
      <trkpt lat="44.0271" lon="4.80455">
        <ele>88.8</ele>
        <time>2012-06-13T05:43:54.000Z</time>
      </trkpt>
      <trkpt lat="44.02712" lon="4.80447">
        <ele>88.4</ele>
        <time>2012-06-13T05:43:55.000Z</time>
      </trkpt>
      <trkpt lat="44.02715" lon="4.80438">
        <ele>88.3</ele>
        <time>2012-06-13T05:43:57.000Z</time>
      </trkpt>
      <trkpt lat="44.02719" lon="4.80435">
        <ele>88.4</ele>
        <time>2012-06-13T05:43:59.000Z</time>
      </trkpt>
      <trkpt lat="44.02724" lon="4.80433">
        <ele>88.8</ele>
        <time>2012-06-13T05:44:00.000Z</time>
      </trkpt>
      <trkpt lat="44.02726" lon="4.80428">
        <ele>88.5</ele>
        <time>2012-06-13T05:44:01.000Z</time>
      </trkpt>
      <trkpt lat="44.0273" lon="4.80421">
        <ele>88.4</ele>
        <time>2012-06-13T05:44:03.000Z</time>
      </trkpt>
      <trkpt lat="44.02743" lon="4.80418">
        <ele>88.7</ele>
        <time>2012-06-13T05:44:05.000Z</time>
      </trkpt>
      <trkpt lat="44.02748" lon="4.80413">
        <ele>89.2</ele>
        <time>2012-06-13T05:44:06.000Z</time>
      </trkpt>
      <trkpt lat="44.02752" lon="4.8041">
        <ele>89.3</ele>
        <time>2012-06-13T05:44:07.000Z</time>
      </trkpt>
      <trkpt lat="44.02758" lon="4.8041">
        <ele>89.2</ele>
        <time>2012-06-13T05:44:08.000Z</time>
      </trkpt>
      <trkpt lat="44.02764" lon="4.80408">
        <ele>90.1</ele>
        <time>2012-06-13T05:44:09.000Z</time>
      </trkpt>
      <trkpt lat="44.02768" lon="4.80407">
        <ele>90.1</ele>
        <time>2012-06-13T05:44:10.000Z</time>
      </trkpt>
      <trkpt lat="44.02774" lon="4.80404">
        <ele>89.3</ele>
        <time>2012-06-13T05:44:12.000Z</time>
      </trkpt>
      <trkpt lat="44.02778" lon="4.80398">
        <ele>89.6</ele>
        <time>2012-06-13T05:44:13.000Z</time>
      </trkpt>
      <trkpt lat="44.02783" lon="4.80401">
        <ele>88.1</ele>
        <time>2012-06-13T05:44:14.000Z</time>
      </trkpt>
      <trkpt lat="44.02788" lon="4.80394">
        <ele>87.3</ele>
        <time>2012-06-13T05:44:16.000Z</time>
      </trkpt>
      <trkpt lat="44.02792" lon="4.8039">
        <ele>87.3</ele>
        <time>2012-06-13T05:44:17.000Z</time>
      </trkpt>
      <trkpt lat="44.02797" lon="4.80388">
        <ele>88</ele>
        <time>2012-06-13T05:44:18.000Z</time>
      </trkpt>
      <trkpt lat="44.02806" lon="4.80381">
        <ele>87.2</ele>
        <time>2012-06-13T05:44:20.000Z</time>
      </trkpt>
      <trkpt lat="44.02815" lon="4.8038">
        <ele>86.3</ele>
        <time>2012-06-13T05:44:22.000Z</time>
      </trkpt>
      <trkpt lat="44.02821" lon="4.80377">
        <ele>85.5</ele>
        <time>2012-06-13T05:44:24.000Z</time>
      </trkpt>
      <trkpt lat="44.02826" lon="4.80373">
        <ele>85.2</ele>
        <time>2012-06-13T05:44:25.000Z</time>
      </trkpt>
      <trkpt lat="44.02829" lon="4.80369">
        <ele>84.7</ele>
        <time>2012-06-13T05:44:26.000Z</time>
      </trkpt>
      <trkpt lat="44.02835" lon="4.80363">
        <ele>84.3</ele>
        <time>2012-06-13T05:44:28.000Z</time>
      </trkpt>
      <trkpt lat="44.0284" lon="4.80358">
        <ele>84.1</ele>
        <time>2012-06-13T05:44:29.000Z</time>
      </trkpt>
      <trkpt lat="44.02846" lon="4.80356">
        <ele>84.4</ele>
        <time>2012-06-13T05:44:30.000Z</time>
      </trkpt>
      <trkpt lat="44.0285" lon="4.80357">
        <ele>84.5</ele>
        <time>2012-06-13T05:44:31.000Z</time>
      </trkpt>
      <trkpt lat="44.02856" lon="4.80355">
        <ele>84.3</ele>
        <time>2012-06-13T05:44:33.000Z</time>
      </trkpt>
      <trkpt lat="44.02863" lon="4.80351">
        <ele>84.1</ele>
        <time>2012-06-13T05:44:35.000Z</time>
      </trkpt>
      <trkpt lat="44.02868" lon="4.8035">
        <ele>84.2</ele>
        <time>2012-06-13T05:44:36.000Z</time>
      </trkpt>
      <trkpt lat="44.02876" lon="4.80346">
        <ele>83.8</ele>
        <time>2012-06-13T05:44:39.000Z</time>
      </trkpt>
      <trkpt lat="44.0288" lon="4.80346">
        <ele>84.4</ele>
        <time>2012-06-13T05:44:40.000Z</time>
      </trkpt>
      <trkpt lat="44.02885" lon="4.80344">
        <ele>84.4</ele>
        <time>2012-06-13T05:44:41.000Z</time>
      </trkpt>
      <trkpt lat="44.0289" lon="4.80339">
        <ele>84.6</ele>
        <time>2012-06-13T05:44:43.000Z</time>
      </trkpt>
      <trkpt lat="44.02896" lon="4.80333">
        <ele>84</ele>
        <time>2012-06-13T05:44:46.000Z</time>
      </trkpt>
      <trkpt lat="44.02904" lon="4.80326">
        <ele>84.3</ele>
        <time>2012-06-13T05:44:48.000Z</time>
      </trkpt>
      <trkpt lat="44.0291" lon="4.80322">
        <ele>83.4</ele>
        <time>2012-06-13T05:44:49.000Z</time>
      </trkpt>
      <trkpt lat="44.02916" lon="4.80316">
        <ele>83.6</ele>
        <time>2012-06-13T05:44:51.000Z</time>
      </trkpt>
      <trkpt lat="44.0292" lon="4.80312">
        <ele>83.9</ele>
        <time>2012-06-13T05:44:52.000Z</time>
      </trkpt>
      <trkpt lat="44.02925" lon="4.80302">
        <ele>84.4</ele>
        <time>2012-06-13T05:44:54.000Z</time>
      </trkpt>
      <trkpt lat="44.02928" lon="4.80295">
        <ele>84.5</ele>
        <time>2012-06-13T05:44:56.000Z</time>
      </trkpt>
      <trkpt lat="44.02935" lon="4.80288">
        <ele>84.5</ele>
        <time>2012-06-13T05:44:59.000Z</time>
      </trkpt>
      <trkpt lat="44.02939" lon="4.80278">
        <ele>84.7</ele>
        <time>2012-06-13T05:45:01.000Z</time>
      </trkpt>
      <trkpt lat="44.02945" lon="4.80273">
        <ele>84.3</ele>
        <time>2012-06-13T05:45:03.000Z</time>
      </trkpt>
      <trkpt lat="44.02949" lon="4.80262">
        <ele>84.7</ele>
        <time>2012-06-13T05:45:05.000Z</time>
      </trkpt>
      <trkpt lat="44.02954" lon="4.80256">
        <ele>84.5</ele>
        <time>2012-06-13T05:45:07.000Z</time>
      </trkpt>
      <trkpt lat="44.02958" lon="4.80247">
        <ele>84</ele>
        <time>2012-06-13T05:45:09.000Z</time>
      </trkpt>
      <trkpt lat="44.02961" lon="4.8024">
        <ele>84.3</ele>
        <time>2012-06-13T05:45:11.000Z</time>
      </trkpt>
      <trkpt lat="44.02964" lon="4.80234">
        <ele>84.2</ele>
        <time>2012-06-13T05:45:13.000Z</time>
      </trkpt>
      <trkpt lat="44.02961" lon="4.80226">
        <ele>82.2</ele>
        <time>2012-06-13T05:45:15.000Z</time>
      </trkpt>
      <trkpt lat="44.02965" lon="4.8022">
        <ele>82.2</ele>
        <time>2012-06-13T05:45:36.000Z</time>
      </trkpt>
      <trkpt lat="44.02969" lon="4.80214">
        <ele>82.1</ele>
        <time>2012-06-13T05:45:39.000Z</time>
      </trkpt>
      <trkpt lat="44.02973" lon="4.80205">
        <ele>81</ele>
        <time>2012-06-13T05:45:42.000Z</time>
      </trkpt>
      <trkpt lat="44.02977" lon="4.80199">
        <ele>81.1</ele>
        <time>2012-06-13T05:45:44.000Z</time>
      </trkpt>
      <trkpt lat="44.02983" lon="4.80192">
        <ele>80.4</ele>
        <time>2012-06-13T05:45:47.000Z</time>
      </trkpt>
      <trkpt lat="44.02987" lon="4.80185">
        <ele>80.4</ele>
        <time>2012-06-13T05:45:49.000Z</time>
      </trkpt>
      <trkpt lat="44.02991" lon="4.80178">
        <ele>81.4</ele>
        <time>2012-06-13T05:45:51.000Z</time>
      </trkpt>
      <trkpt lat="44.02996" lon="4.80172">
        <ele>81.3</ele>
        <time>2012-06-13T05:45:53.000Z</time>
      </trkpt>
      <trkpt lat="44.03003" lon="4.80164">
        <ele>81.3</ele>
        <time>2012-06-13T05:45:55.000Z</time>
      </trkpt>
      <trkpt lat="44.03006" lon="4.80159">
        <ele>81.3</ele>
        <time>2012-06-13T05:45:56.000Z</time>
      </trkpt>
      <trkpt lat="44.03012" lon="4.80155">
        <ele>81.3</ele>
        <time>2012-06-13T05:45:58.000Z</time>
      </trkpt>
      <trkpt lat="44.03015" lon="4.80145">
        <ele>82.3</ele>
        <time>2012-06-13T05:46:00.000Z</time>
      </trkpt>
      <trkpt lat="44.03018" lon="4.80139">
        <ele>82.7</ele>
        <time>2012-06-13T05:46:01.000Z</time>
      </trkpt>
      <trkpt lat="44.03021" lon="4.80129">
        <ele>82.7</ele>
        <time>2012-06-13T05:46:03.000Z</time>
      </trkpt>
      <trkpt lat="44.03025" lon="4.80127">
        <ele>83.2</ele>
        <time>2012-06-13T05:46:04.000Z</time>
      </trkpt>
      <trkpt lat="44.03029" lon="4.80123">
        <ele>83.6</ele>
        <time>2012-06-13T05:46:05.000Z</time>
      </trkpt>
      <trkpt lat="44.03031" lon="4.80116">
        <ele>83.7</ele>
        <time>2012-06-13T05:46:06.000Z</time>
      </trkpt>
      <trkpt lat="44.03036" lon="4.80113">
        <ele>84.5</ele>
        <time>2012-06-13T05:46:07.000Z</time>
      </trkpt>
      <trkpt lat="44.03038" lon="4.80108">
        <ele>85.4</ele>
        <time>2012-06-13T05:46:08.000Z</time>
      </trkpt>
      <trkpt lat="44.03044" lon="4.80103">
        <ele>84.9</ele>
        <time>2012-06-13T05:46:10.000Z</time>
      </trkpt>
      <trkpt lat="44.03048" lon="4.80099">
        <ele>84.9</ele>
        <time>2012-06-13T05:46:12.000Z</time>
      </trkpt>
      <trkpt lat="44.03054" lon="4.80094">
        <ele>84.6</ele>
        <time>2012-06-13T05:46:14.000Z</time>
      </trkpt>
      <trkpt lat="44.03058" lon="4.80091">
        <ele>84.2</ele>
        <time>2012-06-13T05:46:15.000Z</time>
      </trkpt>
      <trkpt lat="44.03062" lon="4.80086">
        <ele>84.6</ele>
        <time>2012-06-13T05:46:17.000Z</time>
      </trkpt>
      <trkpt lat="44.03066" lon="4.80078">
        <ele>84.2</ele>
        <time>2012-06-13T05:46:19.000Z</time>
      </trkpt>
      <trkpt lat="44.03073" lon="4.80073">
        <ele>84.5</ele>
        <time>2012-06-13T05:46:21.000Z</time>
      </trkpt>
      <trkpt lat="44.0308" lon="4.80069">
        <ele>84.5</ele>
        <time>2012-06-13T05:46:23.000Z</time>
      </trkpt>
      <trkpt lat="44.03084" lon="4.80068">
        <ele>83.9</ele>
        <time>2012-06-13T05:46:24.000Z</time>
      </trkpt>
      <trkpt lat="44.03091" lon="4.8007">
        <ele>83.2</ele>
        <time>2012-06-13T05:46:26.000Z</time>
      </trkpt>
      <trkpt lat="44.031" lon="4.80067">
        <ele>82.9</ele>
        <time>2012-06-13T05:46:27.000Z</time>
      </trkpt>
      <trkpt lat="44.03104" lon="4.80064">
        <ele>83.3</ele>
        <time>2012-06-13T05:46:28.000Z</time>
      </trkpt>
      <trkpt lat="44.03107" lon="4.80056">
        <ele>83.8</ele>
        <time>2012-06-13T05:46:30.000Z</time>
      </trkpt>
      <trkpt lat="44.03115" lon="4.80054">
        <ele>85</ele>
        <time>2012-06-13T05:46:32.000Z</time>
      </trkpt>
      <trkpt lat="44.03118" lon="4.8005">
        <ele>85.4</ele>
        <time>2012-06-13T05:46:33.000Z</time>
      </trkpt>
      <trkpt lat="44.03121" lon="4.80044">
        <ele>86</ele>
        <time>2012-06-13T05:46:34.000Z</time>
      </trkpt>
      <trkpt lat="44.03126" lon="4.80038">
        <ele>86.2</ele>
        <time>2012-06-13T05:46:36.000Z</time>
      </trkpt>
      <trkpt lat="44.03135" lon="4.80036">
        <ele>86.2</ele>
        <time>2012-06-13T05:46:37.000Z</time>
      </trkpt>
      <trkpt lat="44.0314" lon="4.80034">
        <ele>86.1</ele>
        <time>2012-06-13T05:46:38.000Z</time>
      </trkpt>
      <trkpt lat="44.03145" lon="4.80029">
        <ele>86.2</ele>
        <time>2012-06-13T05:46:40.000Z</time>
      </trkpt>
      <trkpt lat="44.03151" lon="4.80026">
        <ele>86.8</ele>
        <time>2012-06-13T05:46:41.000Z</time>
      </trkpt>
      <trkpt lat="44.03158" lon="4.80024">
        <ele>87.4</ele>
        <time>2012-06-13T05:46:43.000Z</time>
      </trkpt>
      <trkpt lat="44.03162" lon="4.80021">
        <ele>87.4</ele>
        <time>2012-06-13T05:46:44.000Z</time>
      </trkpt>
      <trkpt lat="44.03168" lon="4.80015">
        <ele>88.1</ele>
        <time>2012-06-13T05:46:46.000Z</time>
      </trkpt>
      <trkpt lat="44.03173" lon="4.80014">
        <ele>87.8</ele>
        <time>2012-06-13T05:46:48.000Z</time>
      </trkpt>
      <trkpt lat="44.03181" lon="4.80009">
        <ele>89</ele>
        <time>2012-06-13T05:46:50.000Z</time>
      </trkpt>
      <trkpt lat="44.03189" lon="4.80007">
        <ele>89.5</ele>
        <time>2012-06-13T05:46:52.000Z</time>
      </trkpt>
      <trkpt lat="44.03194" lon="4.80006">
        <ele>89.8</ele>
        <time>2012-06-13T05:46:54.000Z</time>
      </trkpt>
      <trkpt lat="44.03202" lon="4.80004">
        <ele>89.8</ele>
        <time>2012-06-13T05:46:56.000Z</time>
      </trkpt>
      <trkpt lat="44.03208" lon="4.80002">
        <ele>90.1</ele>
        <time>2012-06-13T05:46:58.000Z</time>
      </trkpt>
      <trkpt lat="44.03213" lon="4.8">
        <ele>89.7</ele>
        <time>2012-06-13T05:47:00.000Z</time>
      </trkpt>
      <trkpt lat="44.0322" lon="4.79999">
        <ele>89.2</ele>
        <time>2012-06-13T05:47:02.000Z</time>
      </trkpt>
      <trkpt lat="44.03226" lon="4.79999">
        <ele>89.2</ele>
        <time>2012-06-13T05:47:03.000Z</time>
      </trkpt>
      <trkpt lat="44.03237" lon="4.79995">
        <ele>89.6</ele>
        <time>2012-06-13T05:47:05.000Z</time>
      </trkpt>
      <trkpt lat="44.03242" lon="4.79991">
        <ele>89.6</ele>
        <time>2012-06-13T05:47:06.000Z</time>
      </trkpt>
      <trkpt lat="44.03246" lon="4.79988">
        <ele>89.9</ele>
        <time>2012-06-13T05:47:07.000Z</time>
      </trkpt>
      <trkpt lat="44.03255" lon="4.79983">
        <ele>89.6</ele>
        <time>2012-06-13T05:47:09.000Z</time>
      </trkpt>
      <trkpt lat="44.03261" lon="4.79979">
        <ele>89.6</ele>
        <time>2012-06-13T05:47:10.000Z</time>
      </trkpt>
      <trkpt lat="44.03266" lon="4.79977">
        <ele>89.8</ele>
        <time>2012-06-13T05:47:12.000Z</time>
      </trkpt>
      <trkpt lat="44.03272" lon="4.79971">
        <ele>87.8</ele>
        <time>2012-06-13T05:47:14.000Z</time>
      </trkpt>
      <trkpt lat="44.03278" lon="4.79968">
        <ele>84.1</ele>
        <time>2012-06-13T05:47:15.000Z</time>
      </trkpt>
      <trkpt lat="44.03283" lon="4.79967">
        <ele>83.3</ele>
        <time>2012-06-13T05:47:16.000Z</time>
      </trkpt>
      <trkpt lat="44.03289" lon="4.79964">
        <ele>83</ele>
        <time>2012-06-13T05:47:17.000Z</time>
      </trkpt>
      <trkpt lat="44.03294" lon="4.79955">
        <ele>82.4</ele>
        <time>2012-06-13T05:47:19.000Z</time>
      </trkpt>
      <trkpt lat="44.03299" lon="4.79953">
        <ele>82.9</ele>
        <time>2012-06-13T05:47:21.000Z</time>
      </trkpt>
      <trkpt lat="44.03303" lon="4.79952">
        <ele>82.4</ele>
        <time>2012-06-13T05:47:23.000Z</time>
      </trkpt>
      <trkpt lat="44.03306" lon="4.79947">
        <ele>82</ele>
        <time>2012-06-13T05:47:25.000Z</time>
      </trkpt>
      <trkpt lat="44.03307" lon="4.79937">
        <ele>81.8</ele>
        <time>2012-06-13T05:47:28.000Z</time>
      </trkpt>
      <trkpt lat="44.03307" lon="4.79928">
        <ele>82.9</ele>
        <time>2012-06-13T05:47:29.000Z</time>
      </trkpt>
      <trkpt lat="44.03306" lon="4.79921">
        <ele>82.9</ele>
        <time>2012-06-13T05:47:30.000Z</time>
      </trkpt>
      <trkpt lat="44.03306" lon="4.79913">
        <ele>83.3</ele>
        <time>2012-06-13T05:47:31.000Z</time>
      </trkpt>
      <trkpt lat="44.03307" lon="4.79902">
        <ele>83.5</ele>
        <time>2012-06-13T05:47:33.000Z</time>
      </trkpt>
      <trkpt lat="44.03304" lon="4.79892">
        <ele>82.5</ele>
        <time>2012-06-13T05:47:35.000Z</time>
      </trkpt>
      <trkpt lat="44.03304" lon="4.79883">
        <ele>81.1</ele>
        <time>2012-06-13T05:47:37.000Z</time>
      </trkpt>
      <trkpt lat="44.03304" lon="4.79874">
        <ele>80.2</ele>
        <time>2012-06-13T05:47:39.000Z</time>
      </trkpt>
      <trkpt lat="44.03301" lon="4.79865">
        <ele>79.1</ele>
        <time>2012-06-13T05:47:41.000Z</time>
      </trkpt>
      <trkpt lat="44.03299" lon="4.79856">
        <ele>78.1</ele>
        <time>2012-06-13T05:47:43.000Z</time>
      </trkpt>
      <trkpt lat="44.033" lon="4.79849">
        <ele>78.3</ele>
        <time>2012-06-13T05:47:44.000Z</time>
      </trkpt>
      <trkpt lat="44.03299" lon="4.79835">
        <ele>78.3</ele>
        <time>2012-06-13T05:47:46.000Z</time>
      </trkpt>
      <trkpt lat="44.03297" lon="4.7983">
        <ele>78.1</ele>
        <time>2012-06-13T05:47:47.000Z</time>
      </trkpt>
      <trkpt lat="44.03297" lon="4.79816">
        <ele>77.8</ele>
        <time>2012-06-13T05:47:49.000Z</time>
      </trkpt>
      <trkpt lat="44.03296" lon="4.7981">
        <ele>77.7</ele>
        <time>2012-06-13T05:47:50.000Z</time>
      </trkpt>
      <trkpt lat="44.03298" lon="4.79801">
        <ele>77.5</ele>
        <time>2012-06-13T05:47:52.000Z</time>
      </trkpt>
      <trkpt lat="44.03299" lon="4.79794">
        <ele>77.5</ele>
        <time>2012-06-13T05:47:53.000Z</time>
      </trkpt>
      <trkpt lat="44.033" lon="4.79788">
        <ele>78</ele>
        <time>2012-06-13T05:47:54.000Z</time>
      </trkpt>
      <trkpt lat="44.03301" lon="4.79779">
        <ele>76.9</ele>
        <time>2012-06-13T05:47:56.000Z</time>
      </trkpt>
      <trkpt lat="44.03301" lon="4.79773">
        <ele>76</ele>
        <time>2012-06-13T05:47:57.000Z</time>
      </trkpt>
      <trkpt lat="44.03303" lon="4.79765">
        <ele>75.1</ele>
        <time>2012-06-13T05:47:59.000Z</time>
      </trkpt>
      <trkpt lat="44.03304" lon="4.79755">
        <ele>75.5</ele>
        <time>2012-06-13T05:48:01.000Z</time>
      </trkpt>
      <trkpt lat="44.03304" lon="4.79742">
        <ele>75.8</ele>
        <time>2012-06-13T05:48:03.000Z</time>
      </trkpt>
      <trkpt lat="44.03305" lon="4.79736">
        <ele>76.3</ele>
        <time>2012-06-13T05:48:05.000Z</time>
      </trkpt>
      <trkpt lat="44.03303" lon="4.79726">
        <ele>75.7</ele>
        <time>2012-06-13T05:48:07.000Z</time>
      </trkpt>
      <trkpt lat="44.03302" lon="4.79716">
        <ele>76.3</ele>
        <time>2012-06-13T05:48:08.000Z</time>
      </trkpt>
      <trkpt lat="44.03303" lon="4.79709">
        <ele>76.8</ele>
        <time>2012-06-13T05:48:09.000Z</time>
      </trkpt>
      <trkpt lat="44.03303" lon="4.79702">
        <ele>77</ele>
        <time>2012-06-13T05:48:10.000Z</time>
      </trkpt>
      <trkpt lat="44.03302" lon="4.79691">
        <ele>76.9</ele>
        <time>2012-06-13T05:48:13.000Z</time>
      </trkpt>
      <trkpt lat="44.033" lon="4.79681">
        <ele>76.9</ele>
        <time>2012-06-13T05:48:15.000Z</time>
      </trkpt>
      <trkpt lat="44.03296" lon="4.79674">
        <ele>77</ele>
        <time>2012-06-13T05:48:17.000Z</time>
      </trkpt>
      <trkpt lat="44.03297" lon="4.79661">
        <ele>76.8</ele>
        <time>2012-06-13T05:48:20.000Z</time>
      </trkpt>
      <trkpt lat="44.03298" lon="4.79652">
        <ele>75.8</ele>
        <time>2012-06-13T05:48:22.000Z</time>
      </trkpt>
      <trkpt lat="44.033" lon="4.79644">
        <ele>76.9</ele>
        <time>2012-06-13T05:48:24.000Z</time>
      </trkpt>
      <trkpt lat="44.03304" lon="4.79634">
        <ele>78</ele>
        <time>2012-06-13T05:48:26.000Z</time>
      </trkpt>
      <trkpt lat="44.0331" lon="4.79626">
        <ele>77.6</ele>
        <time>2012-06-13T05:48:28.000Z</time>
      </trkpt>
      <trkpt lat="44.03313" lon="4.7962">
        <ele>77.5</ele>
        <time>2012-06-13T05:48:29.000Z</time>
      </trkpt>
      <trkpt lat="44.0332" lon="4.79614">
        <ele>76.6</ele>
        <time>2012-06-13T05:48:31.000Z</time>
      </trkpt>
      <trkpt lat="44.03324" lon="4.7961">
        <ele>76.7</ele>
        <time>2012-06-13T05:48:32.000Z</time>
      </trkpt>
      <trkpt lat="44.03327" lon="4.79602">
        <ele>75.7</ele>
        <time>2012-06-13T05:48:34.000Z</time>
      </trkpt>
      <trkpt lat="44.03332" lon="4.796">
        <ele>76.1</ele>
        <time>2012-06-13T05:48:35.000Z</time>
      </trkpt>
      <trkpt lat="44.03335" lon="4.79594">
        <ele>76.7</ele>
        <time>2012-06-13T05:48:36.000Z</time>
      </trkpt>
      <trkpt lat="44.03339" lon="4.79588">
        <ele>77.3</ele>
        <time>2012-06-13T05:48:37.000Z</time>
      </trkpt>
      <trkpt lat="44.03344" lon="4.79583">
        <ele>78.5</ele>
        <time>2012-06-13T05:48:38.000Z</time>
      </trkpt>
      <trkpt lat="44.03349" lon="4.79582">
        <ele>78.3</ele>
        <time>2012-06-13T05:48:39.000Z</time>
      </trkpt>
      <trkpt lat="44.03354" lon="4.79571">
        <ele>77.7</ele>
        <time>2012-06-13T05:48:41.000Z</time>
      </trkpt>
      <trkpt lat="44.03358" lon="4.79561">
        <ele>77</ele>
        <time>2012-06-13T05:48:43.000Z</time>
      </trkpt>
      <trkpt lat="44.03361" lon="4.79553">
        <ele>77</ele>
        <time>2012-06-13T05:48:45.000Z</time>
      </trkpt>
      <trkpt lat="44.03364" lon="4.79545">
        <ele>78.5</ele>
        <time>2012-06-13T05:48:46.000Z</time>
      </trkpt>
      <trkpt lat="44.03366" lon="4.79536">
        <ele>78.4</ele>
        <time>2012-06-13T05:48:48.000Z</time>
      </trkpt>
      <trkpt lat="44.03371" lon="4.79527">
        <ele>78.5</ele>
        <time>2012-06-13T05:48:50.000Z</time>
      </trkpt>
      <trkpt lat="44.03374" lon="4.79519">
        <ele>77.9</ele>
        <time>2012-06-13T05:48:52.000Z</time>
      </trkpt>
      <trkpt lat="44.03376" lon="4.79508">
        <ele>78.6</ele>
        <time>2012-06-13T05:48:54.000Z</time>
      </trkpt>
      <trkpt lat="44.03376" lon="4.79496">
        <ele>79</ele>
        <time>2012-06-13T05:48:56.000Z</time>
      </trkpt>
      <trkpt lat="44.03378" lon="4.79489">
        <ele>78.8</ele>
        <time>2012-06-13T05:48:58.000Z</time>
      </trkpt>
      <trkpt lat="44.03378" lon="4.79478">
        <ele>78.8</ele>
        <time>2012-06-13T05:49:00.000Z</time>
      </trkpt>
      <trkpt lat="44.03377" lon="4.79471">
        <ele>79.2</ele>
        <time>2012-06-13T05:49:01.000Z</time>
      </trkpt>
      <trkpt lat="44.03377" lon="4.79463">
        <ele>79.3</ele>
        <time>2012-06-13T05:49:02.000Z</time>
      </trkpt>
      <trkpt lat="44.03376" lon="4.79457">
        <ele>79.3</ele>
        <time>2012-06-13T05:49:03.000Z</time>
      </trkpt>
      <trkpt lat="44.03375" lon="4.79443">
        <ele>79.8</ele>
        <time>2012-06-13T05:49:05.000Z</time>
      </trkpt>
      <trkpt lat="44.03377" lon="4.79431">
        <ele>79.8</ele>
        <time>2012-06-13T05:49:07.000Z</time>
      </trkpt>
      <trkpt lat="44.03377" lon="4.79421">
        <ele>79.8</ele>
        <time>2012-06-13T05:49:09.000Z</time>
      </trkpt>
      <trkpt lat="44.03376" lon="4.79415">
        <ele>79.9</ele>
        <time>2012-06-13T05:49:10.000Z</time>
      </trkpt>
      <trkpt lat="44.03377" lon="4.79405">
        <ele>79.9</ele>
        <time>2012-06-13T05:49:12.000Z</time>
      </trkpt>
      <trkpt lat="44.03377" lon="4.79397">
        <ele>79.9</ele>
        <time>2012-06-13T05:49:13.000Z</time>
      </trkpt>
      <trkpt lat="44.03378" lon="4.79387">
        <ele>79.9</ele>
        <time>2012-06-13T05:49:15.000Z</time>
      </trkpt>
      <trkpt lat="44.03376" lon="4.79377">
        <ele>80</ele>
        <time>2012-06-13T05:49:18.000Z</time>
      </trkpt>
      <trkpt lat="44.03375" lon="4.7937">
        <ele>79.6</ele>
        <time>2012-06-13T05:49:20.000Z</time>
      </trkpt>
      <trkpt lat="44.03375" lon="4.79363">
        <ele>79.8</ele>
        <time>2012-06-13T05:49:23.000Z</time>
      </trkpt>
      <trkpt lat="44.03371" lon="4.79355">
        <ele>79.7</ele>
        <time>2012-06-13T05:49:25.000Z</time>
      </trkpt>
      <trkpt lat="44.03369" lon="4.79345">
        <ele>79.8</ele>
        <time>2012-06-13T05:49:26.000Z</time>
      </trkpt>
      <trkpt lat="44.0337" lon="4.79337">
        <ele>79.9</ele>
        <time>2012-06-13T05:49:27.000Z</time>
      </trkpt>
      <trkpt lat="44.03371" lon="4.79329">
        <ele>79.9</ele>
        <time>2012-06-13T05:49:28.000Z</time>
      </trkpt>
      <trkpt lat="44.0337" lon="4.79316">
        <ele>80</ele>
        <time>2012-06-13T05:49:30.000Z</time>
      </trkpt>
      <trkpt lat="44.03372" lon="4.79308">
        <ele>80.3</ele>
        <time>2012-06-13T05:49:31.000Z</time>
      </trkpt>
      <trkpt lat="44.03372" lon="4.79301">
        <ele>80.2</ele>
        <time>2012-06-13T05:49:32.000Z</time>
      </trkpt>
      <trkpt lat="44.03375" lon="4.79284">
        <ele>80.3</ele>
        <time>2012-06-13T05:49:34.000Z</time>
      </trkpt>
      <trkpt lat="44.03374" lon="4.79275">
        <ele>80.2</ele>
        <time>2012-06-13T05:49:36.000Z</time>
      </trkpt>
      <trkpt lat="44.03374" lon="4.79268">
        <ele>80</ele>
        <time>2012-06-13T05:49:37.000Z</time>
      </trkpt>
      <trkpt lat="44.03375" lon="4.79258">
        <ele>80.1</ele>
        <time>2012-06-13T05:49:39.000Z</time>
      </trkpt>
      <trkpt lat="44.03375" lon="4.7925">
        <ele>80.4</ele>
        <time>2012-06-13T05:49:41.000Z</time>
      </trkpt>
      <trkpt lat="44.03377" lon="4.79238">
        <ele>79.4</ele>
        <time>2012-06-13T05:49:43.000Z</time>
      </trkpt>
      <trkpt lat="44.03378" lon="4.79232">
        <ele>79.1</ele>
        <time>2012-06-13T05:49:44.000Z</time>
      </trkpt>
      <trkpt lat="44.03379" lon="4.79224">
        <ele>80</ele>
        <time>2012-06-13T05:49:46.000Z</time>
      </trkpt>
      <trkpt lat="44.03381" lon="4.79215">
        <ele>79.7</ele>
        <time>2012-06-13T05:49:48.000Z</time>
      </trkpt>
      <trkpt lat="44.03379" lon="4.792">
        <ele>78.9</ele>
        <time>2012-06-13T05:49:50.000Z</time>
      </trkpt>
      <trkpt lat="44.03377" lon="4.79191">
        <ele>78.3</ele>
        <time>2012-06-13T05:49:51.000Z</time>
      </trkpt>
      <trkpt lat="44.03376" lon="4.79182">
        <ele>79.3</ele>
        <time>2012-06-13T05:49:52.000Z</time>
      </trkpt>
      <trkpt lat="44.03377" lon="4.79174">
        <ele>78.9</ele>
        <time>2012-06-13T05:49:53.000Z</time>
      </trkpt>
      <trkpt lat="44.03376" lon="4.79165">
        <ele>78</ele>
        <time>2012-06-13T05:49:55.000Z</time>
      </trkpt>
      <trkpt lat="44.03374" lon="4.79159">
        <ele>77.6</ele>
        <time>2012-06-13T05:49:56.000Z</time>
      </trkpt>
      <trkpt lat="44.03374" lon="4.79145">
        <ele>77.8</ele>
        <time>2012-06-13T05:49:58.000Z</time>
      </trkpt>
      <trkpt lat="44.03375" lon="4.79134">
        <ele>78.4</ele>
        <time>2012-06-13T05:50:00.000Z</time>
      </trkpt>
      <trkpt lat="44.03375" lon="4.79124">
        <ele>78.7</ele>
        <time>2012-06-13T05:50:02.000Z</time>
      </trkpt>
      <trkpt lat="44.03376" lon="4.79116">
        <ele>78.5</ele>
        <time>2012-06-13T05:50:04.000Z</time>
      </trkpt>
      <trkpt lat="44.03374" lon="4.79106">
        <ele>78.9</ele>
        <time>2012-06-13T05:50:05.000Z</time>
      </trkpt>
      <trkpt lat="44.03374" lon="4.79097">
        <ele>78.6</ele>
        <time>2012-06-13T05:50:07.000Z</time>
      </trkpt>
      <trkpt lat="44.03372" lon="4.79084">
        <ele>79.7</ele>
        <time>2012-06-13T05:50:09.000Z</time>
      </trkpt>
      <trkpt lat="44.03371" lon="4.79074">
        <ele>80.1</ele>
        <time>2012-06-13T05:50:10.000Z</time>
      </trkpt>
      <trkpt lat="44.03373" lon="4.79066">
        <ele>80.4</ele>
        <time>2012-06-13T05:50:11.000Z</time>
      </trkpt>
      <trkpt lat="44.03372" lon="4.79051">
        <ele>80.3</ele>
        <time>2012-06-13T05:50:13.000Z</time>
      </trkpt>
      <trkpt lat="44.03373" lon="4.79038">
        <ele>80.7</ele>
        <time>2012-06-13T05:50:15.000Z</time>
      </trkpt>
      <trkpt lat="44.03372" lon="4.7903">
        <ele>80.9</ele>
        <time>2012-06-13T05:50:16.000Z</time>
      </trkpt>
      <trkpt lat="44.03368" lon="4.7902">
        <ele>80.6</ele>
        <time>2012-06-13T05:50:18.000Z</time>
      </trkpt>
      <trkpt lat="44.03366" lon="4.7901">
        <ele>80.6</ele>
        <time>2012-06-13T05:50:20.000Z</time>
      </trkpt>
      <trkpt lat="44.03365" lon="4.79002">
        <ele>80.5</ele>
        <time>2012-06-13T05:50:21.000Z</time>
      </trkpt>
      <trkpt lat="44.03364" lon="4.78995">
        <ele>80.8</ele>
        <time>2012-06-13T05:50:22.000Z</time>
      </trkpt>
      <trkpt lat="44.03366" lon="4.78989">
        <ele>79.8</ele>
        <time>2012-06-13T05:50:23.000Z</time>
      </trkpt>
      <trkpt lat="44.03368" lon="4.78975">
        <ele>78.7</ele>
        <time>2012-06-13T05:50:25.000Z</time>
      </trkpt>
      <trkpt lat="44.03365" lon="4.78968">
        <ele>78.2</ele>
        <time>2012-06-13T05:50:26.000Z</time>
      </trkpt>
      <trkpt lat="44.03363" lon="4.78958">
        <ele>77.7</ele>
        <time>2012-06-13T05:50:27.000Z</time>
      </trkpt>
      <trkpt lat="44.03362" lon="4.7895">
        <ele>77.6</ele>
        <time>2012-06-13T05:50:28.000Z</time>
      </trkpt>
      <trkpt lat="44.03363" lon="4.78937">
        <ele>77.9</ele>
        <time>2012-06-13T05:50:30.000Z</time>
      </trkpt>
      <trkpt lat="44.03363" lon="4.7893">
        <ele>78.6</ele>
        <time>2012-06-13T05:50:31.000Z</time>
      </trkpt>
      <trkpt lat="44.03364" lon="4.78918">
        <ele>77.6</ele>
        <time>2012-06-13T05:50:33.000Z</time>
      </trkpt>
      <trkpt lat="44.03366" lon="4.78909">
        <ele>77.7</ele>
        <time>2012-06-13T05:50:35.000Z</time>
      </trkpt>
      <trkpt lat="44.03367" lon="4.78898">
        <ele>77.4</ele>
        <time>2012-06-13T05:50:37.000Z</time>
      </trkpt>
      <trkpt lat="44.03368" lon="4.78888">
        <ele>76.7</ele>
        <time>2012-06-13T05:50:39.000Z</time>
      </trkpt>
      <trkpt lat="44.03368" lon="4.7888">
        <ele>76.6</ele>
        <time>2012-06-13T05:50:40.000Z</time>
      </trkpt>
      <trkpt lat="44.03368" lon="4.7887">
        <ele>76.9</ele>
        <time>2012-06-13T05:50:42.000Z</time>
      </trkpt>
      <trkpt lat="44.0337" lon="4.78862">
        <ele>77.4</ele>
        <time>2012-06-13T05:50:43.000Z</time>
      </trkpt>
      <trkpt lat="44.0337" lon="4.78851">
        <ele>77.3</ele>
        <time>2012-06-13T05:50:46.000Z</time>
      </trkpt>
      <trkpt lat="44.03372" lon="4.78841">
        <ele>77.2</ele>
        <time>2012-06-13T05:50:48.000Z</time>
      </trkpt>
      <trkpt lat="44.03372" lon="4.78835">
        <ele>76.5</ele>
        <time>2012-06-13T05:50:49.000Z</time>
      </trkpt>
      <trkpt lat="44.03373" lon="4.78824">
        <ele>77.2</ele>
        <time>2012-06-13T05:50:51.000Z</time>
      </trkpt>
      <trkpt lat="44.03371" lon="4.78817">
        <ele>77.4</ele>
        <time>2012-06-13T05:50:52.000Z</time>
      </trkpt>
      <trkpt lat="44.03371" lon="4.78808">
        <ele>78.9</ele>
        <time>2012-06-13T05:50:53.000Z</time>
      </trkpt>
      <trkpt lat="44.0337" lon="4.788">
        <ele>79.1</ele>
        <time>2012-06-13T05:50:54.000Z</time>
      </trkpt>
      <trkpt lat="44.03372" lon="4.78787">
        <ele>77.8</ele>
        <time>2012-06-13T05:50:57.000Z</time>
      </trkpt>
      <trkpt lat="44.03372" lon="4.7878">
        <ele>77.8</ele>
        <time>2012-06-13T05:50:58.000Z</time>
      </trkpt>
      <trkpt lat="44.03373" lon="4.78773">
        <ele>78.4</ele>
        <time>2012-06-13T05:50:59.000Z</time>
      </trkpt>
      <trkpt lat="44.03373" lon="4.78766">
        <ele>78.4</ele>
        <time>2012-06-13T05:51:00.000Z</time>
      </trkpt>
      <trkpt lat="44.03372" lon="4.78758">
        <ele>78</ele>
        <time>2012-06-13T05:51:01.000Z</time>
      </trkpt>
      <trkpt lat="44.03373" lon="4.78748">
        <ele>78.8</ele>
        <time>2012-06-13T05:51:02.000Z</time>
      </trkpt>
      <trkpt lat="44.03374" lon="4.78739">
        <ele>78.8</ele>
        <time>2012-06-13T05:51:03.000Z</time>
      </trkpt>
      <trkpt lat="44.03373" lon="4.78727">
        <ele>79.3</ele>
        <time>2012-06-13T05:51:04.000Z</time>
      </trkpt>
      <trkpt lat="44.03374" lon="4.78718">
        <ele>79.6</ele>
        <time>2012-06-13T05:51:05.000Z</time>
      </trkpt>
      <trkpt lat="44.03374" lon="4.78707">
        <ele>80.7</ele>
        <time>2012-06-13T05:51:06.000Z</time>
      </trkpt>
      <trkpt lat="44.03376" lon="4.78699">
        <ele>80.9</ele>
        <time>2012-06-13T05:51:07.000Z</time>
      </trkpt>
      <trkpt lat="44.03377" lon="4.78692">
        <ele>80.9</ele>
        <time>2012-06-13T05:51:08.000Z</time>
      </trkpt>
      <trkpt lat="44.03379" lon="4.78683">
        <ele>81.2</ele>
        <time>2012-06-13T05:51:09.000Z</time>
      </trkpt>
      <trkpt lat="44.03381" lon="4.78676">
        <ele>81.5</ele>
        <time>2012-06-13T05:51:10.000Z</time>
      </trkpt>
      <trkpt lat="44.03383" lon="4.78668">
        <ele>81.2</ele>
        <time>2012-06-13T05:51:11.000Z</time>
      </trkpt>
      <trkpt lat="44.03385" lon="4.78661">
        <ele>81.2</ele>
        <time>2012-06-13T05:51:12.000Z</time>
      </trkpt>
      <trkpt lat="44.03386" lon="4.7865">
        <ele>81.8</ele>
        <time>2012-06-13T05:51:13.000Z</time>
      </trkpt>
      <trkpt lat="44.03385" lon="4.78638">
        <ele>81.1</ele>
        <time>2012-06-13T05:51:14.000Z</time>
      </trkpt>
      <trkpt lat="44.03386" lon="4.78631">
        <ele>81.3</ele>
        <time>2012-06-13T05:51:15.000Z</time>
      </trkpt>
      <trkpt lat="44.03386" lon="4.78625">
        <ele>81.8</ele>
        <time>2012-06-13T05:51:16.000Z</time>
      </trkpt>
      <trkpt lat="44.03386" lon="4.78615">
        <ele>82.4</ele>
        <time>2012-06-13T05:51:17.000Z</time>
      </trkpt>
      <trkpt lat="44.03387" lon="4.78603">
        <ele>82.5</ele>
        <time>2012-06-13T05:51:19.000Z</time>
      </trkpt>
      <trkpt lat="44.03387" lon="4.78589">
        <ele>80.3</ele>
        <time>2012-06-13T05:51:21.000Z</time>
      </trkpt>
      <trkpt lat="44.03388" lon="4.78579">
        <ele>80</ele>
        <time>2012-06-13T05:51:23.000Z</time>
      </trkpt>
      <trkpt lat="44.03386" lon="4.78571">
        <ele>79.8</ele>
        <time>2012-06-13T05:51:24.000Z</time>
      </trkpt>
      <trkpt lat="44.03385" lon="4.78564">
        <ele>80.3</ele>
        <time>2012-06-13T05:51:25.000Z</time>
      </trkpt>
      <trkpt lat="44.03384" lon="4.78556">
        <ele>80.2</ele>
        <time>2012-06-13T05:51:26.000Z</time>
      </trkpt>
      <trkpt lat="44.03383" lon="4.78547">
        <ele>81.3</ele>
        <time>2012-06-13T05:51:27.000Z</time>
      </trkpt>
      <trkpt lat="44.03384" lon="4.78538">
        <ele>81.3</ele>
        <time>2012-06-13T05:51:28.000Z</time>
      </trkpt>
      <trkpt lat="44.03385" lon="4.78528">
        <ele>81.6</ele>
        <time>2012-06-13T05:51:29.000Z</time>
      </trkpt>
      <trkpt lat="44.03385" lon="4.78518">
        <ele>81.8</ele>
        <time>2012-06-13T05:51:30.000Z</time>
      </trkpt>
      <trkpt lat="44.03384" lon="4.78511">
        <ele>81.1</ele>
        <time>2012-06-13T05:51:31.000Z</time>
      </trkpt>
      <trkpt lat="44.03387" lon="4.78506">
        <ele>81.1</ele>
        <time>2012-06-13T05:51:32.000Z</time>
      </trkpt>
      <trkpt lat="44.03387" lon="4.78492">
        <ele>80.9</ele>
        <time>2012-06-13T05:51:34.000Z</time>
      </trkpt>
      <trkpt lat="44.03388" lon="4.78482">
        <ele>80.5</ele>
        <time>2012-06-13T05:51:36.000Z</time>
      </trkpt>
      <trkpt lat="44.03388" lon="4.78473">
        <ele>80.1</ele>
        <time>2012-06-13T05:51:37.000Z</time>
      </trkpt>
      <trkpt lat="44.03387" lon="4.78463">
        <ele>80</ele>
        <time>2012-06-13T05:51:38.000Z</time>
      </trkpt>
      <trkpt lat="44.03385" lon="4.78455">
        <ele>80</ele>
        <time>2012-06-13T05:51:39.000Z</time>
      </trkpt>
      <trkpt lat="44.03385" lon="4.78448">
        <ele>79</ele>
        <time>2012-06-13T05:51:40.000Z</time>
      </trkpt>
      <trkpt lat="44.03384" lon="4.7844">
        <ele>78.5</ele>
        <time>2012-06-13T05:51:41.000Z</time>
      </trkpt>
      <trkpt lat="44.03384" lon="4.78433">
        <ele>77.9</ele>
        <time>2012-06-13T05:51:42.000Z</time>
      </trkpt>
      <trkpt lat="44.03384" lon="4.78426">
        <ele>78.6</ele>
        <time>2012-06-13T05:51:43.000Z</time>
      </trkpt>
      <trkpt lat="44.03382" lon="4.78421">
        <ele>77.8</ele>
        <time>2012-06-13T05:51:44.000Z</time>
      </trkpt>
      <trkpt lat="44.03385" lon="4.78411">
        <ele>77.4</ele>
        <time>2012-06-13T05:51:46.000Z</time>
      </trkpt>
      <trkpt lat="44.03383" lon="4.78402">
        <ele>77.8</ele>
        <time>2012-06-13T05:51:47.000Z</time>
      </trkpt>
      <trkpt lat="44.03382" lon="4.78392">
        <ele>77.8</ele>
        <time>2012-06-13T05:51:48.000Z</time>
      </trkpt>
      <trkpt lat="44.03382" lon="4.78384">
        <ele>77.6</ele>
        <time>2012-06-13T05:51:49.000Z</time>
      </trkpt>
      <trkpt lat="44.03381" lon="4.78376">
        <ele>77.1</ele>
        <time>2012-06-13T05:51:50.000Z</time>
      </trkpt>
      <trkpt lat="44.0338" lon="4.78369">
        <ele>76.5</ele>
        <time>2012-06-13T05:51:51.000Z</time>
      </trkpt>
      <trkpt lat="44.03381" lon="4.78354">
        <ele>76.3</ele>
        <time>2012-06-13T05:51:53.000Z</time>
      </trkpt>
      <trkpt lat="44.0338" lon="4.78348">
        <ele>75.9</ele>
        <time>2012-06-13T05:51:54.000Z</time>
      </trkpt>
      <trkpt lat="44.03378" lon="4.78334">
        <ele>75.6</ele>
        <time>2012-06-13T05:51:56.000Z</time>
      </trkpt>
      <trkpt lat="44.03379" lon="4.78327">
        <ele>76</ele>
        <time>2012-06-13T05:51:57.000Z</time>
      </trkpt>
      <trkpt lat="44.03378" lon="4.78317">
        <ele>76.4</ele>
        <time>2012-06-13T05:51:58.000Z</time>
      </trkpt>
      <trkpt lat="44.03378" lon="4.7831">
        <ele>76.5</ele>
        <time>2012-06-13T05:51:59.000Z</time>
      </trkpt>
      <trkpt lat="44.03377" lon="4.783">
        <ele>77.3</ele>
        <time>2012-06-13T05:52:01.000Z</time>
      </trkpt>
      <trkpt lat="44.03378" lon="4.7829">
        <ele>78.2</ele>
        <time>2012-06-13T05:52:03.000Z</time>
      </trkpt>
      <trkpt lat="44.03378" lon="4.78277">
        <ele>77.9</ele>
        <time>2012-06-13T05:52:05.000Z</time>
      </trkpt>
      <trkpt lat="44.03378" lon="4.78269">
        <ele>77.7</ele>
        <time>2012-06-13T05:52:06.000Z</time>
      </trkpt>
      <trkpt lat="44.03379" lon="4.78262">
        <ele>77.6</ele>
        <time>2012-06-13T05:52:07.000Z</time>
      </trkpt>
      <trkpt lat="44.03378" lon="4.78255">
        <ele>78.1</ele>
        <time>2012-06-13T05:52:08.000Z</time>
      </trkpt>
      <trkpt lat="44.03378" lon="4.78247">
        <ele>78.4</ele>
        <time>2012-06-13T05:52:10.000Z</time>
      </trkpt>
      <trkpt lat="44.03377" lon="4.7824">
        <ele>78.3</ele>
        <time>2012-06-13T05:52:11.000Z</time>
      </trkpt>
      <trkpt lat="44.03377" lon="4.78233">
        <ele>78.5</ele>
        <time>2012-06-13T05:52:12.000Z</time>
      </trkpt>
      <trkpt lat="44.03377" lon="4.78221">
        <ele>77.9</ele>
        <time>2012-06-13T05:52:14.000Z</time>
      </trkpt>
      <trkpt lat="44.03377" lon="4.7821">
        <ele>78.3</ele>
        <time>2012-06-13T05:52:16.000Z</time>
      </trkpt>
      <trkpt lat="44.0338" lon="4.78201">
        <ele>78.9</ele>
        <time>2012-06-13T05:52:18.000Z</time>
      </trkpt>
      <trkpt lat="44.03382" lon="4.78191">
        <ele>78.9</ele>
        <time>2012-06-13T05:52:20.000Z</time>
      </trkpt>
      <trkpt lat="44.03381" lon="4.7818">
        <ele>78.2</ele>
        <time>2012-06-13T05:52:22.000Z</time>
      </trkpt>
      <trkpt lat="44.0338" lon="4.78171">
        <ele>78.8</ele>
        <time>2012-06-13T05:52:24.000Z</time>
      </trkpt>
      <trkpt lat="44.03379" lon="4.78162">
        <ele>78.9</ele>
        <time>2012-06-13T05:52:26.000Z</time>
      </trkpt>
      <trkpt lat="44.0338" lon="4.78155">
        <ele>78.2</ele>
        <time>2012-06-13T05:52:28.000Z</time>
      </trkpt>
      <trkpt lat="44.03379" lon="4.78149">
        <ele>78.2</ele>
        <time>2012-06-13T05:52:29.000Z</time>
      </trkpt>
      <trkpt lat="44.03379" lon="4.78142">
        <ele>78.4</ele>
        <time>2012-06-13T05:52:30.000Z</time>
      </trkpt>
      <trkpt lat="44.03379" lon="4.78128">
        <ele>78.7</ele>
        <time>2012-06-13T05:52:32.000Z</time>
      </trkpt>
      <trkpt lat="44.03376" lon="4.78117">
        <ele>79.2</ele>
        <time>2012-06-13T05:52:34.000Z</time>
      </trkpt>
      <trkpt lat="44.03372" lon="4.78104">
        <ele>79.3</ele>
        <time>2012-06-13T05:52:36.000Z</time>
      </trkpt>
      <trkpt lat="44.03371" lon="4.78097">
        <ele>79.8</ele>
        <time>2012-06-13T05:52:37.000Z</time>
      </trkpt>
      <trkpt lat="44.03372" lon="4.78088">
        <ele>80.3</ele>
        <time>2012-06-13T05:52:39.000Z</time>
      </trkpt>
      <trkpt lat="44.03371" lon="4.78081">
        <ele>80.2</ele>
        <time>2012-06-13T05:52:41.000Z</time>
      </trkpt>
      <trkpt lat="44.03367" lon="4.78071">
        <ele>80.4</ele>
        <time>2012-06-13T05:52:43.000Z</time>
      </trkpt>
      <trkpt lat="44.03366" lon="4.78061">
        <ele>80.2</ele>
        <time>2012-06-13T05:52:45.000Z</time>
      </trkpt>
      <trkpt lat="44.03364" lon="4.78055">
        <ele>79.8</ele>
        <time>2012-06-13T05:52:46.000Z</time>
      </trkpt>
      <trkpt lat="44.03359" lon="4.78041">
        <ele>79.7</ele>
        <time>2012-06-13T05:52:48.000Z</time>
      </trkpt>
      <trkpt lat="44.03356" lon="4.78031">
        <ele>79.2</ele>
        <time>2012-06-13T05:52:50.000Z</time>
      </trkpt>
      <trkpt lat="44.03355" lon="4.78025">
        <ele>79.4</ele>
        <time>2012-06-13T05:52:51.000Z</time>
      </trkpt>
      <trkpt lat="44.03353" lon="4.78019">
        <ele>79.4</ele>
        <time>2012-06-13T05:52:52.000Z</time>
      </trkpt>
      <trkpt lat="44.03352" lon="4.7801">
        <ele>79.5</ele>
        <time>2012-06-13T05:52:54.000Z</time>
      </trkpt>
      <trkpt lat="44.03354" lon="4.77997">
        <ele>80.1</ele>
        <time>2012-06-13T05:52:56.000Z</time>
      </trkpt>
      <trkpt lat="44.03355" lon="4.77987">
        <ele>80.6</ele>
        <time>2012-06-13T05:52:58.000Z</time>
      </trkpt>
      <trkpt lat="44.03357" lon="4.77975">
        <ele>80.5</ele>
        <time>2012-06-13T05:53:00.000Z</time>
      </trkpt>
      <trkpt lat="44.03357" lon="4.77964">
        <ele>80.3</ele>
        <time>2012-06-13T05:53:02.000Z</time>
      </trkpt>
      <trkpt lat="44.0336" lon="4.77957">
        <ele>80.6</ele>
        <time>2012-06-13T05:53:03.000Z</time>
      </trkpt>
      <trkpt lat="44.03361" lon="4.77944">
        <ele>80.5</ele>
        <time>2012-06-13T05:53:05.000Z</time>
      </trkpt>
      <trkpt lat="44.03357" lon="4.77931">
        <ele>80.1</ele>
        <time>2012-06-13T05:53:07.000Z</time>
      </trkpt>
      <trkpt lat="44.03356" lon="4.77922">
        <ele>79.5</ele>
        <time>2012-06-13T05:53:09.000Z</time>
      </trkpt>
      <trkpt lat="44.03357" lon="4.77913">
        <ele>79.3</ele>
        <time>2012-06-13T05:53:10.000Z</time>
      </trkpt>
      <trkpt lat="44.03353" lon="4.779">
        <ele>78.4</ele>
        <time>2012-06-13T05:53:12.000Z</time>
      </trkpt>
      <trkpt lat="44.0335" lon="4.77889">
        <ele>78.6</ele>
        <time>2012-06-13T05:53:14.000Z</time>
      </trkpt>
      <trkpt lat="44.03349" lon="4.7788">
        <ele>78.8</ele>
        <time>2012-06-13T05:53:15.000Z</time>
      </trkpt>
      <trkpt lat="44.03347" lon="4.77873">
        <ele>78.8</ele>
        <time>2012-06-13T05:53:16.000Z</time>
      </trkpt>
      <trkpt lat="44.03343" lon="4.77862">
        <ele>77.2</ele>
        <time>2012-06-13T05:53:18.000Z</time>
      </trkpt>
      <trkpt lat="44.03342" lon="4.77856">
        <ele>77.5</ele>
        <time>2012-06-13T05:53:19.000Z</time>
      </trkpt>
      <trkpt lat="44.0334" lon="4.77845">
        <ele>78.4</ele>
        <time>2012-06-13T05:53:21.000Z</time>
      </trkpt>
      <trkpt lat="44.03338" lon="4.77839">
        <ele>78.1</ele>
        <time>2012-06-13T05:53:22.000Z</time>
      </trkpt>
      <trkpt lat="44.03335" lon="4.77828">
        <ele>77.4</ele>
        <time>2012-06-13T05:53:24.000Z</time>
      </trkpt>
      <trkpt lat="44.03334" lon="4.77816">
        <ele>77.5</ele>
        <time>2012-06-13T05:53:26.000Z</time>
      </trkpt>
      <trkpt lat="44.03334" lon="4.77809">
        <ele>78.2</ele>
        <time>2012-06-13T05:53:27.000Z</time>
      </trkpt>
      <trkpt lat="44.03333" lon="4.77798">
        <ele>78.1</ele>
        <time>2012-06-13T05:53:29.000Z</time>
      </trkpt>
      <trkpt lat="44.03331" lon="4.77786">
        <ele>78.6</ele>
        <time>2012-06-13T05:53:31.000Z</time>
      </trkpt>
      <trkpt lat="44.03329" lon="4.77774">
        <ele>78.3</ele>
        <time>2012-06-13T05:53:33.000Z</time>
      </trkpt>
      <trkpt lat="44.03328" lon="4.77765">
        <ele>78.2</ele>
        <time>2012-06-13T05:53:34.000Z</time>
      </trkpt>
      <trkpt lat="44.03328" lon="4.77755">
        <ele>78.2</ele>
        <time>2012-06-13T05:53:36.000Z</time>
      </trkpt>
      <trkpt lat="44.0333" lon="4.77739">
        <ele>78.1</ele>
        <time>2012-06-13T05:53:38.000Z</time>
      </trkpt>
      <trkpt lat="44.03328" lon="4.77733">
        <ele>78.1</ele>
        <time>2012-06-13T05:53:39.000Z</time>
      </trkpt>
      <trkpt lat="44.03328" lon="4.77726">
        <ele>77.9</ele>
        <time>2012-06-13T05:53:40.000Z</time>
      </trkpt>
      <trkpt lat="44.03331" lon="4.7772">
        <ele>77.6</ele>
        <time>2012-06-13T05:53:41.000Z</time>
      </trkpt>
      <trkpt lat="44.03333" lon="4.77712">
        <ele>77.5</ele>
        <time>2012-06-13T05:53:43.000Z</time>
      </trkpt>
      <trkpt lat="44.03336" lon="4.77704">
        <ele>78.3</ele>
        <time>2012-06-13T05:53:45.000Z</time>
      </trkpt>
      <trkpt lat="44.0334" lon="4.77698">
        <ele>77.9</ele>
        <time>2012-06-13T05:53:47.000Z</time>
      </trkpt>
      <trkpt lat="44.03342" lon="4.77687">
        <ele>78</ele>
        <time>2012-06-13T05:53:49.000Z</time>
      </trkpt>
      <trkpt lat="44.03345" lon="4.77678">
        <ele>78.6</ele>
        <time>2012-06-13T05:53:51.000Z</time>
      </trkpt>
      <trkpt lat="44.03346" lon="4.77672">
        <ele>78</ele>
        <time>2012-06-13T05:53:52.000Z</time>
      </trkpt>
      <trkpt lat="44.03349" lon="4.77665">
        <ele>77.8</ele>
        <time>2012-06-13T05:53:53.000Z</time>
      </trkpt>
      <trkpt lat="44.03352" lon="4.77656">
        <ele>77.9</ele>
        <time>2012-06-13T05:53:55.000Z</time>
      </trkpt>
      <trkpt lat="44.03355" lon="4.7765">
        <ele>78.4</ele>
        <time>2012-06-13T05:53:56.000Z</time>
      </trkpt>
      <trkpt lat="44.03359" lon="4.77646">
        <ele>78</ele>
        <time>2012-06-13T05:53:57.000Z</time>
      </trkpt>
      <trkpt lat="44.03362" lon="4.77635">
        <ele>77.2</ele>
        <time>2012-06-13T05:53:59.000Z</time>
      </trkpt>
      <trkpt lat="44.03364" lon="4.77624">
        <ele>77.1</ele>
        <time>2012-06-13T05:54:01.000Z</time>
      </trkpt>
      <trkpt lat="44.03368" lon="4.77615">
        <ele>76.8</ele>
        <time>2012-06-13T05:54:03.000Z</time>
      </trkpt>
      <trkpt lat="44.03374" lon="4.77606">
        <ele>77</ele>
        <time>2012-06-13T05:54:05.000Z</time>
      </trkpt>
      <trkpt lat="44.03378" lon="4.77598">
        <ele>78.2</ele>
        <time>2012-06-13T05:54:07.000Z</time>
      </trkpt>
      <trkpt lat="44.03382" lon="4.77589">
        <ele>78.8</ele>
        <time>2012-06-13T05:54:09.000Z</time>
      </trkpt>
      <trkpt lat="44.03385" lon="4.7758">
        <ele>79.2</ele>
        <time>2012-06-13T05:54:11.000Z</time>
      </trkpt>
      <trkpt lat="44.03389" lon="4.77572">
        <ele>79.1</ele>
        <time>2012-06-13T05:54:13.000Z</time>
      </trkpt>
      <trkpt lat="44.03392" lon="4.77564">
        <ele>79</ele>
        <time>2012-06-13T05:54:15.000Z</time>
      </trkpt>
      <trkpt lat="44.03396" lon="4.7756">
        <ele>79.5</ele>
        <time>2012-06-13T05:54:16.000Z</time>
      </trkpt>
      <trkpt lat="44.03399" lon="4.77549">
        <ele>80</ele>
        <time>2012-06-13T05:54:18.000Z</time>
      </trkpt>
      <trkpt lat="44.03403" lon="4.77545">
        <ele>79.4</ele>
        <time>2012-06-13T05:54:20.000Z</time>
      </trkpt>
      <trkpt lat="44.03405" lon="4.77539">
        <ele>79.4</ele>
        <time>2012-06-13T05:54:21.000Z</time>
      </trkpt>
      <trkpt lat="44.0341" lon="4.77536">
        <ele>79.7</ele>
        <time>2012-06-13T05:54:22.000Z</time>
      </trkpt>
      <trkpt lat="44.03412" lon="4.7753">
        <ele>80.2</ele>
        <time>2012-06-13T05:54:23.000Z</time>
      </trkpt>
      <trkpt lat="44.03416" lon="4.77524">
        <ele>80.2</ele>
        <time>2012-06-13T05:54:25.000Z</time>
      </trkpt>
      <trkpt lat="44.03419" lon="4.77515">
        <ele>80.7</ele>
        <time>2012-06-13T05:54:27.000Z</time>
      </trkpt>
      <trkpt lat="44.03424" lon="4.77504">
        <ele>80.7</ele>
        <time>2012-06-13T05:54:29.000Z</time>
      </trkpt>
      <trkpt lat="44.03426" lon="4.77497">
        <ele>81.2</ele>
        <time>2012-06-13T05:54:31.000Z</time>
      </trkpt>
      <trkpt lat="44.03433" lon="4.77489">
        <ele>79.3</ele>
        <time>2012-06-13T05:54:33.000Z</time>
      </trkpt>
      <trkpt lat="44.03439" lon="4.7748">
        <ele>79.3</ele>
        <time>2012-06-13T05:54:35.000Z</time>
      </trkpt>
      <trkpt lat="44.03443" lon="4.77473">
        <ele>79.2</ele>
        <time>2012-06-13T05:54:37.000Z</time>
      </trkpt>
      <trkpt lat="44.03447" lon="4.77464">
        <ele>78.6</ele>
        <time>2012-06-13T05:54:39.000Z</time>
      </trkpt>
      <trkpt lat="44.03454" lon="4.77455">
        <ele>79.3</ele>
        <time>2012-06-13T05:54:41.000Z</time>
      </trkpt>
      <trkpt lat="44.03456" lon="4.77445">
        <ele>79.3</ele>
        <time>2012-06-13T05:54:43.000Z</time>
      </trkpt>
      <trkpt lat="44.03456" lon="4.77434">
        <ele>79.7</ele>
        <time>2012-06-13T05:54:45.000Z</time>
      </trkpt>
      <trkpt lat="44.03453" lon="4.77425">
        <ele>80.1</ele>
        <time>2012-06-13T05:54:47.000Z</time>
      </trkpt>
      <trkpt lat="44.03449" lon="4.77419">
        <ele>80</ele>
        <time>2012-06-13T05:54:49.000Z</time>
      </trkpt>
      <trkpt lat="44.03445" lon="4.77416">
        <ele>79.8</ele>
        <time>2012-06-13T05:54:51.000Z</time>
      </trkpt>
      <trkpt lat="44.0344" lon="4.77418">
        <ele>79.5</ele>
        <time>2012-06-13T05:54:53.000Z</time>
      </trkpt>
      <trkpt lat="44.03436" lon="4.77416">
        <ele>79.7</ele>
        <time>2012-06-13T05:54:56.000Z</time>
      </trkpt>
      <trkpt lat="44.03428" lon="4.77411">
        <ele>79.6</ele>
        <time>2012-06-13T05:54:58.000Z</time>
      </trkpt>
      <trkpt lat="44.0342" lon="4.77408">
        <ele>79.3</ele>
        <time>2012-06-13T05:55:00.000Z</time>
      </trkpt>
      <trkpt lat="44.03419" lon="4.77401">
        <ele>79.4</ele>
        <time>2012-06-13T05:55:01.000Z</time>
      </trkpt>
      <trkpt lat="44.03415" lon="4.77397">
        <ele>79.2</ele>
        <time>2012-06-13T05:55:03.000Z</time>
      </trkpt>
      <trkpt lat="44.0341" lon="4.77396">
        <ele>79.1</ele>
        <time>2012-06-13T05:55:04.000Z</time>
      </trkpt>
      <trkpt lat="44.03409" lon="4.77389">
        <ele>79.2</ele>
        <time>2012-06-13T05:55:05.000Z</time>
      </trkpt>
      <trkpt lat="44.03404" lon="4.77387">
        <ele>79.1</ele>
        <time>2012-06-13T05:55:06.000Z</time>
      </trkpt>
      <trkpt lat="44.03399" lon="4.7739">
        <ele>79.2</ele>
        <time>2012-06-13T05:55:07.000Z</time>
      </trkpt>
      <trkpt lat="44.03394" lon="4.77386">
        <ele>79</ele>
        <time>2012-06-13T05:55:08.000Z</time>
      </trkpt>
      <trkpt lat="44.03388" lon="4.77377">
        <ele>78.9</ele>
        <time>2012-06-13T05:55:10.000Z</time>
      </trkpt>
      <trkpt lat="44.03383" lon="4.77372">
        <ele>78.4</ele>
        <time>2012-06-13T05:55:12.000Z</time>
      </trkpt>
      <trkpt lat="44.03376" lon="4.77371">
        <ele>78.1</ele>
        <time>2012-06-13T05:55:14.000Z</time>
      </trkpt>
      <trkpt lat="44.03369" lon="4.77364">
        <ele>77.8</ele>
        <time>2012-06-13T05:55:16.000Z</time>
      </trkpt>
      <trkpt lat="44.03367" lon="4.77356">
        <ele>77.9</ele>
        <time>2012-06-13T05:55:17.000Z</time>
      </trkpt>
      <trkpt lat="44.03364" lon="4.77349">
        <ele>77.5</ele>
        <time>2012-06-13T05:55:20.000Z</time>
      </trkpt>
      <trkpt lat="44.03358" lon="4.77344">
        <ele>78.2</ele>
        <time>2012-06-13T05:55:22.000Z</time>
      </trkpt>
      <trkpt lat="44.03352" lon="4.77334">
        <ele>78.6</ele>
        <time>2012-06-13T05:55:24.000Z</time>
      </trkpt>
      <trkpt lat="44.03348" lon="4.7733">
        <ele>78.6</ele>
        <time>2012-06-13T05:55:26.000Z</time>
      </trkpt>
      <trkpt lat="44.03346" lon="4.77325">
        <ele>78.1</ele>
        <time>2012-06-13T05:55:28.000Z</time>
      </trkpt>
      <trkpt lat="44.0334" lon="4.7732">
        <ele>78.7</ele>
        <time>2012-06-13T05:55:30.000Z</time>
      </trkpt>
      <trkpt lat="44.03337" lon="4.77314">
        <ele>79</ele>
        <time>2012-06-13T05:55:32.000Z</time>
      </trkpt>
      <trkpt lat="44.03335" lon="4.77304">
        <ele>78.4</ele>
        <time>2012-06-13T05:55:34.000Z</time>
      </trkpt>
      <trkpt lat="44.03331" lon="4.77295">
        <ele>79.4</ele>
        <time>2012-06-13T05:55:35.000Z</time>
      </trkpt>
      <trkpt lat="44.03327" lon="4.77283">
        <ele>80.3</ele>
        <time>2012-06-13T05:55:37.000Z</time>
      </trkpt>
      <trkpt lat="44.03325" lon="4.77277">
        <ele>80.3</ele>
        <time>2012-06-13T05:55:38.000Z</time>
      </trkpt>
      <trkpt lat="44.0332" lon="4.77269">
        <ele>80.2</ele>
        <time>2012-06-13T05:55:40.000Z</time>
      </trkpt>
      <trkpt lat="44.03315" lon="4.7726">
        <ele>80.6</ele>
        <time>2012-06-13T05:55:42.000Z</time>
      </trkpt>
      <trkpt lat="44.03312" lon="4.77254">
        <ele>80.4</ele>
        <time>2012-06-13T05:55:43.000Z</time>
      </trkpt>
      <trkpt lat="44.0331" lon="4.77242">
        <ele>80.1</ele>
        <time>2012-06-13T05:55:45.000Z</time>
      </trkpt>
      <trkpt lat="44.03309" lon="4.77232">
        <ele>80.3</ele>
        <time>2012-06-13T05:55:47.000Z</time>
      </trkpt>
      <trkpt lat="44.03308" lon="4.7722">
        <ele>80.5</ele>
        <time>2012-06-13T05:55:49.000Z</time>
      </trkpt>
      <trkpt lat="44.03309" lon="4.7721">
        <ele>81.4</ele>
        <time>2012-06-13T05:55:51.000Z</time>
      </trkpt>
      <trkpt lat="44.03308" lon="4.77203">
        <ele>81.6</ele>
        <time>2012-06-13T05:55:52.000Z</time>
      </trkpt>
      <trkpt lat="44.03307" lon="4.77192">
        <ele>81.3</ele>
        <time>2012-06-13T05:55:54.000Z</time>
      </trkpt>
      <trkpt lat="44.03306" lon="4.77185">
        <ele>81.6</ele>
        <time>2012-06-13T05:55:55.000Z</time>
      </trkpt>
      <trkpt lat="44.03304" lon="4.77176">
        <ele>82</ele>
        <time>2012-06-13T05:55:57.000Z</time>
      </trkpt>
      <trkpt lat="44.03304" lon="4.77166">
        <ele>82.2</ele>
        <time>2012-06-13T05:55:59.000Z</time>
      </trkpt>
      <trkpt lat="44.03304" lon="4.77156">
        <ele>81.8</ele>
        <time>2012-06-13T05:56:01.000Z</time>
      </trkpt>
      <trkpt lat="44.03309" lon="4.77149">
        <ele>81.4</ele>
        <time>2012-06-13T05:56:03.000Z</time>
      </trkpt>
      <trkpt lat="44.03311" lon="4.77136">
        <ele>84.2</ele>
        <time>2012-06-13T05:56:05.000Z</time>
      </trkpt>
      <trkpt lat="44.03315" lon="4.77129">
        <ele>83.3</ele>
        <time>2012-06-13T05:56:07.000Z</time>
      </trkpt>
      <trkpt lat="44.03319" lon="4.7712">
        <ele>82</ele>
        <time>2012-06-13T05:56:09.000Z</time>
      </trkpt>
      <trkpt lat="44.03321" lon="4.7711">
        <ele>81.3</ele>
        <time>2012-06-13T05:56:11.000Z</time>
      </trkpt>
      <trkpt lat="44.03326" lon="4.77104">
        <ele>82.1</ele>
        <time>2012-06-13T05:56:13.000Z</time>
      </trkpt>
      <trkpt lat="44.0333" lon="4.77099">
        <ele>82.1</ele>
        <time>2012-06-13T05:56:14.000Z</time>
      </trkpt>
      <trkpt lat="44.03334" lon="4.77095">
        <ele>82.2</ele>
        <time>2012-06-13T05:56:15.000Z</time>
      </trkpt>
      <trkpt lat="44.03339" lon="4.77086">
        <ele>82.7</ele>
        <time>2012-06-13T05:56:17.000Z</time>
      </trkpt>
      <trkpt lat="44.03341" lon="4.77077">
        <ele>82.6</ele>
        <time>2012-06-13T05:56:19.000Z</time>
      </trkpt>
      <trkpt lat="44.03343" lon="4.77069">
        <ele>82.4</ele>
        <time>2012-06-13T05:56:21.000Z</time>
      </trkpt>
      <trkpt lat="44.03342" lon="4.77058">
        <ele>82.7</ele>
        <time>2012-06-13T05:56:23.000Z</time>
      </trkpt>
      <trkpt lat="44.03343" lon="4.77046">
        <ele>82.6</ele>
        <time>2012-06-13T05:56:25.000Z</time>
      </trkpt>
      <trkpt lat="44.03342" lon="4.77038">
        <ele>82.1</ele>
        <time>2012-06-13T05:56:26.000Z</time>
      </trkpt>
      <trkpt lat="44.03341" lon="4.77025">
        <ele>82.3</ele>
        <time>2012-06-13T05:56:28.000Z</time>
      </trkpt>
      <trkpt lat="44.03341" lon="4.77017">
        <ele>82.6</ele>
        <time>2012-06-13T05:56:29.000Z</time>
      </trkpt>
      <trkpt lat="44.03339" lon="4.77006">
        <ele>82.3</ele>
        <time>2012-06-13T05:56:30.000Z</time>
      </trkpt>
      <trkpt lat="44.0334" lon="4.76999">
        <ele>83.1</ele>
        <time>2012-06-13T05:56:31.000Z</time>
      </trkpt>
      <trkpt lat="44.03339" lon="4.76987">
        <ele>83.5</ele>
        <time>2012-06-13T05:56:33.000Z</time>
      </trkpt>
      <trkpt lat="44.03336" lon="4.7698">
        <ele>83.6</ele>
        <time>2012-06-13T05:56:34.000Z</time>
      </trkpt>
      <trkpt lat="44.03334" lon="4.76972">
        <ele>83.6</ele>
        <time>2012-06-13T05:56:35.000Z</time>
      </trkpt>
      <trkpt lat="44.03331" lon="4.76959">
        <ele>83.4</ele>
        <time>2012-06-13T05:56:37.000Z</time>
      </trkpt>
      <trkpt lat="44.03328" lon="4.76951">
        <ele>83.5</ele>
        <time>2012-06-13T05:56:38.000Z</time>
      </trkpt>
      <trkpt lat="44.03325" lon="4.76945">
        <ele>83.6</ele>
        <time>2012-06-13T05:56:39.000Z</time>
      </trkpt>
      <trkpt lat="44.0332" lon="4.76936">
        <ele>83.9</ele>
        <time>2012-06-13T05:56:41.000Z</time>
      </trkpt>
      <trkpt lat="44.03316" lon="4.76927">
        <ele>83.8</ele>
        <time>2012-06-13T05:56:43.000Z</time>
      </trkpt>
      <trkpt lat="44.03316" lon="4.7692">
        <ele>83.7</ele>
        <time>2012-06-13T05:56:44.000Z</time>
      </trkpt>
      <trkpt lat="44.03312" lon="4.76914">
        <ele>83.9</ele>
        <time>2012-06-13T05:56:46.000Z</time>
      </trkpt>
      <trkpt lat="44.03309" lon="4.76902">
        <ele>83.7</ele>
        <time>2012-06-13T05:56:48.000Z</time>
      </trkpt>
      <trkpt lat="44.03306" lon="4.76894">
        <ele>83.5</ele>
        <time>2012-06-13T05:56:49.000Z</time>
      </trkpt>
      <trkpt lat="44.03308" lon="4.76884">
        <ele>83.3</ele>
        <time>2012-06-13T05:56:51.000Z</time>
      </trkpt>
      <trkpt lat="44.03308" lon="4.76876">
        <ele>83</ele>
        <time>2012-06-13T05:56:52.000Z</time>
      </trkpt>
      <trkpt lat="44.03308" lon="4.76865">
        <ele>83.2</ele>
        <time>2012-06-13T05:56:53.000Z</time>
      </trkpt>
      <trkpt lat="44.03307" lon="4.76857">
        <ele>83.6</ele>
        <time>2012-06-13T05:56:54.000Z</time>
      </trkpt>
      <trkpt lat="44.03307" lon="4.76845">
        <ele>83.7</ele>
        <time>2012-06-13T05:56:56.000Z</time>
      </trkpt>
      <trkpt lat="44.03307" lon="4.76838">
        <ele>83.7</ele>
        <time>2012-06-13T05:56:57.000Z</time>
      </trkpt>
      <trkpt lat="44.03307" lon="4.76831">
        <ele>83.6</ele>
        <time>2012-06-13T05:56:59.000Z</time>
      </trkpt>
      <trkpt lat="44.03305" lon="4.76824">
        <ele>83.4</ele>
        <time>2012-06-13T05:57:00.000Z</time>
      </trkpt>
      <trkpt lat="44.03306" lon="4.76814">
        <ele>83.7</ele>
        <time>2012-06-13T05:57:02.000Z</time>
      </trkpt>
      <trkpt lat="44.03307" lon="4.76803">
        <ele>84.5</ele>
        <time>2012-06-13T05:57:04.000Z</time>
      </trkpt>
      <trkpt lat="44.03307" lon="4.76796">
        <ele>84.6</ele>
        <time>2012-06-13T05:57:05.000Z</time>
      </trkpt>
      <trkpt lat="44.03307" lon="4.76788">
        <ele>84.8</ele>
        <time>2012-06-13T05:57:06.000Z</time>
      </trkpt>
      <trkpt lat="44.03306" lon="4.76778">
        <ele>84.8</ele>
        <time>2012-06-13T05:57:08.000Z</time>
      </trkpt>
      <trkpt lat="44.03307" lon="4.76768">
        <ele>84.1</ele>
        <time>2012-06-13T05:57:09.000Z</time>
      </trkpt>
      <trkpt lat="44.03307" lon="4.76757">
        <ele>85.1</ele>
        <time>2012-06-13T05:57:11.000Z</time>
      </trkpt>
      <trkpt lat="44.03305" lon="4.76745">
        <ele>85.5</ele>
        <time>2012-06-13T05:57:13.000Z</time>
      </trkpt>
      <trkpt lat="44.03303" lon="4.76739">
        <ele>85.7</ele>
        <time>2012-06-13T05:57:14.000Z</time>
      </trkpt>
      <trkpt lat="44.03302" lon="4.76725">
        <ele>85.7</ele>
        <time>2012-06-13T05:57:16.000Z</time>
      </trkpt>
      <trkpt lat="44.03304" lon="4.76712">
        <ele>85.8</ele>
        <time>2012-06-13T05:57:18.000Z</time>
      </trkpt>
      <trkpt lat="44.03306" lon="4.76705">
        <ele>86.3</ele>
        <time>2012-06-13T05:57:19.000Z</time>
      </trkpt>
      <trkpt lat="44.03305" lon="4.76698">
        <ele>86.8</ele>
        <time>2012-06-13T05:57:20.000Z</time>
      </trkpt>
      <trkpt lat="44.03305" lon="4.76691">
        <ele>87.3</ele>
        <time>2012-06-13T05:57:21.000Z</time>
      </trkpt>
      <trkpt lat="44.03304" lon="4.76683">
        <ele>87.8</ele>
        <time>2012-06-13T05:57:22.000Z</time>
      </trkpt>
      <trkpt lat="44.03304" lon="4.76676">
        <ele>87.2</ele>
        <time>2012-06-13T05:57:23.000Z</time>
      </trkpt>
      <trkpt lat="44.03304" lon="4.76669">
        <ele>87.2</ele>
        <time>2012-06-13T05:57:24.000Z</time>
      </trkpt>
      <trkpt lat="44.03302" lon="4.76656">
        <ele>87</ele>
        <time>2012-06-13T05:57:26.000Z</time>
      </trkpt>
      <trkpt lat="44.03303" lon="4.76645">
        <ele>86.7</ele>
        <time>2012-06-13T05:57:28.000Z</time>
      </trkpt>
      <trkpt lat="44.03304" lon="4.76634">
        <ele>87.7</ele>
        <time>2012-06-13T05:57:29.000Z</time>
      </trkpt>
      <trkpt lat="44.03304" lon="4.76627">
        <ele>88.4</ele>
        <time>2012-06-13T05:57:30.000Z</time>
      </trkpt>
      <trkpt lat="44.03304" lon="4.76619">
        <ele>88.7</ele>
        <time>2012-06-13T05:57:31.000Z</time>
      </trkpt>
      <trkpt lat="44.03304" lon="4.76606">
        <ele>88.3</ele>
        <time>2012-06-13T05:57:33.000Z</time>
      </trkpt>
      <trkpt lat="44.03301" lon="4.76598">
        <ele>88.7</ele>
        <time>2012-06-13T05:57:34.000Z</time>
      </trkpt>
      <trkpt lat="44.033" lon="4.76591">
        <ele>88.5</ele>
        <time>2012-06-13T05:57:35.000Z</time>
      </trkpt>
      <trkpt lat="44.033" lon="4.76584">
        <ele>88.6</ele>
        <time>2012-06-13T05:57:36.000Z</time>
      </trkpt>
      <trkpt lat="44.03299" lon="4.76577">
        <ele>89.1</ele>
        <time>2012-06-13T05:57:37.000Z</time>
      </trkpt>
      <trkpt lat="44.03299" lon="4.7657">
        <ele>89.2</ele>
        <time>2012-06-13T05:57:38.000Z</time>
      </trkpt>
      <trkpt lat="44.03295" lon="4.76559">
        <ele>89.4</ele>
        <time>2012-06-13T05:57:41.000Z</time>
      </trkpt>
      <trkpt lat="44.03286" lon="4.76553">
        <ele>89.1</ele>
        <time>2012-06-13T05:57:43.000Z</time>
      </trkpt>
      <trkpt lat="44.03278" lon="4.7655">
        <ele>88.4</ele>
        <time>2012-06-13T05:57:45.000Z</time>
      </trkpt>
      <trkpt lat="44.0327" lon="4.76547">
        <ele>88.5</ele>
        <time>2012-06-13T05:57:47.000Z</time>
      </trkpt>
      <trkpt lat="44.03264" lon="4.76539">
        <ele>88.9</ele>
        <time>2012-06-13T05:57:49.000Z</time>
      </trkpt>
      <trkpt lat="44.03261" lon="4.76534">
        <ele>88.6</ele>
        <time>2012-06-13T05:57:50.000Z</time>
      </trkpt>
      <trkpt lat="44.03256" lon="4.76526">
        <ele>87</ele>
        <time>2012-06-13T05:57:52.000Z</time>
      </trkpt>
      <trkpt lat="44.03255" lon="4.76514">
        <ele>87.2</ele>
        <time>2012-06-13T05:57:54.000Z</time>
      </trkpt>
      <trkpt lat="44.03253" lon="4.76503">
        <ele>86.7</ele>
        <time>2012-06-13T05:57:56.000Z</time>
      </trkpt>
      <trkpt lat="44.0325" lon="4.76494">
        <ele>86</ele>
        <time>2012-06-13T05:57:57.000Z</time>
      </trkpt>
      <trkpt lat="44.03247" lon="4.76487">
        <ele>85.5</ele>
        <time>2012-06-13T05:57:58.000Z</time>
      </trkpt>
      <trkpt lat="44.03246" lon="4.76472">
        <ele>85.6</ele>
        <time>2012-06-13T05:58:00.000Z</time>
      </trkpt>
      <trkpt lat="44.03246" lon="4.76466">
        <ele>85.6</ele>
        <time>2012-06-13T05:58:01.000Z</time>
      </trkpt>
      <trkpt lat="44.03246" lon="4.76456">
        <ele>84.6</ele>
        <time>2012-06-13T05:58:03.000Z</time>
      </trkpt>
      <trkpt lat="44.03244" lon="4.76446">
        <ele>84.2</ele>
        <time>2012-06-13T05:58:05.000Z</time>
      </trkpt>
      <trkpt lat="44.03245" lon="4.76435">
        <ele>84.1</ele>
        <time>2012-06-13T05:58:07.000Z</time>
      </trkpt>
      <trkpt lat="44.03246" lon="4.76425">
        <ele>84.6</ele>
        <time>2012-06-13T05:58:09.000Z</time>
      </trkpt>
      <trkpt lat="44.03245" lon="4.76416">
        <ele>84.7</ele>
        <time>2012-06-13T05:58:11.000Z</time>
      </trkpt>
      <trkpt lat="44.03246" lon="4.76402">
        <ele>84.8</ele>
        <time>2012-06-13T05:58:13.000Z</time>
      </trkpt>
      <trkpt lat="44.03245" lon="4.76393">
        <ele>84.7</ele>
        <time>2012-06-13T05:58:15.000Z</time>
      </trkpt>
      <trkpt lat="44.03242" lon="4.76383">
        <ele>84.3</ele>
        <time>2012-06-13T05:58:17.000Z</time>
      </trkpt>
      <trkpt lat="44.03241" lon="4.76376">
        <ele>84.6</ele>
        <time>2012-06-13T05:58:18.000Z</time>
      </trkpt>
      <trkpt lat="44.03239" lon="4.7637">
        <ele>85.3</ele>
        <time>2012-06-13T05:58:19.000Z</time>
      </trkpt>
      <trkpt lat="44.03237" lon="4.76363">
        <ele>85.4</ele>
        <time>2012-06-13T05:58:20.000Z</time>
      </trkpt>
      <trkpt lat="44.03234" lon="4.76352">
        <ele>85.1</ele>
        <time>2012-06-13T05:58:22.000Z</time>
      </trkpt>
      <trkpt lat="44.03231" lon="4.76346">
        <ele>85.1</ele>
        <time>2012-06-13T05:58:23.000Z</time>
      </trkpt>
      <trkpt lat="44.03229" lon="4.76334">
        <ele>84.3</ele>
        <time>2012-06-13T05:58:25.000Z</time>
      </trkpt>
      <trkpt lat="44.03228" lon="4.76323">
        <ele>84.3</ele>
        <time>2012-06-13T05:58:27.000Z</time>
      </trkpt>
      <trkpt lat="44.03225" lon="4.76312">
        <ele>84.3</ele>
        <time>2012-06-13T05:58:29.000Z</time>
      </trkpt>
      <trkpt lat="44.03222" lon="4.76301">
        <ele>85.1</ele>
        <time>2012-06-13T05:58:31.000Z</time>
      </trkpt>
      <trkpt lat="44.03221" lon="4.76291">
        <ele>85.8</ele>
        <time>2012-06-13T05:58:33.000Z</time>
      </trkpt>
      <trkpt lat="44.03218" lon="4.76283">
        <ele>85.9</ele>
        <time>2012-06-13T05:58:35.000Z</time>
      </trkpt>
      <trkpt lat="44.03215" lon="4.76272">
        <ele>86.1</ele>
        <time>2012-06-13T05:58:37.000Z</time>
      </trkpt>
      <trkpt lat="44.03211" lon="4.76266">
        <ele>86.5</ele>
        <time>2012-06-13T05:58:38.000Z</time>
      </trkpt>
      <trkpt lat="44.03209" lon="4.76258">
        <ele>86.9</ele>
        <time>2012-06-13T05:58:39.000Z</time>
      </trkpt>
      <trkpt lat="44.03205" lon="4.76251">
        <ele>86.1</ele>
        <time>2012-06-13T05:58:41.000Z</time>
      </trkpt>
      <trkpt lat="44.03203" lon="4.76245">
        <ele>86.3</ele>
        <time>2012-06-13T05:58:42.000Z</time>
      </trkpt>
      <trkpt lat="44.03202" lon="4.76238">
        <ele>86.4</ele>
        <time>2012-06-13T05:58:43.000Z</time>
      </trkpt>
      <trkpt lat="44.03199" lon="4.76232">
        <ele>86.4</ele>
        <time>2012-06-13T05:58:44.000Z</time>
      </trkpt>
      <trkpt lat="44.03196" lon="4.76221">
        <ele>86.2</ele>
        <time>2012-06-13T05:58:46.000Z</time>
      </trkpt>
      <trkpt lat="44.03192" lon="4.76214">
        <ele>86.8</ele>
        <time>2012-06-13T05:58:48.000Z</time>
      </trkpt>
      <trkpt lat="44.03189" lon="4.76203">
        <ele>85.6</ele>
        <time>2012-06-13T05:58:50.000Z</time>
      </trkpt>
      <trkpt lat="44.03188" lon="4.76193">
        <ele>85.9</ele>
        <time>2012-06-13T05:58:52.000Z</time>
      </trkpt>
      <trkpt lat="44.03186" lon="4.76182">
        <ele>86.3</ele>
        <time>2012-06-13T05:58:54.000Z</time>
      </trkpt>
      <trkpt lat="44.03185" lon="4.76173">
        <ele>86.2</ele>
        <time>2012-06-13T05:58:56.000Z</time>
      </trkpt>
      <trkpt lat="44.03183" lon="4.76164">
        <ele>85.7</ele>
        <time>2012-06-13T05:58:57.000Z</time>
      </trkpt>
      <trkpt lat="44.03184" lon="4.76157">
        <ele>85.2</ele>
        <time>2012-06-13T05:58:58.000Z</time>
      </trkpt>
      <trkpt lat="44.03182" lon="4.7615">
        <ele>86.1</ele>
        <time>2012-06-13T05:58:59.000Z</time>
      </trkpt>
      <trkpt lat="44.0318" lon="4.76143">
        <ele>87.1</ele>
        <time>2012-06-13T05:59:00.000Z</time>
      </trkpt>
      <trkpt lat="44.03177" lon="4.76134">
        <ele>87.6</ele>
        <time>2012-06-13T05:59:02.000Z</time>
      </trkpt>
      <trkpt lat="44.03175" lon="4.76128">
        <ele>87.6</ele>
        <time>2012-06-13T05:59:03.000Z</time>
      </trkpt>
      <trkpt lat="44.03173" lon="4.7612">
        <ele>86.4</ele>
        <time>2012-06-13T05:59:04.000Z</time>
      </trkpt>
      <trkpt lat="44.0317" lon="4.7611">
        <ele>86.7</ele>
        <time>2012-06-13T05:59:06.000Z</time>
      </trkpt>
      <trkpt lat="44.03168" lon="4.76101">
        <ele>86.4</ele>
        <time>2012-06-13T05:59:07.000Z</time>
      </trkpt>
      <trkpt lat="44.03165" lon="4.76089">
        <ele>86.2</ele>
        <time>2012-06-13T05:59:09.000Z</time>
      </trkpt>
      <trkpt lat="44.03162" lon="4.76081">
        <ele>86.4</ele>
        <time>2012-06-13T05:59:10.000Z</time>
      </trkpt>
      <trkpt lat="44.0316" lon="4.76076">
        <ele>87.8</ele>
        <time>2012-06-13T05:59:11.000Z</time>
      </trkpt>
      <trkpt lat="44.03157" lon="4.76068">
        <ele>88.7</ele>
        <time>2012-06-13T05:59:12.000Z</time>
      </trkpt>
      <trkpt lat="44.03153" lon="4.76056">
        <ele>89.1</ele>
        <time>2012-06-13T05:59:14.000Z</time>
      </trkpt>
      <trkpt lat="44.0315" lon="4.7605">
        <ele>89.2</ele>
        <time>2012-06-13T05:59:15.000Z</time>
      </trkpt>
      <trkpt lat="44.03145" lon="4.76041">
        <ele>89.2</ele>
        <time>2012-06-13T05:59:17.000Z</time>
      </trkpt>
      <trkpt lat="44.03141" lon="4.76034">
        <ele>88.9</ele>
        <time>2012-06-13T05:59:19.000Z</time>
      </trkpt>
      <trkpt lat="44.03138" lon="4.76026">
        <ele>89.7</ele>
        <time>2012-06-13T05:59:21.000Z</time>
      </trkpt>
      <trkpt lat="44.03134" lon="4.76019">
        <ele>89.9</ele>
        <time>2012-06-13T05:59:22.000Z</time>
      </trkpt>
      <trkpt lat="44.03131" lon="4.76013">
        <ele>90.1</ele>
        <time>2012-06-13T05:59:23.000Z</time>
      </trkpt>
      <trkpt lat="44.03127" lon="4.76009">
        <ele>90.1</ele>
        <time>2012-06-13T05:59:24.000Z</time>
      </trkpt>
      <trkpt lat="44.03124" lon="4.76004">
        <ele>90.7</ele>
        <time>2012-06-13T05:59:26.000Z</time>
      </trkpt>
      <trkpt lat="44.03118" lon="4.75997">
        <ele>91.2</ele>
        <time>2012-06-13T05:59:28.000Z</time>
      </trkpt>
      <trkpt lat="44.03115" lon="4.75988">
        <ele>90.9</ele>
        <time>2012-06-13T05:59:31.000Z</time>
      </trkpt>
      <trkpt lat="44.03112" lon="4.75981">
        <ele>90.2</ele>
        <time>2012-06-13T05:59:33.000Z</time>
      </trkpt>
      <trkpt lat="44.0311" lon="4.75974">
        <ele>89.7</ele>
        <time>2012-06-13T05:59:35.000Z</time>
      </trkpt>
      <trkpt lat="44.03108" lon="4.75968">
        <ele>89.6</ele>
        <time>2012-06-13T05:59:36.000Z</time>
      </trkpt>
      <trkpt lat="44.03106" lon="4.75958">
        <ele>90.2</ele>
        <time>2012-06-13T05:59:38.000Z</time>
      </trkpt>
      <trkpt lat="44.03109" lon="4.75954">
        <ele>92.1</ele>
        <time>2012-06-13T05:59:39.000Z</time>
      </trkpt>
      <trkpt lat="44.03109" lon="4.75947">
        <ele>92.4</ele>
        <time>2012-06-13T05:59:41.000Z</time>
      </trkpt>
      <trkpt lat="44.03108" lon="4.75939">
        <ele>91.6</ele>
        <time>2012-06-13T05:59:43.000Z</time>
      </trkpt>
      <trkpt lat="44.03109" lon="4.75932">
        <ele>90.6</ele>
        <time>2012-06-13T05:59:47.000Z</time>
      </trkpt>
      <trkpt lat="44.03109" lon="4.75925">
        <ele>90.7</ele>
        <time>2012-06-13T05:59:50.000Z</time>
      </trkpt>
      <trkpt lat="44.03105" lon="4.75918">
        <ele>90.9</ele>
        <time>2012-06-13T05:59:53.000Z</time>
      </trkpt>
      <trkpt lat="44.03099" lon="4.75914">
        <ele>90.8</ele>
        <time>2012-06-13T05:59:55.000Z</time>
      </trkpt>
      <trkpt lat="44.03091" lon="4.75912">
        <ele>91.1</ele>
        <time>2012-06-13T05:59:57.000Z</time>
      </trkpt>
      <trkpt lat="44.03084" lon="4.75908">
        <ele>90.9</ele>
        <time>2012-06-13T05:59:59.000Z</time>
      </trkpt>
      <trkpt lat="44.03078" lon="4.75906">
        <ele>91.1</ele>
        <time>2012-06-13T06:00:01.000Z</time>
      </trkpt>
      <trkpt lat="44.03071" lon="4.75901">
        <ele>91.3</ele>
        <time>2012-06-13T06:00:03.000Z</time>
      </trkpt>
      <trkpt lat="44.03066" lon="4.75897">
        <ele>91.5</ele>
        <time>2012-06-13T06:00:05.000Z</time>
      </trkpt>
      <trkpt lat="44.03059" lon="4.75894">
        <ele>91.4</ele>
        <time>2012-06-13T06:00:07.000Z</time>
      </trkpt>
      <trkpt lat="44.03054" lon="4.75894">
        <ele>91.7</ele>
        <time>2012-06-13T06:00:09.000Z</time>
      </trkpt>
      <trkpt lat="44.03049" lon="4.75891">
        <ele>91.7</ele>
        <time>2012-06-13T06:00:11.000Z</time>
      </trkpt>
      <trkpt lat="44.03044" lon="4.75889">
        <ele>91.8</ele>
        <time>2012-06-13T06:00:14.000Z</time>
      </trkpt>
      <trkpt lat="44.03036" lon="4.75885">
        <ele>92.1</ele>
        <time>2012-06-13T06:00:16.000Z</time>
      </trkpt>
      <trkpt lat="44.0303" lon="4.75881">
        <ele>92</ele>
        <time>2012-06-13T06:00:18.000Z</time>
      </trkpt>
      <trkpt lat="44.03023" lon="4.75879">
        <ele>91.7</ele>
        <time>2012-06-13T06:00:20.000Z</time>
      </trkpt>
      <trkpt lat="44.03017" lon="4.75874">
        <ele>91.8</ele>
        <time>2012-06-13T06:00:22.000Z</time>
      </trkpt>
      <trkpt lat="44.03011" lon="4.75872">
        <ele>91.9</ele>
        <time>2012-06-13T06:00:24.000Z</time>
      </trkpt>
      <trkpt lat="44.03005" lon="4.75867">
        <ele>92.3</ele>
        <time>2012-06-13T06:00:26.000Z</time>
      </trkpt>
      <trkpt lat="44.03" lon="4.75866">
        <ele>91.4</ele>
        <time>2012-06-13T06:00:28.000Z</time>
      </trkpt>
      <trkpt lat="44.02995" lon="4.75861">
        <ele>91</ele>
        <time>2012-06-13T06:00:30.000Z</time>
      </trkpt>
      <trkpt lat="44.02991" lon="4.75864">
        <ele>91.1</ele>
        <time>2012-06-13T06:00:33.000Z</time>
      </trkpt>
      <trkpt lat="44.02985" lon="4.75859">
        <ele>91.3</ele>
        <time>2012-06-13T06:00:35.000Z</time>
      </trkpt>
      <trkpt lat="44.02981" lon="4.75855">
        <ele>91.3</ele>
        <time>2012-06-13T06:00:36.000Z</time>
      </trkpt>
      <trkpt lat="44.02976" lon="4.75853">
        <ele>90.9</ele>
        <time>2012-06-13T06:00:38.000Z</time>
      </trkpt>
      <trkpt lat="44.0297" lon="4.7585">
        <ele>90.9</ele>
        <time>2012-06-13T06:00:40.000Z</time>
      </trkpt>
      <trkpt lat="44.02966" lon="4.75843">
        <ele>91.1</ele>
        <time>2012-06-13T06:00:42.000Z</time>
      </trkpt>
      <trkpt lat="44.02961" lon="4.75838">
        <ele>91.1</ele>
        <time>2012-06-13T06:00:44.000Z</time>
      </trkpt>
      <trkpt lat="44.02957" lon="4.75833">
        <ele>91</ele>
        <time>2012-06-13T06:00:47.000Z</time>
      </trkpt>
      <trkpt lat="44.02952" lon="4.75831">
        <ele>91.2</ele>
        <time>2012-06-13T06:00:48.000Z</time>
      </trkpt>
      <trkpt lat="44.02948" lon="4.75822">
        <ele>91.8</ele>
        <time>2012-06-13T06:00:50.000Z</time>
      </trkpt>
      <trkpt lat="44.02943" lon="4.75818">
        <ele>92</ele>
        <time>2012-06-13T06:00:52.000Z</time>
      </trkpt>
      <trkpt lat="44.0294" lon="4.75813">
        <ele>92.5</ele>
        <time>2012-06-13T06:00:54.000Z</time>
      </trkpt>
      <trkpt lat="44.02934" lon="4.75808">
        <ele>91.7</ele>
        <time>2012-06-13T06:00:56.000Z</time>
      </trkpt>
      <trkpt lat="44.02932" lon="4.75801">
        <ele>91.9</ele>
        <time>2012-06-13T06:00:58.000Z</time>
      </trkpt>
      <trkpt lat="44.02926" lon="4.75795">
        <ele>92.5</ele>
        <time>2012-06-13T06:01:00.000Z</time>
      </trkpt>
      <trkpt lat="44.02921" lon="4.75788">
        <ele>93.3</ele>
        <time>2012-06-13T06:01:01.000Z</time>
      </trkpt>
      <trkpt lat="44.02916" lon="4.75781">
        <ele>93.8</ele>
        <time>2012-06-13T06:01:04.000Z</time>
      </trkpt>
      <trkpt lat="44.02911" lon="4.75775">
        <ele>94.1</ele>
        <time>2012-06-13T06:01:06.000Z</time>
      </trkpt>
      <trkpt lat="44.02905" lon="4.75765">
        <ele>94.8</ele>
        <time>2012-06-13T06:01:08.000Z</time>
      </trkpt>
      <trkpt lat="44.02903" lon="4.75759">
        <ele>95.4</ele>
        <time>2012-06-13T06:01:09.000Z</time>
      </trkpt>
      <trkpt lat="44.029" lon="4.75753">
        <ele>95.2</ele>
        <time>2012-06-13T06:01:11.000Z</time>
      </trkpt>
      <trkpt lat="44.02897" lon="4.75746">
        <ele>94.7</ele>
        <time>2012-06-13T06:01:14.000Z</time>
      </trkpt>
      <trkpt lat="44.02894" lon="4.75742">
        <ele>95.1</ele>
        <time>2012-06-13T06:01:16.000Z</time>
      </trkpt>
      <trkpt lat="44.0289" lon="4.75736">
        <ele>95.2</ele>
        <time>2012-06-13T06:01:18.000Z</time>
      </trkpt>
      <trkpt lat="44.02886" lon="4.7573">
        <ele>94.9</ele>
        <time>2012-06-13T06:01:20.000Z</time>
      </trkpt>
      <trkpt lat="44.02883" lon="4.75723">
        <ele>95.3</ele>
        <time>2012-06-13T06:01:22.000Z</time>
      </trkpt>
      <trkpt lat="44.02878" lon="4.75717">
        <ele>95.3</ele>
        <time>2012-06-13T06:01:24.000Z</time>
      </trkpt>
      <trkpt lat="44.02872" lon="4.75708">
        <ele>95.4</ele>
        <time>2012-06-13T06:01:26.000Z</time>
      </trkpt>
      <trkpt lat="44.02869" lon="4.75701">
        <ele>95.2</ele>
        <time>2012-06-13T06:01:28.000Z</time>
      </trkpt>
      <trkpt lat="44.02865" lon="4.75693">
        <ele>94.9</ele>
        <time>2012-06-13T06:01:31.000Z</time>
      </trkpt>
      <trkpt lat="44.0286" lon="4.75687">
        <ele>95.4</ele>
        <time>2012-06-13T06:01:33.000Z</time>
      </trkpt>
      <trkpt lat="44.02856" lon="4.75679">
        <ele>95.6</ele>
        <time>2012-06-13T06:01:35.000Z</time>
      </trkpt>
      <trkpt lat="44.02852" lon="4.7567">
        <ele>95.2</ele>
        <time>2012-06-13T06:01:37.000Z</time>
      </trkpt>
      <trkpt lat="44.02848" lon="4.75667">
        <ele>95.1</ele>
        <time>2012-06-13T06:01:38.000Z</time>
      </trkpt>
      <trkpt lat="44.02844" lon="4.75659">
        <ele>95.2</ele>
        <time>2012-06-13T06:01:40.000Z</time>
      </trkpt>
      <trkpt lat="44.0284" lon="4.75651">
        <ele>94.8</ele>
        <time>2012-06-13T06:01:42.000Z</time>
      </trkpt>
      <trkpt lat="44.02837" lon="4.75645">
        <ele>95.6</ele>
        <time>2012-06-13T06:01:43.000Z</time>
      </trkpt>
      <trkpt lat="44.02835" lon="4.75639">
        <ele>96.1</ele>
        <time>2012-06-13T06:01:45.000Z</time>
      </trkpt>
      <trkpt lat="44.02832" lon="4.75634">
        <ele>95.9</ele>
        <time>2012-06-13T06:01:47.000Z</time>
      </trkpt>
      <trkpt lat="44.0283" lon="4.75626">
        <ele>96.7</ele>
        <time>2012-06-13T06:01:49.000Z</time>
      </trkpt>
      <trkpt lat="44.02826" lon="4.75616">
        <ele>97.7</ele>
        <time>2012-06-13T06:01:51.000Z</time>
      </trkpt>
      <trkpt lat="44.02823" lon="4.75609">
        <ele>98.3</ele>
        <time>2012-06-13T06:01:53.000Z</time>
      </trkpt>
      <trkpt lat="44.02816" lon="4.75601">
        <ele>98.5</ele>
        <time>2012-06-13T06:01:55.000Z</time>
      </trkpt>
      <trkpt lat="44.02813" lon="4.75592">
        <ele>98.8</ele>
        <time>2012-06-13T06:01:57.000Z</time>
      </trkpt>
      <trkpt lat="44.0281" lon="4.75583">
        <ele>98.7</ele>
        <time>2012-06-13T06:01:59.000Z</time>
      </trkpt>
      <trkpt lat="44.02806" lon="4.75574">
        <ele>98.6</ele>
        <time>2012-06-13T06:02:01.000Z</time>
      </trkpt>
      <trkpt lat="44.02802" lon="4.75566">
        <ele>98</ele>
        <time>2012-06-13T06:02:03.000Z</time>
      </trkpt>
      <trkpt lat="44.02798" lon="4.75555">
        <ele>97.9</ele>
        <time>2012-06-13T06:02:05.000Z</time>
      </trkpt>
      <trkpt lat="44.02796" lon="4.7555">
        <ele>97.4</ele>
        <time>2012-06-13T06:02:07.000Z</time>
      </trkpt>
      <trkpt lat="44.02793" lon="4.75538">
        <ele>97.9</ele>
        <time>2012-06-13T06:02:09.000Z</time>
      </trkpt>
      <trkpt lat="44.02791" lon="4.75532">
        <ele>97</ele>
        <time>2012-06-13T06:02:11.000Z</time>
      </trkpt>
      <trkpt lat="44.0279" lon="4.75525">
        <ele>97</ele>
        <time>2012-06-13T06:02:13.000Z</time>
      </trkpt>
      <trkpt lat="44.0279" lon="4.75518">
        <ele>98</ele>
        <time>2012-06-13T06:02:14.000Z</time>
      </trkpt>
      <trkpt lat="44.02786" lon="4.7551">
        <ele>98.9</ele>
        <time>2012-06-13T06:02:16.000Z</time>
      </trkpt>
      <trkpt lat="44.02782" lon="4.75502">
        <ele>97.5</ele>
        <time>2012-06-13T06:02:18.000Z</time>
      </trkpt>
      <trkpt lat="44.02779" lon="4.75495">
        <ele>96.4</ele>
        <time>2012-06-13T06:02:20.000Z</time>
      </trkpt>
      <trkpt lat="44.02776" lon="4.75486">
        <ele>96.1</ele>
        <time>2012-06-13T06:02:22.000Z</time>
      </trkpt>
      <trkpt lat="44.02773" lon="4.75477">
        <ele>96.1</ele>
        <time>2012-06-13T06:02:24.000Z</time>
      </trkpt>
      <trkpt lat="44.02771" lon="4.75471">
        <ele>95.4</ele>
        <time>2012-06-13T06:02:25.000Z</time>
      </trkpt>
      <trkpt lat="44.02768" lon="4.75464">
        <ele>95.7</ele>
        <time>2012-06-13T06:02:26.000Z</time>
      </trkpt>
      <trkpt lat="44.02765" lon="4.75454">
        <ele>96.2</ele>
        <time>2012-06-13T06:02:28.000Z</time>
      </trkpt>
      <trkpt lat="44.02765" lon="4.75448">
        <ele>96.2</ele>
        <time>2012-06-13T06:02:30.000Z</time>
      </trkpt>
      <trkpt lat="44.02764" lon="4.75441">
        <ele>97.4</ele>
        <time>2012-06-13T06:02:31.000Z</time>
      </trkpt>
      <trkpt lat="44.02761" lon="4.75434">
        <ele>96.5</ele>
        <time>2012-06-13T06:02:33.000Z</time>
      </trkpt>
      <trkpt lat="44.0276" lon="4.75423">
        <ele>94.9</ele>
        <time>2012-06-13T06:02:36.000Z</time>
      </trkpt>
      <trkpt lat="44.02757" lon="4.75414">
        <ele>94.7</ele>
        <time>2012-06-13T06:02:38.000Z</time>
      </trkpt>
      <trkpt lat="44.02754" lon="4.75404">
        <ele>95.1</ele>
        <time>2012-06-13T06:02:40.000Z</time>
      </trkpt>
      <trkpt lat="44.02751" lon="4.75391">
        <ele>94.5</ele>
        <time>2012-06-13T06:02:44.000Z</time>
      </trkpt>
      <trkpt lat="44.02748" lon="4.75379">
        <ele>96.7</ele>
        <time>2012-06-13T06:02:46.000Z</time>
      </trkpt>
      <trkpt lat="44.02746" lon="4.75373">
        <ele>97</ele>
        <time>2012-06-13T06:02:47.000Z</time>
      </trkpt>
      <trkpt lat="44.02744" lon="4.75366">
        <ele>97.1</ele>
        <time>2012-06-13T06:02:48.000Z</time>
      </trkpt>
      <trkpt lat="44.02743" lon="4.7536">
        <ele>98</ele>
        <time>2012-06-13T06:02:49.000Z</time>
      </trkpt>
      <trkpt lat="44.02741" lon="4.75353">
        <ele>98.4</ele>
        <time>2012-06-13T06:02:50.000Z</time>
      </trkpt>
      <trkpt lat="44.02738" lon="4.75345">
        <ele>98.2</ele>
        <time>2012-06-13T06:02:52.000Z</time>
      </trkpt>
      <trkpt lat="44.02734" lon="4.75333">
        <ele>98.5</ele>
        <time>2012-06-13T06:02:54.000Z</time>
      </trkpt>
      <trkpt lat="44.02732" lon="4.75327">
        <ele>99.6</ele>
        <time>2012-06-13T06:02:55.000Z</time>
      </trkpt>
      <trkpt lat="44.02728" lon="4.75317">
        <ele>100.1</ele>
        <time>2012-06-13T06:02:57.000Z</time>
      </trkpt>
      <trkpt lat="44.02724" lon="4.75307">
        <ele>99.8</ele>
        <time>2012-06-13T06:02:59.000Z</time>
      </trkpt>
      <trkpt lat="44.02721" lon="4.753">
        <ele>100.2</ele>
        <time>2012-06-13T06:03:01.000Z</time>
      </trkpt>
      <trkpt lat="44.02717" lon="4.75292">
        <ele>99.4</ele>
        <time>2012-06-13T06:03:03.000Z</time>
      </trkpt>
      <trkpt lat="44.02715" lon="4.75285">
        <ele>99.6</ele>
        <time>2012-06-13T06:03:04.000Z</time>
      </trkpt>
      <trkpt lat="44.02712" lon="4.75279">
        <ele>99.8</ele>
        <time>2012-06-13T06:03:05.000Z</time>
      </trkpt>
      <trkpt lat="44.02708" lon="4.75269">
        <ele>99.7</ele>
        <time>2012-06-13T06:03:07.000Z</time>
      </trkpt>
      <trkpt lat="44.02704" lon="4.75259">
        <ele>99.4</ele>
        <time>2012-06-13T06:03:09.000Z</time>
      </trkpt>
      <trkpt lat="44.02701" lon="4.75254">
        <ele>99.1</ele>
        <time>2012-06-13T06:03:10.000Z</time>
      </trkpt>
      <trkpt lat="44.02696" lon="4.75244">
        <ele>99.2</ele>
        <time>2012-06-13T06:03:12.000Z</time>
      </trkpt>
      <trkpt lat="44.02692" lon="4.75234">
        <ele>99</ele>
        <time>2012-06-13T06:03:14.000Z</time>
      </trkpt>
      <trkpt lat="44.02687" lon="4.75224">
        <ele>98.5</ele>
        <time>2012-06-13T06:03:16.000Z</time>
      </trkpt>
      <trkpt lat="44.02682" lon="4.75216">
        <ele>98.1</ele>
        <time>2012-06-13T06:03:18.000Z</time>
      </trkpt>
      <trkpt lat="44.02677" lon="4.75206">
        <ele>98.3</ele>
        <time>2012-06-13T06:03:20.000Z</time>
      </trkpt>
      <trkpt lat="44.02674" lon="4.752">
        <ele>98.2</ele>
        <time>2012-06-13T06:03:21.000Z</time>
      </trkpt>
      <trkpt lat="44.02669" lon="4.75189">
        <ele>98.2</ele>
        <time>2012-06-13T06:03:23.000Z</time>
      </trkpt>
      <trkpt lat="44.02663" lon="4.75181">
        <ele>98.5</ele>
        <time>2012-06-13T06:03:25.000Z</time>
      </trkpt>
      <trkpt lat="44.02661" lon="4.75175">
        <ele>98.8</ele>
        <time>2012-06-13T06:03:26.000Z</time>
      </trkpt>
      <trkpt lat="44.02658" lon="4.7517">
        <ele>98.9</ele>
        <time>2012-06-13T06:03:27.000Z</time>
      </trkpt>
      <trkpt lat="44.02655" lon="4.75164">
        <ele>98.8</ele>
        <time>2012-06-13T06:03:28.000Z</time>
      </trkpt>
      <trkpt lat="44.02652" lon="4.75158">
        <ele>98.9</ele>
        <time>2012-06-13T06:03:29.000Z</time>
      </trkpt>
      <trkpt lat="44.0265" lon="4.75151">
        <ele>98.8</ele>
        <time>2012-06-13T06:03:30.000Z</time>
      </trkpt>
      <trkpt lat="44.02646" lon="4.75144">
        <ele>98.7</ele>
        <time>2012-06-13T06:03:31.000Z</time>
      </trkpt>
      <trkpt lat="44.02643" lon="4.75139">
        <ele>98.6</ele>
        <time>2012-06-13T06:03:32.000Z</time>
      </trkpt>
      <trkpt lat="44.0264" lon="4.75133">
        <ele>98.7</ele>
        <time>2012-06-13T06:03:33.000Z</time>
      </trkpt>
      <trkpt lat="44.02634" lon="4.75124">
        <ele>98.6</ele>
        <time>2012-06-13T06:03:35.000Z</time>
      </trkpt>
      <trkpt lat="44.02631" lon="4.75119">
        <ele>98.7</ele>
        <time>2012-06-13T06:03:36.000Z</time>
      </trkpt>
      <trkpt lat="44.02628" lon="4.75114">
        <ele>98.7</ele>
        <time>2012-06-13T06:03:37.000Z</time>
      </trkpt>
      <trkpt lat="44.02624" lon="4.75106">
        <ele>98.6</ele>
        <time>2012-06-13T06:03:39.000Z</time>
      </trkpt>
      <trkpt lat="44.02619" lon="4.75097">
        <ele>98</ele>
        <time>2012-06-13T06:03:41.000Z</time>
      </trkpt>
      <trkpt lat="44.02616" lon="4.75091">
        <ele>98.1</ele>
        <time>2012-06-13T06:03:42.000Z</time>
      </trkpt>
      <trkpt lat="44.02612" lon="4.75083">
        <ele>97.9</ele>
        <time>2012-06-13T06:03:44.000Z</time>
      </trkpt>
      <trkpt lat="44.02609" lon="4.75077">
        <ele>98</ele>
        <time>2012-06-13T06:03:45.000Z</time>
      </trkpt>
      <trkpt lat="44.02604" lon="4.75069">
        <ele>98</ele>
        <time>2012-06-13T06:03:47.000Z</time>
      </trkpt>
      <trkpt lat="44.02601" lon="4.75063">
        <ele>98.3</ele>
        <time>2012-06-13T06:03:48.000Z</time>
      </trkpt>
      <trkpt lat="44.02598" lon="4.75057">
        <ele>98.4</ele>
        <time>2012-06-13T06:03:49.000Z</time>
      </trkpt>
      <trkpt lat="44.02595" lon="4.75051">
        <ele>99.8</ele>
        <time>2012-06-13T06:03:50.000Z</time>
      </trkpt>
      <trkpt lat="44.02589" lon="4.75042">
        <ele>99.4</ele>
        <time>2012-06-13T06:03:52.000Z</time>
      </trkpt>
      <trkpt lat="44.02585" lon="4.75037">
        <ele>99.2</ele>
        <time>2012-06-13T06:03:53.000Z</time>
      </trkpt>
      <trkpt lat="44.02581" lon="4.75028">
        <ele>100.2</ele>
        <time>2012-06-13T06:03:55.000Z</time>
      </trkpt>
      <trkpt lat="44.02576" lon="4.75022">
        <ele>100.2</ele>
        <time>2012-06-13T06:03:57.000Z</time>
      </trkpt>
      <trkpt lat="44.02573" lon="4.75017">
        <ele>99.8</ele>
        <time>2012-06-13T06:03:58.000Z</time>
      </trkpt>
      <trkpt lat="44.0257" lon="4.75012">
        <ele>99.6</ele>
        <time>2012-06-13T06:03:59.000Z</time>
      </trkpt>
      <trkpt lat="44.02565" lon="4.75004">
        <ele>100</ele>
        <time>2012-06-13T06:04:01.000Z</time>
      </trkpt>
      <trkpt lat="44.0256" lon="4.74996">
        <ele>100.3</ele>
        <time>2012-06-13T06:04:03.000Z</time>
      </trkpt>
      <trkpt lat="44.02554" lon="4.74988">
        <ele>100.7</ele>
        <time>2012-06-13T06:04:05.000Z</time>
      </trkpt>
      <trkpt lat="44.02551" lon="4.74983">
        <ele>101.1</ele>
        <time>2012-06-13T06:04:06.000Z</time>
      </trkpt>
      <trkpt lat="44.02547" lon="4.74978">
        <ele>100.8</ele>
        <time>2012-06-13T06:04:07.000Z</time>
      </trkpt>
      <trkpt lat="44.02542" lon="4.7497">
        <ele>101.3</ele>
        <time>2012-06-13T06:04:09.000Z</time>
      </trkpt>
      <trkpt lat="44.02539" lon="4.74964">
        <ele>100.9</ele>
        <time>2012-06-13T06:04:10.000Z</time>
      </trkpt>
      <trkpt lat="44.02534" lon="4.74957">
        <ele>100.6</ele>
        <time>2012-06-13T06:04:12.000Z</time>
      </trkpt>
      <trkpt lat="44.02529" lon="4.74948">
        <ele>101.2</ele>
        <time>2012-06-13T06:04:14.000Z</time>
      </trkpt>
      <trkpt lat="44.02526" lon="4.74943">
        <ele>102</ele>
        <time>2012-06-13T06:04:15.000Z</time>
      </trkpt>
      <trkpt lat="44.02522" lon="4.74937">
        <ele>101.9</ele>
        <time>2012-06-13T06:04:16.000Z</time>
      </trkpt>
      <trkpt lat="44.02519" lon="4.7493">
        <ele>102.4</ele>
        <time>2012-06-13T06:04:17.000Z</time>
      </trkpt>
      <trkpt lat="44.02514" lon="4.74921">
        <ele>102.3</ele>
        <time>2012-06-13T06:04:19.000Z</time>
      </trkpt>
      <trkpt lat="44.02511" lon="4.74915">
        <ele>102.5</ele>
        <time>2012-06-13T06:04:20.000Z</time>
      </trkpt>
      <trkpt lat="44.02508" lon="4.7491">
        <ele>102.6</ele>
        <time>2012-06-13T06:04:21.000Z</time>
      </trkpt>
      <trkpt lat="44.02503" lon="4.749">
        <ele>103</ele>
        <time>2012-06-13T06:04:23.000Z</time>
      </trkpt>
      <trkpt lat="44.02499" lon="4.74892">
        <ele>103</ele>
        <time>2012-06-13T06:04:24.000Z</time>
      </trkpt>
      <trkpt lat="44.02495" lon="4.74886">
        <ele>102.8</ele>
        <time>2012-06-13T06:04:25.000Z</time>
      </trkpt>
      <trkpt lat="44.02492" lon="4.74881">
        <ele>102.7</ele>
        <time>2012-06-13T06:04:26.000Z</time>
      </trkpt>
      <trkpt lat="44.02488" lon="4.74872">
        <ele>102.8</ele>
        <time>2012-06-13T06:04:28.000Z</time>
      </trkpt>
      <trkpt lat="44.02482" lon="4.74863">
        <ele>101.8</ele>
        <time>2012-06-13T06:04:30.000Z</time>
      </trkpt>
      <trkpt lat="44.02477" lon="4.74855">
        <ele>101.6</ele>
        <time>2012-06-13T06:04:32.000Z</time>
      </trkpt>
      <trkpt lat="44.02474" lon="4.7485">
        <ele>101.4</ele>
        <time>2012-06-13T06:04:33.000Z</time>
      </trkpt>
      <trkpt lat="44.02469" lon="4.7484">
        <ele>100.7</ele>
        <time>2012-06-13T06:04:35.000Z</time>
      </trkpt>
      <trkpt lat="44.02467" lon="4.74835">
        <ele>100.3</ele>
        <time>2012-06-13T06:04:36.000Z</time>
      </trkpt>
      <trkpt lat="44.02462" lon="4.74826">
        <ele>100.3</ele>
        <time>2012-06-13T06:04:38.000Z</time>
      </trkpt>
      <trkpt lat="44.02458" lon="4.74819">
        <ele>100.1</ele>
        <time>2012-06-13T06:04:40.000Z</time>
      </trkpt>
      <trkpt lat="44.02454" lon="4.74812">
        <ele>100.5</ele>
        <time>2012-06-13T06:04:42.000Z</time>
      </trkpt>
      <trkpt lat="44.02449" lon="4.74803">
        <ele>99.7</ele>
        <time>2012-06-13T06:04:44.000Z</time>
      </trkpt>
      <trkpt lat="44.02446" lon="4.74797">
        <ele>99.4</ele>
        <time>2012-06-13T06:04:45.000Z</time>
      </trkpt>
      <trkpt lat="44.02442" lon="4.74787">
        <ele>98.6</ele>
        <time>2012-06-13T06:04:47.000Z</time>
      </trkpt>
      <trkpt lat="44.02437" lon="4.74778">
        <ele>99</ele>
        <time>2012-06-13T06:04:49.000Z</time>
      </trkpt>
      <trkpt lat="44.02432" lon="4.74768">
        <ele>99.8</ele>
        <time>2012-06-13T06:04:51.000Z</time>
      </trkpt>
      <trkpt lat="44.02427" lon="4.7476">
        <ele>100.4</ele>
        <time>2012-06-13T06:04:53.000Z</time>
      </trkpt>
      <trkpt lat="44.02423" lon="4.74752">
        <ele>100.2</ele>
        <time>2012-06-13T06:04:54.000Z</time>
      </trkpt>
      <trkpt lat="44.02421" lon="4.74747">
        <ele>100.3</ele>
        <time>2012-06-13T06:04:55.000Z</time>
      </trkpt>
      <trkpt lat="44.02418" lon="4.7474">
        <ele>100.3</ele>
        <time>2012-06-13T06:04:56.000Z</time>
      </trkpt>
      <trkpt lat="44.02415" lon="4.74735">
        <ele>100.6</ele>
        <time>2012-06-13T06:04:57.000Z</time>
      </trkpt>
      <trkpt lat="44.02411" lon="4.74726">
        <ele>100.8</ele>
        <time>2012-06-13T06:04:59.000Z</time>
      </trkpt>
      <trkpt lat="44.02407" lon="4.74718">
        <ele>100.9</ele>
        <time>2012-06-13T06:05:01.000Z</time>
      </trkpt>
      <trkpt lat="44.02404" lon="4.7471">
        <ele>100.6</ele>
        <time>2012-06-13T06:05:03.000Z</time>
      </trkpt>
      <trkpt lat="44.02399" lon="4.74702">
        <ele>101.3</ele>
        <time>2012-06-13T06:05:05.000Z</time>
      </trkpt>
      <trkpt lat="44.02396" lon="4.74696">
        <ele>101.2</ele>
        <time>2012-06-13T06:05:06.000Z</time>
      </trkpt>
      <trkpt lat="44.02391" lon="4.74686">
        <ele>101.4</ele>
        <time>2012-06-13T06:05:08.000Z</time>
      </trkpt>
      <trkpt lat="44.02388" lon="4.74676">
        <ele>100.9</ele>
        <time>2012-06-13T06:05:10.000Z</time>
      </trkpt>
      <trkpt lat="44.02383" lon="4.74667">
        <ele>101</ele>
        <time>2012-06-13T06:05:12.000Z</time>
      </trkpt>
      <trkpt lat="44.0238" lon="4.7466">
        <ele>101</ele>
        <time>2012-06-13T06:05:13.000Z</time>
      </trkpt>
      <trkpt lat="44.02377" lon="4.74654">
        <ele>100.7</ele>
        <time>2012-06-13T06:05:14.000Z</time>
      </trkpt>
      <trkpt lat="44.02374" lon="4.74645">
        <ele>100.7</ele>
        <time>2012-06-13T06:05:16.000Z</time>
      </trkpt>
      <trkpt lat="44.02372" lon="4.74639">
        <ele>100.4</ele>
        <time>2012-06-13T06:05:17.000Z</time>
      </trkpt>
      <trkpt lat="44.02369" lon="4.74629">
        <ele>101.5</ele>
        <time>2012-06-13T06:05:19.000Z</time>
      </trkpt>
      <trkpt lat="44.02364" lon="4.74619">
        <ele>102.7</ele>
        <time>2012-06-13T06:05:21.000Z</time>
      </trkpt>
      <trkpt lat="44.0236" lon="4.7461">
        <ele>102.9</ele>
        <time>2012-06-13T06:05:23.000Z</time>
      </trkpt>
      <trkpt lat="44.02356" lon="4.74602">
        <ele>103.2</ele>
        <time>2012-06-13T06:05:25.000Z</time>
      </trkpt>
      <trkpt lat="44.0235" lon="4.74588">
        <ele>103.4</ele>
        <time>2012-06-13T06:05:27.000Z</time>
      </trkpt>
      <trkpt lat="44.02346" lon="4.7458">
        <ele>103.6</ele>
        <time>2012-06-13T06:05:29.000Z</time>
      </trkpt>
      <trkpt lat="44.02342" lon="4.74569">
        <ele>103.8</ele>
        <time>2012-06-13T06:05:31.000Z</time>
      </trkpt>
      <trkpt lat="44.02338" lon="4.7456">
        <ele>103.4</ele>
        <time>2012-06-13T06:05:33.000Z</time>
      </trkpt>
      <trkpt lat="44.02335" lon="4.7455">
        <ele>103.5</ele>
        <time>2012-06-13T06:05:35.000Z</time>
      </trkpt>
      <trkpt lat="44.0233" lon="4.7454">
        <ele>103.9</ele>
        <time>2012-06-13T06:05:37.000Z</time>
      </trkpt>
      <trkpt lat="44.02326" lon="4.74535">
        <ele>104.4</ele>
        <time>2012-06-13T06:05:39.000Z</time>
      </trkpt>
      <trkpt lat="44.02323" lon="4.74528">
        <ele>105.1</ele>
        <time>2012-06-13T06:05:40.000Z</time>
      </trkpt>
      <trkpt lat="44.0232" lon="4.74522">
        <ele>104.8</ele>
        <time>2012-06-13T06:05:41.000Z</time>
      </trkpt>
      <trkpt lat="44.02317" lon="4.74516">
        <ele>104.6</ele>
        <time>2012-06-13T06:05:42.000Z</time>
      </trkpt>
      <trkpt lat="44.02313" lon="4.74508">
        <ele>103.7</ele>
        <time>2012-06-13T06:05:44.000Z</time>
      </trkpt>
      <trkpt lat="44.02309" lon="4.74502">
        <ele>103.4</ele>
        <time>2012-06-13T06:05:45.000Z</time>
      </trkpt>
      <trkpt lat="44.02305" lon="4.74494">
        <ele>102.4</ele>
        <time>2012-06-13T06:05:47.000Z</time>
      </trkpt>
      <trkpt lat="44.02302" lon="4.74489">
        <ele>103.1</ele>
        <time>2012-06-13T06:05:48.000Z</time>
      </trkpt>
      <trkpt lat="44.02298" lon="4.74484">
        <ele>103</ele>
        <time>2012-06-13T06:05:49.000Z</time>
      </trkpt>
      <trkpt lat="44.02294" lon="4.74477">
        <ele>103.4</ele>
        <time>2012-06-13T06:05:51.000Z</time>
      </trkpt>
      <trkpt lat="44.0229" lon="4.74468">
        <ele>103.3</ele>
        <time>2012-06-13T06:05:53.000Z</time>
      </trkpt>
      <trkpt lat="44.02287" lon="4.74463">
        <ele>103.5</ele>
        <time>2012-06-13T06:05:54.000Z</time>
      </trkpt>
      <trkpt lat="44.02282" lon="4.74453">
        <ele>103.3</ele>
        <time>2012-06-13T06:05:56.000Z</time>
      </trkpt>
      <trkpt lat="44.02276" lon="4.74441">
        <ele>102.9</ele>
        <time>2012-06-13T06:05:58.000Z</time>
      </trkpt>
      <trkpt lat="44.02272" lon="4.74436">
        <ele>102.9</ele>
        <time>2012-06-13T06:05:59.000Z</time>
      </trkpt>
      <trkpt lat="44.02267" lon="4.74428">
        <ele>103.2</ele>
        <time>2012-06-13T06:06:01.000Z</time>
      </trkpt>
      <trkpt lat="44.02264" lon="4.74421">
        <ele>103.4</ele>
        <time>2012-06-13T06:06:02.000Z</time>
      </trkpt>
      <trkpt lat="44.02259" lon="4.74411">
        <ele>104</ele>
        <time>2012-06-13T06:06:04.000Z</time>
      </trkpt>
      <trkpt lat="44.02254" lon="4.74405">
        <ele>104.4</ele>
        <time>2012-06-13T06:06:06.000Z</time>
      </trkpt>
      <trkpt lat="44.02251" lon="4.744">
        <ele>104.7</ele>
        <time>2012-06-13T06:06:07.000Z</time>
      </trkpt>
      <trkpt lat="44.02248" lon="4.74394">
        <ele>104.6</ele>
        <time>2012-06-13T06:06:08.000Z</time>
      </trkpt>
      <trkpt lat="44.02244" lon="4.74388">
        <ele>104.9</ele>
        <time>2012-06-13T06:06:09.000Z</time>
      </trkpt>
      <trkpt lat="44.02242" lon="4.74383">
        <ele>105</ele>
        <time>2012-06-13T06:06:10.000Z</time>
      </trkpt>
      <trkpt lat="44.02235" lon="4.74373">
        <ele>104.2</ele>
        <time>2012-06-13T06:06:12.000Z</time>
      </trkpt>
      <trkpt lat="44.0223" lon="4.74364">
        <ele>104.4</ele>
        <time>2012-06-13T06:06:14.000Z</time>
      </trkpt>
      <trkpt lat="44.02208" lon="4.74333">
        <ele>105.1</ele>
        <time>2012-06-13T06:06:22.000Z</time>
      </trkpt>
      <trkpt lat="44.02205" lon="4.74325">
        <ele>105.3</ele>
        <time>2012-06-13T06:06:23.000Z</time>
      </trkpt>
      <trkpt lat="44.022" lon="4.74316">
        <ele>105.6</ele>
        <time>2012-06-13T06:06:24.000Z</time>
      </trkpt>
      <trkpt lat="44.02196" lon="4.74307">
        <ele>105.5</ele>
        <time>2012-06-13T06:06:25.000Z</time>
      </trkpt>
      <trkpt lat="44.02194" lon="4.74301">
        <ele>105.4</ele>
        <time>2012-06-13T06:06:26.000Z</time>
      </trkpt>
      <trkpt lat="44.02188" lon="4.74293">
        <ele>104.2</ele>
        <time>2012-06-13T06:06:28.000Z</time>
      </trkpt>
      <trkpt lat="44.02181" lon="4.74284">
        <ele>103.9</ele>
        <time>2012-06-13T06:06:30.000Z</time>
      </trkpt>
      <trkpt lat="44.02177" lon="4.74278">
        <ele>104.5</ele>
        <time>2012-06-13T06:06:31.000Z</time>
      </trkpt>
      <trkpt lat="44.02174" lon="4.74272">
        <ele>104.7</ele>
        <time>2012-06-13T06:06:32.000Z</time>
      </trkpt>
      <trkpt lat="44.0217" lon="4.74264">
        <ele>104.7</ele>
        <time>2012-06-13T06:06:34.000Z</time>
      </trkpt>
      <trkpt lat="44.02164" lon="4.74257">
        <ele>105.5</ele>
        <time>2012-06-13T06:06:37.000Z</time>
      </trkpt>
      <trkpt lat="44.02161" lon="4.74252">
        <ele>105.3</ele>
        <time>2012-06-13T06:06:39.000Z</time>
      </trkpt>
      <trkpt lat="44.02156" lon="4.74242">
        <ele>105.2</ele>
        <time>2012-06-13T06:06:41.000Z</time>
      </trkpt>
      <trkpt lat="44.02152" lon="4.74235">
        <ele>105.9</ele>
        <time>2012-06-13T06:06:43.000Z</time>
      </trkpt>
      <trkpt lat="44.02148" lon="4.74231">
        <ele>106.2</ele>
        <time>2012-06-13T06:06:44.000Z</time>
      </trkpt>
      <trkpt lat="44.02143" lon="4.74222">
        <ele>106.1</ele>
        <time>2012-06-13T06:06:46.000Z</time>
      </trkpt>
      <trkpt lat="44.02139" lon="4.74214">
        <ele>106.2</ele>
        <time>2012-06-13T06:06:48.000Z</time>
      </trkpt>
      <trkpt lat="44.02134" lon="4.74205">
        <ele>105.8</ele>
        <time>2012-06-13T06:06:54.000Z</time>
      </trkpt>
      <trkpt lat="44.02131" lon="4.74198">
        <ele>105.6</ele>
        <time>2012-06-13T06:06:55.000Z</time>
      </trkpt>
      <trkpt lat="44.02128" lon="4.74193">
        <ele>105.9</ele>
        <time>2012-06-13T06:06:56.000Z</time>
      </trkpt>
      <trkpt lat="44.02124" lon="4.74182">
        <ele>105.8</ele>
        <time>2012-06-13T06:06:58.000Z</time>
      </trkpt>
      <trkpt lat="44.02119" lon="4.74174">
        <ele>107.1</ele>
        <time>2012-06-13T06:07:00.000Z</time>
      </trkpt>
      <trkpt lat="44.02116" lon="4.74168">
        <ele>107.5</ele>
        <time>2012-06-13T06:07:01.000Z</time>
      </trkpt>
      <trkpt lat="44.02113" lon="4.74161">
        <ele>108.2</ele>
        <time>2012-06-13T06:07:02.000Z</time>
      </trkpt>
      <trkpt lat="44.0211" lon="4.74154">
        <ele>108.1</ele>
        <time>2012-06-13T06:07:04.000Z</time>
      </trkpt>
      <trkpt lat="44.02106" lon="4.74145">
        <ele>108</ele>
        <time>2012-06-13T06:07:06.000Z</time>
      </trkpt>
      <trkpt lat="44.02103" lon="4.74136">
        <ele>108.3</ele>
        <time>2012-06-13T06:07:08.000Z</time>
      </trkpt>
      <trkpt lat="44.021" lon="4.74128">
        <ele>108.4</ele>
        <time>2012-06-13T06:07:10.000Z</time>
      </trkpt>
      <trkpt lat="44.02096" lon="4.7412">
        <ele>109</ele>
        <time>2012-06-13T06:07:12.000Z</time>
      </trkpt>
      <trkpt lat="44.02095" lon="4.7411">
        <ele>108.5</ele>
        <time>2012-06-13T06:07:14.000Z</time>
      </trkpt>
      <trkpt lat="44.02095" lon="4.74103">
        <ele>109.5</ele>
        <time>2012-06-13T06:07:15.000Z</time>
      </trkpt>
      <trkpt lat="44.02094" lon="4.74095">
        <ele>109.5</ele>
        <time>2012-06-13T06:07:17.000Z</time>
      </trkpt>
      <trkpt lat="44.02096" lon="4.74083">
        <ele>111</ele>
        <time>2012-06-13T06:07:19.000Z</time>
      </trkpt>
      <trkpt lat="44.02098" lon="4.74071">
        <ele>111.1</ele>
        <time>2012-06-13T06:07:21.000Z</time>
      </trkpt>
      <trkpt lat="44.021" lon="4.74062">
        <ele>111.3</ele>
        <time>2012-06-13T06:07:23.000Z</time>
      </trkpt>
      <trkpt lat="44.02101" lon="4.74053">
        <ele>110.8</ele>
        <time>2012-06-13T06:07:25.000Z</time>
      </trkpt>
      <trkpt lat="44.021" lon="4.74043">
        <ele>111.4</ele>
        <time>2012-06-13T06:07:27.000Z</time>
      </trkpt>
      <trkpt lat="44.02098" lon="4.74034">
        <ele>113.1</ele>
        <time>2012-06-13T06:07:29.000Z</time>
      </trkpt>
      <trkpt lat="44.02096" lon="4.74028">
        <ele>113.1</ele>
        <time>2012-06-13T06:07:31.000Z</time>
      </trkpt>
      <trkpt lat="44.02093" lon="4.74021">
        <ele>113.4</ele>
        <time>2012-06-13T06:07:33.000Z</time>
      </trkpt>
      <trkpt lat="44.02088" lon="4.74014">
        <ele>113.3</ele>
        <time>2012-06-13T06:07:35.000Z</time>
      </trkpt>
      <trkpt lat="44.02082" lon="4.74009">
        <ele>113.4</ele>
        <time>2012-06-13T06:07:37.000Z</time>
      </trkpt>
      <trkpt lat="44.02077" lon="4.7401">
        <ele>112.7</ele>
        <time>2012-06-13T06:07:39.000Z</time>
      </trkpt>
      <trkpt lat="44.02069" lon="4.74007">
        <ele>112.4</ele>
        <time>2012-06-13T06:07:41.000Z</time>
      </trkpt>
      <trkpt lat="44.02062" lon="4.74006">
        <ele>112.3</ele>
        <time>2012-06-13T06:07:43.000Z</time>
      </trkpt>
      <trkpt lat="44.02056" lon="4.74004">
        <ele>112.3</ele>
        <time>2012-06-13T06:07:45.000Z</time>
      </trkpt>
      <trkpt lat="44.02051" lon="4.74">
        <ele>112.5</ele>
        <time>2012-06-13T06:07:47.000Z</time>
      </trkpt>
      <trkpt lat="44.02047" lon="4.73995">
        <ele>112.7</ele>
        <time>2012-06-13T06:07:49.000Z</time>
      </trkpt>
      <trkpt lat="44.02043" lon="4.73991">
        <ele>112.8</ele>
        <time>2012-06-13T06:07:51.000Z</time>
      </trkpt>
      <trkpt lat="44.02039" lon="4.73983">
        <ele>111.9</ele>
        <time>2012-06-13T06:07:53.000Z</time>
      </trkpt>
      <trkpt lat="44.02036" lon="4.73978">
        <ele>112.4</ele>
        <time>2012-06-13T06:07:54.000Z</time>
      </trkpt>
      <trkpt lat="44.02032" lon="4.73973">
        <ele>112.6</ele>
        <time>2012-06-13T06:07:56.000Z</time>
      </trkpt>
      <trkpt lat="44.02026" lon="4.73962">
        <ele>112.4</ele>
        <time>2012-06-13T06:07:59.000Z</time>
      </trkpt>
      <trkpt lat="44.02023" lon="4.73953">
        <ele>111.9</ele>
        <time>2012-06-13T06:08:01.000Z</time>
      </trkpt>
      <trkpt lat="44.02019" lon="4.73945">
        <ele>112.6</ele>
        <time>2012-06-13T06:08:03.000Z</time>
      </trkpt>
      <trkpt lat="44.02017" lon="4.73937">
        <ele>112.5</ele>
        <time>2012-06-13T06:08:05.000Z</time>
      </trkpt>
      <trkpt lat="44.02014" lon="4.73932">
        <ele>112.6</ele>
        <time>2012-06-13T06:08:07.000Z</time>
      </trkpt>
      <trkpt lat="44.0201" lon="4.73927">
        <ele>112.6</ele>
        <time>2012-06-13T06:08:09.000Z</time>
      </trkpt>
      <trkpt lat="44.02007" lon="4.73921">
        <ele>112.9</ele>
        <time>2012-06-13T06:08:11.000Z</time>
      </trkpt>
      <trkpt lat="44.02004" lon="4.73914">
        <ele>112.9</ele>
        <time>2012-06-13T06:08:13.000Z</time>
      </trkpt>
      <trkpt lat="44.02002" lon="4.73907">
        <ele>113.9</ele>
        <time>2012-06-13T06:08:17.000Z</time>
      </trkpt>
      <trkpt lat="44.02" lon="4.73901">
        <ele>114</ele>
        <time>2012-06-13T06:08:19.000Z</time>
      </trkpt>
      <trkpt lat="44.01994" lon="4.73892">
        <ele>113.5</ele>
        <time>2012-06-13T06:08:23.000Z</time>
      </trkpt>
      <trkpt lat="44.01991" lon="4.73885">
        <ele>113.7</ele>
        <time>2012-06-13T06:08:25.000Z</time>
      </trkpt>
      <trkpt lat="44.01989" lon="4.73878">
        <ele>114.7</ele>
        <time>2012-06-13T06:08:27.000Z</time>
      </trkpt>
      <trkpt lat="44.01986" lon="4.73872">
        <ele>115.1</ele>
        <time>2012-06-13T06:08:28.000Z</time>
      </trkpt>
      <trkpt lat="44.01983" lon="4.73863">
        <ele>115.5</ele>
        <time>2012-06-13T06:08:30.000Z</time>
      </trkpt>
      <trkpt lat="44.01978" lon="4.73856">
        <ele>115.9</ele>
        <time>2012-06-13T06:08:32.000Z</time>
      </trkpt>
      <trkpt lat="44.01973" lon="4.73847">
        <ele>116.3</ele>
        <time>2012-06-13T06:08:37.000Z</time>
      </trkpt>
      <trkpt lat="44.0197" lon="4.73838">
        <ele>117.1</ele>
        <time>2012-06-13T06:08:39.000Z</time>
      </trkpt>
      <trkpt lat="44.01966" lon="4.7383">
        <ele>118.5</ele>
        <time>2012-06-13T06:08:41.000Z</time>
      </trkpt>
      <trkpt lat="44.01962" lon="4.73822">
        <ele>118.2</ele>
        <time>2012-06-13T06:08:43.000Z</time>
      </trkpt>
      <trkpt lat="44.01958" lon="4.73817">
        <ele>118.4</ele>
        <time>2012-06-13T06:08:45.000Z</time>
      </trkpt>
      <trkpt lat="44.01956" lon="4.73812">
        <ele>118.6</ele>
        <time>2012-06-13T06:08:46.000Z</time>
      </trkpt>
      <trkpt lat="44.01954" lon="4.73805">
        <ele>118.5</ele>
        <time>2012-06-13T06:08:50.000Z</time>
      </trkpt>
      <trkpt lat="44.01949" lon="4.73797">
        <ele>118</ele>
        <time>2012-06-13T06:08:54.000Z</time>
      </trkpt>
      <trkpt lat="44.01946" lon="4.7379">
        <ele>118.5</ele>
        <time>2012-06-13T06:08:55.000Z</time>
      </trkpt>
      <trkpt lat="44.01942" lon="4.73782">
        <ele>119.3</ele>
        <time>2012-06-13T06:08:57.000Z</time>
      </trkpt>
      <trkpt lat="44.01939" lon="4.73772">
        <ele>119.5</ele>
        <time>2012-06-13T06:08:59.000Z</time>
      </trkpt>
      <trkpt lat="44.01936" lon="4.73766">
        <ele>119.9</ele>
        <time>2012-06-13T06:09:00.000Z</time>
      </trkpt>
      <trkpt lat="44.01933" lon="4.7376">
        <ele>120.2</ele>
        <time>2012-06-13T06:09:02.000Z</time>
      </trkpt>
      <trkpt lat="44.01932" lon="4.73754">
        <ele>120.4</ele>
        <time>2012-06-13T06:09:04.000Z</time>
      </trkpt>
      <trkpt lat="44.01929" lon="4.73746">
        <ele>121.2</ele>
        <time>2012-06-13T06:09:06.000Z</time>
      </trkpt>
      <trkpt lat="44.01926" lon="4.7374">
        <ele>119.5</ele>
        <time>2012-06-13T06:09:08.000Z</time>
      </trkpt>
      <trkpt lat="44.01923" lon="4.73734">
        <ele>119</ele>
        <time>2012-06-13T06:09:10.000Z</time>
      </trkpt>
      <trkpt lat="44.01919" lon="4.73726">
        <ele>119.7</ele>
        <time>2012-06-13T06:09:12.000Z</time>
      </trkpt>
      <trkpt lat="44.01917" lon="4.7372">
        <ele>119.7</ele>
        <time>2012-06-13T06:09:13.000Z</time>
      </trkpt>
      <trkpt lat="44.01914" lon="4.73714">
        <ele>119.4</ele>
        <time>2012-06-13T06:09:15.000Z</time>
      </trkpt>
      <trkpt lat="44.0191" lon="4.73706">
        <ele>120.3</ele>
        <time>2012-06-13T06:09:17.000Z</time>
      </trkpt>
      <trkpt lat="44.01907" lon="4.737">
        <ele>119.9</ele>
        <time>2012-06-13T06:09:19.000Z</time>
      </trkpt>
      <trkpt lat="44.01903" lon="4.73692">
        <ele>120.4</ele>
        <time>2012-06-13T06:09:21.000Z</time>
      </trkpt>
      <trkpt lat="44.01899" lon="4.73684">
        <ele>121.1</ele>
        <time>2012-06-13T06:09:22.000Z</time>
      </trkpt>
      <trkpt lat="44.01895" lon="4.73676">
        <ele>120.4</ele>
        <time>2012-06-13T06:09:24.000Z</time>
      </trkpt>
      <trkpt lat="44.01892" lon="4.73668">
        <ele>121.3</ele>
        <time>2012-06-13T06:09:26.000Z</time>
      </trkpt>
      <trkpt lat="44.01889" lon="4.73661">
        <ele>122.8</ele>
        <time>2012-06-13T06:09:29.000Z</time>
      </trkpt>
      <trkpt lat="44.01886" lon="4.73655">
        <ele>122.2</ele>
        <time>2012-06-13T06:09:37.000Z</time>
      </trkpt>
      <trkpt lat="44.01882" lon="4.73648">
        <ele>124.1</ele>
        <time>2012-06-13T06:09:39.000Z</time>
      </trkpt>
      <trkpt lat="44.0188" lon="4.73641">
        <ele>124.6</ele>
        <time>2012-06-13T06:09:41.000Z</time>
      </trkpt>
      <trkpt lat="44.01876" lon="4.73633">
        <ele>124.9</ele>
        <time>2012-06-13T06:09:43.000Z</time>
      </trkpt>
      <trkpt lat="44.01872" lon="4.73624">
        <ele>124.2</ele>
        <time>2012-06-13T06:09:44.000Z</time>
      </trkpt>
      <trkpt lat="44.01869" lon="4.73617">
        <ele>125</ele>
        <time>2012-06-13T06:09:46.000Z</time>
      </trkpt>
      <trkpt lat="44.01866" lon="4.7361">
        <ele>126.1</ele>
        <time>2012-06-13T06:09:48.000Z</time>
      </trkpt>
      <trkpt lat="44.01863" lon="4.73603">
        <ele>126.2</ele>
        <time>2012-06-13T06:09:50.000Z</time>
      </trkpt>
      <trkpt lat="44.0186" lon="4.73598">
        <ele>127.4</ele>
        <time>2012-06-13T06:09:51.000Z</time>
      </trkpt>
      <trkpt lat="44.01858" lon="4.73592">
        <ele>127.5</ele>
        <time>2012-06-13T06:09:52.000Z</time>
      </trkpt>
      <trkpt lat="44.01854" lon="4.73582">
        <ele>126.7</ele>
        <time>2012-06-13T06:09:54.000Z</time>
      </trkpt>
      <trkpt lat="44.0185" lon="4.73574">
        <ele>126.6</ele>
        <time>2012-06-13T06:09:56.000Z</time>
      </trkpt>
      <trkpt lat="44.01845" lon="4.73566">
        <ele>127.1</ele>
        <time>2012-06-13T06:09:58.000Z</time>
      </trkpt>
      <trkpt lat="44.01842" lon="4.7356">
        <ele>127.1</ele>
        <time>2012-06-13T06:10:00.000Z</time>
      </trkpt>
      <trkpt lat="44.01838" lon="4.73551">
        <ele>126.9</ele>
        <time>2012-06-13T06:10:03.000Z</time>
      </trkpt>
      <trkpt lat="44.01835" lon="4.73543">
        <ele>127.5</ele>
        <time>2012-06-13T06:10:05.000Z</time>
      </trkpt>
      <trkpt lat="44.0183" lon="4.73534">
        <ele>126.8</ele>
        <time>2012-06-13T06:10:06.000Z</time>
      </trkpt>
      <trkpt lat="44.01828" lon="4.73526">
        <ele>126.9</ele>
        <time>2012-06-13T06:10:08.000Z</time>
      </trkpt>
      <trkpt lat="44.01824" lon="4.7352">
        <ele>126.5</ele>
        <time>2012-06-13T06:10:10.000Z</time>
      </trkpt>
      <trkpt lat="44.0182" lon="4.73509">
        <ele>126.4</ele>
        <time>2012-06-13T06:10:12.000Z</time>
      </trkpt>
      <trkpt lat="44.01816" lon="4.73504">
        <ele>126.1</ele>
        <time>2012-06-13T06:10:14.000Z</time>
      </trkpt>
      <trkpt lat="44.01812" lon="4.73498">
        <ele>126.3</ele>
        <time>2012-06-13T06:10:16.000Z</time>
      </trkpt>
      <trkpt lat="44.01809" lon="4.73491">
        <ele>126.6</ele>
        <time>2012-06-13T06:10:18.000Z</time>
      </trkpt>
      <trkpt lat="44.01805" lon="4.73482">
        <ele>127.3</ele>
        <time>2012-06-13T06:10:20.000Z</time>
      </trkpt>
      <trkpt lat="44.01803" lon="4.73476">
        <ele>126.8</ele>
        <time>2012-06-13T06:10:22.000Z</time>
      </trkpt>
      <trkpt lat="44.01798" lon="4.73469">
        <ele>126.8</ele>
        <time>2012-06-13T06:10:25.000Z</time>
      </trkpt>
      <trkpt lat="44.01795" lon="4.73463">
        <ele>126.7</ele>
        <time>2012-06-13T06:10:26.000Z</time>
      </trkpt>
      <trkpt lat="44.01788" lon="4.73451">
        <ele>127.2</ele>
        <time>2012-06-13T06:10:28.000Z</time>
      </trkpt>
      <trkpt lat="44.01784" lon="4.73443">
        <ele>127.1</ele>
        <time>2012-06-13T06:10:30.000Z</time>
      </trkpt>
      <trkpt lat="44.01779" lon="4.73434">
        <ele>125.4</ele>
        <time>2012-06-13T06:10:32.000Z</time>
      </trkpt>
      <trkpt lat="44.01773" lon="4.73425">
        <ele>126</ele>
        <time>2012-06-13T06:10:35.000Z</time>
      </trkpt>
      <trkpt lat="44.01768" lon="4.7342">
        <ele>125.4</ele>
        <time>2012-06-13T06:10:37.000Z</time>
      </trkpt>
      <trkpt lat="44.01764" lon="4.73414">
        <ele>125.7</ele>
        <time>2012-06-13T06:10:39.000Z</time>
      </trkpt>
      <trkpt lat="44.01762" lon="4.73409">
        <ele>125.5</ele>
        <time>2012-06-13T06:10:41.000Z</time>
      </trkpt>
      <trkpt lat="44.01757" lon="4.73404">
        <ele>125.9</ele>
        <time>2012-06-13T06:10:44.000Z</time>
      </trkpt>
      <trkpt lat="44.01753" lon="4.73397">
        <ele>127.3</ele>
        <time>2012-06-13T06:10:46.000Z</time>
      </trkpt>
      <trkpt lat="44.01748" lon="4.7339">
        <ele>127.3</ele>
        <time>2012-06-13T06:10:48.000Z</time>
      </trkpt>
      <trkpt lat="44.01743" lon="4.73382">
        <ele>128.4</ele>
        <time>2012-06-13T06:10:50.000Z</time>
      </trkpt>
      <trkpt lat="44.01738" lon="4.73377">
        <ele>129</ele>
        <time>2012-06-13T06:10:52.000Z</time>
      </trkpt>
      <trkpt lat="44.01734" lon="4.7337">
        <ele>129.1</ele>
        <time>2012-06-13T06:10:54.000Z</time>
      </trkpt>
      <trkpt lat="44.01729" lon="4.73364">
        <ele>129.6</ele>
        <time>2012-06-13T06:10:56.000Z</time>
      </trkpt>
      <trkpt lat="44.01726" lon="4.73358">
        <ele>129.9</ele>
        <time>2012-06-13T06:10:58.000Z</time>
      </trkpt>
      <trkpt lat="44.01722" lon="4.73352">
        <ele>130</ele>
        <time>2012-06-13T06:11:00.000Z</time>
      </trkpt>
      <trkpt lat="44.01719" lon="4.73347">
        <ele>129.6</ele>
        <time>2012-06-13T06:11:01.000Z</time>
      </trkpt>
      <trkpt lat="44.01714" lon="4.7334">
        <ele>130.3</ele>
        <time>2012-06-13T06:11:03.000Z</time>
      </trkpt>
      <trkpt lat="44.01709" lon="4.73333">
        <ele>130.1</ele>
        <time>2012-06-13T06:11:05.000Z</time>
      </trkpt>
      <trkpt lat="44.01707" lon="4.73328">
        <ele>129.9</ele>
        <time>2012-06-13T06:11:06.000Z</time>
      </trkpt>
      <trkpt lat="44.01702" lon="4.73317">
        <ele>129.9</ele>
        <time>2012-06-13T06:11:08.000Z</time>
      </trkpt>
      <trkpt lat="44.01698" lon="4.73313">
        <ele>130</ele>
        <time>2012-06-13T06:11:10.000Z</time>
      </trkpt>
      <trkpt lat="44.01693" lon="4.73305">
        <ele>130.3</ele>
        <time>2012-06-13T06:11:12.000Z</time>
      </trkpt>
      <trkpt lat="44.01688" lon="4.73295">
        <ele>130.4</ele>
        <time>2012-06-13T06:11:14.000Z</time>
      </trkpt>
      <trkpt lat="44.01684" lon="4.73288">
        <ele>130</ele>
        <time>2012-06-13T06:11:15.000Z</time>
      </trkpt>
      <trkpt lat="44.01679" lon="4.73283">
        <ele>130.6</ele>
        <time>2012-06-13T06:11:17.000Z</time>
      </trkpt>
      <trkpt lat="44.01676" lon="4.73278">
        <ele>130.5</ele>
        <time>2012-06-13T06:11:18.000Z</time>
      </trkpt>
      <trkpt lat="44.01671" lon="4.73272">
        <ele>130.1</ele>
        <time>2012-06-13T06:11:20.000Z</time>
      </trkpt>
      <trkpt lat="44.01668" lon="4.73266">
        <ele>129.6</ele>
        <time>2012-06-13T06:11:21.000Z</time>
      </trkpt>
      <trkpt lat="44.01663" lon="4.73258">
        <ele>129.8</ele>
        <time>2012-06-13T06:11:24.000Z</time>
      </trkpt>
      <trkpt lat="44.01659" lon="4.7325">
        <ele>131.5</ele>
        <time>2012-06-13T06:11:27.000Z</time>
      </trkpt>
      <trkpt lat="44.01656" lon="4.73245">
        <ele>130.5</ele>
        <time>2012-06-13T06:11:29.000Z</time>
      </trkpt>
      <trkpt lat="44.01652" lon="4.73237">
        <ele>131</ele>
        <time>2012-06-13T06:11:31.000Z</time>
      </trkpt>
      <trkpt lat="44.01648" lon="4.73231">
        <ele>128.8</ele>
        <time>2012-06-13T06:11:34.000Z</time>
      </trkpt>
      <trkpt lat="44.01645" lon="4.73226">
        <ele>128.8</ele>
        <time>2012-06-13T06:11:36.000Z</time>
      </trkpt>
      <trkpt lat="44.01642" lon="4.73221">
        <ele>128.8</ele>
        <time>2012-06-13T06:11:38.000Z</time>
      </trkpt>
      <trkpt lat="44.01637" lon="4.73218">
        <ele>127.9</ele>
        <time>2012-06-13T06:11:41.000Z</time>
      </trkpt>
      <trkpt lat="44.01632" lon="4.73222">
        <ele>128.5</ele>
        <time>2012-06-13T06:11:44.000Z</time>
      </trkpt>
      <trkpt lat="44.01627" lon="4.73225">
        <ele>125.1</ele>
        <time>2012-06-13T06:11:47.000Z</time>
      </trkpt>
      <trkpt lat="44.0163" lon="4.73219">
        <ele>131.6</ele>
        <time>2012-06-13T06:15:43.000Z</time>
      </trkpt>
      <trkpt lat="44.01632" lon="4.73212">
        <ele>131.4</ele>
        <time>2012-06-13T06:15:45.000Z</time>
      </trkpt>
      <trkpt lat="44.01633" lon="4.73205">
        <ele>130.1</ele>
        <time>2012-06-13T06:15:47.000Z</time>
      </trkpt>
      <trkpt lat="44.01632" lon="4.73198">
        <ele>130</ele>
        <time>2012-06-13T06:15:49.000Z</time>
      </trkpt>
      <trkpt lat="44.0163" lon="4.73192">
        <ele>130.3</ele>
        <time>2012-06-13T06:15:51.000Z</time>
      </trkpt>
      <trkpt lat="44.01626" lon="4.73182">
        <ele>130.6</ele>
        <time>2012-06-13T06:15:56.000Z</time>
      </trkpt>
      <trkpt lat="44.01624" lon="4.73176">
        <ele>130.9</ele>
        <time>2012-06-13T06:15:57.000Z</time>
      </trkpt>
      <trkpt lat="44.01621" lon="4.73169">
        <ele>131.2</ele>
        <time>2012-06-13T06:15:58.000Z</time>
      </trkpt>
      <trkpt lat="44.01619" lon="4.73163">
        <ele>131</ele>
        <time>2012-06-13T06:15:59.000Z</time>
      </trkpt>
      <trkpt lat="44.01616" lon="4.73152">
        <ele>131</ele>
        <time>2012-06-13T06:16:01.000Z</time>
      </trkpt>
      <trkpt lat="44.01611" lon="4.73141">
        <ele>130</ele>
        <time>2012-06-13T06:16:03.000Z</time>
      </trkpt>
      <trkpt lat="44.01609" lon="4.73135">
        <ele>130.5</ele>
        <time>2012-06-13T06:16:04.000Z</time>
      </trkpt>
      <trkpt lat="44.01607" lon="4.73128">
        <ele>130</ele>
        <time>2012-06-13T06:16:05.000Z</time>
      </trkpt>
      <trkpt lat="44.01605" lon="4.73122">
        <ele>130.6</ele>
        <time>2012-06-13T06:16:06.000Z</time>
      </trkpt>
      <trkpt lat="44.01603" lon="4.73116">
        <ele>130.4</ele>
        <time>2012-06-13T06:16:07.000Z</time>
      </trkpt>
      <trkpt lat="44.016" lon="4.73109">
        <ele>130.2</ele>
        <time>2012-06-13T06:16:08.000Z</time>
      </trkpt>
      <trkpt lat="44.01599" lon="4.73103">
        <ele>130.6</ele>
        <time>2012-06-13T06:16:09.000Z</time>
      </trkpt>
      <trkpt lat="44.01597" lon="4.73096">
        <ele>130.7</ele>
        <time>2012-06-13T06:16:10.000Z</time>
      </trkpt>
      <trkpt lat="44.01595" lon="4.7309">
        <ele>130.6</ele>
        <time>2012-06-13T06:16:11.000Z</time>
      </trkpt>
      <trkpt lat="44.01593" lon="4.73083">
        <ele>130.5</ele>
        <time>2012-06-13T06:16:12.000Z</time>
      </trkpt>
      <trkpt lat="44.01591" lon="4.73077">
        <ele>130.5</ele>
        <time>2012-06-13T06:16:13.000Z</time>
      </trkpt>
      <trkpt lat="44.01588" lon="4.7307">
        <ele>130.6</ele>
        <time>2012-06-13T06:16:14.000Z</time>
      </trkpt>
      <trkpt lat="44.01586" lon="4.73063">
        <ele>130.4</ele>
        <time>2012-06-13T06:16:15.000Z</time>
      </trkpt>
      <trkpt lat="44.01584" lon="4.73056">
        <ele>130.4</ele>
        <time>2012-06-13T06:16:16.000Z</time>
      </trkpt>
      <trkpt lat="44.01582" lon="4.73048">
        <ele>130.4</ele>
        <time>2012-06-13T06:16:17.000Z</time>
      </trkpt>
      <trkpt lat="44.01579" lon="4.73042">
        <ele>130.4</ele>
        <time>2012-06-13T06:16:18.000Z</time>
      </trkpt>
      <trkpt lat="44.01577" lon="4.73034">
        <ele>130.3</ele>
        <time>2012-06-13T06:16:19.000Z</time>
      </trkpt>
      <trkpt lat="44.01576" lon="4.73028">
        <ele>130.2</ele>
        <time>2012-06-13T06:16:20.000Z</time>
      </trkpt>
      <trkpt lat="44.01573" lon="4.7302">
        <ele>130</ele>
        <time>2012-06-13T06:16:21.000Z</time>
      </trkpt>
      <trkpt lat="44.01571" lon="4.73013">
        <ele>130.2</ele>
        <time>2012-06-13T06:16:22.000Z</time>
      </trkpt>
      <trkpt lat="44.01569" lon="4.73006">
        <ele>130.2</ele>
        <time>2012-06-13T06:16:23.000Z</time>
      </trkpt>
      <trkpt lat="44.01567" lon="4.72998">
        <ele>130.3</ele>
        <time>2012-06-13T06:16:24.000Z</time>
      </trkpt>
      <trkpt lat="44.01565" lon="4.72991">
        <ele>130.3</ele>
        <time>2012-06-13T06:16:25.000Z</time>
      </trkpt>
      <trkpt lat="44.01563" lon="4.72984">
        <ele>130.3</ele>
        <time>2012-06-13T06:16:26.000Z</time>
      </trkpt>
      <trkpt lat="44.01561" lon="4.72976">
        <ele>130.7</ele>
        <time>2012-06-13T06:16:27.000Z</time>
      </trkpt>
      <trkpt lat="44.01558" lon="4.72968">
        <ele>130.1</ele>
        <time>2012-06-13T06:16:28.000Z</time>
      </trkpt>
      <trkpt lat="44.01556" lon="4.7296">
        <ele>130.1</ele>
        <time>2012-06-13T06:16:29.000Z</time>
      </trkpt>
      <trkpt lat="44.01554" lon="4.72952">
        <ele>129.7</ele>
        <time>2012-06-13T06:16:30.000Z</time>
      </trkpt>
      <trkpt lat="44.01551" lon="4.72945">
        <ele>129.3</ele>
        <time>2012-06-13T06:16:31.000Z</time>
      </trkpt>
      <trkpt lat="44.01549" lon="4.72937">
        <ele>129.2</ele>
        <time>2012-06-13T06:16:32.000Z</time>
      </trkpt>
      <trkpt lat="44.01546" lon="4.7293">
        <ele>129.3</ele>
        <time>2012-06-13T06:16:33.000Z</time>
      </trkpt>
      <trkpt lat="44.01544" lon="4.72923">
        <ele>128.8</ele>
        <time>2012-06-13T06:16:34.000Z</time>
      </trkpt>
      <trkpt lat="44.01542" lon="4.72914">
        <ele>129.1</ele>
        <time>2012-06-13T06:16:35.000Z</time>
      </trkpt>
      <trkpt lat="44.01539" lon="4.72906">
        <ele>128.8</ele>
        <time>2012-06-13T06:16:36.000Z</time>
      </trkpt>
      <trkpt lat="44.01537" lon="4.72899">
        <ele>129.3</ele>
        <time>2012-06-13T06:16:37.000Z</time>
      </trkpt>
      <trkpt lat="44.01536" lon="4.72891">
        <ele>129.4</ele>
        <time>2012-06-13T06:16:38.000Z</time>
      </trkpt>
      <trkpt lat="44.01533" lon="4.72884">
        <ele>129.5</ele>
        <time>2012-06-13T06:16:39.000Z</time>
      </trkpt>
      <trkpt lat="44.01531" lon="4.72877">
        <ele>129.1</ele>
        <time>2012-06-13T06:16:40.000Z</time>
      </trkpt>
      <trkpt lat="44.01528" lon="4.72869">
        <ele>129</ele>
        <time>2012-06-13T06:16:41.000Z</time>
      </trkpt>
      <trkpt lat="44.01525" lon="4.72861">
        <ele>129</ele>
        <time>2012-06-13T06:16:42.000Z</time>
      </trkpt>
      <trkpt lat="44.01523" lon="4.72853">
        <ele>129.3</ele>
        <time>2012-06-13T06:16:43.000Z</time>
      </trkpt>
      <trkpt lat="44.0152" lon="4.72847">
        <ele>129.6</ele>
        <time>2012-06-13T06:16:44.000Z</time>
      </trkpt>
      <trkpt lat="44.01518" lon="4.7284">
        <ele>129.3</ele>
        <time>2012-06-13T06:16:45.000Z</time>
      </trkpt>
      <trkpt lat="44.01515" lon="4.72832">
        <ele>129.4</ele>
        <time>2012-06-13T06:16:46.000Z</time>
      </trkpt>
      <trkpt lat="44.01513" lon="4.72825">
        <ele>129.1</ele>
        <time>2012-06-13T06:16:47.000Z</time>
      </trkpt>
      <trkpt lat="44.01511" lon="4.72818">
        <ele>129</ele>
        <time>2012-06-13T06:16:48.000Z</time>
      </trkpt>
      <trkpt lat="44.01508" lon="4.7281">
        <ele>128.9</ele>
        <time>2012-06-13T06:16:49.000Z</time>
      </trkpt>
      <trkpt lat="44.01507" lon="4.72802">
        <ele>128.4</ele>
        <time>2012-06-13T06:16:50.000Z</time>
      </trkpt>
      <trkpt lat="44.01504" lon="4.72794">
        <ele>127.9</ele>
        <time>2012-06-13T06:16:51.000Z</time>
      </trkpt>
      <trkpt lat="44.01502" lon="4.72787">
        <ele>127.1</ele>
        <time>2012-06-13T06:16:52.000Z</time>
      </trkpt>
      <trkpt lat="44.015" lon="4.7278">
        <ele>127.3</ele>
        <time>2012-06-13T06:16:53.000Z</time>
      </trkpt>
      <trkpt lat="44.01497" lon="4.72773">
        <ele>127.2</ele>
        <time>2012-06-13T06:16:54.000Z</time>
      </trkpt>
      <trkpt lat="44.01495" lon="4.72766">
        <ele>127.3</ele>
        <time>2012-06-13T06:16:55.000Z</time>
      </trkpt>
      <trkpt lat="44.01492" lon="4.72759">
        <ele>127.5</ele>
        <time>2012-06-13T06:16:56.000Z</time>
      </trkpt>
      <trkpt lat="44.0149" lon="4.72751">
        <ele>127.9</ele>
        <time>2012-06-13T06:16:57.000Z</time>
      </trkpt>
      <trkpt lat="44.01487" lon="4.72744">
        <ele>128.3</ele>
        <time>2012-06-13T06:16:58.000Z</time>
      </trkpt>
      <trkpt lat="44.01485" lon="4.72737">
        <ele>128.2</ele>
        <time>2012-06-13T06:16:59.000Z</time>
      </trkpt>
      <trkpt lat="44.01483" lon="4.72729">
        <ele>127.9</ele>
        <time>2012-06-13T06:17:00.000Z</time>
      </trkpt>
      <trkpt lat="44.0148" lon="4.72721">
        <ele>128.1</ele>
        <time>2012-06-13T06:17:01.000Z</time>
      </trkpt>
      <trkpt lat="44.01478" lon="4.72714">
        <ele>128.7</ele>
        <time>2012-06-13T06:17:02.000Z</time>
      </trkpt>
      <trkpt lat="44.01476" lon="4.72707">
        <ele>128.7</ele>
        <time>2012-06-13T06:17:03.000Z</time>
      </trkpt>
      <trkpt lat="44.01474" lon="4.727">
        <ele>128.7</ele>
        <time>2012-06-13T06:17:04.000Z</time>
      </trkpt>
      <trkpt lat="44.01472" lon="4.72694">
        <ele>128.8</ele>
        <time>2012-06-13T06:17:05.000Z</time>
      </trkpt>
      <trkpt lat="44.01469" lon="4.72687">
        <ele>129.1</ele>
        <time>2012-06-13T06:17:06.000Z</time>
      </trkpt>
      <trkpt lat="44.01466" lon="4.7268">
        <ele>129.6</ele>
        <time>2012-06-13T06:17:07.000Z</time>
      </trkpt>
      <trkpt lat="44.01463" lon="4.72675">
        <ele>129.9</ele>
        <time>2012-06-13T06:17:08.000Z</time>
      </trkpt>
      <trkpt lat="44.01461" lon="4.72668">
        <ele>130.3</ele>
        <time>2012-06-13T06:17:09.000Z</time>
      </trkpt>
      <trkpt lat="44.01459" lon="4.72661">
        <ele>130.5</ele>
        <time>2012-06-13T06:17:10.000Z</time>
      </trkpt>
      <trkpt lat="44.01457" lon="4.72655">
        <ele>130.6</ele>
        <time>2012-06-13T06:17:11.000Z</time>
      </trkpt>
      <trkpt lat="44.01453" lon="4.72648">
        <ele>130.1</ele>
        <time>2012-06-13T06:17:12.000Z</time>
      </trkpt>
      <trkpt lat="44.01451" lon="4.72642">
        <ele>130.6</ele>
        <time>2012-06-13T06:17:13.000Z</time>
      </trkpt>
      <trkpt lat="44.01448" lon="4.72635">
        <ele>130.4</ele>
        <time>2012-06-13T06:17:14.000Z</time>
      </trkpt>
      <trkpt lat="44.01446" lon="4.72629">
        <ele>130.6</ele>
        <time>2012-06-13T06:17:15.000Z</time>
      </trkpt>
      <trkpt lat="44.01443" lon="4.72622">
        <ele>130.7</ele>
        <time>2012-06-13T06:17:16.000Z</time>
      </trkpt>
      <trkpt lat="44.0144" lon="4.72616">
        <ele>131.4</ele>
        <time>2012-06-13T06:17:17.000Z</time>
      </trkpt>
      <trkpt lat="44.01436" lon="4.72609">
        <ele>131.5</ele>
        <time>2012-06-13T06:17:18.000Z</time>
      </trkpt>
      <trkpt lat="44.01433" lon="4.72603">
        <ele>131.8</ele>
        <time>2012-06-13T06:17:19.000Z</time>
      </trkpt>
      <trkpt lat="44.01428" lon="4.72598">
        <ele>131.7</ele>
        <time>2012-06-13T06:17:20.000Z</time>
      </trkpt>
      <trkpt lat="44.01423" lon="4.72593">
        <ele>131.5</ele>
        <time>2012-06-13T06:17:21.000Z</time>
      </trkpt>
      <trkpt lat="44.0142" lon="4.72586">
        <ele>130.8</ele>
        <time>2012-06-13T06:17:22.000Z</time>
      </trkpt>
      <trkpt lat="44.01417" lon="4.7258">
        <ele>128.8</ele>
        <time>2012-06-13T06:17:23.000Z</time>
      </trkpt>
      <trkpt lat="44.01413" lon="4.72574">
        <ele>128.9</ele>
        <time>2012-06-13T06:17:24.000Z</time>
      </trkpt>
      <trkpt lat="44.0141" lon="4.72569">
        <ele>128.6</ele>
        <time>2012-06-13T06:17:25.000Z</time>
      </trkpt>
      <trkpt lat="44.01406" lon="4.72564">
        <ele>129.1</ele>
        <time>2012-06-13T06:17:26.000Z</time>
      </trkpt>
      <trkpt lat="44.01403" lon="4.72559">
        <ele>129.2</ele>
        <time>2012-06-13T06:17:27.000Z</time>
      </trkpt>
      <trkpt lat="44.01399" lon="4.72554">
        <ele>129.3</ele>
        <time>2012-06-13T06:17:28.000Z</time>
      </trkpt>
      <trkpt lat="44.01395" lon="4.72548">
        <ele>129.3</ele>
        <time>2012-06-13T06:17:29.000Z</time>
      </trkpt>
      <trkpt lat="44.01389" lon="4.72542">
        <ele>130.4</ele>
        <time>2012-06-13T06:17:31.000Z</time>
      </trkpt>
      <trkpt lat="44.01383" lon="4.72534">
        <ele>129.8</ele>
        <time>2012-06-13T06:17:33.000Z</time>
      </trkpt>
      <trkpt lat="44.01376" lon="4.72527">
        <ele>130.8</ele>
        <time>2012-06-13T06:17:35.000Z</time>
      </trkpt>
      <trkpt lat="44.01372" lon="4.72522">
        <ele>130.6</ele>
        <time>2012-06-13T06:17:36.000Z</time>
      </trkpt>
      <trkpt lat="44.01365" lon="4.72516">
        <ele>131</ele>
        <time>2012-06-13T06:17:38.000Z</time>
      </trkpt>
      <trkpt lat="44.01358" lon="4.72508">
        <ele>131.3</ele>
        <time>2012-06-13T06:17:40.000Z</time>
      </trkpt>
      <trkpt lat="44.01351" lon="4.72501">
        <ele>131.7</ele>
        <time>2012-06-13T06:17:42.000Z</time>
      </trkpt>
      <trkpt lat="44.01345" lon="4.72493">
        <ele>131.1</ele>
        <time>2012-06-13T06:17:44.000Z</time>
      </trkpt>
      <trkpt lat="44.01338" lon="4.72486">
        <ele>131.6</ele>
        <time>2012-06-13T06:17:46.000Z</time>
      </trkpt>
      <trkpt lat="44.01331" lon="4.72477">
        <ele>131.6</ele>
        <time>2012-06-13T06:17:48.000Z</time>
      </trkpt>
      <trkpt lat="44.01324" lon="4.7247">
        <ele>131.4</ele>
        <time>2012-06-13T06:17:50.000Z</time>
      </trkpt>
      <trkpt lat="44.01318" lon="4.72462">
        <ele>131.6</ele>
        <time>2012-06-13T06:17:52.000Z</time>
      </trkpt>
      <trkpt lat="44.01311" lon="4.72454">
        <ele>131.2</ele>
        <time>2012-06-13T06:17:54.000Z</time>
      </trkpt>
      <trkpt lat="44.01307" lon="4.7245">
        <ele>131.2</ele>
        <time>2012-06-13T06:17:55.000Z</time>
      </trkpt>
      <trkpt lat="44.01302" lon="4.72444">
        <ele>130.8</ele>
        <time>2012-06-13T06:17:57.000Z</time>
      </trkpt>
      <trkpt lat="44.01296" lon="4.72437">
        <ele>130.6</ele>
        <time>2012-06-13T06:17:59.000Z</time>
      </trkpt>
      <trkpt lat="44.01288" lon="4.72429">
        <ele>130.9</ele>
        <time>2012-06-13T06:18:01.000Z</time>
      </trkpt>
      <trkpt lat="44.0128" lon="4.72421">
        <ele>131.3</ele>
        <time>2012-06-13T06:18:03.000Z</time>
      </trkpt>
      <trkpt lat="44.01277" lon="4.72417">
        <ele>131.2</ele>
        <time>2012-06-13T06:18:04.000Z</time>
      </trkpt>
      <trkpt lat="44.01273" lon="4.72413">
        <ele>130.8</ele>
        <time>2012-06-13T06:18:05.000Z</time>
      </trkpt>
      <trkpt lat="44.01269" lon="4.72409">
        <ele>130.5</ele>
        <time>2012-06-13T06:18:06.000Z</time>
      </trkpt>
      <trkpt lat="44.01263" lon="4.72402">
        <ele>130.2</ele>
        <time>2012-06-13T06:18:08.000Z</time>
      </trkpt>
      <trkpt lat="44.0126" lon="4.72398">
        <ele>130.5</ele>
        <time>2012-06-13T06:18:09.000Z</time>
      </trkpt>
      <trkpt lat="44.01256" lon="4.72394">
        <ele>130.2</ele>
        <time>2012-06-13T06:18:10.000Z</time>
      </trkpt>
      <trkpt lat="44.01252" lon="4.7239">
        <ele>130.3</ele>
        <time>2012-06-13T06:18:11.000Z</time>
      </trkpt>
      <trkpt lat="44.01248" lon="4.72386">
        <ele>130.5</ele>
        <time>2012-06-13T06:18:12.000Z</time>
      </trkpt>
      <trkpt lat="44.0124" lon="4.7238">
        <ele>130.5</ele>
        <time>2012-06-13T06:18:14.000Z</time>
      </trkpt>
      <trkpt lat="44.01236" lon="4.72375">
        <ele>130.7</ele>
        <time>2012-06-13T06:18:15.000Z</time>
      </trkpt>
      <trkpt lat="44.01229" lon="4.72368">
        <ele>131</ele>
        <time>2012-06-13T06:18:17.000Z</time>
      </trkpt>
      <trkpt lat="44.01224" lon="4.72365">
        <ele>131.1</ele>
        <time>2012-06-13T06:18:18.000Z</time>
      </trkpt>
      <trkpt lat="44.0122" lon="4.72361">
        <ele>131.4</ele>
        <time>2012-06-13T06:18:19.000Z</time>
      </trkpt>
      <trkpt lat="44.01214" lon="4.72353">
        <ele>131.2</ele>
        <time>2012-06-13T06:18:21.000Z</time>
      </trkpt>
      <trkpt lat="44.01207" lon="4.72346">
        <ele>131.5</ele>
        <time>2012-06-13T06:18:23.000Z</time>
      </trkpt>
      <trkpt lat="44.01202" lon="4.72343">
        <ele>131.5</ele>
        <time>2012-06-13T06:18:24.000Z</time>
      </trkpt>
      <trkpt lat="44.01198" lon="4.7234">
        <ele>131.5</ele>
        <time>2012-06-13T06:18:25.000Z</time>
      </trkpt>
      <trkpt lat="44.01193" lon="4.72337">
        <ele>131.5</ele>
        <time>2012-06-13T06:18:26.000Z</time>
      </trkpt>
      <trkpt lat="44.01189" lon="4.72334">
        <ele>131.6</ele>
        <time>2012-06-13T06:18:27.000Z</time>
      </trkpt>
      <trkpt lat="44.01185" lon="4.72329">
        <ele>131.8</ele>
        <time>2012-06-13T06:18:28.000Z</time>
      </trkpt>
      <trkpt lat="44.01177" lon="4.72322">
        <ele>131.8</ele>
        <time>2012-06-13T06:18:30.000Z</time>
      </trkpt>
      <trkpt lat="44.01171" lon="4.7232">
        <ele>131.8</ele>
        <time>2012-06-13T06:18:31.000Z</time>
      </trkpt>
      <trkpt lat="44.01166" lon="4.72317">
        <ele>131.1</ele>
        <time>2012-06-13T06:18:32.000Z</time>
      </trkpt>
      <trkpt lat="44.01162" lon="4.72315">
        <ele>131</ele>
        <time>2012-06-13T06:18:33.000Z</time>
      </trkpt>
      <trkpt lat="44.01152" lon="4.7231">
        <ele>131.2</ele>
        <time>2012-06-13T06:18:35.000Z</time>
      </trkpt>
      <trkpt lat="44.01147" lon="4.72307">
        <ele>130.8</ele>
        <time>2012-06-13T06:18:36.000Z</time>
      </trkpt>
      <trkpt lat="44.01142" lon="4.72303">
        <ele>130</ele>
        <time>2012-06-13T06:18:37.000Z</time>
      </trkpt>
      <trkpt lat="44.01137" lon="4.72298">
        <ele>130.2</ele>
        <time>2012-06-13T06:18:38.000Z</time>
      </trkpt>
      <trkpt lat="44.01132" lon="4.72295">
        <ele>130.3</ele>
        <time>2012-06-13T06:18:39.000Z</time>
      </trkpt>
      <trkpt lat="44.01126" lon="4.72293">
        <ele>130</ele>
        <time>2012-06-13T06:18:40.000Z</time>
      </trkpt>
      <trkpt lat="44.0112" lon="4.72291">
        <ele>130.3</ele>
        <time>2012-06-13T06:18:41.000Z</time>
      </trkpt>
      <trkpt lat="44.01114" lon="4.72289">
        <ele>130.5</ele>
        <time>2012-06-13T06:18:42.000Z</time>
      </trkpt>
      <trkpt lat="44.01108" lon="4.72287">
        <ele>129.7</ele>
        <time>2012-06-13T06:18:43.000Z</time>
      </trkpt>
      <trkpt lat="44.01102" lon="4.72285">
        <ele>129.3</ele>
        <time>2012-06-13T06:18:44.000Z</time>
      </trkpt>
      <trkpt lat="44.01096" lon="4.72282">
        <ele>129.3</ele>
        <time>2012-06-13T06:18:45.000Z</time>
      </trkpt>
      <trkpt lat="44.0109" lon="4.72279">
        <ele>129.1</ele>
        <time>2012-06-13T06:18:46.000Z</time>
      </trkpt>
      <trkpt lat="44.01086" lon="4.72278">
        <ele>129.9</ele>
        <time>2012-06-13T06:18:47.000Z</time>
      </trkpt>
      <trkpt lat="44.0108" lon="4.72277">
        <ele>130.2</ele>
        <time>2012-06-13T06:18:48.000Z</time>
      </trkpt>
      <trkpt lat="44.01075" lon="4.72274">
        <ele>130.2</ele>
        <time>2012-06-13T06:18:49.000Z</time>
      </trkpt>
      <trkpt lat="44.01069" lon="4.72273">
        <ele>130.1</ele>
        <time>2012-06-13T06:18:50.000Z</time>
      </trkpt>
      <trkpt lat="44.01062" lon="4.72268">
        <ele>129.9</ele>
        <time>2012-06-13T06:18:51.000Z</time>
      </trkpt>
      <trkpt lat="44.01057" lon="4.72266">
        <ele>129.9</ele>
        <time>2012-06-13T06:18:52.000Z</time>
      </trkpt>
      <trkpt lat="44.01051" lon="4.72262">
        <ele>129.4</ele>
        <time>2012-06-13T06:18:53.000Z</time>
      </trkpt>
      <trkpt lat="44.01045" lon="4.72258">
        <ele>129.1</ele>
        <time>2012-06-13T06:18:54.000Z</time>
      </trkpt>
      <trkpt lat="44.01039" lon="4.72254">
        <ele>128.5</ele>
        <time>2012-06-13T06:18:55.000Z</time>
      </trkpt>
      <trkpt lat="44.01034" lon="4.72253">
        <ele>128.7</ele>
        <time>2012-06-13T06:18:56.000Z</time>
      </trkpt>
      <trkpt lat="44.01029" lon="4.72251">
        <ele>127.8</ele>
        <time>2012-06-13T06:18:57.000Z</time>
      </trkpt>
      <trkpt lat="44.01023" lon="4.72248">
        <ele>127.7</ele>
        <time>2012-06-13T06:18:58.000Z</time>
      </trkpt>
      <trkpt lat="44.01017" lon="4.72243">
        <ele>128.1</ele>
        <time>2012-06-13T06:18:59.000Z</time>
      </trkpt>
      <trkpt lat="44.01011" lon="4.72237">
        <ele>128.4</ele>
        <time>2012-06-13T06:19:00.000Z</time>
      </trkpt>
      <trkpt lat="44.01006" lon="4.72233">
        <ele>129.1</ele>
        <time>2012-06-13T06:19:01.000Z</time>
      </trkpt>
      <trkpt lat="44.01001" lon="4.72229">
        <ele>129</ele>
        <time>2012-06-13T06:19:02.000Z</time>
      </trkpt>
      <trkpt lat="44.00996" lon="4.72225">
        <ele>128.6</ele>
        <time>2012-06-13T06:19:03.000Z</time>
      </trkpt>
      <trkpt lat="44.00992" lon="4.7222">
        <ele>128.8</ele>
        <time>2012-06-13T06:19:04.000Z</time>
      </trkpt>
      <trkpt lat="44.0099" lon="4.72214">
        <ele>128.5</ele>
        <time>2012-06-13T06:19:05.000Z</time>
      </trkpt>
      <trkpt lat="44.00986" lon="4.72208">
        <ele>128.7</ele>
        <time>2012-06-13T06:19:06.000Z</time>
      </trkpt>
      <trkpt lat="44.00984" lon="4.722">
        <ele>128.4</ele>
        <time>2012-06-13T06:19:07.000Z</time>
      </trkpt>
      <trkpt lat="44.00983" lon="4.72194">
        <ele>128.3</ele>
        <time>2012-06-13T06:19:08.000Z</time>
      </trkpt>
      <trkpt lat="44.00981" lon="4.72187">
        <ele>128.2</ele>
        <time>2012-06-13T06:19:09.000Z</time>
      </trkpt>
      <trkpt lat="44.00979" lon="4.7218">
        <ele>128</ele>
        <time>2012-06-13T06:19:10.000Z</time>
      </trkpt>
      <trkpt lat="44.00978" lon="4.72172">
        <ele>128</ele>
        <time>2012-06-13T06:19:11.000Z</time>
      </trkpt>
      <trkpt lat="44.00976" lon="4.72165">
        <ele>127.7</ele>
        <time>2012-06-13T06:19:12.000Z</time>
      </trkpt>
      <trkpt lat="44.00974" lon="4.72157">
        <ele>127.3</ele>
        <time>2012-06-13T06:19:13.000Z</time>
      </trkpt>
      <trkpt lat="44.00973" lon="4.7215">
        <ele>127.6</ele>
        <time>2012-06-13T06:19:14.000Z</time>
      </trkpt>
      <trkpt lat="44.00972" lon="4.72143">
        <ele>127.4</ele>
        <time>2012-06-13T06:19:15.000Z</time>
      </trkpt>
      <trkpt lat="44.0097" lon="4.72136">
        <ele>127.7</ele>
        <time>2012-06-13T06:19:16.000Z</time>
      </trkpt>
      <trkpt lat="44.00969" lon="4.72128">
        <ele>127.6</ele>
        <time>2012-06-13T06:19:17.000Z</time>
      </trkpt>
      <trkpt lat="44.00969" lon="4.72121">
        <ele>127.8</ele>
        <time>2012-06-13T06:19:18.000Z</time>
      </trkpt>
      <trkpt lat="44.00967" lon="4.72115">
        <ele>127.5</ele>
        <time>2012-06-13T06:19:19.000Z</time>
      </trkpt>
      <trkpt lat="44.00965" lon="4.72104">
        <ele>127.5</ele>
        <time>2012-06-13T06:19:21.000Z</time>
      </trkpt>
      <trkpt lat="44.00963" lon="4.72092">
        <ele>127.6</ele>
        <time>2012-06-13T06:19:23.000Z</time>
      </trkpt>
      <trkpt lat="44.00962" lon="4.72086">
        <ele>127.6</ele>
        <time>2012-06-13T06:19:24.000Z</time>
      </trkpt>
      <trkpt lat="44.0096" lon="4.72074">
        <ele>127.9</ele>
        <time>2012-06-13T06:19:26.000Z</time>
      </trkpt>
      <trkpt lat="44.00959" lon="4.72067">
        <ele>128</ele>
        <time>2012-06-13T06:19:27.000Z</time>
      </trkpt>
      <trkpt lat="44.00958" lon="4.7206">
        <ele>128</ele>
        <time>2012-06-13T06:19:28.000Z</time>
      </trkpt>
      <trkpt lat="44.00957" lon="4.72052">
        <ele>127.9</ele>
        <time>2012-06-13T06:19:29.000Z</time>
      </trkpt>
      <trkpt lat="44.00955" lon="4.7204">
        <ele>128.1</ele>
        <time>2012-06-13T06:19:31.000Z</time>
      </trkpt>
      <trkpt lat="44.00954" lon="4.7203">
        <ele>128.6</ele>
        <time>2012-06-13T06:19:33.000Z</time>
      </trkpt>
      <trkpt lat="44.00951" lon="4.7202">
        <ele>128.5</ele>
        <time>2012-06-13T06:19:35.000Z</time>
      </trkpt>
      <trkpt lat="44.00949" lon="4.72009">
        <ele>129.2</ele>
        <time>2012-06-13T06:19:37.000Z</time>
      </trkpt>
      <trkpt lat="44.00949" lon="4.71999">
        <ele>129.2</ele>
        <time>2012-06-13T06:19:39.000Z</time>
      </trkpt>
      <trkpt lat="44.00948" lon="4.71992">
        <ele>129.3</ele>
        <time>2012-06-13T06:19:40.000Z</time>
      </trkpt>
      <trkpt lat="44.00947" lon="4.7198">
        <ele>129</ele>
        <time>2012-06-13T06:19:42.000Z</time>
      </trkpt>
      <trkpt lat="44.00946" lon="4.7197">
        <ele>128.7</ele>
        <time>2012-06-13T06:19:44.000Z</time>
      </trkpt>
      <trkpt lat="44.00946" lon="4.71957">
        <ele>128.6</ele>
        <time>2012-06-13T06:19:46.000Z</time>
      </trkpt>
      <trkpt lat="44.00949" lon="4.71947">
        <ele>128.7</ele>
        <time>2012-06-13T06:19:48.000Z</time>
      </trkpt>
      <trkpt lat="44.00952" lon="4.71941">
        <ele>127.7</ele>
        <time>2012-06-13T06:19:50.000Z</time>
      </trkpt>
      <trkpt lat="44.00954" lon="4.71934">
        <ele>126.8</ele>
        <time>2012-06-13T06:19:52.000Z</time>
      </trkpt>
      <trkpt lat="44.00955" lon="4.71922">
        <ele>126</ele>
        <time>2012-06-13T06:19:54.000Z</time>
      </trkpt>
      <trkpt lat="44.00954" lon="4.71914">
        <ele>125.6</ele>
        <time>2012-06-13T06:19:55.000Z</time>
      </trkpt>
      <trkpt lat="44.00954" lon="4.71907">
        <ele>125.4</ele>
        <time>2012-06-13T06:19:56.000Z</time>
      </trkpt>
      <trkpt lat="44.00954" lon="4.719">
        <ele>125.6</ele>
        <time>2012-06-13T06:19:57.000Z</time>
      </trkpt>
      <trkpt lat="44.00956" lon="4.71893">
        <ele>125.3</ele>
        <time>2012-06-13T06:19:58.000Z</time>
      </trkpt>
      <trkpt lat="44.00959" lon="4.7188">
        <ele>124.9</ele>
        <time>2012-06-13T06:20:00.000Z</time>
      </trkpt>
      <trkpt lat="44.00959" lon="4.71872">
        <ele>124.2</ele>
        <time>2012-06-13T06:20:01.000Z</time>
      </trkpt>
      <trkpt lat="44.0096" lon="4.71859">
        <ele>124.2</ele>
        <time>2012-06-13T06:20:03.000Z</time>
      </trkpt>
      <trkpt lat="44.0096" lon="4.71852">
        <ele>124.5</ele>
        <time>2012-06-13T06:20:04.000Z</time>
      </trkpt>
      <trkpt lat="44.00961" lon="4.71846">
        <ele>123.9</ele>
        <time>2012-06-13T06:20:05.000Z</time>
      </trkpt>
      <trkpt lat="44.00962" lon="4.71839">
        <ele>123.8</ele>
        <time>2012-06-13T06:20:06.000Z</time>
      </trkpt>
      <trkpt lat="44.00962" lon="4.71833">
        <ele>124</ele>
        <time>2012-06-13T06:20:07.000Z</time>
      </trkpt>
      <trkpt lat="44.00962" lon="4.7182">
        <ele>124</ele>
        <time>2012-06-13T06:20:09.000Z</time>
      </trkpt>
      <trkpt lat="44.00962" lon="4.71813">
        <ele>124.5</ele>
        <time>2012-06-13T06:20:10.000Z</time>
      </trkpt>
      <trkpt lat="44.00962" lon="4.71806">
        <ele>124.6</ele>
        <time>2012-06-13T06:20:11.000Z</time>
      </trkpt>
      <trkpt lat="44.00963" lon="4.718">
        <ele>124.9</ele>
        <time>2012-06-13T06:20:12.000Z</time>
      </trkpt>
      <trkpt lat="44.00964" lon="4.71789">
        <ele>124.7</ele>
        <time>2012-06-13T06:20:14.000Z</time>
      </trkpt>
      <trkpt lat="44.00966" lon="4.71778">
        <ele>125</ele>
        <time>2012-06-13T06:20:16.000Z</time>
      </trkpt>
      <trkpt lat="44.00966" lon="4.71772">
        <ele>124.4</ele>
        <time>2012-06-13T06:20:17.000Z</time>
      </trkpt>
      <trkpt lat="44.00966" lon="4.71765">
        <ele>124.7</ele>
        <time>2012-06-13T06:20:18.000Z</time>
      </trkpt>
      <trkpt lat="44.00966" lon="4.71753">
        <ele>125.3</ele>
        <time>2012-06-13T06:20:20.000Z</time>
      </trkpt>
      <trkpt lat="44.00966" lon="4.7174">
        <ele>125.3</ele>
        <time>2012-06-13T06:20:22.000Z</time>
      </trkpt>
      <trkpt lat="44.00966" lon="4.71729">
        <ele>125.4</ele>
        <time>2012-06-13T06:20:24.000Z</time>
      </trkpt>
      <trkpt lat="44.00967" lon="4.71722">
        <ele>125.7</ele>
        <time>2012-06-13T06:20:25.000Z</time>
      </trkpt>
      <trkpt lat="44.0097" lon="4.71711">
        <ele>126.1</ele>
        <time>2012-06-13T06:20:27.000Z</time>
      </trkpt>
      <trkpt lat="44.00971" lon="4.71699">
        <ele>126.1</ele>
        <time>2012-06-13T06:20:29.000Z</time>
      </trkpt>
      <trkpt lat="44.00973" lon="4.71687">
        <ele>126.6</ele>
        <time>2012-06-13T06:20:31.000Z</time>
      </trkpt>
      <trkpt lat="44.00973" lon="4.7168">
        <ele>126.7</ele>
        <time>2012-06-13T06:20:32.000Z</time>
      </trkpt>
      <trkpt lat="44.00975" lon="4.71669">
        <ele>127</ele>
        <time>2012-06-13T06:20:34.000Z</time>
      </trkpt>
      <trkpt lat="44.00977" lon="4.71661">
        <ele>128.1</ele>
        <time>2012-06-13T06:20:36.000Z</time>
      </trkpt>
      <trkpt lat="44.00978" lon="4.71649">
        <ele>127.8</ele>
        <time>2012-06-13T06:20:38.000Z</time>
      </trkpt>
      <trkpt lat="44.00979" lon="4.71637">
        <ele>127.4</ele>
        <time>2012-06-13T06:20:40.000Z</time>
      </trkpt>
      <trkpt lat="44.0098" lon="4.7163">
        <ele>126.8</ele>
        <time>2012-06-13T06:20:41.000Z</time>
      </trkpt>
      <trkpt lat="44.00982" lon="4.71619">
        <ele>126</ele>
        <time>2012-06-13T06:20:43.000Z</time>
      </trkpt>
      <trkpt lat="44.00984" lon="4.71607">
        <ele>126.3</ele>
        <time>2012-06-13T06:20:45.000Z</time>
      </trkpt>
      <trkpt lat="44.00985" lon="4.71594">
        <ele>127.1</ele>
        <time>2012-06-13T06:20:47.000Z</time>
      </trkpt>
      <trkpt lat="44.00985" lon="4.71588">
        <ele>127.3</ele>
        <time>2012-06-13T06:20:48.000Z</time>
      </trkpt>
      <trkpt lat="44.00986" lon="4.71575">
        <ele>128.4</ele>
        <time>2012-06-13T06:20:50.000Z</time>
      </trkpt>
      <trkpt lat="44.00987" lon="4.71565">
        <ele>128.3</ele>
        <time>2012-06-13T06:20:52.000Z</time>
      </trkpt>
      <trkpt lat="44.00988" lon="4.71559">
        <ele>129.2</ele>
        <time>2012-06-13T06:20:53.000Z</time>
      </trkpt>
      <trkpt lat="44.00989" lon="4.71552">
        <ele>128.6</ele>
        <time>2012-06-13T06:20:54.000Z</time>
      </trkpt>
      <trkpt lat="44.00991" lon="4.71539">
        <ele>128.5</ele>
        <time>2012-06-13T06:20:56.000Z</time>
      </trkpt>
      <trkpt lat="44.00991" lon="4.71528">
        <ele>128.7</ele>
        <time>2012-06-13T06:20:58.000Z</time>
      </trkpt>
      <trkpt lat="44.00993" lon="4.71516">
        <ele>128.9</ele>
        <time>2012-06-13T06:21:00.000Z</time>
      </trkpt>
      <trkpt lat="44.00993" lon="4.7151">
        <ele>128.9</ele>
        <time>2012-06-13T06:21:01.000Z</time>
      </trkpt>
      <trkpt lat="44.00994" lon="4.71499">
        <ele>128.4</ele>
        <time>2012-06-13T06:21:03.000Z</time>
      </trkpt>
      <trkpt lat="44.00995" lon="4.71492">
        <ele>128.3</ele>
        <time>2012-06-13T06:21:04.000Z</time>
      </trkpt>
      <trkpt lat="44.00996" lon="4.71484">
        <ele>129.1</ele>
        <time>2012-06-13T06:21:05.000Z</time>
      </trkpt>
      <trkpt lat="44.00998" lon="4.71479">
        <ele>129.4</ele>
        <time>2012-06-13T06:21:06.000Z</time>
      </trkpt>
      <trkpt lat="44.00999" lon="4.71472">
        <ele>129.6</ele>
        <time>2012-06-13T06:21:07.000Z</time>
      </trkpt>
      <trkpt lat="44.00999" lon="4.71465">
        <ele>129.9</ele>
        <time>2012-06-13T06:21:08.000Z</time>
      </trkpt>
      <trkpt lat="44.01" lon="4.71456">
        <ele>130.3</ele>
        <time>2012-06-13T06:21:10.000Z</time>
      </trkpt>
      <trkpt lat="44.01001" lon="4.71444">
        <ele>130.4</ele>
        <time>2012-06-13T06:21:12.000Z</time>
      </trkpt>
      <trkpt lat="44.01001" lon="4.71432">
        <ele>130.7</ele>
        <time>2012-06-13T06:21:14.000Z</time>
      </trkpt>
      <trkpt lat="44.01003" lon="4.71417">
        <ele>130</ele>
        <time>2012-06-13T06:21:16.000Z</time>
      </trkpt>
      <trkpt lat="44.01004" lon="4.71411">
        <ele>130.1</ele>
        <time>2012-06-13T06:21:17.000Z</time>
      </trkpt>
      <trkpt lat="44.01005" lon="4.71405">
        <ele>130.3</ele>
        <time>2012-06-13T06:21:18.000Z</time>
      </trkpt>
      <trkpt lat="44.01005" lon="4.71398">
        <ele>130.6</ele>
        <time>2012-06-13T06:21:19.000Z</time>
      </trkpt>
      <trkpt lat="44.01005" lon="4.71386">
        <ele>130.1</ele>
        <time>2012-06-13T06:21:21.000Z</time>
      </trkpt>
      <trkpt lat="44.01006" lon="4.7138">
        <ele>129.9</ele>
        <time>2012-06-13T06:21:22.000Z</time>
      </trkpt>
      <trkpt lat="44.01008" lon="4.7137">
        <ele>129.8</ele>
        <time>2012-06-13T06:21:24.000Z</time>
      </trkpt>
      <trkpt lat="44.0101" lon="4.7136">
        <ele>129.7</ele>
        <time>2012-06-13T06:21:26.000Z</time>
      </trkpt>
      <trkpt lat="44.01011" lon="4.71353">
        <ele>129.8</ele>
        <time>2012-06-13T06:21:27.000Z</time>
      </trkpt>
      <trkpt lat="44.01013" lon="4.71342">
        <ele>129.9</ele>
        <time>2012-06-13T06:21:29.000Z</time>
      </trkpt>
      <trkpt lat="44.01019" lon="4.7129">
        <ele>129.2</ele>
        <time>2012-06-13T06:21:36.000Z</time>
      </trkpt>
      <trkpt lat="44.01018" lon="4.7128">
        <ele>129</ele>
        <time>2012-06-13T06:21:37.000Z</time>
      </trkpt>
      <trkpt lat="44.01019" lon="4.71274">
        <ele>128.3</ele>
        <time>2012-06-13T06:21:38.000Z</time>
      </trkpt>
      <trkpt lat="44.01018" lon="4.71261">
        <ele>129.7</ele>
        <time>2012-06-13T06:21:40.000Z</time>
      </trkpt>
      <trkpt lat="44.01017" lon="4.71254">
        <ele>130.1</ele>
        <time>2012-06-13T06:21:41.000Z</time>
      </trkpt>
      <trkpt lat="44.01018" lon="4.71243">
        <ele>130.5</ele>
        <time>2012-06-13T06:21:43.000Z</time>
      </trkpt>
      <trkpt lat="44.01017" lon="4.71233">
        <ele>131</ele>
        <time>2012-06-13T06:21:45.000Z</time>
      </trkpt>
      <trkpt lat="44.01018" lon="4.71221">
        <ele>131.2</ele>
        <time>2012-06-13T06:21:47.000Z</time>
      </trkpt>
      <trkpt lat="44.01019" lon="4.7121">
        <ele>130.9</ele>
        <time>2012-06-13T06:21:49.000Z</time>
      </trkpt>
      <trkpt lat="44.01019" lon="4.71199">
        <ele>130.4</ele>
        <time>2012-06-13T06:21:51.000Z</time>
      </trkpt>
      <trkpt lat="44.01022" lon="4.7119">
        <ele>130.1</ele>
        <time>2012-06-13T06:21:53.000Z</time>
      </trkpt>
      <trkpt lat="44.01025" lon="4.71182">
        <ele>130</ele>
        <time>2012-06-13T06:21:55.000Z</time>
      </trkpt>
      <trkpt lat="44.01027" lon="4.71172">
        <ele>128.8</ele>
        <time>2012-06-13T06:21:57.000Z</time>
      </trkpt>
      <trkpt lat="44.01029" lon="4.71164">
        <ele>128.6</ele>
        <time>2012-06-13T06:21:59.000Z</time>
      </trkpt>
      <trkpt lat="44.01031" lon="4.71155">
        <ele>129.5</ele>
        <time>2012-06-13T06:22:01.000Z</time>
      </trkpt>
      <trkpt lat="44.0103" lon="4.71142">
        <ele>129.1</ele>
        <time>2012-06-13T06:22:03.000Z</time>
      </trkpt>
      <trkpt lat="44.0103" lon="4.71134">
        <ele>129.6</ele>
        <time>2012-06-13T06:22:05.000Z</time>
      </trkpt>
      <trkpt lat="44.01032" lon="4.71124">
        <ele>130.2</ele>
        <time>2012-06-13T06:22:07.000Z</time>
      </trkpt>
      <trkpt lat="44.01033" lon="4.71114">
        <ele>131.3</ele>
        <time>2012-06-13T06:22:09.000Z</time>
      </trkpt>
      <trkpt lat="44.01034" lon="4.71105">
        <ele>131.6</ele>
        <time>2012-06-13T06:22:11.000Z</time>
      </trkpt>
      <trkpt lat="44.01035" lon="4.71093">
        <ele>131.9</ele>
        <time>2012-06-13T06:22:13.000Z</time>
      </trkpt>
      <trkpt lat="44.01035" lon="4.71084">
        <ele>131.2</ele>
        <time>2012-06-13T06:22:15.000Z</time>
      </trkpt>
      <trkpt lat="44.01037" lon="4.71075">
        <ele>131.9</ele>
        <time>2012-06-13T06:22:17.000Z</time>
      </trkpt>
      <trkpt lat="44.01037" lon="4.71066">
        <ele>131.6</ele>
        <time>2012-06-13T06:22:19.000Z</time>
      </trkpt>
      <trkpt lat="44.01039" lon="4.71057">
        <ele>131.5</ele>
        <time>2012-06-13T06:22:21.000Z</time>
      </trkpt>
      <trkpt lat="44.01039" lon="4.71046">
        <ele>131.4</ele>
        <time>2012-06-13T06:22:23.000Z</time>
      </trkpt>
      <trkpt lat="44.01041" lon="4.71035">
        <ele>131.7</ele>
        <time>2012-06-13T06:22:25.000Z</time>
      </trkpt>
      <trkpt lat="44.01042" lon="4.71026">
        <ele>131.9</ele>
        <time>2012-06-13T06:22:27.000Z</time>
      </trkpt>
      <trkpt lat="44.01042" lon="4.71016">
        <ele>132.5</ele>
        <time>2012-06-13T06:22:29.000Z</time>
      </trkpt>
      <trkpt lat="44.01042" lon="4.71008">
        <ele>132.2</ele>
        <time>2012-06-13T06:22:30.000Z</time>
      </trkpt>
      <trkpt lat="44.01043" lon="4.70998">
        <ele>131.9</ele>
        <time>2012-06-13T06:22:32.000Z</time>
      </trkpt>
      <trkpt lat="44.01046" lon="4.70989">
        <ele>131.3</ele>
        <time>2012-06-13T06:22:34.000Z</time>
      </trkpt>
      <trkpt lat="44.01046" lon="4.70978">
        <ele>131.1</ele>
        <time>2012-06-13T06:22:36.000Z</time>
      </trkpt>
      <trkpt lat="44.01048" lon="4.7097">
        <ele>131.2</ele>
        <time>2012-06-13T06:22:38.000Z</time>
      </trkpt>
      <trkpt lat="44.01048" lon="4.70963">
        <ele>131.7</ele>
        <time>2012-06-13T06:22:39.000Z</time>
      </trkpt>
      <trkpt lat="44.01049" lon="4.70955">
        <ele>130.8</ele>
        <time>2012-06-13T06:22:41.000Z</time>
      </trkpt>
      <trkpt lat="44.01047" lon="4.70947">
        <ele>131.1</ele>
        <time>2012-06-13T06:22:42.000Z</time>
      </trkpt>
      <trkpt lat="44.01047" lon="4.70933">
        <ele>132.4</ele>
        <time>2012-06-13T06:22:44.000Z</time>
      </trkpt>
      <trkpt lat="44.01048" lon="4.70924">
        <ele>132.4</ele>
        <time>2012-06-13T06:22:46.000Z</time>
      </trkpt>
      <trkpt lat="44.01049" lon="4.70915">
        <ele>133</ele>
        <time>2012-06-13T06:22:48.000Z</time>
      </trkpt>
      <trkpt lat="44.0105" lon="4.70905">
        <ele>132.3</ele>
        <time>2012-06-13T06:22:50.000Z</time>
      </trkpt>
      <trkpt lat="44.01051" lon="4.70898">
        <ele>132.8</ele>
        <time>2012-06-13T06:22:51.000Z</time>
      </trkpt>
      <trkpt lat="44.01052" lon="4.70888">
        <ele>133</ele>
        <time>2012-06-13T06:22:53.000Z</time>
      </trkpt>
      <trkpt lat="44.01054" lon="4.7088">
        <ele>133.1</ele>
        <time>2012-06-13T06:22:55.000Z</time>
      </trkpt>
      <trkpt lat="44.01057" lon="4.70871">
        <ele>133.6</ele>
        <time>2012-06-13T06:22:57.000Z</time>
      </trkpt>
      <trkpt lat="44.01059" lon="4.70861">
        <ele>133.1</ele>
        <time>2012-06-13T06:22:59.000Z</time>
      </trkpt>
      <trkpt lat="44.0106" lon="4.70853">
        <ele>132.5</ele>
        <time>2012-06-13T06:23:01.000Z</time>
      </trkpt>
      <trkpt lat="44.01062" lon="4.70842">
        <ele>133</ele>
        <time>2012-06-13T06:23:03.000Z</time>
      </trkpt>
      <trkpt lat="44.01064" lon="4.70831">
        <ele>133.4</ele>
        <time>2012-06-13T06:23:05.000Z</time>
      </trkpt>
      <trkpt lat="44.01065" lon="4.70821">
        <ele>133.1</ele>
        <time>2012-06-13T06:23:07.000Z</time>
      </trkpt>
      <trkpt lat="44.01063" lon="4.70808">
        <ele>132.7</ele>
        <time>2012-06-13T06:23:09.000Z</time>
      </trkpt>
      <trkpt lat="44.01063" lon="4.70797">
        <ele>132.6</ele>
        <time>2012-06-13T06:23:11.000Z</time>
      </trkpt>
      <trkpt lat="44.01063" lon="4.7079">
        <ele>132.5</ele>
        <time>2012-06-13T06:23:12.000Z</time>
      </trkpt>
      <trkpt lat="44.01066" lon="4.70781">
        <ele>132.3</ele>
        <time>2012-06-13T06:23:14.000Z</time>
      </trkpt>
      <trkpt lat="44.01067" lon="4.70772">
        <ele>132.5</ele>
        <time>2012-06-13T06:23:16.000Z</time>
      </trkpt>
      <trkpt lat="44.0107" lon="4.70763">
        <ele>132.3</ele>
        <time>2012-06-13T06:23:18.000Z</time>
      </trkpt>
      <trkpt lat="44.01072" lon="4.70752">
        <ele>132.2</ele>
        <time>2012-06-13T06:23:20.000Z</time>
      </trkpt>
      <trkpt lat="44.01078" lon="4.70745">
        <ele>133.3</ele>
        <time>2012-06-13T06:23:22.000Z</time>
      </trkpt>
      <trkpt lat="44.01083" lon="4.70739">
        <ele>133.2</ele>
        <time>2012-06-13T06:23:24.000Z</time>
      </trkpt>
      <trkpt lat="44.01087" lon="4.7073">
        <ele>133.8</ele>
        <time>2012-06-13T06:23:26.000Z</time>
      </trkpt>
      <trkpt lat="44.01086" lon="4.70721">
        <ele>134.8</ele>
        <time>2012-06-13T06:23:28.000Z</time>
      </trkpt>
      <trkpt lat="44.01082" lon="4.70713">
        <ele>135.1</ele>
        <time>2012-06-13T06:23:30.000Z</time>
      </trkpt>
      <trkpt lat="44.01079" lon="4.70705">
        <ele>135.2</ele>
        <time>2012-06-13T06:23:32.000Z</time>
      </trkpt>
      <trkpt lat="44.01077" lon="4.70697">
        <ele>134.6</ele>
        <time>2012-06-13T06:23:34.000Z</time>
      </trkpt>
      <trkpt lat="44.01075" lon="4.70688">
        <ele>135.2</ele>
        <time>2012-06-13T06:23:36.000Z</time>
      </trkpt>
      <trkpt lat="44.01076" lon="4.7068">
        <ele>134.7</ele>
        <time>2012-06-13T06:23:38.000Z</time>
      </trkpt>
      <trkpt lat="44.01077" lon="4.7067">
        <ele>135.3</ele>
        <time>2012-06-13T06:23:40.000Z</time>
      </trkpt>
      <trkpt lat="44.01079" lon="4.7066">
        <ele>137</ele>
        <time>2012-06-13T06:23:42.000Z</time>
      </trkpt>
      <trkpt lat="44.0108" lon="4.70648">
        <ele>137.3</ele>
        <time>2012-06-13T06:23:44.000Z</time>
      </trkpt>
      <trkpt lat="44.01081" lon="4.70636">
        <ele>137.9</ele>
        <time>2012-06-13T06:23:46.000Z</time>
      </trkpt>
      <trkpt lat="44.01082" lon="4.70625">
        <ele>138</ele>
        <time>2012-06-13T06:23:48.000Z</time>
      </trkpt>
      <trkpt lat="44.01082" lon="4.70613">
        <ele>139.1</ele>
        <time>2012-06-13T06:23:50.000Z</time>
      </trkpt>
      <trkpt lat="44.01083" lon="4.70604">
        <ele>138.4</ele>
        <time>2012-06-13T06:23:52.000Z</time>
      </trkpt>
      <trkpt lat="44.01086" lon="4.70594">
        <ele>139.6</ele>
        <time>2012-06-13T06:23:54.000Z</time>
      </trkpt>
      <trkpt lat="44.01087" lon="4.70584">
        <ele>139.7</ele>
        <time>2012-06-13T06:23:56.000Z</time>
      </trkpt>
      <trkpt lat="44.01088" lon="4.70574">
        <ele>140</ele>
        <time>2012-06-13T06:23:58.000Z</time>
      </trkpt>
      <trkpt lat="44.0109" lon="4.70563">
        <ele>139.8</ele>
        <time>2012-06-13T06:24:00.000Z</time>
      </trkpt>
      <trkpt lat="44.0109" lon="4.70555">
        <ele>140.1</ele>
        <time>2012-06-13T06:24:02.000Z</time>
      </trkpt>
      <trkpt lat="44.01092" lon="4.70545">
        <ele>141.6</ele>
        <time>2012-06-13T06:24:04.000Z</time>
      </trkpt>
      <trkpt lat="44.01093" lon="4.70536">
        <ele>141.2</ele>
        <time>2012-06-13T06:24:06.000Z</time>
      </trkpt>
      <trkpt lat="44.01092" lon="4.70529">
        <ele>141.1</ele>
        <time>2012-06-13T06:24:08.000Z</time>
      </trkpt>
      <trkpt lat="44.01094" lon="4.7052">
        <ele>141.9</ele>
        <time>2012-06-13T06:24:10.000Z</time>
      </trkpt>
      <trkpt lat="44.01094" lon="4.7051">
        <ele>141.6</ele>
        <time>2012-06-13T06:24:13.000Z</time>
      </trkpt>
      <trkpt lat="44.01095" lon="4.70503">
        <ele>141.1</ele>
        <time>2012-06-13T06:24:15.000Z</time>
      </trkpt>
      <trkpt lat="44.01096" lon="4.70495">
        <ele>140.9</ele>
        <time>2012-06-13T06:24:17.000Z</time>
      </trkpt>
      <trkpt lat="44.01098" lon="4.70488">
        <ele>141.2</ele>
        <time>2012-06-13T06:24:19.000Z</time>
      </trkpt>
      <trkpt lat="44.01098" lon="4.70481">
        <ele>141.8</ele>
        <time>2012-06-13T06:24:21.000Z</time>
      </trkpt>
      <trkpt lat="44.01098" lon="4.70472">
        <ele>141.5</ele>
        <time>2012-06-13T06:24:23.000Z</time>
      </trkpt>
      <trkpt lat="44.01099" lon="4.70465">
        <ele>140.9</ele>
        <time>2012-06-13T06:24:25.000Z</time>
      </trkpt>
      <trkpt lat="44.01099" lon="4.70456">
        <ele>141.1</ele>
        <time>2012-06-13T06:24:28.000Z</time>
      </trkpt>
      <trkpt lat="44.01098" lon="4.70448">
        <ele>141</ele>
        <time>2012-06-13T06:24:30.000Z</time>
      </trkpt>
      <trkpt lat="44.01099" lon="4.70442">
        <ele>141.3</ele>
        <time>2012-06-13T06:24:32.000Z</time>
      </trkpt>
      <trkpt lat="44.01101" lon="4.70435">
        <ele>141.4</ele>
        <time>2012-06-13T06:24:34.000Z</time>
      </trkpt>
      <trkpt lat="44.01103" lon="4.70427">
        <ele>141.8</ele>
        <time>2012-06-13T06:24:37.000Z</time>
      </trkpt>
      <trkpt lat="44.01104" lon="4.7042">
        <ele>141.8</ele>
        <time>2012-06-13T06:24:39.000Z</time>
      </trkpt>
      <trkpt lat="44.01105" lon="4.70412">
        <ele>141.7</ele>
        <time>2012-06-13T06:24:41.000Z</time>
      </trkpt>
      <trkpt lat="44.01106" lon="4.70402">
        <ele>142</ele>
        <time>2012-06-13T06:24:44.000Z</time>
      </trkpt>
      <trkpt lat="44.01106" lon="4.70393">
        <ele>142.4</ele>
        <time>2012-06-13T06:24:46.000Z</time>
      </trkpt>
      <trkpt lat="44.01106" lon="4.70383">
        <ele>143.6</ele>
        <time>2012-06-13T06:24:48.000Z</time>
      </trkpt>
      <trkpt lat="44.01108" lon="4.70375">
        <ele>144.6</ele>
        <time>2012-06-13T06:24:50.000Z</time>
      </trkpt>
      <trkpt lat="44.01111" lon="4.70367">
        <ele>145.2</ele>
        <time>2012-06-13T06:24:52.000Z</time>
      </trkpt>
      <trkpt lat="44.01111" lon="4.70357">
        <ele>145.5</ele>
        <time>2012-06-13T06:24:55.000Z</time>
      </trkpt>
      <trkpt lat="44.01113" lon="4.70351">
        <ele>145.8</ele>
        <time>2012-06-13T06:24:57.000Z</time>
      </trkpt>
      <trkpt lat="44.01114" lon="4.70343">
        <ele>145.8</ele>
        <time>2012-06-13T06:24:59.000Z</time>
      </trkpt>
      <trkpt lat="44.01114" lon="4.70336">
        <ele>146.9</ele>
        <time>2012-06-13T06:25:01.000Z</time>
      </trkpt>
      <trkpt lat="44.01116" lon="4.70327">
        <ele>146.3</ele>
        <time>2012-06-13T06:25:04.000Z</time>
      </trkpt>
      <trkpt lat="44.01118" lon="4.7032">
        <ele>146.4</ele>
        <time>2012-06-13T06:25:06.000Z</time>
      </trkpt>
      <trkpt lat="44.0112" lon="4.70313">
        <ele>146.4</ele>
        <time>2012-06-13T06:25:09.000Z</time>
      </trkpt>
      <trkpt lat="44.01119" lon="4.70302">
        <ele>146.9</ele>
        <time>2012-06-13T06:25:12.000Z</time>
      </trkpt>
      <trkpt lat="44.01119" lon="4.70293">
        <ele>147.4</ele>
        <time>2012-06-13T06:25:14.000Z</time>
      </trkpt>
      <trkpt lat="44.01122" lon="4.70284">
        <ele>148</ele>
        <time>2012-06-13T06:25:17.000Z</time>
      </trkpt>
      <trkpt lat="44.01124" lon="4.70278">
        <ele>147.9</ele>
        <time>2012-06-13T06:25:19.000Z</time>
      </trkpt>
      <trkpt lat="44.01127" lon="4.70271">
        <ele>148.4</ele>
        <time>2012-06-13T06:25:21.000Z</time>
      </trkpt>
      <trkpt lat="44.01126" lon="4.70264">
        <ele>148.6</ele>
        <time>2012-06-13T06:25:23.000Z</time>
      </trkpt>
      <trkpt lat="44.01126" lon="4.70256">
        <ele>148.2</ele>
        <time>2012-06-13T06:25:25.000Z</time>
      </trkpt>
      <trkpt lat="44.01127" lon="4.70248">
        <ele>148.5</ele>
        <time>2012-06-13T06:25:27.000Z</time>
      </trkpt>
      <trkpt lat="44.01126" lon="4.7024">
        <ele>148</ele>
        <time>2012-06-13T06:25:29.000Z</time>
      </trkpt>
      <trkpt lat="44.01124" lon="4.70228">
        <ele>148.6</ele>
        <time>2012-06-13T06:25:32.000Z</time>
      </trkpt>
      <trkpt lat="44.01124" lon="4.70222">
        <ele>149.1</ele>
        <time>2012-06-13T06:25:34.000Z</time>
      </trkpt>
      <trkpt lat="44.01125" lon="4.70213">
        <ele>148.5</ele>
        <time>2012-06-13T06:25:37.000Z</time>
      </trkpt>
      <trkpt lat="44.01124" lon="4.70206">
        <ele>147.8</ele>
        <time>2012-06-13T06:25:39.000Z</time>
      </trkpt>
      <trkpt lat="44.01125" lon="4.702">
        <ele>147.4</ele>
        <time>2012-06-13T06:25:40.000Z</time>
      </trkpt>
      <trkpt lat="44.01125" lon="4.70192">
        <ele>146.6</ele>
        <time>2012-06-13T06:25:42.000Z</time>
      </trkpt>
      <trkpt lat="44.01124" lon="4.70184">
        <ele>146.8</ele>
        <time>2012-06-13T06:25:44.000Z</time>
      </trkpt>
      <trkpt lat="44.01123" lon="4.70174">
        <ele>146.5</ele>
        <time>2012-06-13T06:25:46.000Z</time>
      </trkpt>
      <trkpt lat="44.01123" lon="4.70168">
        <ele>146.9</ele>
        <time>2012-06-13T06:25:48.000Z</time>
      </trkpt>
      <trkpt lat="44.01122" lon="4.70161">
        <ele>148.2</ele>
        <time>2012-06-13T06:25:50.000Z</time>
      </trkpt>
      <trkpt lat="44.01124" lon="4.70151">
        <ele>149.9</ele>
        <time>2012-06-13T06:25:53.000Z</time>
      </trkpt>
      <trkpt lat="44.01125" lon="4.70145">
        <ele>149.7</ele>
        <time>2012-06-13T06:25:55.000Z</time>
      </trkpt>
      <trkpt lat="44.01126" lon="4.70136">
        <ele>149.4</ele>
        <time>2012-06-13T06:25:58.000Z</time>
      </trkpt>
      <trkpt lat="44.01126" lon="4.70128">
        <ele>150.3</ele>
        <time>2012-06-13T06:26:00.000Z</time>
      </trkpt>
      <trkpt lat="44.0113" lon="4.70118">
        <ele>149.5</ele>
        <time>2012-06-13T06:26:03.000Z</time>
      </trkpt>
      <trkpt lat="44.01134" lon="4.70113">
        <ele>149.9</ele>
        <time>2012-06-13T06:26:05.000Z</time>
      </trkpt>
      <trkpt lat="44.01135" lon="4.70107">
        <ele>149.1</ele>
        <time>2012-06-13T06:26:07.000Z</time>
      </trkpt>
      <trkpt lat="44.01138" lon="4.701">
        <ele>149.6</ele>
        <time>2012-06-13T06:26:09.000Z</time>
      </trkpt>
      <trkpt lat="44.0114" lon="4.70093">
        <ele>149.9</ele>
        <time>2012-06-13T06:26:11.000Z</time>
      </trkpt>
      <trkpt lat="44.01142" lon="4.70088">
        <ele>149.5</ele>
        <time>2012-06-13T06:26:13.000Z</time>
      </trkpt>
      <trkpt lat="44.01146" lon="4.70082">
        <ele>150.1</ele>
        <time>2012-06-13T06:26:15.000Z</time>
      </trkpt>
      <trkpt lat="44.01151" lon="4.70077">
        <ele>151.3</ele>
        <time>2012-06-13T06:26:17.000Z</time>
      </trkpt>
      <trkpt lat="44.01154" lon="4.70072">
        <ele>152.6</ele>
        <time>2012-06-13T06:26:19.000Z</time>
      </trkpt>
      <trkpt lat="44.01154" lon="4.70063">
        <ele>152.8</ele>
        <time>2012-06-13T06:26:21.000Z</time>
      </trkpt>
      <trkpt lat="44.01159" lon="4.70058">
        <ele>153.9</ele>
        <time>2012-06-13T06:26:23.000Z</time>
      </trkpt>
      <trkpt lat="44.01164" lon="4.70047">
        <ele>155.6</ele>
        <time>2012-06-13T06:26:25.000Z</time>
      </trkpt>
      <trkpt lat="44.01169" lon="4.70042">
        <ele>155.1</ele>
        <time>2012-06-13T06:26:27.000Z</time>
      </trkpt>
      <trkpt lat="44.01173" lon="4.70039">
        <ele>154</ele>
        <time>2012-06-13T06:26:30.000Z</time>
      </trkpt>
      <trkpt lat="44.01178" lon="4.70034">
        <ele>153.3</ele>
        <time>2012-06-13T06:26:34.000Z</time>
      </trkpt>
      <trkpt lat="44.01181" lon="4.70028">
        <ele>154.2</ele>
        <time>2012-06-13T06:26:36.000Z</time>
      </trkpt>
      <trkpt lat="44.01184" lon="4.7002">
        <ele>151.9</ele>
        <time>2012-06-13T06:26:38.000Z</time>
      </trkpt>
      <trkpt lat="44.01185" lon="4.70013">
        <ele>153.7</ele>
        <time>2012-06-13T06:26:40.000Z</time>
      </trkpt>
      <trkpt lat="44.01187" lon="4.70005">
        <ele>155.1</ele>
        <time>2012-06-13T06:26:42.000Z</time>
      </trkpt>
      <trkpt lat="44.01189" lon="4.69997">
        <ele>154.5</ele>
        <time>2012-06-13T06:26:44.000Z</time>
      </trkpt>
      <trkpt lat="44.01193" lon="4.69989">
        <ele>155</ele>
        <time>2012-06-13T06:26:47.000Z</time>
      </trkpt>
      <trkpt lat="44.01193" lon="4.69982">
        <ele>154.7</ele>
        <time>2012-06-13T06:26:48.000Z</time>
      </trkpt>
      <trkpt lat="44.01196" lon="4.69971">
        <ele>156</ele>
        <time>2012-06-13T06:26:50.000Z</time>
      </trkpt>
      <trkpt lat="44.012" lon="4.69962">
        <ele>157.3</ele>
        <time>2012-06-13T06:26:52.000Z</time>
      </trkpt>
      <trkpt lat="44.01204" lon="4.69953">
        <ele>157.8</ele>
        <time>2012-06-13T06:26:54.000Z</time>
      </trkpt>
      <trkpt lat="44.01207" lon="4.69942">
        <ele>158.1</ele>
        <time>2012-06-13T06:26:56.000Z</time>
      </trkpt>
      <trkpt lat="44.01208" lon="4.69936">
        <ele>159</ele>
        <time>2012-06-13T06:26:57.000Z</time>
      </trkpt>
      <trkpt lat="44.01211" lon="4.69928">
        <ele>159</ele>
        <time>2012-06-13T06:26:58.000Z</time>
      </trkpt>
      <trkpt lat="44.01218" lon="4.6992">
        <ele>158.9</ele>
        <time>2012-06-13T06:27:00.000Z</time>
      </trkpt>
      <trkpt lat="44.0122" lon="4.69913">
        <ele>158.9</ele>
        <time>2012-06-13T06:27:02.000Z</time>
      </trkpt>
      <trkpt lat="44.01223" lon="4.69904">
        <ele>159</ele>
        <time>2012-06-13T06:27:04.000Z</time>
      </trkpt>
      <trkpt lat="44.01226" lon="4.69897">
        <ele>159</ele>
        <time>2012-06-13T06:27:06.000Z</time>
      </trkpt>
      <trkpt lat="44.0123" lon="4.69889">
        <ele>159</ele>
        <time>2012-06-13T06:27:08.000Z</time>
      </trkpt>
      <trkpt lat="44.01232" lon="4.69877">
        <ele>159.3</ele>
        <time>2012-06-13T06:27:10.000Z</time>
      </trkpt>
      <trkpt lat="44.01233" lon="4.69867">
        <ele>160</ele>
        <time>2012-06-13T06:27:12.000Z</time>
      </trkpt>
      <trkpt lat="44.01234" lon="4.69858">
        <ele>159.9</ele>
        <time>2012-06-13T06:27:14.000Z</time>
      </trkpt>
      <trkpt lat="44.01237" lon="4.69851">
        <ele>160.6</ele>
        <time>2012-06-13T06:27:16.000Z</time>
      </trkpt>
      <trkpt lat="44.01241" lon="4.69844">
        <ele>160.5</ele>
        <time>2012-06-13T06:27:19.000Z</time>
      </trkpt>
      <trkpt lat="44.01239" lon="4.69835">
        <ele>162.7</ele>
        <time>2012-06-13T06:27:51.000Z</time>
      </trkpt>
      <trkpt lat="44.01243" lon="4.69839">
        <ele>164.4</ele>
        <time>2012-06-13T06:29:30.000Z</time>
      </trkpt>
      <trkpt lat="44.01241" lon="4.69829">
        <ele>166.4</ele>
        <time>2012-06-13T06:31:09.000Z</time>
      </trkpt>
      <trkpt lat="44.01241" lon="4.69822">
        <ele>167.1</ele>
        <time>2012-06-13T06:31:12.000Z</time>
      </trkpt>
      <trkpt lat="44.01243" lon="4.69815">
        <ele>166.6</ele>
        <time>2012-06-13T06:31:14.000Z</time>
      </trkpt>
      <trkpt lat="44.01245" lon="4.69808">
        <ele>166.4</ele>
        <time>2012-06-13T06:31:16.000Z</time>
      </trkpt>
      <trkpt lat="44.01247" lon="4.698">
        <ele>165.4</ele>
        <time>2012-06-13T06:31:18.000Z</time>
      </trkpt>
      <trkpt lat="44.01247" lon="4.69792">
        <ele>165</ele>
        <time>2012-06-13T06:31:20.000Z</time>
      </trkpt>
      <trkpt lat="44.01245" lon="4.69783">
        <ele>164.3</ele>
        <time>2012-06-13T06:31:22.000Z</time>
      </trkpt>
      <trkpt lat="44.01244" lon="4.69773">
        <ele>163.7</ele>
        <time>2012-06-13T06:31:24.000Z</time>
      </trkpt>
      <trkpt lat="44.01243" lon="4.69764">
        <ele>163.4</ele>
        <time>2012-06-13T06:31:26.000Z</time>
      </trkpt>
      <trkpt lat="44.01242" lon="4.69754">
        <ele>163.1</ele>
        <time>2012-06-13T06:31:28.000Z</time>
      </trkpt>
      <trkpt lat="44.0124" lon="4.69748">
        <ele>162.4</ele>
        <time>2012-06-13T06:31:29.000Z</time>
      </trkpt>
      <trkpt lat="44.01238" lon="4.69738">
        <ele>162.4</ele>
        <time>2012-06-13T06:31:31.000Z</time>
      </trkpt>
      <trkpt lat="44.01237" lon="4.6973">
        <ele>162.3</ele>
        <time>2012-06-13T06:31:33.000Z</time>
      </trkpt>
      <trkpt lat="44.01236" lon="4.6972">
        <ele>161.8</ele>
        <time>2012-06-13T06:31:35.000Z</time>
      </trkpt>
      <trkpt lat="44.01235" lon="4.6971">
        <ele>161.4</ele>
        <time>2012-06-13T06:31:37.000Z</time>
      </trkpt>
      <trkpt lat="44.01234" lon="4.697">
        <ele>161.3</ele>
        <time>2012-06-13T06:31:39.000Z</time>
      </trkpt>
      <trkpt lat="44.01232" lon="4.69692">
        <ele>161.6</ele>
        <time>2012-06-13T06:31:41.000Z</time>
      </trkpt>
      <trkpt lat="44.01231" lon="4.69686">
        <ele>161.4</ele>
        <time>2012-06-13T06:31:42.000Z</time>
      </trkpt>
      <trkpt lat="44.01231" lon="4.69675">
        <ele>160.1</ele>
        <time>2012-06-13T06:31:44.000Z</time>
      </trkpt>
      <trkpt lat="44.01228" lon="4.69667">
        <ele>162.5</ele>
        <time>2012-06-13T06:31:45.000Z</time>
      </trkpt>
      <trkpt lat="44.01226" lon="4.69658">
        <ele>162.5</ele>
        <time>2012-06-13T06:31:47.000Z</time>
      </trkpt>
      <trkpt lat="44.01225" lon="4.6965">
        <ele>162.1</ele>
        <time>2012-06-13T06:31:49.000Z</time>
      </trkpt>
      <trkpt lat="44.01224" lon="4.69639">
        <ele>161.9</ele>
        <time>2012-06-13T06:31:52.000Z</time>
      </trkpt>
      <trkpt lat="44.01222" lon="4.6963">
        <ele>161.7</ele>
        <time>2012-06-13T06:31:54.000Z</time>
      </trkpt>
      <trkpt lat="44.01222" lon="4.69619">
        <ele>162.1</ele>
        <time>2012-06-13T06:31:56.000Z</time>
      </trkpt>
      <trkpt lat="44.01219" lon="4.69609">
        <ele>162.4</ele>
        <time>2012-06-13T06:31:58.000Z</time>
      </trkpt>
      <trkpt lat="44.01219" lon="4.696">
        <ele>162</ele>
        <time>2012-06-13T06:32:00.000Z</time>
      </trkpt>
      <trkpt lat="44.01219" lon="4.69591">
        <ele>162.2</ele>
        <time>2012-06-13T06:32:02.000Z</time>
      </trkpt>
      <trkpt lat="44.01215" lon="4.69583">
        <ele>161.5</ele>
        <time>2012-06-13T06:32:04.000Z</time>
      </trkpt>
      <trkpt lat="44.01214" lon="4.69576">
        <ele>161.1</ele>
        <time>2012-06-13T06:32:06.000Z</time>
      </trkpt>
      <trkpt lat="44.01213" lon="4.69565">
        <ele>162.2</ele>
        <time>2012-06-13T06:32:08.000Z</time>
      </trkpt>
      <trkpt lat="44.01211" lon="4.69555">
        <ele>162.7</ele>
        <time>2012-06-13T06:32:10.000Z</time>
      </trkpt>
      <trkpt lat="44.01211" lon="4.69546">
        <ele>162.1</ele>
        <time>2012-06-13T06:32:12.000Z</time>
      </trkpt>
      <trkpt lat="44.0121" lon="4.69537">
        <ele>161.6</ele>
        <time>2012-06-13T06:32:14.000Z</time>
      </trkpt>
      <trkpt lat="44.01208" lon="4.69528">
        <ele>161</ele>
        <time>2012-06-13T06:32:16.000Z</time>
      </trkpt>
      <trkpt lat="44.01206" lon="4.69517">
        <ele>160.6</ele>
        <time>2012-06-13T06:32:18.000Z</time>
      </trkpt>
      <trkpt lat="44.01203" lon="4.6951">
        <ele>160.2</ele>
        <time>2012-06-13T06:32:20.000Z</time>
      </trkpt>
      <trkpt lat="44.01204" lon="4.69503">
        <ele>161.1</ele>
        <time>2012-06-13T06:32:22.000Z</time>
      </trkpt>
      <trkpt lat="44.01202" lon="4.69493">
        <ele>161.2</ele>
        <time>2012-06-13T06:32:24.000Z</time>
      </trkpt>
      <trkpt lat="44.01201" lon="4.69484">
        <ele>160.4</ele>
        <time>2012-06-13T06:32:26.000Z</time>
      </trkpt>
      <trkpt lat="44.01199" lon="4.69473">
        <ele>160.9</ele>
        <time>2012-06-13T06:32:28.000Z</time>
      </trkpt>
      <trkpt lat="44.01197" lon="4.69462">
        <ele>160.5</ele>
        <time>2012-06-13T06:32:30.000Z</time>
      </trkpt>
      <trkpt lat="44.01198" lon="4.69454">
        <ele>160.2</ele>
        <time>2012-06-13T06:32:32.000Z</time>
      </trkpt>
      <trkpt lat="44.01196" lon="4.69442">
        <ele>161.6</ele>
        <time>2012-06-13T06:32:34.000Z</time>
      </trkpt>
      <trkpt lat="44.01194" lon="4.69431">
        <ele>162.4</ele>
        <time>2012-06-13T06:32:36.000Z</time>
      </trkpt>
      <trkpt lat="44.01193" lon="4.6942">
        <ele>162.3</ele>
        <time>2012-06-13T06:32:38.000Z</time>
      </trkpt>
      <trkpt lat="44.0119" lon="4.69411">
        <ele>162.7</ele>
        <time>2012-06-13T06:32:40.000Z</time>
      </trkpt>
      <trkpt lat="44.01188" lon="4.694">
        <ele>162.6</ele>
        <time>2012-06-13T06:32:43.000Z</time>
      </trkpt>
      <trkpt lat="44.01186" lon="4.69391">
        <ele>163.1</ele>
        <time>2012-06-13T06:32:45.000Z</time>
      </trkpt>
      <trkpt lat="44.01184" lon="4.6938">
        <ele>163.3</ele>
        <time>2012-06-13T06:32:47.000Z</time>
      </trkpt>
      <trkpt lat="44.01183" lon="4.69372">
        <ele>162.6</ele>
        <time>2012-06-13T06:32:49.000Z</time>
      </trkpt>
      <trkpt lat="44.0118" lon="4.69362">
        <ele>163.1</ele>
        <time>2012-06-13T06:32:51.000Z</time>
      </trkpt>
      <trkpt lat="44.01179" lon="4.69353">
        <ele>163</ele>
        <time>2012-06-13T06:32:53.000Z</time>
      </trkpt>
      <trkpt lat="44.01178" lon="4.69343">
        <ele>163.2</ele>
        <time>2012-06-13T06:32:55.000Z</time>
      </trkpt>
      <trkpt lat="44.01177" lon="4.69334">
        <ele>163.5</ele>
        <time>2012-06-13T06:32:57.000Z</time>
      </trkpt>
      <trkpt lat="44.01175" lon="4.69327">
        <ele>163</ele>
        <time>2012-06-13T06:32:59.000Z</time>
      </trkpt>
      <trkpt lat="44.01174" lon="4.6932">
        <ele>164.4</ele>
        <time>2012-06-13T06:33:01.000Z</time>
      </trkpt>
      <trkpt lat="44.01173" lon="4.69312">
        <ele>164.1</ele>
        <time>2012-06-13T06:33:03.000Z</time>
      </trkpt>
      <trkpt lat="44.01172" lon="4.69305">
        <ele>165.1</ele>
        <time>2012-06-13T06:33:05.000Z</time>
      </trkpt>
      <trkpt lat="44.01171" lon="4.69296">
        <ele>164.5</ele>
        <time>2012-06-13T06:33:07.000Z</time>
      </trkpt>
      <trkpt lat="44.01168" lon="4.69287">
        <ele>163.8</ele>
        <time>2012-06-13T06:33:09.000Z</time>
      </trkpt>
      <trkpt lat="44.01166" lon="4.69277">
        <ele>164.5</ele>
        <time>2012-06-13T06:33:11.000Z</time>
      </trkpt>
      <trkpt lat="44.01166" lon="4.69268">
        <ele>165.1</ele>
        <time>2012-06-13T06:33:13.000Z</time>
      </trkpt>
      <trkpt lat="44.01166" lon="4.69258">
        <ele>165.2</ele>
        <time>2012-06-13T06:33:15.000Z</time>
      </trkpt>
      <trkpt lat="44.01166" lon="4.69251">
        <ele>165.8</ele>
        <time>2012-06-13T06:33:16.000Z</time>
      </trkpt>
      <trkpt lat="44.01166" lon="4.69244">
        <ele>166.5</ele>
        <time>2012-06-13T06:33:18.000Z</time>
      </trkpt>
      <trkpt lat="44.01165" lon="4.69234">
        <ele>166.6</ele>
        <time>2012-06-13T06:33:20.000Z</time>
      </trkpt>
      <trkpt lat="44.01164" lon="4.69225">
        <ele>168.1</ele>
        <time>2012-06-13T06:33:22.000Z</time>
      </trkpt>
      <trkpt lat="44.01162" lon="4.69212">
        <ele>168.5</ele>
        <time>2012-06-13T06:33:24.000Z</time>
      </trkpt>
      <trkpt lat="44.0116" lon="4.69202">
        <ele>168.1</ele>
        <time>2012-06-13T06:33:26.000Z</time>
      </trkpt>
      <trkpt lat="44.0116" lon="4.69191">
        <ele>168.1</ele>
        <time>2012-06-13T06:33:28.000Z</time>
      </trkpt>
      <trkpt lat="44.0116" lon="4.69182">
        <ele>168.8</ele>
        <time>2012-06-13T06:33:30.000Z</time>
      </trkpt>
      <trkpt lat="44.01159" lon="4.69173">
        <ele>168.6</ele>
        <time>2012-06-13T06:33:32.000Z</time>
      </trkpt>
      <trkpt lat="44.01158" lon="4.69165">
        <ele>168.7</ele>
        <time>2012-06-13T06:33:34.000Z</time>
      </trkpt>
      <trkpt lat="44.01157" lon="4.69159">
        <ele>168.8</ele>
        <time>2012-06-13T06:33:35.000Z</time>
      </trkpt>
      <trkpt lat="44.01156" lon="4.6915">
        <ele>168.4</ele>
        <time>2012-06-13T06:33:37.000Z</time>
      </trkpt>
      <trkpt lat="44.01156" lon="4.69141">
        <ele>168.2</ele>
        <time>2012-06-13T06:33:39.000Z</time>
      </trkpt>
      <trkpt lat="44.01156" lon="4.69132">
        <ele>167.8</ele>
        <time>2012-06-13T06:33:41.000Z</time>
      </trkpt>
      <trkpt lat="44.01155" lon="4.69123">
        <ele>168.2</ele>
        <time>2012-06-13T06:33:43.000Z</time>
      </trkpt>
      <trkpt lat="44.01155" lon="4.69113">
        <ele>168.4</ele>
        <time>2012-06-13T06:33:45.000Z</time>
      </trkpt>
      <trkpt lat="44.01153" lon="4.69103">
        <ele>167.8</ele>
        <time>2012-06-13T06:33:47.000Z</time>
      </trkpt>
      <trkpt lat="44.01153" lon="4.69094">
        <ele>167.8</ele>
        <time>2012-06-13T06:33:49.000Z</time>
      </trkpt>
      <trkpt lat="44.01153" lon="4.69085">
        <ele>168.3</ele>
        <time>2012-06-13T06:33:51.000Z</time>
      </trkpt>
      <trkpt lat="44.01153" lon="4.69076">
        <ele>168.7</ele>
        <time>2012-06-13T06:33:53.000Z</time>
      </trkpt>
      <trkpt lat="44.01152" lon="4.69069">
        <ele>168.2</ele>
        <time>2012-06-13T06:33:54.000Z</time>
      </trkpt>
      <trkpt lat="44.01152" lon="4.69059">
        <ele>167</ele>
        <time>2012-06-13T06:33:56.000Z</time>
      </trkpt>
      <trkpt lat="44.01151" lon="4.69049">
        <ele>167.6</ele>
        <time>2012-06-13T06:33:58.000Z</time>
      </trkpt>
      <trkpt lat="44.01151" lon="4.69038">
        <ele>168</ele>
        <time>2012-06-13T06:34:00.000Z</time>
      </trkpt>
      <trkpt lat="44.01151" lon="4.6903">
        <ele>168.3</ele>
        <time>2012-06-13T06:34:02.000Z</time>
      </trkpt>
      <trkpt lat="44.01152" lon="4.69023">
        <ele>167.8</ele>
        <time>2012-06-13T06:34:04.000Z</time>
      </trkpt>
      <trkpt lat="44.0115" lon="4.69013">
        <ele>167.9</ele>
        <time>2012-06-13T06:34:06.000Z</time>
      </trkpt>
      <trkpt lat="44.0115" lon="4.69005">
        <ele>169.3</ele>
        <time>2012-06-13T06:34:08.000Z</time>
      </trkpt>
      <trkpt lat="44.01149" lon="4.68995">
        <ele>169.7</ele>
        <time>2012-06-13T06:34:10.000Z</time>
      </trkpt>
      <trkpt lat="44.01148" lon="4.68983">
        <ele>169.6</ele>
        <time>2012-06-13T06:34:12.000Z</time>
      </trkpt>
      <trkpt lat="44.01146" lon="4.68974">
        <ele>170.3</ele>
        <time>2012-06-13T06:34:14.000Z</time>
      </trkpt>
      <trkpt lat="44.01144" lon="4.68966">
        <ele>169.8</ele>
        <time>2012-06-13T06:34:16.000Z</time>
      </trkpt>
      <trkpt lat="44.01145" lon="4.68958">
        <ele>172</ele>
        <time>2012-06-13T06:34:18.000Z</time>
      </trkpt>
      <trkpt lat="44.01144" lon="4.68944">
        <ele>171.1</ele>
        <time>2012-06-13T06:34:20.000Z</time>
      </trkpt>
      <trkpt lat="44.01142" lon="4.68934">
        <ele>171.3</ele>
        <time>2012-06-13T06:34:22.000Z</time>
      </trkpt>
      <trkpt lat="44.01142" lon="4.68921">
        <ele>173.1</ele>
        <time>2012-06-13T06:34:24.000Z</time>
      </trkpt>
      <trkpt lat="44.01142" lon="4.68915">
        <ele>173.7</ele>
        <time>2012-06-13T06:34:25.000Z</time>
      </trkpt>
      <trkpt lat="44.01141" lon="4.68908">
        <ele>173.1</ele>
        <time>2012-06-13T06:34:26.000Z</time>
      </trkpt>
      <trkpt lat="44.0114" lon="4.68902">
        <ele>173</ele>
        <time>2012-06-13T06:34:27.000Z</time>
      </trkpt>
      <trkpt lat="44.01139" lon="4.68893">
        <ele>173.4</ele>
        <time>2012-06-13T06:34:29.000Z</time>
      </trkpt>
      <trkpt lat="44.01138" lon="4.68884">
        <ele>173.5</ele>
        <time>2012-06-13T06:34:31.000Z</time>
      </trkpt>
      <trkpt lat="44.01138" lon="4.68877">
        <ele>174.1</ele>
        <time>2012-06-13T06:34:32.000Z</time>
      </trkpt>
      <trkpt lat="44.01138" lon="4.68868">
        <ele>175</ele>
        <time>2012-06-13T06:34:34.000Z</time>
      </trkpt>
      <trkpt lat="44.01138" lon="4.68858">
        <ele>176.2</ele>
        <time>2012-06-13T06:34:36.000Z</time>
      </trkpt>
      <trkpt lat="44.01137" lon="4.68848">
        <ele>176.4</ele>
        <time>2012-06-13T06:34:38.000Z</time>
      </trkpt>
      <trkpt lat="44.01137" lon="4.68839">
        <ele>176.1</ele>
        <time>2012-06-13T06:34:40.000Z</time>
      </trkpt>
      <trkpt lat="44.01138" lon="4.6883">
        <ele>175.2</ele>
        <time>2012-06-13T06:34:42.000Z</time>
      </trkpt>
      <trkpt lat="44.01139" lon="4.68821">
        <ele>174.9</ele>
        <time>2012-06-13T06:34:44.000Z</time>
      </trkpt>
      <trkpt lat="44.01139" lon="4.68815">
        <ele>175.9</ele>
        <time>2012-06-13T06:34:45.000Z</time>
      </trkpt>
      <trkpt lat="44.01139" lon="4.68804">
        <ele>176</ele>
        <time>2012-06-13T06:34:47.000Z</time>
      </trkpt>
      <trkpt lat="44.01139" lon="4.68795">
        <ele>175.5</ele>
        <time>2012-06-13T06:34:49.000Z</time>
      </trkpt>
      <trkpt lat="44.01142" lon="4.68788">
        <ele>175.1</ele>
        <time>2012-06-13T06:34:51.000Z</time>
      </trkpt>
      <trkpt lat="44.01142" lon="4.68777">
        <ele>175.3</ele>
        <time>2012-06-13T06:34:53.000Z</time>
      </trkpt>
      <trkpt lat="44.01145" lon="4.68772">
        <ele>174.3</ele>
        <time>2012-06-13T06:34:55.000Z</time>
      </trkpt>
      <trkpt lat="44.01146" lon="4.68766">
        <ele>174.3</ele>
        <time>2012-06-13T06:34:56.000Z</time>
      </trkpt>
      <trkpt lat="44.01145" lon="4.68759">
        <ele>174.1</ele>
        <time>2012-06-13T06:34:57.000Z</time>
      </trkpt>
      <trkpt lat="44.01145" lon="4.68747">
        <ele>174.7</ele>
        <time>2012-06-13T06:34:59.000Z</time>
      </trkpt>
      <trkpt lat="44.01144" lon="4.68737">
        <ele>175</ele>
        <time>2012-06-13T06:35:01.000Z</time>
      </trkpt>
      <trkpt lat="44.01147" lon="4.68727">
        <ele>175.8</ele>
        <time>2012-06-13T06:35:04.000Z</time>
      </trkpt>
      <trkpt lat="44.01147" lon="4.68716">
        <ele>175.5</ele>
        <time>2012-06-13T06:35:06.000Z</time>
      </trkpt>
      <trkpt lat="44.01148" lon="4.68709">
        <ele>175.5</ele>
        <time>2012-06-13T06:35:08.000Z</time>
      </trkpt>
      <trkpt lat="44.01148" lon="4.68697">
        <ele>176</ele>
        <time>2012-06-13T06:35:10.000Z</time>
      </trkpt>
      <trkpt lat="44.01148" lon="4.6869">
        <ele>175.3</ele>
        <time>2012-06-13T06:35:11.000Z</time>
      </trkpt>
      <trkpt lat="44.01148" lon="4.68682">
        <ele>174.7</ele>
        <time>2012-06-13T06:35:13.000Z</time>
      </trkpt>
      <trkpt lat="44.01147" lon="4.68676">
        <ele>174.5</ele>
        <time>2012-06-13T06:35:14.000Z</time>
      </trkpt>
      <trkpt lat="44.01148" lon="4.68667">
        <ele>174.2</ele>
        <time>2012-06-13T06:35:16.000Z</time>
      </trkpt>
      <trkpt lat="44.01149" lon="4.68656">
        <ele>174.1</ele>
        <time>2012-06-13T06:35:18.000Z</time>
      </trkpt>
      <trkpt lat="44.0115" lon="4.68644">
        <ele>175</ele>
        <time>2012-06-13T06:35:20.000Z</time>
      </trkpt>
      <trkpt lat="44.01152" lon="4.68636">
        <ele>174.6</ele>
        <time>2012-06-13T06:35:22.000Z</time>
      </trkpt>
      <trkpt lat="44.01153" lon="4.68627">
        <ele>174.5</ele>
        <time>2012-06-13T06:35:24.000Z</time>
      </trkpt>
      <trkpt lat="44.01152" lon="4.68619">
        <ele>174.1</ele>
        <time>2012-06-13T06:35:26.000Z</time>
      </trkpt>
      <trkpt lat="44.01152" lon="4.68612">
        <ele>175</ele>
        <time>2012-06-13T06:35:27.000Z</time>
      </trkpt>
      <trkpt lat="44.01152" lon="4.68605">
        <ele>175.7</ele>
        <time>2012-06-13T06:35:28.000Z</time>
      </trkpt>
      <trkpt lat="44.01151" lon="4.68599">
        <ele>176.6</ele>
        <time>2012-06-13T06:35:29.000Z</time>
      </trkpt>
      <trkpt lat="44.01153" lon="4.6859">
        <ele>177.9</ele>
        <time>2012-06-13T06:35:31.000Z</time>
      </trkpt>
      <trkpt lat="44.01154" lon="4.6858">
        <ele>178</ele>
        <time>2012-06-13T06:35:33.000Z</time>
      </trkpt>
      <trkpt lat="44.01155" lon="4.68571">
        <ele>178.2</ele>
        <time>2012-06-13T06:35:35.000Z</time>
      </trkpt>
      <trkpt lat="44.01158" lon="4.68564">
        <ele>178</ele>
        <time>2012-06-13T06:35:37.000Z</time>
      </trkpt>
      <trkpt lat="44.0116" lon="4.68556">
        <ele>178.2</ele>
        <time>2012-06-13T06:35:40.000Z</time>
      </trkpt>
      <trkpt lat="44.01162" lon="4.68548">
        <ele>178.9</ele>
        <time>2012-06-13T06:35:42.000Z</time>
      </trkpt>
      <trkpt lat="44.0116" lon="4.6854">
        <ele>178.1</ele>
        <time>2012-06-13T06:35:44.000Z</time>
      </trkpt>
      <trkpt lat="44.01162" lon="4.68532">
        <ele>178.6</ele>
        <time>2012-06-13T06:35:46.000Z</time>
      </trkpt>
      <trkpt lat="44.01164" lon="4.68524">
        <ele>178.7</ele>
        <time>2012-06-13T06:35:48.000Z</time>
      </trkpt>
      <trkpt lat="44.01164" lon="4.68515">
        <ele>178.9</ele>
        <time>2012-06-13T06:35:50.000Z</time>
      </trkpt>
      <trkpt lat="44.01165" lon="4.68508">
        <ele>178.8</ele>
        <time>2012-06-13T06:35:51.000Z</time>
      </trkpt>
      <trkpt lat="44.01165" lon="4.68501">
        <ele>178.7</ele>
        <time>2012-06-13T06:35:52.000Z</time>
      </trkpt>
      <trkpt lat="44.01164" lon="4.68493">
        <ele>179</ele>
        <time>2012-06-13T06:35:53.000Z</time>
      </trkpt>
      <trkpt lat="44.01165" lon="4.68485">
        <ele>179.8</ele>
        <time>2012-06-13T06:35:55.000Z</time>
      </trkpt>
      <trkpt lat="44.01166" lon="4.68476">
        <ele>180.1</ele>
        <time>2012-06-13T06:35:57.000Z</time>
      </trkpt>
      <trkpt lat="44.01164" lon="4.68466">
        <ele>180</ele>
        <time>2012-06-13T06:35:59.000Z</time>
      </trkpt>
      <trkpt lat="44.01167" lon="4.68457">
        <ele>179.3</ele>
        <time>2012-06-13T06:36:01.000Z</time>
      </trkpt>
      <trkpt lat="44.01166" lon="4.68451">
        <ele>179.3</ele>
        <time>2012-06-13T06:36:02.000Z</time>
      </trkpt>
      <trkpt lat="44.01166" lon="4.68444">
        <ele>179.6</ele>
        <time>2012-06-13T06:36:03.000Z</time>
      </trkpt>
      <trkpt lat="44.01167" lon="4.68437">
        <ele>179.6</ele>
        <time>2012-06-13T06:36:05.000Z</time>
      </trkpt>
      <trkpt lat="44.01169" lon="4.68429">
        <ele>180.1</ele>
        <time>2012-06-13T06:36:08.000Z</time>
      </trkpt>
      <trkpt lat="44.01167" lon="4.68418">
        <ele>180.4</ele>
        <time>2012-06-13T06:36:10.000Z</time>
      </trkpt>
      <trkpt lat="44.01166" lon="4.68411">
        <ele>179.6</ele>
        <time>2012-06-13T06:36:12.000Z</time>
      </trkpt>
      <trkpt lat="44.01164" lon="4.68403">
        <ele>182.5</ele>
        <time>2012-06-13T06:36:13.000Z</time>
      </trkpt>
      <trkpt lat="44.01162" lon="4.68396">
        <ele>183.2</ele>
        <time>2012-06-13T06:36:15.000Z</time>
      </trkpt>
      <trkpt lat="44.01158" lon="4.68388">
        <ele>181.6</ele>
        <time>2012-06-13T06:36:17.000Z</time>
      </trkpt>
      <trkpt lat="44.01156" lon="4.6838">
        <ele>180.8</ele>
        <time>2012-06-13T06:36:19.000Z</time>
      </trkpt>
      <trkpt lat="44.01154" lon="4.6837">
        <ele>179.9</ele>
        <time>2012-06-13T06:36:21.000Z</time>
      </trkpt>
      <trkpt lat="44.01153" lon="4.68361">
        <ele>180</ele>
        <time>2012-06-13T06:36:23.000Z</time>
      </trkpt>
      <trkpt lat="44.0115" lon="4.68355">
        <ele>176.9</ele>
        <time>2012-06-13T06:36:24.000Z</time>
      </trkpt>
      <trkpt lat="44.01147" lon="4.68345">
        <ele>175.3</ele>
        <time>2012-06-13T06:36:26.000Z</time>
      </trkpt>
      <trkpt lat="44.01145" lon="4.68337">
        <ele>174.9</ele>
        <time>2012-06-13T06:36:28.000Z</time>
      </trkpt>
      <trkpt lat="44.01143" lon="4.68328">
        <ele>175.1</ele>
        <time>2012-06-13T06:36:30.000Z</time>
      </trkpt>
      <trkpt lat="44.01142" lon="4.68318">
        <ele>175.7</ele>
        <time>2012-06-13T06:36:32.000Z</time>
      </trkpt>
      <trkpt lat="44.0114" lon="4.68309">
        <ele>175.9</ele>
        <time>2012-06-13T06:36:34.000Z</time>
      </trkpt>
      <trkpt lat="44.0114" lon="4.68299">
        <ele>176.5</ele>
        <time>2012-06-13T06:36:36.000Z</time>
      </trkpt>
      <trkpt lat="44.01138" lon="4.68293">
        <ele>176.3</ele>
        <time>2012-06-13T06:36:38.000Z</time>
      </trkpt>
      <trkpt lat="44.01136" lon="4.68284">
        <ele>175.7</ele>
        <time>2012-06-13T06:36:40.000Z</time>
      </trkpt>
      <trkpt lat="44.01134" lon="4.68275">
        <ele>176.2</ele>
        <time>2012-06-13T06:36:42.000Z</time>
      </trkpt>
      <trkpt lat="44.01132" lon="4.68266">
        <ele>175.9</ele>
        <time>2012-06-13T06:36:44.000Z</time>
      </trkpt>
      <trkpt lat="44.01131" lon="4.68259">
        <ele>175.9</ele>
        <time>2012-06-13T06:36:46.000Z</time>
      </trkpt>
      <trkpt lat="44.01129" lon="4.68251">
        <ele>176.9</ele>
        <time>2012-06-13T06:36:48.000Z</time>
      </trkpt>
      <trkpt lat="44.01126" lon="4.68242">
        <ele>177.5</ele>
        <time>2012-06-13T06:36:50.000Z</time>
      </trkpt>
      <trkpt lat="44.01124" lon="4.68234">
        <ele>177.3</ele>
        <time>2012-06-13T06:36:52.000Z</time>
      </trkpt>
      <trkpt lat="44.01123" lon="4.68226">
        <ele>177.6</ele>
        <time>2012-06-13T06:36:54.000Z</time>
      </trkpt>
      <trkpt lat="44.01122" lon="4.68216">
        <ele>177.8</ele>
        <time>2012-06-13T06:36:56.000Z</time>
      </trkpt>
      <trkpt lat="44.01121" lon="4.68205">
        <ele>178.6</ele>
        <time>2012-06-13T06:36:58.000Z</time>
      </trkpt>
      <trkpt lat="44.01121" lon="4.68195">
        <ele>179.8</ele>
        <time>2012-06-13T06:37:00.000Z</time>
      </trkpt>
      <trkpt lat="44.01122" lon="4.68186">
        <ele>179.9</ele>
        <time>2012-06-13T06:37:02.000Z</time>
      </trkpt>
      <trkpt lat="44.01122" lon="4.68176">
        <ele>180.5</ele>
        <time>2012-06-13T06:37:04.000Z</time>
      </trkpt>
      <trkpt lat="44.01122" lon="4.68165">
        <ele>181.2</ele>
        <time>2012-06-13T06:37:06.000Z</time>
      </trkpt>
      <trkpt lat="44.01122" lon="4.68155">
        <ele>182.6</ele>
        <time>2012-06-13T06:37:08.000Z</time>
      </trkpt>
      <trkpt lat="44.01123" lon="4.68147">
        <ele>182.6</ele>
        <time>2012-06-13T06:37:10.000Z</time>
      </trkpt>
      <trkpt lat="44.01124" lon="4.68137">
        <ele>183.4</ele>
        <time>2012-06-13T06:37:12.000Z</time>
      </trkpt>
      <trkpt lat="44.01124" lon="4.68128">
        <ele>183.9</ele>
        <time>2012-06-13T06:37:14.000Z</time>
      </trkpt>
      <trkpt lat="44.01125" lon="4.68118">
        <ele>184.1</ele>
        <time>2012-06-13T06:37:16.000Z</time>
      </trkpt>
      <trkpt lat="44.01124" lon="4.68108">
        <ele>184</ele>
        <time>2012-06-13T06:37:18.000Z</time>
      </trkpt>
      <trkpt lat="44.01123" lon="4.681">
        <ele>183.4</ele>
        <time>2012-06-13T06:37:20.000Z</time>
      </trkpt>
      <trkpt lat="44.01124" lon="4.68094">
        <ele>183.9</ele>
        <time>2012-06-13T06:37:22.000Z</time>
      </trkpt>
      <trkpt lat="44.01124" lon="4.68087">
        <ele>184.1</ele>
        <time>2012-06-13T06:37:24.000Z</time>
      </trkpt>
      <trkpt lat="44.01125" lon="4.68078">
        <ele>184.9</ele>
        <time>2012-06-13T06:37:26.000Z</time>
      </trkpt>
      <trkpt lat="44.01126" lon="4.68072">
        <ele>184.7</ele>
        <time>2012-06-13T06:37:28.000Z</time>
      </trkpt>
      <trkpt lat="44.01126" lon="4.68064">
        <ele>184.8</ele>
        <time>2012-06-13T06:37:30.000Z</time>
      </trkpt>
      <trkpt lat="44.01128" lon="4.68057">
        <ele>185.4</ele>
        <time>2012-06-13T06:37:32.000Z</time>
      </trkpt>
      <trkpt lat="44.01127" lon="4.68049">
        <ele>185.9</ele>
        <time>2012-06-13T06:37:34.000Z</time>
      </trkpt>
      <trkpt lat="44.01127" lon="4.68041">
        <ele>185.4</ele>
        <time>2012-06-13T06:37:36.000Z</time>
      </trkpt>
      <trkpt lat="44.01128" lon="4.68034">
        <ele>185.8</ele>
        <time>2012-06-13T06:37:38.000Z</time>
      </trkpt>
      <trkpt lat="44.01127" lon="4.68025">
        <ele>186.6</ele>
        <time>2012-06-13T06:37:41.000Z</time>
      </trkpt>
      <trkpt lat="44.01127" lon="4.68018">
        <ele>187.2</ele>
        <time>2012-06-13T06:37:43.000Z</time>
      </trkpt>
      <trkpt lat="44.01127" lon="4.68011">
        <ele>187</ele>
        <time>2012-06-13T06:37:45.000Z</time>
      </trkpt>
      <trkpt lat="44.01127" lon="4.68002">
        <ele>185.7</ele>
        <time>2012-06-13T06:37:48.000Z</time>
      </trkpt>
      <trkpt lat="44.01128" lon="4.67995">
        <ele>186.2</ele>
        <time>2012-06-13T06:37:50.000Z</time>
      </trkpt>
      <trkpt lat="44.01128" lon="4.67986">
        <ele>186.3</ele>
        <time>2012-06-13T06:37:52.000Z</time>
      </trkpt>
      <trkpt lat="44.0113" lon="4.67976">
        <ele>187.5</ele>
        <time>2012-06-13T06:37:55.000Z</time>
      </trkpt>
      <trkpt lat="44.01131" lon="4.67969">
        <ele>187.5</ele>
        <time>2012-06-13T06:37:57.000Z</time>
      </trkpt>
      <trkpt lat="44.01132" lon="4.67961">
        <ele>187.5</ele>
        <time>2012-06-13T06:37:59.000Z</time>
      </trkpt>
      <trkpt lat="44.01133" lon="4.67954">
        <ele>187.8</ele>
        <time>2012-06-13T06:38:01.000Z</time>
      </trkpt>
      <trkpt lat="44.01134" lon="4.67946">
        <ele>188.1</ele>
        <time>2012-06-13T06:38:03.000Z</time>
      </trkpt>
      <trkpt lat="44.01134" lon="4.6794">
        <ele>187.9</ele>
        <time>2012-06-13T06:38:05.000Z</time>
      </trkpt>
      <trkpt lat="44.01133" lon="4.67933">
        <ele>188.7</ele>
        <time>2012-06-13T06:38:07.000Z</time>
      </trkpt>
      <trkpt lat="44.01134" lon="4.67923">
        <ele>187.9</ele>
        <time>2012-06-13T06:38:10.000Z</time>
      </trkpt>
      <trkpt lat="44.01133" lon="4.67915">
        <ele>189.1</ele>
        <time>2012-06-13T06:38:13.000Z</time>
      </trkpt>
      <trkpt lat="44.01133" lon="4.67907">
        <ele>189.6</ele>
        <time>2012-06-13T06:38:15.000Z</time>
      </trkpt>
      <trkpt lat="44.01133" lon="4.679">
        <ele>189.2</ele>
        <time>2012-06-13T06:38:17.000Z</time>
      </trkpt>
      <trkpt lat="44.01135" lon="4.67891">
        <ele>189.3</ele>
        <time>2012-06-13T06:38:19.000Z</time>
      </trkpt>
      <trkpt lat="44.01137" lon="4.67884">
        <ele>190.1</ele>
        <time>2012-06-13T06:38:21.000Z</time>
      </trkpt>
      <trkpt lat="44.01138" lon="4.67877">
        <ele>189.8</ele>
        <time>2012-06-13T06:38:23.000Z</time>
      </trkpt>
      <trkpt lat="44.01138" lon="4.67868">
        <ele>189.2</ele>
        <time>2012-06-13T06:38:26.000Z</time>
      </trkpt>
      <trkpt lat="44.01139" lon="4.6786">
        <ele>190</ele>
        <time>2012-06-13T06:38:28.000Z</time>
      </trkpt>
      <trkpt lat="44.01141" lon="4.67853">
        <ele>189.8</ele>
        <time>2012-06-13T06:38:30.000Z</time>
      </trkpt>
      <trkpt lat="44.01142" lon="4.67844">
        <ele>190.9</ele>
        <time>2012-06-13T06:38:33.000Z</time>
      </trkpt>
      <trkpt lat="44.0114" lon="4.67836">
        <ele>192.7</ele>
        <time>2012-06-13T06:38:35.000Z</time>
      </trkpt>
      <trkpt lat="44.0114" lon="4.6783">
        <ele>192.6</ele>
        <time>2012-06-13T06:38:37.000Z</time>
      </trkpt>
      <trkpt lat="44.01139" lon="4.67823">
        <ele>193.5</ele>
        <time>2012-06-13T06:38:39.000Z</time>
      </trkpt>
      <trkpt lat="44.0114" lon="4.67815">
        <ele>193.7</ele>
        <time>2012-06-13T06:38:41.000Z</time>
      </trkpt>
      <trkpt lat="44.01142" lon="4.67807">
        <ele>194</ele>
        <time>2012-06-13T06:38:43.000Z</time>
      </trkpt>
      <trkpt lat="44.01143" lon="4.678">
        <ele>194.4</ele>
        <time>2012-06-13T06:38:45.000Z</time>
      </trkpt>
      <trkpt lat="44.01145" lon="4.67794">
        <ele>195</ele>
        <time>2012-06-13T06:38:47.000Z</time>
      </trkpt>
      <trkpt lat="44.01146" lon="4.67787">
        <ele>195.8</ele>
        <time>2012-06-13T06:38:49.000Z</time>
      </trkpt>
      <trkpt lat="44.01145" lon="4.67778">
        <ele>196.6</ele>
        <time>2012-06-13T06:38:51.000Z</time>
      </trkpt>
      <trkpt lat="44.01146" lon="4.67769">
        <ele>197.8</ele>
        <time>2012-06-13T06:38:54.000Z</time>
      </trkpt>
      <trkpt lat="44.01146" lon="4.67762">
        <ele>197.6</ele>
        <time>2012-06-13T06:38:56.000Z</time>
      </trkpt>
      <trkpt lat="44.01146" lon="4.67755">
        <ele>197.4</ele>
        <time>2012-06-13T06:38:58.000Z</time>
      </trkpt>
      <trkpt lat="44.01146" lon="4.67746">
        <ele>198.3</ele>
        <time>2012-06-13T06:39:00.000Z</time>
      </trkpt>
      <trkpt lat="44.01146" lon="4.67737">
        <ele>197.2</ele>
        <time>2012-06-13T06:39:02.000Z</time>
      </trkpt>
      <trkpt lat="44.01147" lon="4.67728">
        <ele>197.4</ele>
        <time>2012-06-13T06:39:05.000Z</time>
      </trkpt>
      <trkpt lat="44.01147" lon="4.6772">
        <ele>196.7</ele>
        <time>2012-06-13T06:39:07.000Z</time>
      </trkpt>
      <trkpt lat="44.01147" lon="4.67712">
        <ele>196.9</ele>
        <time>2012-06-13T06:39:09.000Z</time>
      </trkpt>
      <trkpt lat="44.01148" lon="4.67702">
        <ele>196.3</ele>
        <time>2012-06-13T06:39:11.000Z</time>
      </trkpt>
      <trkpt lat="44.01148" lon="4.67696">
        <ele>195.7</ele>
        <time>2012-06-13T06:39:13.000Z</time>
      </trkpt>
      <trkpt lat="44.0115" lon="4.67688">
        <ele>196.1</ele>
        <time>2012-06-13T06:39:15.000Z</time>
      </trkpt>
      <trkpt lat="44.01148" lon="4.6768">
        <ele>195.6</ele>
        <time>2012-06-13T06:39:17.000Z</time>
      </trkpt>
      <trkpt lat="44.01149" lon="4.67671">
        <ele>196.6</ele>
        <time>2012-06-13T06:39:19.000Z</time>
      </trkpt>
      <trkpt lat="44.01152" lon="4.67662">
        <ele>197.2</ele>
        <time>2012-06-13T06:39:21.000Z</time>
      </trkpt>
      <trkpt lat="44.01152" lon="4.67656">
        <ele>197.5</ele>
        <time>2012-06-13T06:39:23.000Z</time>
      </trkpt>
      <trkpt lat="44.01152" lon="4.67647">
        <ele>197.4</ele>
        <time>2012-06-13T06:39:25.000Z</time>
      </trkpt>
      <trkpt lat="44.01152" lon="4.6764">
        <ele>197.5</ele>
        <time>2012-06-13T06:39:27.000Z</time>
      </trkpt>
      <trkpt lat="44.01152" lon="4.67633">
        <ele>197.1</ele>
        <time>2012-06-13T06:39:28.000Z</time>
      </trkpt>
      <trkpt lat="44.01152" lon="4.67625">
        <ele>196.7</ele>
        <time>2012-06-13T06:39:31.000Z</time>
      </trkpt>
      <trkpt lat="44.01154" lon="4.67618">
        <ele>198.1</ele>
        <time>2012-06-13T06:39:34.000Z</time>
      </trkpt>
      <trkpt lat="44.01153" lon="4.67612">
        <ele>198</ele>
        <time>2012-06-13T06:39:36.000Z</time>
      </trkpt>
      <trkpt lat="44.01154" lon="4.67605">
        <ele>197.9</ele>
        <time>2012-06-13T06:39:38.000Z</time>
      </trkpt>
      <trkpt lat="44.01156" lon="4.67596">
        <ele>198.2</ele>
        <time>2012-06-13T06:39:41.000Z</time>
      </trkpt>
      <trkpt lat="44.01159" lon="4.67589">
        <ele>197.4</ele>
        <time>2012-06-13T06:39:43.000Z</time>
      </trkpt>
      <trkpt lat="44.01159" lon="4.67581">
        <ele>198.2</ele>
        <time>2012-06-13T06:39:45.000Z</time>
      </trkpt>
      <trkpt lat="44.01159" lon="4.6757">
        <ele>198</ele>
        <time>2012-06-13T06:39:48.000Z</time>
      </trkpt>
      <trkpt lat="44.0116" lon="4.67563">
        <ele>198.8</ele>
        <time>2012-06-13T06:39:50.000Z</time>
      </trkpt>
      <trkpt lat="44.01159" lon="4.67553">
        <ele>199.1</ele>
        <time>2012-06-13T06:39:52.000Z</time>
      </trkpt>
      <trkpt lat="44.01159" lon="4.67546">
        <ele>198.5</ele>
        <time>2012-06-13T06:39:54.000Z</time>
      </trkpt>
      <trkpt lat="44.0116" lon="4.67538">
        <ele>198.3</ele>
        <time>2012-06-13T06:39:56.000Z</time>
      </trkpt>
      <trkpt lat="44.01159" lon="4.67526">
        <ele>198.5</ele>
        <time>2012-06-13T06:39:58.000Z</time>
      </trkpt>
      <trkpt lat="44.01158" lon="4.67514">
        <ele>197.9</ele>
        <time>2012-06-13T06:40:00.000Z</time>
      </trkpt>
      <trkpt lat="44.01159" lon="4.67506">
        <ele>197.6</ele>
        <time>2012-06-13T06:40:02.000Z</time>
      </trkpt>
      <trkpt lat="44.01158" lon="4.67498">
        <ele>198.4</ele>
        <time>2012-06-13T06:40:04.000Z</time>
      </trkpt>
      <trkpt lat="44.0116" lon="4.67489">
        <ele>200.2</ele>
        <time>2012-06-13T06:40:07.000Z</time>
      </trkpt>
      <trkpt lat="44.01161" lon="4.6748">
        <ele>200.4</ele>
        <time>2012-06-13T06:40:10.000Z</time>
      </trkpt>
      <trkpt lat="44.01162" lon="4.67473">
        <ele>201</ele>
        <time>2012-06-13T06:40:12.000Z</time>
      </trkpt>
      <trkpt lat="44.01164" lon="4.67464">
        <ele>202.1</ele>
        <time>2012-06-13T06:40:16.000Z</time>
      </trkpt>
      <trkpt lat="44.01164" lon="4.67454">
        <ele>201.2</ele>
        <time>2012-06-13T06:40:18.000Z</time>
      </trkpt>
      <trkpt lat="44.01164" lon="4.67446">
        <ele>200.1</ele>
        <time>2012-06-13T06:40:20.000Z</time>
      </trkpt>
      <trkpt lat="44.01164" lon="4.6744">
        <ele>199.9</ele>
        <time>2012-06-13T06:40:21.000Z</time>
      </trkpt>
      <trkpt lat="44.01165" lon="4.67432">
        <ele>199.2</ele>
        <time>2012-06-13T06:40:23.000Z</time>
      </trkpt>
      <trkpt lat="44.01166" lon="4.67424">
        <ele>199.1</ele>
        <time>2012-06-13T06:40:25.000Z</time>
      </trkpt>
      <trkpt lat="44.01163" lon="4.67413">
        <ele>198.9</ele>
        <time>2012-06-13T06:40:28.000Z</time>
      </trkpt>
      <trkpt lat="44.01163" lon="4.67406">
        <ele>199</ele>
        <time>2012-06-13T06:40:30.000Z</time>
      </trkpt>
      <trkpt lat="44.01162" lon="4.67397">
        <ele>198.9</ele>
        <time>2012-06-13T06:40:32.000Z</time>
      </trkpt>
      <trkpt lat="44.01164" lon="4.67391">
        <ele>197.7</ele>
        <time>2012-06-13T06:40:35.000Z</time>
      </trkpt>
      <trkpt lat="44.01165" lon="4.67384">
        <ele>197.8</ele>
        <time>2012-06-13T06:40:37.000Z</time>
      </trkpt>
      <trkpt lat="44.01164" lon="4.67375">
        <ele>199.1</ele>
        <time>2012-06-13T06:40:39.000Z</time>
      </trkpt>
      <trkpt lat="44.01164" lon="4.67365">
        <ele>199.4</ele>
        <time>2012-06-13T06:40:41.000Z</time>
      </trkpt>
      <trkpt lat="44.01166" lon="4.67358">
        <ele>198.6</ele>
        <time>2012-06-13T06:40:43.000Z</time>
      </trkpt>
      <trkpt lat="44.01167" lon="4.6735">
        <ele>199.6</ele>
        <time>2012-06-13T06:40:45.000Z</time>
      </trkpt>
      <trkpt lat="44.0117" lon="4.67344">
        <ele>199.4</ele>
        <time>2012-06-13T06:40:47.000Z</time>
      </trkpt>
      <trkpt lat="44.0117" lon="4.67335">
        <ele>199.6</ele>
        <time>2012-06-13T06:40:49.000Z</time>
      </trkpt>
      <trkpt lat="44.0117" lon="4.67328">
        <ele>200.2</ele>
        <time>2012-06-13T06:40:50.000Z</time>
      </trkpt>
      <trkpt lat="44.01172" lon="4.67321">
        <ele>199.9</ele>
        <time>2012-06-13T06:40:52.000Z</time>
      </trkpt>
      <trkpt lat="44.01173" lon="4.67312">
        <ele>200.2</ele>
        <time>2012-06-13T06:40:54.000Z</time>
      </trkpt>
      <trkpt lat="44.01171" lon="4.67304">
        <ele>200.8</ele>
        <time>2012-06-13T06:40:55.000Z</time>
      </trkpt>
      <trkpt lat="44.01172" lon="4.67296">
        <ele>200.3</ele>
        <time>2012-06-13T06:40:57.000Z</time>
      </trkpt>
      <trkpt lat="44.01175" lon="4.67287">
        <ele>200.2</ele>
        <time>2012-06-13T06:40:59.000Z</time>
      </trkpt>
      <trkpt lat="44.01177" lon="4.67278">
        <ele>200</ele>
        <time>2012-06-13T06:41:01.000Z</time>
      </trkpt>
      <trkpt lat="44.01177" lon="4.67268">
        <ele>198.4</ele>
        <time>2012-06-13T06:41:03.000Z</time>
      </trkpt>
      <trkpt lat="44.01176" lon="4.67261">
        <ele>197.9</ele>
        <time>2012-06-13T06:41:04.000Z</time>
      </trkpt>
      <trkpt lat="44.01176" lon="4.67253">
        <ele>198.3</ele>
        <time>2012-06-13T06:41:05.000Z</time>
      </trkpt>
      <trkpt lat="44.01177" lon="4.67247">
        <ele>197.9</ele>
        <time>2012-06-13T06:41:06.000Z</time>
      </trkpt>
      <trkpt lat="44.01177" lon="4.67237">
        <ele>197.7</ele>
        <time>2012-06-13T06:41:08.000Z</time>
      </trkpt>
      <trkpt lat="44.01178" lon="4.67226">
        <ele>198.2</ele>
        <time>2012-06-13T06:41:10.000Z</time>
      </trkpt>
      <trkpt lat="44.01178" lon="4.67217">
        <ele>198.5</ele>
        <time>2012-06-13T06:41:12.000Z</time>
      </trkpt>
      <trkpt lat="44.0118" lon="4.67206">
        <ele>199.1</ele>
        <time>2012-06-13T06:41:14.000Z</time>
      </trkpt>
      <trkpt lat="44.0118" lon="4.67197">
        <ele>199.6</ele>
        <time>2012-06-13T06:41:16.000Z</time>
      </trkpt>
      <trkpt lat="44.0118" lon="4.67187">
        <ele>199.4</ele>
        <time>2012-06-13T06:41:18.000Z</time>
      </trkpt>
      <trkpt lat="44.0118" lon="4.67177">
        <ele>199.8</ele>
        <time>2012-06-13T06:41:20.000Z</time>
      </trkpt>
      <trkpt lat="44.01179" lon="4.67169">
        <ele>199.7</ele>
        <time>2012-06-13T06:41:21.000Z</time>
      </trkpt>
      <trkpt lat="44.01178" lon="4.67162">
        <ele>199.9</ele>
        <time>2012-06-13T06:41:22.000Z</time>
      </trkpt>
      <trkpt lat="44.01177" lon="4.67152">
        <ele>199.8</ele>
        <time>2012-06-13T06:41:24.000Z</time>
      </trkpt>
      <trkpt lat="44.01176" lon="4.67145">
        <ele>199.9</ele>
        <time>2012-06-13T06:41:25.000Z</time>
      </trkpt>
      <trkpt lat="44.01176" lon="4.67138">
        <ele>198.6</ele>
        <time>2012-06-13T06:41:26.000Z</time>
      </trkpt>
      <trkpt lat="44.01176" lon="4.67129">
        <ele>197.8</ele>
        <time>2012-06-13T06:41:28.000Z</time>
      </trkpt>
      <trkpt lat="44.01175" lon="4.6712">
        <ele>198.7</ele>
        <time>2012-06-13T06:41:31.000Z</time>
      </trkpt>
      <trkpt lat="44.01174" lon="4.6711">
        <ele>198.3</ele>
        <time>2012-06-13T06:41:33.000Z</time>
      </trkpt>
      <trkpt lat="44.01173" lon="4.671">
        <ele>199.8</ele>
        <time>2012-06-13T06:41:35.000Z</time>
      </trkpt>
      <trkpt lat="44.01172" lon="4.6709">
        <ele>199.9</ele>
        <time>2012-06-13T06:41:37.000Z</time>
      </trkpt>
      <trkpt lat="44.01171" lon="4.6708">
        <ele>200.4</ele>
        <time>2012-06-13T06:41:39.000Z</time>
      </trkpt>
      <trkpt lat="44.01171" lon="4.67069">
        <ele>200.4</ele>
        <time>2012-06-13T06:41:41.000Z</time>
      </trkpt>
      <trkpt lat="44.0117" lon="4.67059">
        <ele>201.1</ele>
        <time>2012-06-13T06:41:43.000Z</time>
      </trkpt>
      <trkpt lat="44.0117" lon="4.67049">
        <ele>200.8</ele>
        <time>2012-06-13T06:41:45.000Z</time>
      </trkpt>
      <trkpt lat="44.01169" lon="4.67039">
        <ele>200.9</ele>
        <time>2012-06-13T06:41:47.000Z</time>
      </trkpt>
      <trkpt lat="44.01167" lon="4.67032">
        <ele>200.4</ele>
        <time>2012-06-13T06:41:49.000Z</time>
      </trkpt>
      <trkpt lat="44.01165" lon="4.6702">
        <ele>201.5</ele>
        <time>2012-06-13T06:41:51.000Z</time>
      </trkpt>
      <trkpt lat="44.01164" lon="4.6701">
        <ele>201.6</ele>
        <time>2012-06-13T06:41:53.000Z</time>
      </trkpt>
      <trkpt lat="44.01163" lon="4.66999">
        <ele>201.4</ele>
        <time>2012-06-13T06:41:55.000Z</time>
      </trkpt>
      <trkpt lat="44.01162" lon="4.6699">
        <ele>199.2</ele>
        <time>2012-06-13T06:41:57.000Z</time>
      </trkpt>
      <trkpt lat="44.0116" lon="4.66981">
        <ele>198</ele>
        <time>2012-06-13T06:41:59.000Z</time>
      </trkpt>
      <trkpt lat="44.0116" lon="4.66972">
        <ele>197.9</ele>
        <time>2012-06-13T06:42:01.000Z</time>
      </trkpt>
      <trkpt lat="44.01159" lon="4.66964">
        <ele>197.9</ele>
        <time>2012-06-13T06:42:03.000Z</time>
      </trkpt>
      <trkpt lat="44.01158" lon="4.66955">
        <ele>198.6</ele>
        <time>2012-06-13T06:42:05.000Z</time>
      </trkpt>
      <trkpt lat="44.01157" lon="4.66944">
        <ele>199.1</ele>
        <time>2012-06-13T06:42:07.000Z</time>
      </trkpt>
      <trkpt lat="44.01155" lon="4.66934">
        <ele>199</ele>
        <time>2012-06-13T06:42:09.000Z</time>
      </trkpt>
      <trkpt lat="44.01154" lon="4.66925">
        <ele>199.2</ele>
        <time>2012-06-13T06:42:11.000Z</time>
      </trkpt>
      <trkpt lat="44.01153" lon="4.66917">
        <ele>199.9</ele>
        <time>2012-06-13T06:42:13.000Z</time>
      </trkpt>
      <trkpt lat="44.01152" lon="4.66909">
        <ele>200.7</ele>
        <time>2012-06-13T06:42:15.000Z</time>
      </trkpt>
      <trkpt lat="44.01152" lon="4.66903">
        <ele>201.7</ele>
        <time>2012-06-13T06:42:17.000Z</time>
      </trkpt>
      <trkpt lat="44.01152" lon="4.66896">
        <ele>202.1</ele>
        <time>2012-06-13T06:42:19.000Z</time>
      </trkpt>
      <trkpt lat="44.01151" lon="4.66889">
        <ele>201.6</ele>
        <time>2012-06-13T06:42:21.000Z</time>
      </trkpt>
      <trkpt lat="44.0115" lon="4.66882">
        <ele>201.8</ele>
        <time>2012-06-13T06:42:23.000Z</time>
      </trkpt>
      <trkpt lat="44.0115" lon="4.66871">
        <ele>202.9</ele>
        <time>2012-06-13T06:42:26.000Z</time>
      </trkpt>
      <trkpt lat="44.0115" lon="4.66862">
        <ele>203.1</ele>
        <time>2012-06-13T06:42:28.000Z</time>
      </trkpt>
      <trkpt lat="44.0115" lon="4.66855">
        <ele>204.1</ele>
        <time>2012-06-13T06:42:30.000Z</time>
      </trkpt>
      <trkpt lat="44.01148" lon="4.66848">
        <ele>204.9</ele>
        <time>2012-06-13T06:42:32.000Z</time>
      </trkpt>
      <trkpt lat="44.01147" lon="4.66838">
        <ele>205.1</ele>
        <time>2012-06-13T06:42:35.000Z</time>
      </trkpt>
      <trkpt lat="44.01146" lon="4.66831">
        <ele>204.8</ele>
        <time>2012-06-13T06:42:37.000Z</time>
      </trkpt>
      <trkpt lat="44.01144" lon="4.66823">
        <ele>205.6</ele>
        <time>2012-06-13T06:42:39.000Z</time>
      </trkpt>
      <trkpt lat="44.01142" lon="4.66816">
        <ele>205.2</ele>
        <time>2012-06-13T06:42:42.000Z</time>
      </trkpt>
      <trkpt lat="44.01143" lon="4.66807">
        <ele>204.9</ele>
        <time>2012-06-13T06:42:45.000Z</time>
      </trkpt>
      <trkpt lat="44.01143" lon="4.66798">
        <ele>205.4</ele>
        <time>2012-06-13T06:42:47.000Z</time>
      </trkpt>
      <trkpt lat="44.01143" lon="4.6679">
        <ele>205.8</ele>
        <time>2012-06-13T06:42:49.000Z</time>
      </trkpt>
      <trkpt lat="44.01142" lon="4.66783">
        <ele>206.3</ele>
        <time>2012-06-13T06:42:51.000Z</time>
      </trkpt>
      <trkpt lat="44.01143" lon="4.66775">
        <ele>206.4</ele>
        <time>2012-06-13T06:42:54.000Z</time>
      </trkpt>
      <trkpt lat="44.01143" lon="4.66766">
        <ele>206.2</ele>
        <time>2012-06-13T06:42:57.000Z</time>
      </trkpt>
      <trkpt lat="44.01144" lon="4.6676">
        <ele>205.9</ele>
        <time>2012-06-13T06:42:59.000Z</time>
      </trkpt>
      <trkpt lat="44.01145" lon="4.6675">
        <ele>206.9</ele>
        <time>2012-06-13T06:43:02.000Z</time>
      </trkpt>
      <trkpt lat="44.01148" lon="4.66743">
        <ele>207.9</ele>
        <time>2012-06-13T06:43:04.000Z</time>
      </trkpt>
      <trkpt lat="44.0115" lon="4.66736">
        <ele>207.5</ele>
        <time>2012-06-13T06:43:06.000Z</time>
      </trkpt>
      <trkpt lat="44.01152" lon="4.66729">
        <ele>208.3</ele>
        <time>2012-06-13T06:43:08.000Z</time>
      </trkpt>
      <trkpt lat="44.01153" lon="4.66721">
        <ele>208.4</ele>
        <time>2012-06-13T06:43:10.000Z</time>
      </trkpt>
      <trkpt lat="44.01154" lon="4.66713">
        <ele>209.5</ele>
        <time>2012-06-13T06:43:12.000Z</time>
      </trkpt>
      <trkpt lat="44.01155" lon="4.66705">
        <ele>210.3</ele>
        <time>2012-06-13T06:43:14.000Z</time>
      </trkpt>
      <trkpt lat="44.01157" lon="4.66699">
        <ele>210.4</ele>
        <time>2012-06-13T06:43:16.000Z</time>
      </trkpt>
      <trkpt lat="44.01159" lon="4.66692">
        <ele>211</ele>
        <time>2012-06-13T06:43:18.000Z</time>
      </trkpt>
      <trkpt lat="44.0116" lon="4.66685">
        <ele>211.4</ele>
        <time>2012-06-13T06:43:20.000Z</time>
      </trkpt>
      <trkpt lat="44.01161" lon="4.66678">
        <ele>211.6</ele>
        <time>2012-06-13T06:43:22.000Z</time>
      </trkpt>
      <trkpt lat="44.01163" lon="4.66671">
        <ele>212.4</ele>
        <time>2012-06-13T06:43:24.000Z</time>
      </trkpt>
      <trkpt lat="44.01164" lon="4.66665">
        <ele>212.3</ele>
        <time>2012-06-13T06:43:26.000Z</time>
      </trkpt>
      <trkpt lat="44.01167" lon="4.66658">
        <ele>213.4</ele>
        <time>2012-06-13T06:43:28.000Z</time>
      </trkpt>
      <trkpt lat="44.01169" lon="4.6665">
        <ele>214</ele>
        <time>2012-06-13T06:43:30.000Z</time>
      </trkpt>
      <trkpt lat="44.01172" lon="4.66642">
        <ele>213.6</ele>
        <time>2012-06-13T06:43:32.000Z</time>
      </trkpt>
      <trkpt lat="44.01173" lon="4.66633">
        <ele>213.9</ele>
        <time>2012-06-13T06:43:35.000Z</time>
      </trkpt>
      <trkpt lat="44.01175" lon="4.66625">
        <ele>214.6</ele>
        <time>2012-06-13T06:43:37.000Z</time>
      </trkpt>
      <trkpt lat="44.01176" lon="4.66619">
        <ele>214.6</ele>
        <time>2012-06-13T06:43:39.000Z</time>
      </trkpt>
      <trkpt lat="44.01178" lon="4.66612">
        <ele>214.2</ele>
        <time>2012-06-13T06:43:41.000Z</time>
      </trkpt>
      <trkpt lat="44.0118" lon="4.66607">
        <ele>214.1</ele>
        <time>2012-06-13T06:43:43.000Z</time>
      </trkpt>
      <trkpt lat="44.01181" lon="4.666">
        <ele>214.2</ele>
        <time>2012-06-13T06:43:45.000Z</time>
      </trkpt>
      <trkpt lat="44.01183" lon="4.66591">
        <ele>214.5</ele>
        <time>2012-06-13T06:43:48.000Z</time>
      </trkpt>
      <trkpt lat="44.01185" lon="4.66584">
        <ele>215.1</ele>
        <time>2012-06-13T06:43:50.000Z</time>
      </trkpt>
      <trkpt lat="44.01188" lon="4.66576">
        <ele>216.2</ele>
        <time>2012-06-13T06:43:53.000Z</time>
      </trkpt>
      <trkpt lat="44.0119" lon="4.66569">
        <ele>216.9</ele>
        <time>2012-06-13T06:43:55.000Z</time>
      </trkpt>
      <trkpt lat="44.01193" lon="4.66563">
        <ele>216.5</ele>
        <time>2012-06-13T06:43:57.000Z</time>
      </trkpt>
      <trkpt lat="44.01194" lon="4.66556">
        <ele>215.6</ele>
        <time>2012-06-13T06:43:59.000Z</time>
      </trkpt>
      <trkpt lat="44.01196" lon="4.66547">
        <ele>215.3</ele>
        <time>2012-06-13T06:44:02.000Z</time>
      </trkpt>
      <trkpt lat="44.01197" lon="4.66541">
        <ele>215.8</ele>
        <time>2012-06-13T06:44:04.000Z</time>
      </trkpt>
      <trkpt lat="44.01199" lon="4.66534">
        <ele>215.9</ele>
        <time>2012-06-13T06:44:06.000Z</time>
      </trkpt>
      <trkpt lat="44.01201" lon="4.66527">
        <ele>215.6</ele>
        <time>2012-06-13T06:44:08.000Z</time>
      </trkpt>
      <trkpt lat="44.01202" lon="4.66521">
        <ele>216.7</ele>
        <time>2012-06-13T06:44:10.000Z</time>
      </trkpt>
      <trkpt lat="44.01205" lon="4.66512">
        <ele>217.2</ele>
        <time>2012-06-13T06:44:13.000Z</time>
      </trkpt>
      <trkpt lat="44.01206" lon="4.66505">
        <ele>218.3</ele>
        <time>2012-06-13T06:44:15.000Z</time>
      </trkpt>
      <trkpt lat="44.01208" lon="4.66498">
        <ele>218.9</ele>
        <time>2012-06-13T06:44:17.000Z</time>
      </trkpt>
      <trkpt lat="44.0121" lon="4.66492">
        <ele>219.1</ele>
        <time>2012-06-13T06:44:19.000Z</time>
      </trkpt>
      <trkpt lat="44.01212" lon="4.66485">
        <ele>222.4</ele>
        <time>2012-06-13T06:44:21.000Z</time>
      </trkpt>
      <trkpt lat="44.01214" lon="4.66479">
        <ele>222.2</ele>
        <time>2012-06-13T06:44:23.000Z</time>
      </trkpt>
      <trkpt lat="44.01217" lon="4.66473">
        <ele>222.4</ele>
        <time>2012-06-13T06:44:25.000Z</time>
      </trkpt>
      <trkpt lat="44.0122" lon="4.66467">
        <ele>222.9</ele>
        <time>2012-06-13T06:44:27.000Z</time>
      </trkpt>
      <trkpt lat="44.01219" lon="4.66475">
        <ele>221.8</ele>
        <time>2012-06-13T06:44:32.000Z</time>
      </trkpt>
      <trkpt lat="44.01216" lon="4.66481">
        <ele>220.3</ele>
        <time>2012-06-13T06:44:33.000Z</time>
      </trkpt>
      <trkpt lat="44.0121" lon="4.66484">
        <ele>220.3</ele>
        <time>2012-06-13T06:44:35.000Z</time>
      </trkpt>
      <trkpt lat="44.01214" lon="4.6648">
        <ele>219.3</ele>
        <time>2012-06-13T06:44:36.000Z</time>
      </trkpt>
      <trkpt lat="44.0122" lon="4.66474">
        <ele>218.2</ele>
        <time>2012-06-13T06:44:37.000Z</time>
      </trkpt>
      <trkpt lat="44.01226" lon="4.66468">
        <ele>217</ele>
        <time>2012-06-13T06:44:38.000Z</time>
      </trkpt>
      <trkpt lat="44.01231" lon="4.66466">
        <ele>216.9</ele>
        <time>2012-06-13T06:44:39.000Z</time>
      </trkpt>
      <trkpt lat="44.01234" lon="4.6646">
        <ele>216</ele>
        <time>2012-06-13T06:44:40.000Z</time>
      </trkpt>
      <trkpt lat="44.01238" lon="4.66448">
        <ele>215.9</ele>
        <time>2012-06-13T06:44:42.000Z</time>
      </trkpt>
      <trkpt lat="44.0124" lon="4.6644">
        <ele>215.5</ele>
        <time>2012-06-13T06:44:43.000Z</time>
      </trkpt>
      <trkpt lat="44.01246" lon="4.66433">
        <ele>216.1</ele>
        <time>2012-06-13T06:44:45.000Z</time>
      </trkpt>
      <trkpt lat="44.0125" lon="4.66425">
        <ele>215.2</ele>
        <time>2012-06-13T06:44:47.000Z</time>
      </trkpt>
      <trkpt lat="44.01255" lon="4.66422">
        <ele>215.3</ele>
        <time>2012-06-13T06:44:49.000Z</time>
      </trkpt>
      <trkpt lat="44.01258" lon="4.66417">
        <ele>215.8</ele>
        <time>2012-06-13T06:44:51.000Z</time>
      </trkpt>
      <trkpt lat="44.01261" lon="4.66411">
        <ele>215.4</ele>
        <time>2012-06-13T06:44:53.000Z</time>
      </trkpt>
      <trkpt lat="44.01265" lon="4.66406">
        <ele>215.5</ele>
        <time>2012-06-13T06:44:56.000Z</time>
      </trkpt>
      <trkpt lat="44.01268" lon="4.66401">
        <ele>216.2</ele>
        <time>2012-06-13T06:44:58.000Z</time>
      </trkpt>
      <trkpt lat="44.01272" lon="4.66396">
        <ele>216.6</ele>
        <time>2012-06-13T06:45:00.000Z</time>
      </trkpt>
      <trkpt lat="44.01275" lon="4.6639">
        <ele>217.7</ele>
        <time>2012-06-13T06:45:02.000Z</time>
      </trkpt>
      <trkpt lat="44.0128" lon="4.66386">
        <ele>219.1</ele>
        <time>2012-06-13T06:45:05.000Z</time>
      </trkpt>
      <trkpt lat="44.01284" lon="4.66382">
        <ele>218</ele>
        <time>2012-06-13T06:45:07.000Z</time>
      </trkpt>
      <trkpt lat="44.01288" lon="4.6638">
        <ele>218.3</ele>
        <time>2012-06-13T06:45:09.000Z</time>
      </trkpt>
      <trkpt lat="44.01291" lon="4.66376">
        <ele>218.8</ele>
        <time>2012-06-13T06:45:11.000Z</time>
      </trkpt>
      <trkpt lat="44.01297" lon="4.66368">
        <ele>220.7</ele>
        <time>2012-06-13T06:45:14.000Z</time>
      </trkpt>
      <trkpt lat="44.01301" lon="4.66364">
        <ele>220.2</ele>
        <time>2012-06-13T06:45:16.000Z</time>
      </trkpt>
      <trkpt lat="44.01304" lon="4.66358">
        <ele>220.2</ele>
        <time>2012-06-13T06:45:18.000Z</time>
      </trkpt>
      <trkpt lat="44.0131" lon="4.66353">
        <ele>220.2</ele>
        <time>2012-06-13T06:45:21.000Z</time>
      </trkpt>
      <trkpt lat="44.01314" lon="4.66347">
        <ele>220.7</ele>
        <time>2012-06-13T06:45:24.000Z</time>
      </trkpt>
      <trkpt lat="44.0132" lon="4.66343">
        <ele>220.9</ele>
        <time>2012-06-13T06:45:27.000Z</time>
      </trkpt>
      <trkpt lat="44.01324" lon="4.6634">
        <ele>221.5</ele>
        <time>2012-06-13T06:45:29.000Z</time>
      </trkpt>
      <trkpt lat="44.01329" lon="4.66336">
        <ele>222.1</ele>
        <time>2012-06-13T06:45:32.000Z</time>
      </trkpt>
      <trkpt lat="44.01333" lon="4.66331">
        <ele>223</ele>
        <time>2012-06-13T06:45:35.000Z</time>
      </trkpt>
      <trkpt lat="44.01337" lon="4.66329">
        <ele>224.2</ele>
        <time>2012-06-13T06:45:37.000Z</time>
      </trkpt>
      <trkpt lat="44.0134" lon="4.6632">
        <ele>222.8</ele>
        <time>2012-06-13T06:45:40.000Z</time>
      </trkpt>
      <trkpt lat="44.01343" lon="4.66314">
        <ele>223.8</ele>
        <time>2012-06-13T06:45:42.000Z</time>
      </trkpt>
      <trkpt lat="44.01347" lon="4.66309">
        <ele>225.2</ele>
        <time>2012-06-13T06:45:45.000Z</time>
      </trkpt>
      <trkpt lat="44.0135" lon="4.66302">
        <ele>224.6</ele>
        <time>2012-06-13T06:45:49.000Z</time>
      </trkpt>
      <trkpt lat="44.01356" lon="4.66297">
        <ele>225.4</ele>
        <time>2012-06-13T06:45:52.000Z</time>
      </trkpt>
      <trkpt lat="44.0136" lon="4.66292">
        <ele>227.1</ele>
        <time>2012-06-13T06:45:54.000Z</time>
      </trkpt>
      <trkpt lat="44.01364" lon="4.66288">
        <ele>227.6</ele>
        <time>2012-06-13T06:45:56.000Z</time>
      </trkpt>
      <trkpt lat="44.01367" lon="4.66282">
        <ele>228.3</ele>
        <time>2012-06-13T06:45:58.000Z</time>
      </trkpt>
      <trkpt lat="44.0137" lon="4.66276">
        <ele>229.4</ele>
        <time>2012-06-13T06:46:00.000Z</time>
      </trkpt>
      <trkpt lat="44.01374" lon="4.66269">
        <ele>229.1</ele>
        <time>2012-06-13T06:46:02.000Z</time>
      </trkpt>
      <trkpt lat="44.01377" lon="4.66264">
        <ele>229.4</ele>
        <time>2012-06-13T06:46:04.000Z</time>
      </trkpt>
      <trkpt lat="44.01381" lon="4.66261">
        <ele>233</ele>
        <time>2012-06-13T06:46:52.000Z</time>
      </trkpt>
      <trkpt lat="44.01381" lon="4.66254">
        <ele>234.1</ele>
        <time>2012-06-13T06:48:36.000Z</time>
      </trkpt>
      <trkpt lat="44.01383" lon="4.66247">
        <ele>235.3</ele>
        <time>2012-06-13T06:48:39.000Z</time>
      </trkpt>
      <trkpt lat="44.01384" lon="4.6624">
        <ele>235.2</ele>
        <time>2012-06-13T06:48:44.000Z</time>
      </trkpt>
      <trkpt lat="44.01383" lon="4.6623">
        <ele>235.2</ele>
        <time>2012-06-13T06:48:48.000Z</time>
      </trkpt>
      <trkpt lat="44.01384" lon="4.66222">
        <ele>234.7</ele>
        <time>2012-06-13T06:48:51.000Z</time>
      </trkpt>
      <trkpt lat="44.01385" lon="4.66215">
        <ele>234.8</ele>
        <time>2012-06-13T06:48:54.000Z</time>
      </trkpt>
      <trkpt lat="44.01385" lon="4.66207">
        <ele>235.3</ele>
        <time>2012-06-13T06:48:56.000Z</time>
      </trkpt>
      <trkpt lat="44.01385" lon="4.662">
        <ele>235.4</ele>
        <time>2012-06-13T06:48:58.000Z</time>
      </trkpt>
      <trkpt lat="44.01385" lon="4.66191">
        <ele>236.1</ele>
        <time>2012-06-13T06:49:01.000Z</time>
      </trkpt>
      <trkpt lat="44.01385" lon="4.66182">
        <ele>236.8</ele>
        <time>2012-06-13T06:49:04.000Z</time>
      </trkpt>
      <trkpt lat="44.01386" lon="4.66174">
        <ele>237.1</ele>
        <time>2012-06-13T06:49:07.000Z</time>
      </trkpt>
      <trkpt lat="44.01387" lon="4.66164">
        <ele>237.8</ele>
        <time>2012-06-13T06:49:10.000Z</time>
      </trkpt>
      <trkpt lat="44.01386" lon="4.66156">
        <ele>238.3</ele>
        <time>2012-06-13T06:49:13.000Z</time>
      </trkpt>
      <trkpt lat="44.01387" lon="4.66148">
        <ele>238.3</ele>
        <time>2012-06-13T06:49:16.000Z</time>
      </trkpt>
      <trkpt lat="44.01388" lon="4.6614">
        <ele>238.4</ele>
        <time>2012-06-13T06:49:19.000Z</time>
      </trkpt>
      <trkpt lat="44.01388" lon="4.66134">
        <ele>238.3</ele>
        <time>2012-06-13T06:49:21.000Z</time>
      </trkpt>
      <trkpt lat="44.01388" lon="4.66125">
        <ele>243.8</ele>
        <time>2012-06-13T06:49:24.000Z</time>
      </trkpt>
      <trkpt lat="44.01389" lon="4.66117">
        <ele>245.3</ele>
        <time>2012-06-13T06:49:27.000Z</time>
      </trkpt>
      <trkpt lat="44.01389" lon="4.66109">
        <ele>245.6</ele>
        <time>2012-06-13T06:49:30.000Z</time>
      </trkpt>
      <trkpt lat="44.01389" lon="4.661">
        <ele>245.6</ele>
        <time>2012-06-13T06:49:33.000Z</time>
      </trkpt>
      <trkpt lat="44.0139" lon="4.66091">
        <ele>245.7</ele>
        <time>2012-06-13T06:49:36.000Z</time>
      </trkpt>
      <trkpt lat="44.0139" lon="4.66084">
        <ele>245.7</ele>
        <time>2012-06-13T06:49:38.000Z</time>
      </trkpt>
      <trkpt lat="44.01388" lon="4.66074">
        <ele>245.6</ele>
        <time>2012-06-13T06:49:40.000Z</time>
      </trkpt>
      <trkpt lat="44.01387" lon="4.66063">
        <ele>243.4</ele>
        <time>2012-06-13T06:49:42.000Z</time>
      </trkpt>
      <trkpt lat="44.01388" lon="4.66055">
        <ele>242.4</ele>
        <time>2012-06-13T06:49:44.000Z</time>
      </trkpt>
      <trkpt lat="44.01388" lon="4.66047">
        <ele>241.8</ele>
        <time>2012-06-13T06:49:46.000Z</time>
      </trkpt>
      <trkpt lat="44.01388" lon="4.6604">
        <ele>241.8</ele>
        <time>2012-06-13T06:49:48.000Z</time>
      </trkpt>
      <trkpt lat="44.01386" lon="4.6603">
        <ele>241.8</ele>
        <time>2012-06-13T06:49:51.000Z</time>
      </trkpt>
      <trkpt lat="44.01388" lon="4.66021">
        <ele>241.7</ele>
        <time>2012-06-13T06:49:53.000Z</time>
      </trkpt>
      <trkpt lat="44.01387" lon="4.66013">
        <ele>243.5</ele>
        <time>2012-06-13T06:49:56.000Z</time>
      </trkpt>
      <trkpt lat="44.01387" lon="4.66005">
        <ele>242.5</ele>
        <time>2012-06-13T06:50:00.000Z</time>
      </trkpt>
      <trkpt lat="44.01387" lon="4.65997">
        <ele>243.2</ele>
        <time>2012-06-13T06:50:02.000Z</time>
      </trkpt>
      <trkpt lat="44.01386" lon="4.6599">
        <ele>242.2</ele>
        <time>2012-06-13T06:50:04.000Z</time>
      </trkpt>
      <trkpt lat="44.01387" lon="4.65982">
        <ele>242.8</ele>
        <time>2012-06-13T06:50:06.000Z</time>
      </trkpt>
      <trkpt lat="44.01386" lon="4.65973">
        <ele>242.7</ele>
        <time>2012-06-13T06:50:09.000Z</time>
      </trkpt>
      <trkpt lat="44.01387" lon="4.65966">
        <ele>242.7</ele>
        <time>2012-06-13T06:50:11.000Z</time>
      </trkpt>
      <trkpt lat="44.01386" lon="4.65957">
        <ele>242.7</ele>
        <time>2012-06-13T06:50:13.000Z</time>
      </trkpt>
      <trkpt lat="44.01387" lon="4.65949">
        <ele>242.8</ele>
        <time>2012-06-13T06:50:15.000Z</time>
      </trkpt>
      <trkpt lat="44.01389" lon="4.65942">
        <ele>243.1</ele>
        <time>2012-06-13T06:50:18.000Z</time>
      </trkpt>
      <trkpt lat="44.0139" lon="4.65934">
        <ele>242.6</ele>
        <time>2012-06-13T06:50:21.000Z</time>
      </trkpt>
      <trkpt lat="44.01393" lon="4.65929">
        <ele>243.3</ele>
        <time>2012-06-13T06:50:24.000Z</time>
      </trkpt>
      <trkpt lat="44.01396" lon="4.65922">
        <ele>243.2</ele>
        <time>2012-06-13T06:50:27.000Z</time>
      </trkpt>
      <trkpt lat="44.01399" lon="4.65916">
        <ele>244</ele>
        <time>2012-06-13T06:50:29.000Z</time>
      </trkpt>
      <trkpt lat="44.01401" lon="4.65911">
        <ele>244.2</ele>
        <time>2012-06-13T06:50:31.000Z</time>
      </trkpt>
      <trkpt lat="44.01404" lon="4.65905">
        <ele>244.4</ele>
        <time>2012-06-13T06:50:33.000Z</time>
      </trkpt>
      <trkpt lat="44.01405" lon="4.65898">
        <ele>244.6</ele>
        <time>2012-06-13T06:50:35.000Z</time>
      </trkpt>
      <trkpt lat="44.01409" lon="4.6589">
        <ele>244.1</ele>
        <time>2012-06-13T06:50:38.000Z</time>
      </trkpt>
      <trkpt lat="44.01412" lon="4.65883">
        <ele>243.5</ele>
        <time>2012-06-13T06:50:41.000Z</time>
      </trkpt>
      <trkpt lat="44.01414" lon="4.65874">
        <ele>243.5</ele>
        <time>2012-06-13T06:50:44.000Z</time>
      </trkpt>
      <trkpt lat="44.01416" lon="4.65864">
        <ele>243.6</ele>
        <time>2012-06-13T06:50:46.000Z</time>
      </trkpt>
      <trkpt lat="44.01419" lon="4.65857">
        <ele>244.5</ele>
        <time>2012-06-13T06:50:48.000Z</time>
      </trkpt>
      <trkpt lat="44.01424" lon="4.65848">
        <ele>245.3</ele>
        <time>2012-06-13T06:50:51.000Z</time>
      </trkpt>
      <trkpt lat="44.01427" lon="4.65841">
        <ele>245.1</ele>
        <time>2012-06-13T06:50:53.000Z</time>
      </trkpt>
      <trkpt lat="44.01428" lon="4.65835">
        <ele>245.5</ele>
        <time>2012-06-13T06:50:55.000Z</time>
      </trkpt>
      <trkpt lat="44.01431" lon="4.65828">
        <ele>246.2</ele>
        <time>2012-06-13T06:50:57.000Z</time>
      </trkpt>
      <trkpt lat="44.01432" lon="4.65821">
        <ele>246.3</ele>
        <time>2012-06-13T06:50:59.000Z</time>
      </trkpt>
      <trkpt lat="44.01434" lon="4.65814">
        <ele>246</ele>
        <time>2012-06-13T06:51:01.000Z</time>
      </trkpt>
      <trkpt lat="44.01436" lon="4.65806">
        <ele>246.7</ele>
        <time>2012-06-13T06:51:03.000Z</time>
      </trkpt>
      <trkpt lat="44.01438" lon="4.65798">
        <ele>246.5</ele>
        <time>2012-06-13T06:51:05.000Z</time>
      </trkpt>
      <trkpt lat="44.01438" lon="4.65788">
        <ele>246.2</ele>
        <time>2012-06-13T06:51:07.000Z</time>
      </trkpt>
      <trkpt lat="44.01436" lon="4.65777">
        <ele>247</ele>
        <time>2012-06-13T06:51:09.000Z</time>
      </trkpt>
      <trkpt lat="44.01434" lon="4.65768">
        <ele>247.6</ele>
        <time>2012-06-13T06:51:11.000Z</time>
      </trkpt>
      <trkpt lat="44.01433" lon="4.65759">
        <ele>247.8</ele>
        <time>2012-06-13T06:51:13.000Z</time>
      </trkpt>
      <trkpt lat="44.01427" lon="4.6575">
        <ele>247.9</ele>
        <time>2012-06-13T06:51:15.000Z</time>
      </trkpt>
      <trkpt lat="44.01423" lon="4.65746">
        <ele>248</ele>
        <time>2012-06-13T06:51:17.000Z</time>
      </trkpt>
      <trkpt lat="44.01418" lon="4.65744">
        <ele>247.2</ele>
        <time>2012-06-13T06:51:19.000Z</time>
      </trkpt>
      <trkpt lat="44.01412" lon="4.65743">
        <ele>248.4</ele>
        <time>2012-06-13T06:51:20.000Z</time>
      </trkpt>
      <trkpt lat="44.01406" lon="4.65741">
        <ele>249.3</ele>
        <time>2012-06-13T06:51:22.000Z</time>
      </trkpt>
      <trkpt lat="44.01399" lon="4.65739">
        <ele>249.8</ele>
        <time>2012-06-13T06:51:24.000Z</time>
      </trkpt>
      <trkpt lat="44.01394" lon="4.65736">
        <ele>248.6</ele>
        <time>2012-06-13T06:51:26.000Z</time>
      </trkpt>
      <trkpt lat="44.01387" lon="4.65733">
        <ele>249.7</ele>
        <time>2012-06-13T06:51:28.000Z</time>
      </trkpt>
      <trkpt lat="44.01381" lon="4.6573">
        <ele>249.5</ele>
        <time>2012-06-13T06:51:30.000Z</time>
      </trkpt>
      <trkpt lat="44.01375" lon="4.65726">
        <ele>248.9</ele>
        <time>2012-06-13T06:51:32.000Z</time>
      </trkpt>
      <trkpt lat="44.0137" lon="4.65725">
        <ele>248.3</ele>
        <time>2012-06-13T06:51:36.000Z</time>
      </trkpt>
      <trkpt lat="44.01367" lon="4.6572">
        <ele>246.6</ele>
        <time>2012-06-13T06:51:38.000Z</time>
      </trkpt>
      <trkpt lat="44.01365" lon="4.65714">
        <ele>244</ele>
        <time>2012-06-13T06:51:40.000Z</time>
      </trkpt>
      <trkpt lat="44.01365" lon="4.65707">
        <ele>243.9</ele>
        <time>2012-06-13T06:51:42.000Z</time>
      </trkpt>
      <trkpt lat="44.01366" lon="4.65701">
        <ele>244.2</ele>
        <time>2012-06-13T06:51:43.000Z</time>
      </trkpt>
      <trkpt lat="44.01368" lon="4.65691">
        <ele>244</ele>
        <time>2012-06-13T06:51:45.000Z</time>
      </trkpt>
      <trkpt lat="44.0137" lon="4.65684">
        <ele>245</ele>
        <time>2012-06-13T06:51:46.000Z</time>
      </trkpt>
      <trkpt lat="44.01375" lon="4.65676">
        <ele>245.5</ele>
        <time>2012-06-13T06:51:48.000Z</time>
      </trkpt>
      <trkpt lat="44.0138" lon="4.65668">
        <ele>245.7</ele>
        <time>2012-06-13T06:51:50.000Z</time>
      </trkpt>
      <trkpt lat="44.01386" lon="4.65664">
        <ele>249.2</ele>
        <time>2012-06-13T06:51:52.000Z</time>
      </trkpt>
      <trkpt lat="44.01393" lon="4.65659">
        <ele>250.3</ele>
        <time>2012-06-13T06:51:54.000Z</time>
      </trkpt>
      <trkpt lat="44.01398" lon="4.65656">
        <ele>250.1</ele>
        <time>2012-06-13T06:51:56.000Z</time>
      </trkpt>
      <trkpt lat="44.01407" lon="4.65652">
        <ele>251.2</ele>
        <time>2012-06-13T06:51:58.000Z</time>
      </trkpt>
      <trkpt lat="44.01411" lon="4.6565">
        <ele>251</ele>
        <time>2012-06-13T06:51:59.000Z</time>
      </trkpt>
      <trkpt lat="44.01415" lon="4.65646">
        <ele>251.4</ele>
        <time>2012-06-13T06:52:00.000Z</time>
      </trkpt>
      <trkpt lat="44.01423" lon="4.65641">
        <ele>251.7</ele>
        <time>2012-06-13T06:52:02.000Z</time>
      </trkpt>
      <trkpt lat="44.01429" lon="4.65633">
        <ele>251.7</ele>
        <time>2012-06-13T06:52:04.000Z</time>
      </trkpt>
      <trkpt lat="44.01432" lon="4.65628">
        <ele>251.9</ele>
        <time>2012-06-13T06:52:05.000Z</time>
      </trkpt>
      <trkpt lat="44.01433" lon="4.6562">
        <ele>252.6</ele>
        <time>2012-06-13T06:52:06.000Z</time>
      </trkpt>
      <trkpt lat="44.01436" lon="4.6561">
        <ele>251.4</ele>
        <time>2012-06-13T06:52:08.000Z</time>
      </trkpt>
      <trkpt lat="44.0144" lon="4.656">
        <ele>250.4</ele>
        <time>2012-06-13T06:52:10.000Z</time>
      </trkpt>
      <trkpt lat="44.0144" lon="4.6559">
        <ele>250</ele>
        <time>2012-06-13T06:52:12.000Z</time>
      </trkpt>
      <trkpt lat="44.01435" lon="4.65576">
        <ele>251</ele>
        <time>2012-06-13T06:52:14.000Z</time>
      </trkpt>
      <trkpt lat="44.01434" lon="4.6557">
        <ele>251.1</ele>
        <time>2012-06-13T06:52:15.000Z</time>
      </trkpt>
      <trkpt lat="44.01431" lon="4.65559">
        <ele>251.1</ele>
        <time>2012-06-13T06:52:17.000Z</time>
      </trkpt>
      <trkpt lat="44.01427" lon="4.65548">
        <ele>251.2</ele>
        <time>2012-06-13T06:52:19.000Z</time>
      </trkpt>
      <trkpt lat="44.01424" lon="4.6554">
        <ele>251.3</ele>
        <time>2012-06-13T06:52:21.000Z</time>
      </trkpt>
      <trkpt lat="44.0142" lon="4.65531">
        <ele>251</ele>
        <time>2012-06-13T06:52:23.000Z</time>
      </trkpt>
      <trkpt lat="44.01416" lon="4.65524">
        <ele>251.1</ele>
        <time>2012-06-13T06:52:25.000Z</time>
      </trkpt>
      <trkpt lat="44.01412" lon="4.65516">
        <ele>250.4</ele>
        <time>2012-06-13T06:52:27.000Z</time>
      </trkpt>
      <trkpt lat="44.0141" lon="4.6551">
        <ele>250.8</ele>
        <time>2012-06-13T06:52:29.000Z</time>
      </trkpt>
      <trkpt lat="44.01406" lon="4.65502">
        <ele>251</ele>
        <time>2012-06-13T06:52:31.000Z</time>
      </trkpt>
      <trkpt lat="44.01404" lon="4.65495">
        <ele>251.3</ele>
        <time>2012-06-13T06:52:33.000Z</time>
      </trkpt>
      <trkpt lat="44.014" lon="4.65487">
        <ele>252.4</ele>
        <time>2012-06-13T06:52:36.000Z</time>
      </trkpt>
      <trkpt lat="44.01398" lon="4.6548">
        <ele>252.3</ele>
        <time>2012-06-13T06:52:38.000Z</time>
      </trkpt>
      <trkpt lat="44.01394" lon="4.65473">
        <ele>252.6</ele>
        <time>2012-06-13T06:52:40.000Z</time>
      </trkpt>
      <trkpt lat="44.01391" lon="4.65467">
        <ele>252.6</ele>
        <time>2012-06-13T06:52:42.000Z</time>
      </trkpt>
      <trkpt lat="44.01388" lon="4.6546">
        <ele>253</ele>
        <time>2012-06-13T06:52:44.000Z</time>
      </trkpt>
      <trkpt lat="44.01385" lon="4.65453">
        <ele>252.7</ele>
        <time>2012-06-13T06:52:47.000Z</time>
      </trkpt>
      <trkpt lat="44.0138" lon="4.65449">
        <ele>252.4</ele>
        <time>2012-06-13T06:52:50.000Z</time>
      </trkpt>
      <trkpt lat="44.01375" lon="4.65444">
        <ele>251.6</ele>
        <time>2012-06-13T06:52:52.000Z</time>
      </trkpt>
      <trkpt lat="44.0137" lon="4.65438">
        <ele>251.4</ele>
        <time>2012-06-13T06:52:54.000Z</time>
      </trkpt>
      <trkpt lat="44.01364" lon="4.65441">
        <ele>251.3</ele>
        <time>2012-06-13T06:52:56.000Z</time>
      </trkpt>
      <trkpt lat="44.01358" lon="4.65436">
        <ele>253.5</ele>
        <time>2012-06-13T06:52:58.000Z</time>
      </trkpt>
      <trkpt lat="44.01353" lon="4.65434">
        <ele>254.4</ele>
        <time>2012-06-13T06:53:00.000Z</time>
      </trkpt>
      <trkpt lat="44.01348" lon="4.65434">
        <ele>254</ele>
        <time>2012-06-13T06:53:02.000Z</time>
      </trkpt>
      <trkpt lat="44.01342" lon="4.65432">
        <ele>255.9</ele>
        <time>2012-06-13T06:53:04.000Z</time>
      </trkpt>
      <trkpt lat="44.01337" lon="4.6543">
        <ele>255.6</ele>
        <time>2012-06-13T06:53:06.000Z</time>
      </trkpt>
      <trkpt lat="44.01331" lon="4.65428">
        <ele>258.8</ele>
        <time>2012-06-13T06:53:08.000Z</time>
      </trkpt>
      <trkpt lat="44.01326" lon="4.65427">
        <ele>259.7</ele>
        <time>2012-06-13T06:53:10.000Z</time>
      </trkpt>
      <trkpt lat="44.01321" lon="4.65424">
        <ele>260.1</ele>
        <time>2012-06-13T06:53:12.000Z</time>
      </trkpt>
      <trkpt lat="44.01316" lon="4.6542">
        <ele>260.8</ele>
        <time>2012-06-13T06:53:14.000Z</time>
      </trkpt>
      <trkpt lat="44.0131" lon="4.65417">
        <ele>260.7</ele>
        <time>2012-06-13T06:53:16.000Z</time>
      </trkpt>
      <trkpt lat="44.01303" lon="4.65412">
        <ele>260.2</ele>
        <time>2012-06-13T06:53:18.000Z</time>
      </trkpt>
      <trkpt lat="44.01304" lon="4.65399">
        <ele>262.9</ele>
        <time>2012-06-13T06:53:20.000Z</time>
      </trkpt>
      <trkpt lat="44.01304" lon="4.65389">
        <ele>262.1</ele>
        <time>2012-06-13T06:53:22.000Z</time>
      </trkpt>
      <trkpt lat="44.01305" lon="4.65382">
        <ele>261.4</ele>
        <time>2012-06-13T06:53:24.000Z</time>
      </trkpt>
      <trkpt lat="44.01308" lon="4.65374">
        <ele>261.8</ele>
        <time>2012-06-13T06:53:26.000Z</time>
      </trkpt>
      <trkpt lat="44.01312" lon="4.65366">
        <ele>261.7</ele>
        <time>2012-06-13T06:53:28.000Z</time>
      </trkpt>
      <trkpt lat="44.01317" lon="4.6536">
        <ele>262.2</ele>
        <time>2012-06-13T06:53:30.000Z</time>
      </trkpt>
      <trkpt lat="44.01322" lon="4.65358">
        <ele>261.9</ele>
        <time>2012-06-13T06:53:32.000Z</time>
      </trkpt>
      <trkpt lat="44.01326" lon="4.65352">
        <ele>262</ele>
        <time>2012-06-13T06:53:34.000Z</time>
      </trkpt>
      <trkpt lat="44.01331" lon="4.65347">
        <ele>262.3</ele>
        <time>2012-06-13T06:53:36.000Z</time>
      </trkpt>
      <trkpt lat="44.01335" lon="4.65343">
        <ele>261.8</ele>
        <time>2012-06-13T06:53:38.000Z</time>
      </trkpt>
      <trkpt lat="44.01338" lon="4.65338">
        <ele>261.4</ele>
        <time>2012-06-13T06:53:41.000Z</time>
      </trkpt>
      <trkpt lat="44.01341" lon="4.65332">
        <ele>260.7</ele>
        <time>2012-06-13T06:53:45.000Z</time>
      </trkpt>
      <trkpt lat="44.01346" lon="4.65326">
        <ele>261.6</ele>
        <time>2012-06-13T06:53:48.000Z</time>
      </trkpt>
      <trkpt lat="44.01349" lon="4.65319">
        <ele>261.9</ele>
        <time>2012-06-13T06:53:51.000Z</time>
      </trkpt>
      <trkpt lat="44.01353" lon="4.65314">
        <ele>261.9</ele>
        <time>2012-06-13T06:53:53.000Z</time>
      </trkpt>
      <trkpt lat="44.01356" lon="4.6531">
        <ele>262.2</ele>
        <time>2012-06-13T06:53:55.000Z</time>
      </trkpt>
      <trkpt lat="44.01359" lon="4.65304">
        <ele>262.4</ele>
        <time>2012-06-13T06:53:57.000Z</time>
      </trkpt>
      <trkpt lat="44.01362" lon="4.65299">
        <ele>262.1</ele>
        <time>2012-06-13T06:53:59.000Z</time>
      </trkpt>
      <trkpt lat="44.01365" lon="4.65293">
        <ele>261.8</ele>
        <time>2012-06-13T06:54:02.000Z</time>
      </trkpt>
      <trkpt lat="44.01368" lon="4.65287">
        <ele>262.6</ele>
        <time>2012-06-13T06:54:05.000Z</time>
      </trkpt>
      <trkpt lat="44.01372" lon="4.6528">
        <ele>262.9</ele>
        <time>2012-06-13T06:54:07.000Z</time>
      </trkpt>
      <trkpt lat="44.01374" lon="4.65274">
        <ele>264.5</ele>
        <time>2012-06-13T06:54:09.000Z</time>
      </trkpt>
      <trkpt lat="44.01378" lon="4.65267">
        <ele>264.7</ele>
        <time>2012-06-13T06:54:12.000Z</time>
      </trkpt>
      <trkpt lat="44.01382" lon="4.6526">
        <ele>264.6</ele>
        <time>2012-06-13T06:54:15.000Z</time>
      </trkpt>
      <trkpt lat="44.01385" lon="4.65254">
        <ele>265.2</ele>
        <time>2012-06-13T06:54:17.000Z</time>
      </trkpt>
      <trkpt lat="44.0139" lon="4.65247">
        <ele>266.2</ele>
        <time>2012-06-13T06:54:21.000Z</time>
      </trkpt>
      <trkpt lat="44.01394" lon="4.65241">
        <ele>266.3</ele>
        <time>2012-06-13T06:54:24.000Z</time>
      </trkpt>
      <trkpt lat="44.01397" lon="4.65234">
        <ele>266.8</ele>
        <time>2012-06-13T06:54:27.000Z</time>
      </trkpt>
      <trkpt lat="44.01401" lon="4.65231">
        <ele>268.1</ele>
        <time>2012-06-13T06:54:29.000Z</time>
      </trkpt>
      <trkpt lat="44.01404" lon="4.65226">
        <ele>267.4</ele>
        <time>2012-06-13T06:54:31.000Z</time>
      </trkpt>
      <trkpt lat="44.01406" lon="4.65219">
        <ele>266.3</ele>
        <time>2012-06-13T06:54:34.000Z</time>
      </trkpt>
      <trkpt lat="44.0141" lon="4.65211">
        <ele>268.2</ele>
        <time>2012-06-13T06:54:37.000Z</time>
      </trkpt>
      <trkpt lat="44.01413" lon="4.65204">
        <ele>268.9</ele>
        <time>2012-06-13T06:54:39.000Z</time>
      </trkpt>
      <trkpt lat="44.01418" lon="4.65197">
        <ele>268.9</ele>
        <time>2012-06-13T06:54:41.000Z</time>
      </trkpt>
      <trkpt lat="44.01423" lon="4.65189">
        <ele>268.6</ele>
        <time>2012-06-13T06:54:43.000Z</time>
      </trkpt>
      <trkpt lat="44.01428" lon="4.65179">
        <ele>268.1</ele>
        <time>2012-06-13T06:54:45.000Z</time>
      </trkpt>
      <trkpt lat="44.01434" lon="4.6517">
        <ele>268.8</ele>
        <time>2012-06-13T06:54:47.000Z</time>
      </trkpt>
      <trkpt lat="44.01436" lon="4.65159">
        <ele>268.9</ele>
        <time>2012-06-13T06:54:49.000Z</time>
      </trkpt>
      <trkpt lat="44.01438" lon="4.65154">
        <ele>269.1</ele>
        <time>2012-06-13T06:54:50.000Z</time>
      </trkpt>
      <trkpt lat="44.01441" lon="4.65144">
        <ele>269.8</ele>
        <time>2012-06-13T06:54:52.000Z</time>
      </trkpt>
      <trkpt lat="44.01442" lon="4.65134">
        <ele>268.7</ele>
        <time>2012-06-13T06:54:54.000Z</time>
      </trkpt>
      <trkpt lat="44.01443" lon="4.65124">
        <ele>268.3</ele>
        <time>2012-06-13T06:54:56.000Z</time>
      </trkpt>
      <trkpt lat="44.01439" lon="4.65113">
        <ele>268</ele>
        <time>2012-06-13T06:54:58.000Z</time>
      </trkpt>
      <trkpt lat="44.01436" lon="4.65103">
        <ele>267</ele>
        <time>2012-06-13T06:55:00.000Z</time>
      </trkpt>
      <trkpt lat="44.01431" lon="4.65093">
        <ele>266.5</ele>
        <time>2012-06-13T06:55:02.000Z</time>
      </trkpt>
      <trkpt lat="44.01426" lon="4.65084">
        <ele>266.4</ele>
        <time>2012-06-13T06:55:04.000Z</time>
      </trkpt>
      <trkpt lat="44.01421" lon="4.65074">
        <ele>266.5</ele>
        <time>2012-06-13T06:55:06.000Z</time>
      </trkpt>
      <trkpt lat="44.01417" lon="4.65065">
        <ele>266.6</ele>
        <time>2012-06-13T06:55:08.000Z</time>
      </trkpt>
      <trkpt lat="44.01414" lon="4.65056">
        <ele>266.5</ele>
        <time>2012-06-13T06:55:10.000Z</time>
      </trkpt>
      <trkpt lat="44.01411" lon="4.6505">
        <ele>266.4</ele>
        <time>2012-06-13T06:55:11.000Z</time>
      </trkpt>
      <trkpt lat="44.01409" lon="4.65045">
        <ele>266.2</ele>
        <time>2012-06-13T06:55:12.000Z</time>
      </trkpt>
      <trkpt lat="44.01405" lon="4.65034">
        <ele>266.4</ele>
        <time>2012-06-13T06:55:14.000Z</time>
      </trkpt>
      <trkpt lat="44.01401" lon="4.65025">
        <ele>266.3</ele>
        <time>2012-06-13T06:55:16.000Z</time>
      </trkpt>
      <trkpt lat="44.01396" lon="4.65015">
        <ele>266</ele>
        <time>2012-06-13T06:55:18.000Z</time>
      </trkpt>
      <trkpt lat="44.0139" lon="4.65007">
        <ele>266.2</ele>
        <time>2012-06-13T06:55:20.000Z</time>
      </trkpt>
      <trkpt lat="44.01387" lon="4.65">
        <ele>266.3</ele>
        <time>2012-06-13T06:55:21.000Z</time>
      </trkpt>
      <trkpt lat="44.01385" lon="4.6499">
        <ele>266.1</ele>
        <time>2012-06-13T06:55:23.000Z</time>
      </trkpt>
      <trkpt lat="44.01384" lon="4.64981">
        <ele>265.4</ele>
        <time>2012-06-13T06:55:25.000Z</time>
      </trkpt>
      <trkpt lat="44.01382" lon="4.64971">
        <ele>264.2</ele>
        <time>2012-06-13T06:55:27.000Z</time>
      </trkpt>
      <trkpt lat="44.01382" lon="4.64959">
        <ele>265</ele>
        <time>2012-06-13T06:55:29.000Z</time>
      </trkpt>
      <trkpt lat="44.01384" lon="4.64951">
        <ele>264.5</ele>
        <time>2012-06-13T06:55:31.000Z</time>
      </trkpt>
      <trkpt lat="44.01386" lon="4.64941">
        <ele>264.3</ele>
        <time>2012-06-13T06:55:33.000Z</time>
      </trkpt>
      <trkpt lat="44.01389" lon="4.64932">
        <ele>264.6</ele>
        <time>2012-06-13T06:55:35.000Z</time>
      </trkpt>
      <trkpt lat="44.01394" lon="4.64924">
        <ele>264.5</ele>
        <time>2012-06-13T06:55:37.000Z</time>
      </trkpt>
      <trkpt lat="44.01397" lon="4.64919">
        <ele>264.7</ele>
        <time>2012-06-13T06:55:39.000Z</time>
      </trkpt>
      <trkpt lat="44.014" lon="4.64912">
        <ele>264.5</ele>
        <time>2012-06-13T06:55:41.000Z</time>
      </trkpt>
      <trkpt lat="44.01404" lon="4.64907">
        <ele>264.4</ele>
        <time>2012-06-13T06:55:43.000Z</time>
      </trkpt>
      <trkpt lat="44.01408" lon="4.649">
        <ele>264.9</ele>
        <time>2012-06-13T06:55:45.000Z</time>
      </trkpt>
      <trkpt lat="44.01411" lon="4.64893">
        <ele>265.1</ele>
        <time>2012-06-13T06:55:47.000Z</time>
      </trkpt>
      <trkpt lat="44.01415" lon="4.64884">
        <ele>265.4</ele>
        <time>2012-06-13T06:55:49.000Z</time>
      </trkpt>
      <trkpt lat="44.01418" lon="4.64876">
        <ele>265.9</ele>
        <time>2012-06-13T06:55:51.000Z</time>
      </trkpt>
      <trkpt lat="44.01421" lon="4.6487">
        <ele>268.8</ele>
        <time>2012-06-13T06:55:52.000Z</time>
      </trkpt>
      <trkpt lat="44.01424" lon="4.64865">
        <ele>268.3</ele>
        <time>2012-06-13T06:55:53.000Z</time>
      </trkpt>
      <trkpt lat="44.01427" lon="4.6486">
        <ele>268.5</ele>
        <time>2012-06-13T06:55:54.000Z</time>
      </trkpt>
      <trkpt lat="44.0143" lon="4.64855">
        <ele>268.9</ele>
        <time>2012-06-13T06:55:55.000Z</time>
      </trkpt>
      <trkpt lat="44.01432" lon="4.64849">
        <ele>268.8</ele>
        <time>2012-06-13T06:55:56.000Z</time>
      </trkpt>
      <trkpt lat="44.01435" lon="4.64843">
        <ele>268.7</ele>
        <time>2012-06-13T06:55:57.000Z</time>
      </trkpt>
      <trkpt lat="44.01439" lon="4.64838">
        <ele>268</ele>
        <time>2012-06-13T06:55:58.000Z</time>
      </trkpt>
      <trkpt lat="44.01443" lon="4.64832">
        <ele>268.1</ele>
        <time>2012-06-13T06:55:59.000Z</time>
      </trkpt>
      <trkpt lat="44.01446" lon="4.64826">
        <ele>267.9</ele>
        <time>2012-06-13T06:56:00.000Z</time>
      </trkpt>
      <trkpt lat="44.01449" lon="4.64819">
        <ele>268.7</ele>
        <time>2012-06-13T06:56:01.000Z</time>
      </trkpt>
      <trkpt lat="44.01453" lon="4.64812">
        <ele>268.7</ele>
        <time>2012-06-13T06:56:02.000Z</time>
      </trkpt>
      <trkpt lat="44.01458" lon="4.64807">
        <ele>267.9</ele>
        <time>2012-06-13T06:56:03.000Z</time>
      </trkpt>
      <trkpt lat="44.0146" lon="4.648">
        <ele>267.1</ele>
        <time>2012-06-13T06:56:04.000Z</time>
      </trkpt>
      <trkpt lat="44.01464" lon="4.64795">
        <ele>267</ele>
        <time>2012-06-13T06:56:05.000Z</time>
      </trkpt>
      <trkpt lat="44.01468" lon="4.64788">
        <ele>267.2</ele>
        <time>2012-06-13T06:56:06.000Z</time>
      </trkpt>
      <trkpt lat="44.01471" lon="4.64781">
        <ele>267.4</ele>
        <time>2012-06-13T06:56:07.000Z</time>
      </trkpt>
      <trkpt lat="44.01475" lon="4.64775">
        <ele>267.6</ele>
        <time>2012-06-13T06:56:08.000Z</time>
      </trkpt>
      <trkpt lat="44.01479" lon="4.64769">
        <ele>267.8</ele>
        <time>2012-06-13T06:56:09.000Z</time>
      </trkpt>
      <trkpt lat="44.01483" lon="4.64763">
        <ele>268.1</ele>
        <time>2012-06-13T06:56:10.000Z</time>
      </trkpt>
      <trkpt lat="44.01486" lon="4.64756">
        <ele>268.6</ele>
        <time>2012-06-13T06:56:11.000Z</time>
      </trkpt>
      <trkpt lat="44.01489" lon="4.64749">
        <ele>268.2</ele>
        <time>2012-06-13T06:56:12.000Z</time>
      </trkpt>
      <trkpt lat="44.01491" lon="4.64743">
        <ele>268</ele>
        <time>2012-06-13T06:56:13.000Z</time>
      </trkpt>
      <trkpt lat="44.01495" lon="4.64735">
        <ele>267.5</ele>
        <time>2012-06-13T06:56:14.000Z</time>
      </trkpt>
      <trkpt lat="44.01499" lon="4.64727">
        <ele>267.2</ele>
        <time>2012-06-13T06:56:15.000Z</time>
      </trkpt>
      <trkpt lat="44.01503" lon="4.6472">
        <ele>267.6</ele>
        <time>2012-06-13T06:56:16.000Z</time>
      </trkpt>
      <trkpt lat="44.01506" lon="4.64713">
        <ele>267.3</ele>
        <time>2012-06-13T06:56:17.000Z</time>
      </trkpt>
      <trkpt lat="44.01509" lon="4.64707">
        <ele>266.9</ele>
        <time>2012-06-13T06:56:18.000Z</time>
      </trkpt>
      <trkpt lat="44.01511" lon="4.64702">
        <ele>267</ele>
        <time>2012-06-13T06:56:19.000Z</time>
      </trkpt>
      <trkpt lat="44.01514" lon="4.64695">
        <ele>266.8</ele>
        <time>2012-06-13T06:56:20.000Z</time>
      </trkpt>
      <trkpt lat="44.01517" lon="4.64689">
        <ele>267</ele>
        <time>2012-06-13T06:56:21.000Z</time>
      </trkpt>
      <trkpt lat="44.01519" lon="4.64681">
        <ele>265.8</ele>
        <time>2012-06-13T06:56:22.000Z</time>
      </trkpt>
      <trkpt lat="44.01522" lon="4.64675">
        <ele>265.6</ele>
        <time>2012-06-13T06:56:23.000Z</time>
      </trkpt>
      <trkpt lat="44.01524" lon="4.64668">
        <ele>265.4</ele>
        <time>2012-06-13T06:56:24.000Z</time>
      </trkpt>
      <trkpt lat="44.01527" lon="4.64661">
        <ele>265.1</ele>
        <time>2012-06-13T06:56:25.000Z</time>
      </trkpt>
      <trkpt lat="44.01529" lon="4.64654">
        <ele>264.8</ele>
        <time>2012-06-13T06:56:26.000Z</time>
      </trkpt>
      <trkpt lat="44.01531" lon="4.64648">
        <ele>264.3</ele>
        <time>2012-06-13T06:56:27.000Z</time>
      </trkpt>
      <trkpt lat="44.01534" lon="4.64642">
        <ele>264.2</ele>
        <time>2012-06-13T06:56:28.000Z</time>
      </trkpt>
      <trkpt lat="44.01537" lon="4.64635">
        <ele>263.9</ele>
        <time>2012-06-13T06:56:29.000Z</time>
      </trkpt>
      <trkpt lat="44.0154" lon="4.64628">
        <ele>263.9</ele>
        <time>2012-06-13T06:56:30.000Z</time>
      </trkpt>
      <trkpt lat="44.01542" lon="4.64621">
        <ele>263.8</ele>
        <time>2012-06-13T06:56:31.000Z</time>
      </trkpt>
      <trkpt lat="44.01545" lon="4.64615">
        <ele>264</ele>
        <time>2012-06-13T06:56:32.000Z</time>
      </trkpt>
      <trkpt lat="44.01547" lon="4.64608">
        <ele>264.2</ele>
        <time>2012-06-13T06:56:33.000Z</time>
      </trkpt>
      <trkpt lat="44.0155" lon="4.64601">
        <ele>264.3</ele>
        <time>2012-06-13T06:56:34.000Z</time>
      </trkpt>
      <trkpt lat="44.01552" lon="4.64595">
        <ele>264.2</ele>
        <time>2012-06-13T06:56:35.000Z</time>
      </trkpt>
      <trkpt lat="44.01555" lon="4.64589">
        <ele>264.4</ele>
        <time>2012-06-13T06:56:36.000Z</time>
      </trkpt>
      <trkpt lat="44.01558" lon="4.64582">
        <ele>264.7</ele>
        <time>2012-06-13T06:56:37.000Z</time>
      </trkpt>
      <trkpt lat="44.0156" lon="4.64576">
        <ele>264.7</ele>
        <time>2012-06-13T06:56:38.000Z</time>
      </trkpt>
      <trkpt lat="44.01563" lon="4.64569">
        <ele>264.8</ele>
        <time>2012-06-13T06:56:39.000Z</time>
      </trkpt>
      <trkpt lat="44.01565" lon="4.64562">
        <ele>264.9</ele>
        <time>2012-06-13T06:56:40.000Z</time>
      </trkpt>
      <trkpt lat="44.01567" lon="4.64556">
        <ele>265.4</ele>
        <time>2012-06-13T06:56:41.000Z</time>
      </trkpt>
      <trkpt lat="44.0157" lon="4.64548">
        <ele>266.2</ele>
        <time>2012-06-13T06:56:42.000Z</time>
      </trkpt>
      <trkpt lat="44.01572" lon="4.64542">
        <ele>266.2</ele>
        <time>2012-06-13T06:56:43.000Z</time>
      </trkpt>
      <trkpt lat="44.01574" lon="4.64536">
        <ele>266</ele>
        <time>2012-06-13T06:56:44.000Z</time>
      </trkpt>
      <trkpt lat="44.01577" lon="4.6453">
        <ele>266</ele>
        <time>2012-06-13T06:56:45.000Z</time>
      </trkpt>
      <trkpt lat="44.01579" lon="4.64524">
        <ele>266.2</ele>
        <time>2012-06-13T06:56:46.000Z</time>
      </trkpt>
      <trkpt lat="44.01582" lon="4.64517">
        <ele>266.1</ele>
        <time>2012-06-13T06:56:47.000Z</time>
      </trkpt>
      <trkpt lat="44.01584" lon="4.6451">
        <ele>266.7</ele>
        <time>2012-06-13T06:56:48.000Z</time>
      </trkpt>
      <trkpt lat="44.01586" lon="4.64504">
        <ele>267.6</ele>
        <time>2012-06-13T06:56:49.000Z</time>
      </trkpt>
      <trkpt lat="44.01589" lon="4.64498">
        <ele>267.5</ele>
        <time>2012-06-13T06:56:50.000Z</time>
      </trkpt>
      <trkpt lat="44.01592" lon="4.64492">
        <ele>268.3</ele>
        <time>2012-06-13T06:56:51.000Z</time>
      </trkpt>
      <trkpt lat="44.01594" lon="4.64487">
        <ele>268.7</ele>
        <time>2012-06-13T06:56:52.000Z</time>
      </trkpt>
      <trkpt lat="44.01597" lon="4.64481">
        <ele>268.8</ele>
        <time>2012-06-13T06:56:53.000Z</time>
      </trkpt>
      <trkpt lat="44.01601" lon="4.64469">
        <ele>268.4</ele>
        <time>2012-06-13T06:56:55.000Z</time>
      </trkpt>
      <trkpt lat="44.01604" lon="4.64459">
        <ele>268.1</ele>
        <time>2012-06-13T06:56:57.000Z</time>
      </trkpt>
      <trkpt lat="44.01608" lon="4.64449">
        <ele>268</ele>
        <time>2012-06-13T06:56:59.000Z</time>
      </trkpt>
      <trkpt lat="44.01613" lon="4.6444">
        <ele>268.4</ele>
        <time>2012-06-13T06:57:01.000Z</time>
      </trkpt>
      <trkpt lat="44.01618" lon="4.64431">
        <ele>268.4</ele>
        <time>2012-06-13T06:57:03.000Z</time>
      </trkpt>
      <trkpt lat="44.01621" lon="4.64422">
        <ele>268.6</ele>
        <time>2012-06-13T06:57:05.000Z</time>
      </trkpt>
      <trkpt lat="44.01623" lon="4.64415">
        <ele>270.1</ele>
        <time>2012-06-13T06:57:06.000Z</time>
      </trkpt>
      <trkpt lat="44.01627" lon="4.64406">
        <ele>269.9</ele>
        <time>2012-06-13T06:57:08.000Z</time>
      </trkpt>
      <trkpt lat="44.01629" lon="4.64397">
        <ele>267.4</ele>
        <time>2012-06-13T06:57:10.000Z</time>
      </trkpt>
      <trkpt lat="44.01632" lon="4.64388">
        <ele>267.1</ele>
        <time>2012-06-13T06:57:12.000Z</time>
      </trkpt>
      <trkpt lat="44.01635" lon="4.64379">
        <ele>265.6</ele>
        <time>2012-06-13T06:57:14.000Z</time>
      </trkpt>
      <trkpt lat="44.01639" lon="4.64371">
        <ele>265.8</ele>
        <time>2012-06-13T06:57:16.000Z</time>
      </trkpt>
      <trkpt lat="44.01641" lon="4.64362">
        <ele>266.7</ele>
        <time>2012-06-13T06:57:18.000Z</time>
      </trkpt>
      <trkpt lat="44.01643" lon="4.64353">
        <ele>267</ele>
        <time>2012-06-13T06:57:20.000Z</time>
      </trkpt>
      <trkpt lat="44.01646" lon="4.64344">
        <ele>266.9</ele>
        <time>2012-06-13T06:57:22.000Z</time>
      </trkpt>
      <trkpt lat="44.01648" lon="4.64335">
        <ele>267</ele>
        <time>2012-06-13T06:57:24.000Z</time>
      </trkpt>
      <trkpt lat="44.01651" lon="4.64326">
        <ele>267</ele>
        <time>2012-06-13T06:57:26.000Z</time>
      </trkpt>
      <trkpt lat="44.01653" lon="4.64315">
        <ele>267</ele>
        <time>2012-06-13T06:57:28.000Z</time>
      </trkpt>
      <trkpt lat="44.01653" lon="4.64306">
        <ele>267.2</ele>
        <time>2012-06-13T06:57:30.000Z</time>
      </trkpt>
      <trkpt lat="44.01654" lon="4.64297">
        <ele>267.2</ele>
        <time>2012-06-13T06:57:32.000Z</time>
      </trkpt>
      <trkpt lat="44.01655" lon="4.64288">
        <ele>267.2</ele>
        <time>2012-06-13T06:57:34.000Z</time>
      </trkpt>
      <trkpt lat="44.01656" lon="4.64279">
        <ele>267.2</ele>
        <time>2012-06-13T06:57:36.000Z</time>
      </trkpt>
      <trkpt lat="44.01657" lon="4.64268">
        <ele>267.2</ele>
        <time>2012-06-13T06:57:38.000Z</time>
      </trkpt>
      <trkpt lat="44.01658" lon="4.64258">
        <ele>266.8</ele>
        <time>2012-06-13T06:57:40.000Z</time>
      </trkpt>
      <trkpt lat="44.0166" lon="4.64251">
        <ele>266.7</ele>
        <time>2012-06-13T06:57:42.000Z</time>
      </trkpt>
      <trkpt lat="44.01663" lon="4.64242">
        <ele>266.3</ele>
        <time>2012-06-13T06:57:44.000Z</time>
      </trkpt>
      <trkpt lat="44.01665" lon="4.64235">
        <ele>266.4</ele>
        <time>2012-06-13T06:57:46.000Z</time>
      </trkpt>
      <trkpt lat="44.01665" lon="4.64228">
        <ele>266.9</ele>
        <time>2012-06-13T06:57:48.000Z</time>
      </trkpt>
      <trkpt lat="44.01666" lon="4.6422">
        <ele>267.3</ele>
        <time>2012-06-13T06:57:50.000Z</time>
      </trkpt>
      <trkpt lat="44.01666" lon="4.64212">
        <ele>267</ele>
        <time>2012-06-13T06:57:52.000Z</time>
      </trkpt>
      <trkpt lat="44.01667" lon="4.64202">
        <ele>267.1</ele>
        <time>2012-06-13T06:57:54.000Z</time>
      </trkpt>
      <trkpt lat="44.01668" lon="4.64193">
        <ele>266.5</ele>
        <time>2012-06-13T06:57:56.000Z</time>
      </trkpt>
      <trkpt lat="44.01671" lon="4.64182">
        <ele>266.7</ele>
        <time>2012-06-13T06:57:58.000Z</time>
      </trkpt>
      <trkpt lat="44.01672" lon="4.64174">
        <ele>267.3</ele>
        <time>2012-06-13T06:58:00.000Z</time>
      </trkpt>
      <trkpt lat="44.01673" lon="4.64163">
        <ele>267.9</ele>
        <time>2012-06-13T06:58:03.000Z</time>
      </trkpt>
      <trkpt lat="44.01674" lon="4.64154">
        <ele>267.9</ele>
        <time>2012-06-13T06:58:05.000Z</time>
      </trkpt>
      <trkpt lat="44.01675" lon="4.64148">
        <ele>268.4</ele>
        <time>2012-06-13T06:58:07.000Z</time>
      </trkpt>
      <trkpt lat="44.01676" lon="4.64138">
        <ele>268.1</ele>
        <time>2012-06-13T06:58:09.000Z</time>
      </trkpt>
      <trkpt lat="44.01677" lon="4.64129">
        <ele>268.8</ele>
        <time>2012-06-13T06:58:11.000Z</time>
      </trkpt>
      <trkpt lat="44.01679" lon="4.64121">
        <ele>268.2</ele>
        <time>2012-06-13T06:58:13.000Z</time>
      </trkpt>
      <trkpt lat="44.0168" lon="4.64111">
        <ele>268.5</ele>
        <time>2012-06-13T06:58:15.000Z</time>
      </trkpt>
      <trkpt lat="44.01682" lon="4.641">
        <ele>268.8</ele>
        <time>2012-06-13T06:58:17.000Z</time>
      </trkpt>
      <trkpt lat="44.01682" lon="4.64091">
        <ele>267.7</ele>
        <time>2012-06-13T06:58:19.000Z</time>
      </trkpt>
      <trkpt lat="44.01683" lon="4.64081">
        <ele>267.7</ele>
        <time>2012-06-13T06:58:21.000Z</time>
      </trkpt>
      <trkpt lat="44.01684" lon="4.64073">
        <ele>267.6</ele>
        <time>2012-06-13T06:58:23.000Z</time>
      </trkpt>
      <trkpt lat="44.01686" lon="4.64065">
        <ele>267.8</ele>
        <time>2012-06-13T06:58:25.000Z</time>
      </trkpt>
      <trkpt lat="44.01687" lon="4.64056">
        <ele>267.6</ele>
        <time>2012-06-13T06:58:27.000Z</time>
      </trkpt>
      <trkpt lat="44.01689" lon="4.64046">
        <ele>267.7</ele>
        <time>2012-06-13T06:58:29.000Z</time>
      </trkpt>
      <trkpt lat="44.0169" lon="4.64035">
        <ele>267.8</ele>
        <time>2012-06-13T06:58:31.000Z</time>
      </trkpt>
      <trkpt lat="44.01693" lon="4.64027">
        <ele>269.4</ele>
        <time>2012-06-13T06:58:33.000Z</time>
      </trkpt>
      <trkpt lat="44.01694" lon="4.64018">
        <ele>269.2</ele>
        <time>2012-06-13T06:58:35.000Z</time>
      </trkpt>
      <trkpt lat="44.01695" lon="4.6401">
        <ele>269.8</ele>
        <time>2012-06-13T06:58:37.000Z</time>
      </trkpt>
      <trkpt lat="44.01696" lon="4.64001">
        <ele>271.3</ele>
        <time>2012-06-13T06:58:39.000Z</time>
      </trkpt>
      <trkpt lat="44.01698" lon="4.63992">
        <ele>272.6</ele>
        <time>2012-06-13T06:58:41.000Z</time>
      </trkpt>
      <trkpt lat="44.01698" lon="4.63983">
        <ele>271.7</ele>
        <time>2012-06-13T06:58:43.000Z</time>
      </trkpt>
      <trkpt lat="44.01699" lon="4.63973">
        <ele>271.3</ele>
        <time>2012-06-13T06:58:45.000Z</time>
      </trkpt>
      <trkpt lat="44.017" lon="4.63964">
        <ele>271.2</ele>
        <time>2012-06-13T06:58:47.000Z</time>
      </trkpt>
      <trkpt lat="44.01702" lon="4.63954">
        <ele>270.7</ele>
        <time>2012-06-13T06:58:49.000Z</time>
      </trkpt>
      <trkpt lat="44.01704" lon="4.63945">
        <ele>270.3</ele>
        <time>2012-06-13T06:58:51.000Z</time>
      </trkpt>
      <trkpt lat="44.01706" lon="4.63936">
        <ele>270.8</ele>
        <time>2012-06-13T06:58:53.000Z</time>
      </trkpt>
      <trkpt lat="44.01707" lon="4.63927">
        <ele>270.6</ele>
        <time>2012-06-13T06:58:55.000Z</time>
      </trkpt>
      <trkpt lat="44.01708" lon="4.6392">
        <ele>271.3</ele>
        <time>2012-06-13T06:58:57.000Z</time>
      </trkpt>
      <trkpt lat="44.01709" lon="4.6391">
        <ele>271.4</ele>
        <time>2012-06-13T06:58:59.000Z</time>
      </trkpt>
      <trkpt lat="44.01711" lon="4.639">
        <ele>271.6</ele>
        <time>2012-06-13T06:59:01.000Z</time>
      </trkpt>
      <trkpt lat="44.01711" lon="4.63892">
        <ele>271.6</ele>
        <time>2012-06-13T06:59:03.000Z</time>
      </trkpt>
      <trkpt lat="44.01713" lon="4.63883">
        <ele>271.7</ele>
        <time>2012-06-13T06:59:05.000Z</time>
      </trkpt>
      <trkpt lat="44.01716" lon="4.63876">
        <ele>272.2</ele>
        <time>2012-06-13T06:59:07.000Z</time>
      </trkpt>
      <trkpt lat="44.01718" lon="4.63867">
        <ele>272.1</ele>
        <time>2012-06-13T06:59:09.000Z</time>
      </trkpt>
      <trkpt lat="44.01718" lon="4.63859">
        <ele>272.2</ele>
        <time>2012-06-13T06:59:11.000Z</time>
      </trkpt>
      <trkpt lat="44.01719" lon="4.63853">
        <ele>272.8</ele>
        <time>2012-06-13T06:59:13.000Z</time>
      </trkpt>
      <trkpt lat="44.0172" lon="4.63845">
        <ele>273.3</ele>
        <time>2012-06-13T06:59:15.000Z</time>
      </trkpt>
      <trkpt lat="44.0172" lon="4.63836">
        <ele>273.4</ele>
        <time>2012-06-13T06:59:18.000Z</time>
      </trkpt>
      <trkpt lat="44.01722" lon="4.63828">
        <ele>272.8</ele>
        <time>2012-06-13T06:59:20.000Z</time>
      </trkpt>
      <trkpt lat="44.01721" lon="4.63822">
        <ele>272.6</ele>
        <time>2012-06-13T06:59:22.000Z</time>
      </trkpt>
      <trkpt lat="44.01723" lon="4.63813">
        <ele>273.2</ele>
        <time>2012-06-13T06:59:25.000Z</time>
      </trkpt>
      <trkpt lat="44.01725" lon="4.63807">
        <ele>273.9</ele>
        <time>2012-06-13T06:59:26.000Z</time>
      </trkpt>
      <trkpt lat="44.01725" lon="4.638">
        <ele>274.3</ele>
        <time>2012-06-13T06:59:28.000Z</time>
      </trkpt>
      <trkpt lat="44.01725" lon="4.63794">
        <ele>274.3</ele>
        <time>2012-06-13T06:59:30.000Z</time>
      </trkpt>
      <trkpt lat="44.01726" lon="4.63787">
        <ele>274.5</ele>
        <time>2012-06-13T06:59:32.000Z</time>
      </trkpt>
      <trkpt lat="44.01727" lon="4.6378">
        <ele>273.9</ele>
        <time>2012-06-13T06:59:34.000Z</time>
      </trkpt>
      <trkpt lat="44.01728" lon="4.63773">
        <ele>274.5</ele>
        <time>2012-06-13T06:59:36.000Z</time>
      </trkpt>
      <trkpt lat="44.01728" lon="4.63765">
        <ele>274.4</ele>
        <time>2012-06-13T06:59:38.000Z</time>
      </trkpt>
      <trkpt lat="44.0173" lon="4.63758">
        <ele>274.2</ele>
        <time>2012-06-13T06:59:40.000Z</time>
      </trkpt>
      <trkpt lat="44.0173" lon="4.63751">
        <ele>274.6</ele>
        <time>2012-06-13T06:59:42.000Z</time>
      </trkpt>
      <trkpt lat="44.01731" lon="4.63743">
        <ele>274.1</ele>
        <time>2012-06-13T06:59:44.000Z</time>
      </trkpt>
      <trkpt lat="44.01731" lon="4.63735">
        <ele>273.5</ele>
        <time>2012-06-13T06:59:46.000Z</time>
      </trkpt>
      <trkpt lat="44.01733" lon="4.63727">
        <ele>273.2</ele>
        <time>2012-06-13T06:59:48.000Z</time>
      </trkpt>
      <trkpt lat="44.01734" lon="4.63721">
        <ele>272.8</ele>
        <time>2012-06-13T06:59:50.000Z</time>
      </trkpt>
      <trkpt lat="44.01737" lon="4.63712">
        <ele>273.5</ele>
        <time>2012-06-13T06:59:53.000Z</time>
      </trkpt>
      <trkpt lat="44.0174" lon="4.63706">
        <ele>275</ele>
        <time>2012-06-13T06:59:56.000Z</time>
      </trkpt>
      <trkpt lat="44.01741" lon="4.63699">
        <ele>274.7</ele>
        <time>2012-06-13T06:59:58.000Z</time>
      </trkpt>
      <trkpt lat="44.01742" lon="4.63689">
        <ele>274.4</ele>
        <time>2012-06-13T07:00:00.000Z</time>
      </trkpt>
      <trkpt lat="44.01742" lon="4.63681">
        <ele>274.4</ele>
        <time>2012-06-13T07:00:02.000Z</time>
      </trkpt>
      <trkpt lat="44.01742" lon="4.63671">
        <ele>275.2</ele>
        <time>2012-06-13T07:00:04.000Z</time>
      </trkpt>
      <trkpt lat="44.01744" lon="4.63664">
        <ele>276</ele>
        <time>2012-06-13T07:00:06.000Z</time>
      </trkpt>
      <trkpt lat="44.01745" lon="4.63657">
        <ele>276.4</ele>
        <time>2012-06-13T07:00:09.000Z</time>
      </trkpt>
      <trkpt lat="44.01746" lon="4.63648">
        <ele>276.7</ele>
        <time>2012-06-13T07:00:11.000Z</time>
      </trkpt>
      <trkpt lat="44.01748" lon="4.63639">
        <ele>276.7</ele>
        <time>2012-06-13T07:00:14.000Z</time>
      </trkpt>
      <trkpt lat="44.0175" lon="4.63631">
        <ele>276.3</ele>
        <time>2012-06-13T07:00:17.000Z</time>
      </trkpt>
      <trkpt lat="44.01751" lon="4.63622">
        <ele>276.7</ele>
        <time>2012-06-13T07:00:19.000Z</time>
      </trkpt>
      <trkpt lat="44.01753" lon="4.63615">
        <ele>276.6</ele>
        <time>2012-06-13T07:00:22.000Z</time>
      </trkpt>
      <trkpt lat="44.01754" lon="4.63605">
        <ele>277.2</ele>
        <time>2012-06-13T07:00:26.000Z</time>
      </trkpt>
      <trkpt lat="44.01756" lon="4.63596">
        <ele>276.8</ele>
        <time>2012-06-13T07:00:28.000Z</time>
      </trkpt>
      <trkpt lat="44.01756" lon="4.63588">
        <ele>277.4</ele>
        <time>2012-06-13T07:00:30.000Z</time>
      </trkpt>
      <trkpt lat="44.01756" lon="4.63579">
        <ele>278.6</ele>
        <time>2012-06-13T07:00:32.000Z</time>
      </trkpt>
      <trkpt lat="44.01759" lon="4.6357">
        <ele>278.8</ele>
        <time>2012-06-13T07:00:35.000Z</time>
      </trkpt>
      <trkpt lat="44.01759" lon="4.6356">
        <ele>278</ele>
        <time>2012-06-13T07:00:38.000Z</time>
      </trkpt>
      <trkpt lat="44.01759" lon="4.63552">
        <ele>278.1</ele>
        <time>2012-06-13T07:00:40.000Z</time>
      </trkpt>
      <trkpt lat="44.01761" lon="4.63543">
        <ele>278</ele>
        <time>2012-06-13T07:00:43.000Z</time>
      </trkpt>
      <trkpt lat="44.01762" lon="4.63536">
        <ele>278.5</ele>
        <time>2012-06-13T07:00:45.000Z</time>
      </trkpt>
      <trkpt lat="44.01762" lon="4.6353">
        <ele>278.6</ele>
        <time>2012-06-13T07:00:47.000Z</time>
      </trkpt>
      <trkpt lat="44.01764" lon="4.63522">
        <ele>279.3</ele>
        <time>2012-06-13T07:00:49.000Z</time>
      </trkpt>
      <trkpt lat="44.01765" lon="4.63515">
        <ele>279.8</ele>
        <time>2012-06-13T07:00:51.000Z</time>
      </trkpt>
      <trkpt lat="44.01765" lon="4.63506">
        <ele>279.9</ele>
        <time>2012-06-13T07:00:53.000Z</time>
      </trkpt>
      <trkpt lat="44.01765" lon="4.63497">
        <ele>280.2</ele>
        <time>2012-06-13T07:00:55.000Z</time>
      </trkpt>
      <trkpt lat="44.01765" lon="4.6349">
        <ele>280.8</ele>
        <time>2012-06-13T07:00:57.000Z</time>
      </trkpt>
      <trkpt lat="44.01766" lon="4.63483">
        <ele>280.7</ele>
        <time>2012-06-13T07:01:00.000Z</time>
      </trkpt>
      <trkpt lat="44.01766" lon="4.63474">
        <ele>280.4</ele>
        <time>2012-06-13T07:01:02.000Z</time>
      </trkpt>
      <trkpt lat="44.01764" lon="4.63466">
        <ele>280</ele>
        <time>2012-06-13T07:01:04.000Z</time>
      </trkpt>
      <trkpt lat="44.01763" lon="4.63459">
        <ele>280.5</ele>
        <time>2012-06-13T07:01:06.000Z</time>
      </trkpt>
      <trkpt lat="44.01763" lon="4.63453">
        <ele>280.6</ele>
        <time>2012-06-13T07:01:08.000Z</time>
      </trkpt>
      <trkpt lat="44.01764" lon="4.63443">
        <ele>280.7</ele>
        <time>2012-06-13T07:01:11.000Z</time>
      </trkpt>
      <trkpt lat="44.01763" lon="4.63436">
        <ele>282.1</ele>
        <time>2012-06-13T07:01:13.000Z</time>
      </trkpt>
      <trkpt lat="44.01763" lon="4.63429">
        <ele>282.1</ele>
        <time>2012-06-13T07:01:15.000Z</time>
      </trkpt>
      <trkpt lat="44.01763" lon="4.63422">
        <ele>282.2</ele>
        <time>2012-06-13T07:01:17.000Z</time>
      </trkpt>
      <trkpt lat="44.01762" lon="4.63416">
        <ele>282.8</ele>
        <time>2012-06-13T07:01:19.000Z</time>
      </trkpt>
      <trkpt lat="44.01761" lon="4.63404">
        <ele>284.8</ele>
        <time>2012-06-13T07:01:22.000Z</time>
      </trkpt>
      <trkpt lat="44.01761" lon="4.63398">
        <ele>285.1</ele>
        <time>2012-06-13T07:01:24.000Z</time>
      </trkpt>
      <trkpt lat="44.01763" lon="4.63391">
        <ele>285.8</ele>
        <time>2012-06-13T07:01:27.000Z</time>
      </trkpt>
      <trkpt lat="44.01763" lon="4.63383">
        <ele>286.2</ele>
        <time>2012-06-13T07:01:29.000Z</time>
      </trkpt>
      <trkpt lat="44.01763" lon="4.63375">
        <ele>285.9</ele>
        <time>2012-06-13T07:01:32.000Z</time>
      </trkpt>
      <trkpt lat="44.01763" lon="4.63368">
        <ele>284.7</ele>
        <time>2012-06-13T07:01:34.000Z</time>
      </trkpt>
      <trkpt lat="44.01762" lon="4.63357">
        <ele>284</ele>
        <time>2012-06-13T07:01:37.000Z</time>
      </trkpt>
      <trkpt lat="44.01762" lon="4.63347">
        <ele>284.7</ele>
        <time>2012-06-13T07:01:39.000Z</time>
      </trkpt>
      <trkpt lat="44.01761" lon="4.6334">
        <ele>285.8</ele>
        <time>2012-06-13T07:01:41.000Z</time>
      </trkpt>
      <trkpt lat="44.01761" lon="4.63332">
        <ele>285.5</ele>
        <time>2012-06-13T07:01:43.000Z</time>
      </trkpt>
      <trkpt lat="44.01761" lon="4.63324">
        <ele>285.2</ele>
        <time>2012-06-13T07:01:45.000Z</time>
      </trkpt>
      <trkpt lat="44.01761" lon="4.63316">
        <ele>284.5</ele>
        <time>2012-06-13T07:01:47.000Z</time>
      </trkpt>
      <trkpt lat="44.0176" lon="4.63308">
        <ele>285.8</ele>
        <time>2012-06-13T07:01:49.000Z</time>
      </trkpt>
      <trkpt lat="44.0176" lon="4.633">
        <ele>285.9</ele>
        <time>2012-06-13T07:01:51.000Z</time>
      </trkpt>
      <trkpt lat="44.01759" lon="4.63292">
        <ele>286.1</ele>
        <time>2012-06-13T07:01:53.000Z</time>
      </trkpt>
      <trkpt lat="44.01759" lon="4.63282">
        <ele>287</ele>
        <time>2012-06-13T07:01:56.000Z</time>
      </trkpt>
      <trkpt lat="44.0176" lon="4.63274">
        <ele>287.1</ele>
        <time>2012-06-13T07:01:58.000Z</time>
      </trkpt>
      <trkpt lat="44.0176" lon="4.63266">
        <ele>286.5</ele>
        <time>2012-06-13T07:02:00.000Z</time>
      </trkpt>
      <trkpt lat="44.0176" lon="4.63257">
        <ele>287.3</ele>
        <time>2012-06-13T07:02:03.000Z</time>
      </trkpt>
      <trkpt lat="44.01759" lon="4.63247">
        <ele>286.8</ele>
        <time>2012-06-13T07:02:05.000Z</time>
      </trkpt>
      <trkpt lat="44.01757" lon="4.63239">
        <ele>286.6</ele>
        <time>2012-06-13T07:02:08.000Z</time>
      </trkpt>
      <trkpt lat="44.01758" lon="4.63232">
        <ele>287.2</ele>
        <time>2012-06-13T07:02:09.000Z</time>
      </trkpt>
      <trkpt lat="44.01758" lon="4.63223">
        <ele>286.9</ele>
        <time>2012-06-13T07:02:11.000Z</time>
      </trkpt>
      <trkpt lat="44.01758" lon="4.63212">
        <ele>287.1</ele>
        <time>2012-06-13T07:02:14.000Z</time>
      </trkpt>
      <trkpt lat="44.01758" lon="4.63204">
        <ele>286.9</ele>
        <time>2012-06-13T07:02:16.000Z</time>
      </trkpt>
      <trkpt lat="44.01758" lon="4.63197">
        <ele>286.5</ele>
        <time>2012-06-13T07:02:19.000Z</time>
      </trkpt>
      <trkpt lat="44.01757" lon="4.63187">
        <ele>285.9</ele>
        <time>2012-06-13T07:02:21.000Z</time>
      </trkpt>
      <trkpt lat="44.01757" lon="4.6318">
        <ele>285.6</ele>
        <time>2012-06-13T07:02:23.000Z</time>
      </trkpt>
      <trkpt lat="44.01757" lon="4.63172">
        <ele>285.4</ele>
        <time>2012-06-13T07:02:25.000Z</time>
      </trkpt>
      <trkpt lat="44.01757" lon="4.63165">
        <ele>286.4</ele>
        <time>2012-06-13T07:02:27.000Z</time>
      </trkpt>
      <trkpt lat="44.01755" lon="4.63157">
        <ele>286.9</ele>
        <time>2012-06-13T07:02:29.000Z</time>
      </trkpt>
      <trkpt lat="44.01755" lon="4.63148">
        <ele>286.8</ele>
        <time>2012-06-13T07:02:32.000Z</time>
      </trkpt>
      <trkpt lat="44.01754" lon="4.6314">
        <ele>287.2</ele>
        <time>2012-06-13T07:02:34.000Z</time>
      </trkpt>
      <trkpt lat="44.01755" lon="4.63132">
        <ele>287.7</ele>
        <time>2012-06-13T07:02:36.000Z</time>
      </trkpt>
      <trkpt lat="44.01755" lon="4.63124">
        <ele>288.2</ele>
        <time>2012-06-13T07:02:38.000Z</time>
      </trkpt>
      <trkpt lat="44.01755" lon="4.63116">
        <ele>288.7</ele>
        <time>2012-06-13T07:02:40.000Z</time>
      </trkpt>
      <trkpt lat="44.01755" lon="4.6311">
        <ele>289.5</ele>
        <time>2012-06-13T07:02:42.000Z</time>
      </trkpt>
      <trkpt lat="44.01756" lon="4.631">
        <ele>290.2</ele>
        <time>2012-06-13T07:02:45.000Z</time>
      </trkpt>
      <trkpt lat="44.01754" lon="4.6309">
        <ele>290.3</ele>
        <time>2012-06-13T07:02:47.000Z</time>
      </trkpt>
      <trkpt lat="44.01754" lon="4.63084">
        <ele>290</ele>
        <time>2012-06-13T07:02:49.000Z</time>
      </trkpt>
      <trkpt lat="44.01755" lon="4.63077">
        <ele>290.2</ele>
        <time>2012-06-13T07:02:51.000Z</time>
      </trkpt>
      <trkpt lat="44.01755" lon="4.6307">
        <ele>290.8</ele>
        <time>2012-06-13T07:02:53.000Z</time>
      </trkpt>
      <trkpt lat="44.01754" lon="4.63063">
        <ele>291.5</ele>
        <time>2012-06-13T07:02:55.000Z</time>
      </trkpt>
      <trkpt lat="44.01753" lon="4.63054">
        <ele>291.4</ele>
        <time>2012-06-13T07:02:57.000Z</time>
      </trkpt>
      <trkpt lat="44.01753" lon="4.63045">
        <ele>292.1</ele>
        <time>2012-06-13T07:03:00.000Z</time>
      </trkpt>
      <trkpt lat="44.01754" lon="4.63037">
        <ele>292.4</ele>
        <time>2012-06-13T07:03:03.000Z</time>
      </trkpt>
      <trkpt lat="44.01754" lon="4.63027">
        <ele>292.9</ele>
        <time>2012-06-13T07:03:05.000Z</time>
      </trkpt>
      <trkpt lat="44.01753" lon="4.63016">
        <ele>293.9</ele>
        <time>2012-06-13T07:03:07.000Z</time>
      </trkpt>
      <trkpt lat="44.01754" lon="4.63008">
        <ele>293.8</ele>
        <time>2012-06-13T07:03:09.000Z</time>
      </trkpt>
      <trkpt lat="44.01754" lon="4.63">
        <ele>293.8</ele>
        <time>2012-06-13T07:03:11.000Z</time>
      </trkpt>
      <trkpt lat="44.01754" lon="4.62992">
        <ele>294.4</ele>
        <time>2012-06-13T07:03:13.000Z</time>
      </trkpt>
      <trkpt lat="44.01754" lon="4.62984">
        <ele>294.9</ele>
        <time>2012-06-13T07:03:15.000Z</time>
      </trkpt>
      <trkpt lat="44.01753" lon="4.62976">
        <ele>294.3</ele>
        <time>2012-06-13T07:03:17.000Z</time>
      </trkpt>
      <trkpt lat="44.01754" lon="4.62966">
        <ele>294.4</ele>
        <time>2012-06-13T07:03:19.000Z</time>
      </trkpt>
      <trkpt lat="44.01752" lon="4.62956">
        <ele>293.7</ele>
        <time>2012-06-13T07:03:21.000Z</time>
      </trkpt>
      <trkpt lat="44.01752" lon="4.62947">
        <ele>293.8</ele>
        <time>2012-06-13T07:03:23.000Z</time>
      </trkpt>
      <trkpt lat="44.01752" lon="4.62938">
        <ele>295.1</ele>
        <time>2012-06-13T07:03:25.000Z</time>
      </trkpt>
      <trkpt lat="44.01751" lon="4.62928">
        <ele>295.2</ele>
        <time>2012-06-13T07:03:27.000Z</time>
      </trkpt>
      <trkpt lat="44.01748" lon="4.62917">
        <ele>295.5</ele>
        <time>2012-06-13T07:03:29.000Z</time>
      </trkpt>
      <trkpt lat="44.01751" lon="4.62912">
        <ele>295.4</ele>
        <time>2012-06-13T07:03:31.000Z</time>
      </trkpt>
      <trkpt lat="44.01752" lon="4.62903">
        <ele>296.1</ele>
        <time>2012-06-13T07:03:33.000Z</time>
      </trkpt>
      <trkpt lat="44.01753" lon="4.62894">
        <ele>295.5</ele>
        <time>2012-06-13T07:03:35.000Z</time>
      </trkpt>
      <trkpt lat="44.01753" lon="4.62885">
        <ele>296.6</ele>
        <time>2012-06-13T07:03:37.000Z</time>
      </trkpt>
      <trkpt lat="44.01753" lon="4.62878">
        <ele>296.7</ele>
        <time>2012-06-13T07:03:39.000Z</time>
      </trkpt>
      <trkpt lat="44.01754" lon="4.6287">
        <ele>296.3</ele>
        <time>2012-06-13T07:03:41.000Z</time>
      </trkpt>
      <trkpt lat="44.01753" lon="4.6286">
        <ele>296.8</ele>
        <time>2012-06-13T07:03:43.000Z</time>
      </trkpt>
      <trkpt lat="44.0175" lon="4.62848">
        <ele>298</ele>
        <time>2012-06-13T07:03:45.000Z</time>
      </trkpt>
      <trkpt lat="44.01751" lon="4.62841">
        <ele>298.2</ele>
        <time>2012-06-13T07:03:47.000Z</time>
      </trkpt>
      <trkpt lat="44.01751" lon="4.62833">
        <ele>297.6</ele>
        <time>2012-06-13T07:03:49.000Z</time>
      </trkpt>
      <trkpt lat="44.01753" lon="4.62824">
        <ele>296.7</ele>
        <time>2012-06-13T07:03:51.000Z</time>
      </trkpt>
      <trkpt lat="44.01754" lon="4.62818">
        <ele>297</ele>
        <time>2012-06-13T07:03:53.000Z</time>
      </trkpt>
      <trkpt lat="44.01752" lon="4.62811">
        <ele>296.8</ele>
        <time>2012-06-13T07:03:55.000Z</time>
      </trkpt>
      <trkpt lat="44.01751" lon="4.62804">
        <ele>297.2</ele>
        <time>2012-06-13T07:03:57.000Z</time>
      </trkpt>
      <trkpt lat="44.01754" lon="4.62799">
        <ele>296.8</ele>
        <time>2012-06-13T07:03:59.000Z</time>
      </trkpt>
      <trkpt lat="44.01754" lon="4.62792">
        <ele>297.2</ele>
        <time>2012-06-13T07:04:01.000Z</time>
      </trkpt>
      <trkpt lat="44.01754" lon="4.62784">
        <ele>297.6</ele>
        <time>2012-06-13T07:04:03.000Z</time>
      </trkpt>
      <trkpt lat="44.01753" lon="4.62776">
        <ele>297.5</ele>
        <time>2012-06-13T07:04:05.000Z</time>
      </trkpt>
      <trkpt lat="44.0175" lon="4.62768">
        <ele>297.2</ele>
        <time>2012-06-13T07:04:07.000Z</time>
      </trkpt>
      <trkpt lat="44.0175" lon="4.62758">
        <ele>297.1</ele>
        <time>2012-06-13T07:04:10.000Z</time>
      </trkpt>
      <trkpt lat="44.01749" lon="4.62752">
        <ele>297.6</ele>
        <time>2012-06-13T07:04:12.000Z</time>
      </trkpt>
      <trkpt lat="44.01749" lon="4.62741">
        <ele>297.7</ele>
        <time>2012-06-13T07:04:15.000Z</time>
      </trkpt>
      <trkpt lat="44.01749" lon="4.62733">
        <ele>298.1</ele>
        <time>2012-06-13T07:04:18.000Z</time>
      </trkpt>
      <trkpt lat="44.01746" lon="4.62724">
        <ele>298.3</ele>
        <time>2012-06-13T07:04:21.000Z</time>
      </trkpt>
      <trkpt lat="44.01746" lon="4.62714">
        <ele>297.3</ele>
        <time>2012-06-13T07:04:24.000Z</time>
      </trkpt>
      <trkpt lat="44.01745" lon="4.62706">
        <ele>298</ele>
        <time>2012-06-13T07:04:26.000Z</time>
      </trkpt>
      <trkpt lat="44.01743" lon="4.62697">
        <ele>299.1</ele>
        <time>2012-06-13T07:04:27.000Z</time>
      </trkpt>
      <trkpt lat="44.01743" lon="4.6269">
        <ele>298.9</ele>
        <time>2012-06-13T07:04:29.000Z</time>
      </trkpt>
      <trkpt lat="44.01742" lon="4.62682">
        <ele>298.7</ele>
        <time>2012-06-13T07:04:31.000Z</time>
      </trkpt>
      <trkpt lat="44.01741" lon="4.62673">
        <ele>299.4</ele>
        <time>2012-06-13T07:04:33.000Z</time>
      </trkpt>
      <trkpt lat="44.0174" lon="4.62667">
        <ele>299.2</ele>
        <time>2012-06-13T07:04:35.000Z</time>
      </trkpt>
      <trkpt lat="44.01738" lon="4.62659">
        <ele>299.3</ele>
        <time>2012-06-13T07:04:37.000Z</time>
      </trkpt>
      <trkpt lat="44.01738" lon="4.62652">
        <ele>298.5</ele>
        <time>2012-06-13T07:04:39.000Z</time>
      </trkpt>
      <trkpt lat="44.01736" lon="4.62646">
        <ele>298.2</ele>
        <time>2012-06-13T07:04:42.000Z</time>
      </trkpt>
      <trkpt lat="44.01736" lon="4.62638">
        <ele>297.8</ele>
        <time>2012-06-13T07:04:44.000Z</time>
      </trkpt>
      <trkpt lat="44.01735" lon="4.62631">
        <ele>299.6</ele>
        <time>2012-06-13T07:04:46.000Z</time>
      </trkpt>
      <trkpt lat="44.01733" lon="4.62624">
        <ele>299.4</ele>
        <time>2012-06-13T07:04:48.000Z</time>
      </trkpt>
      <trkpt lat="44.01733" lon="4.62616">
        <ele>299</ele>
        <time>2012-06-13T07:04:50.000Z</time>
      </trkpt>
      <trkpt lat="44.01732" lon="4.62608">
        <ele>299.6</ele>
        <time>2012-06-13T07:04:52.000Z</time>
      </trkpt>
      <trkpt lat="44.01732" lon="4.62601">
        <ele>299.2</ele>
        <time>2012-06-13T07:04:54.000Z</time>
      </trkpt>
      <trkpt lat="44.0173" lon="4.62593">
        <ele>299.3</ele>
        <time>2012-06-13T07:04:56.000Z</time>
      </trkpt>
      <trkpt lat="44.01727" lon="4.62584">
        <ele>300</ele>
        <time>2012-06-13T07:04:58.000Z</time>
      </trkpt>
      <trkpt lat="44.01724" lon="4.62575">
        <ele>301</ele>
        <time>2012-06-13T07:05:00.000Z</time>
      </trkpt>
      <trkpt lat="44.01725" lon="4.62567">
        <ele>302</ele>
        <time>2012-06-13T07:05:02.000Z</time>
      </trkpt>
      <trkpt lat="44.0173" lon="4.62567">
        <ele>301.1</ele>
        <time>2012-06-13T07:05:04.000Z</time>
      </trkpt>
      <trkpt lat="44.01735" lon="4.62566">
        <ele>301.7</ele>
        <time>2012-06-13T07:05:06.000Z</time>
      </trkpt>
      <trkpt lat="44.0174" lon="4.62566">
        <ele>301.8</ele>
        <time>2012-06-13T07:05:08.000Z</time>
      </trkpt>
      <trkpt lat="44.01745" lon="4.62567">
        <ele>301</ele>
        <time>2012-06-13T07:05:10.000Z</time>
      </trkpt>
      <trkpt lat="44.01742" lon="4.62572">
        <ele>299.7</ele>
        <time>2012-06-13T07:05:39.000Z</time>
      </trkpt>
      <trkpt lat="44.01746" lon="4.62569">
        <ele>305.8</ele>
        <time>2012-06-13T07:06:30.000Z</time>
      </trkpt>
      <trkpt lat="44.01741" lon="4.62569">
        <ele>305.8</ele>
        <time>2012-06-13T07:09:02.000Z</time>
      </trkpt>
      <trkpt lat="44.01736" lon="4.6257">
        <ele>304.6</ele>
        <time>2012-06-13T07:09:06.000Z</time>
      </trkpt>
      <trkpt lat="44.01741" lon="4.62568">
        <ele>306.6</ele>
        <time>2012-06-13T07:09:37.000Z</time>
      </trkpt>
      <trkpt lat="44.01746" lon="4.62569">
        <ele>306.5</ele>
        <time>2012-06-13T07:09:43.000Z</time>
      </trkpt>
      <trkpt lat="44.0175" lon="4.62565">
        <ele>304.4</ele>
        <time>2012-06-13T07:12:03.000Z</time>
      </trkpt>
      <trkpt lat="44.01753" lon="4.62561">
        <ele>305.2</ele>
        <time>2012-06-13T07:12:06.000Z</time>
      </trkpt>
      <trkpt lat="44.01758" lon="4.62559">
        <ele>305.7</ele>
        <time>2012-06-13T07:12:09.000Z</time>
      </trkpt>
      <trkpt lat="44.01764" lon="4.62558">
        <ele>306.3</ele>
        <time>2012-06-13T07:12:12.000Z</time>
      </trkpt>
      <trkpt lat="44.01768" lon="4.62555">
        <ele>306.2</ele>
        <time>2012-06-13T07:12:14.000Z</time>
      </trkpt>
      <trkpt lat="44.01773" lon="4.62553">
        <ele>306.7</ele>
        <time>2012-06-13T07:12:16.000Z</time>
      </trkpt>
      <trkpt lat="44.01779" lon="4.62549">
        <ele>307.1</ele>
        <time>2012-06-13T07:12:19.000Z</time>
      </trkpt>
      <trkpt lat="44.01783" lon="4.62548">
        <ele>307.3</ele>
        <time>2012-06-13T07:12:21.000Z</time>
      </trkpt>
      <trkpt lat="44.01788" lon="4.62546">
        <ele>307.6</ele>
        <time>2012-06-13T07:12:23.000Z</time>
      </trkpt>
      <trkpt lat="44.01792" lon="4.62541">
        <ele>308.1</ele>
        <time>2012-06-13T07:12:26.000Z</time>
      </trkpt>
      <trkpt lat="44.01797" lon="4.62538">
        <ele>308.6</ele>
        <time>2012-06-13T07:12:28.000Z</time>
      </trkpt>
      <trkpt lat="44.01804" lon="4.62534">
        <ele>308.6</ele>
        <time>2012-06-13T07:12:31.000Z</time>
      </trkpt>
      <trkpt lat="44.0181" lon="4.62533">
        <ele>307.8</ele>
        <time>2012-06-13T07:12:33.000Z</time>
      </trkpt>
      <trkpt lat="44.01817" lon="4.62533">
        <ele>307.7</ele>
        <time>2012-06-13T07:12:36.000Z</time>
      </trkpt>
      <trkpt lat="44.01823" lon="4.62529">
        <ele>308.1</ele>
        <time>2012-06-13T07:12:38.000Z</time>
      </trkpt>
      <trkpt lat="44.0183" lon="4.62526">
        <ele>308.4</ele>
        <time>2012-06-13T07:12:41.000Z</time>
      </trkpt>
      <trkpt lat="44.01836" lon="4.6252">
        <ele>308.1</ele>
        <time>2012-06-13T07:12:43.000Z</time>
      </trkpt>
      <trkpt lat="44.01842" lon="4.62517">
        <ele>308.9</ele>
        <time>2012-06-13T07:12:45.000Z</time>
      </trkpt>
      <trkpt lat="44.01847" lon="4.62514">
        <ele>308.6</ele>
        <time>2012-06-13T07:12:47.000Z</time>
      </trkpt>
      <trkpt lat="44.01852" lon="4.62512">
        <ele>308.7</ele>
        <time>2012-06-13T07:12:49.000Z</time>
      </trkpt>
      <trkpt lat="44.01858" lon="4.62509">
        <ele>309.6</ele>
        <time>2012-06-13T07:12:52.000Z</time>
      </trkpt>
      <trkpt lat="44.01863" lon="4.62505">
        <ele>311</ele>
        <time>2012-06-13T07:12:55.000Z</time>
      </trkpt>
      <trkpt lat="44.01869" lon="4.62501">
        <ele>311.3</ele>
        <time>2012-06-13T07:12:58.000Z</time>
      </trkpt>
      <trkpt lat="44.01874" lon="4.62498">
        <ele>311.9</ele>
        <time>2012-06-13T07:13:00.000Z</time>
      </trkpt>
      <trkpt lat="44.0188" lon="4.62497">
        <ele>311.5</ele>
        <time>2012-06-13T07:13:02.000Z</time>
      </trkpt>
      <trkpt lat="44.01886" lon="4.62495">
        <ele>311.9</ele>
        <time>2012-06-13T07:13:04.000Z</time>
      </trkpt>
      <trkpt lat="44.01892" lon="4.62492">
        <ele>312</ele>
        <time>2012-06-13T07:13:06.000Z</time>
      </trkpt>
      <trkpt lat="44.01898" lon="4.62489">
        <ele>313.1</ele>
        <time>2012-06-13T07:13:09.000Z</time>
      </trkpt>
      <trkpt lat="44.01905" lon="4.62486">
        <ele>313.5</ele>
        <time>2012-06-13T07:13:12.000Z</time>
      </trkpt>
      <trkpt lat="44.01912" lon="4.62482">
        <ele>312.8</ele>
        <time>2012-06-13T07:13:14.000Z</time>
      </trkpt>
      <trkpt lat="44.01917" lon="4.6248">
        <ele>313.2</ele>
        <time>2012-06-13T07:13:16.000Z</time>
      </trkpt>
      <trkpt lat="44.01921" lon="4.62476">
        <ele>313.5</ele>
        <time>2012-06-13T07:13:18.000Z</time>
      </trkpt>
      <trkpt lat="44.01926" lon="4.62473">
        <ele>313.1</ele>
        <time>2012-06-13T07:13:20.000Z</time>
      </trkpt>
      <trkpt lat="44.01932" lon="4.6247">
        <ele>312.4</ele>
        <time>2012-06-13T07:13:22.000Z</time>
      </trkpt>
      <trkpt lat="44.01937" lon="4.62468">
        <ele>312.9</ele>
        <time>2012-06-13T07:13:24.000Z</time>
      </trkpt>
      <trkpt lat="44.01944" lon="4.62466">
        <ele>313.7</ele>
        <time>2012-06-13T07:13:26.000Z</time>
      </trkpt>
      <trkpt lat="44.01949" lon="4.62464">
        <ele>313.7</ele>
        <time>2012-06-13T07:13:28.000Z</time>
      </trkpt>
      <trkpt lat="44.01956" lon="4.6246">
        <ele>314.3</ele>
        <time>2012-06-13T07:13:30.000Z</time>
      </trkpt>
      <trkpt lat="44.0196" lon="4.62459">
        <ele>314.9</ele>
        <time>2012-06-13T07:13:32.000Z</time>
      </trkpt>
      <trkpt lat="44.01966" lon="4.62458">
        <ele>314.6</ele>
        <time>2012-06-13T07:13:34.000Z</time>
      </trkpt>
      <trkpt lat="44.01972" lon="4.62454">
        <ele>315.1</ele>
        <time>2012-06-13T07:13:36.000Z</time>
      </trkpt>
      <trkpt lat="44.01977" lon="4.62451">
        <ele>315.1</ele>
        <time>2012-06-13T07:13:38.000Z</time>
      </trkpt>
      <trkpt lat="44.01982" lon="4.62448">
        <ele>316.2</ele>
        <time>2012-06-13T07:13:40.000Z</time>
      </trkpt>
      <trkpt lat="44.01988" lon="4.62444">
        <ele>316</ele>
        <time>2012-06-13T07:13:42.000Z</time>
      </trkpt>
      <trkpt lat="44.01994" lon="4.62441">
        <ele>315.7</ele>
        <time>2012-06-13T07:13:44.000Z</time>
      </trkpt>
      <trkpt lat="44.02" lon="4.62437">
        <ele>314.7</ele>
        <time>2012-06-13T07:13:47.000Z</time>
      </trkpt>
      <trkpt lat="44.02007" lon="4.62432">
        <ele>314.6</ele>
        <time>2012-06-13T07:13:50.000Z</time>
      </trkpt>
      <trkpt lat="44.02012" lon="4.62429">
        <ele>314.4</ele>
        <time>2012-06-13T07:13:52.000Z</time>
      </trkpt>
      <trkpt lat="44.02018" lon="4.62426">
        <ele>314.3</ele>
        <time>2012-06-13T07:13:54.000Z</time>
      </trkpt>
      <trkpt lat="44.02025" lon="4.62423">
        <ele>315.1</ele>
        <time>2012-06-13T07:13:56.000Z</time>
      </trkpt>
      <trkpt lat="44.02031" lon="4.62421">
        <ele>315</ele>
        <time>2012-06-13T07:13:58.000Z</time>
      </trkpt>
      <trkpt lat="44.02038" lon="4.62418">
        <ele>315.1</ele>
        <time>2012-06-13T07:14:00.000Z</time>
      </trkpt>
      <trkpt lat="44.02046" lon="4.62415">
        <ele>314.4</ele>
        <time>2012-06-13T07:14:02.000Z</time>
      </trkpt>
      <trkpt lat="44.02052" lon="4.62412">
        <ele>314.4</ele>
        <time>2012-06-13T07:14:03.000Z</time>
      </trkpt>
      <trkpt lat="44.02058" lon="4.6241">
        <ele>314.7</ele>
        <time>2012-06-13T07:14:05.000Z</time>
      </trkpt>
      <trkpt lat="44.02064" lon="4.62405">
        <ele>315.3</ele>
        <time>2012-06-13T07:14:07.000Z</time>
      </trkpt>
      <trkpt lat="44.0207" lon="4.62401">
        <ele>315.7</ele>
        <time>2012-06-13T07:14:09.000Z</time>
      </trkpt>
      <trkpt lat="44.02074" lon="4.62398">
        <ele>315.7</ele>
        <time>2012-06-13T07:14:11.000Z</time>
      </trkpt>
      <trkpt lat="44.02081" lon="4.62395">
        <ele>315.5</ele>
        <time>2012-06-13T07:14:13.000Z</time>
      </trkpt>
      <trkpt lat="44.02086" lon="4.62391">
        <ele>316.3</ele>
        <time>2012-06-13T07:14:15.000Z</time>
      </trkpt>
      <trkpt lat="44.02092" lon="4.62389">
        <ele>316.4</ele>
        <time>2012-06-13T07:14:17.000Z</time>
      </trkpt>
      <trkpt lat="44.02097" lon="4.62387">
        <ele>315.3</ele>
        <time>2012-06-13T07:14:18.000Z</time>
      </trkpt>
      <trkpt lat="44.02106" lon="4.62382">
        <ele>315.4</ele>
        <time>2012-06-13T07:14:20.000Z</time>
      </trkpt>
      <trkpt lat="44.0211" lon="4.6238">
        <ele>315.7</ele>
        <time>2012-06-13T07:14:21.000Z</time>
      </trkpt>
      <trkpt lat="44.02115" lon="4.62377">
        <ele>316</ele>
        <time>2012-06-13T07:14:22.000Z</time>
      </trkpt>
      <trkpt lat="44.02122" lon="4.62372">
        <ele>316</ele>
        <time>2012-06-13T07:14:24.000Z</time>
      </trkpt>
      <trkpt lat="44.02126" lon="4.62369">
        <ele>316.2</ele>
        <time>2012-06-13T07:14:25.000Z</time>
      </trkpt>
      <trkpt lat="44.02134" lon="4.62365">
        <ele>315.9</ele>
        <time>2012-06-13T07:14:27.000Z</time>
      </trkpt>
      <trkpt lat="44.0214" lon="4.62363">
        <ele>315.9</ele>
        <time>2012-06-13T07:14:29.000Z</time>
      </trkpt>
      <trkpt lat="44.02144" lon="4.62362">
        <ele>315.7</ele>
        <time>2012-06-13T07:14:30.000Z</time>
      </trkpt>
      <trkpt lat="44.02153" lon="4.62358">
        <ele>315.3</ele>
        <time>2012-06-13T07:14:32.000Z</time>
      </trkpt>
      <trkpt lat="44.02157" lon="4.62355">
        <ele>315</ele>
        <time>2012-06-13T07:14:33.000Z</time>
      </trkpt>
      <trkpt lat="44.02162" lon="4.62352">
        <ele>314.7</ele>
        <time>2012-06-13T07:14:34.000Z</time>
      </trkpt>
      <trkpt lat="44.02169" lon="4.6235">
        <ele>315</ele>
        <time>2012-06-13T07:14:36.000Z</time>
      </trkpt>
      <trkpt lat="44.02173" lon="4.62347">
        <ele>314.4</ele>
        <time>2012-06-13T07:14:37.000Z</time>
      </trkpt>
      <trkpt lat="44.02177" lon="4.62344">
        <ele>315.1</ele>
        <time>2012-06-13T07:14:38.000Z</time>
      </trkpt>
      <trkpt lat="44.02182" lon="4.62342">
        <ele>315.7</ele>
        <time>2012-06-13T07:14:39.000Z</time>
      </trkpt>
      <trkpt lat="44.02193" lon="4.62336">
        <ele>314.6</ele>
        <time>2012-06-13T07:14:41.000Z</time>
      </trkpt>
      <trkpt lat="44.02198" lon="4.62333">
        <ele>314.8</ele>
        <time>2012-06-13T07:14:42.000Z</time>
      </trkpt>
      <trkpt lat="44.02203" lon="4.6233">
        <ele>315.1</ele>
        <time>2012-06-13T07:14:43.000Z</time>
      </trkpt>
      <trkpt lat="44.02207" lon="4.62327">
        <ele>315.2</ele>
        <time>2012-06-13T07:14:44.000Z</time>
      </trkpt>
      <trkpt lat="44.02214" lon="4.62324">
        <ele>315.3</ele>
        <time>2012-06-13T07:14:46.000Z</time>
      </trkpt>
      <trkpt lat="44.02222" lon="4.6232">
        <ele>315.5</ele>
        <time>2012-06-13T07:14:48.000Z</time>
      </trkpt>
      <trkpt lat="44.02231" lon="4.62317">
        <ele>315.5</ele>
        <time>2012-06-13T07:14:50.000Z</time>
      </trkpt>
      <trkpt lat="44.0224" lon="4.62313">
        <ele>315.1</ele>
        <time>2012-06-13T07:14:52.000Z</time>
      </trkpt>
      <trkpt lat="44.02247" lon="4.62309">
        <ele>315</ele>
        <time>2012-06-13T07:14:54.000Z</time>
      </trkpt>
      <trkpt lat="44.02254" lon="4.62304">
        <ele>315</ele>
        <time>2012-06-13T07:14:56.000Z</time>
      </trkpt>
      <trkpt lat="44.02261" lon="4.62301">
        <ele>314.5</ele>
        <time>2012-06-13T07:14:58.000Z</time>
      </trkpt>
      <trkpt lat="44.02266" lon="4.623">
        <ele>314.6</ele>
        <time>2012-06-13T07:14:59.000Z</time>
      </trkpt>
      <trkpt lat="44.0227" lon="4.62296">
        <ele>314.6</ele>
        <time>2012-06-13T07:15:00.000Z</time>
      </trkpt>
      <trkpt lat="44.02278" lon="4.62291">
        <ele>315.2</ele>
        <time>2012-06-13T07:15:02.000Z</time>
      </trkpt>
      <trkpt lat="44.02284" lon="4.62288">
        <ele>315.9</ele>
        <time>2012-06-13T07:15:04.000Z</time>
      </trkpt>
      <trkpt lat="44.02293" lon="4.62284">
        <ele>316.2</ele>
        <time>2012-06-13T07:15:06.000Z</time>
      </trkpt>
      <trkpt lat="44.02297" lon="4.62283">
        <ele>316.9</ele>
        <time>2012-06-13T07:15:07.000Z</time>
      </trkpt>
      <trkpt lat="44.02302" lon="4.62281">
        <ele>317.4</ele>
        <time>2012-06-13T07:15:08.000Z</time>
      </trkpt>
      <trkpt lat="44.02309" lon="4.62276">
        <ele>316.8</ele>
        <time>2012-06-13T07:15:10.000Z</time>
      </trkpt>
      <trkpt lat="44.02318" lon="4.62271">
        <ele>316</ele>
        <time>2012-06-13T07:15:12.000Z</time>
      </trkpt>
      <trkpt lat="44.02326" lon="4.62267">
        <ele>315.7</ele>
        <time>2012-06-13T07:15:14.000Z</time>
      </trkpt>
      <trkpt lat="44.02333" lon="4.62264">
        <ele>315.3</ele>
        <time>2012-06-13T07:15:16.000Z</time>
      </trkpt>
      <trkpt lat="44.0234" lon="4.62262">
        <ele>315.4</ele>
        <time>2012-06-13T07:15:18.000Z</time>
      </trkpt>
      <trkpt lat="44.02345" lon="4.62258">
        <ele>315.9</ele>
        <time>2012-06-13T07:15:19.000Z</time>
      </trkpt>
      <trkpt lat="44.02351" lon="4.62254">
        <ele>316.7</ele>
        <time>2012-06-13T07:15:21.000Z</time>
      </trkpt>
      <trkpt lat="44.02356" lon="4.62252">
        <ele>316</ele>
        <time>2012-06-13T07:15:22.000Z</time>
      </trkpt>
      <trkpt lat="44.02362" lon="4.62249">
        <ele>316</ele>
        <time>2012-06-13T07:15:24.000Z</time>
      </trkpt>
      <trkpt lat="44.02371" lon="4.62245">
        <ele>316</ele>
        <time>2012-06-13T07:15:26.000Z</time>
      </trkpt>
      <trkpt lat="44.02379" lon="4.62242">
        <ele>316.3</ele>
        <time>2012-06-13T07:15:28.000Z</time>
      </trkpt>
      <trkpt lat="44.02386" lon="4.6224">
        <ele>316.8</ele>
        <time>2012-06-13T07:15:30.000Z</time>
      </trkpt>
      <trkpt lat="44.02393" lon="4.62239">
        <ele>316.4</ele>
        <time>2012-06-13T07:15:32.000Z</time>
      </trkpt>
      <trkpt lat="44.024" lon="4.62236">
        <ele>316.4</ele>
        <time>2012-06-13T07:15:34.000Z</time>
      </trkpt>
      <trkpt lat="44.02406" lon="4.62234">
        <ele>315.5</ele>
        <time>2012-06-13T07:15:36.000Z</time>
      </trkpt>
      <trkpt lat="44.02412" lon="4.62233">
        <ele>314.7</ele>
        <time>2012-06-13T07:15:38.000Z</time>
      </trkpt>
      <trkpt lat="44.02418" lon="4.62233">
        <ele>314.3</ele>
        <time>2012-06-13T07:15:40.000Z</time>
      </trkpt>
      <trkpt lat="44.02425" lon="4.6223">
        <ele>313.9</ele>
        <time>2012-06-13T07:15:42.000Z</time>
      </trkpt>
      <trkpt lat="44.02432" lon="4.62228">
        <ele>313.8</ele>
        <time>2012-06-13T07:15:44.000Z</time>
      </trkpt>
      <trkpt lat="44.02438" lon="4.62227">
        <ele>314.1</ele>
        <time>2012-06-13T07:15:46.000Z</time>
      </trkpt>
      <trkpt lat="44.02444" lon="4.62225">
        <ele>313.5</ele>
        <time>2012-06-13T07:15:48.000Z</time>
      </trkpt>
      <trkpt lat="44.0245" lon="4.62222">
        <ele>313.6</ele>
        <time>2012-06-13T07:15:50.000Z</time>
      </trkpt>
      <trkpt lat="44.02457" lon="4.62218">
        <ele>313.4</ele>
        <time>2012-06-13T07:15:52.000Z</time>
      </trkpt>
      <trkpt lat="44.02465" lon="4.62215">
        <ele>313.3</ele>
        <time>2012-06-13T07:15:54.000Z</time>
      </trkpt>
      <trkpt lat="44.02471" lon="4.62216">
        <ele>312.5</ele>
        <time>2012-06-13T07:15:56.000Z</time>
      </trkpt>
      <trkpt lat="44.02477" lon="4.62214">
        <ele>311.7</ele>
        <time>2012-06-13T07:15:58.000Z</time>
      </trkpt>
      <trkpt lat="44.02485" lon="4.62213">
        <ele>311.3</ele>
        <time>2012-06-13T07:16:00.000Z</time>
      </trkpt>
      <trkpt lat="44.0249" lon="4.62211">
        <ele>311.6</ele>
        <time>2012-06-13T07:16:01.000Z</time>
      </trkpt>
      <trkpt lat="44.02497" lon="4.62211">
        <ele>312.6</ele>
        <time>2012-06-13T07:16:03.000Z</time>
      </trkpt>
      <trkpt lat="44.02505" lon="4.62209">
        <ele>312.8</ele>
        <time>2012-06-13T07:16:05.000Z</time>
      </trkpt>
      <trkpt lat="44.0251" lon="4.62208">
        <ele>313</ele>
        <time>2012-06-13T07:16:06.000Z</time>
      </trkpt>
      <trkpt lat="44.02515" lon="4.62205">
        <ele>313.6</ele>
        <time>2012-06-13T07:16:07.000Z</time>
      </trkpt>
      <trkpt lat="44.0252" lon="4.62204">
        <ele>313.7</ele>
        <time>2012-06-13T07:16:08.000Z</time>
      </trkpt>
      <trkpt lat="44.02525" lon="4.62203">
        <ele>313.7</ele>
        <time>2012-06-13T07:16:09.000Z</time>
      </trkpt>
      <trkpt lat="44.02533" lon="4.62199">
        <ele>314.8</ele>
        <time>2012-06-13T07:16:11.000Z</time>
      </trkpt>
      <trkpt lat="44.02541" lon="4.62198">
        <ele>315.6</ele>
        <time>2012-06-13T07:16:13.000Z</time>
      </trkpt>
      <trkpt lat="44.02547" lon="4.62196">
        <ele>316.6</ele>
        <time>2012-06-13T07:16:15.000Z</time>
      </trkpt>
      <trkpt lat="44.02553" lon="4.62193">
        <ele>315.6</ele>
        <time>2012-06-13T07:16:17.000Z</time>
      </trkpt>
      <trkpt lat="44.0256" lon="4.62191">
        <ele>315.8</ele>
        <time>2012-06-13T07:16:19.000Z</time>
      </trkpt>
      <trkpt lat="44.02566" lon="4.62189">
        <ele>315.2</ele>
        <time>2012-06-13T07:16:21.000Z</time>
      </trkpt>
      <trkpt lat="44.02574" lon="4.62188">
        <ele>316.4</ele>
        <time>2012-06-13T07:16:23.000Z</time>
      </trkpt>
      <trkpt lat="44.0258" lon="4.62186">
        <ele>316.8</ele>
        <time>2012-06-13T07:16:25.000Z</time>
      </trkpt>
      <trkpt lat="44.02588" lon="4.62185">
        <ele>316.7</ele>
        <time>2012-06-13T07:16:27.000Z</time>
      </trkpt>
      <trkpt lat="44.02595" lon="4.62183">
        <ele>316</ele>
        <time>2012-06-13T07:16:29.000Z</time>
      </trkpt>
      <trkpt lat="44.02602" lon="4.62182">
        <ele>315</ele>
        <time>2012-06-13T07:16:31.000Z</time>
      </trkpt>
      <trkpt lat="44.02609" lon="4.62178">
        <ele>315.3</ele>
        <time>2012-06-13T07:16:33.000Z</time>
      </trkpt>
      <trkpt lat="44.02616" lon="4.62177">
        <ele>314.9</ele>
        <time>2012-06-13T07:16:35.000Z</time>
      </trkpt>
      <trkpt lat="44.02621" lon="4.62174">
        <ele>314.7</ele>
        <time>2012-06-13T07:16:36.000Z</time>
      </trkpt>
      <trkpt lat="44.02629" lon="4.62169">
        <ele>314.4</ele>
        <time>2012-06-13T07:16:38.000Z</time>
      </trkpt>
      <trkpt lat="44.02636" lon="4.62167">
        <ele>314.6</ele>
        <time>2012-06-13T07:16:40.000Z</time>
      </trkpt>
      <trkpt lat="44.02641" lon="4.62165">
        <ele>314.2</ele>
        <time>2012-06-13T07:16:41.000Z</time>
      </trkpt>
      <trkpt lat="44.02651" lon="4.62159">
        <ele>314.4</ele>
        <time>2012-06-13T07:16:43.000Z</time>
      </trkpt>
      <trkpt lat="44.02655" lon="4.62156">
        <ele>314.4</ele>
        <time>2012-06-13T07:16:44.000Z</time>
      </trkpt>
      <trkpt lat="44.0266" lon="4.62152">
        <ele>314.4</ele>
        <time>2012-06-13T07:16:45.000Z</time>
      </trkpt>
      <trkpt lat="44.02665" lon="4.62149">
        <ele>313.8</ele>
        <time>2012-06-13T07:16:46.000Z</time>
      </trkpt>
      <trkpt lat="44.02671" lon="4.62146">
        <ele>313.8</ele>
        <time>2012-06-13T07:16:47.000Z</time>
      </trkpt>
      <trkpt lat="44.02676" lon="4.62143">
        <ele>313.5</ele>
        <time>2012-06-13T07:16:48.000Z</time>
      </trkpt>
      <trkpt lat="44.02681" lon="4.62138">
        <ele>313.2</ele>
        <time>2012-06-13T07:16:49.000Z</time>
      </trkpt>
      <trkpt lat="44.02685" lon="4.62134">
        <ele>313.5</ele>
        <time>2012-06-13T07:16:50.000Z</time>
      </trkpt>
      <trkpt lat="44.02692" lon="4.62129">
        <ele>309.2</ele>
        <time>2012-06-13T07:16:52.000Z</time>
      </trkpt>
      <trkpt lat="44.02698" lon="4.62125">
        <ele>308.6</ele>
        <time>2012-06-13T07:16:53.000Z</time>
      </trkpt>
      <trkpt lat="44.02703" lon="4.62118">
        <ele>307.6</ele>
        <time>2012-06-13T07:16:55.000Z</time>
      </trkpt>
      <trkpt lat="44.0271" lon="4.62112">
        <ele>307.1</ele>
        <time>2012-06-13T07:16:57.000Z</time>
      </trkpt>
      <trkpt lat="44.02714" lon="4.62106">
        <ele>307.4</ele>
        <time>2012-06-13T07:16:58.000Z</time>
      </trkpt>
      <trkpt lat="44.02721" lon="4.62105">
        <ele>304.5</ele>
        <time>2012-06-13T07:16:59.000Z</time>
      </trkpt>
      <trkpt lat="44.02725" lon="4.62101">
        <ele>303.4</ele>
        <time>2012-06-13T07:17:00.000Z</time>
      </trkpt>
      <trkpt lat="44.02729" lon="4.62097">
        <ele>303.1</ele>
        <time>2012-06-13T07:17:01.000Z</time>
      </trkpt>
      <trkpt lat="44.02736" lon="4.6209">
        <ele>304.1</ele>
        <time>2012-06-13T07:17:03.000Z</time>
      </trkpt>
      <trkpt lat="44.02743" lon="4.62081">
        <ele>304</ele>
        <time>2012-06-13T07:17:05.000Z</time>
      </trkpt>
      <trkpt lat="44.02748" lon="4.62074">
        <ele>304</ele>
        <time>2012-06-13T07:17:07.000Z</time>
      </trkpt>
      <trkpt lat="44.02752" lon="4.62069">
        <ele>304.2</ele>
        <time>2012-06-13T07:17:08.000Z</time>
      </trkpt>
      <trkpt lat="44.02757" lon="4.62066">
        <ele>303.6</ele>
        <time>2012-06-13T07:17:09.000Z</time>
      </trkpt>
      <trkpt lat="44.02761" lon="4.62062">
        <ele>303.9</ele>
        <time>2012-06-13T07:17:10.000Z</time>
      </trkpt>
      <trkpt lat="44.02765" lon="4.62058">
        <ele>304.7</ele>
        <time>2012-06-13T07:17:11.000Z</time>
      </trkpt>
      <trkpt lat="44.0277" lon="4.62051">
        <ele>305.5</ele>
        <time>2012-06-13T07:17:12.000Z</time>
      </trkpt>
      <trkpt lat="44.02775" lon="4.62047">
        <ele>305.9</ele>
        <time>2012-06-13T07:17:13.000Z</time>
      </trkpt>
      <trkpt lat="44.0278" lon="4.62043">
        <ele>305.9</ele>
        <time>2012-06-13T07:17:14.000Z</time>
      </trkpt>
      <trkpt lat="44.02785" lon="4.62038">
        <ele>305.9</ele>
        <time>2012-06-13T07:17:15.000Z</time>
      </trkpt>
      <trkpt lat="44.0279" lon="4.62034">
        <ele>306.2</ele>
        <time>2012-06-13T07:17:16.000Z</time>
      </trkpt>
      <trkpt lat="44.02795" lon="4.62031">
        <ele>306.4</ele>
        <time>2012-06-13T07:17:17.000Z</time>
      </trkpt>
      <trkpt lat="44.02799" lon="4.62027">
        <ele>306.6</ele>
        <time>2012-06-13T07:17:18.000Z</time>
      </trkpt>
      <trkpt lat="44.02805" lon="4.62023">
        <ele>306.8</ele>
        <time>2012-06-13T07:17:19.000Z</time>
      </trkpt>
      <trkpt lat="44.02809" lon="4.62018">
        <ele>306.5</ele>
        <time>2012-06-13T07:17:20.000Z</time>
      </trkpt>
      <trkpt lat="44.02813" lon="4.62014">
        <ele>306.9</ele>
        <time>2012-06-13T07:17:21.000Z</time>
      </trkpt>
      <trkpt lat="44.02818" lon="4.62011">
        <ele>306.8</ele>
        <time>2012-06-13T07:17:22.000Z</time>
      </trkpt>
      <trkpt lat="44.02822" lon="4.62007">
        <ele>306.8</ele>
        <time>2012-06-13T07:17:23.000Z</time>
      </trkpt>
      <trkpt lat="44.02828" lon="4.62002">
        <ele>306.8</ele>
        <time>2012-06-13T07:17:24.000Z</time>
      </trkpt>
      <trkpt lat="44.02832" lon="4.61998">
        <ele>307.1</ele>
        <time>2012-06-13T07:17:25.000Z</time>
      </trkpt>
      <trkpt lat="44.02837" lon="4.61992">
        <ele>307.4</ele>
        <time>2012-06-13T07:17:26.000Z</time>
      </trkpt>
      <trkpt lat="44.02844" lon="4.61987">
        <ele>307.6</ele>
        <time>2012-06-13T07:17:27.000Z</time>
      </trkpt>
      <trkpt lat="44.02849" lon="4.61981">
        <ele>307.7</ele>
        <time>2012-06-13T07:17:28.000Z</time>
      </trkpt>
      <trkpt lat="44.02855" lon="4.61976">
        <ele>307.3</ele>
        <time>2012-06-13T07:17:29.000Z</time>
      </trkpt>
      <trkpt lat="44.02862" lon="4.6197">
        <ele>307.7</ele>
        <time>2012-06-13T07:17:30.000Z</time>
      </trkpt>
      <trkpt lat="44.02866" lon="4.61965">
        <ele>307.8</ele>
        <time>2012-06-13T07:17:31.000Z</time>
      </trkpt>
      <trkpt lat="44.02873" lon="4.6196">
        <ele>307.7</ele>
        <time>2012-06-13T07:17:32.000Z</time>
      </trkpt>
      <trkpt lat="44.02878" lon="4.61954">
        <ele>307.8</ele>
        <time>2012-06-13T07:17:33.000Z</time>
      </trkpt>
      <trkpt lat="44.02884" lon="4.61949">
        <ele>307.7</ele>
        <time>2012-06-13T07:17:34.000Z</time>
      </trkpt>
      <trkpt lat="44.02889" lon="4.61944">
        <ele>307.8</ele>
        <time>2012-06-13T07:17:35.000Z</time>
      </trkpt>
      <trkpt lat="44.02894" lon="4.61938">
        <ele>307.8</ele>
        <time>2012-06-13T07:17:36.000Z</time>
      </trkpt>
      <trkpt lat="44.03097" lon="4.61817">
        <ele>308.2</ele>
        <time>2012-06-13T07:18:23.000Z</time>
      </trkpt>
      <trkpt lat="44.03101" lon="4.6181">
        <ele>306.9</ele>
        <time>2012-06-13T07:18:24.000Z</time>
      </trkpt>
      <trkpt lat="44.03104" lon="4.61803">
        <ele>307.3</ele>
        <time>2012-06-13T07:18:26.000Z</time>
      </trkpt>
      <trkpt lat="44.0311" lon="4.61796">
        <ele>308.2</ele>
        <time>2012-06-13T07:18:28.000Z</time>
      </trkpt>
      <trkpt lat="44.03115" lon="4.61784">
        <ele>305.8</ele>
        <time>2012-06-13T07:18:30.000Z</time>
      </trkpt>
      <trkpt lat="44.03121" lon="4.61775">
        <ele>304.8</ele>
        <time>2012-06-13T07:18:32.000Z</time>
      </trkpt>
      <trkpt lat="44.03125" lon="4.61765">
        <ele>304.4</ele>
        <time>2012-06-13T07:18:34.000Z</time>
      </trkpt>
      <trkpt lat="44.03129" lon="4.61755">
        <ele>304.5</ele>
        <time>2012-06-13T07:18:36.000Z</time>
      </trkpt>
      <trkpt lat="44.03134" lon="4.61747">
        <ele>304.5</ele>
        <time>2012-06-13T07:18:38.000Z</time>
      </trkpt>
      <trkpt lat="44.0314" lon="4.61739">
        <ele>303.2</ele>
        <time>2012-06-13T07:18:40.000Z</time>
      </trkpt>
      <trkpt lat="44.03143" lon="4.61734">
        <ele>302.4</ele>
        <time>2012-06-13T07:18:41.000Z</time>
      </trkpt>
      <trkpt lat="44.03147" lon="4.61726">
        <ele>302.1</ele>
        <time>2012-06-13T07:18:43.000Z</time>
      </trkpt>
      <trkpt lat="44.03151" lon="4.61718">
        <ele>301.4</ele>
        <time>2012-06-13T07:18:45.000Z</time>
      </trkpt>
      <trkpt lat="44.03156" lon="4.61708">
        <ele>301.6</ele>
        <time>2012-06-13T07:18:47.000Z</time>
      </trkpt>
      <trkpt lat="44.03159" lon="4.61702">
        <ele>302.1</ele>
        <time>2012-06-13T07:18:48.000Z</time>
      </trkpt>
      <trkpt lat="44.03163" lon="4.61696">
        <ele>302</ele>
        <time>2012-06-13T07:18:49.000Z</time>
      </trkpt>
      <trkpt lat="44.03168" lon="4.61688">
        <ele>300.8</ele>
        <time>2012-06-13T07:18:51.000Z</time>
      </trkpt>
      <trkpt lat="44.03172" lon="4.6168">
        <ele>301</ele>
        <time>2012-06-13T07:18:53.000Z</time>
      </trkpt>
      <trkpt lat="44.03175" lon="4.61675">
        <ele>300.9</ele>
        <time>2012-06-13T07:18:54.000Z</time>
      </trkpt>
      <trkpt lat="44.03182" lon="4.61666">
        <ele>302.1</ele>
        <time>2012-06-13T07:18:56.000Z</time>
      </trkpt>
      <trkpt lat="44.03185" lon="4.61662">
        <ele>298.6</ele>
        <time>2012-06-13T07:18:57.000Z</time>
      </trkpt>
      <trkpt lat="44.03191" lon="4.61654">
        <ele>297</ele>
        <time>2012-06-13T07:18:59.000Z</time>
      </trkpt>
      <trkpt lat="44.03196" lon="4.61651">
        <ele>294.5</ele>
        <time>2012-06-13T07:19:00.000Z</time>
      </trkpt>
      <trkpt lat="44.032" lon="4.61646">
        <ele>294.9</ele>
        <time>2012-06-13T07:19:01.000Z</time>
      </trkpt>
      <trkpt lat="44.03204" lon="4.61642">
        <ele>294.7</ele>
        <time>2012-06-13T07:19:02.000Z</time>
      </trkpt>
      <trkpt lat="44.03208" lon="4.61638">
        <ele>295.5</ele>
        <time>2012-06-13T07:19:03.000Z</time>
      </trkpt>
      <trkpt lat="44.03212" lon="4.61632">
        <ele>297.4</ele>
        <time>2012-06-13T07:19:04.000Z</time>
      </trkpt>
      <trkpt lat="44.03215" lon="4.61627">
        <ele>297.9</ele>
        <time>2012-06-13T07:19:05.000Z</time>
      </trkpt>
      <trkpt lat="44.03223" lon="4.6162">
        <ele>297</ele>
        <time>2012-06-13T07:19:07.000Z</time>
      </trkpt>
      <trkpt lat="44.03228" lon="4.61615">
        <ele>298.3</ele>
        <time>2012-06-13T07:19:09.000Z</time>
      </trkpt>
      <trkpt lat="44.03237" lon="4.6161">
        <ele>298</ele>
        <time>2012-06-13T07:19:11.000Z</time>
      </trkpt>
      <trkpt lat="44.03246" lon="4.61607">
        <ele>298</ele>
        <time>2012-06-13T07:19:13.000Z</time>
      </trkpt>
      <trkpt lat="44.03252" lon="4.61604">
        <ele>298.3</ele>
        <time>2012-06-13T07:19:15.000Z</time>
      </trkpt>
      <trkpt lat="44.03256" lon="4.61602">
        <ele>298.2</ele>
        <time>2012-06-13T07:19:16.000Z</time>
      </trkpt>
      <trkpt lat="44.03263" lon="4.616">
        <ele>297.8</ele>
        <time>2012-06-13T07:19:17.000Z</time>
      </trkpt>
      <trkpt lat="44.03269" lon="4.61599">
        <ele>298.1</ele>
        <time>2012-06-13T07:19:18.000Z</time>
      </trkpt>
      <trkpt lat="44.03274" lon="4.61599">
        <ele>298.7</ele>
        <time>2012-06-13T07:19:19.000Z</time>
      </trkpt>
      <trkpt lat="44.03281" lon="4.61598">
        <ele>299.2</ele>
        <time>2012-06-13T07:19:20.000Z</time>
      </trkpt>
      <trkpt lat="44.03286" lon="4.61597">
        <ele>299.4</ele>
        <time>2012-06-13T07:19:21.000Z</time>
      </trkpt>
      <trkpt lat="44.03291" lon="4.61597">
        <ele>299.3</ele>
        <time>2012-06-13T07:19:22.000Z</time>
      </trkpt>
      <trkpt lat="44.03296" lon="4.61595">
        <ele>299.3</ele>
        <time>2012-06-13T07:19:23.000Z</time>
      </trkpt>
      <trkpt lat="44.03303" lon="4.61594">
        <ele>299.2</ele>
        <time>2012-06-13T07:19:24.000Z</time>
      </trkpt>
      <trkpt lat="44.03307" lon="4.6159">
        <ele>299</ele>
        <time>2012-06-13T07:19:25.000Z</time>
      </trkpt>
      <trkpt lat="44.03312" lon="4.61585">
        <ele>298.8</ele>
        <time>2012-06-13T07:19:26.000Z</time>
      </trkpt>
      <trkpt lat="44.03317" lon="4.61579">
        <ele>299.4</ele>
        <time>2012-06-13T07:19:27.000Z</time>
      </trkpt>
      <trkpt lat="44.0332" lon="4.6157">
        <ele>299.4</ele>
        <time>2012-06-13T07:19:28.000Z</time>
      </trkpt>
      <trkpt lat="44.03325" lon="4.61563">
        <ele>299.4</ele>
        <time>2012-06-13T07:19:29.000Z</time>
      </trkpt>
      <trkpt lat="44.03328" lon="4.61556">
        <ele>299.3</ele>
        <time>2012-06-13T07:19:30.000Z</time>
      </trkpt>
      <trkpt lat="44.0333" lon="4.61549">
        <ele>299</ele>
        <time>2012-06-13T07:19:31.000Z</time>
      </trkpt>
      <trkpt lat="44.0333" lon="4.61541">
        <ele>299.9</ele>
        <time>2012-06-13T07:19:32.000Z</time>
      </trkpt>
      <trkpt lat="44.03332" lon="4.61533">
        <ele>300</ele>
        <time>2012-06-13T07:19:33.000Z</time>
      </trkpt>
      <trkpt lat="44.03332" lon="4.61525">
        <ele>300</ele>
        <time>2012-06-13T07:19:34.000Z</time>
      </trkpt>
      <trkpt lat="44.03334" lon="4.61512">
        <ele>299.8</ele>
        <time>2012-06-13T07:19:36.000Z</time>
      </trkpt>
      <trkpt lat="44.03336" lon="4.61505">
        <ele>299.5</ele>
        <time>2012-06-13T07:19:37.000Z</time>
      </trkpt>
      <trkpt lat="44.03335" lon="4.61497">
        <ele>299.3</ele>
        <time>2012-06-13T07:19:38.000Z</time>
      </trkpt>
      <trkpt lat="44.03336" lon="4.6149">
        <ele>299.7</ele>
        <time>2012-06-13T07:19:39.000Z</time>
      </trkpt>
      <trkpt lat="44.03338" lon="4.61483">
        <ele>299.9</ele>
        <time>2012-06-13T07:19:40.000Z</time>
      </trkpt>
      <trkpt lat="44.03338" lon="4.61475">
        <ele>299.7</ele>
        <time>2012-06-13T07:19:41.000Z</time>
      </trkpt>
      <trkpt lat="44.03338" lon="4.61462">
        <ele>299.8</ele>
        <time>2012-06-13T07:19:43.000Z</time>
      </trkpt>
      <trkpt lat="44.0334" lon="4.61454">
        <ele>299.1</ele>
        <time>2012-06-13T07:19:44.000Z</time>
      </trkpt>
      <trkpt lat="44.03341" lon="4.61446">
        <ele>299</ele>
        <time>2012-06-13T07:19:45.000Z</time>
      </trkpt>
      <trkpt lat="44.03341" lon="4.61439">
        <ele>298.7</ele>
        <time>2012-06-13T07:19:46.000Z</time>
      </trkpt>
      <trkpt lat="44.03341" lon="4.61432">
        <ele>298.7</ele>
        <time>2012-06-13T07:19:47.000Z</time>
      </trkpt>
      <trkpt lat="44.0334" lon="4.61425">
        <ele>298.8</ele>
        <time>2012-06-13T07:19:48.000Z</time>
      </trkpt>
      <trkpt lat="44.03338" lon="4.61414">
        <ele>298.8</ele>
        <time>2012-06-13T07:19:50.000Z</time>
      </trkpt>
      <trkpt lat="44.03335" lon="4.61404">
        <ele>299.2</ele>
        <time>2012-06-13T07:19:52.000Z</time>
      </trkpt>
      <trkpt lat="44.03332" lon="4.61398">
        <ele>299</ele>
        <time>2012-06-13T07:19:53.000Z</time>
      </trkpt>
      <trkpt lat="44.03329" lon="4.61392">
        <ele>299.6</ele>
        <time>2012-06-13T07:19:54.000Z</time>
      </trkpt>
      <trkpt lat="44.03326" lon="4.61387">
        <ele>299.8</ele>
        <time>2012-06-13T07:19:55.000Z</time>
      </trkpt>
      <trkpt lat="44.03323" lon="4.61379">
        <ele>300.4</ele>
        <time>2012-06-13T07:19:57.000Z</time>
      </trkpt>
      <trkpt lat="44.03321" lon="4.61372">
        <ele>301.2</ele>
        <time>2012-06-13T07:19:58.000Z</time>
      </trkpt>
      <trkpt lat="44.03317" lon="4.61363">
        <ele>302.2</ele>
        <time>2012-06-13T07:20:00.000Z</time>
      </trkpt>
      <trkpt lat="44.03312" lon="4.61356">
        <ele>302.2</ele>
        <time>2012-06-13T07:20:02.000Z</time>
      </trkpt>
      <trkpt lat="44.03309" lon="4.61349">
        <ele>302.2</ele>
        <time>2012-06-13T07:20:04.000Z</time>
      </trkpt>
      <trkpt lat="44.03306" lon="4.61339">
        <ele>302.3</ele>
        <time>2012-06-13T07:20:06.000Z</time>
      </trkpt>
      <trkpt lat="44.03303" lon="4.61329">
        <ele>303.5</ele>
        <time>2012-06-13T07:20:08.000Z</time>
      </trkpt>
      <trkpt lat="44.033" lon="4.61321">
        <ele>304.4</ele>
        <time>2012-06-13T07:20:10.000Z</time>
      </trkpt>
      <trkpt lat="44.03298" lon="4.61313">
        <ele>304.5</ele>
        <time>2012-06-13T07:20:12.000Z</time>
      </trkpt>
      <trkpt lat="44.03295" lon="4.61304">
        <ele>304.9</ele>
        <time>2012-06-13T07:20:14.000Z</time>
      </trkpt>
      <trkpt lat="44.03292" lon="4.61297">
        <ele>305.3</ele>
        <time>2012-06-13T07:20:16.000Z</time>
      </trkpt>
      <trkpt lat="44.03289" lon="4.61288">
        <ele>305</ele>
        <time>2012-06-13T07:20:18.000Z</time>
      </trkpt>
      <trkpt lat="44.03286" lon="4.6128">
        <ele>304.8</ele>
        <time>2012-06-13T07:20:20.000Z</time>
      </trkpt>
      <trkpt lat="44.03282" lon="4.61271">
        <ele>306.6</ele>
        <time>2012-06-13T07:20:22.000Z</time>
      </trkpt>
      <trkpt lat="44.03279" lon="4.61264">
        <ele>306.9</ele>
        <time>2012-06-13T07:20:24.000Z</time>
      </trkpt>
      <trkpt lat="44.03277" lon="4.61256">
        <ele>306.9</ele>
        <time>2012-06-13T07:20:26.000Z</time>
      </trkpt>
      <trkpt lat="44.03276" lon="4.61248">
        <ele>306.1</ele>
        <time>2012-06-13T07:20:28.000Z</time>
      </trkpt>
      <trkpt lat="44.03275" lon="4.6124">
        <ele>306.1</ele>
        <time>2012-06-13T07:20:30.000Z</time>
      </trkpt>
      <trkpt lat="44.03276" lon="4.6123">
        <ele>307</ele>
        <time>2012-06-13T07:20:32.000Z</time>
      </trkpt>
      <trkpt lat="44.03281" lon="4.61227">
        <ele>306</ele>
        <time>2012-06-13T07:20:33.000Z</time>
      </trkpt>
      <trkpt lat="44.03284" lon="4.61219">
        <ele>305.3</ele>
        <time>2012-06-13T07:20:35.000Z</time>
      </trkpt>
      <trkpt lat="44.03287" lon="4.61214">
        <ele>308.1</ele>
        <time>2012-06-13T07:20:37.000Z</time>
      </trkpt>
      <trkpt lat="44.03292" lon="4.61209">
        <ele>308.4</ele>
        <time>2012-06-13T07:20:39.000Z</time>
      </trkpt>
      <trkpt lat="44.03297" lon="4.61203">
        <ele>306.7</ele>
        <time>2012-06-13T07:20:41.000Z</time>
      </trkpt>
      <trkpt lat="44.03302" lon="4.612">
        <ele>307.3</ele>
        <time>2012-06-13T07:20:43.000Z</time>
      </trkpt>
      <trkpt lat="44.03306" lon="4.61194">
        <ele>306.9</ele>
        <time>2012-06-13T07:20:45.000Z</time>
      </trkpt>
      <trkpt lat="44.03313" lon="4.61188">
        <ele>307.1</ele>
        <time>2012-06-13T07:20:48.000Z</time>
      </trkpt>
      <trkpt lat="44.03317" lon="4.61184">
        <ele>307.2</ele>
        <time>2012-06-13T07:20:50.000Z</time>
      </trkpt>
      <trkpt lat="44.03321" lon="4.61179">
        <ele>307.5</ele>
        <time>2012-06-13T07:20:52.000Z</time>
      </trkpt>
      <trkpt lat="44.03326" lon="4.61174">
        <ele>308</ele>
        <time>2012-06-13T07:20:54.000Z</time>
      </trkpt>
      <trkpt lat="44.03331" lon="4.61169">
        <ele>307.9</ele>
        <time>2012-06-13T07:20:56.000Z</time>
      </trkpt>
      <trkpt lat="44.03335" lon="4.61164">
        <ele>308.3</ele>
        <time>2012-06-13T07:20:58.000Z</time>
      </trkpt>
      <trkpt lat="44.0334" lon="4.61158">
        <ele>308.7</ele>
        <time>2012-06-13T07:21:00.000Z</time>
      </trkpt>
      <trkpt lat="44.03347" lon="4.61152">
        <ele>308.7</ele>
        <time>2012-06-13T07:21:02.000Z</time>
      </trkpt>
      <trkpt lat="44.03353" lon="4.61146">
        <ele>308.2</ele>
        <time>2012-06-13T07:21:04.000Z</time>
      </trkpt>
      <trkpt lat="44.03359" lon="4.61139">
        <ele>308.4</ele>
        <time>2012-06-13T07:21:06.000Z</time>
      </trkpt>
      <trkpt lat="44.03363" lon="4.61136">
        <ele>308.6</ele>
        <time>2012-06-13T07:21:07.000Z</time>
      </trkpt>
      <trkpt lat="44.03371" lon="4.61128">
        <ele>308.1</ele>
        <time>2012-06-13T07:21:09.000Z</time>
      </trkpt>
      <trkpt lat="44.03376" lon="4.61124">
        <ele>308.1</ele>
        <time>2012-06-13T07:21:10.000Z</time>
      </trkpt>
      <trkpt lat="44.0338" lon="4.61121">
        <ele>307.6</ele>
        <time>2012-06-13T07:21:11.000Z</time>
      </trkpt>
      <trkpt lat="44.03385" lon="4.61116">
        <ele>307.4</ele>
        <time>2012-06-13T07:21:12.000Z</time>
      </trkpt>
      <trkpt lat="44.03389" lon="4.61112">
        <ele>306.7</ele>
        <time>2012-06-13T07:21:13.000Z</time>
      </trkpt>
      <trkpt lat="44.03395" lon="4.61108">
        <ele>306.3</ele>
        <time>2012-06-13T07:21:14.000Z</time>
      </trkpt>
      <trkpt lat="44.03402" lon="4.61102">
        <ele>306.3</ele>
        <time>2012-06-13T07:21:15.000Z</time>
      </trkpt>
      <trkpt lat="44.03408" lon="4.61096">
        <ele>306.4</ele>
        <time>2012-06-13T07:21:16.000Z</time>
      </trkpt>
      <trkpt lat="44.03414" lon="4.61092">
        <ele>306.5</ele>
        <time>2012-06-13T07:21:17.000Z</time>
      </trkpt>
      <trkpt lat="44.0342" lon="4.61087">
        <ele>306.4</ele>
        <time>2012-06-13T07:21:18.000Z</time>
      </trkpt>
      <trkpt lat="44.03426" lon="4.61082">
        <ele>305.7</ele>
        <time>2012-06-13T07:21:19.000Z</time>
      </trkpt>
      <trkpt lat="44.0343" lon="4.61077">
        <ele>305.6</ele>
        <time>2012-06-13T07:21:20.000Z</time>
      </trkpt>
      <trkpt lat="44.03434" lon="4.61071">
        <ele>304.6</ele>
        <time>2012-06-13T07:21:21.000Z</time>
      </trkpt>
      <trkpt lat="44.0344" lon="4.61064">
        <ele>304.2</ele>
        <time>2012-06-13T07:21:22.000Z</time>
      </trkpt>
      <trkpt lat="44.03445" lon="4.61056">
        <ele>303.3</ele>
        <time>2012-06-13T07:21:23.000Z</time>
      </trkpt>
      <trkpt lat="44.03443" lon="4.61047">
        <ele>301.7</ele>
        <time>2012-06-13T07:21:24.000Z</time>
      </trkpt>
      <trkpt lat="44.03443" lon="4.61039">
        <ele>299.7</ele>
        <time>2012-06-13T07:21:25.000Z</time>
      </trkpt>
      <trkpt lat="44.03444" lon="4.61029">
        <ele>300.1</ele>
        <time>2012-06-13T07:21:26.000Z</time>
      </trkpt>
      <trkpt lat="44.03441" lon="4.6102">
        <ele>299</ele>
        <time>2012-06-13T07:21:27.000Z</time>
      </trkpt>
      <trkpt lat="44.03436" lon="4.61013">
        <ele>299</ele>
        <time>2012-06-13T07:21:28.000Z</time>
      </trkpt>
      <trkpt lat="44.03431" lon="4.61007">
        <ele>298.8</ele>
        <time>2012-06-13T07:21:29.000Z</time>
      </trkpt>
      <trkpt lat="44.03427" lon="4.61001">
        <ele>299</ele>
        <time>2012-06-13T07:21:30.000Z</time>
      </trkpt>
      <trkpt lat="44.03423" lon="4.60991">
        <ele>298.8</ele>
        <time>2012-06-13T07:21:31.000Z</time>
      </trkpt>
      <trkpt lat="44.03419" lon="4.60982">
        <ele>298.9</ele>
        <time>2012-06-13T07:21:32.000Z</time>
      </trkpt>
      <trkpt lat="44.03416" lon="4.60972">
        <ele>298.5</ele>
        <time>2012-06-13T07:21:33.000Z</time>
      </trkpt>
      <trkpt lat="44.03414" lon="4.60961">
        <ele>298.8</ele>
        <time>2012-06-13T07:21:34.000Z</time>
      </trkpt>
      <trkpt lat="44.03412" lon="4.60951">
        <ele>298.7</ele>
        <time>2012-06-13T07:21:35.000Z</time>
      </trkpt>
      <trkpt lat="44.03411" lon="4.6094">
        <ele>298.8</ele>
        <time>2012-06-13T07:21:36.000Z</time>
      </trkpt>
      <trkpt lat="44.03409" lon="4.60928">
        <ele>298.5</ele>
        <time>2012-06-13T07:21:37.000Z</time>
      </trkpt>
      <trkpt lat="44.03409" lon="4.60916">
        <ele>298.2</ele>
        <time>2012-06-13T07:21:38.000Z</time>
      </trkpt>
      <trkpt lat="44.03408" lon="4.60907">
        <ele>298.4</ele>
        <time>2012-06-13T07:21:39.000Z</time>
      </trkpt>
      <trkpt lat="44.03406" lon="4.60895">
        <ele>298</ele>
        <time>2012-06-13T07:21:40.000Z</time>
      </trkpt>
      <trkpt lat="44.03406" lon="4.60883">
        <ele>297.4</ele>
        <time>2012-06-13T07:21:41.000Z</time>
      </trkpt>
      <trkpt lat="44.03404" lon="4.60873">
        <ele>297.2</ele>
        <time>2012-06-13T07:21:42.000Z</time>
      </trkpt>
      <trkpt lat="44.03402" lon="4.60862">
        <ele>296.8</ele>
        <time>2012-06-13T07:21:43.000Z</time>
      </trkpt>
      <trkpt lat="44.03402" lon="4.6085">
        <ele>296.1</ele>
        <time>2012-06-13T07:21:44.000Z</time>
      </trkpt>
      <trkpt lat="44.034" lon="4.60841">
        <ele>296.2</ele>
        <time>2012-06-13T07:21:45.000Z</time>
      </trkpt>
      <trkpt lat="44.03399" lon="4.60832">
        <ele>296.3</ele>
        <time>2012-06-13T07:21:46.000Z</time>
      </trkpt>
      <trkpt lat="44.03399" lon="4.60821">
        <ele>295.9</ele>
        <time>2012-06-13T07:21:47.000Z</time>
      </trkpt>
      <trkpt lat="44.03398" lon="4.60812">
        <ele>295.8</ele>
        <time>2012-06-13T07:21:48.000Z</time>
      </trkpt>
      <trkpt lat="44.03397" lon="4.60803">
        <ele>295.8</ele>
        <time>2012-06-13T07:21:49.000Z</time>
      </trkpt>
      <trkpt lat="44.03395" lon="4.60796">
        <ele>295.3</ele>
        <time>2012-06-13T07:21:50.000Z</time>
      </trkpt>
      <trkpt lat="44.03393" lon="4.60787">
        <ele>295.7</ele>
        <time>2012-06-13T07:21:51.000Z</time>
      </trkpt>
      <trkpt lat="44.03389" lon="4.60779">
        <ele>295.5</ele>
        <time>2012-06-13T07:21:52.000Z</time>
      </trkpt>
      <trkpt lat="44.03387" lon="4.60772">
        <ele>295.4</ele>
        <time>2012-06-13T07:21:53.000Z</time>
      </trkpt>
      <trkpt lat="44.03384" lon="4.60763">
        <ele>295.4</ele>
        <time>2012-06-13T07:21:54.000Z</time>
      </trkpt>
      <trkpt lat="44.03382" lon="4.60753">
        <ele>295.3</ele>
        <time>2012-06-13T07:21:55.000Z</time>
      </trkpt>
      <trkpt lat="44.03381" lon="4.60746">
        <ele>295.3</ele>
        <time>2012-06-13T07:21:56.000Z</time>
      </trkpt>
      <trkpt lat="44.03379" lon="4.60737">
        <ele>295.5</ele>
        <time>2012-06-13T07:21:57.000Z</time>
      </trkpt>
      <trkpt lat="44.03378" lon="4.60728">
        <ele>295.6</ele>
        <time>2012-06-13T07:21:58.000Z</time>
      </trkpt>
      <trkpt lat="44.03376" lon="4.6072">
        <ele>295.4</ele>
        <time>2012-06-13T07:21:59.000Z</time>
      </trkpt>
      <trkpt lat="44.03374" lon="4.60712">
        <ele>294.9</ele>
        <time>2012-06-13T07:22:00.000Z</time>
      </trkpt>
      <trkpt lat="44.03373" lon="4.60703">
        <ele>295.1</ele>
        <time>2012-06-13T07:22:01.000Z</time>
      </trkpt>
      <trkpt lat="44.03371" lon="4.60694">
        <ele>295.2</ele>
        <time>2012-06-13T07:22:02.000Z</time>
      </trkpt>
      <trkpt lat="44.03368" lon="4.60684">
        <ele>295</ele>
        <time>2012-06-13T07:22:03.000Z</time>
      </trkpt>
      <trkpt lat="44.03367" lon="4.60676">
        <ele>295</ele>
        <time>2012-06-13T07:22:04.000Z</time>
      </trkpt>
      <trkpt lat="44.03367" lon="4.60666">
        <ele>294.7</ele>
        <time>2012-06-13T07:22:05.000Z</time>
      </trkpt>
      <trkpt lat="44.03364" lon="4.60655">
        <ele>294.6</ele>
        <time>2012-06-13T07:22:06.000Z</time>
      </trkpt>
      <trkpt lat="44.03361" lon="4.60647">
        <ele>294.6</ele>
        <time>2012-06-13T07:22:07.000Z</time>
      </trkpt>
      <trkpt lat="44.03359" lon="4.60638">
        <ele>294.7</ele>
        <time>2012-06-13T07:22:08.000Z</time>
      </trkpt>
      <trkpt lat="44.03359" lon="4.60628">
        <ele>294.7</ele>
        <time>2012-06-13T07:22:09.000Z</time>
      </trkpt>
      <trkpt lat="44.03357" lon="4.6062">
        <ele>294.6</ele>
        <time>2012-06-13T07:22:10.000Z</time>
      </trkpt>
      <trkpt lat="44.03357" lon="4.60612">
        <ele>294.5</ele>
        <time>2012-06-13T07:22:11.000Z</time>
      </trkpt>
      <trkpt lat="44.03356" lon="4.60604">
        <ele>294.9</ele>
        <time>2012-06-13T07:22:12.000Z</time>
      </trkpt>
      <trkpt lat="44.03358" lon="4.60596">
        <ele>294.4</ele>
        <time>2012-06-13T07:22:13.000Z</time>
      </trkpt>
      <trkpt lat="44.03358" lon="4.60588">
        <ele>293.5</ele>
        <time>2012-06-13T07:22:14.000Z</time>
      </trkpt>
      <trkpt lat="44.03359" lon="4.6058">
        <ele>293.4</ele>
        <time>2012-06-13T07:22:15.000Z</time>
      </trkpt>
      <trkpt lat="44.03358" lon="4.60566">
        <ele>292.6</ele>
        <time>2012-06-13T07:22:16.000Z</time>
      </trkpt>
      <trkpt lat="44.03358" lon="4.60554">
        <ele>291.2</ele>
        <time>2012-06-13T07:22:17.000Z</time>
      </trkpt>
      <trkpt lat="44.03358" lon="4.60544">
        <ele>290.2</ele>
        <time>2012-06-13T07:22:18.000Z</time>
      </trkpt>
      <trkpt lat="44.03358" lon="4.60532">
        <ele>289.8</ele>
        <time>2012-06-13T07:22:19.000Z</time>
      </trkpt>
      <trkpt lat="44.03359" lon="4.60522">
        <ele>289.6</ele>
        <time>2012-06-13T07:22:20.000Z</time>
      </trkpt>
      <trkpt lat="44.03359" lon="4.6051">
        <ele>288.7</ele>
        <time>2012-06-13T07:22:21.000Z</time>
      </trkpt>
      <trkpt lat="44.0336" lon="4.605">
        <ele>288.8</ele>
        <time>2012-06-13T07:22:22.000Z</time>
      </trkpt>
      <trkpt lat="44.03359" lon="4.6049">
        <ele>288.7</ele>
        <time>2012-06-13T07:22:23.000Z</time>
      </trkpt>
      <trkpt lat="44.03358" lon="4.6048">
        <ele>288.4</ele>
        <time>2012-06-13T07:22:24.000Z</time>
      </trkpt>
      <trkpt lat="44.03356" lon="4.60468">
        <ele>288</ele>
        <time>2012-06-13T07:22:25.000Z</time>
      </trkpt>
      <trkpt lat="44.03356" lon="4.60457">
        <ele>288.5</ele>
        <time>2012-06-13T07:22:26.000Z</time>
      </trkpt>
      <trkpt lat="44.03358" lon="4.60445">
        <ele>286.6</ele>
        <time>2012-06-13T07:22:27.000Z</time>
      </trkpt>
      <trkpt lat="44.03358" lon="4.60434">
        <ele>286.4</ele>
        <time>2012-06-13T07:22:28.000Z</time>
      </trkpt>
      <trkpt lat="44.03357" lon="4.60423">
        <ele>285.3</ele>
        <time>2012-06-13T07:22:29.000Z</time>
      </trkpt>
      <trkpt lat="44.03357" lon="4.60413">
        <ele>284.4</ele>
        <time>2012-06-13T07:22:30.000Z</time>
      </trkpt>
      <trkpt lat="44.03356" lon="4.60403">
        <ele>283.5</ele>
        <time>2012-06-13T07:22:31.000Z</time>
      </trkpt>
      <trkpt lat="44.03355" lon="4.60392">
        <ele>283.1</ele>
        <time>2012-06-13T07:22:32.000Z</time>
      </trkpt>
      <trkpt lat="44.03354" lon="4.60381">
        <ele>282.9</ele>
        <time>2012-06-13T07:22:33.000Z</time>
      </trkpt>
      <trkpt lat="44.0335" lon="4.6037">
        <ele>283.1</ele>
        <time>2012-06-13T07:22:34.000Z</time>
      </trkpt>
      <trkpt lat="44.03345" lon="4.60361">
        <ele>282.7</ele>
        <time>2012-06-13T07:22:35.000Z</time>
      </trkpt>
      <trkpt lat="44.03342" lon="4.60351">
        <ele>282.1</ele>
        <time>2012-06-13T07:22:36.000Z</time>
      </trkpt>
      <trkpt lat="44.03339" lon="4.60342">
        <ele>282</ele>
        <time>2012-06-13T07:22:37.000Z</time>
      </trkpt>
      <trkpt lat="44.03338" lon="4.60335">
        <ele>281.6</ele>
        <time>2012-06-13T07:22:38.000Z</time>
      </trkpt>
      <trkpt lat="44.03336" lon="4.60328">
        <ele>281.4</ele>
        <time>2012-06-13T07:22:39.000Z</time>
      </trkpt>
      <trkpt lat="44.03335" lon="4.6032">
        <ele>281.4</ele>
        <time>2012-06-13T07:22:40.000Z</time>
      </trkpt>
      <trkpt lat="44.03334" lon="4.60309">
        <ele>280.8</ele>
        <time>2012-06-13T07:22:42.000Z</time>
      </trkpt>
      <trkpt lat="44.03335" lon="4.60298">
        <ele>280.9</ele>
        <time>2012-06-13T07:22:44.000Z</time>
      </trkpt>
      <trkpt lat="44.03335" lon="4.60287">
        <ele>278.9</ele>
        <time>2012-06-13T07:22:46.000Z</time>
      </trkpt>
      <trkpt lat="44.03339" lon="4.6028">
        <ele>278.4</ele>
        <time>2012-06-13T07:22:48.000Z</time>
      </trkpt>
      <trkpt lat="44.03343" lon="4.60277">
        <ele>278.2</ele>
        <time>2012-06-13T07:22:49.000Z</time>
      </trkpt>
      <trkpt lat="44.03346" lon="4.60272">
        <ele>277.9</ele>
        <time>2012-06-13T07:22:51.000Z</time>
      </trkpt>
      <trkpt lat="44.03349" lon="4.60266">
        <ele>278.4</ele>
        <time>2012-06-13T07:22:53.000Z</time>
      </trkpt>
      <trkpt lat="44.03356" lon="4.6026">
        <ele>278.3</ele>
        <time>2012-06-13T07:22:56.000Z</time>
      </trkpt>
      <trkpt lat="44.03361" lon="4.60262">
        <ele>278.4</ele>
        <time>2012-06-13T07:22:58.000Z</time>
      </trkpt>
      <trkpt lat="44.03365" lon="4.60266">
        <ele>279.1</ele>
        <time>2012-06-13T07:23:00.000Z</time>
      </trkpt>
      <trkpt lat="44.0337" lon="4.60273">
        <ele>278.2</ele>
        <time>2012-06-13T07:23:03.000Z</time>
      </trkpt>
      <trkpt lat="44.03374" lon="4.60281">
        <ele>277.6</ele>
        <time>2012-06-13T07:23:05.000Z</time>
      </trkpt>
      <trkpt lat="44.03378" lon="4.60288">
        <ele>277.3</ele>
        <time>2012-06-13T07:23:07.000Z</time>
      </trkpt>
      <trkpt lat="44.03382" lon="4.60294">
        <ele>276.7</ele>
        <time>2012-06-13T07:23:09.000Z</time>
      </trkpt>
      <trkpt lat="44.03388" lon="4.60298">
        <ele>277.1</ele>
        <time>2012-06-13T07:23:11.000Z</time>
      </trkpt>
      <trkpt lat="44.0339" lon="4.60306">
        <ele>276.6</ele>
        <time>2012-06-13T07:23:13.000Z</time>
      </trkpt>
      <trkpt lat="44.03397" lon="4.60315">
        <ele>277.3</ele>
        <time>2012-06-13T07:23:15.000Z</time>
      </trkpt>
      <trkpt lat="44.03402" lon="4.60322">
        <ele>277.4</ele>
        <time>2012-06-13T07:23:17.000Z</time>
      </trkpt>
      <trkpt lat="44.03407" lon="4.60331">
        <ele>276.9</ele>
        <time>2012-06-13T07:23:19.000Z</time>
      </trkpt>
      <trkpt lat="44.0341" lon="4.60339">
        <ele>276.4</ele>
        <time>2012-06-13T07:23:21.000Z</time>
      </trkpt>
      <trkpt lat="44.03414" lon="4.60347">
        <ele>276.6</ele>
        <time>2012-06-13T07:23:23.000Z</time>
      </trkpt>
      <trkpt lat="44.03419" lon="4.60354">
        <ele>276.7</ele>
        <time>2012-06-13T07:23:25.000Z</time>
      </trkpt>
      <trkpt lat="44.03424" lon="4.6036">
        <ele>276</ele>
        <time>2012-06-13T07:23:27.000Z</time>
      </trkpt>
      <trkpt lat="44.03427" lon="4.6037">
        <ele>275.9</ele>
        <time>2012-06-13T07:23:29.000Z</time>
      </trkpt>
      <trkpt lat="44.03429" lon="4.60378">
        <ele>275.3</ele>
        <time>2012-06-13T07:23:31.000Z</time>
      </trkpt>
      <trkpt lat="44.03435" lon="4.60384">
        <ele>274.3</ele>
        <time>2012-06-13T07:23:33.000Z</time>
      </trkpt>
      <trkpt lat="44.03439" lon="4.6039">
        <ele>274.5</ele>
        <time>2012-06-13T07:23:35.000Z</time>
      </trkpt>
      <trkpt lat="44.0344" lon="4.60398">
        <ele>274.7</ele>
        <time>2012-06-13T07:23:37.000Z</time>
      </trkpt>
      <trkpt lat="44.03442" lon="4.60404">
        <ele>275.2</ele>
        <time>2012-06-13T07:23:39.000Z</time>
      </trkpt>
      <trkpt lat="44.03445" lon="4.6041">
        <ele>275.1</ele>
        <time>2012-06-13T07:23:41.000Z</time>
      </trkpt>
      <trkpt lat="44.03449" lon="4.60416">
        <ele>273.5</ele>
        <time>2012-06-13T07:23:43.000Z</time>
      </trkpt>
      <trkpt lat="44.0345" lon="4.60424">
        <ele>274.7</ele>
        <time>2012-06-13T07:23:45.000Z</time>
      </trkpt>
      <trkpt lat="44.03454" lon="4.60431">
        <ele>275.1</ele>
        <time>2012-06-13T07:23:47.000Z</time>
      </trkpt>
      <trkpt lat="44.03457" lon="4.60436">
        <ele>275.3</ele>
        <time>2012-06-13T07:23:49.000Z</time>
      </trkpt>
      <trkpt lat="44.0346" lon="4.60441">
        <ele>274.5</ele>
        <time>2012-06-13T07:23:51.000Z</time>
      </trkpt>
      <trkpt lat="44.03465" lon="4.60446">
        <ele>274.8</ele>
        <time>2012-06-13T07:23:53.000Z</time>
      </trkpt>
      <trkpt lat="44.03469" lon="4.60451">
        <ele>275.6</ele>
        <time>2012-06-13T07:23:55.000Z</time>
      </trkpt>
      <trkpt lat="44.03472" lon="4.60457">
        <ele>275.4</ele>
        <time>2012-06-13T07:23:57.000Z</time>
      </trkpt>
      <trkpt lat="44.03476" lon="4.60465">
        <ele>277.1</ele>
        <time>2012-06-13T07:24:00.000Z</time>
      </trkpt>
      <trkpt lat="44.0348" lon="4.6047">
        <ele>277.4</ele>
        <time>2012-06-13T07:24:02.000Z</time>
      </trkpt>
      <trkpt lat="44.03484" lon="4.60475">
        <ele>277.5</ele>
        <time>2012-06-13T07:24:04.000Z</time>
      </trkpt>
      <trkpt lat="44.03486" lon="4.60482">
        <ele>278.2</ele>
        <time>2012-06-13T07:24:07.000Z</time>
      </trkpt>
      <trkpt lat="44.03492" lon="4.60489">
        <ele>277.9</ele>
        <time>2012-06-13T07:24:09.000Z</time>
      </trkpt>
      <trkpt lat="44.03494" lon="4.60496">
        <ele>277.5</ele>
        <time>2012-06-13T07:24:11.000Z</time>
      </trkpt>
      <trkpt lat="44.03497" lon="4.60503">
        <ele>277.6</ele>
        <time>2012-06-13T07:24:14.000Z</time>
      </trkpt>
      <trkpt lat="44.035" lon="4.60508">
        <ele>277.3</ele>
        <time>2012-06-13T07:24:16.000Z</time>
      </trkpt>
      <trkpt lat="44.03504" lon="4.60513">
        <ele>277.6</ele>
        <time>2012-06-13T07:24:18.000Z</time>
      </trkpt>
      <trkpt lat="44.03508" lon="4.60518">
        <ele>278.2</ele>
        <time>2012-06-13T07:24:20.000Z</time>
      </trkpt>
      <trkpt lat="44.03512" lon="4.60523">
        <ele>278.1</ele>
        <time>2012-06-13T07:24:22.000Z</time>
      </trkpt>
      <trkpt lat="44.03517" lon="4.60529">
        <ele>278.4</ele>
        <time>2012-06-13T07:24:25.000Z</time>
      </trkpt>
      <trkpt lat="44.03521" lon="4.60535">
        <ele>278.9</ele>
        <time>2012-06-13T07:24:28.000Z</time>
      </trkpt>
      <trkpt lat="44.03527" lon="4.60541">
        <ele>279.3</ele>
        <time>2012-06-13T07:24:31.000Z</time>
      </trkpt>
      <trkpt lat="44.03532" lon="4.60547">
        <ele>280.8</ele>
        <time>2012-06-13T07:24:34.000Z</time>
      </trkpt>
      <trkpt lat="44.03536" lon="4.60551">
        <ele>282.3</ele>
        <time>2012-06-13T07:24:36.000Z</time>
      </trkpt>
      <trkpt lat="44.03539" lon="4.60558">
        <ele>282.6</ele>
        <time>2012-06-13T07:24:38.000Z</time>
      </trkpt>
      <trkpt lat="44.03542" lon="4.60563">
        <ele>283.1</ele>
        <time>2012-06-13T07:24:40.000Z</time>
      </trkpt>
      <trkpt lat="44.03546" lon="4.60566">
        <ele>283.2</ele>
        <time>2012-06-13T07:24:42.000Z</time>
      </trkpt>
      <trkpt lat="44.03549" lon="4.60573">
        <ele>283.8</ele>
        <time>2012-06-13T07:24:45.000Z</time>
      </trkpt>
      <trkpt lat="44.03554" lon="4.60575">
        <ele>284.2</ele>
        <time>2012-06-13T07:24:47.000Z</time>
      </trkpt>
      <trkpt lat="44.03561" lon="4.60578">
        <ele>284.6</ele>
        <time>2012-06-13T07:24:50.000Z</time>
      </trkpt>
      <trkpt lat="44.03565" lon="4.60583">
        <ele>286.1</ele>
        <time>2012-06-13T07:24:53.000Z</time>
      </trkpt>
      <trkpt lat="44.03571" lon="4.60586">
        <ele>286</ele>
        <time>2012-06-13T07:24:55.000Z</time>
      </trkpt>
      <trkpt lat="44.03575" lon="4.6059">
        <ele>284.9</ele>
        <time>2012-06-13T07:24:57.000Z</time>
      </trkpt>
      <trkpt lat="44.03579" lon="4.60593">
        <ele>284.8</ele>
        <time>2012-06-13T07:24:59.000Z</time>
      </trkpt>
      <trkpt lat="44.03583" lon="4.60599">
        <ele>285.1</ele>
        <time>2012-06-13T07:25:02.000Z</time>
      </trkpt>
      <trkpt lat="44.03588" lon="4.60602">
        <ele>286.3</ele>
        <time>2012-06-13T07:25:04.000Z</time>
      </trkpt>
      <trkpt lat="44.03592" lon="4.60606">
        <ele>287.1</ele>
        <time>2012-06-13T07:25:06.000Z</time>
      </trkpt>
      <trkpt lat="44.03595" lon="4.60612">
        <ele>293.9</ele>
        <time>2012-06-13T07:25:08.000Z</time>
      </trkpt>
      <trkpt lat="44.03599" lon="4.60615">
        <ele>295.8</ele>
        <time>2012-06-13T07:25:11.000Z</time>
      </trkpt>
      <trkpt lat="44.03605" lon="4.60618">
        <ele>294.8</ele>
        <time>2012-06-13T07:25:14.000Z</time>
      </trkpt>
      <trkpt lat="44.0361" lon="4.60621">
        <ele>293.9</ele>
        <time>2012-06-13T07:25:16.000Z</time>
      </trkpt>
      <trkpt lat="44.03614" lon="4.60625">
        <ele>293.5</ele>
        <time>2012-06-13T07:25:18.000Z</time>
      </trkpt>
      <trkpt lat="44.03619" lon="4.60629">
        <ele>294.1</ele>
        <time>2012-06-13T07:25:20.000Z</time>
      </trkpt>
      <trkpt lat="44.03624" lon="4.60632">
        <ele>295.3</ele>
        <time>2012-06-13T07:25:23.000Z</time>
      </trkpt>
      <trkpt lat="44.03628" lon="4.60634">
        <ele>295.6</ele>
        <time>2012-06-13T07:25:25.000Z</time>
      </trkpt>
      <trkpt lat="44.03634" lon="4.60638">
        <ele>296.1</ele>
        <time>2012-06-13T07:25:27.000Z</time>
      </trkpt>
      <trkpt lat="44.03639" lon="4.60641">
        <ele>296.8</ele>
        <time>2012-06-13T07:25:29.000Z</time>
      </trkpt>
      <trkpt lat="44.03644" lon="4.60643">
        <ele>296.2</ele>
        <time>2012-06-13T07:25:31.000Z</time>
      </trkpt>
      <trkpt lat="44.03648" lon="4.60648">
        <ele>296.1</ele>
        <time>2012-06-13T07:25:34.000Z</time>
      </trkpt>
      <trkpt lat="44.03652" lon="4.60652">
        <ele>297.2</ele>
        <time>2012-06-13T07:25:37.000Z</time>
      </trkpt>
      <trkpt lat="44.03657" lon="4.60656">
        <ele>297.1</ele>
        <time>2012-06-13T07:25:39.000Z</time>
      </trkpt>
      <trkpt lat="44.03662" lon="4.60661">
        <ele>296.2</ele>
        <time>2012-06-13T07:25:42.000Z</time>
      </trkpt>
      <trkpt lat="44.03668" lon="4.60667">
        <ele>295.7</ele>
        <time>2012-06-13T07:25:45.000Z</time>
      </trkpt>
      <trkpt lat="44.03674" lon="4.60671">
        <ele>296</ele>
        <time>2012-06-13T07:25:48.000Z</time>
      </trkpt>
      <trkpt lat="44.03679" lon="4.60676">
        <ele>296</ele>
        <time>2012-06-13T07:25:50.000Z</time>
      </trkpt>
      <trkpt lat="44.03683" lon="4.6068">
        <ele>296.3</ele>
        <time>2012-06-13T07:25:52.000Z</time>
      </trkpt>
      <trkpt lat="44.03687" lon="4.60684">
        <ele>294.5</ele>
        <time>2012-06-13T07:25:54.000Z</time>
      </trkpt>
      <trkpt lat="44.0369" lon="4.60688">
        <ele>294.8</ele>
        <time>2012-06-13T07:25:56.000Z</time>
      </trkpt>
      <trkpt lat="44.03696" lon="4.60692">
        <ele>295.3</ele>
        <time>2012-06-13T07:25:58.000Z</time>
      </trkpt>
      <trkpt lat="44.03702" lon="4.60694">
        <ele>295.8</ele>
        <time>2012-06-13T07:26:00.000Z</time>
      </trkpt>
      <trkpt lat="44.03708" lon="4.607">
        <ele>295.8</ele>
        <time>2012-06-13T07:26:02.000Z</time>
      </trkpt>
      <trkpt lat="44.03713" lon="4.60705">
        <ele>296.5</ele>
        <time>2012-06-13T07:26:04.000Z</time>
      </trkpt>
      <trkpt lat="44.03718" lon="4.6071">
        <ele>297.8</ele>
        <time>2012-06-13T07:26:06.000Z</time>
      </trkpt>
      <trkpt lat="44.03722" lon="4.60711">
        <ele>297.3</ele>
        <time>2012-06-13T07:26:08.000Z</time>
      </trkpt>
      <trkpt lat="44.03727" lon="4.60715">
        <ele>296.8</ele>
        <time>2012-06-13T07:26:10.000Z</time>
      </trkpt>
      <trkpt lat="44.03732" lon="4.60718">
        <ele>297.6</ele>
        <time>2012-06-13T07:26:12.000Z</time>
      </trkpt>
      <trkpt lat="44.03736" lon="4.60722">
        <ele>297.9</ele>
        <time>2012-06-13T07:26:14.000Z</time>
      </trkpt>
      <trkpt lat="44.03739" lon="4.6073">
        <ele>296.9</ele>
        <time>2012-06-13T07:26:17.000Z</time>
      </trkpt>
      <trkpt lat="44.03745" lon="4.60731">
        <ele>295.6</ele>
        <time>2012-06-13T07:26:18.000Z</time>
      </trkpt>
      <trkpt lat="44.03749" lon="4.60735">
        <ele>295.4</ele>
        <time>2012-06-13T07:26:20.000Z</time>
      </trkpt>
      <trkpt lat="44.03753" lon="4.60738">
        <ele>295.4</ele>
        <time>2012-06-13T07:26:22.000Z</time>
      </trkpt>
      <trkpt lat="44.03757" lon="4.60743">
        <ele>295.5</ele>
        <time>2012-06-13T07:26:24.000Z</time>
      </trkpt>
      <trkpt lat="44.0376" lon="4.60747">
        <ele>295.7</ele>
        <time>2012-06-13T07:26:26.000Z</time>
      </trkpt>
      <trkpt lat="44.03765" lon="4.60752">
        <ele>296</ele>
        <time>2012-06-13T07:26:28.000Z</time>
      </trkpt>
      <trkpt lat="44.03769" lon="4.60755">
        <ele>296.6</ele>
        <time>2012-06-13T07:26:30.000Z</time>
      </trkpt>
      <trkpt lat="44.03773" lon="4.6076">
        <ele>297.1</ele>
        <time>2012-06-13T07:26:32.000Z</time>
      </trkpt>
      <trkpt lat="44.03777" lon="4.60766">
        <ele>296.3</ele>
        <time>2012-06-13T07:26:34.000Z</time>
      </trkpt>
      <trkpt lat="44.0378" lon="4.60776">
        <ele>292</ele>
        <time>2012-06-13T07:26:36.000Z</time>
      </trkpt>
      <trkpt lat="44.03785" lon="4.60781">
        <ele>292.2</ele>
        <time>2012-06-13T07:26:38.000Z</time>
      </trkpt>
      <trkpt lat="44.03793" lon="4.60787">
        <ele>293.3</ele>
        <time>2012-06-13T07:26:40.000Z</time>
      </trkpt>
      <trkpt lat="44.03803" lon="4.60792">
        <ele>294.7</ele>
        <time>2012-06-13T07:26:42.000Z</time>
      </trkpt>
      <trkpt lat="44.03808" lon="4.60794">
        <ele>295</ele>
        <time>2012-06-13T07:26:43.000Z</time>
      </trkpt>
      <trkpt lat="44.03815" lon="4.60798">
        <ele>295.6</ele>
        <time>2012-06-13T07:26:45.000Z</time>
      </trkpt>
      <trkpt lat="44.03822" lon="4.60802">
        <ele>295.3</ele>
        <time>2012-06-13T07:26:47.000Z</time>
      </trkpt>
      <trkpt lat="44.03829" lon="4.60806">
        <ele>295.5</ele>
        <time>2012-06-13T07:26:49.000Z</time>
      </trkpt>
      <trkpt lat="44.03835" lon="4.60812">
        <ele>295.7</ele>
        <time>2012-06-13T07:26:51.000Z</time>
      </trkpt>
      <trkpt lat="44.0384" lon="4.60817">
        <ele>295.6</ele>
        <time>2012-06-13T07:26:53.000Z</time>
      </trkpt>
      <trkpt lat="44.03847" lon="4.60821">
        <ele>295.8</ele>
        <time>2012-06-13T07:26:55.000Z</time>
      </trkpt>
      <trkpt lat="44.03854" lon="4.60827">
        <ele>295.6</ele>
        <time>2012-06-13T07:26:57.000Z</time>
      </trkpt>
      <trkpt lat="44.03861" lon="4.60833">
        <ele>295.8</ele>
        <time>2012-06-13T07:26:59.000Z</time>
      </trkpt>
      <trkpt lat="44.03868" lon="4.60838">
        <ele>296.6</ele>
        <time>2012-06-13T07:27:01.000Z</time>
      </trkpt>
      <trkpt lat="44.03874" lon="4.60844">
        <ele>296.4</ele>
        <time>2012-06-13T07:27:03.000Z</time>
      </trkpt>
      <trkpt lat="44.0388" lon="4.60848">
        <ele>297.2</ele>
        <time>2012-06-13T07:27:05.000Z</time>
      </trkpt>
      <trkpt lat="44.03885" lon="4.60854">
        <ele>297.8</ele>
        <time>2012-06-13T07:27:07.000Z</time>
      </trkpt>
      <trkpt lat="44.0389" lon="4.60859">
        <ele>297.3</ele>
        <time>2012-06-13T07:27:09.000Z</time>
      </trkpt>
      <trkpt lat="44.03895" lon="4.60862">
        <ele>298.3</ele>
        <time>2012-06-13T07:27:11.000Z</time>
      </trkpt>
      <trkpt lat="44.03901" lon="4.60869">
        <ele>299.5</ele>
        <time>2012-06-13T07:27:13.000Z</time>
      </trkpt>
      <trkpt lat="44.03906" lon="4.60873">
        <ele>299.8</ele>
        <time>2012-06-13T07:27:15.000Z</time>
      </trkpt>
      <trkpt lat="44.0391" lon="4.60877">
        <ele>299.7</ele>
        <time>2012-06-13T07:27:17.000Z</time>
      </trkpt>
      <trkpt lat="44.03917" lon="4.60882">
        <ele>299.8</ele>
        <time>2012-06-13T07:27:19.000Z</time>
      </trkpt>
      <trkpt lat="44.03924" lon="4.60889">
        <ele>299.3</ele>
        <time>2012-06-13T07:27:21.000Z</time>
      </trkpt>
      <trkpt lat="44.03928" lon="4.60892">
        <ele>300.3</ele>
        <time>2012-06-13T07:27:22.000Z</time>
      </trkpt>
      <trkpt lat="44.03934" lon="4.60899">
        <ele>299.1</ele>
        <time>2012-06-13T07:27:24.000Z</time>
      </trkpt>
      <trkpt lat="44.03937" lon="4.60904">
        <ele>299.2</ele>
        <time>2012-06-13T07:27:25.000Z</time>
      </trkpt>
      <trkpt lat="44.03941" lon="4.60914">
        <ele>299.3</ele>
        <time>2012-06-13T07:27:27.000Z</time>
      </trkpt>
      <trkpt lat="44.03938" lon="4.60923">
        <ele>299.6</ele>
        <time>2012-06-13T07:27:28.000Z</time>
      </trkpt>
      <trkpt lat="44.03934" lon="4.60928">
        <ele>299.4</ele>
        <time>2012-06-13T07:27:29.000Z</time>
      </trkpt>
      <trkpt lat="44.03926" lon="4.60937">
        <ele>298.9</ele>
        <time>2012-06-13T07:27:31.000Z</time>
      </trkpt>
      <trkpt lat="44.03919" lon="4.60941">
        <ele>298.9</ele>
        <time>2012-06-13T07:27:32.000Z</time>
      </trkpt>
      <trkpt lat="44.03912" lon="4.60942">
        <ele>298.6</ele>
        <time>2012-06-13T07:27:33.000Z</time>
      </trkpt>
      <trkpt lat="44.03907" lon="4.60942">
        <ele>298.3</ele>
        <time>2012-06-13T07:27:34.000Z</time>
      </trkpt>
      <trkpt lat="44.039" lon="4.60943">
        <ele>297.2</ele>
        <time>2012-06-13T07:27:35.000Z</time>
      </trkpt>
      <trkpt lat="44.03893" lon="4.60942">
        <ele>296.2</ele>
        <time>2012-06-13T07:27:36.000Z</time>
      </trkpt>
      <trkpt lat="44.03886" lon="4.6094">
        <ele>296</ele>
        <time>2012-06-13T07:27:37.000Z</time>
      </trkpt>
      <trkpt lat="44.0388" lon="4.60938">
        <ele>295.3</ele>
        <time>2012-06-13T07:27:38.000Z</time>
      </trkpt>
      <trkpt lat="44.03874" lon="4.60935">
        <ele>295.1</ele>
        <time>2012-06-13T07:27:39.000Z</time>
      </trkpt>
      <trkpt lat="44.03868" lon="4.60934">
        <ele>295</ele>
        <time>2012-06-13T07:27:40.000Z</time>
      </trkpt>
      <trkpt lat="44.03862" lon="4.60932">
        <ele>295</ele>
        <time>2012-06-13T07:27:41.000Z</time>
      </trkpt>
      <trkpt lat="44.03856" lon="4.60934">
        <ele>295</ele>
        <time>2012-06-13T07:27:42.000Z</time>
      </trkpt>
      <trkpt lat="44.0385" lon="4.60939">
        <ele>294.9</ele>
        <time>2012-06-13T07:27:43.000Z</time>
      </trkpt>
      <trkpt lat="44.03844" lon="4.60942">
        <ele>295.6</ele>
        <time>2012-06-13T07:27:44.000Z</time>
      </trkpt>
      <trkpt lat="44.03837" lon="4.60948">
        <ele>295.9</ele>
        <time>2012-06-13T07:27:45.000Z</time>
      </trkpt>
      <trkpt lat="44.03834" lon="4.60954">
        <ele>295.6</ele>
        <time>2012-06-13T07:27:46.000Z</time>
      </trkpt>
      <trkpt lat="44.03828" lon="4.60959">
        <ele>295.9</ele>
        <time>2012-06-13T07:27:47.000Z</time>
      </trkpt>
      <trkpt lat="44.03824" lon="4.60965">
        <ele>295.9</ele>
        <time>2012-06-13T07:27:48.000Z</time>
      </trkpt>
      <trkpt lat="44.0382" lon="4.6097">
        <ele>295.8</ele>
        <time>2012-06-13T07:27:49.000Z</time>
      </trkpt>
      <trkpt lat="44.03811" lon="4.60975">
        <ele>295.8</ele>
        <time>2012-06-13T07:27:50.000Z</time>
      </trkpt>
      <trkpt lat="44.03804" lon="4.60978">
        <ele>296.2</ele>
        <time>2012-06-13T07:27:51.000Z</time>
      </trkpt>
      <trkpt lat="44.03798" lon="4.60985">
        <ele>296.3</ele>
        <time>2012-06-13T07:27:52.000Z</time>
      </trkpt>
      <trkpt lat="44.03791" lon="4.60989">
        <ele>296.5</ele>
        <time>2012-06-13T07:27:53.000Z</time>
      </trkpt>
      <trkpt lat="44.03784" lon="4.60994">
        <ele>296.6</ele>
        <time>2012-06-13T07:27:54.000Z</time>
      </trkpt>
      <trkpt lat="44.03778" lon="4.61">
        <ele>297</ele>
        <time>2012-06-13T07:27:55.000Z</time>
      </trkpt>
      <trkpt lat="44.03772" lon="4.61009">
        <ele>297.1</ele>
        <time>2012-06-13T07:27:56.000Z</time>
      </trkpt>
      <trkpt lat="44.03771" lon="4.61018">
        <ele>296.8</ele>
        <time>2012-06-13T07:27:57.000Z</time>
      </trkpt>
      <trkpt lat="44.03771" lon="4.61027">
        <ele>295.9</ele>
        <time>2012-06-13T07:27:58.000Z</time>
      </trkpt>
      <trkpt lat="44.03772" lon="4.61036">
        <ele>295.2</ele>
        <time>2012-06-13T07:27:59.000Z</time>
      </trkpt>
      <trkpt lat="44.03775" lon="4.61046">
        <ele>294.7</ele>
        <time>2012-06-13T07:28:00.000Z</time>
      </trkpt>
      <trkpt lat="44.03775" lon="4.61055">
        <ele>294.6</ele>
        <time>2012-06-13T07:28:01.000Z</time>
      </trkpt>
      <trkpt lat="44.03776" lon="4.61064">
        <ele>294.3</ele>
        <time>2012-06-13T07:28:02.000Z</time>
      </trkpt>
      <trkpt lat="44.03776" lon="4.61072">
        <ele>294.4</ele>
        <time>2012-06-13T07:28:03.000Z</time>
      </trkpt>
      <trkpt lat="44.0377" lon="4.61086">
        <ele>291.3</ele>
        <time>2012-06-13T07:28:04.000Z</time>
      </trkpt>
      <trkpt lat="44.03771" lon="4.61097">
        <ele>290.7</ele>
        <time>2012-06-13T07:28:05.000Z</time>
      </trkpt>
      <trkpt lat="44.03771" lon="4.61109">
        <ele>290.8</ele>
        <time>2012-06-13T07:28:06.000Z</time>
      </trkpt>
      <trkpt lat="44.03772" lon="4.6112">
        <ele>289.9</ele>
        <time>2012-06-13T07:28:07.000Z</time>
      </trkpt>
      <trkpt lat="44.03774" lon="4.6113">
        <ele>289.3</ele>
        <time>2012-06-13T07:28:08.000Z</time>
      </trkpt>
      <trkpt lat="44.03778" lon="4.61139">
        <ele>289.2</ele>
        <time>2012-06-13T07:28:09.000Z</time>
      </trkpt>
      <trkpt lat="44.03785" lon="4.61146">
        <ele>289</ele>
        <time>2012-06-13T07:28:10.000Z</time>
      </trkpt>
      <trkpt lat="44.0379" lon="4.61156">
        <ele>288.9</ele>
        <time>2012-06-13T07:28:11.000Z</time>
      </trkpt>
      <trkpt lat="44.03793" lon="4.61164">
        <ele>289</ele>
        <time>2012-06-13T07:28:12.000Z</time>
      </trkpt>
      <trkpt lat="44.03796" lon="4.61174">
        <ele>288.9</ele>
        <time>2012-06-13T07:28:13.000Z</time>
      </trkpt>
      <trkpt lat="44.03799" lon="4.61184">
        <ele>288.7</ele>
        <time>2012-06-13T07:28:14.000Z</time>
      </trkpt>
      <trkpt lat="44.03803" lon="4.61189">
        <ele>288.9</ele>
        <time>2012-06-13T07:28:15.000Z</time>
      </trkpt>
      <trkpt lat="44.03811" lon="4.61194">
        <ele>289.2</ele>
        <time>2012-06-13T07:28:16.000Z</time>
      </trkpt>
      <trkpt lat="44.03816" lon="4.61198">
        <ele>289</ele>
        <time>2012-06-13T07:28:17.000Z</time>
      </trkpt>
      <trkpt lat="44.03825" lon="4.61198">
        <ele>288.6</ele>
        <time>2012-06-13T07:28:19.000Z</time>
      </trkpt>
      <trkpt lat="44.03832" lon="4.61196">
        <ele>289.2</ele>
        <time>2012-06-13T07:28:20.000Z</time>
      </trkpt>
      <trkpt lat="44.03838" lon="4.61194">
        <ele>289.4</ele>
        <time>2012-06-13T07:28:21.000Z</time>
      </trkpt>
      <trkpt lat="44.03845" lon="4.61193">
        <ele>289.6</ele>
        <time>2012-06-13T07:28:22.000Z</time>
      </trkpt>
      <trkpt lat="44.03855" lon="4.61194">
        <ele>289.8</ele>
        <time>2012-06-13T07:28:23.000Z</time>
      </trkpt>
      <trkpt lat="44.03864" lon="4.61197">
        <ele>289.9</ele>
        <time>2012-06-13T07:28:24.000Z</time>
      </trkpt>
      <trkpt lat="44.03873" lon="4.61198">
        <ele>289.6</ele>
        <time>2012-06-13T07:28:25.000Z</time>
      </trkpt>
      <trkpt lat="44.0388" lon="4.61201">
        <ele>289.6</ele>
        <time>2012-06-13T07:28:26.000Z</time>
      </trkpt>
      <trkpt lat="44.03887" lon="4.61206">
        <ele>289.5</ele>
        <time>2012-06-13T07:28:27.000Z</time>
      </trkpt>
      <trkpt lat="44.03895" lon="4.61208">
        <ele>289.6</ele>
        <time>2012-06-13T07:28:28.000Z</time>
      </trkpt>
      <trkpt lat="44.03901" lon="4.61213">
        <ele>290</ele>
        <time>2012-06-13T07:28:29.000Z</time>
      </trkpt>
      <trkpt lat="44.03906" lon="4.61218">
        <ele>289.9</ele>
        <time>2012-06-13T07:28:30.000Z</time>
      </trkpt>
      <trkpt lat="44.03912" lon="4.61222">
        <ele>289.9</ele>
        <time>2012-06-13T07:28:31.000Z</time>
      </trkpt>
      <trkpt lat="44.03918" lon="4.61225">
        <ele>289.5</ele>
        <time>2012-06-13T07:28:32.000Z</time>
      </trkpt>
      <trkpt lat="44.03923" lon="4.61228">
        <ele>288.8</ele>
        <time>2012-06-13T07:28:33.000Z</time>
      </trkpt>
      <trkpt lat="44.03929" lon="4.61236">
        <ele>288.2</ele>
        <time>2012-06-13T07:28:34.000Z</time>
      </trkpt>
      <trkpt lat="44.03934" lon="4.61244">
        <ele>287.3</ele>
        <time>2012-06-13T07:28:35.000Z</time>
      </trkpt>
      <trkpt lat="44.03936" lon="4.61253">
        <ele>286.2</ele>
        <time>2012-06-13T07:28:36.000Z</time>
      </trkpt>
      <trkpt lat="44.03938" lon="4.61264">
        <ele>285.7</ele>
        <time>2012-06-13T07:28:37.000Z</time>
      </trkpt>
      <trkpt lat="44.03938" lon="4.61272">
        <ele>285.3</ele>
        <time>2012-06-13T07:28:38.000Z</time>
      </trkpt>
      <trkpt lat="44.03938" lon="4.61279">
        <ele>284.9</ele>
        <time>2012-06-13T07:28:39.000Z</time>
      </trkpt>
      <trkpt lat="44.03932" lon="4.61287">
        <ele>284.3</ele>
        <time>2012-06-13T07:28:40.000Z</time>
      </trkpt>
      <trkpt lat="44.03929" lon="4.61295">
        <ele>284</ele>
        <time>2012-06-13T07:28:41.000Z</time>
      </trkpt>
      <trkpt lat="44.03923" lon="4.61305">
        <ele>283.6</ele>
        <time>2012-06-13T07:28:42.000Z</time>
      </trkpt>
      <trkpt lat="44.03919" lon="4.61314">
        <ele>282.6</ele>
        <time>2012-06-13T07:28:43.000Z</time>
      </trkpt>
      <trkpt lat="44.03914" lon="4.61324">
        <ele>281.9</ele>
        <time>2012-06-13T07:28:44.000Z</time>
      </trkpt>
      <trkpt lat="44.0391" lon="4.61338">
        <ele>281.3</ele>
        <time>2012-06-13T07:28:45.000Z</time>
      </trkpt>
      <trkpt lat="44.03906" lon="4.61352">
        <ele>280.5</ele>
        <time>2012-06-13T07:28:46.000Z</time>
      </trkpt>
      <trkpt lat="44.03906" lon="4.61365">
        <ele>279.1</ele>
        <time>2012-06-13T07:28:47.000Z</time>
      </trkpt>
      <trkpt lat="44.03905" lon="4.61378">
        <ele>279.5</ele>
        <time>2012-06-13T07:28:48.000Z</time>
      </trkpt>
      <trkpt lat="44.03906" lon="4.61392">
        <ele>280.3</ele>
        <time>2012-06-13T07:28:49.000Z</time>
      </trkpt>
      <trkpt lat="44.03907" lon="4.61404">
        <ele>280</ele>
        <time>2012-06-13T07:28:50.000Z</time>
      </trkpt>
      <trkpt lat="44.03907" lon="4.61414">
        <ele>279.6</ele>
        <time>2012-06-13T07:28:51.000Z</time>
      </trkpt>
      <trkpt lat="44.03912" lon="4.61422">
        <ele>280</ele>
        <time>2012-06-13T07:28:52.000Z</time>
      </trkpt>
      <trkpt lat="44.03925" lon="4.61421">
        <ele>280.5</ele>
        <time>2012-06-13T07:28:53.000Z</time>
      </trkpt>
      <trkpt lat="44.03934" lon="4.61424">
        <ele>281.7</ele>
        <time>2012-06-13T07:28:54.000Z</time>
      </trkpt>
      <trkpt lat="44.03941" lon="4.6142">
        <ele>281.5</ele>
        <time>2012-06-13T07:28:55.000Z</time>
      </trkpt>
      <trkpt lat="44.03948" lon="4.61415">
        <ele>281.5</ele>
        <time>2012-06-13T07:28:56.000Z</time>
      </trkpt>
      <trkpt lat="44.03953" lon="4.61413">
        <ele>281.7</ele>
        <time>2012-06-13T07:28:57.000Z</time>
      </trkpt>
      <trkpt lat="44.03959" lon="4.61409">
        <ele>281.6</ele>
        <time>2012-06-13T07:28:58.000Z</time>
      </trkpt>
      <trkpt lat="44.03967" lon="4.61404">
        <ele>281.7</ele>
        <time>2012-06-13T07:28:59.000Z</time>
      </trkpt>
      <trkpt lat="44.03975" lon="4.61398">
        <ele>281.5</ele>
        <time>2012-06-13T07:29:00.000Z</time>
      </trkpt>
      <trkpt lat="44.03981" lon="4.61393">
        <ele>281.2</ele>
        <time>2012-06-13T07:29:01.000Z</time>
      </trkpt>
      <trkpt lat="44.03987" lon="4.61389">
        <ele>281.6</ele>
        <time>2012-06-13T07:29:02.000Z</time>
      </trkpt>
      <trkpt lat="44.03995" lon="4.61384">
        <ele>281.3</ele>
        <time>2012-06-13T07:29:03.000Z</time>
      </trkpt>
      <trkpt lat="44.04001" lon="4.61378">
        <ele>280.4</ele>
        <time>2012-06-13T07:29:04.000Z</time>
      </trkpt>
      <trkpt lat="44.04009" lon="4.61374">
        <ele>280</ele>
        <time>2012-06-13T07:29:05.000Z</time>
      </trkpt>
      <trkpt lat="44.04016" lon="4.61369">
        <ele>280.2</ele>
        <time>2012-06-13T07:29:06.000Z</time>
      </trkpt>
      <trkpt lat="44.04024" lon="4.61365">
        <ele>279.9</ele>
        <time>2012-06-13T07:29:07.000Z</time>
      </trkpt>
      <trkpt lat="44.0403" lon="4.61361">
        <ele>279.3</ele>
        <time>2012-06-13T07:29:08.000Z</time>
      </trkpt>
      <trkpt lat="44.04037" lon="4.61357">
        <ele>278.9</ele>
        <time>2012-06-13T07:29:09.000Z</time>
      </trkpt>
      <trkpt lat="44.04043" lon="4.61353">
        <ele>279</ele>
        <time>2012-06-13T07:29:10.000Z</time>
      </trkpt>
      <trkpt lat="44.04049" lon="4.61349">
        <ele>278.3</ele>
        <time>2012-06-13T07:29:11.000Z</time>
      </trkpt>
      <trkpt lat="44.04056" lon="4.61345">
        <ele>278.1</ele>
        <time>2012-06-13T07:29:12.000Z</time>
      </trkpt>
      <trkpt lat="44.04062" lon="4.6134">
        <ele>277.8</ele>
        <time>2012-06-13T07:29:13.000Z</time>
      </trkpt>
      <trkpt lat="44.04068" lon="4.61336">
        <ele>277.3</ele>
        <time>2012-06-13T07:29:14.000Z</time>
      </trkpt>
      <trkpt lat="44.04076" lon="4.61334">
        <ele>276.9</ele>
        <time>2012-06-13T07:29:15.000Z</time>
      </trkpt>
      <trkpt lat="44.04082" lon="4.6133">
        <ele>277.1</ele>
        <time>2012-06-13T07:29:16.000Z</time>
      </trkpt>
      <trkpt lat="44.04092" lon="4.61329">
        <ele>277.2</ele>
        <time>2012-06-13T07:29:17.000Z</time>
      </trkpt>
      <trkpt lat="44.04102" lon="4.61328">
        <ele>277.3</ele>
        <time>2012-06-13T07:29:18.000Z</time>
      </trkpt>
      <trkpt lat="44.0411" lon="4.61328">
        <ele>277.2</ele>
        <time>2012-06-13T07:29:19.000Z</time>
      </trkpt>
      <trkpt lat="44.04116" lon="4.61327">
        <ele>277.3</ele>
        <time>2012-06-13T07:29:20.000Z</time>
      </trkpt>
      <trkpt lat="44.04126" lon="4.61327">
        <ele>277</ele>
        <time>2012-06-13T07:29:21.000Z</time>
      </trkpt>
      <trkpt lat="44.04135" lon="4.61327">
        <ele>276.5</ele>
        <time>2012-06-13T07:29:22.000Z</time>
      </trkpt>
      <trkpt lat="44.04141" lon="4.61327">
        <ele>276.2</ele>
        <time>2012-06-13T07:29:23.000Z</time>
      </trkpt>
      <trkpt lat="44.04149" lon="4.61326">
        <ele>275.7</ele>
        <time>2012-06-13T07:29:24.000Z</time>
      </trkpt>
      <trkpt lat="44.04157" lon="4.61327">
        <ele>275.8</ele>
        <time>2012-06-13T07:29:25.000Z</time>
      </trkpt>
      <trkpt lat="44.04165" lon="4.61327">
        <ele>275.4</ele>
        <time>2012-06-13T07:29:26.000Z</time>
      </trkpt>
      <trkpt lat="44.04174" lon="4.61328">
        <ele>275.4</ele>
        <time>2012-06-13T07:29:27.000Z</time>
      </trkpt>
      <trkpt lat="44.04184" lon="4.6133">
        <ele>275.5</ele>
        <time>2012-06-13T07:29:28.000Z</time>
      </trkpt>
      <trkpt lat="44.04193" lon="4.61329">
        <ele>275.8</ele>
        <time>2012-06-13T07:29:29.000Z</time>
      </trkpt>
      <trkpt lat="44.04199" lon="4.61329">
        <ele>276.4</ele>
        <time>2012-06-13T07:29:30.000Z</time>
      </trkpt>
      <trkpt lat="44.04206" lon="4.61332">
        <ele>276.1</ele>
        <time>2012-06-13T07:29:31.000Z</time>
      </trkpt>
      <trkpt lat="44.04212" lon="4.61335">
        <ele>276</ele>
        <time>2012-06-13T07:29:32.000Z</time>
      </trkpt>
      <trkpt lat="44.04217" lon="4.61345">
        <ele>274.5</ele>
        <time>2012-06-13T07:29:33.000Z</time>
      </trkpt>
      <trkpt lat="44.0422" lon="4.61355">
        <ele>273.4</ele>
        <time>2012-06-13T07:29:34.000Z</time>
      </trkpt>
      <trkpt lat="44.04224" lon="4.61366">
        <ele>272.2</ele>
        <time>2012-06-13T07:29:35.000Z</time>
      </trkpt>
      <trkpt lat="44.04224" lon="4.61376">
        <ele>271.7</ele>
        <time>2012-06-13T07:29:36.000Z</time>
      </trkpt>
      <trkpt lat="44.04224" lon="4.61387">
        <ele>270.9</ele>
        <time>2012-06-13T07:29:37.000Z</time>
      </trkpt>
      <trkpt lat="44.04225" lon="4.61397">
        <ele>270.6</ele>
        <time>2012-06-13T07:29:38.000Z</time>
      </trkpt>
      <trkpt lat="44.04226" lon="4.61407">
        <ele>270.3</ele>
        <time>2012-06-13T07:29:39.000Z</time>
      </trkpt>
      <trkpt lat="44.04226" lon="4.6142">
        <ele>270.3</ele>
        <time>2012-06-13T07:29:40.000Z</time>
      </trkpt>
      <trkpt lat="44.04224" lon="4.61427">
        <ele>270.3</ele>
        <time>2012-06-13T07:29:41.000Z</time>
      </trkpt>
      <trkpt lat="44.04222" lon="4.61435">
        <ele>269.6</ele>
        <time>2012-06-13T07:29:42.000Z</time>
      </trkpt>
      <trkpt lat="44.04222" lon="4.61444">
        <ele>268.9</ele>
        <time>2012-06-13T07:29:43.000Z</time>
      </trkpt>
      <trkpt lat="44.04222" lon="4.61452">
        <ele>268</ele>
        <time>2012-06-13T07:29:44.000Z</time>
      </trkpt>
      <trkpt lat="44.04226" lon="4.61459">
        <ele>267.9</ele>
        <time>2012-06-13T07:29:45.000Z</time>
      </trkpt>
      <trkpt lat="44.0423" lon="4.61465">
        <ele>267.6</ele>
        <time>2012-06-13T07:29:46.000Z</time>
      </trkpt>
      <trkpt lat="44.04235" lon="4.61469">
        <ele>267.8</ele>
        <time>2012-06-13T07:29:47.000Z</time>
      </trkpt>
      <trkpt lat="44.04235" lon="4.61476">
        <ele>267.3</ele>
        <time>2012-06-13T07:29:48.000Z</time>
      </trkpt>
      <trkpt lat="44.04236" lon="4.61482">
        <ele>267</ele>
        <time>2012-06-13T07:29:49.000Z</time>
      </trkpt>
      <trkpt lat="44.0424" lon="4.6149">
        <ele>267.1</ele>
        <time>2012-06-13T07:29:50.000Z</time>
      </trkpt>
      <trkpt lat="44.04243" lon="4.61498">
        <ele>267</ele>
        <time>2012-06-13T07:29:51.000Z</time>
      </trkpt>
      <trkpt lat="44.04248" lon="4.61508">
        <ele>267</ele>
        <time>2012-06-13T07:29:52.000Z</time>
      </trkpt>
      <trkpt lat="44.04252" lon="4.61519">
        <ele>266.1</ele>
        <time>2012-06-13T07:29:53.000Z</time>
      </trkpt>
      <trkpt lat="44.04253" lon="4.61532">
        <ele>265.3</ele>
        <time>2012-06-13T07:29:54.000Z</time>
      </trkpt>
      <trkpt lat="44.04257" lon="4.61544">
        <ele>264.4</ele>
        <time>2012-06-13T07:29:55.000Z</time>
      </trkpt>
      <trkpt lat="44.04259" lon="4.61556">
        <ele>263.5</ele>
        <time>2012-06-13T07:29:56.000Z</time>
      </trkpt>
      <trkpt lat="44.04262" lon="4.61568">
        <ele>263.1</ele>
        <time>2012-06-13T07:29:57.000Z</time>
      </trkpt>
      <trkpt lat="44.04268" lon="4.61578">
        <ele>263.3</ele>
        <time>2012-06-13T07:29:58.000Z</time>
      </trkpt>
      <trkpt lat="44.0427" lon="4.61588">
        <ele>262.9</ele>
        <time>2012-06-13T07:29:59.000Z</time>
      </trkpt>
      <trkpt lat="44.04276" lon="4.61595">
        <ele>262.6</ele>
        <time>2012-06-13T07:30:00.000Z</time>
      </trkpt>
      <trkpt lat="44.04282" lon="4.616">
        <ele>262.3</ele>
        <time>2012-06-13T07:30:01.000Z</time>
      </trkpt>
      <trkpt lat="44.04291" lon="4.61603">
        <ele>262.2</ele>
        <time>2012-06-13T07:30:02.000Z</time>
      </trkpt>
      <trkpt lat="44.04299" lon="4.61607">
        <ele>261.5</ele>
        <time>2012-06-13T07:30:03.000Z</time>
      </trkpt>
      <trkpt lat="44.04306" lon="4.6161">
        <ele>261.1</ele>
        <time>2012-06-13T07:30:04.000Z</time>
      </trkpt>
      <trkpt lat="44.04314" lon="4.61615">
        <ele>261.2</ele>
        <time>2012-06-13T07:30:05.000Z</time>
      </trkpt>
      <trkpt lat="44.04322" lon="4.61618">
        <ele>261.3</ele>
        <time>2012-06-13T07:30:06.000Z</time>
      </trkpt>
      <trkpt lat="44.04332" lon="4.61621">
        <ele>261.6</ele>
        <time>2012-06-13T07:30:07.000Z</time>
      </trkpt>
      <trkpt lat="44.04338" lon="4.61626">
        <ele>261.3</ele>
        <time>2012-06-13T07:30:08.000Z</time>
      </trkpt>
      <trkpt lat="44.04346" lon="4.61632">
        <ele>261.1</ele>
        <time>2012-06-13T07:30:09.000Z</time>
      </trkpt>
      <trkpt lat="44.04353" lon="4.61639">
        <ele>261</ele>
        <time>2012-06-13T07:30:10.000Z</time>
      </trkpt>
      <trkpt lat="44.0436" lon="4.61644">
        <ele>261</ele>
        <time>2012-06-13T07:30:11.000Z</time>
      </trkpt>
      <trkpt lat="44.04371" lon="4.61649">
        <ele>260.6</ele>
        <time>2012-06-13T07:30:12.000Z</time>
      </trkpt>
      <trkpt lat="44.0438" lon="4.61654">
        <ele>260.6</ele>
        <time>2012-06-13T07:30:13.000Z</time>
      </trkpt>
      <trkpt lat="44.0439" lon="4.61656">
        <ele>260.4</ele>
        <time>2012-06-13T07:30:14.000Z</time>
      </trkpt>
      <trkpt lat="44.04397" lon="4.61661">
        <ele>260.5</ele>
        <time>2012-06-13T07:30:15.000Z</time>
      </trkpt>
      <trkpt lat="44.04406" lon="4.61664">
        <ele>260.5</ele>
        <time>2012-06-13T07:30:16.000Z</time>
      </trkpt>
      <trkpt lat="44.04413" lon="4.61673">
        <ele>260.2</ele>
        <time>2012-06-13T07:30:17.000Z</time>
      </trkpt>
      <trkpt lat="44.04421" lon="4.61677">
        <ele>259.8</ele>
        <time>2012-06-13T07:30:18.000Z</time>
      </trkpt>
      <trkpt lat="44.04431" lon="4.61683">
        <ele>258.9</ele>
        <time>2012-06-13T07:30:19.000Z</time>
      </trkpt>
      <trkpt lat="44.04438" lon="4.6169">
        <ele>258.4</ele>
        <time>2012-06-13T07:30:20.000Z</time>
      </trkpt>
      <trkpt lat="44.04448" lon="4.61691">
        <ele>257.7</ele>
        <time>2012-06-13T07:30:21.000Z</time>
      </trkpt>
      <trkpt lat="44.04456" lon="4.61694">
        <ele>257.1</ele>
        <time>2012-06-13T07:30:22.000Z</time>
      </trkpt>
      <trkpt lat="44.04465" lon="4.61695">
        <ele>256.6</ele>
        <time>2012-06-13T07:30:23.000Z</time>
      </trkpt>
      <trkpt lat="44.04475" lon="4.61694">
        <ele>256.1</ele>
        <time>2012-06-13T07:30:24.000Z</time>
      </trkpt>
      <trkpt lat="44.04484" lon="4.61693">
        <ele>255.5</ele>
        <time>2012-06-13T07:30:25.000Z</time>
      </trkpt>
      <trkpt lat="44.04492" lon="4.6169">
        <ele>255.1</ele>
        <time>2012-06-13T07:30:26.000Z</time>
      </trkpt>
      <trkpt lat="44.045" lon="4.61687">
        <ele>255.6</ele>
        <time>2012-06-13T07:30:27.000Z</time>
      </trkpt>
      <trkpt lat="44.04508" lon="4.61684">
        <ele>254.7</ele>
        <time>2012-06-13T07:30:28.000Z</time>
      </trkpt>
      <trkpt lat="44.04516" lon="4.61681">
        <ele>252.9</ele>
        <time>2012-06-13T07:30:29.000Z</time>
      </trkpt>
      <trkpt lat="44.04526" lon="4.61682">
        <ele>252.8</ele>
        <time>2012-06-13T07:30:30.000Z</time>
      </trkpt>
      <trkpt lat="44.04534" lon="4.61685">
        <ele>252</ele>
        <time>2012-06-13T07:30:31.000Z</time>
      </trkpt>
      <trkpt lat="44.04543" lon="4.61689">
        <ele>250.7</ele>
        <time>2012-06-13T07:30:32.000Z</time>
      </trkpt>
      <trkpt lat="44.0455" lon="4.61695">
        <ele>249.4</ele>
        <time>2012-06-13T07:30:33.000Z</time>
      </trkpt>
      <trkpt lat="44.04558" lon="4.61701">
        <ele>248.6</ele>
        <time>2012-06-13T07:30:34.000Z</time>
      </trkpt>
      <trkpt lat="44.04564" lon="4.61707">
        <ele>248.2</ele>
        <time>2012-06-13T07:30:35.000Z</time>
      </trkpt>
      <trkpt lat="44.04571" lon="4.61713">
        <ele>246.9</ele>
        <time>2012-06-13T07:30:36.000Z</time>
      </trkpt>
      <trkpt lat="44.04578" lon="4.61719">
        <ele>246.1</ele>
        <time>2012-06-13T07:30:37.000Z</time>
      </trkpt>
      <trkpt lat="44.04586" lon="4.61721">
        <ele>245.9</ele>
        <time>2012-06-13T07:30:38.000Z</time>
      </trkpt>
      <trkpt lat="44.04594" lon="4.61724">
        <ele>245.5</ele>
        <time>2012-06-13T07:30:39.000Z</time>
      </trkpt>
      <trkpt lat="44.046" lon="4.61728">
        <ele>245.4</ele>
        <time>2012-06-13T07:30:40.000Z</time>
      </trkpt>
      <trkpt lat="44.04605" lon="4.61731">
        <ele>244.9</ele>
        <time>2012-06-13T07:30:41.000Z</time>
      </trkpt>
      <trkpt lat="44.04612" lon="4.61736">
        <ele>245</ele>
        <time>2012-06-13T07:30:42.000Z</time>
      </trkpt>
      <trkpt lat="44.0462" lon="4.6174">
        <ele>245</ele>
        <time>2012-06-13T07:30:43.000Z</time>
      </trkpt>
      <trkpt lat="44.04626" lon="4.61746">
        <ele>244.8</ele>
        <time>2012-06-13T07:30:44.000Z</time>
      </trkpt>
      <trkpt lat="44.04634" lon="4.6175">
        <ele>244.8</ele>
        <time>2012-06-13T07:30:45.000Z</time>
      </trkpt>
      <trkpt lat="44.0464" lon="4.61754">
        <ele>244.6</ele>
        <time>2012-06-13T07:30:46.000Z</time>
      </trkpt>
      <trkpt lat="44.04647" lon="4.61757">
        <ele>244.6</ele>
        <time>2012-06-13T07:30:47.000Z</time>
      </trkpt>
      <trkpt lat="44.04654" lon="4.6176">
        <ele>244.3</ele>
        <time>2012-06-13T07:30:48.000Z</time>
      </trkpt>
      <trkpt lat="44.04663" lon="4.61763">
        <ele>243.3</ele>
        <time>2012-06-13T07:30:49.000Z</time>
      </trkpt>
      <trkpt lat="44.0467" lon="4.61768">
        <ele>243.8</ele>
        <time>2012-06-13T07:30:50.000Z</time>
      </trkpt>
      <trkpt lat="44.04674" lon="4.61773">
        <ele>243.3</ele>
        <time>2012-06-13T07:30:51.000Z</time>
      </trkpt>
      <trkpt lat="44.04682" lon="4.61778">
        <ele>242.6</ele>
        <time>2012-06-13T07:30:52.000Z</time>
      </trkpt>
      <trkpt lat="44.0469" lon="4.61785">
        <ele>242</ele>
        <time>2012-06-13T07:30:53.000Z</time>
      </trkpt>
      <trkpt lat="44.04697" lon="4.61791">
        <ele>241.6</ele>
        <time>2012-06-13T07:30:54.000Z</time>
      </trkpt>
      <trkpt lat="44.04706" lon="4.61798">
        <ele>240.9</ele>
        <time>2012-06-13T07:30:55.000Z</time>
      </trkpt>
      <trkpt lat="44.04715" lon="4.61803">
        <ele>240.8</ele>
        <time>2012-06-13T07:30:56.000Z</time>
      </trkpt>
      <trkpt lat="44.0472" lon="4.6181">
        <ele>239.6</ele>
        <time>2012-06-13T07:30:57.000Z</time>
      </trkpt>
      <trkpt lat="44.04727" lon="4.61818">
        <ele>238.3</ele>
        <time>2012-06-13T07:30:58.000Z</time>
      </trkpt>
      <trkpt lat="44.04733" lon="4.61825">
        <ele>238.1</ele>
        <time>2012-06-13T07:30:59.000Z</time>
      </trkpt>
      <trkpt lat="44.04739" lon="4.61832">
        <ele>237.7</ele>
        <time>2012-06-13T07:31:00.000Z</time>
      </trkpt>
      <trkpt lat="44.04745" lon="4.61838">
        <ele>237.7</ele>
        <time>2012-06-13T07:31:01.000Z</time>
      </trkpt>
      <trkpt lat="44.0475" lon="4.61845">
        <ele>237.5</ele>
        <time>2012-06-13T07:31:02.000Z</time>
      </trkpt>
      <trkpt lat="44.04754" lon="4.61853">
        <ele>237.2</ele>
        <time>2012-06-13T07:31:03.000Z</time>
      </trkpt>
      <trkpt lat="44.04759" lon="4.6186">
        <ele>237.1</ele>
        <time>2012-06-13T07:31:04.000Z</time>
      </trkpt>
      <trkpt lat="44.04764" lon="4.61867">
        <ele>236.9</ele>
        <time>2012-06-13T07:31:05.000Z</time>
      </trkpt>
      <trkpt lat="44.04768" lon="4.61872">
        <ele>236.6</ele>
        <time>2012-06-13T07:31:06.000Z</time>
      </trkpt>
      <trkpt lat="44.04774" lon="4.61877">
        <ele>236.7</ele>
        <time>2012-06-13T07:31:07.000Z</time>
      </trkpt>
      <trkpt lat="44.04779" lon="4.61882">
        <ele>236.4</ele>
        <time>2012-06-13T07:31:08.000Z</time>
      </trkpt>
      <trkpt lat="44.04783" lon="4.61887">
        <ele>235.8</ele>
        <time>2012-06-13T07:31:09.000Z</time>
      </trkpt>
      <trkpt lat="44.04789" lon="4.61893">
        <ele>235.4</ele>
        <time>2012-06-13T07:31:10.000Z</time>
      </trkpt>
      <trkpt lat="44.04794" lon="4.619">
        <ele>235.1</ele>
        <time>2012-06-13T07:31:11.000Z</time>
      </trkpt>
      <trkpt lat="44.04799" lon="4.61906">
        <ele>234.3</ele>
        <time>2012-06-13T07:31:12.000Z</time>
      </trkpt>
      <trkpt lat="44.04805" lon="4.61913">
        <ele>233.9</ele>
        <time>2012-06-13T07:31:13.000Z</time>
      </trkpt>
      <trkpt lat="44.04811" lon="4.61919">
        <ele>233.3</ele>
        <time>2012-06-13T07:31:14.000Z</time>
      </trkpt>
      <trkpt lat="44.04817" lon="4.61925">
        <ele>233.2</ele>
        <time>2012-06-13T07:31:15.000Z</time>
      </trkpt>
      <trkpt lat="44.04823" lon="4.61931">
        <ele>232.5</ele>
        <time>2012-06-13T07:31:16.000Z</time>
      </trkpt>
      <trkpt lat="44.04827" lon="4.61936">
        <ele>231.7</ele>
        <time>2012-06-13T07:31:17.000Z</time>
      </trkpt>
      <trkpt lat="44.04833" lon="4.61942">
        <ele>231.9</ele>
        <time>2012-06-13T07:31:18.000Z</time>
      </trkpt>
      <trkpt lat="44.04837" lon="4.61949">
        <ele>231.7</ele>
        <time>2012-06-13T07:31:19.000Z</time>
      </trkpt>
      <trkpt lat="44.04841" lon="4.61956">
        <ele>230.8</ele>
        <time>2012-06-13T07:31:20.000Z</time>
      </trkpt>
      <trkpt lat="44.04845" lon="4.61965">
        <ele>230.8</ele>
        <time>2012-06-13T07:31:21.000Z</time>
      </trkpt>
      <trkpt lat="44.0485" lon="4.61973">
        <ele>229.9</ele>
        <time>2012-06-13T07:31:22.000Z</time>
      </trkpt>
      <trkpt lat="44.04853" lon="4.61981">
        <ele>229.8</ele>
        <time>2012-06-13T07:31:23.000Z</time>
      </trkpt>
      <trkpt lat="44.04856" lon="4.6199">
        <ele>228.1</ele>
        <time>2012-06-13T07:31:24.000Z</time>
      </trkpt>
      <trkpt lat="44.04861" lon="4.61998">
        <ele>227.1</ele>
        <time>2012-06-13T07:31:25.000Z</time>
      </trkpt>
      <trkpt lat="44.04864" lon="4.62006">
        <ele>226.3</ele>
        <time>2012-06-13T07:31:26.000Z</time>
      </trkpt>
      <trkpt lat="44.04867" lon="4.62014">
        <ele>226.5</ele>
        <time>2012-06-13T07:31:27.000Z</time>
      </trkpt>
      <trkpt lat="44.04873" lon="4.62021">
        <ele>226.2</ele>
        <time>2012-06-13T07:31:28.000Z</time>
      </trkpt>
      <trkpt lat="44.04878" lon="4.62029">
        <ele>225.7</ele>
        <time>2012-06-13T07:31:29.000Z</time>
      </trkpt>
      <trkpt lat="44.04883" lon="4.62036">
        <ele>225.4</ele>
        <time>2012-06-13T07:31:30.000Z</time>
      </trkpt>
      <trkpt lat="44.04888" lon="4.62042">
        <ele>225.5</ele>
        <time>2012-06-13T07:31:31.000Z</time>
      </trkpt>
      <trkpt lat="44.04893" lon="4.62047">
        <ele>225.6</ele>
        <time>2012-06-13T07:31:32.000Z</time>
      </trkpt>
      <trkpt lat="44.04899" lon="4.62053">
        <ele>225.5</ele>
        <time>2012-06-13T07:31:33.000Z</time>
      </trkpt>
      <trkpt lat="44.04906" lon="4.62059">
        <ele>225.8</ele>
        <time>2012-06-13T07:31:34.000Z</time>
      </trkpt>
      <trkpt lat="44.04912" lon="4.62064">
        <ele>225.6</ele>
        <time>2012-06-13T07:31:35.000Z</time>
      </trkpt>
      <trkpt lat="44.04918" lon="4.62071">
        <ele>225.8</ele>
        <time>2012-06-13T07:31:36.000Z</time>
      </trkpt>
      <trkpt lat="44.04926" lon="4.62076">
        <ele>225.7</ele>
        <time>2012-06-13T07:31:37.000Z</time>
      </trkpt>
      <trkpt lat="44.04932" lon="4.62081">
        <ele>225.7</ele>
        <time>2012-06-13T07:31:38.000Z</time>
      </trkpt>
      <trkpt lat="44.04937" lon="4.62088">
        <ele>225.7</ele>
        <time>2012-06-13T07:31:39.000Z</time>
      </trkpt>
      <trkpt lat="44.04941" lon="4.62098">
        <ele>225.1</ele>
        <time>2012-06-13T07:31:40.000Z</time>
      </trkpt>
      <trkpt lat="44.04946" lon="4.62106">
        <ele>226.1</ele>
        <time>2012-06-13T07:31:41.000Z</time>
      </trkpt>
      <trkpt lat="44.0495" lon="4.62114">
        <ele>226.6</ele>
        <time>2012-06-13T07:31:42.000Z</time>
      </trkpt>
      <trkpt lat="44.04952" lon="4.62122">
        <ele>226.7</ele>
        <time>2012-06-13T07:31:43.000Z</time>
      </trkpt>
      <trkpt lat="44.04958" lon="4.62129">
        <ele>226.9</ele>
        <time>2012-06-13T07:31:44.000Z</time>
      </trkpt>
      <trkpt lat="44.04961" lon="4.62136">
        <ele>226.8</ele>
        <time>2012-06-13T07:31:45.000Z</time>
      </trkpt>
      <trkpt lat="44.04965" lon="4.62142">
        <ele>226.4</ele>
        <time>2012-06-13T07:31:46.000Z</time>
      </trkpt>
      <trkpt lat="44.04967" lon="4.62149">
        <ele>225.6</ele>
        <time>2012-06-13T07:31:47.000Z</time>
      </trkpt>
      <trkpt lat="44.04971" lon="4.62154">
        <ele>225.2</ele>
        <time>2012-06-13T07:31:48.000Z</time>
      </trkpt>
      <trkpt lat="44.04974" lon="4.6216">
        <ele>225.2</ele>
        <time>2012-06-13T07:31:49.000Z</time>
      </trkpt>
      <trkpt lat="44.04979" lon="4.62166">
        <ele>225.4</ele>
        <time>2012-06-13T07:31:50.000Z</time>
      </trkpt>
      <trkpt lat="44.04982" lon="4.62172">
        <ele>224.9</ele>
        <time>2012-06-13T07:31:51.000Z</time>
      </trkpt>
      <trkpt lat="44.04987" lon="4.62175">
        <ele>224.4</ele>
        <time>2012-06-13T07:31:52.000Z</time>
      </trkpt>
      <trkpt lat="44.04992" lon="4.62184">
        <ele>223.4</ele>
        <time>2012-06-13T07:31:54.000Z</time>
      </trkpt>
      <trkpt lat="44.05001" lon="4.62194">
        <ele>221.5</ele>
        <time>2012-06-13T07:31:56.000Z</time>
      </trkpt>
      <trkpt lat="44.05005" lon="4.62198">
        <ele>221.2</ele>
        <time>2012-06-13T07:31:57.000Z</time>
      </trkpt>
      <trkpt lat="44.05009" lon="4.62202">
        <ele>220.8</ele>
        <time>2012-06-13T07:31:58.000Z</time>
      </trkpt>
      <trkpt lat="44.05013" lon="4.62207">
        <ele>220.8</ele>
        <time>2012-06-13T07:31:59.000Z</time>
      </trkpt>
      <trkpt lat="44.05016" lon="4.62212">
        <ele>220.9</ele>
        <time>2012-06-13T07:32:00.000Z</time>
      </trkpt>
      <trkpt lat="44.0502" lon="4.62218">
        <ele>220.4</ele>
        <time>2012-06-13T07:32:01.000Z</time>
      </trkpt>
      <trkpt lat="44.05022" lon="4.62224">
        <ele>220</ele>
        <time>2012-06-13T07:32:02.000Z</time>
      </trkpt>
      <trkpt lat="44.05026" lon="4.6223">
        <ele>219.2</ele>
        <time>2012-06-13T07:32:03.000Z</time>
      </trkpt>
      <trkpt lat="44.0503" lon="4.62236">
        <ele>219.1</ele>
        <time>2012-06-13T07:32:04.000Z</time>
      </trkpt>
      <trkpt lat="44.05033" lon="4.62245">
        <ele>218.3</ele>
        <time>2012-06-13T07:32:05.000Z</time>
      </trkpt>
      <trkpt lat="44.05037" lon="4.62253">
        <ele>217.8</ele>
        <time>2012-06-13T07:32:06.000Z</time>
      </trkpt>
      <trkpt lat="44.05039" lon="4.62259">
        <ele>218</ele>
        <time>2012-06-13T07:32:07.000Z</time>
      </trkpt>
      <trkpt lat="44.05042" lon="4.62266">
        <ele>217.2</ele>
        <time>2012-06-13T07:32:08.000Z</time>
      </trkpt>
      <trkpt lat="44.05045" lon="4.62272">
        <ele>216.9</ele>
        <time>2012-06-13T07:32:09.000Z</time>
      </trkpt>
      <trkpt lat="44.05049" lon="4.62279">
        <ele>216.8</ele>
        <time>2012-06-13T07:32:10.000Z</time>
      </trkpt>
      <trkpt lat="44.05052" lon="4.62288">
        <ele>216.9</ele>
        <time>2012-06-13T07:32:11.000Z</time>
      </trkpt>
      <trkpt lat="44.05056" lon="4.62299">
        <ele>217.2</ele>
        <time>2012-06-13T07:32:12.000Z</time>
      </trkpt>
      <trkpt lat="44.0506" lon="4.62308">
        <ele>217</ele>
        <time>2012-06-13T07:32:13.000Z</time>
      </trkpt>
      <trkpt lat="44.05064" lon="4.62315">
        <ele>216.2</ele>
        <time>2012-06-13T07:32:14.000Z</time>
      </trkpt>
      <trkpt lat="44.05067" lon="4.62324">
        <ele>216.4</ele>
        <time>2012-06-13T07:32:15.000Z</time>
      </trkpt>
      <trkpt lat="44.05071" lon="4.62331">
        <ele>216.5</ele>
        <time>2012-06-13T07:32:16.000Z</time>
      </trkpt>
      <trkpt lat="44.05075" lon="4.62339">
        <ele>216.4</ele>
        <time>2012-06-13T07:32:17.000Z</time>
      </trkpt>
      <trkpt lat="44.05076" lon="4.62347">
        <ele>216.2</ele>
        <time>2012-06-13T07:32:18.000Z</time>
      </trkpt>
      <trkpt lat="44.0508" lon="4.62354">
        <ele>216.6</ele>
        <time>2012-06-13T07:32:19.000Z</time>
      </trkpt>
      <trkpt lat="44.05082" lon="4.62363">
        <ele>216.6</ele>
        <time>2012-06-13T07:32:20.000Z</time>
      </trkpt>
      <trkpt lat="44.05085" lon="4.62371">
        <ele>217.3</ele>
        <time>2012-06-13T07:32:21.000Z</time>
      </trkpt>
      <trkpt lat="44.05088" lon="4.62377">
        <ele>217.2</ele>
        <time>2012-06-13T07:32:22.000Z</time>
      </trkpt>
      <trkpt lat="44.0509" lon="4.62383">
        <ele>217.3</ele>
        <time>2012-06-13T07:32:23.000Z</time>
      </trkpt>
      <trkpt lat="44.05093" lon="4.6239">
        <ele>217.1</ele>
        <time>2012-06-13T07:32:24.000Z</time>
      </trkpt>
      <trkpt lat="44.05096" lon="4.62397">
        <ele>216.8</ele>
        <time>2012-06-13T07:32:25.000Z</time>
      </trkpt>
      <trkpt lat="44.051" lon="4.62404">
        <ele>216.2</ele>
        <time>2012-06-13T07:32:26.000Z</time>
      </trkpt>
      <trkpt lat="44.05104" lon="4.62411">
        <ele>215.6</ele>
        <time>2012-06-13T07:32:27.000Z</time>
      </trkpt>
      <trkpt lat="44.05107" lon="4.62418">
        <ele>215.4</ele>
        <time>2012-06-13T07:32:28.000Z</time>
      </trkpt>
      <trkpt lat="44.05112" lon="4.62422">
        <ele>215.6</ele>
        <time>2012-06-13T07:32:29.000Z</time>
      </trkpt>
      <trkpt lat="44.05116" lon="4.62429">
        <ele>215.6</ele>
        <time>2012-06-13T07:32:30.000Z</time>
      </trkpt>
      <trkpt lat="44.05118" lon="4.62436">
        <ele>216.1</ele>
        <time>2012-06-13T07:32:31.000Z</time>
      </trkpt>
      <trkpt lat="44.05123" lon="4.62443">
        <ele>215.6</ele>
        <time>2012-06-13T07:32:32.000Z</time>
      </trkpt>
      <trkpt lat="44.05128" lon="4.62452">
        <ele>216</ele>
        <time>2012-06-13T07:32:33.000Z</time>
      </trkpt>
      <trkpt lat="44.05128" lon="4.62466">
        <ele>215.8</ele>
        <time>2012-06-13T07:32:34.000Z</time>
      </trkpt>
      <trkpt lat="44.05131" lon="4.62476">
        <ele>216.3</ele>
        <time>2012-06-13T07:32:35.000Z</time>
      </trkpt>
      <trkpt lat="44.05133" lon="4.62488">
        <ele>216</ele>
        <time>2012-06-13T07:32:36.000Z</time>
      </trkpt>
      <trkpt lat="44.05137" lon="4.62496">
        <ele>215.7</ele>
        <time>2012-06-13T07:32:37.000Z</time>
      </trkpt>
      <trkpt lat="44.0514" lon="4.62504">
        <ele>216.3</ele>
        <time>2012-06-13T07:32:38.000Z</time>
      </trkpt>
      <trkpt lat="44.05144" lon="4.62514">
        <ele>216.5</ele>
        <time>2012-06-13T07:32:39.000Z</time>
      </trkpt>
      <trkpt lat="44.05148" lon="4.62523">
        <ele>216.3</ele>
        <time>2012-06-13T07:32:40.000Z</time>
      </trkpt>
      <trkpt lat="44.05152" lon="4.62532">
        <ele>215.9</ele>
        <time>2012-06-13T07:32:41.000Z</time>
      </trkpt>
      <trkpt lat="44.05156" lon="4.62542">
        <ele>215.4</ele>
        <time>2012-06-13T07:32:42.000Z</time>
      </trkpt>
      <trkpt lat="44.0516" lon="4.62552">
        <ele>214.8</ele>
        <time>2012-06-13T07:32:43.000Z</time>
      </trkpt>
      <trkpt lat="44.05165" lon="4.62561">
        <ele>214.8</ele>
        <time>2012-06-13T07:32:44.000Z</time>
      </trkpt>
      <trkpt lat="44.0517" lon="4.62569">
        <ele>214.9</ele>
        <time>2012-06-13T07:32:45.000Z</time>
      </trkpt>
      <trkpt lat="44.05174" lon="4.6258">
        <ele>214.5</ele>
        <time>2012-06-13T07:32:46.000Z</time>
      </trkpt>
      <trkpt lat="44.05178" lon="4.6259">
        <ele>213.9</ele>
        <time>2012-06-13T07:32:47.000Z</time>
      </trkpt>
      <trkpt lat="44.05182" lon="4.62599">
        <ele>213.5</ele>
        <time>2012-06-13T07:32:48.000Z</time>
      </trkpt>
      <trkpt lat="44.05187" lon="4.62608">
        <ele>213</ele>
        <time>2012-06-13T07:32:49.000Z</time>
      </trkpt>
      <trkpt lat="44.05192" lon="4.62617">
        <ele>212.9</ele>
        <time>2012-06-13T07:32:50.000Z</time>
      </trkpt>
      <trkpt lat="44.05196" lon="4.62627">
        <ele>212.6</ele>
        <time>2012-06-13T07:32:51.000Z</time>
      </trkpt>
      <trkpt lat="44.05201" lon="4.62636">
        <ele>212.6</ele>
        <time>2012-06-13T07:32:52.000Z</time>
      </trkpt>
      <trkpt lat="44.05206" lon="4.62647">
        <ele>212.6</ele>
        <time>2012-06-13T07:32:53.000Z</time>
      </trkpt>
      <trkpt lat="44.05209" lon="4.62658">
        <ele>212.3</ele>
        <time>2012-06-13T07:32:54.000Z</time>
      </trkpt>
      <trkpt lat="44.05213" lon="4.6267">
        <ele>212.1</ele>
        <time>2012-06-13T07:32:55.000Z</time>
      </trkpt>
      <trkpt lat="44.05217" lon="4.6268">
        <ele>211.7</ele>
        <time>2012-06-13T07:32:56.000Z</time>
      </trkpt>
      <trkpt lat="44.05214" lon="4.62694">
        <ele>210.4</ele>
        <time>2012-06-13T07:32:57.000Z</time>
      </trkpt>
      <trkpt lat="44.05219" lon="4.62705">
        <ele>209.3</ele>
        <time>2012-06-13T07:32:58.000Z</time>
      </trkpt>
      <trkpt lat="44.0522" lon="4.62718">
        <ele>208.4</ele>
        <time>2012-06-13T07:32:59.000Z</time>
      </trkpt>
      <trkpt lat="44.05222" lon="4.62728">
        <ele>208.5</ele>
        <time>2012-06-13T07:33:00.000Z</time>
      </trkpt>
      <trkpt lat="44.05225" lon="4.62739">
        <ele>208.4</ele>
        <time>2012-06-13T07:33:01.000Z</time>
      </trkpt>
      <trkpt lat="44.05228" lon="4.6275">
        <ele>208.5</ele>
        <time>2012-06-13T07:33:02.000Z</time>
      </trkpt>
      <trkpt lat="44.05232" lon="4.6276">
        <ele>208.4</ele>
        <time>2012-06-13T07:33:03.000Z</time>
      </trkpt>
      <trkpt lat="44.05235" lon="4.62772">
        <ele>208.6</ele>
        <time>2012-06-13T07:33:04.000Z</time>
      </trkpt>
      <trkpt lat="44.05239" lon="4.62782">
        <ele>208.4</ele>
        <time>2012-06-13T07:33:05.000Z</time>
      </trkpt>
      <trkpt lat="44.05242" lon="4.62794">
        <ele>208.1</ele>
        <time>2012-06-13T07:33:06.000Z</time>
      </trkpt>
      <trkpt lat="44.05244" lon="4.62806">
        <ele>208.1</ele>
        <time>2012-06-13T07:33:07.000Z</time>
      </trkpt>
      <trkpt lat="44.05247" lon="4.62816">
        <ele>208</ele>
        <time>2012-06-13T07:33:08.000Z</time>
      </trkpt>
      <trkpt lat="44.05249" lon="4.62828">
        <ele>207.1</ele>
        <time>2012-06-13T07:33:09.000Z</time>
      </trkpt>
      <trkpt lat="44.05253" lon="4.62838">
        <ele>207.1</ele>
        <time>2012-06-13T07:33:10.000Z</time>
      </trkpt>
      <trkpt lat="44.05256" lon="4.62848">
        <ele>207.3</ele>
        <time>2012-06-13T07:33:11.000Z</time>
      </trkpt>
      <trkpt lat="44.05253" lon="4.62862">
        <ele>206.8</ele>
        <time>2012-06-13T07:33:12.000Z</time>
      </trkpt>
      <trkpt lat="44.05256" lon="4.62875">
        <ele>206.2</ele>
        <time>2012-06-13T07:33:13.000Z</time>
      </trkpt>
      <trkpt lat="44.05258" lon="4.62883">
        <ele>205.1</ele>
        <time>2012-06-13T07:33:14.000Z</time>
      </trkpt>
      <trkpt lat="44.05262" lon="4.62892">
        <ele>204.7</ele>
        <time>2012-06-13T07:33:15.000Z</time>
      </trkpt>
      <trkpt lat="44.05268" lon="4.62898">
        <ele>204.3</ele>
        <time>2012-06-13T07:33:16.000Z</time>
      </trkpt>
      <trkpt lat="44.05274" lon="4.62905">
        <ele>203.7</ele>
        <time>2012-06-13T07:33:17.000Z</time>
      </trkpt>
      <trkpt lat="44.05279" lon="4.62911">
        <ele>203.5</ele>
        <time>2012-06-13T07:33:18.000Z</time>
      </trkpt>
      <trkpt lat="44.05284" lon="4.62917">
        <ele>203.2</ele>
        <time>2012-06-13T07:33:19.000Z</time>
      </trkpt>
      <trkpt lat="44.0529" lon="4.62922">
        <ele>202.6</ele>
        <time>2012-06-13T07:33:20.000Z</time>
      </trkpt>
      <trkpt lat="44.05295" lon="4.6293">
        <ele>201.2</ele>
        <time>2012-06-13T07:33:21.000Z</time>
      </trkpt>
      <trkpt lat="44.05299" lon="4.62938">
        <ele>201</ele>
        <time>2012-06-13T07:33:22.000Z</time>
      </trkpt>
      <trkpt lat="44.05304" lon="4.62944">
        <ele>200.6</ele>
        <time>2012-06-13T07:33:23.000Z</time>
      </trkpt>
      <trkpt lat="44.0531" lon="4.62951">
        <ele>199.7</ele>
        <time>2012-06-13T07:33:24.000Z</time>
      </trkpt>
      <trkpt lat="44.05315" lon="4.62959">
        <ele>199.4</ele>
        <time>2012-06-13T07:33:25.000Z</time>
      </trkpt>
      <trkpt lat="44.0532" lon="4.62968">
        <ele>198.8</ele>
        <time>2012-06-13T07:33:26.000Z</time>
      </trkpt>
      <trkpt lat="44.05325" lon="4.62976">
        <ele>198.1</ele>
        <time>2012-06-13T07:33:27.000Z</time>
      </trkpt>
      <trkpt lat="44.0533" lon="4.62985">
        <ele>198.6</ele>
        <time>2012-06-13T07:33:28.000Z</time>
      </trkpt>
      <trkpt lat="44.05335" lon="4.62994">
        <ele>197.6</ele>
        <time>2012-06-13T07:33:29.000Z</time>
      </trkpt>
      <trkpt lat="44.0534" lon="4.63002">
        <ele>197.5</ele>
        <time>2012-06-13T07:33:30.000Z</time>
      </trkpt>
      <trkpt lat="44.05346" lon="4.63011">
        <ele>197.2</ele>
        <time>2012-06-13T07:33:31.000Z</time>
      </trkpt>
      <trkpt lat="44.05351" lon="4.6302">
        <ele>197.2</ele>
        <time>2012-06-13T07:33:32.000Z</time>
      </trkpt>
      <trkpt lat="44.05358" lon="4.63028">
        <ele>196.7</ele>
        <time>2012-06-13T07:33:33.000Z</time>
      </trkpt>
      <trkpt lat="44.05364" lon="4.63036">
        <ele>196.7</ele>
        <time>2012-06-13T07:33:34.000Z</time>
      </trkpt>
      <trkpt lat="44.0537" lon="4.63043">
        <ele>196.9</ele>
        <time>2012-06-13T07:33:35.000Z</time>
      </trkpt>
      <trkpt lat="44.05377" lon="4.6305">
        <ele>196.6</ele>
        <time>2012-06-13T07:33:36.000Z</time>
      </trkpt>
      <trkpt lat="44.05384" lon="4.63054">
        <ele>196.3</ele>
        <time>2012-06-13T07:33:37.000Z</time>
      </trkpt>
      <trkpt lat="44.05392" lon="4.63058">
        <ele>196.7</ele>
        <time>2012-06-13T07:33:38.000Z</time>
      </trkpt>
      <trkpt lat="44.05399" lon="4.63064">
        <ele>196.8</ele>
        <time>2012-06-13T07:33:39.000Z</time>
      </trkpt>
      <trkpt lat="44.05406" lon="4.63069">
        <ele>196.7</ele>
        <time>2012-06-13T07:33:40.000Z</time>
      </trkpt>
      <trkpt lat="44.05413" lon="4.63074">
        <ele>196.9</ele>
        <time>2012-06-13T07:33:41.000Z</time>
      </trkpt>
      <trkpt lat="44.0542" lon="4.63079">
        <ele>196.5</ele>
        <time>2012-06-13T07:33:42.000Z</time>
      </trkpt>
      <trkpt lat="44.05428" lon="4.63081">
        <ele>196.3</ele>
        <time>2012-06-13T07:33:43.000Z</time>
      </trkpt>
      <trkpt lat="44.05434" lon="4.63085">
        <ele>196.1</ele>
        <time>2012-06-13T07:33:44.000Z</time>
      </trkpt>
      <trkpt lat="44.05441" lon="4.63091">
        <ele>196.5</ele>
        <time>2012-06-13T07:33:45.000Z</time>
      </trkpt>
      <trkpt lat="44.05447" lon="4.63097">
        <ele>196.2</ele>
        <time>2012-06-13T07:33:46.000Z</time>
      </trkpt>
      <trkpt lat="44.05454" lon="4.63104">
        <ele>196</ele>
        <time>2012-06-13T07:33:47.000Z</time>
      </trkpt>
      <trkpt lat="44.05458" lon="4.63114">
        <ele>195.9</ele>
        <time>2012-06-13T07:33:48.000Z</time>
      </trkpt>
      <trkpt lat="44.05465" lon="4.63122">
        <ele>195.5</ele>
        <time>2012-06-13T07:33:49.000Z</time>
      </trkpt>
      <trkpt lat="44.05468" lon="4.6313">
        <ele>195.4</ele>
        <time>2012-06-13T07:33:50.000Z</time>
      </trkpt>
      <trkpt lat="44.05469" lon="4.6314">
        <ele>195.2</ele>
        <time>2012-06-13T07:33:51.000Z</time>
      </trkpt>
      <trkpt lat="44.05469" lon="4.63149">
        <ele>195</ele>
        <time>2012-06-13T07:33:52.000Z</time>
      </trkpt>
      <trkpt lat="44.0547" lon="4.63158">
        <ele>194.8</ele>
        <time>2012-06-13T07:33:53.000Z</time>
      </trkpt>
      <trkpt lat="44.05471" lon="4.63169">
        <ele>194.9</ele>
        <time>2012-06-13T07:33:54.000Z</time>
      </trkpt>
      <trkpt lat="44.05472" lon="4.63177">
        <ele>194.5</ele>
        <time>2012-06-13T07:33:55.000Z</time>
      </trkpt>
      <trkpt lat="44.05473" lon="4.63188">
        <ele>194.8</ele>
        <time>2012-06-13T07:33:56.000Z</time>
      </trkpt>
      <trkpt lat="44.05473" lon="4.63199">
        <ele>194.2</ele>
        <time>2012-06-13T07:33:57.000Z</time>
      </trkpt>
      <trkpt lat="44.05474" lon="4.63209">
        <ele>193.3</ele>
        <time>2012-06-13T07:33:58.000Z</time>
      </trkpt>
      <trkpt lat="44.05474" lon="4.63218">
        <ele>193.1</ele>
        <time>2012-06-13T07:33:59.000Z</time>
      </trkpt>
      <trkpt lat="44.05474" lon="4.63228">
        <ele>192.9</ele>
        <time>2012-06-13T07:34:00.000Z</time>
      </trkpt>
      <trkpt lat="44.05475" lon="4.63237">
        <ele>192.7</ele>
        <time>2012-06-13T07:34:01.000Z</time>
      </trkpt>
      <trkpt lat="44.05475" lon="4.63246">
        <ele>192.3</ele>
        <time>2012-06-13T07:34:02.000Z</time>
      </trkpt>
      <trkpt lat="44.05474" lon="4.63256">
        <ele>191.7</ele>
        <time>2012-06-13T07:34:03.000Z</time>
      </trkpt>
      <trkpt lat="44.05474" lon="4.63265">
        <ele>191.7</ele>
        <time>2012-06-13T07:34:04.000Z</time>
      </trkpt>
      <trkpt lat="44.05475" lon="4.63273">
        <ele>191.9</ele>
        <time>2012-06-13T07:34:05.000Z</time>
      </trkpt>
      <trkpt lat="44.05475" lon="4.63282">
        <ele>191.7</ele>
        <time>2012-06-13T07:34:06.000Z</time>
      </trkpt>
      <trkpt lat="44.05475" lon="4.63291">
        <ele>191.5</ele>
        <time>2012-06-13T07:34:07.000Z</time>
      </trkpt>
      <trkpt lat="44.05474" lon="4.63301">
        <ele>191.4</ele>
        <time>2012-06-13T07:34:08.000Z</time>
      </trkpt>
      <trkpt lat="44.05475" lon="4.6331">
        <ele>191</ele>
        <time>2012-06-13T07:34:09.000Z</time>
      </trkpt>
      <trkpt lat="44.05475" lon="4.63319">
        <ele>191</ele>
        <time>2012-06-13T07:34:10.000Z</time>
      </trkpt>
      <trkpt lat="44.05476" lon="4.63328">
        <ele>190.9</ele>
        <time>2012-06-13T07:34:11.000Z</time>
      </trkpt>
      <trkpt lat="44.05478" lon="4.63337">
        <ele>190.9</ele>
        <time>2012-06-13T07:34:12.000Z</time>
      </trkpt>
      <trkpt lat="44.05481" lon="4.63346">
        <ele>191</ele>
        <time>2012-06-13T07:34:13.000Z</time>
      </trkpt>
      <trkpt lat="44.05489" lon="4.63352">
        <ele>191.9</ele>
        <time>2012-06-13T07:34:14.000Z</time>
      </trkpt>
      <trkpt lat="44.05492" lon="4.6336">
        <ele>191.5</ele>
        <time>2012-06-13T07:34:15.000Z</time>
      </trkpt>
      <trkpt lat="44.05497" lon="4.63366">
        <ele>191.4</ele>
        <time>2012-06-13T07:34:16.000Z</time>
      </trkpt>
      <trkpt lat="44.05501" lon="4.6337">
        <ele>190.6</ele>
        <time>2012-06-13T07:34:17.000Z</time>
      </trkpt>
      <trkpt lat="44.05509" lon="4.63372">
        <ele>190.3</ele>
        <time>2012-06-13T07:34:18.000Z</time>
      </trkpt>
      <trkpt lat="44.05514" lon="4.63375">
        <ele>189.8</ele>
        <time>2012-06-13T07:34:19.000Z</time>
      </trkpt>
      <trkpt lat="44.05522" lon="4.63378">
        <ele>188.6</ele>
        <time>2012-06-13T07:34:20.000Z</time>
      </trkpt>
      <trkpt lat="44.05527" lon="4.63381">
        <ele>188.4</ele>
        <time>2012-06-13T07:34:21.000Z</time>
      </trkpt>
      <trkpt lat="44.05532" lon="4.63383">
        <ele>188.5</ele>
        <time>2012-06-13T07:34:22.000Z</time>
      </trkpt>
      <trkpt lat="44.05538" lon="4.63386">
        <ele>188.1</ele>
        <time>2012-06-13T07:34:23.000Z</time>
      </trkpt>
      <trkpt lat="44.05543" lon="4.6339">
        <ele>188.2</ele>
        <time>2012-06-13T07:34:24.000Z</time>
      </trkpt>
      <trkpt lat="44.0555" lon="4.63393">
        <ele>186.8</ele>
        <time>2012-06-13T07:34:25.000Z</time>
      </trkpt>
      <trkpt lat="44.05555" lon="4.63396">
        <ele>186.3</ele>
        <time>2012-06-13T07:34:26.000Z</time>
      </trkpt>
      <trkpt lat="44.0556" lon="4.634">
        <ele>186.4</ele>
        <time>2012-06-13T07:34:27.000Z</time>
      </trkpt>
      <trkpt lat="44.05564" lon="4.63403">
        <ele>185.9</ele>
        <time>2012-06-13T07:34:28.000Z</time>
      </trkpt>
      <trkpt lat="44.05569" lon="4.63406">
        <ele>186.1</ele>
        <time>2012-06-13T07:34:29.000Z</time>
      </trkpt>
      <trkpt lat="44.05574" lon="4.63409">
        <ele>186.1</ele>
        <time>2012-06-13T07:34:30.000Z</time>
      </trkpt>
      <trkpt lat="44.05578" lon="4.63413">
        <ele>186</ele>
        <time>2012-06-13T07:34:31.000Z</time>
      </trkpt>
      <trkpt lat="44.05585" lon="4.63415">
        <ele>186</ele>
        <time>2012-06-13T07:34:32.000Z</time>
      </trkpt>
      <trkpt lat="44.05589" lon="4.63417">
        <ele>185.7</ele>
        <time>2012-06-13T07:34:33.000Z</time>
      </trkpt>
      <trkpt lat="44.05595" lon="4.63419">
        <ele>185.6</ele>
        <time>2012-06-13T07:34:34.000Z</time>
      </trkpt>
      <trkpt lat="44.05601" lon="4.63422">
        <ele>185.5</ele>
        <time>2012-06-13T07:34:35.000Z</time>
      </trkpt>
      <trkpt lat="44.05606" lon="4.63423">
        <ele>185.2</ele>
        <time>2012-06-13T07:34:36.000Z</time>
      </trkpt>
      <trkpt lat="44.05613" lon="4.63425">
        <ele>185.4</ele>
        <time>2012-06-13T07:34:37.000Z</time>
      </trkpt>
      <trkpt lat="44.05619" lon="4.63427">
        <ele>185</ele>
        <time>2012-06-13T07:34:38.000Z</time>
      </trkpt>
      <trkpt lat="44.05625" lon="4.63428">
        <ele>184.8</ele>
        <time>2012-06-13T07:34:39.000Z</time>
      </trkpt>
      <trkpt lat="44.05631" lon="4.63429">
        <ele>184.9</ele>
        <time>2012-06-13T07:34:40.000Z</time>
      </trkpt>
      <trkpt lat="44.05636" lon="4.63429">
        <ele>184.8</ele>
        <time>2012-06-13T07:34:41.000Z</time>
      </trkpt>
      <trkpt lat="44.05641" lon="4.63431">
        <ele>184.5</ele>
        <time>2012-06-13T07:34:42.000Z</time>
      </trkpt>
      <trkpt lat="44.05647" lon="4.63432">
        <ele>184</ele>
        <time>2012-06-13T07:34:43.000Z</time>
      </trkpt>
      <trkpt lat="44.05654" lon="4.63434">
        <ele>183.9</ele>
        <time>2012-06-13T07:34:44.000Z</time>
      </trkpt>
      <trkpt lat="44.0566" lon="4.63437">
        <ele>183.7</ele>
        <time>2012-06-13T07:34:45.000Z</time>
      </trkpt>
      <trkpt lat="44.05666" lon="4.63442">
        <ele>183.8</ele>
        <time>2012-06-13T07:34:46.000Z</time>
      </trkpt>
      <trkpt lat="44.0567" lon="4.6345">
        <ele>183.7</ele>
        <time>2012-06-13T07:34:47.000Z</time>
      </trkpt>
      <trkpt lat="44.05674" lon="4.63458">
        <ele>183.6</ele>
        <time>2012-06-13T07:34:48.000Z</time>
      </trkpt>
      <trkpt lat="44.05678" lon="4.63466">
        <ele>183.2</ele>
        <time>2012-06-13T07:34:49.000Z</time>
      </trkpt>
      <trkpt lat="44.05682" lon="4.63473">
        <ele>183.2</ele>
        <time>2012-06-13T07:34:50.000Z</time>
      </trkpt>
      <trkpt lat="44.05682" lon="4.63483">
        <ele>183.5</ele>
        <time>2012-06-13T07:34:51.000Z</time>
      </trkpt>
      <trkpt lat="44.05684" lon="4.6349">
        <ele>182.9</ele>
        <time>2012-06-13T07:34:52.000Z</time>
      </trkpt>
      <trkpt lat="44.05687" lon="4.63498">
        <ele>183.7</ele>
        <time>2012-06-13T07:34:53.000Z</time>
      </trkpt>
      <trkpt lat="44.05681" lon="4.63512">
        <ele>183.5</ele>
        <time>2012-06-13T07:34:54.000Z</time>
      </trkpt>
      <trkpt lat="44.0568" lon="4.63521">
        <ele>183.6</ele>
        <time>2012-06-13T07:34:55.000Z</time>
      </trkpt>
      <trkpt lat="44.05677" lon="4.63532">
        <ele>183.7</ele>
        <time>2012-06-13T07:34:56.000Z</time>
      </trkpt>
      <trkpt lat="44.05675" lon="4.63539">
        <ele>182.3</ele>
        <time>2012-06-13T07:34:57.000Z</time>
      </trkpt>
      <trkpt lat="44.05672" lon="4.63546">
        <ele>181</ele>
        <time>2012-06-13T07:34:58.000Z</time>
      </trkpt>
      <trkpt lat="44.0567" lon="4.63554">
        <ele>181</ele>
        <time>2012-06-13T07:34:59.000Z</time>
      </trkpt>
      <trkpt lat="44.05668" lon="4.63561">
        <ele>181.1</ele>
        <time>2012-06-13T07:35:00.000Z</time>
      </trkpt>
      <trkpt lat="44.05665" lon="4.63568">
        <ele>180.9</ele>
        <time>2012-06-13T07:35:01.000Z</time>
      </trkpt>
      <trkpt lat="44.05662" lon="4.63576">
        <ele>180.8</ele>
        <time>2012-06-13T07:35:02.000Z</time>
      </trkpt>
      <trkpt lat="44.05662" lon="4.63583">
        <ele>180.7</ele>
        <time>2012-06-13T07:35:03.000Z</time>
      </trkpt>
      <trkpt lat="44.05663" lon="4.63597">
        <ele>181</ele>
        <time>2012-06-13T07:35:05.000Z</time>
      </trkpt>
      <trkpt lat="44.05663" lon="4.63605">
        <ele>181.2</ele>
        <time>2012-06-13T07:35:06.000Z</time>
      </trkpt>
      <trkpt lat="44.05663" lon="4.63613">
        <ele>180.8</ele>
        <time>2012-06-13T07:35:07.000Z</time>
      </trkpt>
      <trkpt lat="44.05662" lon="4.6362">
        <ele>181</ele>
        <time>2012-06-13T07:35:08.000Z</time>
      </trkpt>
      <trkpt lat="44.05664" lon="4.63627">
        <ele>180.7</ele>
        <time>2012-06-13T07:35:09.000Z</time>
      </trkpt>
      <trkpt lat="44.05666" lon="4.63633">
        <ele>180.7</ele>
        <time>2012-06-13T07:35:10.000Z</time>
      </trkpt>
      <trkpt lat="44.05672" lon="4.63635">
        <ele>180.3</ele>
        <time>2012-06-13T07:35:11.000Z</time>
      </trkpt>
      <trkpt lat="44.05679" lon="4.63642">
        <ele>180</ele>
        <time>2012-06-13T07:35:13.000Z</time>
      </trkpt>
      <trkpt lat="44.05685" lon="4.63647">
        <ele>180</ele>
        <time>2012-06-13T07:35:15.000Z</time>
      </trkpt>
      <trkpt lat="44.05692" lon="4.63651">
        <ele>179.2</ele>
        <time>2012-06-13T07:35:17.000Z</time>
      </trkpt>
      <trkpt lat="44.05699" lon="4.63652">
        <ele>179.4</ele>
        <time>2012-06-13T07:35:19.000Z</time>
      </trkpt>
      <trkpt lat="44.05707" lon="4.63646">
        <ele>178.4</ele>
        <time>2012-06-13T07:35:21.000Z</time>
      </trkpt>
      <trkpt lat="44.05713" lon="4.6364">
        <ele>178.2</ele>
        <time>2012-06-13T07:35:23.000Z</time>
      </trkpt>
      <trkpt lat="44.05716" lon="4.63633">
        <ele>177.6</ele>
        <time>2012-06-13T07:35:25.000Z</time>
      </trkpt>
      <trkpt lat="44.05722" lon="4.6363">
        <ele>177.1</ele>
        <time>2012-06-13T07:35:27.000Z</time>
      </trkpt>
      <trkpt lat="44.05727" lon="4.63628">
        <ele>177.6</ele>
        <time>2012-06-13T07:35:29.000Z</time>
      </trkpt>
      <trkpt lat="44.05732" lon="4.63627">
        <ele>177.2</ele>
        <time>2012-06-13T07:35:30.000Z</time>
      </trkpt>
      <trkpt lat="44.05738" lon="4.63629">
        <ele>176.4</ele>
        <time>2012-06-13T07:35:32.000Z</time>
      </trkpt>
      <trkpt lat="44.05742" lon="4.63635">
        <ele>175.8</ele>
        <time>2012-06-13T07:35:35.000Z</time>
      </trkpt>
      <trkpt lat="44.05744" lon="4.63641">
        <ele>170.6</ele>
        <time>2012-06-13T07:35:56.000Z</time>
      </trkpt>
      <trkpt lat="44.0574" lon="4.63646">
        <ele>172.4</ele>
        <time>2012-06-13T07:36:21.000Z</time>
      </trkpt>
      <trkpt lat="44.05736" lon="4.63652">
        <ele>171</ele>
        <time>2012-06-13T07:36:24.000Z</time>
      </trkpt>
      <trkpt lat="44.05741" lon="4.63651">
        <ele>169.3</ele>
        <time>2012-06-13T07:36:26.000Z</time>
      </trkpt>
      <trkpt lat="44.05738" lon="4.63646">
        <ele>168.3</ele>
        <time>2012-06-13T07:36:29.000Z</time>
      </trkpt>
      <trkpt lat="44.05734" lon="4.63642">
        <ele>167.6</ele>
        <time>2012-06-13T07:36:31.000Z</time>
      </trkpt>
      <trkpt lat="44.05728" lon="4.63641">
        <ele>168.3</ele>
        <time>2012-06-13T07:36:33.000Z</time>
      </trkpt>
      <trkpt lat="44.05718" lon="4.63641">
        <ele>170.7</ele>
        <time>2012-06-13T07:36:36.000Z</time>
      </trkpt>
      <trkpt lat="44.05713" lon="4.63639">
        <ele>172.3</ele>
        <time>2012-06-13T07:36:41.000Z</time>
      </trkpt>
      <trkpt lat="44.05719" lon="4.63639">
        <ele>173.9</ele>
        <time>2012-06-13T07:37:16.000Z</time>
      </trkpt>
      <trkpt lat="44.05725" lon="4.63637">
        <ele>170.2</ele>
        <time>2012-06-13T07:37:30.000Z</time>
      </trkpt>
      <trkpt lat="44.0573" lon="4.63637">
        <ele>170.1</ele>
        <time>2012-06-13T07:37:34.000Z</time>
      </trkpt>
      <trkpt lat="44.05735" lon="4.63634">
        <ele>170.7</ele>
        <time>2012-06-13T07:37:37.000Z</time>
      </trkpt>
      <trkpt lat="44.05739" lon="4.63638">
        <ele>169.7</ele>
        <time>2012-06-13T07:37:41.000Z</time>
      </trkpt>
      <trkpt lat="44.05744" lon="4.63642">
        <ele>166.3</ele>
        <time>2012-06-13T07:38:30.000Z</time>
      </trkpt>
      <trkpt lat="44.05748" lon="4.63645">
        <ele>162.7</ele>
        <time>2012-06-13T07:38:35.000Z</time>
      </trkpt>
      <trkpt lat="44.05746" lon="4.63638">
        <ele>162.4</ele>
        <time>2012-06-13T07:38:41.000Z</time>
      </trkpt>
      <trkpt lat="44.05741" lon="4.6364">
        <ele>164.1</ele>
        <time>2012-06-13T07:38:50.000Z</time>
      </trkpt>
      <trkpt lat="44.05737" lon="4.63644">
        <ele>167.9</ele>
        <time>2012-06-13T07:40:46.000Z</time>
      </trkpt>
      <trkpt lat="44.05738" lon="4.63638">
        <ele>167.6</ele>
        <time>2012-06-13T07:40:50.000Z</time>
      </trkpt>
      <trkpt lat="44.05732" lon="4.63642">
        <ele>167.9</ele>
        <time>2012-06-13T07:40:56.000Z</time>
      </trkpt>
      <trkpt lat="44.05738" lon="4.63639">
        <ele>167.8</ele>
        <time>2012-06-13T07:41:15.000Z</time>
      </trkpt>
      <trkpt lat="44.05741" lon="4.63636">
        <ele>164.6</ele>
        <time>2012-06-13T07:41:21.000Z</time>
      </trkpt>
      <trkpt lat="44.05746" lon="4.63636">
        <ele>163.5</ele>
        <time>2012-06-13T07:42:00.000Z</time>
      </trkpt>
      <trkpt lat="44.05746" lon="4.6363">
        <ele>163</ele>
        <time>2012-06-13T07:42:46.000Z</time>
      </trkpt>
      <trkpt lat="44.05741" lon="4.63627">
        <ele>166.8</ele>
        <time>2012-06-13T07:43:28.000Z</time>
      </trkpt>
      <trkpt lat="44.05743" lon="4.63633">
        <ele>171.7</ele>
        <time>2012-06-13T07:43:47.000Z</time>
      </trkpt>
      <trkpt lat="44.05743" lon="4.6364">
        <ele>168.5</ele>
        <time>2012-06-13T07:44:58.000Z</time>
      </trkpt>
      <trkpt lat="44.05742" lon="4.63634">
        <ele>168</ele>
        <time>2012-06-13T07:45:10.000Z</time>
      </trkpt>
      <trkpt lat="44.05738" lon="4.6363">
        <ele>168</ele>
        <time>2012-06-13T07:45:24.000Z</time>
      </trkpt>
      <trkpt lat="44.05733" lon="4.63632">
        <ele>167.8</ele>
        <time>2012-06-13T07:45:27.000Z</time>
      </trkpt>
      <trkpt lat="44.05728" lon="4.63631">
        <ele>167.1</ele>
        <time>2012-06-13T07:45:29.000Z</time>
      </trkpt>
      <trkpt lat="44.05722" lon="4.63629">
        <ele>168.7</ele>
        <time>2012-06-13T07:45:32.000Z</time>
      </trkpt>
      <trkpt lat="44.05716" lon="4.6363">
        <ele>168.4</ele>
        <time>2012-06-13T07:45:35.000Z</time>
      </trkpt>
      <trkpt lat="44.05712" lon="4.63634">
        <ele>169.5</ele>
        <time>2012-06-13T07:45:37.000Z</time>
      </trkpt>
      <trkpt lat="44.05708" lon="4.63638">
        <ele>170.4</ele>
        <time>2012-06-13T07:45:39.000Z</time>
      </trkpt>
      <trkpt lat="44.05707" lon="4.63644">
        <ele>170.9</ele>
        <time>2012-06-13T07:45:41.000Z</time>
      </trkpt>
      <trkpt lat="44.05708" lon="4.63651">
        <ele>170.4</ele>
        <time>2012-06-13T07:45:43.000Z</time>
      </trkpt>
      <trkpt lat="44.0571" lon="4.63659">
        <ele>170</ele>
        <time>2012-06-13T07:45:45.000Z</time>
      </trkpt>
      <trkpt lat="44.05714" lon="4.63666">
        <ele>169.8</ele>
        <time>2012-06-13T07:45:47.000Z</time>
      </trkpt>
      <trkpt lat="44.0572" lon="4.63672">
        <ele>169.7</ele>
        <time>2012-06-13T07:45:49.000Z</time>
      </trkpt>
      <trkpt lat="44.05728" lon="4.63678">
        <ele>169.9</ele>
        <time>2012-06-13T07:45:51.000Z</time>
      </trkpt>
      <trkpt lat="44.05733" lon="4.63681">
        <ele>170.1</ele>
        <time>2012-06-13T07:45:52.000Z</time>
      </trkpt>
      <trkpt lat="44.05738" lon="4.63685">
        <ele>170.5</ele>
        <time>2012-06-13T07:45:53.000Z</time>
      </trkpt>
      <trkpt lat="44.05746" lon="4.63692">
        <ele>171</ele>
        <time>2012-06-13T07:45:55.000Z</time>
      </trkpt>
      <trkpt lat="44.0575" lon="4.63697">
        <ele>171.2</ele>
        <time>2012-06-13T07:45:56.000Z</time>
      </trkpt>
      <trkpt lat="44.05755" lon="4.63701">
        <ele>171</ele>
        <time>2012-06-13T07:45:57.000Z</time>
      </trkpt>
      <trkpt lat="44.05761" lon="4.63704">
        <ele>171.1</ele>
        <time>2012-06-13T07:45:58.000Z</time>
      </trkpt>
      <trkpt lat="44.05765" lon="4.63707">
        <ele>171</ele>
        <time>2012-06-13T07:45:59.000Z</time>
      </trkpt>
      <trkpt lat="44.05769" lon="4.6371">
        <ele>170.9</ele>
        <time>2012-06-13T07:46:00.000Z</time>
      </trkpt>
      <trkpt lat="44.05777" lon="4.63715">
        <ele>171.2</ele>
        <time>2012-06-13T07:46:02.000Z</time>
      </trkpt>
      <trkpt lat="44.05781" lon="4.63718">
        <ele>171.3</ele>
        <time>2012-06-13T07:46:03.000Z</time>
      </trkpt>
      <trkpt lat="44.05788" lon="4.63721">
        <ele>171.5</ele>
        <time>2012-06-13T07:46:05.000Z</time>
      </trkpt>
      <trkpt lat="44.05795" lon="4.63722">
        <ele>171.2</ele>
        <time>2012-06-13T07:46:07.000Z</time>
      </trkpt>
      <trkpt lat="44.05804" lon="4.63722">
        <ele>171.1</ele>
        <time>2012-06-13T07:46:09.000Z</time>
      </trkpt>
      <trkpt lat="44.05811" lon="4.63723">
        <ele>171.1</ele>
        <time>2012-06-13T07:46:11.000Z</time>
      </trkpt>
      <trkpt lat="44.05819" lon="4.63722">
        <ele>171.2</ele>
        <time>2012-06-13T07:46:13.000Z</time>
      </trkpt>
      <trkpt lat="44.05824" lon="4.63722">
        <ele>171.2</ele>
        <time>2012-06-13T07:46:14.000Z</time>
      </trkpt>
      <trkpt lat="44.05832" lon="4.63721">
        <ele>170.7</ele>
        <time>2012-06-13T07:46:16.000Z</time>
      </trkpt>
      <trkpt lat="44.05838" lon="4.63723">
        <ele>170.8</ele>
        <time>2012-06-13T07:46:17.000Z</time>
      </trkpt>
      <trkpt lat="44.05844" lon="4.63724">
        <ele>170.2</ele>
        <time>2012-06-13T07:46:18.000Z</time>
      </trkpt>
      <trkpt lat="44.05848" lon="4.63725">
        <ele>170.6</ele>
        <time>2012-06-13T07:46:19.000Z</time>
      </trkpt>
      <trkpt lat="44.05856" lon="4.63727">
        <ele>170.7</ele>
        <time>2012-06-13T07:46:21.000Z</time>
      </trkpt>
      <trkpt lat="44.05861" lon="4.63729">
        <ele>171.2</ele>
        <time>2012-06-13T07:46:22.000Z</time>
      </trkpt>
      <trkpt lat="44.05868" lon="4.6373">
        <ele>171.8</ele>
        <time>2012-06-13T07:46:24.000Z</time>
      </trkpt>
      <trkpt lat="44.05875" lon="4.63729">
        <ele>171.9</ele>
        <time>2012-06-13T07:46:26.000Z</time>
      </trkpt>
      <trkpt lat="44.05884" lon="4.63728">
        <ele>171.7</ele>
        <time>2012-06-13T07:46:28.000Z</time>
      </trkpt>
      <trkpt lat="44.05892" lon="4.63728">
        <ele>171.8</ele>
        <time>2012-06-13T07:46:30.000Z</time>
      </trkpt>
      <trkpt lat="44.059" lon="4.63729">
        <ele>171.8</ele>
        <time>2012-06-13T07:46:33.000Z</time>
      </trkpt>
      <trkpt lat="44.05908" lon="4.63731">
        <ele>171</ele>
        <time>2012-06-13T07:46:35.000Z</time>
      </trkpt>
      <trkpt lat="44.05912" lon="4.63734">
        <ele>171</ele>
        <time>2012-06-13T07:46:36.000Z</time>
      </trkpt>
      <trkpt lat="44.05919" lon="4.63738">
        <ele>171.2</ele>
        <time>2012-06-13T07:46:38.000Z</time>
      </trkpt>
      <trkpt lat="44.05927" lon="4.6374">
        <ele>171.8</ele>
        <time>2012-06-13T07:46:40.000Z</time>
      </trkpt>
      <trkpt lat="44.05934" lon="4.63744">
        <ele>172.8</ele>
        <time>2012-06-13T07:46:42.000Z</time>
      </trkpt>
      <trkpt lat="44.0594" lon="4.63748">
        <ele>172.6</ele>
        <time>2012-06-13T07:46:44.000Z</time>
      </trkpt>
      <trkpt lat="44.05945" lon="4.63751">
        <ele>172.6</ele>
        <time>2012-06-13T07:46:46.000Z</time>
      </trkpt>
      <trkpt lat="44.05951" lon="4.63756">
        <ele>172.4</ele>
        <time>2012-06-13T07:46:48.000Z</time>
      </trkpt>
      <trkpt lat="44.05956" lon="4.63764">
        <ele>172.6</ele>
        <time>2012-06-13T07:46:50.000Z</time>
      </trkpt>
      <trkpt lat="44.05963" lon="4.6377">
        <ele>173.6</ele>
        <time>2012-06-13T07:46:52.000Z</time>
      </trkpt>
      <trkpt lat="44.05966" lon="4.63775">
        <ele>173.9</ele>
        <time>2012-06-13T07:46:54.000Z</time>
      </trkpt>
      <trkpt lat="44.0597" lon="4.6378">
        <ele>175.1</ele>
        <time>2012-06-13T07:46:56.000Z</time>
      </trkpt>
      <trkpt lat="44.05977" lon="4.63786">
        <ele>174.6</ele>
        <time>2012-06-13T07:46:58.000Z</time>
      </trkpt>
      <trkpt lat="44.05982" lon="4.63791">
        <ele>174.7</ele>
        <time>2012-06-13T07:47:00.000Z</time>
      </trkpt>
      <trkpt lat="44.05986" lon="4.63798">
        <ele>174.9</ele>
        <time>2012-06-13T07:47:02.000Z</time>
      </trkpt>
      <trkpt lat="44.05989" lon="4.63803">
        <ele>175.4</ele>
        <time>2012-06-13T07:47:04.000Z</time>
      </trkpt>
      <trkpt lat="44.05994" lon="4.63809">
        <ele>175.5</ele>
        <time>2012-06-13T07:47:06.000Z</time>
      </trkpt>
      <trkpt lat="44.06" lon="4.63816">
        <ele>175.9</ele>
        <time>2012-06-13T07:47:08.000Z</time>
      </trkpt>
      <trkpt lat="44.06005" lon="4.63821">
        <ele>176</ele>
        <time>2012-06-13T07:47:10.000Z</time>
      </trkpt>
      <trkpt lat="44.06012" lon="4.63826">
        <ele>176</ele>
        <time>2012-06-13T07:47:12.000Z</time>
      </trkpt>
      <trkpt lat="44.06017" lon="4.63829">
        <ele>176.1</ele>
        <time>2012-06-13T07:47:13.000Z</time>
      </trkpt>
      <trkpt lat="44.06025" lon="4.63835">
        <ele>176.6</ele>
        <time>2012-06-13T07:47:15.000Z</time>
      </trkpt>
      <trkpt lat="44.06029" lon="4.6384">
        <ele>177.1</ele>
        <time>2012-06-13T07:47:16.000Z</time>
      </trkpt>
      <trkpt lat="44.06034" lon="4.63842">
        <ele>177.1</ele>
        <time>2012-06-13T07:47:17.000Z</time>
      </trkpt>
      <trkpt lat="44.06042" lon="4.63847">
        <ele>176.9</ele>
        <time>2012-06-13T07:47:19.000Z</time>
      </trkpt>
      <trkpt lat="44.06047" lon="4.63853">
        <ele>177.2</ele>
        <time>2012-06-13T07:47:21.000Z</time>
      </trkpt>
      <trkpt lat="44.06053" lon="4.63856">
        <ele>179</ele>
        <time>2012-06-13T07:47:23.000Z</time>
      </trkpt>
      <trkpt lat="44.0606" lon="4.63861">
        <ele>178.7</ele>
        <time>2012-06-13T07:47:25.000Z</time>
      </trkpt>
      <trkpt lat="44.06064" lon="4.63864">
        <ele>179.3</ele>
        <time>2012-06-13T07:47:26.000Z</time>
      </trkpt>
      <trkpt lat="44.06068" lon="4.6387">
        <ele>179.8</ele>
        <time>2012-06-13T07:47:28.000Z</time>
      </trkpt>
      <trkpt lat="44.06075" lon="4.63874">
        <ele>179.8</ele>
        <time>2012-06-13T07:47:29.000Z</time>
      </trkpt>
      <trkpt lat="44.0608" lon="4.63879">
        <ele>180</ele>
        <time>2012-06-13T07:47:30.000Z</time>
      </trkpt>
      <trkpt lat="44.06086" lon="4.63882">
        <ele>181.6</ele>
        <time>2012-06-13T07:47:31.000Z</time>
      </trkpt>
      <trkpt lat="44.0609" lon="4.63888">
        <ele>181.5</ele>
        <time>2012-06-13T07:47:32.000Z</time>
      </trkpt>
      <trkpt lat="44.06092" lon="4.63894">
        <ele>179.7</ele>
        <time>2012-06-13T07:47:33.000Z</time>
      </trkpt>
      <trkpt lat="44.06094" lon="4.63905">
        <ele>179.4</ele>
        <time>2012-06-13T07:47:35.000Z</time>
      </trkpt>
      <trkpt lat="44.06092" lon="4.63916">
        <ele>179.2</ele>
        <time>2012-06-13T07:47:37.000Z</time>
      </trkpt>
      <trkpt lat="44.06093" lon="4.63925">
        <ele>178.3</ele>
        <time>2012-06-13T07:47:39.000Z</time>
      </trkpt>
      <trkpt lat="44.06092" lon="4.63932">
        <ele>177.8</ele>
        <time>2012-06-13T07:47:40.000Z</time>
      </trkpt>
      <trkpt lat="44.06089" lon="4.63942">
        <ele>178.1</ele>
        <time>2012-06-13T07:47:42.000Z</time>
      </trkpt>
      <trkpt lat="44.06086" lon="4.63952">
        <ele>178.3</ele>
        <time>2012-06-13T07:47:44.000Z</time>
      </trkpt>
      <trkpt lat="44.06084" lon="4.63962">
        <ele>179.3</ele>
        <time>2012-06-13T07:47:46.000Z</time>
      </trkpt>
      <trkpt lat="44.06083" lon="4.63971">
        <ele>179.9</ele>
        <time>2012-06-13T07:47:48.000Z</time>
      </trkpt>
      <trkpt lat="44.06083" lon="4.63983">
        <ele>179.9</ele>
        <time>2012-06-13T07:47:50.000Z</time>
      </trkpt>
      <trkpt lat="44.0608" lon="4.6399">
        <ele>179.5</ele>
        <time>2012-06-13T07:47:52.000Z</time>
      </trkpt>
      <trkpt lat="44.06078" lon="4.64">
        <ele>180.6</ele>
        <time>2012-06-13T07:47:54.000Z</time>
      </trkpt>
      <trkpt lat="44.06078" lon="4.64007">
        <ele>181.7</ele>
        <time>2012-06-13T07:47:56.000Z</time>
      </trkpt>
      <trkpt lat="44.06078" lon="4.64015">
        <ele>182.6</ele>
        <time>2012-06-13T07:47:58.000Z</time>
      </trkpt>
      <trkpt lat="44.06076" lon="4.64025">
        <ele>181.8</ele>
        <time>2012-06-13T07:48:00.000Z</time>
      </trkpt>
      <trkpt lat="44.06081" lon="4.64028">
        <ele>181.2</ele>
        <time>2012-06-13T07:48:01.000Z</time>
      </trkpt>
      <trkpt lat="44.06081" lon="4.64038">
        <ele>181.8</ele>
        <time>2012-06-13T07:48:03.000Z</time>
      </trkpt>
      <trkpt lat="44.06079" lon="4.64045">
        <ele>180.7</ele>
        <time>2012-06-13T07:48:05.000Z</time>
      </trkpt>
      <trkpt lat="44.06079" lon="4.64053">
        <ele>181.3</ele>
        <time>2012-06-13T07:48:07.000Z</time>
      </trkpt>
      <trkpt lat="44.06078" lon="4.6406">
        <ele>181.2</ele>
        <time>2012-06-13T07:48:09.000Z</time>
      </trkpt>
      <trkpt lat="44.06084" lon="4.64068">
        <ele>181.7</ele>
        <time>2012-06-13T07:48:11.000Z</time>
      </trkpt>
      <trkpt lat="44.06086" lon="4.64076">
        <ele>181.2</ele>
        <time>2012-06-13T07:48:13.000Z</time>
      </trkpt>
      <trkpt lat="44.0609" lon="4.6408">
        <ele>181.1</ele>
        <time>2012-06-13T07:48:14.000Z</time>
      </trkpt>
      <trkpt lat="44.06093" lon="4.64088">
        <ele>181.4</ele>
        <time>2012-06-13T07:48:16.000Z</time>
      </trkpt>
      <trkpt lat="44.06096" lon="4.64096">
        <ele>182.6</ele>
        <time>2012-06-13T07:48:18.000Z</time>
      </trkpt>
      <trkpt lat="44.06097" lon="4.64106">
        <ele>183.7</ele>
        <time>2012-06-13T07:48:20.000Z</time>
      </trkpt>
      <trkpt lat="44.06095" lon="4.64116">
        <ele>183.9</ele>
        <time>2012-06-13T07:48:22.000Z</time>
      </trkpt>
      <trkpt lat="44.06095" lon="4.64124">
        <ele>182.9</ele>
        <time>2012-06-13T07:48:24.000Z</time>
      </trkpt>
      <trkpt lat="44.06096" lon="4.64133">
        <ele>183.2</ele>
        <time>2012-06-13T07:48:26.000Z</time>
      </trkpt>
      <trkpt lat="44.06094" lon="4.64138">
        <ele>183.1</ele>
        <time>2012-06-13T07:48:27.000Z</time>
      </trkpt>
      <trkpt lat="44.06092" lon="4.64146">
        <ele>183.7</ele>
        <time>2012-06-13T07:48:29.000Z</time>
      </trkpt>
      <trkpt lat="44.06094" lon="4.64154">
        <ele>183.6</ele>
        <time>2012-06-13T07:48:31.000Z</time>
      </trkpt>
      <trkpt lat="44.06093" lon="4.64163">
        <ele>184</ele>
        <time>2012-06-13T07:48:33.000Z</time>
      </trkpt>
      <trkpt lat="44.06088" lon="4.64173">
        <ele>183.9</ele>
        <time>2012-06-13T07:48:35.000Z</time>
      </trkpt>
      <trkpt lat="44.06086" lon="4.6418">
        <ele>184.3</ele>
        <time>2012-06-13T07:48:37.000Z</time>
      </trkpt>
      <trkpt lat="44.06086" lon="4.64188">
        <ele>184.2</ele>
        <time>2012-06-13T07:48:39.000Z</time>
      </trkpt>
      <trkpt lat="44.06088" lon="4.64193">
        <ele>185</ele>
        <time>2012-06-13T07:48:41.000Z</time>
      </trkpt>
      <trkpt lat="44.06086" lon="4.642">
        <ele>185.1</ele>
        <time>2012-06-13T07:48:43.000Z</time>
      </trkpt>
      <trkpt lat="44.06082" lon="4.64204">
        <ele>185.9</ele>
        <time>2012-06-13T07:48:44.000Z</time>
      </trkpt>
      <trkpt lat="44.06079" lon="4.64213">
        <ele>187.8</ele>
        <time>2012-06-13T07:48:46.000Z</time>
      </trkpt>
      <trkpt lat="44.06077" lon="4.64219">
        <ele>187.8</ele>
        <time>2012-06-13T07:48:48.000Z</time>
      </trkpt>
      <trkpt lat="44.06078" lon="4.64228">
        <ele>187.5</ele>
        <time>2012-06-13T07:48:51.000Z</time>
      </trkpt>
      <trkpt lat="44.06077" lon="4.64235">
        <ele>188.2</ele>
        <time>2012-06-13T07:48:53.000Z</time>
      </trkpt>
      <trkpt lat="44.06076" lon="4.64242">
        <ele>188</ele>
        <time>2012-06-13T07:48:55.000Z</time>
      </trkpt>
      <trkpt lat="44.06074" lon="4.64249">
        <ele>190.8</ele>
        <time>2012-06-13T07:48:57.000Z</time>
      </trkpt>
      <trkpt lat="44.06072" lon="4.64257">
        <ele>190.2</ele>
        <time>2012-06-13T07:48:59.000Z</time>
      </trkpt>
      <trkpt lat="44.06072" lon="4.64264">
        <ele>193.2</ele>
        <time>2012-06-13T07:49:01.000Z</time>
      </trkpt>
      <trkpt lat="44.06071" lon="4.64273">
        <ele>193.3</ele>
        <time>2012-06-13T07:49:03.000Z</time>
      </trkpt>
      <trkpt lat="44.06071" lon="4.6428">
        <ele>192.4</ele>
        <time>2012-06-13T07:49:05.000Z</time>
      </trkpt>
      <trkpt lat="44.06068" lon="4.64287">
        <ele>192.1</ele>
        <time>2012-06-13T07:49:08.000Z</time>
      </trkpt>
      <trkpt lat="44.06066" lon="4.64296">
        <ele>192.1</ele>
        <time>2012-06-13T07:49:11.000Z</time>
      </trkpt>
      <trkpt lat="44.06065" lon="4.64303">
        <ele>192</ele>
        <time>2012-06-13T07:49:13.000Z</time>
      </trkpt>
      <trkpt lat="44.06063" lon="4.6431">
        <ele>190.7</ele>
        <time>2012-06-13T07:49:15.000Z</time>
      </trkpt>
      <trkpt lat="44.06062" lon="4.64319">
        <ele>190.1</ele>
        <time>2012-06-13T07:49:17.000Z</time>
      </trkpt>
      <trkpt lat="44.0606" lon="4.64326">
        <ele>190.5</ele>
        <time>2012-06-13T07:49:19.000Z</time>
      </trkpt>
      <trkpt lat="44.0606" lon="4.64333">
        <ele>190.3</ele>
        <time>2012-06-13T07:49:21.000Z</time>
      </trkpt>
      <trkpt lat="44.06061" lon="4.64341">
        <ele>190.1</ele>
        <time>2012-06-13T07:49:23.000Z</time>
      </trkpt>
      <trkpt lat="44.06058" lon="4.64347">
        <ele>189.8</ele>
        <time>2012-06-13T07:49:24.000Z</time>
      </trkpt>
      <trkpt lat="44.06059" lon="4.64354">
        <ele>190.3</ele>
        <time>2012-06-13T07:49:26.000Z</time>
      </trkpt>
      <trkpt lat="44.06059" lon="4.64361">
        <ele>190.6</ele>
        <time>2012-06-13T07:49:28.000Z</time>
      </trkpt>
      <trkpt lat="44.06059" lon="4.64369">
        <ele>190.6</ele>
        <time>2012-06-13T07:49:30.000Z</time>
      </trkpt>
      <trkpt lat="44.06061" lon="4.64375">
        <ele>191.5</ele>
        <time>2012-06-13T07:49:32.000Z</time>
      </trkpt>
      <trkpt lat="44.06062" lon="4.64382">
        <ele>191.5</ele>
        <time>2012-06-13T07:49:34.000Z</time>
      </trkpt>
      <trkpt lat="44.06063" lon="4.64393">
        <ele>191.9</ele>
        <time>2012-06-13T07:49:37.000Z</time>
      </trkpt>
      <trkpt lat="44.06064" lon="4.64399">
        <ele>191.8</ele>
        <time>2012-06-13T07:49:39.000Z</time>
      </trkpt>
      <trkpt lat="44.06064" lon="4.64406">
        <ele>191.8</ele>
        <time>2012-06-13T07:49:41.000Z</time>
      </trkpt>
      <trkpt lat="44.06065" lon="4.64413">
        <ele>191.5</ele>
        <time>2012-06-13T07:49:43.000Z</time>
      </trkpt>
      <trkpt lat="44.06061" lon="4.64421">
        <ele>190.7</ele>
        <time>2012-06-13T07:49:44.000Z</time>
      </trkpt>
      <trkpt lat="44.06063" lon="4.64428">
        <ele>190.7</ele>
        <time>2012-06-13T07:49:46.000Z</time>
      </trkpt>
      <trkpt lat="44.06066" lon="4.64433">
        <ele>190.1</ele>
        <time>2012-06-13T07:49:49.000Z</time>
      </trkpt>
      <trkpt lat="44.0607" lon="4.64447">
        <ele>190.7</ele>
        <time>2012-06-13T07:49:51.000Z</time>
      </trkpt>
      <trkpt lat="44.06073" lon="4.64459">
        <ele>190.2</ele>
        <time>2012-06-13T07:49:53.000Z</time>
      </trkpt>
      <trkpt lat="44.06076" lon="4.64464">
        <ele>190.3</ele>
        <time>2012-06-13T07:49:54.000Z</time>
      </trkpt>
      <trkpt lat="44.06079" lon="4.6447">
        <ele>189.9</ele>
        <time>2012-06-13T07:49:55.000Z</time>
      </trkpt>
      <trkpt lat="44.06083" lon="4.64476">
        <ele>190.1</ele>
        <time>2012-06-13T07:49:57.000Z</time>
      </trkpt>
      <trkpt lat="44.06091" lon="4.64482">
        <ele>190.7</ele>
        <time>2012-06-13T07:49:59.000Z</time>
      </trkpt>
      <trkpt lat="44.06095" lon="4.64486">
        <ele>190.9</ele>
        <time>2012-06-13T07:50:00.000Z</time>
      </trkpt>
      <trkpt lat="44.06098" lon="4.64492">
        <ele>190.9</ele>
        <time>2012-06-13T07:50:01.000Z</time>
      </trkpt>
      <trkpt lat="44.06104" lon="4.64498">
        <ele>191.1</ele>
        <time>2012-06-13T07:50:02.000Z</time>
      </trkpt>
      <trkpt lat="44.0611" lon="4.64501">
        <ele>190.7</ele>
        <time>2012-06-13T07:50:03.000Z</time>
      </trkpt>
      <trkpt lat="44.06115" lon="4.64508">
        <ele>190.3</ele>
        <time>2012-06-13T07:50:04.000Z</time>
      </trkpt>
      <trkpt lat="44.06118" lon="4.64515">
        <ele>190.5</ele>
        <time>2012-06-13T07:50:05.000Z</time>
      </trkpt>
      <trkpt lat="44.06123" lon="4.64522">
        <ele>190.5</ele>
        <time>2012-06-13T07:50:06.000Z</time>
      </trkpt>
      <trkpt lat="44.06128" lon="4.64529">
        <ele>190.4</ele>
        <time>2012-06-13T07:50:07.000Z</time>
      </trkpt>
      <trkpt lat="44.06133" lon="4.64535">
        <ele>190.3</ele>
        <time>2012-06-13T07:50:08.000Z</time>
      </trkpt>
      <trkpt lat="44.06138" lon="4.64543">
        <ele>190</ele>
        <time>2012-06-13T07:50:09.000Z</time>
      </trkpt>
      <trkpt lat="44.06144" lon="4.64549">
        <ele>189.7</ele>
        <time>2012-06-13T07:50:10.000Z</time>
      </trkpt>
      <trkpt lat="44.06149" lon="4.64557">
        <ele>190.1</ele>
        <time>2012-06-13T07:50:11.000Z</time>
      </trkpt>
      <trkpt lat="44.06154" lon="4.64561">
        <ele>190</ele>
        <time>2012-06-13T07:50:12.000Z</time>
      </trkpt>
      <trkpt lat="44.06159" lon="4.64567">
        <ele>190.6</ele>
        <time>2012-06-13T07:50:13.000Z</time>
      </trkpt>
      <trkpt lat="44.06164" lon="4.64573">
        <ele>190.9</ele>
        <time>2012-06-13T07:50:14.000Z</time>
      </trkpt>
      <trkpt lat="44.06169" lon="4.6458">
        <ele>190.9</ele>
        <time>2012-06-13T07:50:15.000Z</time>
      </trkpt>
      <trkpt lat="44.06174" lon="4.64587">
        <ele>190.3</ele>
        <time>2012-06-13T07:50:16.000Z</time>
      </trkpt>
      <trkpt lat="44.06179" lon="4.64595">
        <ele>190.2</ele>
        <time>2012-06-13T07:50:17.000Z</time>
      </trkpt>
      <trkpt lat="44.06185" lon="4.64602">
        <ele>190.2</ele>
        <time>2012-06-13T07:50:18.000Z</time>
      </trkpt>
      <trkpt lat="44.06189" lon="4.64608">
        <ele>190.1</ele>
        <time>2012-06-13T07:50:19.000Z</time>
      </trkpt>
      <trkpt lat="44.06194" lon="4.64614">
        <ele>189.9</ele>
        <time>2012-06-13T07:50:20.000Z</time>
      </trkpt>
      <trkpt lat="44.06197" lon="4.6462">
        <ele>189.3</ele>
        <time>2012-06-13T07:50:21.000Z</time>
      </trkpt>
      <trkpt lat="44.06201" lon="4.64624">
        <ele>189.5</ele>
        <time>2012-06-13T07:50:22.000Z</time>
      </trkpt>
      <trkpt lat="44.06203" lon="4.64635">
        <ele>190.2</ele>
        <time>2012-06-13T07:50:24.000Z</time>
      </trkpt>
      <trkpt lat="44.06206" lon="4.64644">
        <ele>188.6</ele>
        <time>2012-06-13T07:50:26.000Z</time>
      </trkpt>
      <trkpt lat="44.06207" lon="4.64654">
        <ele>187.6</ele>
        <time>2012-06-13T07:50:29.000Z</time>
      </trkpt>
      <trkpt lat="44.0621" lon="4.64664">
        <ele>187.9</ele>
        <time>2012-06-13T07:50:31.000Z</time>
      </trkpt>
      <trkpt lat="44.06212" lon="4.64671">
        <ele>186.5</ele>
        <time>2012-06-13T07:50:32.000Z</time>
      </trkpt>
      <trkpt lat="44.06212" lon="4.64684">
        <ele>186</ele>
        <time>2012-06-13T07:50:34.000Z</time>
      </trkpt>
      <trkpt lat="44.06218" lon="4.64696">
        <ele>185.2</ele>
        <time>2012-06-13T07:50:36.000Z</time>
      </trkpt>
      <trkpt lat="44.06221" lon="4.64702">
        <ele>185</ele>
        <time>2012-06-13T07:50:37.000Z</time>
      </trkpt>
      <trkpt lat="44.06226" lon="4.64708">
        <ele>184.5</ele>
        <time>2012-06-13T07:50:38.000Z</time>
      </trkpt>
      <trkpt lat="44.06228" lon="4.64715">
        <ele>184.1</ele>
        <time>2012-06-13T07:50:39.000Z</time>
      </trkpt>
      <trkpt lat="44.06233" lon="4.64721">
        <ele>183.8</ele>
        <time>2012-06-13T07:50:40.000Z</time>
      </trkpt>
      <trkpt lat="44.06239" lon="4.64727">
        <ele>183.8</ele>
        <time>2012-06-13T07:50:41.000Z</time>
      </trkpt>
      <trkpt lat="44.0625" lon="4.64742">
        <ele>183.1</ele>
        <time>2012-06-13T07:50:43.000Z</time>
      </trkpt>
      <trkpt lat="44.06255" lon="4.6475">
        <ele>183.1</ele>
        <time>2012-06-13T07:50:44.000Z</time>
      </trkpt>
      <trkpt lat="44.06261" lon="4.64757">
        <ele>182.8</ele>
        <time>2012-06-13T07:50:45.000Z</time>
      </trkpt>
      <trkpt lat="44.06268" lon="4.64765">
        <ele>182.5</ele>
        <time>2012-06-13T07:50:46.000Z</time>
      </trkpt>
      <trkpt lat="44.06272" lon="4.64776">
        <ele>180.9</ele>
        <time>2012-06-13T07:50:47.000Z</time>
      </trkpt>
      <trkpt lat="44.06277" lon="4.64788">
        <ele>180.2</ele>
        <time>2012-06-13T07:50:48.000Z</time>
      </trkpt>
      <trkpt lat="44.0628" lon="4.64799">
        <ele>177.4</ele>
        <time>2012-06-13T07:50:49.000Z</time>
      </trkpt>
      <trkpt lat="44.06286" lon="4.64809">
        <ele>176.7</ele>
        <time>2012-06-13T07:50:50.000Z</time>
      </trkpt>
      <trkpt lat="44.0629" lon="4.6482">
        <ele>176.4</ele>
        <time>2012-06-13T07:50:51.000Z</time>
      </trkpt>
      <trkpt lat="44.06293" lon="4.64831">
        <ele>176</ele>
        <time>2012-06-13T07:50:52.000Z</time>
      </trkpt>
      <trkpt lat="44.06296" lon="4.64845">
        <ele>175.3</ele>
        <time>2012-06-13T07:50:53.000Z</time>
      </trkpt>
      <trkpt lat="44.06298" lon="4.64858">
        <ele>174.8</ele>
        <time>2012-06-13T07:50:54.000Z</time>
      </trkpt>
      <trkpt lat="44.063" lon="4.64872">
        <ele>174.2</ele>
        <time>2012-06-13T07:50:55.000Z</time>
      </trkpt>
      <trkpt lat="44.06302" lon="4.64885">
        <ele>174.1</ele>
        <time>2012-06-13T07:50:56.000Z</time>
      </trkpt>
      <trkpt lat="44.06303" lon="4.64899">
        <ele>174</ele>
        <time>2012-06-13T07:50:57.000Z</time>
      </trkpt>
      <trkpt lat="44.06303" lon="4.64913">
        <ele>173.6</ele>
        <time>2012-06-13T07:50:58.000Z</time>
      </trkpt>
      <trkpt lat="44.06304" lon="4.64926">
        <ele>173.5</ele>
        <time>2012-06-13T07:50:59.000Z</time>
      </trkpt>
      <trkpt lat="44.06304" lon="4.64939">
        <ele>173.4</ele>
        <time>2012-06-13T07:51:00.000Z</time>
      </trkpt>
      <trkpt lat="44.06304" lon="4.64952">
        <ele>172.4</ele>
        <time>2012-06-13T07:51:01.000Z</time>
      </trkpt>
      <trkpt lat="44.06302" lon="4.64964">
        <ele>171.8</ele>
        <time>2012-06-13T07:51:02.000Z</time>
      </trkpt>
      <trkpt lat="44.06303" lon="4.64978">
        <ele>171.5</ele>
        <time>2012-06-13T07:51:03.000Z</time>
      </trkpt>
      <trkpt lat="44.06305" lon="4.6499">
        <ele>171.5</ele>
        <time>2012-06-13T07:51:04.000Z</time>
      </trkpt>
      <trkpt lat="44.06304" lon="4.65002">
        <ele>171.3</ele>
        <time>2012-06-13T07:51:05.000Z</time>
      </trkpt>
      <trkpt lat="44.06307" lon="4.65011">
        <ele>171.6</ele>
        <time>2012-06-13T07:51:06.000Z</time>
      </trkpt>
      <trkpt lat="44.06307" lon="4.65022">
        <ele>171.3</ele>
        <time>2012-06-13T07:51:07.000Z</time>
      </trkpt>
      <trkpt lat="44.06308" lon="4.65032">
        <ele>171.2</ele>
        <time>2012-06-13T07:51:08.000Z</time>
      </trkpt>
      <trkpt lat="44.06308" lon="4.6504">
        <ele>171.2</ele>
        <time>2012-06-13T07:51:09.000Z</time>
      </trkpt>
      <trkpt lat="44.06308" lon="4.6505">
        <ele>171.1</ele>
        <time>2012-06-13T07:51:10.000Z</time>
      </trkpt>
      <trkpt lat="44.06306" lon="4.65059">
        <ele>171.1</ele>
        <time>2012-06-13T07:51:11.000Z</time>
      </trkpt>
      <trkpt lat="44.06306" lon="4.65067">
        <ele>171.5</ele>
        <time>2012-06-13T07:51:12.000Z</time>
      </trkpt>
      <trkpt lat="44.06305" lon="4.65075">
        <ele>171</ele>
        <time>2012-06-13T07:51:13.000Z</time>
      </trkpt>
      <trkpt lat="44.06304" lon="4.65083">
        <ele>171.1</ele>
        <time>2012-06-13T07:51:14.000Z</time>
      </trkpt>
      <trkpt lat="44.06304" lon="4.65091">
        <ele>171.2</ele>
        <time>2012-06-13T07:51:15.000Z</time>
      </trkpt>
      <trkpt lat="44.06305" lon="4.65109">
        <ele>172.1</ele>
        <time>2012-06-13T07:51:16.000Z</time>
      </trkpt>
      <trkpt lat="44.06303" lon="4.65119">
        <ele>172</ele>
        <time>2012-06-13T07:51:17.000Z</time>
      </trkpt>
      <trkpt lat="44.06305" lon="4.65129">
        <ele>171.8</ele>
        <time>2012-06-13T07:51:18.000Z</time>
      </trkpt>
      <trkpt lat="44.06304" lon="4.65141">
        <ele>172.1</ele>
        <time>2012-06-13T07:51:19.000Z</time>
      </trkpt>
      <trkpt lat="44.06307" lon="4.6515">
        <ele>171</ele>
        <time>2012-06-13T07:51:21.000Z</time>
      </trkpt>
      <trkpt lat="44.06311" lon="4.65155">
        <ele>170.9</ele>
        <time>2012-06-13T07:51:22.000Z</time>
      </trkpt>
      <trkpt lat="44.06309" lon="4.65165">
        <ele>170.6</ele>
        <time>2012-06-13T07:51:23.000Z</time>
      </trkpt>
      <trkpt lat="44.06312" lon="4.65172">
        <ele>169.9</ele>
        <time>2012-06-13T07:51:24.000Z</time>
      </trkpt>
      <trkpt lat="44.06316" lon="4.65178">
        <ele>169.8</ele>
        <time>2012-06-13T07:51:25.000Z</time>
      </trkpt>
      <trkpt lat="44.06317" lon="4.65186">
        <ele>169.7</ele>
        <time>2012-06-13T07:51:26.000Z</time>
      </trkpt>
      <trkpt lat="44.06318" lon="4.65192">
        <ele>169.8</ele>
        <time>2012-06-13T07:51:27.000Z</time>
      </trkpt>
      <trkpt lat="44.06322" lon="4.65196">
        <ele>169.9</ele>
        <time>2012-06-13T07:51:28.000Z</time>
      </trkpt>
      <trkpt lat="44.06326" lon="4.65203">
        <ele>170.3</ele>
        <time>2012-06-13T07:51:29.000Z</time>
      </trkpt>
      <trkpt lat="44.0633" lon="4.65211">
        <ele>170.1</ele>
        <time>2012-06-13T07:51:30.000Z</time>
      </trkpt>
      <trkpt lat="44.0633" lon="4.65218">
        <ele>170</ele>
        <time>2012-06-13T07:51:31.000Z</time>
      </trkpt>
      <trkpt lat="44.06332" lon="4.65229">
        <ele>170</ele>
        <time>2012-06-13T07:51:32.000Z</time>
      </trkpt>
      <trkpt lat="44.06336" lon="4.65239">
        <ele>170</ele>
        <time>2012-06-13T07:51:34.000Z</time>
      </trkpt>
      <trkpt lat="44.06338" lon="4.65249">
        <ele>169.8</ele>
        <time>2012-06-13T07:51:35.000Z</time>
      </trkpt>
      <trkpt lat="44.06339" lon="4.65256">
        <ele>170.3</ele>
        <time>2012-06-13T07:51:36.000Z</time>
      </trkpt>
      <trkpt lat="44.06341" lon="4.65269">
        <ele>170.3</ele>
        <time>2012-06-13T07:51:38.000Z</time>
      </trkpt>
      <trkpt lat="44.06343" lon="4.65274">
        <ele>170.4</ele>
        <time>2012-06-13T07:51:39.000Z</time>
      </trkpt>
      <trkpt lat="44.06346" lon="4.65283">
        <ele>171</ele>
        <time>2012-06-13T07:51:40.000Z</time>
      </trkpt>
      <trkpt lat="44.06348" lon="4.65293">
        <ele>170.4</ele>
        <time>2012-06-13T07:51:41.000Z</time>
      </trkpt>
      <trkpt lat="44.06352" lon="4.653">
        <ele>169</ele>
        <time>2012-06-13T07:51:42.000Z</time>
      </trkpt>
      <trkpt lat="44.06354" lon="4.65309">
        <ele>169.1</ele>
        <time>2012-06-13T07:51:43.000Z</time>
      </trkpt>
      <trkpt lat="44.06356" lon="4.65318">
        <ele>168.9</ele>
        <time>2012-06-13T07:51:44.000Z</time>
      </trkpt>
      <trkpt lat="44.06359" lon="4.65326">
        <ele>168.8</ele>
        <time>2012-06-13T07:51:45.000Z</time>
      </trkpt>
      <trkpt lat="44.06362" lon="4.65334">
        <ele>168.1</ele>
        <time>2012-06-13T07:51:46.000Z</time>
      </trkpt>
      <trkpt lat="44.06364" lon="4.65342">
        <ele>167.4</ele>
        <time>2012-06-13T07:51:47.000Z</time>
      </trkpt>
      <trkpt lat="44.06367" lon="4.65349">
        <ele>167.2</ele>
        <time>2012-06-13T07:51:48.000Z</time>
      </trkpt>
      <trkpt lat="44.06371" lon="4.65357">
        <ele>166.5</ele>
        <time>2012-06-13T07:51:49.000Z</time>
      </trkpt>
      <trkpt lat="44.06373" lon="4.65366">
        <ele>166.6</ele>
        <time>2012-06-13T07:51:50.000Z</time>
      </trkpt>
      <trkpt lat="44.06376" lon="4.65374">
        <ele>166.7</ele>
        <time>2012-06-13T07:51:51.000Z</time>
      </trkpt>
      <trkpt lat="44.06379" lon="4.65381">
        <ele>166.7</ele>
        <time>2012-06-13T07:51:52.000Z</time>
      </trkpt>
      <trkpt lat="44.06381" lon="4.65389">
        <ele>166</ele>
        <time>2012-06-13T07:51:53.000Z</time>
      </trkpt>
      <trkpt lat="44.06384" lon="4.65396">
        <ele>165.7</ele>
        <time>2012-06-13T07:51:54.000Z</time>
      </trkpt>
      <trkpt lat="44.06386" lon="4.65404">
        <ele>165.6</ele>
        <time>2012-06-13T07:51:55.000Z</time>
      </trkpt>
      <trkpt lat="44.06388" lon="4.65413">
        <ele>165</ele>
        <time>2012-06-13T07:51:56.000Z</time>
      </trkpt>
      <trkpt lat="44.06389" lon="4.65419">
        <ele>165.1</ele>
        <time>2012-06-13T07:51:57.000Z</time>
      </trkpt>
      <trkpt lat="44.06392" lon="4.65424">
        <ele>165.6</ele>
        <time>2012-06-13T07:51:58.000Z</time>
      </trkpt>
      <trkpt lat="44.06397" lon="4.65432">
        <ele>165.4</ele>
        <time>2012-06-13T07:52:00.000Z</time>
      </trkpt>
      <trkpt lat="44.064" lon="4.65442">
        <ele>164.8</ele>
        <time>2012-06-13T07:52:02.000Z</time>
      </trkpt>
      <trkpt lat="44.06403" lon="4.65451">
        <ele>164.8</ele>
        <time>2012-06-13T07:52:04.000Z</time>
      </trkpt>
      <trkpt lat="44.06405" lon="4.6546">
        <ele>165.3</ele>
        <time>2012-06-13T07:52:06.000Z</time>
      </trkpt>
      <trkpt lat="44.06404" lon="4.65469">
        <ele>165.6</ele>
        <time>2012-06-13T07:52:07.000Z</time>
      </trkpt>
      <trkpt lat="44.06406" lon="4.65475">
        <ele>165.8</ele>
        <time>2012-06-13T07:52:08.000Z</time>
      </trkpt>
      <trkpt lat="44.06409" lon="4.65484">
        <ele>163.8</ele>
        <time>2012-06-13T07:52:10.000Z</time>
      </trkpt>
      <trkpt lat="44.06412" lon="4.65495">
        <ele>163.4</ele>
        <time>2012-06-13T07:52:12.000Z</time>
      </trkpt>
      <trkpt lat="44.06414" lon="4.65502">
        <ele>162.6</ele>
        <time>2012-06-13T07:52:13.000Z</time>
      </trkpt>
      <trkpt lat="44.06414" lon="4.65509">
        <ele>161.9</ele>
        <time>2012-06-13T07:52:14.000Z</time>
      </trkpt>
      <trkpt lat="44.06412" lon="4.65524">
        <ele>162.8</ele>
        <time>2012-06-13T07:52:15.000Z</time>
      </trkpt>
      <trkpt lat="44.06412" lon="4.65534">
        <ele>162.6</ele>
        <time>2012-06-13T07:52:16.000Z</time>
      </trkpt>
      <trkpt lat="44.06413" lon="4.65542">
        <ele>162.7</ele>
        <time>2012-06-13T07:52:17.000Z</time>
      </trkpt>
      <trkpt lat="44.06412" lon="4.65551">
        <ele>162.1</ele>
        <time>2012-06-13T07:52:18.000Z</time>
      </trkpt>
      <trkpt lat="44.0641" lon="4.65561">
        <ele>161.7</ele>
        <time>2012-06-13T07:52:19.000Z</time>
      </trkpt>
      <trkpt lat="44.06409" lon="4.65571">
        <ele>161.3</ele>
        <time>2012-06-13T07:52:20.000Z</time>
      </trkpt>
      <trkpt lat="44.06408" lon="4.65583">
        <ele>161.5</ele>
        <time>2012-06-13T07:52:21.000Z</time>
      </trkpt>
      <trkpt lat="44.06407" lon="4.65593">
        <ele>161.6</ele>
        <time>2012-06-13T07:52:22.000Z</time>
      </trkpt>
      <trkpt lat="44.06406" lon="4.65602">
        <ele>161.5</ele>
        <time>2012-06-13T07:52:23.000Z</time>
      </trkpt>
      <trkpt lat="44.06404" lon="4.6561">
        <ele>161.4</ele>
        <time>2012-06-13T07:52:24.000Z</time>
      </trkpt>
      <trkpt lat="44.06403" lon="4.65619">
        <ele>161</ele>
        <time>2012-06-13T07:52:25.000Z</time>
      </trkpt>
      <trkpt lat="44.06403" lon="4.65629">
        <ele>161.1</ele>
        <time>2012-06-13T07:52:26.000Z</time>
      </trkpt>
      <trkpt lat="44.06402" lon="4.65638">
        <ele>161.5</ele>
        <time>2012-06-13T07:52:27.000Z</time>
      </trkpt>
      <trkpt lat="44.06401" lon="4.65647">
        <ele>161.8</ele>
        <time>2012-06-13T07:52:28.000Z</time>
      </trkpt>
      <trkpt lat="44.06401" lon="4.65657">
        <ele>161.9</ele>
        <time>2012-06-13T07:52:29.000Z</time>
      </trkpt>
      <trkpt lat="44.06402" lon="4.65665">
        <ele>161.4</ele>
        <time>2012-06-13T07:52:30.000Z</time>
      </trkpt>
      <trkpt lat="44.06403" lon="4.65675">
        <ele>161.7</ele>
        <time>2012-06-13T07:52:31.000Z</time>
      </trkpt>
      <trkpt lat="44.06402" lon="4.65687">
        <ele>161.6</ele>
        <time>2012-06-13T07:52:32.000Z</time>
      </trkpt>
      <trkpt lat="44.06402" lon="4.65696">
        <ele>161.3</ele>
        <time>2012-06-13T07:52:33.000Z</time>
      </trkpt>
      <trkpt lat="44.06401" lon="4.65707">
        <ele>161.6</ele>
        <time>2012-06-13T07:52:34.000Z</time>
      </trkpt>
      <trkpt lat="44.06402" lon="4.65716">
        <ele>161.4</ele>
        <time>2012-06-13T07:52:35.000Z</time>
      </trkpt>
      <trkpt lat="44.06403" lon="4.65724">
        <ele>161.3</ele>
        <time>2012-06-13T07:52:36.000Z</time>
      </trkpt>
      <trkpt lat="44.06404" lon="4.65732">
        <ele>161.2</ele>
        <time>2012-06-13T07:52:37.000Z</time>
      </trkpt>
      <trkpt lat="44.06405" lon="4.6574">
        <ele>161.2</ele>
        <time>2012-06-13T07:52:38.000Z</time>
      </trkpt>
      <trkpt lat="44.06405" lon="4.65753">
        <ele>160.8</ele>
        <time>2012-06-13T07:52:39.000Z</time>
      </trkpt>
      <trkpt lat="44.06409" lon="4.65762">
        <ele>160.1</ele>
        <time>2012-06-13T07:52:40.000Z</time>
      </trkpt>
      <trkpt lat="44.06409" lon="4.65773">
        <ele>159.9</ele>
        <time>2012-06-13T07:52:41.000Z</time>
      </trkpt>
      <trkpt lat="44.0641" lon="4.65782">
        <ele>160.2</ele>
        <time>2012-06-13T07:52:42.000Z</time>
      </trkpt>
      <trkpt lat="44.06412" lon="4.65791">
        <ele>159.8</ele>
        <time>2012-06-13T07:52:43.000Z</time>
      </trkpt>
      <trkpt lat="44.06414" lon="4.65801">
        <ele>160.1</ele>
        <time>2012-06-13T07:52:44.000Z</time>
      </trkpt>
      <trkpt lat="44.06414" lon="4.65811">
        <ele>160.3</ele>
        <time>2012-06-13T07:52:45.000Z</time>
      </trkpt>
      <trkpt lat="44.06418" lon="4.6582">
        <ele>159.9</ele>
        <time>2012-06-13T07:52:46.000Z</time>
      </trkpt>
      <trkpt lat="44.06421" lon="4.6583">
        <ele>160.1</ele>
        <time>2012-06-13T07:52:47.000Z</time>
      </trkpt>
      <trkpt lat="44.06423" lon="4.6584">
        <ele>160.4</ele>
        <time>2012-06-13T07:52:48.000Z</time>
      </trkpt>
      <trkpt lat="44.06425" lon="4.65849">
        <ele>160.3</ele>
        <time>2012-06-13T07:52:49.000Z</time>
      </trkpt>
      <trkpt lat="44.06426" lon="4.65861">
        <ele>160.9</ele>
        <time>2012-06-13T07:52:50.000Z</time>
      </trkpt>
      <trkpt lat="44.06428" lon="4.65868">
        <ele>160.8</ele>
        <time>2012-06-13T07:52:51.000Z</time>
      </trkpt>
      <trkpt lat="44.0643" lon="4.65877">
        <ele>161.1</ele>
        <time>2012-06-13T07:52:52.000Z</time>
      </trkpt>
      <trkpt lat="44.06431" lon="4.65885">
        <ele>161</ele>
        <time>2012-06-13T07:52:53.000Z</time>
      </trkpt>
      <trkpt lat="44.06433" lon="4.65895">
        <ele>161.2</ele>
        <time>2012-06-13T07:52:54.000Z</time>
      </trkpt>
      <trkpt lat="44.06435" lon="4.65904">
        <ele>161.2</ele>
        <time>2012-06-13T07:52:55.000Z</time>
      </trkpt>
      <trkpt lat="44.06436" lon="4.65913">
        <ele>160.8</ele>
        <time>2012-06-13T07:52:56.000Z</time>
      </trkpt>
      <trkpt lat="44.06439" lon="4.65921">
        <ele>161.1</ele>
        <time>2012-06-13T07:52:57.000Z</time>
      </trkpt>
      <trkpt lat="44.0644" lon="4.65929">
        <ele>160.9</ele>
        <time>2012-06-13T07:52:58.000Z</time>
      </trkpt>
      <trkpt lat="44.06443" lon="4.65937">
        <ele>160.4</ele>
        <time>2012-06-13T07:52:59.000Z</time>
      </trkpt>
      <trkpt lat="44.06446" lon="4.65945">
        <ele>160.2</ele>
        <time>2012-06-13T07:53:00.000Z</time>
      </trkpt>
      <trkpt lat="44.06448" lon="4.65952">
        <ele>160.4</ele>
        <time>2012-06-13T07:53:01.000Z</time>
      </trkpt>
      <trkpt lat="44.06449" lon="4.6596">
        <ele>160.2</ele>
        <time>2012-06-13T07:53:02.000Z</time>
      </trkpt>
      <trkpt lat="44.06452" lon="4.65967">
        <ele>160.6</ele>
        <time>2012-06-13T07:53:03.000Z</time>
      </trkpt>
      <trkpt lat="44.06454" lon="4.65974">
        <ele>160.8</ele>
        <time>2012-06-13T07:53:04.000Z</time>
      </trkpt>
      <trkpt lat="44.06456" lon="4.65981">
        <ele>160.4</ele>
        <time>2012-06-13T07:53:05.000Z</time>
      </trkpt>
      <trkpt lat="44.06456" lon="4.65988">
        <ele>160.4</ele>
        <time>2012-06-13T07:53:06.000Z</time>
      </trkpt>
      <trkpt lat="44.06458" lon="4.65994">
        <ele>159.8</ele>
        <time>2012-06-13T07:53:07.000Z</time>
      </trkpt>
      <trkpt lat="44.06459" lon="4.66001">
        <ele>159.6</ele>
        <time>2012-06-13T07:53:08.000Z</time>
      </trkpt>
      <trkpt lat="44.06461" lon="4.66014">
        <ele>159.8</ele>
        <time>2012-06-13T07:53:10.000Z</time>
      </trkpt>
      <trkpt lat="44.06463" lon="4.6602">
        <ele>160.2</ele>
        <time>2012-06-13T07:53:11.000Z</time>
      </trkpt>
      <trkpt lat="44.06464" lon="4.66031">
        <ele>160.9</ele>
        <time>2012-06-13T07:53:13.000Z</time>
      </trkpt>
      <trkpt lat="44.06466" lon="4.66043">
        <ele>161.3</ele>
        <time>2012-06-13T07:53:15.000Z</time>
      </trkpt>
      <trkpt lat="44.06466" lon="4.6605">
        <ele>161.7</ele>
        <time>2012-06-13T07:53:16.000Z</time>
      </trkpt>
      <trkpt lat="44.06467" lon="4.66057">
        <ele>161.4</ele>
        <time>2012-06-13T07:53:17.000Z</time>
      </trkpt>
      <trkpt lat="44.06467" lon="4.66065">
        <ele>161.5</ele>
        <time>2012-06-13T07:53:18.000Z</time>
      </trkpt>
      <trkpt lat="44.06467" lon="4.66074">
        <ele>161.1</ele>
        <time>2012-06-13T07:53:19.000Z</time>
      </trkpt>
      <trkpt lat="44.06468" lon="4.6608">
        <ele>161.1</ele>
        <time>2012-06-13T07:53:20.000Z</time>
      </trkpt>
      <trkpt lat="44.06468" lon="4.66087">
        <ele>161.5</ele>
        <time>2012-06-13T07:53:21.000Z</time>
      </trkpt>
      <trkpt lat="44.06471" lon="4.66095">
        <ele>161.2</ele>
        <time>2012-06-13T07:53:23.000Z</time>
      </trkpt>
      <trkpt lat="44.06473" lon="4.66101">
        <ele>161.4</ele>
        <time>2012-06-13T07:53:24.000Z</time>
      </trkpt>
      <trkpt lat="44.06475" lon="4.6611">
        <ele>161</ele>
        <time>2012-06-13T07:53:26.000Z</time>
      </trkpt>
      <trkpt lat="44.06475" lon="4.66117">
        <ele>161</ele>
        <time>2012-06-13T07:53:27.000Z</time>
      </trkpt>
      <trkpt lat="44.06478" lon="4.66128">
        <ele>160.7</ele>
        <time>2012-06-13T07:53:29.000Z</time>
      </trkpt>
      <trkpt lat="44.06478" lon="4.66134">
        <ele>160.2</ele>
        <time>2012-06-13T07:53:30.000Z</time>
      </trkpt>
      <trkpt lat="44.06482" lon="4.66144">
        <ele>160</ele>
        <time>2012-06-13T07:53:32.000Z</time>
      </trkpt>
      <trkpt lat="44.06485" lon="4.66156">
        <ele>160.4</ele>
        <time>2012-06-13T07:53:34.000Z</time>
      </trkpt>
      <trkpt lat="44.06486" lon="4.66162">
        <ele>160.4</ele>
        <time>2012-06-13T07:53:35.000Z</time>
      </trkpt>
      <trkpt lat="44.0649" lon="4.6617">
        <ele>160.8</ele>
        <time>2012-06-13T07:53:37.000Z</time>
      </trkpt>
      <trkpt lat="44.06494" lon="4.6618">
        <ele>160.8</ele>
        <time>2012-06-13T07:53:39.000Z</time>
      </trkpt>
      <trkpt lat="44.06498" lon="4.66184">
        <ele>160.1</ele>
        <time>2012-06-13T07:53:40.000Z</time>
      </trkpt>
      <trkpt lat="44.065" lon="4.66189">
        <ele>159.9</ele>
        <time>2012-06-13T07:53:41.000Z</time>
      </trkpt>
      <trkpt lat="44.06506" lon="4.66197">
        <ele>159.7</ele>
        <time>2012-06-13T07:53:43.000Z</time>
      </trkpt>
      <trkpt lat="44.06513" lon="4.66202">
        <ele>160</ele>
        <time>2012-06-13T07:53:45.000Z</time>
      </trkpt>
      <trkpt lat="44.06516" lon="4.66206">
        <ele>160.3</ele>
        <time>2012-06-13T07:53:46.000Z</time>
      </trkpt>
      <trkpt lat="44.06524" lon="4.66216">
        <ele>160.3</ele>
        <time>2012-06-13T07:53:48.000Z</time>
      </trkpt>
      <trkpt lat="44.06528" lon="4.66219">
        <ele>160.3</ele>
        <time>2012-06-13T07:53:49.000Z</time>
      </trkpt>
      <trkpt lat="44.06534" lon="4.66226">
        <ele>161.1</ele>
        <time>2012-06-13T07:53:51.000Z</time>
      </trkpt>
      <trkpt lat="44.0654" lon="4.66231">
        <ele>161.7</ele>
        <time>2012-06-13T07:53:53.000Z</time>
      </trkpt>
      <trkpt lat="44.06544" lon="4.66237">
        <ele>161.8</ele>
        <time>2012-06-13T07:53:54.000Z</time>
      </trkpt>
      <trkpt lat="44.0655" lon="4.66242">
        <ele>161.9</ele>
        <time>2012-06-13T07:53:55.000Z</time>
      </trkpt>
      <trkpt lat="44.06556" lon="4.66247">
        <ele>162</ele>
        <time>2012-06-13T07:53:56.000Z</time>
      </trkpt>
      <trkpt lat="44.06561" lon="4.66252">
        <ele>162</ele>
        <time>2012-06-13T07:53:57.000Z</time>
      </trkpt>
      <trkpt lat="44.06567" lon="4.66256">
        <ele>161.9</ele>
        <time>2012-06-13T07:53:58.000Z</time>
      </trkpt>
      <trkpt lat="44.06571" lon="4.6626">
        <ele>162.3</ele>
        <time>2012-06-13T07:53:59.000Z</time>
      </trkpt>
      <trkpt lat="44.06576" lon="4.66264">
        <ele>162.5</ele>
        <time>2012-06-13T07:54:00.000Z</time>
      </trkpt>
      <trkpt lat="44.06583" lon="4.66273">
        <ele>162.9</ele>
        <time>2012-06-13T07:54:02.000Z</time>
      </trkpt>
      <trkpt lat="44.06585" lon="4.66279">
        <ele>162.7</ele>
        <time>2012-06-13T07:54:03.000Z</time>
      </trkpt>
      <trkpt lat="44.06592" lon="4.66291">
        <ele>162.6</ele>
        <time>2012-06-13T07:54:05.000Z</time>
      </trkpt>
      <trkpt lat="44.06595" lon="4.663">
        <ele>161.2</ele>
        <time>2012-06-13T07:54:06.000Z</time>
      </trkpt>
      <trkpt lat="44.06597" lon="4.66311">
        <ele>160</ele>
        <time>2012-06-13T07:54:08.000Z</time>
      </trkpt>
      <trkpt lat="44.06596" lon="4.66317">
        <ele>160</ele>
        <time>2012-06-13T07:54:09.000Z</time>
      </trkpt>
      <trkpt lat="44.06594" lon="4.66327">
        <ele>160.1</ele>
        <time>2012-06-13T07:54:11.000Z</time>
      </trkpt>
      <trkpt lat="44.06594" lon="4.66338">
        <ele>159.5</ele>
        <time>2012-06-13T07:54:13.000Z</time>
      </trkpt>
      <trkpt lat="44.06593" lon="4.66349">
        <ele>159.6</ele>
        <time>2012-06-13T07:54:15.000Z</time>
      </trkpt>
      <trkpt lat="44.06594" lon="4.66359">
        <ele>160</ele>
        <time>2012-06-13T07:54:17.000Z</time>
      </trkpt>
      <trkpt lat="44.06593" lon="4.66368">
        <ele>159.3</ele>
        <time>2012-06-13T07:54:19.000Z</time>
      </trkpt>
      <trkpt lat="44.06593" lon="4.66377">
        <ele>158.9</ele>
        <time>2012-06-13T07:54:21.000Z</time>
      </trkpt>
      <trkpt lat="44.06594" lon="4.66385">
        <ele>158.6</ele>
        <time>2012-06-13T07:54:23.000Z</time>
      </trkpt>
      <trkpt lat="44.06591" lon="4.66394">
        <ele>158.4</ele>
        <time>2012-06-13T07:54:25.000Z</time>
      </trkpt>
      <trkpt lat="44.06591" lon="4.66403">
        <ele>157.9</ele>
        <time>2012-06-13T07:54:27.000Z</time>
      </trkpt>
      <trkpt lat="44.0659" lon="4.66412">
        <ele>157.7</ele>
        <time>2012-06-13T07:54:29.000Z</time>
      </trkpt>
      <trkpt lat="44.06589" lon="4.6642">
        <ele>157.9</ele>
        <time>2012-06-13T07:54:31.000Z</time>
      </trkpt>
      <trkpt lat="44.06588" lon="4.66426">
        <ele>157.1</ele>
        <time>2012-06-13T07:54:33.000Z</time>
      </trkpt>
      <trkpt lat="44.06588" lon="4.66437">
        <ele>157</ele>
        <time>2012-06-13T07:54:35.000Z</time>
      </trkpt>
      <trkpt lat="44.06585" lon="4.66446">
        <ele>157.8</ele>
        <time>2012-06-13T07:54:37.000Z</time>
      </trkpt>
      <trkpt lat="44.06581" lon="4.66454">
        <ele>157.7</ele>
        <time>2012-06-13T07:54:39.000Z</time>
      </trkpt>
      <trkpt lat="44.06577" lon="4.66463">
        <ele>156.8</ele>
        <time>2012-06-13T07:54:41.000Z</time>
      </trkpt>
      <trkpt lat="44.06572" lon="4.66471">
        <ele>157.1</ele>
        <time>2012-06-13T07:54:43.000Z</time>
      </trkpt>
      <trkpt lat="44.06567" lon="4.66478">
        <ele>156.9</ele>
        <time>2012-06-13T07:54:45.000Z</time>
      </trkpt>
      <trkpt lat="44.06561" lon="4.66485">
        <ele>157.6</ele>
        <time>2012-06-13T07:54:47.000Z</time>
      </trkpt>
      <trkpt lat="44.06555" lon="4.66489">
        <ele>157.8</ele>
        <time>2012-06-13T07:54:49.000Z</time>
      </trkpt>
      <trkpt lat="44.0655" lon="4.66494">
        <ele>157.6</ele>
        <time>2012-06-13T07:54:50.000Z</time>
      </trkpt>
      <trkpt lat="44.06544" lon="4.66498">
        <ele>158.4</ele>
        <time>2012-06-13T07:54:52.000Z</time>
      </trkpt>
      <trkpt lat="44.06539" lon="4.66501">
        <ele>158.9</ele>
        <time>2012-06-13T07:54:54.000Z</time>
      </trkpt>
      <trkpt lat="44.06534" lon="4.66506">
        <ele>159.7</ele>
        <time>2012-06-13T07:54:56.000Z</time>
      </trkpt>
      <trkpt lat="44.06528" lon="4.66511">
        <ele>160.3</ele>
        <time>2012-06-13T07:54:59.000Z</time>
      </trkpt>
      <trkpt lat="44.06523" lon="4.66515">
        <ele>160.4</ele>
        <time>2012-06-13T07:55:02.000Z</time>
      </trkpt>
      <trkpt lat="44.06517" lon="4.66518">
        <ele>160.3</ele>
        <time>2012-06-13T07:55:05.000Z</time>
      </trkpt>
      <trkpt lat="44.06513" lon="4.66521">
        <ele>160.7</ele>
        <time>2012-06-13T07:55:07.000Z</time>
      </trkpt>
      <trkpt lat="44.06508" lon="4.66526">
        <ele>161.7</ele>
        <time>2012-06-13T07:55:10.000Z</time>
      </trkpt>
      <trkpt lat="44.06503" lon="4.6653">
        <ele>162.2</ele>
        <time>2012-06-13T07:55:13.000Z</time>
      </trkpt>
      <trkpt lat="44.06499" lon="4.66536">
        <ele>161.8</ele>
        <time>2012-06-13T07:55:16.000Z</time>
      </trkpt>
      <trkpt lat="44.06497" lon="4.66542">
        <ele>161.8</ele>
        <time>2012-06-13T07:55:18.000Z</time>
      </trkpt>
      <trkpt lat="44.06494" lon="4.66548">
        <ele>162.5</ele>
        <time>2012-06-13T07:55:20.000Z</time>
      </trkpt>
      <trkpt lat="44.06491" lon="4.66556">
        <ele>163.3</ele>
        <time>2012-06-13T07:55:22.000Z</time>
      </trkpt>
      <trkpt lat="44.06488" lon="4.66562">
        <ele>163.3</ele>
        <time>2012-06-13T07:55:24.000Z</time>
      </trkpt>
      <trkpt lat="44.06482" lon="4.66569">
        <ele>162.5</ele>
        <time>2012-06-13T07:55:26.000Z</time>
      </trkpt>
      <trkpt lat="44.06477" lon="4.66575">
        <ele>162.8</ele>
        <time>2012-06-13T07:55:28.000Z</time>
      </trkpt>
      <trkpt lat="44.06474" lon="4.66582">
        <ele>163.9</ele>
        <time>2012-06-13T07:55:30.000Z</time>
      </trkpt>
      <trkpt lat="44.0647" lon="4.66587">
        <ele>164</ele>
        <time>2012-06-13T07:55:33.000Z</time>
      </trkpt>
      <trkpt lat="44.06468" lon="4.66593">
        <ele>166</ele>
        <time>2012-06-13T07:55:35.000Z</time>
      </trkpt>
      <trkpt lat="44.06464" lon="4.66599">
        <ele>165.7</ele>
        <time>2012-06-13T07:55:38.000Z</time>
      </trkpt>
      <trkpt lat="44.0646" lon="4.66608">
        <ele>165.7</ele>
        <time>2012-06-13T07:55:41.000Z</time>
      </trkpt>
      <trkpt lat="44.06457" lon="4.66615">
        <ele>166.1</ele>
        <time>2012-06-13T07:55:43.000Z</time>
      </trkpt>
      <trkpt lat="44.06454" lon="4.6662">
        <ele>166.7</ele>
        <time>2012-06-13T07:55:45.000Z</time>
      </trkpt>
      <trkpt lat="44.0645" lon="4.66627">
        <ele>168.6</ele>
        <time>2012-06-13T07:55:47.000Z</time>
      </trkpt>
      <trkpt lat="44.06446" lon="4.66633">
        <ele>171.1</ele>
        <time>2012-06-13T07:55:49.000Z</time>
      </trkpt>
      <trkpt lat="44.06441" lon="4.66638">
        <ele>171.9</ele>
        <time>2012-06-13T07:55:51.000Z</time>
      </trkpt>
      <trkpt lat="44.0644" lon="4.66646">
        <ele>170.3</ele>
        <time>2012-06-13T07:55:54.000Z</time>
      </trkpt>
      <trkpt lat="44.06435" lon="4.66652">
        <ele>170.3</ele>
        <time>2012-06-13T07:55:57.000Z</time>
      </trkpt>
      <trkpt lat="44.06431" lon="4.66661">
        <ele>171.1</ele>
        <time>2012-06-13T07:56:00.000Z</time>
      </trkpt>
      <trkpt lat="44.06426" lon="4.66668">
        <ele>171.9</ele>
        <time>2012-06-13T07:56:02.000Z</time>
      </trkpt>
      <trkpt lat="44.06422" lon="4.66674">
        <ele>171.2</ele>
        <time>2012-06-13T07:56:04.000Z</time>
      </trkpt>
      <trkpt lat="44.06417" lon="4.66678">
        <ele>171.8</ele>
        <time>2012-06-13T07:56:06.000Z</time>
      </trkpt>
      <trkpt lat="44.06414" lon="4.66684">
        <ele>171.8</ele>
        <time>2012-06-13T07:56:08.000Z</time>
      </trkpt>
      <trkpt lat="44.06409" lon="4.66692">
        <ele>172.1</ele>
        <time>2012-06-13T07:56:10.000Z</time>
      </trkpt>
      <trkpt lat="44.06405" lon="4.66696">
        <ele>172.2</ele>
        <time>2012-06-13T07:56:12.000Z</time>
      </trkpt>
      <trkpt lat="44.06402" lon="4.66701">
        <ele>172.8</ele>
        <time>2012-06-13T07:56:14.000Z</time>
      </trkpt>
      <trkpt lat="44.06398" lon="4.66705">
        <ele>173.2</ele>
        <time>2012-06-13T07:56:16.000Z</time>
      </trkpt>
      <trkpt lat="44.06394" lon="4.66711">
        <ele>174.7</ele>
        <time>2012-06-13T07:56:18.000Z</time>
      </trkpt>
      <trkpt lat="44.0639" lon="4.66717">
        <ele>175</ele>
        <time>2012-06-13T07:56:20.000Z</time>
      </trkpt>
      <trkpt lat="44.06386" lon="4.66722">
        <ele>174.4</ele>
        <time>2012-06-13T07:56:22.000Z</time>
      </trkpt>
      <trkpt lat="44.06385" lon="4.66728">
        <ele>168.8</ele>
        <time>2012-06-13T07:56:25.000Z</time>
      </trkpt>
      <trkpt lat="44.0638" lon="4.66734">
        <ele>168.6</ele>
        <time>2012-06-13T07:56:28.000Z</time>
      </trkpt>
      <trkpt lat="44.06376" lon="4.6674">
        <ele>168.9</ele>
        <time>2012-06-13T07:56:30.000Z</time>
      </trkpt>
      <trkpt lat="44.06371" lon="4.66747">
        <ele>168.7</ele>
        <time>2012-06-13T07:56:32.000Z</time>
      </trkpt>
      <trkpt lat="44.06368" lon="4.66751">
        <ele>169.1</ele>
        <time>2012-06-13T07:56:33.000Z</time>
      </trkpt>
      <trkpt lat="44.06365" lon="4.66756">
        <ele>169.6</ele>
        <time>2012-06-13T07:56:34.000Z</time>
      </trkpt>
      <trkpt lat="44.06358" lon="4.66763">
        <ele>169.4</ele>
        <time>2012-06-13T07:56:36.000Z</time>
      </trkpt>
      <trkpt lat="44.06352" lon="4.6677">
        <ele>169.7</ele>
        <time>2012-06-13T07:56:38.000Z</time>
      </trkpt>
      <trkpt lat="44.06347" lon="4.66774">
        <ele>169.6</ele>
        <time>2012-06-13T07:56:39.000Z</time>
      </trkpt>
      <trkpt lat="44.06341" lon="4.66781">
        <ele>168.1</ele>
        <time>2012-06-13T07:56:40.000Z</time>
      </trkpt>
      <trkpt lat="44.06337" lon="4.66785">
        <ele>168.2</ele>
        <time>2012-06-13T07:56:41.000Z</time>
      </trkpt>
      <trkpt lat="44.06332" lon="4.66789">
        <ele>168.1</ele>
        <time>2012-06-13T07:56:42.000Z</time>
      </trkpt>
      <trkpt lat="44.06328" lon="4.66794">
        <ele>168.8</ele>
        <time>2012-06-13T07:56:43.000Z</time>
      </trkpt>
      <trkpt lat="44.06324" lon="4.66798">
        <ele>169.1</ele>
        <time>2012-06-13T07:56:44.000Z</time>
      </trkpt>
      <trkpt lat="44.0632" lon="4.66804">
        <ele>168.9</ele>
        <time>2012-06-13T07:56:45.000Z</time>
      </trkpt>
      <trkpt lat="44.06314" lon="4.66808">
        <ele>168.8</ele>
        <time>2012-06-13T07:56:46.000Z</time>
      </trkpt>
      <trkpt lat="44.06309" lon="4.66812">
        <ele>169.2</ele>
        <time>2012-06-13T07:56:47.000Z</time>
      </trkpt>
      <trkpt lat="44.06305" lon="4.66818">
        <ele>169</ele>
        <time>2012-06-13T07:56:48.000Z</time>
      </trkpt>
      <trkpt lat="44.06299" lon="4.66823">
        <ele>168.7</ele>
        <time>2012-06-13T07:56:49.000Z</time>
      </trkpt>
      <trkpt lat="44.06294" lon="4.66832">
        <ele>169.2</ele>
        <time>2012-06-13T07:56:50.000Z</time>
      </trkpt>
      <trkpt lat="44.06289" lon="4.66839">
        <ele>169.5</ele>
        <time>2012-06-13T07:56:51.000Z</time>
      </trkpt>
      <trkpt lat="44.06286" lon="4.66845">
        <ele>169.1</ele>
        <time>2012-06-13T07:56:52.000Z</time>
      </trkpt>
      <trkpt lat="44.06281" lon="4.66851">
        <ele>168.9</ele>
        <time>2012-06-13T07:56:53.000Z</time>
      </trkpt>
      <trkpt lat="44.06275" lon="4.66857">
        <ele>169.3</ele>
        <time>2012-06-13T07:56:54.000Z</time>
      </trkpt>
      <trkpt lat="44.0627" lon="4.66863">
        <ele>169.6</ele>
        <time>2012-06-13T07:56:55.000Z</time>
      </trkpt>
      <trkpt lat="44.06265" lon="4.66868">
        <ele>169.7</ele>
        <time>2012-06-13T07:56:56.000Z</time>
      </trkpt>
      <trkpt lat="44.06259" lon="4.66875">
        <ele>170</ele>
        <time>2012-06-13T07:56:57.000Z</time>
      </trkpt>
      <trkpt lat="44.06253" lon="4.66882">
        <ele>170.4</ele>
        <time>2012-06-13T07:56:58.000Z</time>
      </trkpt>
      <trkpt lat="44.06248" lon="4.66889">
        <ele>170</ele>
        <time>2012-06-13T07:56:59.000Z</time>
      </trkpt>
      <trkpt lat="44.06242" lon="4.66898">
        <ele>170</ele>
        <time>2012-06-13T07:57:00.000Z</time>
      </trkpt>
      <trkpt lat="44.06236" lon="4.66902">
        <ele>169.5</ele>
        <time>2012-06-13T07:57:01.000Z</time>
      </trkpt>
      <trkpt lat="44.06231" lon="4.6691">
        <ele>169.3</ele>
        <time>2012-06-13T07:57:02.000Z</time>
      </trkpt>
      <trkpt lat="44.06226" lon="4.66916">
        <ele>169</ele>
        <time>2012-06-13T07:57:03.000Z</time>
      </trkpt>
      <trkpt lat="44.06221" lon="4.66923">
        <ele>169</ele>
        <time>2012-06-13T07:57:04.000Z</time>
      </trkpt>
      <trkpt lat="44.06216" lon="4.66929">
        <ele>169.3</ele>
        <time>2012-06-13T07:57:05.000Z</time>
      </trkpt>
      <trkpt lat="44.06211" lon="4.66935">
        <ele>168.7</ele>
        <time>2012-06-13T07:57:06.000Z</time>
      </trkpt>
      <trkpt lat="44.06206" lon="4.6694">
        <ele>169.1</ele>
        <time>2012-06-13T07:57:07.000Z</time>
      </trkpt>
      <trkpt lat="44.062" lon="4.66945">
        <ele>168.9</ele>
        <time>2012-06-13T07:57:08.000Z</time>
      </trkpt>
      <trkpt lat="44.06195" lon="4.66951">
        <ele>168.3</ele>
        <time>2012-06-13T07:57:09.000Z</time>
      </trkpt>
      <trkpt lat="44.06192" lon="4.66957">
        <ele>168.5</ele>
        <time>2012-06-13T07:57:10.000Z</time>
      </trkpt>
      <trkpt lat="44.06188" lon="4.66962">
        <ele>168.5</ele>
        <time>2012-06-13T07:57:11.000Z</time>
      </trkpt>
      <trkpt lat="44.06184" lon="4.66967">
        <ele>169</ele>
        <time>2012-06-13T07:57:12.000Z</time>
      </trkpt>
      <trkpt lat="44.06179" lon="4.66972">
        <ele>169.2</ele>
        <time>2012-06-13T07:57:13.000Z</time>
      </trkpt>
      <trkpt lat="44.06174" lon="4.66978">
        <ele>169.3</ele>
        <time>2012-06-13T07:57:14.000Z</time>
      </trkpt>
      <trkpt lat="44.0617" lon="4.66982">
        <ele>169.1</ele>
        <time>2012-06-13T07:57:15.000Z</time>
      </trkpt>
      <trkpt lat="44.06166" lon="4.66986">
        <ele>169.1</ele>
        <time>2012-06-13T07:57:16.000Z</time>
      </trkpt>
      <trkpt lat="44.06162" lon="4.6699">
        <ele>169.2</ele>
        <time>2012-06-13T07:57:17.000Z</time>
      </trkpt>
      <trkpt lat="44.06158" lon="4.66994">
        <ele>169.2</ele>
        <time>2012-06-13T07:57:18.000Z</time>
      </trkpt>
      <trkpt lat="44.06148" lon="4.67003">
        <ele>169</ele>
        <time>2012-06-13T07:57:20.000Z</time>
      </trkpt>
      <trkpt lat="44.06145" lon="4.67009">
        <ele>169.3</ele>
        <time>2012-06-13T07:57:21.000Z</time>
      </trkpt>
      <trkpt lat="44.06141" lon="4.67013">
        <ele>169.2</ele>
        <time>2012-06-13T07:57:22.000Z</time>
      </trkpt>
      <trkpt lat="44.06135" lon="4.67018">
        <ele>168.9</ele>
        <time>2012-06-13T07:57:24.000Z</time>
      </trkpt>
      <trkpt lat="44.0613" lon="4.67022">
        <ele>168.7</ele>
        <time>2012-06-13T07:57:26.000Z</time>
      </trkpt>
      <trkpt lat="44.06125" lon="4.67027">
        <ele>168.3</ele>
        <time>2012-06-13T07:57:28.000Z</time>
      </trkpt>
      <trkpt lat="44.0612" lon="4.67034">
        <ele>168.5</ele>
        <time>2012-06-13T07:57:30.000Z</time>
      </trkpt>
      <trkpt lat="44.06116" lon="4.6704">
        <ele>168</ele>
        <time>2012-06-13T07:57:32.000Z</time>
      </trkpt>
      <trkpt lat="44.06112" lon="4.67046">
        <ele>169.1</ele>
        <time>2012-06-13T07:57:34.000Z</time>
      </trkpt>
      <trkpt lat="44.06107" lon="4.67052">
        <ele>169.6</ele>
        <time>2012-06-13T07:57:36.000Z</time>
      </trkpt>
      <trkpt lat="44.06101" lon="4.67058">
        <ele>169.8</ele>
        <time>2012-06-13T07:57:38.000Z</time>
      </trkpt>
      <trkpt lat="44.06095" lon="4.67062">
        <ele>171</ele>
        <time>2012-06-13T07:57:40.000Z</time>
      </trkpt>
      <trkpt lat="44.06091" lon="4.67066">
        <ele>171.7</ele>
        <time>2012-06-13T07:57:42.000Z</time>
      </trkpt>
      <trkpt lat="44.06087" lon="4.67072">
        <ele>171.6</ele>
        <time>2012-06-13T07:57:44.000Z</time>
      </trkpt>
      <trkpt lat="44.06083" lon="4.67078">
        <ele>171.2</ele>
        <time>2012-06-13T07:57:46.000Z</time>
      </trkpt>
      <trkpt lat="44.06078" lon="4.67084">
        <ele>171.7</ele>
        <time>2012-06-13T07:57:48.000Z</time>
      </trkpt>
      <trkpt lat="44.06074" lon="4.67089">
        <ele>172.4</ele>
        <time>2012-06-13T07:57:50.000Z</time>
      </trkpt>
      <trkpt lat="44.06069" lon="4.67094">
        <ele>172.7</ele>
        <time>2012-06-13T07:57:52.000Z</time>
      </trkpt>
      <trkpt lat="44.06064" lon="4.67102">
        <ele>174</ele>
        <time>2012-06-13T07:57:55.000Z</time>
      </trkpt>
      <trkpt lat="44.0606" lon="4.67107">
        <ele>173.6</ele>
        <time>2012-06-13T07:57:57.000Z</time>
      </trkpt>
      <trkpt lat="44.06056" lon="4.67112">
        <ele>173.1</ele>
        <time>2012-06-13T07:57:59.000Z</time>
      </trkpt>
      <trkpt lat="44.06052" lon="4.67118">
        <ele>173.1</ele>
        <time>2012-06-13T07:58:01.000Z</time>
      </trkpt>
      <trkpt lat="44.06046" lon="4.67123">
        <ele>173.9</ele>
        <time>2012-06-13T07:58:03.000Z</time>
      </trkpt>
      <trkpt lat="44.06041" lon="4.67128">
        <ele>173.4</ele>
        <time>2012-06-13T07:58:05.000Z</time>
      </trkpt>
      <trkpt lat="44.06038" lon="4.67135">
        <ele>173.7</ele>
        <time>2012-06-13T07:58:07.000Z</time>
      </trkpt>
      <trkpt lat="44.06033" lon="4.67139">
        <ele>173.1</ele>
        <time>2012-06-13T07:58:09.000Z</time>
      </trkpt>
      <trkpt lat="44.06028" lon="4.67145">
        <ele>173.5</ele>
        <time>2012-06-13T07:58:11.000Z</time>
      </trkpt>
      <trkpt lat="44.06023" lon="4.67148">
        <ele>174</ele>
        <time>2012-06-13T07:58:13.000Z</time>
      </trkpt>
      <trkpt lat="44.06019" lon="4.67152">
        <ele>174.2</ele>
        <time>2012-06-13T07:58:15.000Z</time>
      </trkpt>
      <trkpt lat="44.06013" lon="4.67156">
        <ele>175.6</ele>
        <time>2012-06-13T07:58:17.000Z</time>
      </trkpt>
      <trkpt lat="44.06007" lon="4.67158">
        <ele>178.2</ele>
        <time>2012-06-13T07:58:19.000Z</time>
      </trkpt>
      <trkpt lat="44.06001" lon="4.67161">
        <ele>179.5</ele>
        <time>2012-06-13T07:58:21.000Z</time>
      </trkpt>
      <trkpt lat="44.05996" lon="4.67164">
        <ele>178.4</ele>
        <time>2012-06-13T07:58:23.000Z</time>
      </trkpt>
      <trkpt lat="44.0599" lon="4.67168">
        <ele>178.2</ele>
        <time>2012-06-13T07:58:26.000Z</time>
      </trkpt>
      <trkpt lat="44.05985" lon="4.67171">
        <ele>177.7</ele>
        <time>2012-06-13T07:58:28.000Z</time>
      </trkpt>
      <trkpt lat="44.05981" lon="4.67174">
        <ele>177.8</ele>
        <time>2012-06-13T07:58:30.000Z</time>
      </trkpt>
      <trkpt lat="44.05975" lon="4.67177">
        <ele>176.5</ele>
        <time>2012-06-13T07:58:33.000Z</time>
      </trkpt>
      <trkpt lat="44.05968" lon="4.67179">
        <ele>176.4</ele>
        <time>2012-06-13T07:58:35.000Z</time>
      </trkpt>
      <trkpt lat="44.05964" lon="4.67181">
        <ele>176.9</ele>
        <time>2012-06-13T07:58:37.000Z</time>
      </trkpt>
      <trkpt lat="44.05959" lon="4.67186">
        <ele>178.1</ele>
        <time>2012-06-13T07:58:39.000Z</time>
      </trkpt>
      <trkpt lat="44.05953" lon="4.67189">
        <ele>177.3</ele>
        <time>2012-06-13T07:58:41.000Z</time>
      </trkpt>
      <trkpt lat="44.05947" lon="4.67196">
        <ele>176.2</ele>
        <time>2012-06-13T07:58:44.000Z</time>
      </trkpt>
      <trkpt lat="44.05943" lon="4.67199">
        <ele>176.1</ele>
        <time>2012-06-13T07:58:46.000Z</time>
      </trkpt>
      <trkpt lat="44.05938" lon="4.67201">
        <ele>176.2</ele>
        <time>2012-06-13T07:58:48.000Z</time>
      </trkpt>
      <trkpt lat="44.05934" lon="4.67205">
        <ele>176.1</ele>
        <time>2012-06-13T07:58:50.000Z</time>
      </trkpt>
      <trkpt lat="44.05929" lon="4.67208">
        <ele>176</ele>
        <time>2012-06-13T07:58:52.000Z</time>
      </trkpt>
      <trkpt lat="44.05922" lon="4.67212">
        <ele>176.1</ele>
        <time>2012-06-13T07:58:54.000Z</time>
      </trkpt>
      <trkpt lat="44.05916" lon="4.67216">
        <ele>176.5</ele>
        <time>2012-06-13T07:58:56.000Z</time>
      </trkpt>
      <trkpt lat="44.05909" lon="4.6722">
        <ele>177.7</ele>
        <time>2012-06-13T07:58:58.000Z</time>
      </trkpt>
      <trkpt lat="44.05903" lon="4.67225">
        <ele>177.8</ele>
        <time>2012-06-13T07:59:00.000Z</time>
      </trkpt>
      <trkpt lat="44.05896" lon="4.67227">
        <ele>176.5</ele>
        <time>2012-06-13T07:59:02.000Z</time>
      </trkpt>
      <trkpt lat="44.0589" lon="4.67233">
        <ele>176.5</ele>
        <time>2012-06-13T07:59:04.000Z</time>
      </trkpt>
      <trkpt lat="44.05882" lon="4.67238">
        <ele>178.2</ele>
        <time>2012-06-13T07:59:06.000Z</time>
      </trkpt>
      <trkpt lat="44.05876" lon="4.67236">
        <ele>178.9</ele>
        <time>2012-06-13T07:59:07.000Z</time>
      </trkpt>
      <trkpt lat="44.05866" lon="4.67237">
        <ele>179.1</ele>
        <time>2012-06-13T07:59:09.000Z</time>
      </trkpt>
      <trkpt lat="44.0586" lon="4.67238">
        <ele>179.6</ele>
        <time>2012-06-13T07:59:10.000Z</time>
      </trkpt>
      <trkpt lat="44.05854" lon="4.67238">
        <ele>179.6</ele>
        <time>2012-06-13T07:59:11.000Z</time>
      </trkpt>
      <trkpt lat="44.05849" lon="4.67238">
        <ele>179.5</ele>
        <time>2012-06-13T07:59:12.000Z</time>
      </trkpt>
      <trkpt lat="44.05843" lon="4.67239">
        <ele>179.6</ele>
        <time>2012-06-13T07:59:13.000Z</time>
      </trkpt>
      <trkpt lat="44.05837" lon="4.67238">
        <ele>179.9</ele>
        <time>2012-06-13T07:59:14.000Z</time>
      </trkpt>
      <trkpt lat="44.0583" lon="4.67239">
        <ele>179.7</ele>
        <time>2012-06-13T07:59:15.000Z</time>
      </trkpt>
      <trkpt lat="44.05824" lon="4.67238">
        <ele>180</ele>
        <time>2012-06-13T07:59:16.000Z</time>
      </trkpt>
      <trkpt lat="44.05816" lon="4.67238">
        <ele>180.2</ele>
        <time>2012-06-13T07:59:17.000Z</time>
      </trkpt>
      <trkpt lat="44.05809" lon="4.67241">
        <ele>180.4</ele>
        <time>2012-06-13T07:59:18.000Z</time>
      </trkpt>
      <trkpt lat="44.05804" lon="4.67247">
        <ele>180.6</ele>
        <time>2012-06-13T07:59:19.000Z</time>
      </trkpt>
      <trkpt lat="44.05797" lon="4.67253">
        <ele>180.9</ele>
        <time>2012-06-13T07:59:20.000Z</time>
      </trkpt>
      <trkpt lat="44.05794" lon="4.67262">
        <ele>181.5</ele>
        <time>2012-06-13T07:59:21.000Z</time>
      </trkpt>
      <trkpt lat="44.05791" lon="4.67271">
        <ele>182</ele>
        <time>2012-06-13T07:59:22.000Z</time>
      </trkpt>
      <trkpt lat="44.05789" lon="4.6728">
        <ele>182.9</ele>
        <time>2012-06-13T07:59:23.000Z</time>
      </trkpt>
      <trkpt lat="44.05788" lon="4.67287">
        <ele>183.5</ele>
        <time>2012-06-13T07:59:24.000Z</time>
      </trkpt>
      <trkpt lat="44.05788" lon="4.67293">
        <ele>183.3</ele>
        <time>2012-06-13T07:59:25.000Z</time>
      </trkpt>
      <trkpt lat="44.05789" lon="4.673">
        <ele>183.3</ele>
        <time>2012-06-13T07:59:26.000Z</time>
      </trkpt>
      <trkpt lat="44.0579" lon="4.67309">
        <ele>183.5</ele>
        <time>2012-06-13T07:59:28.000Z</time>
      </trkpt>
      <trkpt lat="44.0579" lon="4.67318">
        <ele>183.2</ele>
        <time>2012-06-13T07:59:30.000Z</time>
      </trkpt>
      <trkpt lat="44.05791" lon="4.67325">
        <ele>182.8</ele>
        <time>2012-06-13T07:59:32.000Z</time>
      </trkpt>
      <trkpt lat="44.05794" lon="4.6733">
        <ele>182.4</ele>
        <time>2012-06-13T07:59:34.000Z</time>
      </trkpt>
      <trkpt lat="44.05796" lon="4.67336">
        <ele>181.5</ele>
        <time>2012-06-13T07:59:36.000Z</time>
      </trkpt>
      <trkpt lat="44.05797" lon="4.67346">
        <ele>180.6</ele>
        <time>2012-06-13T07:59:39.000Z</time>
      </trkpt>
      <trkpt lat="44.05796" lon="4.67353">
        <ele>183</ele>
        <time>2012-06-13T07:59:41.000Z</time>
      </trkpt>
      <trkpt lat="44.05796" lon="4.6736">
        <ele>183.9</ele>
        <time>2012-06-13T07:59:43.000Z</time>
      </trkpt>
      <trkpt lat="44.05796" lon="4.67368">
        <ele>184.4</ele>
        <time>2012-06-13T07:59:45.000Z</time>
      </trkpt>
      <trkpt lat="44.05796" lon="4.67374">
        <ele>184.8</ele>
        <time>2012-06-13T07:59:47.000Z</time>
      </trkpt>
      <trkpt lat="44.05796" lon="4.67382">
        <ele>185.4</ele>
        <time>2012-06-13T07:59:49.000Z</time>
      </trkpt>
      <trkpt lat="44.05796" lon="4.6739">
        <ele>185.9</ele>
        <time>2012-06-13T07:59:51.000Z</time>
      </trkpt>
      <trkpt lat="44.05796" lon="4.67397">
        <ele>185.8</ele>
        <time>2012-06-13T07:59:53.000Z</time>
      </trkpt>
      <trkpt lat="44.05794" lon="4.67406">
        <ele>185.6</ele>
        <time>2012-06-13T07:59:56.000Z</time>
      </trkpt>
      <trkpt lat="44.05793" lon="4.67414">
        <ele>185.6</ele>
        <time>2012-06-13T07:59:58.000Z</time>
      </trkpt>
      <trkpt lat="44.05792" lon="4.67421">
        <ele>185.9</ele>
        <time>2012-06-13T08:00:00.000Z</time>
      </trkpt>
      <trkpt lat="44.0579" lon="4.6743">
        <ele>186.8</ele>
        <time>2012-06-13T08:00:03.000Z</time>
      </trkpt>
      <trkpt lat="44.0579" lon="4.67439">
        <ele>187.2</ele>
        <time>2012-06-13T08:00:06.000Z</time>
      </trkpt>
      <trkpt lat="44.05787" lon="4.67447">
        <ele>186.6</ele>
        <time>2012-06-13T08:00:08.000Z</time>
      </trkpt>
      <trkpt lat="44.05784" lon="4.67454">
        <ele>186.1</ele>
        <time>2012-06-13T08:00:10.000Z</time>
      </trkpt>
      <trkpt lat="44.05785" lon="4.67463">
        <ele>185.2</ele>
        <time>2012-06-13T08:00:13.000Z</time>
      </trkpt>
      <trkpt lat="44.05786" lon="4.67469">
        <ele>185.3</ele>
        <time>2012-06-13T08:00:15.000Z</time>
      </trkpt>
      <trkpt lat="44.05787" lon="4.67478">
        <ele>186.1</ele>
        <time>2012-06-13T08:00:17.000Z</time>
      </trkpt>
      <trkpt lat="44.05787" lon="4.67486">
        <ele>187.4</ele>
        <time>2012-06-13T08:00:19.000Z</time>
      </trkpt>
      <trkpt lat="44.05788" lon="4.67493">
        <ele>189</ele>
        <time>2012-06-13T08:00:21.000Z</time>
      </trkpt>
      <trkpt lat="44.05789" lon="4.67501">
        <ele>189</ele>
        <time>2012-06-13T08:00:23.000Z</time>
      </trkpt>
      <trkpt lat="44.0579" lon="4.6751">
        <ele>189.9</ele>
        <time>2012-06-13T08:00:25.000Z</time>
      </trkpt>
      <trkpt lat="44.0579" lon="4.67517">
        <ele>190.1</ele>
        <time>2012-06-13T08:00:27.000Z</time>
      </trkpt>
      <trkpt lat="44.05786" lon="4.67524">
        <ele>189.6</ele>
        <time>2012-06-13T08:00:29.000Z</time>
      </trkpt>
      <trkpt lat="44.05786" lon="4.67532">
        <ele>190.6</ele>
        <time>2012-06-13T08:00:31.000Z</time>
      </trkpt>
      <trkpt lat="44.05786" lon="4.6754">
        <ele>191.1</ele>
        <time>2012-06-13T08:00:33.000Z</time>
      </trkpt>
      <trkpt lat="44.05786" lon="4.67547">
        <ele>190.6</ele>
        <time>2012-06-13T08:00:35.000Z</time>
      </trkpt>
      <trkpt lat="44.05786" lon="4.67554">
        <ele>192.1</ele>
        <time>2012-06-13T08:00:37.000Z</time>
      </trkpt>
      <trkpt lat="44.05785" lon="4.67562">
        <ele>192.5</ele>
        <time>2012-06-13T08:00:39.000Z</time>
      </trkpt>
      <trkpt lat="44.05786" lon="4.67571">
        <ele>193.1</ele>
        <time>2012-06-13T08:00:41.000Z</time>
      </trkpt>
      <trkpt lat="44.05784" lon="4.67581">
        <ele>194.9</ele>
        <time>2012-06-13T08:00:43.000Z</time>
      </trkpt>
      <trkpt lat="44.05782" lon="4.67591">
        <ele>195.6</ele>
        <time>2012-06-13T08:00:45.000Z</time>
      </trkpt>
      <trkpt lat="44.0578" lon="4.67598">
        <ele>195.3</ele>
        <time>2012-06-13T08:00:47.000Z</time>
      </trkpt>
      <trkpt lat="44.05779" lon="4.67606">
        <ele>196.2</ele>
        <time>2012-06-13T08:00:49.000Z</time>
      </trkpt>
      <trkpt lat="44.0578" lon="4.67612">
        <ele>196.9</ele>
        <time>2012-06-13T08:00:51.000Z</time>
      </trkpt>
      <trkpt lat="44.05778" lon="4.67619">
        <ele>197.2</ele>
        <time>2012-06-13T08:00:53.000Z</time>
      </trkpt>
      <trkpt lat="44.05776" lon="4.67627">
        <ele>197.9</ele>
        <time>2012-06-13T08:00:55.000Z</time>
      </trkpt>
      <trkpt lat="44.05773" lon="4.67635">
        <ele>199.2</ele>
        <time>2012-06-13T08:00:57.000Z</time>
      </trkpt>
      <trkpt lat="44.05772" lon="4.67643">
        <ele>199.8</ele>
        <time>2012-06-13T08:00:59.000Z</time>
      </trkpt>
      <trkpt lat="44.05769" lon="4.6765">
        <ele>200.7</ele>
        <time>2012-06-13T08:01:01.000Z</time>
      </trkpt>
      <trkpt lat="44.05768" lon="4.67657">
        <ele>200.4</ele>
        <time>2012-06-13T08:01:03.000Z</time>
      </trkpt>
      <trkpt lat="44.05766" lon="4.67665">
        <ele>200.6</ele>
        <time>2012-06-13T08:01:05.000Z</time>
      </trkpt>
      <trkpt lat="44.05764" lon="4.67673">
        <ele>201.1</ele>
        <time>2012-06-13T08:01:07.000Z</time>
      </trkpt>
      <trkpt lat="44.05762" lon="4.67681">
        <ele>201.9</ele>
        <time>2012-06-13T08:01:09.000Z</time>
      </trkpt>
      <trkpt lat="44.0576" lon="4.67691">
        <ele>201.3</ele>
        <time>2012-06-13T08:01:12.000Z</time>
      </trkpt>
      <trkpt lat="44.05755" lon="4.67697">
        <ele>202.2</ele>
        <time>2012-06-13T08:01:14.000Z</time>
      </trkpt>
      <trkpt lat="44.05754" lon="4.67704">
        <ele>203</ele>
        <time>2012-06-13T08:01:16.000Z</time>
      </trkpt>
      <trkpt lat="44.05751" lon="4.67711">
        <ele>203</ele>
        <time>2012-06-13T08:01:18.000Z</time>
      </trkpt>
      <trkpt lat="44.05748" lon="4.67719">
        <ele>203.3</ele>
        <time>2012-06-13T08:01:20.000Z</time>
      </trkpt>
      <trkpt lat="44.05744" lon="4.67728">
        <ele>204.9</ele>
        <time>2012-06-13T08:01:22.000Z</time>
      </trkpt>
      <trkpt lat="44.0574" lon="4.67739">
        <ele>205.1</ele>
        <time>2012-06-13T08:01:24.000Z</time>
      </trkpt>
      <trkpt lat="44.05735" lon="4.6775">
        <ele>204.7</ele>
        <time>2012-06-13T08:01:26.000Z</time>
      </trkpt>
      <trkpt lat="44.05733" lon="4.67757">
        <ele>205</ele>
        <time>2012-06-13T08:01:27.000Z</time>
      </trkpt>
      <trkpt lat="44.05731" lon="4.67763">
        <ele>205.2</ele>
        <time>2012-06-13T08:01:28.000Z</time>
      </trkpt>
      <trkpt lat="44.05728" lon="4.6777">
        <ele>205.4</ele>
        <time>2012-06-13T08:01:29.000Z</time>
      </trkpt>
      <trkpt lat="44.05725" lon="4.67778">
        <ele>204.8</ele>
        <time>2012-06-13T08:01:30.000Z</time>
      </trkpt>
      <trkpt lat="44.05724" lon="4.67785">
        <ele>204.2</ele>
        <time>2012-06-13T08:01:31.000Z</time>
      </trkpt>
      <trkpt lat="44.0572" lon="4.67792">
        <ele>203.8</ele>
        <time>2012-06-13T08:01:32.000Z</time>
      </trkpt>
      <trkpt lat="44.05718" lon="4.67799">
        <ele>202.2</ele>
        <time>2012-06-13T08:01:33.000Z</time>
      </trkpt>
      <trkpt lat="44.05716" lon="4.67806">
        <ele>201.7</ele>
        <time>2012-06-13T08:01:34.000Z</time>
      </trkpt>
      <trkpt lat="44.05714" lon="4.67814">
        <ele>200.9</ele>
        <time>2012-06-13T08:01:35.000Z</time>
      </trkpt>
      <trkpt lat="44.05712" lon="4.67821">
        <ele>200.8</ele>
        <time>2012-06-13T08:01:36.000Z</time>
      </trkpt>
      <trkpt lat="44.0571" lon="4.67829">
        <ele>200.1</ele>
        <time>2012-06-13T08:01:37.000Z</time>
      </trkpt>
      <trkpt lat="44.05708" lon="4.67836">
        <ele>200</ele>
        <time>2012-06-13T08:01:38.000Z</time>
      </trkpt>
      <trkpt lat="44.05706" lon="4.67844">
        <ele>200.1</ele>
        <time>2012-06-13T08:01:39.000Z</time>
      </trkpt>
      <trkpt lat="44.05703" lon="4.67852">
        <ele>199.2</ele>
        <time>2012-06-13T08:01:40.000Z</time>
      </trkpt>
      <trkpt lat="44.05702" lon="4.6786">
        <ele>199.6</ele>
        <time>2012-06-13T08:01:41.000Z</time>
      </trkpt>
      <trkpt lat="44.057" lon="4.67868">
        <ele>199.8</ele>
        <time>2012-06-13T08:01:42.000Z</time>
      </trkpt>
      <trkpt lat="44.05697" lon="4.67875">
        <ele>200</ele>
        <time>2012-06-13T08:01:43.000Z</time>
      </trkpt>
      <trkpt lat="44.05695" lon="4.67883">
        <ele>200.2</ele>
        <time>2012-06-13T08:01:44.000Z</time>
      </trkpt>
      <trkpt lat="44.05693" lon="4.6789">
        <ele>200.6</ele>
        <time>2012-06-13T08:01:45.000Z</time>
      </trkpt>
      <trkpt lat="44.05691" lon="4.67898">
        <ele>200.4</ele>
        <time>2012-06-13T08:01:46.000Z</time>
      </trkpt>
      <trkpt lat="44.05688" lon="4.67906">
        <ele>199.7</ele>
        <time>2012-06-13T08:01:47.000Z</time>
      </trkpt>
      <trkpt lat="44.05687" lon="4.67913">
        <ele>199.6</ele>
        <time>2012-06-13T08:01:48.000Z</time>
      </trkpt>
      <trkpt lat="44.05687" lon="4.6792">
        <ele>199</ele>
        <time>2012-06-13T08:01:49.000Z</time>
      </trkpt>
      <trkpt lat="44.05685" lon="4.67927">
        <ele>199.7</ele>
        <time>2012-06-13T08:01:50.000Z</time>
      </trkpt>
      <trkpt lat="44.05684" lon="4.67934">
        <ele>199.5</ele>
        <time>2012-06-13T08:01:51.000Z</time>
      </trkpt>
      <trkpt lat="44.05682" lon="4.67942">
        <ele>199.2</ele>
        <time>2012-06-13T08:01:52.000Z</time>
      </trkpt>
      <trkpt lat="44.0568" lon="4.67948">
        <ele>198.9</ele>
        <time>2012-06-13T08:01:53.000Z</time>
      </trkpt>
      <trkpt lat="44.05679" lon="4.67956">
        <ele>199.1</ele>
        <time>2012-06-13T08:01:54.000Z</time>
      </trkpt>
      <trkpt lat="44.05677" lon="4.67967">
        <ele>198.6</ele>
        <time>2012-06-13T08:01:56.000Z</time>
      </trkpt>
      <trkpt lat="44.05674" lon="4.67979">
        <ele>198.7</ele>
        <time>2012-06-13T08:01:58.000Z</time>
      </trkpt>
      <trkpt lat="44.05671" lon="4.67986">
        <ele>198.6</ele>
        <time>2012-06-13T08:01:59.000Z</time>
      </trkpt>
      <trkpt lat="44.05671" lon="4.67993">
        <ele>198.7</ele>
        <time>2012-06-13T08:02:00.000Z</time>
      </trkpt>
      <trkpt lat="44.05669" lon="4.68001">
        <ele>198.2</ele>
        <time>2012-06-13T08:02:01.000Z</time>
      </trkpt>
      <trkpt lat="44.05668" lon="4.68008">
        <ele>198.2</ele>
        <time>2012-06-13T08:02:02.000Z</time>
      </trkpt>
      <trkpt lat="44.05666" lon="4.68016">
        <ele>197.9</ele>
        <time>2012-06-13T08:02:03.000Z</time>
      </trkpt>
      <trkpt lat="44.05663" lon="4.68025">
        <ele>197.5</ele>
        <time>2012-06-13T08:02:04.000Z</time>
      </trkpt>
      <trkpt lat="44.05662" lon="4.68032">
        <ele>197.3</ele>
        <time>2012-06-13T08:02:05.000Z</time>
      </trkpt>
      <trkpt lat="44.05659" lon="4.68041">
        <ele>197.2</ele>
        <time>2012-06-13T08:02:06.000Z</time>
      </trkpt>
      <trkpt lat="44.05658" lon="4.68049">
        <ele>197.4</ele>
        <time>2012-06-13T08:02:07.000Z</time>
      </trkpt>
      <trkpt lat="44.05655" lon="4.68057">
        <ele>197</ele>
        <time>2012-06-13T08:02:08.000Z</time>
      </trkpt>
      <trkpt lat="44.05656" lon="4.68066">
        <ele>196.5</ele>
        <time>2012-06-13T08:02:09.000Z</time>
      </trkpt>
      <trkpt lat="44.05654" lon="4.68076">
        <ele>196.5</ele>
        <time>2012-06-13T08:02:10.000Z</time>
      </trkpt>
      <trkpt lat="44.05654" lon="4.68084">
        <ele>196.2</ele>
        <time>2012-06-13T08:02:11.000Z</time>
      </trkpt>
      <trkpt lat="44.05655" lon="4.68092">
        <ele>195.5</ele>
        <time>2012-06-13T08:02:12.000Z</time>
      </trkpt>
      <trkpt lat="44.05658" lon="4.68101">
        <ele>195.5</ele>
        <time>2012-06-13T08:02:13.000Z</time>
      </trkpt>
      <trkpt lat="44.05661" lon="4.68106">
        <ele>195.7</ele>
        <time>2012-06-13T08:02:14.000Z</time>
      </trkpt>
      <trkpt lat="44.05665" lon="4.68112">
        <ele>195.9</ele>
        <time>2012-06-13T08:02:15.000Z</time>
      </trkpt>
      <trkpt lat="44.05669" lon="4.68116">
        <ele>195.6</ele>
        <time>2012-06-13T08:02:16.000Z</time>
      </trkpt>
      <trkpt lat="44.05674" lon="4.68118">
        <ele>195.6</ele>
        <time>2012-06-13T08:02:17.000Z</time>
      </trkpt>
      <trkpt lat="44.0568" lon="4.68122">
        <ele>195.7</ele>
        <time>2012-06-13T08:02:18.000Z</time>
      </trkpt>
      <trkpt lat="44.05687" lon="4.68129">
        <ele>195.6</ele>
        <time>2012-06-13T08:02:20.000Z</time>
      </trkpt>
      <trkpt lat="44.05696" lon="4.68134">
        <ele>195.5</ele>
        <time>2012-06-13T08:02:22.000Z</time>
      </trkpt>
      <trkpt lat="44.05701" lon="4.68139">
        <ele>195.8</ele>
        <time>2012-06-13T08:02:23.000Z</time>
      </trkpt>
      <trkpt lat="44.05706" lon="4.68144">
        <ele>195.8</ele>
        <time>2012-06-13T08:02:24.000Z</time>
      </trkpt>
      <trkpt lat="44.05712" lon="4.68151">
        <ele>196.1</ele>
        <time>2012-06-13T08:02:25.000Z</time>
      </trkpt>
      <trkpt lat="44.05717" lon="4.68159">
        <ele>194.5</ele>
        <time>2012-06-13T08:02:26.000Z</time>
      </trkpt>
      <trkpt lat="44.05722" lon="4.68166">
        <ele>194.4</ele>
        <time>2012-06-13T08:02:27.000Z</time>
      </trkpt>
      <trkpt lat="44.05724" lon="4.68174">
        <ele>194.9</ele>
        <time>2012-06-13T08:02:28.000Z</time>
      </trkpt>
      <trkpt lat="44.05727" lon="4.68183">
        <ele>194.7</ele>
        <time>2012-06-13T08:02:29.000Z</time>
      </trkpt>
      <trkpt lat="44.05728" lon="4.68192">
        <ele>194.5</ele>
        <time>2012-06-13T08:02:30.000Z</time>
      </trkpt>
      <trkpt lat="44.05728" lon="4.682">
        <ele>194.2</ele>
        <time>2012-06-13T08:02:31.000Z</time>
      </trkpt>
      <trkpt lat="44.05726" lon="4.68211">
        <ele>194.7</ele>
        <time>2012-06-13T08:02:32.000Z</time>
      </trkpt>
      <trkpt lat="44.05725" lon="4.68219">
        <ele>193.3</ele>
        <time>2012-06-13T08:02:33.000Z</time>
      </trkpt>
      <trkpt lat="44.05723" lon="4.68227">
        <ele>192.5</ele>
        <time>2012-06-13T08:02:34.000Z</time>
      </trkpt>
      <trkpt lat="44.05721" lon="4.68235">
        <ele>192.1</ele>
        <time>2012-06-13T08:02:35.000Z</time>
      </trkpt>
      <trkpt lat="44.0572" lon="4.68244">
        <ele>191.9</ele>
        <time>2012-06-13T08:02:36.000Z</time>
      </trkpt>
      <trkpt lat="44.05719" lon="4.68253">
        <ele>190.5</ele>
        <time>2012-06-13T08:02:37.000Z</time>
      </trkpt>
      <trkpt lat="44.05718" lon="4.68262">
        <ele>190.9</ele>
        <time>2012-06-13T08:02:38.000Z</time>
      </trkpt>
      <trkpt lat="44.05716" lon="4.6827">
        <ele>190.3</ele>
        <time>2012-06-13T08:02:39.000Z</time>
      </trkpt>
      <trkpt lat="44.05714" lon="4.68278">
        <ele>190.4</ele>
        <time>2012-06-13T08:02:40.000Z</time>
      </trkpt>
      <trkpt lat="44.05712" lon="4.68289">
        <ele>190.1</ele>
        <time>2012-06-13T08:02:41.000Z</time>
      </trkpt>
      <trkpt lat="44.0571" lon="4.683">
        <ele>189.9</ele>
        <time>2012-06-13T08:02:42.000Z</time>
      </trkpt>
      <trkpt lat="44.05709" lon="4.6831">
        <ele>189.7</ele>
        <time>2012-06-13T08:02:43.000Z</time>
      </trkpt>
      <trkpt lat="44.05707" lon="4.6832">
        <ele>189.9</ele>
        <time>2012-06-13T08:02:44.000Z</time>
      </trkpt>
      <trkpt lat="44.05706" lon="4.68329">
        <ele>189.5</ele>
        <time>2012-06-13T08:02:45.000Z</time>
      </trkpt>
      <trkpt lat="44.05704" lon="4.68339">
        <ele>188.7</ele>
        <time>2012-06-13T08:02:46.000Z</time>
      </trkpt>
      <trkpt lat="44.05701" lon="4.68352">
        <ele>188.3</ele>
        <time>2012-06-13T08:02:47.000Z</time>
      </trkpt>
      <trkpt lat="44.05699" lon="4.68364">
        <ele>187.4</ele>
        <time>2012-06-13T08:02:48.000Z</time>
      </trkpt>
      <trkpt lat="44.05697" lon="4.68375">
        <ele>186.8</ele>
        <time>2012-06-13T08:02:49.000Z</time>
      </trkpt>
      <trkpt lat="44.05696" lon="4.68386">
        <ele>186.2</ele>
        <time>2012-06-13T08:02:50.000Z</time>
      </trkpt>
      <trkpt lat="44.05694" lon="4.68398">
        <ele>186.2</ele>
        <time>2012-06-13T08:02:51.000Z</time>
      </trkpt>
      <trkpt lat="44.05692" lon="4.68409">
        <ele>185.9</ele>
        <time>2012-06-13T08:02:52.000Z</time>
      </trkpt>
      <trkpt lat="44.0569" lon="4.68421">
        <ele>186</ele>
        <time>2012-06-13T08:02:53.000Z</time>
      </trkpt>
      <trkpt lat="44.05689" lon="4.68434">
        <ele>185.9</ele>
        <time>2012-06-13T08:02:54.000Z</time>
      </trkpt>
      <trkpt lat="44.05687" lon="4.68445">
        <ele>184.7</ele>
        <time>2012-06-13T08:02:55.000Z</time>
      </trkpt>
      <trkpt lat="44.05685" lon="4.68457">
        <ele>184.9</ele>
        <time>2012-06-13T08:02:56.000Z</time>
      </trkpt>
      <trkpt lat="44.05682" lon="4.68468">
        <ele>184</ele>
        <time>2012-06-13T08:02:57.000Z</time>
      </trkpt>
      <trkpt lat="44.0568" lon="4.6848">
        <ele>183.7</ele>
        <time>2012-06-13T08:02:58.000Z</time>
      </trkpt>
      <trkpt lat="44.05676" lon="4.68492">
        <ele>183.4</ele>
        <time>2012-06-13T08:02:59.000Z</time>
      </trkpt>
      <trkpt lat="44.05673" lon="4.68503">
        <ele>183.5</ele>
        <time>2012-06-13T08:03:00.000Z</time>
      </trkpt>
      <trkpt lat="44.05668" lon="4.68515">
        <ele>182.6</ele>
        <time>2012-06-13T08:03:01.000Z</time>
      </trkpt>
      <trkpt lat="44.05663" lon="4.68527">
        <ele>182.5</ele>
        <time>2012-06-13T08:03:02.000Z</time>
      </trkpt>
      <trkpt lat="44.05658" lon="4.68538">
        <ele>182.9</ele>
        <time>2012-06-13T08:03:03.000Z</time>
      </trkpt>
      <trkpt lat="44.05652" lon="4.68548">
        <ele>182.8</ele>
        <time>2012-06-13T08:03:04.000Z</time>
      </trkpt>
      <trkpt lat="44.05646" lon="4.68559">
        <ele>182.6</ele>
        <time>2012-06-13T08:03:05.000Z</time>
      </trkpt>
      <trkpt lat="44.05641" lon="4.68571">
        <ele>181.6</ele>
        <time>2012-06-13T08:03:06.000Z</time>
      </trkpt>
      <trkpt lat="44.05635" lon="4.68582">
        <ele>180.7</ele>
        <time>2012-06-13T08:03:07.000Z</time>
      </trkpt>
      <trkpt lat="44.05629" lon="4.68593">
        <ele>179.8</ele>
        <time>2012-06-13T08:03:08.000Z</time>
      </trkpt>
      <trkpt lat="44.05624" lon="4.68605">
        <ele>179.8</ele>
        <time>2012-06-13T08:03:09.000Z</time>
      </trkpt>
      <trkpt lat="44.05618" lon="4.68616">
        <ele>178.5</ele>
        <time>2012-06-13T08:03:10.000Z</time>
      </trkpt>
      <trkpt lat="44.05612" lon="4.68627">
        <ele>178.1</ele>
        <time>2012-06-13T08:03:11.000Z</time>
      </trkpt>
      <trkpt lat="44.05607" lon="4.68638">
        <ele>177.5</ele>
        <time>2012-06-13T08:03:12.000Z</time>
      </trkpt>
      <trkpt lat="44.05601" lon="4.68647">
        <ele>177.3</ele>
        <time>2012-06-13T08:03:13.000Z</time>
      </trkpt>
      <trkpt lat="44.05596" lon="4.68658">
        <ele>176.8</ele>
        <time>2012-06-13T08:03:14.000Z</time>
      </trkpt>
      <trkpt lat="44.05591" lon="4.68669">
        <ele>176.7</ele>
        <time>2012-06-13T08:03:15.000Z</time>
      </trkpt>
      <trkpt lat="44.05587" lon="4.68679">
        <ele>176.3</ele>
        <time>2012-06-13T08:03:16.000Z</time>
      </trkpt>
      <trkpt lat="44.05582" lon="4.6869">
        <ele>176.4</ele>
        <time>2012-06-13T08:03:17.000Z</time>
      </trkpt>
      <trkpt lat="44.05578" lon="4.687">
        <ele>176.5</ele>
        <time>2012-06-13T08:03:18.000Z</time>
      </trkpt>
      <trkpt lat="44.05574" lon="4.68709">
        <ele>175.2</ele>
        <time>2012-06-13T08:03:19.000Z</time>
      </trkpt>
      <trkpt lat="44.05571" lon="4.6872">
        <ele>174.4</ele>
        <time>2012-06-13T08:03:20.000Z</time>
      </trkpt>
      <trkpt lat="44.05567" lon="4.6873">
        <ele>174.4</ele>
        <time>2012-06-13T08:03:21.000Z</time>
      </trkpt>
      <trkpt lat="44.05564" lon="4.6874">
        <ele>173.8</ele>
        <time>2012-06-13T08:03:22.000Z</time>
      </trkpt>
      <trkpt lat="44.05562" lon="4.68749">
        <ele>173.9</ele>
        <time>2012-06-13T08:03:23.000Z</time>
      </trkpt>
      <trkpt lat="44.0556" lon="4.68757">
        <ele>173.4</ele>
        <time>2012-06-13T08:03:24.000Z</time>
      </trkpt>
      <trkpt lat="44.05558" lon="4.68767">
        <ele>173.2</ele>
        <time>2012-06-13T08:03:25.000Z</time>
      </trkpt>
      <trkpt lat="44.05557" lon="4.68775">
        <ele>173.1</ele>
        <time>2012-06-13T08:03:26.000Z</time>
      </trkpt>
      <trkpt lat="44.05554" lon="4.68784">
        <ele>172.7</ele>
        <time>2012-06-13T08:03:27.000Z</time>
      </trkpt>
      <trkpt lat="44.05552" lon="4.68792">
        <ele>172.2</ele>
        <time>2012-06-13T08:03:28.000Z</time>
      </trkpt>
      <trkpt lat="44.05551" lon="4.68801">
        <ele>171.6</ele>
        <time>2012-06-13T08:03:29.000Z</time>
      </trkpt>
      <trkpt lat="44.05549" lon="4.6881">
        <ele>171.1</ele>
        <time>2012-06-13T08:03:30.000Z</time>
      </trkpt>
      <trkpt lat="44.05548" lon="4.68819">
        <ele>170.5</ele>
        <time>2012-06-13T08:03:31.000Z</time>
      </trkpt>
      <trkpt lat="44.05545" lon="4.68833">
        <ele>169.4</ele>
        <time>2012-06-13T08:03:32.000Z</time>
      </trkpt>
      <trkpt lat="44.05544" lon="4.68844">
        <ele>168.4</ele>
        <time>2012-06-13T08:03:33.000Z</time>
      </trkpt>
      <trkpt lat="44.05541" lon="4.68855">
        <ele>168.1</ele>
        <time>2012-06-13T08:03:34.000Z</time>
      </trkpt>
      <trkpt lat="44.05539" lon="4.68867">
        <ele>166.7</ele>
        <time>2012-06-13T08:03:35.000Z</time>
      </trkpt>
      <trkpt lat="44.0554" lon="4.68879">
        <ele>166.1</ele>
        <time>2012-06-13T08:03:36.000Z</time>
      </trkpt>
      <trkpt lat="44.0554" lon="4.68891">
        <ele>165.7</ele>
        <time>2012-06-13T08:03:37.000Z</time>
      </trkpt>
      <trkpt lat="44.05541" lon="4.68903">
        <ele>165.6</ele>
        <time>2012-06-13T08:03:38.000Z</time>
      </trkpt>
      <trkpt lat="44.05542" lon="4.68916">
        <ele>165.1</ele>
        <time>2012-06-13T08:03:39.000Z</time>
      </trkpt>
      <trkpt lat="44.05543" lon="4.68929">
        <ele>164.9</ele>
        <time>2012-06-13T08:03:40.000Z</time>
      </trkpt>
      <trkpt lat="44.05542" lon="4.68941">
        <ele>164.4</ele>
        <time>2012-06-13T08:03:41.000Z</time>
      </trkpt>
      <trkpt lat="44.05545" lon="4.68964">
        <ele>164.6</ele>
        <time>2012-06-13T08:03:43.000Z</time>
      </trkpt>
      <trkpt lat="44.05545" lon="4.68977">
        <ele>164.3</ele>
        <time>2012-06-13T08:03:44.000Z</time>
      </trkpt>
      <trkpt lat="44.05546" lon="4.6899">
        <ele>164.1</ele>
        <time>2012-06-13T08:03:45.000Z</time>
      </trkpt>
      <trkpt lat="44.05545" lon="4.69004">
        <ele>163.7</ele>
        <time>2012-06-13T08:03:46.000Z</time>
      </trkpt>
      <trkpt lat="44.05545" lon="4.69015">
        <ele>163.6</ele>
        <time>2012-06-13T08:03:47.000Z</time>
      </trkpt>
      <trkpt lat="44.05546" lon="4.69028">
        <ele>163.1</ele>
        <time>2012-06-13T08:03:48.000Z</time>
      </trkpt>
      <trkpt lat="44.05546" lon="4.6904">
        <ele>163.1</ele>
        <time>2012-06-13T08:03:49.000Z</time>
      </trkpt>
      <trkpt lat="44.05546" lon="4.69053">
        <ele>163</ele>
        <time>2012-06-13T08:03:50.000Z</time>
      </trkpt>
      <trkpt lat="44.05542" lon="4.69066">
        <ele>163</ele>
        <time>2012-06-13T08:03:51.000Z</time>
      </trkpt>
      <trkpt lat="44.05542" lon="4.69078">
        <ele>163</ele>
        <time>2012-06-13T08:03:52.000Z</time>
      </trkpt>
      <trkpt lat="44.05542" lon="4.6909">
        <ele>162.9</ele>
        <time>2012-06-13T08:03:53.000Z</time>
      </trkpt>
      <trkpt lat="44.05541" lon="4.69104">
        <ele>162.7</ele>
        <time>2012-06-13T08:03:54.000Z</time>
      </trkpt>
      <trkpt lat="44.05542" lon="4.69116">
        <ele>162.5</ele>
        <time>2012-06-13T08:03:55.000Z</time>
      </trkpt>
      <trkpt lat="44.05543" lon="4.69127">
        <ele>162.5</ele>
        <time>2012-06-13T08:03:56.000Z</time>
      </trkpt>
      <trkpt lat="44.05546" lon="4.69139">
        <ele>162.6</ele>
        <time>2012-06-13T08:03:57.000Z</time>
      </trkpt>
      <trkpt lat="44.05547" lon="4.69152">
        <ele>162.5</ele>
        <time>2012-06-13T08:03:58.000Z</time>
      </trkpt>
      <trkpt lat="44.05548" lon="4.69163">
        <ele>162</ele>
        <time>2012-06-13T08:03:59.000Z</time>
      </trkpt>
      <trkpt lat="44.05551" lon="4.69176">
        <ele>161.9</ele>
        <time>2012-06-13T08:04:00.000Z</time>
      </trkpt>
      <trkpt lat="44.05551" lon="4.69186">
        <ele>160.9</ele>
        <time>2012-06-13T08:04:01.000Z</time>
      </trkpt>
      <trkpt lat="44.05552" lon="4.692">
        <ele>161.1</ele>
        <time>2012-06-13T08:04:02.000Z</time>
      </trkpt>
      <trkpt lat="44.05555" lon="4.69213">
        <ele>160.9</ele>
        <time>2012-06-13T08:04:03.000Z</time>
      </trkpt>
      <trkpt lat="44.0556" lon="4.69226">
        <ele>160.7</ele>
        <time>2012-06-13T08:04:04.000Z</time>
      </trkpt>
      <trkpt lat="44.05561" lon="4.6924">
        <ele>160.3</ele>
        <time>2012-06-13T08:04:05.000Z</time>
      </trkpt>
      <trkpt lat="44.05561" lon="4.69255">
        <ele>159.9</ele>
        <time>2012-06-13T08:04:06.000Z</time>
      </trkpt>
      <trkpt lat="44.05563" lon="4.69266">
        <ele>159.2</ele>
        <time>2012-06-13T08:04:07.000Z</time>
      </trkpt>
      <trkpt lat="44.05569" lon="4.69267">
        <ele>153.6</ele>
        <time>2012-06-13T08:04:08.000Z</time>
      </trkpt>
      <trkpt lat="44.05572" lon="4.69279">
        <ele>153.1</ele>
        <time>2012-06-13T08:04:09.000Z</time>
      </trkpt>
      <trkpt lat="44.05573" lon="4.69293">
        <ele>152.8</ele>
        <time>2012-06-13T08:04:10.000Z</time>
      </trkpt>
      <trkpt lat="44.05576" lon="4.69306">
        <ele>151.9</ele>
        <time>2012-06-13T08:04:11.000Z</time>
      </trkpt>
      <trkpt lat="44.05579" lon="4.69316">
        <ele>151</ele>
        <time>2012-06-13T08:04:12.000Z</time>
      </trkpt>
      <trkpt lat="44.05584" lon="4.69324">
        <ele>149.7</ele>
        <time>2012-06-13T08:04:13.000Z</time>
      </trkpt>
      <trkpt lat="44.05588" lon="4.69336">
        <ele>150.3</ele>
        <time>2012-06-13T08:04:14.000Z</time>
      </trkpt>
      <trkpt lat="44.05592" lon="4.69348">
        <ele>151</ele>
        <time>2012-06-13T08:04:15.000Z</time>
      </trkpt>
      <trkpt lat="44.05596" lon="4.69358">
        <ele>150.5</ele>
        <time>2012-06-13T08:04:16.000Z</time>
      </trkpt>
      <trkpt lat="44.05601" lon="4.69368">
        <ele>150.4</ele>
        <time>2012-06-13T08:04:17.000Z</time>
      </trkpt>
      <trkpt lat="44.05606" lon="4.69379">
        <ele>150.6</ele>
        <time>2012-06-13T08:04:18.000Z</time>
      </trkpt>
      <trkpt lat="44.05611" lon="4.69388">
        <ele>150.9</ele>
        <time>2012-06-13T08:04:19.000Z</time>
      </trkpt>
      <trkpt lat="44.05615" lon="4.69399">
        <ele>151.4</ele>
        <time>2012-06-13T08:04:20.000Z</time>
      </trkpt>
      <trkpt lat="44.05619" lon="4.69409">
        <ele>150.7</ele>
        <time>2012-06-13T08:04:21.000Z</time>
      </trkpt>
      <trkpt lat="44.05623" lon="4.69418">
        <ele>151</ele>
        <time>2012-06-13T08:04:22.000Z</time>
      </trkpt>
      <trkpt lat="44.05627" lon="4.69429">
        <ele>150.8</ele>
        <time>2012-06-13T08:04:23.000Z</time>
      </trkpt>
      <trkpt lat="44.05632" lon="4.6944">
        <ele>151</ele>
        <time>2012-06-13T08:04:24.000Z</time>
      </trkpt>
      <trkpt lat="44.05634" lon="4.69449">
        <ele>152</ele>
        <time>2012-06-13T08:04:25.000Z</time>
      </trkpt>
      <trkpt lat="44.05638" lon="4.69455">
        <ele>151.7</ele>
        <time>2012-06-13T08:04:26.000Z</time>
      </trkpt>
      <trkpt lat="44.05644" lon="4.69462">
        <ele>150.8</ele>
        <time>2012-06-13T08:04:27.000Z</time>
      </trkpt>
      <trkpt lat="44.05648" lon="4.69469">
        <ele>150.4</ele>
        <time>2012-06-13T08:04:28.000Z</time>
      </trkpt>
      <trkpt lat="44.05654" lon="4.69475">
        <ele>149.7</ele>
        <time>2012-06-13T08:04:29.000Z</time>
      </trkpt>
      <trkpt lat="44.05659" lon="4.69481">
        <ele>149.7</ele>
        <time>2012-06-13T08:04:30.000Z</time>
      </trkpt>
      <trkpt lat="44.05663" lon="4.69485">
        <ele>149.5</ele>
        <time>2012-06-13T08:04:31.000Z</time>
      </trkpt>
      <trkpt lat="44.05665" lon="4.69491">
        <ele>149</ele>
        <time>2012-06-13T08:04:32.000Z</time>
      </trkpt>
      <trkpt lat="44.05665" lon="4.695">
        <ele>148.3</ele>
        <time>2012-06-13T08:04:33.000Z</time>
      </trkpt>
      <trkpt lat="44.05667" lon="4.69508">
        <ele>148.1</ele>
        <time>2012-06-13T08:04:34.000Z</time>
      </trkpt>
      <trkpt lat="44.05664" lon="4.69515">
        <ele>147.4</ele>
        <time>2012-06-13T08:04:35.000Z</time>
      </trkpt>
      <trkpt lat="44.05654" lon="4.69522">
        <ele>146.6</ele>
        <time>2012-06-13T08:04:36.000Z</time>
      </trkpt>
      <trkpt lat="44.0565" lon="4.69526">
        <ele>145.7</ele>
        <time>2012-06-13T08:04:37.000Z</time>
      </trkpt>
      <trkpt lat="44.05644" lon="4.69529">
        <ele>145.1</ele>
        <time>2012-06-13T08:04:38.000Z</time>
      </trkpt>
      <trkpt lat="44.05638" lon="4.69531">
        <ele>144.7</ele>
        <time>2012-06-13T08:04:39.000Z</time>
      </trkpt>
      <trkpt lat="44.05632" lon="4.69532">
        <ele>144.7</ele>
        <time>2012-06-13T08:04:40.000Z</time>
      </trkpt>
      <trkpt lat="44.05626" lon="4.69532">
        <ele>144.1</ele>
        <time>2012-06-13T08:04:41.000Z</time>
      </trkpt>
      <trkpt lat="44.0562" lon="4.69533">
        <ele>143.7</ele>
        <time>2012-06-13T08:04:42.000Z</time>
      </trkpt>
      <trkpt lat="44.05614" lon="4.69532">
        <ele>143.3</ele>
        <time>2012-06-13T08:04:43.000Z</time>
      </trkpt>
      <trkpt lat="44.05607" lon="4.69533">
        <ele>143</ele>
        <time>2012-06-13T08:04:44.000Z</time>
      </trkpt>
      <trkpt lat="44.05599" lon="4.69533">
        <ele>142.6</ele>
        <time>2012-06-13T08:04:45.000Z</time>
      </trkpt>
      <trkpt lat="44.05594" lon="4.69541">
        <ele>143.1</ele>
        <time>2012-06-13T08:04:46.000Z</time>
      </trkpt>
      <trkpt lat="44.05589" lon="4.69548">
        <ele>142.4</ele>
        <time>2012-06-13T08:04:47.000Z</time>
      </trkpt>
      <trkpt lat="44.05584" lon="4.69558">
        <ele>142.3</ele>
        <time>2012-06-13T08:04:48.000Z</time>
      </trkpt>
      <trkpt lat="44.05581" lon="4.69567">
        <ele>141.5</ele>
        <time>2012-06-13T08:04:49.000Z</time>
      </trkpt>
      <trkpt lat="44.05577" lon="4.69574">
        <ele>141.9</ele>
        <time>2012-06-13T08:04:50.000Z</time>
      </trkpt>
      <trkpt lat="44.05576" lon="4.69585">
        <ele>141.4</ele>
        <time>2012-06-13T08:04:51.000Z</time>
      </trkpt>
      <trkpt lat="44.05574" lon="4.69595">
        <ele>141.5</ele>
        <time>2012-06-13T08:04:52.000Z</time>
      </trkpt>
      <trkpt lat="44.0557" lon="4.69606">
        <ele>141</ele>
        <time>2012-06-13T08:04:53.000Z</time>
      </trkpt>
      <trkpt lat="44.05566" lon="4.69618">
        <ele>141.1</ele>
        <time>2012-06-13T08:04:54.000Z</time>
      </trkpt>
      <trkpt lat="44.05563" lon="4.69628">
        <ele>140.4</ele>
        <time>2012-06-13T08:04:55.000Z</time>
      </trkpt>
      <trkpt lat="44.0556" lon="4.69636">
        <ele>139.7</ele>
        <time>2012-06-13T08:04:56.000Z</time>
      </trkpt>
      <trkpt lat="44.05556" lon="4.69645">
        <ele>138.5</ele>
        <time>2012-06-13T08:04:57.000Z</time>
      </trkpt>
      <trkpt lat="44.05554" lon="4.69654">
        <ele>137.9</ele>
        <time>2012-06-13T08:04:58.000Z</time>
      </trkpt>
      <trkpt lat="44.0555" lon="4.69663">
        <ele>137</ele>
        <time>2012-06-13T08:04:59.000Z</time>
      </trkpt>
      <trkpt lat="44.0555" lon="4.69672">
        <ele>137.7</ele>
        <time>2012-06-13T08:05:00.000Z</time>
      </trkpt>
      <trkpt lat="44.05547" lon="4.69681">
        <ele>137.2</ele>
        <time>2012-06-13T08:05:01.000Z</time>
      </trkpt>
      <trkpt lat="44.05544" lon="4.69691">
        <ele>137.2</ele>
        <time>2012-06-13T08:05:02.000Z</time>
      </trkpt>
      <trkpt lat="44.05541" lon="4.69699">
        <ele>135.9</ele>
        <time>2012-06-13T08:05:03.000Z</time>
      </trkpt>
      <trkpt lat="44.05538" lon="4.69708">
        <ele>136.1</ele>
        <time>2012-06-13T08:05:04.000Z</time>
      </trkpt>
      <trkpt lat="44.05535" lon="4.69718">
        <ele>135.4</ele>
        <time>2012-06-13T08:05:05.000Z</time>
      </trkpt>
      <trkpt lat="44.05533" lon="4.69728">
        <ele>135.4</ele>
        <time>2012-06-13T08:05:06.000Z</time>
      </trkpt>
      <trkpt lat="44.05531" lon="4.69737">
        <ele>134.9</ele>
        <time>2012-06-13T08:05:07.000Z</time>
      </trkpt>
      <trkpt lat="44.05529" lon="4.69746">
        <ele>134.9</ele>
        <time>2012-06-13T08:05:08.000Z</time>
      </trkpt>
      <trkpt lat="44.05527" lon="4.69753">
        <ele>134.8</ele>
        <time>2012-06-13T08:05:09.000Z</time>
      </trkpt>
      <trkpt lat="44.05525" lon="4.6976">
        <ele>135</ele>
        <time>2012-06-13T08:05:10.000Z</time>
      </trkpt>
      <trkpt lat="44.05524" lon="4.69767">
        <ele>135.1</ele>
        <time>2012-06-13T08:05:11.000Z</time>
      </trkpt>
      <trkpt lat="44.05522" lon="4.69774">
        <ele>134.8</ele>
        <time>2012-06-13T08:05:12.000Z</time>
      </trkpt>
      <trkpt lat="44.05521" lon="4.69781">
        <ele>134.8</ele>
        <time>2012-06-13T08:05:13.000Z</time>
      </trkpt>
      <trkpt lat="44.05519" lon="4.69792">
        <ele>134</ele>
        <time>2012-06-13T08:05:15.000Z</time>
      </trkpt>
      <trkpt lat="44.05518" lon="4.69802">
        <ele>133.6</ele>
        <time>2012-06-13T08:05:17.000Z</time>
      </trkpt>
      <trkpt lat="44.05514" lon="4.6981">
        <ele>132.5</ele>
        <time>2012-06-13T08:05:19.000Z</time>
      </trkpt>
      <trkpt lat="44.05518" lon="4.69816">
        <ele>131.7</ele>
        <time>2012-06-13T08:05:21.000Z</time>
      </trkpt>
      <trkpt lat="44.05516" lon="4.69822">
        <ele>131.1</ele>
        <time>2012-06-13T08:05:23.000Z</time>
      </trkpt>
      <trkpt lat="44.05516" lon="4.69828">
        <ele>132</ele>
        <time>2012-06-13T08:05:25.000Z</time>
      </trkpt>
      <trkpt lat="44.05523" lon="4.69831">
        <ele>131.5</ele>
        <time>2012-06-13T08:05:28.000Z</time>
      </trkpt>
      <trkpt lat="44.05531" lon="4.69832">
        <ele>131.7</ele>
        <time>2012-06-13T08:05:30.000Z</time>
      </trkpt>
      <trkpt lat="44.05536" lon="4.69833">
        <ele>131.6</ele>
        <time>2012-06-13T08:05:31.000Z</time>
      </trkpt>
      <trkpt lat="44.05544" lon="4.69837">
        <ele>131.6</ele>
        <time>2012-06-13T08:05:33.000Z</time>
      </trkpt>
      <trkpt lat="44.05551" lon="4.69842">
        <ele>131.4</ele>
        <time>2012-06-13T08:05:35.000Z</time>
      </trkpt>
      <trkpt lat="44.05559" lon="4.69849">
        <ele>131.7</ele>
        <time>2012-06-13T08:05:37.000Z</time>
      </trkpt>
      <trkpt lat="44.05562" lon="4.69854">
        <ele>131.4</ele>
        <time>2012-06-13T08:05:38.000Z</time>
      </trkpt>
      <trkpt lat="44.05565" lon="4.6986">
        <ele>131.1</ele>
        <time>2012-06-13T08:05:39.000Z</time>
      </trkpt>
      <trkpt lat="44.05567" lon="4.69866">
        <ele>131</ele>
        <time>2012-06-13T08:05:40.000Z</time>
      </trkpt>
      <trkpt lat="44.05569" lon="4.69871">
        <ele>130.8</ele>
        <time>2012-06-13T08:05:41.000Z</time>
      </trkpt>
      <trkpt lat="44.05574" lon="4.69874">
        <ele>130.5</ele>
        <time>2012-06-13T08:05:42.000Z</time>
      </trkpt>
      <trkpt lat="44.05578" lon="4.69879">
        <ele>130</ele>
        <time>2012-06-13T08:05:44.000Z</time>
      </trkpt>
      <trkpt lat="44.05583" lon="4.69884">
        <ele>130.1</ele>
        <time>2012-06-13T08:05:46.000Z</time>
      </trkpt>
      <trkpt lat="44.05587" lon="4.69891">
        <ele>130.3</ele>
        <time>2012-06-13T08:05:48.000Z</time>
      </trkpt>
      <trkpt lat="44.0559" lon="4.69898">
        <ele>129.7</ele>
        <time>2012-06-13T08:05:50.000Z</time>
      </trkpt>
      <trkpt lat="44.05592" lon="4.69905">
        <ele>129.1</ele>
        <time>2012-06-13T08:05:51.000Z</time>
      </trkpt>
      <trkpt lat="44.05593" lon="4.69912">
        <ele>128.4</ele>
        <time>2012-06-13T08:05:52.000Z</time>
      </trkpt>
      <trkpt lat="44.05594" lon="4.69919">
        <ele>128.2</ele>
        <time>2012-06-13T08:05:53.000Z</time>
      </trkpt>
      <trkpt lat="44.05595" lon="4.69926">
        <ele>127.7</ele>
        <time>2012-06-13T08:05:54.000Z</time>
      </trkpt>
      <trkpt lat="44.05596" lon="4.69934">
        <ele>127.4</ele>
        <time>2012-06-13T08:05:55.000Z</time>
      </trkpt>
      <trkpt lat="44.05597" lon="4.6994">
        <ele>126.8</ele>
        <time>2012-06-13T08:05:56.000Z</time>
      </trkpt>
      <trkpt lat="44.05599" lon="4.69946">
        <ele>126.2</ele>
        <time>2012-06-13T08:05:57.000Z</time>
      </trkpt>
      <trkpt lat="44.05599" lon="4.69955">
        <ele>126.1</ele>
        <time>2012-06-13T08:05:58.000Z</time>
      </trkpt>
      <trkpt lat="44.05599" lon="4.69963">
        <ele>126.3</ele>
        <time>2012-06-13T08:05:59.000Z</time>
      </trkpt>
      <trkpt lat="44.05599" lon="4.69971">
        <ele>125.9</ele>
        <time>2012-06-13T08:06:00.000Z</time>
      </trkpt>
      <trkpt lat="44.056" lon="4.69978">
        <ele>125.8</ele>
        <time>2012-06-13T08:06:01.000Z</time>
      </trkpt>
      <trkpt lat="44.05599" lon="4.69985">
        <ele>126</ele>
        <time>2012-06-13T08:06:02.000Z</time>
      </trkpt>
      <trkpt lat="44.05602" lon="4.69998">
        <ele>125.3</ele>
        <time>2012-06-13T08:06:04.000Z</time>
      </trkpt>
      <trkpt lat="44.05603" lon="4.70006">
        <ele>125</ele>
        <time>2012-06-13T08:06:05.000Z</time>
      </trkpt>
      <trkpt lat="44.056" lon="4.70012">
        <ele>124.6</ele>
        <time>2012-06-13T08:06:06.000Z</time>
      </trkpt>
      <trkpt lat="44.05595" lon="4.70021">
        <ele>127</ele>
        <time>2012-06-13T08:06:07.000Z</time>
      </trkpt>
      <trkpt lat="44.05592" lon="4.7003">
        <ele>127</ele>
        <time>2012-06-13T08:06:08.000Z</time>
      </trkpt>
      <trkpt lat="44.05589" lon="4.70038">
        <ele>129.8</ele>
        <time>2012-06-13T08:06:09.000Z</time>
      </trkpt>
      <trkpt lat="44.05586" lon="4.70045">
        <ele>130.3</ele>
        <time>2012-06-13T08:06:10.000Z</time>
      </trkpt>
      <trkpt lat="44.05583" lon="4.70051">
        <ele>130.5</ele>
        <time>2012-06-13T08:06:11.000Z</time>
      </trkpt>
      <trkpt lat="44.0558" lon="4.70057">
        <ele>130.5</ele>
        <time>2012-06-13T08:06:12.000Z</time>
      </trkpt>
      <trkpt lat="44.05576" lon="4.70063">
        <ele>130.4</ele>
        <time>2012-06-13T08:06:13.000Z</time>
      </trkpt>
      <trkpt lat="44.05574" lon="4.70068">
        <ele>130.3</ele>
        <time>2012-06-13T08:06:14.000Z</time>
      </trkpt>
      <trkpt lat="44.05569" lon="4.70072">
        <ele>130.2</ele>
        <time>2012-06-13T08:06:15.000Z</time>
      </trkpt>
      <trkpt lat="44.05563" lon="4.70082">
        <ele>130</ele>
        <time>2012-06-13T08:06:17.000Z</time>
      </trkpt>
      <trkpt lat="44.05558" lon="4.70091">
        <ele>130.1</ele>
        <time>2012-06-13T08:06:19.000Z</time>
      </trkpt>
      <trkpt lat="44.05555" lon="4.70097">
        <ele>129.3</ele>
        <time>2012-06-13T08:06:20.000Z</time>
      </trkpt>
      <trkpt lat="44.05552" lon="4.70105">
        <ele>128</ele>
        <time>2012-06-13T08:06:21.000Z</time>
      </trkpt>
      <trkpt lat="44.05553" lon="4.70112">
        <ele>127.6</ele>
        <time>2012-06-13T08:06:22.000Z</time>
      </trkpt>
      <trkpt lat="44.05552" lon="4.70121">
        <ele>127</ele>
        <time>2012-06-13T08:06:23.000Z</time>
      </trkpt>
      <trkpt lat="44.05552" lon="4.70129">
        <ele>126.4</ele>
        <time>2012-06-13T08:06:24.000Z</time>
      </trkpt>
      <trkpt lat="44.05551" lon="4.70137">
        <ele>126.3</ele>
        <time>2012-06-13T08:06:25.000Z</time>
      </trkpt>
      <trkpt lat="44.0555" lon="4.70146">
        <ele>126.4</ele>
        <time>2012-06-13T08:06:26.000Z</time>
      </trkpt>
      <trkpt lat="44.05549" lon="4.70154">
        <ele>126.4</ele>
        <time>2012-06-13T08:06:27.000Z</time>
      </trkpt>
      <trkpt lat="44.05548" lon="4.70162">
        <ele>126.1</ele>
        <time>2012-06-13T08:06:28.000Z</time>
      </trkpt>
      <trkpt lat="44.05546" lon="4.7017">
        <ele>126.3</ele>
        <time>2012-06-13T08:06:29.000Z</time>
      </trkpt>
      <trkpt lat="44.05546" lon="4.70179">
        <ele>125.9</ele>
        <time>2012-06-13T08:06:30.000Z</time>
      </trkpt>
      <trkpt lat="44.05543" lon="4.70188">
        <ele>125.6</ele>
        <time>2012-06-13T08:06:31.000Z</time>
      </trkpt>
      <trkpt lat="44.0554" lon="4.70196">
        <ele>125.1</ele>
        <time>2012-06-13T08:06:32.000Z</time>
      </trkpt>
      <trkpt lat="44.05539" lon="4.70204">
        <ele>124.5</ele>
        <time>2012-06-13T08:06:33.000Z</time>
      </trkpt>
      <trkpt lat="44.05537" lon="4.70212">
        <ele>124.7</ele>
        <time>2012-06-13T08:06:34.000Z</time>
      </trkpt>
      <trkpt lat="44.05535" lon="4.70218">
        <ele>124.8</ele>
        <time>2012-06-13T08:06:35.000Z</time>
      </trkpt>
      <trkpt lat="44.05533" lon="4.70226">
        <ele>124.5</ele>
        <time>2012-06-13T08:06:36.000Z</time>
      </trkpt>
      <trkpt lat="44.05531" lon="4.70234">
        <ele>124.5</ele>
        <time>2012-06-13T08:06:37.000Z</time>
      </trkpt>
      <trkpt lat="44.05526" lon="4.70241">
        <ele>124.7</ele>
        <time>2012-06-13T08:06:38.000Z</time>
      </trkpt>
      <trkpt lat="44.05524" lon="4.7025">
        <ele>125.6</ele>
        <time>2012-06-13T08:06:39.000Z</time>
      </trkpt>
      <trkpt lat="44.0552" lon="4.70257">
        <ele>125.3</ele>
        <time>2012-06-13T08:06:40.000Z</time>
      </trkpt>
      <trkpt lat="44.05518" lon="4.70264">
        <ele>125.5</ele>
        <time>2012-06-13T08:06:41.000Z</time>
      </trkpt>
      <trkpt lat="44.05517" lon="4.70273">
        <ele>125.8</ele>
        <time>2012-06-13T08:06:42.000Z</time>
      </trkpt>
      <trkpt lat="44.05516" lon="4.70281">
        <ele>125.3</ele>
        <time>2012-06-13T08:06:43.000Z</time>
      </trkpt>
      <trkpt lat="44.05515" lon="4.70293">
        <ele>125.7</ele>
        <time>2012-06-13T08:06:44.000Z</time>
      </trkpt>
      <trkpt lat="44.05514" lon="4.70301">
        <ele>125.3</ele>
        <time>2012-06-13T08:06:45.000Z</time>
      </trkpt>
      <trkpt lat="44.05515" lon="4.70308">
        <ele>125.4</ele>
        <time>2012-06-13T08:06:46.000Z</time>
      </trkpt>
      <trkpt lat="44.05514" lon="4.70317">
        <ele>125.3</ele>
        <time>2012-06-13T08:06:47.000Z</time>
      </trkpt>
      <trkpt lat="44.05513" lon="4.70326">
        <ele>125.3</ele>
        <time>2012-06-13T08:06:48.000Z</time>
      </trkpt>
      <trkpt lat="44.05512" lon="4.70334">
        <ele>125.6</ele>
        <time>2012-06-13T08:06:49.000Z</time>
      </trkpt>
      <trkpt lat="44.05512" lon="4.70342">
        <ele>125.4</ele>
        <time>2012-06-13T08:06:50.000Z</time>
      </trkpt>
      <trkpt lat="44.05514" lon="4.70351">
        <ele>125</ele>
        <time>2012-06-13T08:06:51.000Z</time>
      </trkpt>
      <trkpt lat="44.05513" lon="4.7036">
        <ele>124.4</ele>
        <time>2012-06-13T08:06:52.000Z</time>
      </trkpt>
      <trkpt lat="44.05513" lon="4.70367">
        <ele>123.7</ele>
        <time>2012-06-13T08:06:53.000Z</time>
      </trkpt>
      <trkpt lat="44.05516" lon="4.70374">
        <ele>123</ele>
        <time>2012-06-13T08:06:54.000Z</time>
      </trkpt>
      <trkpt lat="44.0552" lon="4.70381">
        <ele>123.1</ele>
        <time>2012-06-13T08:06:55.000Z</time>
      </trkpt>
      <trkpt lat="44.05524" lon="4.70388">
        <ele>122.7</ele>
        <time>2012-06-13T08:06:56.000Z</time>
      </trkpt>
      <trkpt lat="44.05527" lon="4.70394">
        <ele>122.9</ele>
        <time>2012-06-13T08:06:57.000Z</time>
      </trkpt>
      <trkpt lat="44.0553" lon="4.704">
        <ele>122.7</ele>
        <time>2012-06-13T08:06:58.000Z</time>
      </trkpt>
      <trkpt lat="44.05533" lon="4.70406">
        <ele>122.2</ele>
        <time>2012-06-13T08:06:59.000Z</time>
      </trkpt>
      <trkpt lat="44.05536" lon="4.7041">
        <ele>122.3</ele>
        <time>2012-06-13T08:07:00.000Z</time>
      </trkpt>
      <trkpt lat="44.0554" lon="4.70417">
        <ele>122.3</ele>
        <time>2012-06-13T08:07:01.000Z</time>
      </trkpt>
      <trkpt lat="44.05543" lon="4.70425">
        <ele>122.5</ele>
        <time>2012-06-13T08:07:02.000Z</time>
      </trkpt>
      <trkpt lat="44.05546" lon="4.70433">
        <ele>122.3</ele>
        <time>2012-06-13T08:07:03.000Z</time>
      </trkpt>
      <trkpt lat="44.05549" lon="4.7044">
        <ele>123</ele>
        <time>2012-06-13T08:07:04.000Z</time>
      </trkpt>
      <trkpt lat="44.05553" lon="4.70447">
        <ele>123.6</ele>
        <time>2012-06-13T08:07:05.000Z</time>
      </trkpt>
      <trkpt lat="44.05555" lon="4.70454">
        <ele>123.8</ele>
        <time>2012-06-13T08:07:06.000Z</time>
      </trkpt>
      <trkpt lat="44.05557" lon="4.70461">
        <ele>123.9</ele>
        <time>2012-06-13T08:07:07.000Z</time>
      </trkpt>
      <trkpt lat="44.05558" lon="4.70468">
        <ele>123.7</ele>
        <time>2012-06-13T08:07:08.000Z</time>
      </trkpt>
      <trkpt lat="44.0556" lon="4.70475">
        <ele>123.7</ele>
        <time>2012-06-13T08:07:09.000Z</time>
      </trkpt>
      <trkpt lat="44.05562" lon="4.70482">
        <ele>123.5</ele>
        <time>2012-06-13T08:07:10.000Z</time>
      </trkpt>
      <trkpt lat="44.05563" lon="4.70491">
        <ele>123.8</ele>
        <time>2012-06-13T08:07:11.000Z</time>
      </trkpt>
      <trkpt lat="44.05564" lon="4.70499">
        <ele>123.8</ele>
        <time>2012-06-13T08:07:12.000Z</time>
      </trkpt>
      <trkpt lat="44.05565" lon="4.70506">
        <ele>123.6</ele>
        <time>2012-06-13T08:07:13.000Z</time>
      </trkpt>
      <trkpt lat="44.05566" lon="4.70512">
        <ele>123.6</ele>
        <time>2012-06-13T08:07:14.000Z</time>
      </trkpt>
      <trkpt lat="44.05568" lon="4.7052">
        <ele>123.3</ele>
        <time>2012-06-13T08:07:15.000Z</time>
      </trkpt>
      <trkpt lat="44.0557" lon="4.70528">
        <ele>123.6</ele>
        <time>2012-06-13T08:07:16.000Z</time>
      </trkpt>
      <trkpt lat="44.05571" lon="4.70534">
        <ele>123.5</ele>
        <time>2012-06-13T08:07:17.000Z</time>
      </trkpt>
      <trkpt lat="44.05572" lon="4.70542">
        <ele>123.5</ele>
        <time>2012-06-13T08:07:18.000Z</time>
      </trkpt>
      <trkpt lat="44.05573" lon="4.70548">
        <ele>123.7</ele>
        <time>2012-06-13T08:07:19.000Z</time>
      </trkpt>
      <trkpt lat="44.05576" lon="4.70555">
        <ele>123.4</ele>
        <time>2012-06-13T08:07:20.000Z</time>
      </trkpt>
      <trkpt lat="44.05578" lon="4.70562">
        <ele>123.1</ele>
        <time>2012-06-13T08:07:21.000Z</time>
      </trkpt>
      <trkpt lat="44.05579" lon="4.70569">
        <ele>123</ele>
        <time>2012-06-13T08:07:22.000Z</time>
      </trkpt>
      <trkpt lat="44.05582" lon="4.70577">
        <ele>123.3</ele>
        <time>2012-06-13T08:07:23.000Z</time>
      </trkpt>
      <trkpt lat="44.05584" lon="4.70584">
        <ele>123.3</ele>
        <time>2012-06-13T08:07:24.000Z</time>
      </trkpt>
      <trkpt lat="44.05586" lon="4.70592">
        <ele>123.7</ele>
        <time>2012-06-13T08:07:25.000Z</time>
      </trkpt>
      <trkpt lat="44.05589" lon="4.706">
        <ele>123.6</ele>
        <time>2012-06-13T08:07:26.000Z</time>
      </trkpt>
      <trkpt lat="44.05593" lon="4.70608">
        <ele>123.4</ele>
        <time>2012-06-13T08:07:27.000Z</time>
      </trkpt>
      <trkpt lat="44.05595" lon="4.70613">
        <ele>123.2</ele>
        <time>2012-06-13T08:07:28.000Z</time>
      </trkpt>
      <trkpt lat="44.05599" lon="4.70618">
        <ele>122.8</ele>
        <time>2012-06-13T08:07:29.000Z</time>
      </trkpt>
      <trkpt lat="44.05603" lon="4.70624">
        <ele>122.8</ele>
        <time>2012-06-13T08:07:30.000Z</time>
      </trkpt>
      <trkpt lat="44.05608" lon="4.7063">
        <ele>123</ele>
        <time>2012-06-13T08:07:31.000Z</time>
      </trkpt>
      <trkpt lat="44.05613" lon="4.70636">
        <ele>123.2</ele>
        <time>2012-06-13T08:07:32.000Z</time>
      </trkpt>
      <trkpt lat="44.05618" lon="4.7064">
        <ele>123.1</ele>
        <time>2012-06-13T08:07:33.000Z</time>
      </trkpt>
      <trkpt lat="44.05622" lon="4.70647">
        <ele>123.7</ele>
        <time>2012-06-13T08:07:34.000Z</time>
      </trkpt>
      <trkpt lat="44.05628" lon="4.70651">
        <ele>123.5</ele>
        <time>2012-06-13T08:07:35.000Z</time>
      </trkpt>
      <trkpt lat="44.05633" lon="4.70656">
        <ele>123.7</ele>
        <time>2012-06-13T08:07:36.000Z</time>
      </trkpt>
      <trkpt lat="44.05636" lon="4.70663">
        <ele>124.2</ele>
        <time>2012-06-13T08:07:37.000Z</time>
      </trkpt>
      <trkpt lat="44.0564" lon="4.70668">
        <ele>124.5</ele>
        <time>2012-06-13T08:07:38.000Z</time>
      </trkpt>
      <trkpt lat="44.05644" lon="4.70674">
        <ele>124.4</ele>
        <time>2012-06-13T08:07:39.000Z</time>
      </trkpt>
      <trkpt lat="44.05647" lon="4.70679">
        <ele>124.3</ele>
        <time>2012-06-13T08:07:40.000Z</time>
      </trkpt>
      <trkpt lat="44.05651" lon="4.70682">
        <ele>124.3</ele>
        <time>2012-06-13T08:07:41.000Z</time>
      </trkpt>
      <trkpt lat="44.05654" lon="4.70688">
        <ele>124.5</ele>
        <time>2012-06-13T08:07:42.000Z</time>
      </trkpt>
      <trkpt lat="44.05656" lon="4.70696">
        <ele>124.3</ele>
        <time>2012-06-13T08:07:43.000Z</time>
      </trkpt>
      <trkpt lat="44.0566" lon="4.70702">
        <ele>124.7</ele>
        <time>2012-06-13T08:07:44.000Z</time>
      </trkpt>
      <trkpt lat="44.05662" lon="4.7071">
        <ele>124.8</ele>
        <time>2012-06-13T08:07:45.000Z</time>
      </trkpt>
      <trkpt lat="44.05665" lon="4.70717">
        <ele>124.8</ele>
        <time>2012-06-13T08:07:46.000Z</time>
      </trkpt>
      <trkpt lat="44.05668" lon="4.70724">
        <ele>125.1</ele>
        <time>2012-06-13T08:07:47.000Z</time>
      </trkpt>
      <trkpt lat="44.05673" lon="4.70729">
        <ele>125</ele>
        <time>2012-06-13T08:07:48.000Z</time>
      </trkpt>
      <trkpt lat="44.05677" lon="4.70736">
        <ele>125</ele>
        <time>2012-06-13T08:07:49.000Z</time>
      </trkpt>
      <trkpt lat="44.05678" lon="4.70743">
        <ele>124.9</ele>
        <time>2012-06-13T08:07:50.000Z</time>
      </trkpt>
      <trkpt lat="44.05683" lon="4.7075">
        <ele>124.3</ele>
        <time>2012-06-13T08:07:51.000Z</time>
      </trkpt>
      <trkpt lat="44.05688" lon="4.70758">
        <ele>123.9</ele>
        <time>2012-06-13T08:07:52.000Z</time>
      </trkpt>
      <trkpt lat="44.05692" lon="4.70768">
        <ele>124.4</ele>
        <time>2012-06-13T08:07:53.000Z</time>
      </trkpt>
      <trkpt lat="44.05696" lon="4.70777">
        <ele>124.4</ele>
        <time>2012-06-13T08:07:54.000Z</time>
      </trkpt>
      <trkpt lat="44.05699" lon="4.70786">
        <ele>124.2</ele>
        <time>2012-06-13T08:07:55.000Z</time>
      </trkpt>
      <trkpt lat="44.05702" lon="4.70795">
        <ele>123.9</ele>
        <time>2012-06-13T08:07:56.000Z</time>
      </trkpt>
      <trkpt lat="44.05705" lon="4.70803">
        <ele>123.7</ele>
        <time>2012-06-13T08:07:57.000Z</time>
      </trkpt>
      <trkpt lat="44.05707" lon="4.7081">
        <ele>123.6</ele>
        <time>2012-06-13T08:07:58.000Z</time>
      </trkpt>
      <trkpt lat="44.0571" lon="4.70817">
        <ele>123.3</ele>
        <time>2012-06-13T08:07:59.000Z</time>
      </trkpt>
      <trkpt lat="44.05711" lon="4.70824">
        <ele>122.4</ele>
        <time>2012-06-13T08:08:00.000Z</time>
      </trkpt>
      <trkpt lat="44.05715" lon="4.70828">
        <ele>122.2</ele>
        <time>2012-06-13T08:08:01.000Z</time>
      </trkpt>
      <trkpt lat="44.05718" lon="4.70834">
        <ele>121.9</ele>
        <time>2012-06-13T08:08:02.000Z</time>
      </trkpt>
      <trkpt lat="44.05722" lon="4.70842">
        <ele>122.1</ele>
        <time>2012-06-13T08:08:03.000Z</time>
      </trkpt>
      <trkpt lat="44.05726" lon="4.70853">
        <ele>121.7</ele>
        <time>2012-06-13T08:08:05.000Z</time>
      </trkpt>
      <trkpt lat="44.05729" lon="4.7086">
        <ele>121.5</ele>
        <time>2012-06-13T08:08:06.000Z</time>
      </trkpt>
      <trkpt lat="44.05731" lon="4.70868">
        <ele>121.6</ele>
        <time>2012-06-13T08:08:07.000Z</time>
      </trkpt>
      <trkpt lat="44.05735" lon="4.70874">
        <ele>121.3</ele>
        <time>2012-06-13T08:08:08.000Z</time>
      </trkpt>
      <trkpt lat="44.05738" lon="4.7088">
        <ele>121.1</ele>
        <time>2012-06-13T08:08:09.000Z</time>
      </trkpt>
      <trkpt lat="44.05742" lon="4.70892">
        <ele>120.8</ele>
        <time>2012-06-13T08:08:11.000Z</time>
      </trkpt>
      <trkpt lat="44.05745" lon="4.70902">
        <ele>119.7</ele>
        <time>2012-06-13T08:08:12.000Z</time>
      </trkpt>
      <trkpt lat="44.05748" lon="4.70912">
        <ele>118.8</ele>
        <time>2012-06-13T08:08:13.000Z</time>
      </trkpt>
      <trkpt lat="44.05752" lon="4.7092">
        <ele>118.2</ele>
        <time>2012-06-13T08:08:14.000Z</time>
      </trkpt>
      <trkpt lat="44.05755" lon="4.70928">
        <ele>117.5</ele>
        <time>2012-06-13T08:08:15.000Z</time>
      </trkpt>
      <trkpt lat="44.05757" lon="4.70936">
        <ele>117.3</ele>
        <time>2012-06-13T08:08:16.000Z</time>
      </trkpt>
      <trkpt lat="44.05759" lon="4.70946">
        <ele>117.1</ele>
        <time>2012-06-13T08:08:17.000Z</time>
      </trkpt>
      <trkpt lat="44.0576" lon="4.70956">
        <ele>117</ele>
        <time>2012-06-13T08:08:18.000Z</time>
      </trkpt>
      <trkpt lat="44.0576" lon="4.70964">
        <ele>116.7</ele>
        <time>2012-06-13T08:08:19.000Z</time>
      </trkpt>
      <trkpt lat="44.05761" lon="4.70972">
        <ele>117.1</ele>
        <time>2012-06-13T08:08:20.000Z</time>
      </trkpt>
      <trkpt lat="44.0576" lon="4.7098">
        <ele>117.1</ele>
        <time>2012-06-13T08:08:21.000Z</time>
      </trkpt>
      <trkpt lat="44.0576" lon="4.70988">
        <ele>116.9</ele>
        <time>2012-06-13T08:08:22.000Z</time>
      </trkpt>
      <trkpt lat="44.05761" lon="4.70997">
        <ele>117.4</ele>
        <time>2012-06-13T08:08:23.000Z</time>
      </trkpt>
      <trkpt lat="44.05764" lon="4.71003">
        <ele>117.9</ele>
        <time>2012-06-13T08:08:24.000Z</time>
      </trkpt>
      <trkpt lat="44.05768" lon="4.71008">
        <ele>117.6</ele>
        <time>2012-06-13T08:08:25.000Z</time>
      </trkpt>
      <trkpt lat="44.05773" lon="4.71012">
        <ele>117.5</ele>
        <time>2012-06-13T08:08:26.000Z</time>
      </trkpt>
      <trkpt lat="44.05778" lon="4.71018">
        <ele>117.5</ele>
        <time>2012-06-13T08:08:27.000Z</time>
      </trkpt>
      <trkpt lat="44.05782" lon="4.71025">
        <ele>117.5</ele>
        <time>2012-06-13T08:08:28.000Z</time>
      </trkpt>
      <trkpt lat="44.05786" lon="4.71033">
        <ele>117.8</ele>
        <time>2012-06-13T08:08:29.000Z</time>
      </trkpt>
      <trkpt lat="44.0579" lon="4.71042">
        <ele>118.3</ele>
        <time>2012-06-13T08:08:30.000Z</time>
      </trkpt>
      <trkpt lat="44.05795" lon="4.71048">
        <ele>119.6</ele>
        <time>2012-06-13T08:08:31.000Z</time>
      </trkpt>
      <trkpt lat="44.05799" lon="4.71055">
        <ele>120.1</ele>
        <time>2012-06-13T08:08:32.000Z</time>
      </trkpt>
      <trkpt lat="44.05804" lon="4.71061">
        <ele>120.8</ele>
        <time>2012-06-13T08:08:33.000Z</time>
      </trkpt>
      <trkpt lat="44.05807" lon="4.71068">
        <ele>120.8</ele>
        <time>2012-06-13T08:08:34.000Z</time>
      </trkpt>
      <trkpt lat="44.05811" lon="4.71075">
        <ele>120.6</ele>
        <time>2012-06-13T08:08:35.000Z</time>
      </trkpt>
      <trkpt lat="44.05815" lon="4.71082">
        <ele>120.4</ele>
        <time>2012-06-13T08:08:36.000Z</time>
      </trkpt>
      <trkpt lat="44.05818" lon="4.71089">
        <ele>120.1</ele>
        <time>2012-06-13T08:08:37.000Z</time>
      </trkpt>
      <trkpt lat="44.05822" lon="4.71096">
        <ele>120.3</ele>
        <time>2012-06-13T08:08:38.000Z</time>
      </trkpt>
      <trkpt lat="44.05826" lon="4.71102">
        <ele>120.3</ele>
        <time>2012-06-13T08:08:39.000Z</time>
      </trkpt>
      <trkpt lat="44.0583" lon="4.71109">
        <ele>120.1</ele>
        <time>2012-06-13T08:08:40.000Z</time>
      </trkpt>
      <trkpt lat="44.05834" lon="4.71115">
        <ele>119.9</ele>
        <time>2012-06-13T08:08:41.000Z</time>
      </trkpt>
      <trkpt lat="44.05838" lon="4.71121">
        <ele>119.3</ele>
        <time>2012-06-13T08:08:42.000Z</time>
      </trkpt>
      <trkpt lat="44.05841" lon="4.71127">
        <ele>118.9</ele>
        <time>2012-06-13T08:08:43.000Z</time>
      </trkpt>
      <trkpt lat="44.05845" lon="4.71131">
        <ele>118.7</ele>
        <time>2012-06-13T08:08:44.000Z</time>
      </trkpt>
      <trkpt lat="44.0585" lon="4.71138">
        <ele>118.7</ele>
        <time>2012-06-13T08:08:45.000Z</time>
      </trkpt>
      <trkpt lat="44.05853" lon="4.71143">
        <ele>118.7</ele>
        <time>2012-06-13T08:08:46.000Z</time>
      </trkpt>
      <trkpt lat="44.05857" lon="4.71151">
        <ele>118.7</ele>
        <time>2012-06-13T08:08:47.000Z</time>
      </trkpt>
      <trkpt lat="44.05861" lon="4.71157">
        <ele>119</ele>
        <time>2012-06-13T08:08:48.000Z</time>
      </trkpt>
      <trkpt lat="44.05865" lon="4.71164">
        <ele>118.8</ele>
        <time>2012-06-13T08:08:49.000Z</time>
      </trkpt>
      <trkpt lat="44.05869" lon="4.71171">
        <ele>117.9</ele>
        <time>2012-06-13T08:08:50.000Z</time>
      </trkpt>
      <trkpt lat="44.05874" lon="4.71178">
        <ele>117.1</ele>
        <time>2012-06-13T08:08:51.000Z</time>
      </trkpt>
      <trkpt lat="44.05878" lon="4.71186">
        <ele>117</ele>
        <time>2012-06-13T08:08:52.000Z</time>
      </trkpt>
      <trkpt lat="44.05882" lon="4.71193">
        <ele>117.1</ele>
        <time>2012-06-13T08:08:53.000Z</time>
      </trkpt>
      <trkpt lat="44.05885" lon="4.71199">
        <ele>116.8</ele>
        <time>2012-06-13T08:08:54.000Z</time>
      </trkpt>
      <trkpt lat="44.05888" lon="4.71205">
        <ele>116.7</ele>
        <time>2012-06-13T08:08:55.000Z</time>
      </trkpt>
      <trkpt lat="44.05891" lon="4.7121">
        <ele>116.2</ele>
        <time>2012-06-13T08:08:56.000Z</time>
      </trkpt>
      <trkpt lat="44.05895" lon="4.71216">
        <ele>116.2</ele>
        <time>2012-06-13T08:08:57.000Z</time>
      </trkpt>
      <trkpt lat="44.05899" lon="4.71222">
        <ele>116.3</ele>
        <time>2012-06-13T08:08:58.000Z</time>
      </trkpt>
      <trkpt lat="44.05902" lon="4.71228">
        <ele>116.1</ele>
        <time>2012-06-13T08:08:59.000Z</time>
      </trkpt>
      <trkpt lat="44.05904" lon="4.71235">
        <ele>116.1</ele>
        <time>2012-06-13T08:09:00.000Z</time>
      </trkpt>
      <trkpt lat="44.05905" lon="4.71243">
        <ele>115.7</ele>
        <time>2012-06-13T08:09:01.000Z</time>
      </trkpt>
      <trkpt lat="44.05907" lon="4.71249">
        <ele>115.3</ele>
        <time>2012-06-13T08:09:02.000Z</time>
      </trkpt>
      <trkpt lat="44.0591" lon="4.71256">
        <ele>115.3</ele>
        <time>2012-06-13T08:09:03.000Z</time>
      </trkpt>
      <trkpt lat="44.05915" lon="4.71261">
        <ele>114.9</ele>
        <time>2012-06-13T08:09:04.000Z</time>
      </trkpt>
      <trkpt lat="44.0592" lon="4.71264">
        <ele>114.4</ele>
        <time>2012-06-13T08:09:05.000Z</time>
      </trkpt>
      <trkpt lat="44.05925" lon="4.71266">
        <ele>113.9</ele>
        <time>2012-06-13T08:09:06.000Z</time>
      </trkpt>
      <trkpt lat="44.05931" lon="4.71269">
        <ele>114</ele>
        <time>2012-06-13T08:09:07.000Z</time>
      </trkpt>
      <trkpt lat="44.05936" lon="4.71272">
        <ele>114.2</ele>
        <time>2012-06-13T08:09:08.000Z</time>
      </trkpt>
      <trkpt lat="44.0594" lon="4.71276">
        <ele>114.1</ele>
        <time>2012-06-13T08:09:09.000Z</time>
      </trkpt>
      <trkpt lat="44.05943" lon="4.71282">
        <ele>113.9</ele>
        <time>2012-06-13T08:09:10.000Z</time>
      </trkpt>
      <trkpt lat="44.05948" lon="4.71287">
        <ele>113.6</ele>
        <time>2012-06-13T08:09:11.000Z</time>
      </trkpt>
      <trkpt lat="44.0595" lon="4.71292">
        <ele>113.4</ele>
        <time>2012-06-13T08:09:12.000Z</time>
      </trkpt>
      <trkpt lat="44.05954" lon="4.71297">
        <ele>113.8</ele>
        <time>2012-06-13T08:09:13.000Z</time>
      </trkpt>
      <trkpt lat="44.0596" lon="4.71308">
        <ele>113.7</ele>
        <time>2012-06-13T08:09:15.000Z</time>
      </trkpt>
      <trkpt lat="44.05963" lon="4.71312">
        <ele>113.6</ele>
        <time>2012-06-13T08:09:16.000Z</time>
      </trkpt>
      <trkpt lat="44.05967" lon="4.71318">
        <ele>113.7</ele>
        <time>2012-06-13T08:09:17.000Z</time>
      </trkpt>
      <trkpt lat="44.05971" lon="4.71322">
        <ele>113.5</ele>
        <time>2012-06-13T08:09:18.000Z</time>
      </trkpt>
      <trkpt lat="44.05975" lon="4.71327">
        <ele>113.6</ele>
        <time>2012-06-13T08:09:19.000Z</time>
      </trkpt>
      <trkpt lat="44.05981" lon="4.71336">
        <ele>112.9</ele>
        <time>2012-06-13T08:09:21.000Z</time>
      </trkpt>
      <trkpt lat="44.05985" lon="4.71342">
        <ele>113</ele>
        <time>2012-06-13T08:09:22.000Z</time>
      </trkpt>
      <trkpt lat="44.05989" lon="4.71347">
        <ele>112.9</ele>
        <time>2012-06-13T08:09:23.000Z</time>
      </trkpt>
      <trkpt lat="44.05991" lon="4.71352">
        <ele>112.4</ele>
        <time>2012-06-13T08:09:24.000Z</time>
      </trkpt>
      <trkpt lat="44.05996" lon="4.71359">
        <ele>112</ele>
        <time>2012-06-13T08:09:25.000Z</time>
      </trkpt>
      <trkpt lat="44.06001" lon="4.71363">
        <ele>111.9</ele>
        <time>2012-06-13T08:09:26.000Z</time>
      </trkpt>
      <trkpt lat="44.06005" lon="4.71368">
        <ele>111.9</ele>
        <time>2012-06-13T08:09:27.000Z</time>
      </trkpt>
      <trkpt lat="44.0601" lon="4.71374">
        <ele>111.9</ele>
        <time>2012-06-13T08:09:28.000Z</time>
      </trkpt>
      <trkpt lat="44.06015" lon="4.7138">
        <ele>111.4</ele>
        <time>2012-06-13T08:09:29.000Z</time>
      </trkpt>
      <trkpt lat="44.06019" lon="4.71385">
        <ele>111.5</ele>
        <time>2012-06-13T08:09:30.000Z</time>
      </trkpt>
      <trkpt lat="44.06025" lon="4.71395">
        <ele>111.4</ele>
        <time>2012-06-13T08:09:32.000Z</time>
      </trkpt>
      <trkpt lat="44.06028" lon="4.714">
        <ele>111.1</ele>
        <time>2012-06-13T08:09:33.000Z</time>
      </trkpt>
      <trkpt lat="44.06031" lon="4.71405">
        <ele>111.1</ele>
        <time>2012-06-13T08:09:34.000Z</time>
      </trkpt>
      <trkpt lat="44.06036" lon="4.71409">
        <ele>110.9</ele>
        <time>2012-06-13T08:09:35.000Z</time>
      </trkpt>
      <trkpt lat="44.06042" lon="4.71417">
        <ele>110.6</ele>
        <time>2012-06-13T08:09:37.000Z</time>
      </trkpt>
      <trkpt lat="44.06048" lon="4.71422">
        <ele>110.7</ele>
        <time>2012-06-13T08:09:38.000Z</time>
      </trkpt>
      <trkpt lat="44.06051" lon="4.71427">
        <ele>110.8</ele>
        <time>2012-06-13T08:09:39.000Z</time>
      </trkpt>
      <trkpt lat="44.06055" lon="4.71432">
        <ele>111</ele>
        <time>2012-06-13T08:09:40.000Z</time>
      </trkpt>
      <trkpt lat="44.06059" lon="4.71438">
        <ele>111.3</ele>
        <time>2012-06-13T08:09:41.000Z</time>
      </trkpt>
      <trkpt lat="44.06063" lon="4.71443">
        <ele>111.4</ele>
        <time>2012-06-13T08:09:42.000Z</time>
      </trkpt>
      <trkpt lat="44.06066" lon="4.71449">
        <ele>111.5</ele>
        <time>2012-06-13T08:09:43.000Z</time>
      </trkpt>
      <trkpt lat="44.06071" lon="4.71455">
        <ele>111.6</ele>
        <time>2012-06-13T08:09:44.000Z</time>
      </trkpt>
      <trkpt lat="44.06075" lon="4.7146">
        <ele>111.2</ele>
        <time>2012-06-13T08:09:45.000Z</time>
      </trkpt>
      <trkpt lat="44.06079" lon="4.71466">
        <ele>111</ele>
        <time>2012-06-13T08:09:46.000Z</time>
      </trkpt>
      <trkpt lat="44.06084" lon="4.71472">
        <ele>111.1</ele>
        <time>2012-06-13T08:09:47.000Z</time>
      </trkpt>
      <trkpt lat="44.0609" lon="4.71477">
        <ele>110.8</ele>
        <time>2012-06-13T08:09:48.000Z</time>
      </trkpt>
      <trkpt lat="44.06096" lon="4.71483">
        <ele>110.8</ele>
        <time>2012-06-13T08:09:49.000Z</time>
      </trkpt>
      <trkpt lat="44.06102" lon="4.71486">
        <ele>110.9</ele>
        <time>2012-06-13T08:09:50.000Z</time>
      </trkpt>
      <trkpt lat="44.06107" lon="4.71493">
        <ele>110.8</ele>
        <time>2012-06-13T08:09:51.000Z</time>
      </trkpt>
      <trkpt lat="44.06112" lon="4.715">
        <ele>109.6</ele>
        <time>2012-06-13T08:09:52.000Z</time>
      </trkpt>
      <trkpt lat="44.06116" lon="4.71505">
        <ele>109.7</ele>
        <time>2012-06-13T08:09:53.000Z</time>
      </trkpt>
      <trkpt lat="44.06121" lon="4.7151">
        <ele>109.7</ele>
        <time>2012-06-13T08:09:54.000Z</time>
      </trkpt>
      <trkpt lat="44.06126" lon="4.71515">
        <ele>109.5</ele>
        <time>2012-06-13T08:09:55.000Z</time>
      </trkpt>
      <trkpt lat="44.0613" lon="4.7152">
        <ele>109.2</ele>
        <time>2012-06-13T08:09:56.000Z</time>
      </trkpt>
      <trkpt lat="44.06135" lon="4.71526">
        <ele>109</ele>
        <time>2012-06-13T08:09:57.000Z</time>
      </trkpt>
      <trkpt lat="44.0614" lon="4.71531">
        <ele>108.9</ele>
        <time>2012-06-13T08:09:58.000Z</time>
      </trkpt>
      <trkpt lat="44.06144" lon="4.71534">
        <ele>108.5</ele>
        <time>2012-06-13T08:09:59.000Z</time>
      </trkpt>
      <trkpt lat="44.06148" lon="4.71541">
        <ele>108.6</ele>
        <time>2012-06-13T08:10:00.000Z</time>
      </trkpt>
      <trkpt lat="44.06151" lon="4.71547">
        <ele>108.2</ele>
        <time>2012-06-13T08:10:01.000Z</time>
      </trkpt>
      <trkpt lat="44.06155" lon="4.71555">
        <ele>108.3</ele>
        <time>2012-06-13T08:10:02.000Z</time>
      </trkpt>
      <trkpt lat="44.06159" lon="4.71561">
        <ele>108.2</ele>
        <time>2012-06-13T08:10:03.000Z</time>
      </trkpt>
      <trkpt lat="44.06163" lon="4.71567">
        <ele>107.7</ele>
        <time>2012-06-13T08:10:04.000Z</time>
      </trkpt>
      <trkpt lat="44.06166" lon="4.71573">
        <ele>107.9</ele>
        <time>2012-06-13T08:10:05.000Z</time>
      </trkpt>
      <trkpt lat="44.0617" lon="4.71578">
        <ele>107.9</ele>
        <time>2012-06-13T08:10:06.000Z</time>
      </trkpt>
      <trkpt lat="44.06174" lon="4.71583">
        <ele>108.2</ele>
        <time>2012-06-13T08:10:07.000Z</time>
      </trkpt>
      <trkpt lat="44.06179" lon="4.7159">
        <ele>108.1</ele>
        <time>2012-06-13T08:10:08.000Z</time>
      </trkpt>
      <trkpt lat="44.06183" lon="4.71595">
        <ele>107.8</ele>
        <time>2012-06-13T08:10:09.000Z</time>
      </trkpt>
      <trkpt lat="44.06186" lon="4.71601">
        <ele>107.9</ele>
        <time>2012-06-13T08:10:10.000Z</time>
      </trkpt>
      <trkpt lat="44.0619" lon="4.71606">
        <ele>108.1</ele>
        <time>2012-06-13T08:10:11.000Z</time>
      </trkpt>
      <trkpt lat="44.06193" lon="4.71614">
        <ele>108.6</ele>
        <time>2012-06-13T08:10:12.000Z</time>
      </trkpt>
      <trkpt lat="44.06196" lon="4.71619">
        <ele>108.6</ele>
        <time>2012-06-13T08:10:13.000Z</time>
      </trkpt>
      <trkpt lat="44.062" lon="4.71625">
        <ele>108.4</ele>
        <time>2012-06-13T08:10:14.000Z</time>
      </trkpt>
      <trkpt lat="44.06205" lon="4.71631">
        <ele>108.4</ele>
        <time>2012-06-13T08:10:15.000Z</time>
      </trkpt>
      <trkpt lat="44.0621" lon="4.71636">
        <ele>106.1</ele>
        <time>2012-06-13T08:10:16.000Z</time>
      </trkpt>
      <trkpt lat="44.06214" lon="4.71644">
        <ele>105.4</ele>
        <time>2012-06-13T08:10:17.000Z</time>
      </trkpt>
      <trkpt lat="44.06218" lon="4.71649">
        <ele>104.9</ele>
        <time>2012-06-13T08:10:18.000Z</time>
      </trkpt>
      <trkpt lat="44.06222" lon="4.71656">
        <ele>105</ele>
        <time>2012-06-13T08:10:19.000Z</time>
      </trkpt>
      <trkpt lat="44.06225" lon="4.71661">
        <ele>105</ele>
        <time>2012-06-13T08:10:20.000Z</time>
      </trkpt>
      <trkpt lat="44.06229" lon="4.71667">
        <ele>105.2</ele>
        <time>2012-06-13T08:10:21.000Z</time>
      </trkpt>
      <trkpt lat="44.06232" lon="4.71673">
        <ele>105.7</ele>
        <time>2012-06-13T08:10:22.000Z</time>
      </trkpt>
      <trkpt lat="44.06236" lon="4.71679">
        <ele>105.8</ele>
        <time>2012-06-13T08:10:23.000Z</time>
      </trkpt>
      <trkpt lat="44.0624" lon="4.71686">
        <ele>105.5</ele>
        <time>2012-06-13T08:10:24.000Z</time>
      </trkpt>
      <trkpt lat="44.06244" lon="4.71693">
        <ele>104.7</ele>
        <time>2012-06-13T08:10:25.000Z</time>
      </trkpt>
      <trkpt lat="44.06248" lon="4.71701">
        <ele>105.5</ele>
        <time>2012-06-13T08:10:26.000Z</time>
      </trkpt>
      <trkpt lat="44.06253" lon="4.71708">
        <ele>104.8</ele>
        <time>2012-06-13T08:10:27.000Z</time>
      </trkpt>
      <trkpt lat="44.06257" lon="4.71716">
        <ele>105.1</ele>
        <time>2012-06-13T08:10:28.000Z</time>
      </trkpt>
      <trkpt lat="44.0626" lon="4.71722">
        <ele>105.8</ele>
        <time>2012-06-13T08:10:29.000Z</time>
      </trkpt>
      <trkpt lat="44.06264" lon="4.71729">
        <ele>106.2</ele>
        <time>2012-06-13T08:10:30.000Z</time>
      </trkpt>
      <trkpt lat="44.06268" lon="4.71737">
        <ele>106.6</ele>
        <time>2012-06-13T08:10:31.000Z</time>
      </trkpt>
      <trkpt lat="44.06271" lon="4.71745">
        <ele>106</ele>
        <time>2012-06-13T08:10:32.000Z</time>
      </trkpt>
      <trkpt lat="44.06274" lon="4.71752">
        <ele>105.8</ele>
        <time>2012-06-13T08:10:33.000Z</time>
      </trkpt>
      <trkpt lat="44.06278" lon="4.71759">
        <ele>106.1</ele>
        <time>2012-06-13T08:10:34.000Z</time>
      </trkpt>
      <trkpt lat="44.06281" lon="4.71766">
        <ele>106.1</ele>
        <time>2012-06-13T08:10:35.000Z</time>
      </trkpt>
      <trkpt lat="44.06284" lon="4.71772">
        <ele>105.7</ele>
        <time>2012-06-13T08:10:36.000Z</time>
      </trkpt>
      <trkpt lat="44.06286" lon="4.7178">
        <ele>105.7</ele>
        <time>2012-06-13T08:10:37.000Z</time>
      </trkpt>
      <trkpt lat="44.0629" lon="4.71787">
        <ele>105.9</ele>
        <time>2012-06-13T08:10:38.000Z</time>
      </trkpt>
      <trkpt lat="44.06291" lon="4.71794">
        <ele>106.1</ele>
        <time>2012-06-13T08:10:39.000Z</time>
      </trkpt>
      <trkpt lat="44.06294" lon="4.71802">
        <ele>106</ele>
        <time>2012-06-13T08:10:40.000Z</time>
      </trkpt>
      <trkpt lat="44.06297" lon="4.71808">
        <ele>105.6</ele>
        <time>2012-06-13T08:10:41.000Z</time>
      </trkpt>
      <trkpt lat="44.063" lon="4.71816">
        <ele>105.4</ele>
        <time>2012-06-13T08:10:42.000Z</time>
      </trkpt>
      <trkpt lat="44.06303" lon="4.71824">
        <ele>105.5</ele>
        <time>2012-06-13T08:10:43.000Z</time>
      </trkpt>
      <trkpt lat="44.06305" lon="4.71831">
        <ele>105.1</ele>
        <time>2012-06-13T08:10:44.000Z</time>
      </trkpt>
      <trkpt lat="44.06307" lon="4.7184">
        <ele>105.2</ele>
        <time>2012-06-13T08:10:45.000Z</time>
      </trkpt>
      <trkpt lat="44.0631" lon="4.71853">
        <ele>105.3</ele>
        <time>2012-06-13T08:10:47.000Z</time>
      </trkpt>
      <trkpt lat="44.06312" lon="4.71867">
        <ele>104.7</ele>
        <time>2012-06-13T08:10:49.000Z</time>
      </trkpt>
      <trkpt lat="44.06314" lon="4.71876">
        <ele>104.3</ele>
        <time>2012-06-13T08:10:50.000Z</time>
      </trkpt>
      <trkpt lat="44.06315" lon="4.71884">
        <ele>104.2</ele>
        <time>2012-06-13T08:10:51.000Z</time>
      </trkpt>
      <trkpt lat="44.06317" lon="4.71892">
        <ele>103.8</ele>
        <time>2012-06-13T08:10:52.000Z</time>
      </trkpt>
      <trkpt lat="44.0632" lon="4.71901">
        <ele>103.2</ele>
        <time>2012-06-13T08:10:53.000Z</time>
      </trkpt>
      <trkpt lat="44.06321" lon="4.7191">
        <ele>103.1</ele>
        <time>2012-06-13T08:10:54.000Z</time>
      </trkpt>
      <trkpt lat="44.06325" lon="4.71919">
        <ele>103</ele>
        <time>2012-06-13T08:10:55.000Z</time>
      </trkpt>
      <trkpt lat="44.06328" lon="4.71928">
        <ele>103.1</ele>
        <time>2012-06-13T08:10:56.000Z</time>
      </trkpt>
      <trkpt lat="44.06329" lon="4.71938">
        <ele>104</ele>
        <time>2012-06-13T08:10:57.000Z</time>
      </trkpt>
      <trkpt lat="44.06331" lon="4.71947">
        <ele>103.3</ele>
        <time>2012-06-13T08:10:58.000Z</time>
      </trkpt>
      <trkpt lat="44.06332" lon="4.71957">
        <ele>102.3</ele>
        <time>2012-06-13T08:10:59.000Z</time>
      </trkpt>
      <trkpt lat="44.06333" lon="4.71966">
        <ele>103.2</ele>
        <time>2012-06-13T08:11:00.000Z</time>
      </trkpt>
      <trkpt lat="44.06334" lon="4.71975">
        <ele>103.5</ele>
        <time>2012-06-13T08:11:01.000Z</time>
      </trkpt>
      <trkpt lat="44.06334" lon="4.71983">
        <ele>102.5</ele>
        <time>2012-06-13T08:11:02.000Z</time>
      </trkpt>
      <trkpt lat="44.06336" lon="4.71991">
        <ele>102.5</ele>
        <time>2012-06-13T08:11:03.000Z</time>
      </trkpt>
      <trkpt lat="44.06338" lon="4.71998">
        <ele>103.1</ele>
        <time>2012-06-13T08:11:04.000Z</time>
      </trkpt>
      <trkpt lat="44.06339" lon="4.72006">
        <ele>103.2</ele>
        <time>2012-06-13T08:11:05.000Z</time>
      </trkpt>
      <trkpt lat="44.0634" lon="4.72014">
        <ele>103.6</ele>
        <time>2012-06-13T08:11:06.000Z</time>
      </trkpt>
      <trkpt lat="44.06342" lon="4.72024">
        <ele>103.8</ele>
        <time>2012-06-13T08:11:07.000Z</time>
      </trkpt>
      <trkpt lat="44.06343" lon="4.72033">
        <ele>104</ele>
        <time>2012-06-13T08:11:08.000Z</time>
      </trkpt>
      <trkpt lat="44.06345" lon="4.72042">
        <ele>104.6</ele>
        <time>2012-06-13T08:11:09.000Z</time>
      </trkpt>
      <trkpt lat="44.06346" lon="4.7205">
        <ele>104.6</ele>
        <time>2012-06-13T08:11:10.000Z</time>
      </trkpt>
      <trkpt lat="44.06346" lon="4.72058">
        <ele>104</ele>
        <time>2012-06-13T08:11:11.000Z</time>
      </trkpt>
      <trkpt lat="44.06346" lon="4.72067">
        <ele>104</ele>
        <time>2012-06-13T08:11:12.000Z</time>
      </trkpt>
      <trkpt lat="44.06347" lon="4.72076">
        <ele>103.7</ele>
        <time>2012-06-13T08:11:13.000Z</time>
      </trkpt>
      <trkpt lat="44.06348" lon="4.72084">
        <ele>103.8</ele>
        <time>2012-06-13T08:11:14.000Z</time>
      </trkpt>
      <trkpt lat="44.06349" lon="4.72092">
        <ele>104</ele>
        <time>2012-06-13T08:11:15.000Z</time>
      </trkpt>
      <trkpt lat="44.06347" lon="4.72102">
        <ele>104.3</ele>
        <time>2012-06-13T08:11:16.000Z</time>
      </trkpt>
      <trkpt lat="44.06346" lon="4.72113">
        <ele>104.7</ele>
        <time>2012-06-13T08:11:17.000Z</time>
      </trkpt>
      <trkpt lat="44.06345" lon="4.72121">
        <ele>104.8</ele>
        <time>2012-06-13T08:11:18.000Z</time>
      </trkpt>
      <trkpt lat="44.06348" lon="4.72128">
        <ele>104.6</ele>
        <time>2012-06-13T08:11:19.000Z</time>
      </trkpt>
      <trkpt lat="44.06348" lon="4.72135">
        <ele>104.7</ele>
        <time>2012-06-13T08:11:20.000Z</time>
      </trkpt>
      <trkpt lat="44.06349" lon="4.72143">
        <ele>104.7</ele>
        <time>2012-06-13T08:11:21.000Z</time>
      </trkpt>
      <trkpt lat="44.06348" lon="4.72152">
        <ele>104.9</ele>
        <time>2012-06-13T08:11:22.000Z</time>
      </trkpt>
      <trkpt lat="44.06349" lon="4.7216">
        <ele>105.1</ele>
        <time>2012-06-13T08:11:23.000Z</time>
      </trkpt>
      <trkpt lat="44.06351" lon="4.72168">
        <ele>105.1</ele>
        <time>2012-06-13T08:11:24.000Z</time>
      </trkpt>
      <trkpt lat="44.06353" lon="4.72174">
        <ele>104.2</ele>
        <time>2012-06-13T08:11:25.000Z</time>
      </trkpt>
      <trkpt lat="44.06356" lon="4.72186">
        <ele>104.7</ele>
        <time>2012-06-13T08:11:27.000Z</time>
      </trkpt>
      <trkpt lat="44.06358" lon="4.72192">
        <ele>104.2</ele>
        <time>2012-06-13T08:11:28.000Z</time>
      </trkpt>
      <trkpt lat="44.06361" lon="4.72199">
        <ele>104.1</ele>
        <time>2012-06-13T08:11:29.000Z</time>
      </trkpt>
      <trkpt lat="44.06364" lon="4.72209">
        <ele>104.1</ele>
        <time>2012-06-13T08:11:31.000Z</time>
      </trkpt>
      <trkpt lat="44.06366" lon="4.72221">
        <ele>103.1</ele>
        <time>2012-06-13T08:11:33.000Z</time>
      </trkpt>
      <trkpt lat="44.06368" lon="4.72227">
        <ele>103.7</ele>
        <time>2012-06-13T08:11:34.000Z</time>
      </trkpt>
      <trkpt lat="44.0637" lon="4.72237">
        <ele>102.6</ele>
        <time>2012-06-13T08:11:36.000Z</time>
      </trkpt>
      <trkpt lat="44.06372" lon="4.72249">
        <ele>103.2</ele>
        <time>2012-06-13T08:11:38.000Z</time>
      </trkpt>
      <trkpt lat="44.0637" lon="4.72255">
        <ele>101.5</ele>
        <time>2012-06-13T08:11:39.000Z</time>
      </trkpt>
      <trkpt lat="44.0637" lon="4.72266">
        <ele>101.4</ele>
        <time>2012-06-13T08:11:41.000Z</time>
      </trkpt>
      <trkpt lat="44.06372" lon="4.72277">
        <ele>101</ele>
        <time>2012-06-13T08:11:43.000Z</time>
      </trkpt>
      <trkpt lat="44.06374" lon="4.72287">
        <ele>104.2</ele>
        <time>2012-06-13T08:11:45.000Z</time>
      </trkpt>
      <trkpt lat="44.06376" lon="4.72293">
        <ele>106.1</ele>
        <time>2012-06-13T08:11:47.000Z</time>
      </trkpt>
      <trkpt lat="44.06377" lon="4.72301">
        <ele>106.5</ele>
        <time>2012-06-13T08:11:49.000Z</time>
      </trkpt>
      <trkpt lat="44.0638" lon="4.72308">
        <ele>105.4</ele>
        <time>2012-06-13T08:11:51.000Z</time>
      </trkpt>
      <trkpt lat="44.06382" lon="4.72318">
        <ele>103.9</ele>
        <time>2012-06-13T08:11:53.000Z</time>
      </trkpt>
      <trkpt lat="44.06384" lon="4.72328">
        <ele>103.1</ele>
        <time>2012-06-13T08:11:55.000Z</time>
      </trkpt>
      <trkpt lat="44.06387" lon="4.72338">
        <ele>103.3</ele>
        <time>2012-06-13T08:11:57.000Z</time>
      </trkpt>
      <trkpt lat="44.0639" lon="4.7235">
        <ele>104</ele>
        <time>2012-06-13T08:11:59.000Z</time>
      </trkpt>
      <trkpt lat="44.06389" lon="4.72359">
        <ele>104.1</ele>
        <time>2012-06-13T08:12:01.000Z</time>
      </trkpt>
      <trkpt lat="44.06388" lon="4.72368">
        <ele>103.4</ele>
        <time>2012-06-13T08:12:03.000Z</time>
      </trkpt>
      <trkpt lat="44.06387" lon="4.72378">
        <ele>103.7</ele>
        <time>2012-06-13T08:12:05.000Z</time>
      </trkpt>
      <trkpt lat="44.06384" lon="4.72388">
        <ele>104.2</ele>
        <time>2012-06-13T08:12:07.000Z</time>
      </trkpt>
      <trkpt lat="44.06382" lon="4.72394">
        <ele>104.1</ele>
        <time>2012-06-13T08:12:08.000Z</time>
      </trkpt>
      <trkpt lat="44.06382" lon="4.72403">
        <ele>103.7</ele>
        <time>2012-06-13T08:12:10.000Z</time>
      </trkpt>
      <trkpt lat="44.06382" lon="4.72412">
        <ele>103.3</ele>
        <time>2012-06-13T08:12:12.000Z</time>
      </trkpt>
      <trkpt lat="44.06382" lon="4.7242">
        <ele>103.7</ele>
        <time>2012-06-13T08:12:14.000Z</time>
      </trkpt>
      <trkpt lat="44.06382" lon="4.72429">
        <ele>103.5</ele>
        <time>2012-06-13T08:12:16.000Z</time>
      </trkpt>
      <trkpt lat="44.06381" lon="4.72439">
        <ele>103.5</ele>
        <time>2012-06-13T08:12:18.000Z</time>
      </trkpt>
      <trkpt lat="44.06378" lon="4.72449">
        <ele>103.4</ele>
        <time>2012-06-13T08:12:20.000Z</time>
      </trkpt>
      <trkpt lat="44.06376" lon="4.72459">
        <ele>103.2</ele>
        <time>2012-06-13T08:12:22.000Z</time>
      </trkpt>
      <trkpt lat="44.06375" lon="4.72468">
        <ele>103.1</ele>
        <time>2012-06-13T08:12:24.000Z</time>
      </trkpt>
      <trkpt lat="44.06373" lon="4.72475">
        <ele>102.8</ele>
        <time>2012-06-13T08:12:26.000Z</time>
      </trkpt>
      <trkpt lat="44.06372" lon="4.72484">
        <ele>103</ele>
        <time>2012-06-13T08:12:28.000Z</time>
      </trkpt>
      <trkpt lat="44.06369" lon="4.72493">
        <ele>102.9</ele>
        <time>2012-06-13T08:12:30.000Z</time>
      </trkpt>
      <trkpt lat="44.06368" lon="4.72499">
        <ele>103.2</ele>
        <time>2012-06-13T08:12:31.000Z</time>
      </trkpt>
      <trkpt lat="44.06365" lon="4.72508">
        <ele>102.7</ele>
        <time>2012-06-13T08:12:33.000Z</time>
      </trkpt>
      <trkpt lat="44.06362" lon="4.72515">
        <ele>102.5</ele>
        <time>2012-06-13T08:12:35.000Z</time>
      </trkpt>
      <trkpt lat="44.06362" lon="4.72528">
        <ele>103.5</ele>
        <time>2012-06-13T08:12:37.000Z</time>
      </trkpt>
      <trkpt lat="44.06361" lon="4.72538">
        <ele>104.7</ele>
        <time>2012-06-13T08:12:39.000Z</time>
      </trkpt>
      <trkpt lat="44.06358" lon="4.7255">
        <ele>104.5</ele>
        <time>2012-06-13T08:12:41.000Z</time>
      </trkpt>
      <trkpt lat="44.06354" lon="4.72556">
        <ele>104.6</ele>
        <time>2012-06-13T08:12:42.000Z</time>
      </trkpt>
      <trkpt lat="44.06351" lon="4.72562">
        <ele>104.4</ele>
        <time>2012-06-13T08:12:43.000Z</time>
      </trkpt>
      <trkpt lat="44.06349" lon="4.72568">
        <ele>105.2</ele>
        <time>2012-06-13T08:12:44.000Z</time>
      </trkpt>
      <trkpt lat="44.06347" lon="4.72578">
        <ele>106.2</ele>
        <time>2012-06-13T08:12:45.000Z</time>
      </trkpt>
      <trkpt lat="44.06346" lon="4.72587">
        <ele>106.3</ele>
        <time>2012-06-13T08:12:46.000Z</time>
      </trkpt>
      <trkpt lat="44.06344" lon="4.72594">
        <ele>107.4</ele>
        <time>2012-06-13T08:12:47.000Z</time>
      </trkpt>
      <trkpt lat="44.06342" lon="4.72602">
        <ele>107.4</ele>
        <time>2012-06-13T08:12:48.000Z</time>
      </trkpt>
      <trkpt lat="44.06341" lon="4.72609">
        <ele>107.5</ele>
        <time>2012-06-13T08:12:49.000Z</time>
      </trkpt>
      <trkpt lat="44.06339" lon="4.72616">
        <ele>107.6</ele>
        <time>2012-06-13T08:12:50.000Z</time>
      </trkpt>
      <trkpt lat="44.06338" lon="4.72623">
        <ele>108</ele>
        <time>2012-06-13T08:12:51.000Z</time>
      </trkpt>
      <trkpt lat="44.06336" lon="4.72629">
        <ele>107.3</ele>
        <time>2012-06-13T08:12:52.000Z</time>
      </trkpt>
      <trkpt lat="44.06334" lon="4.72635">
        <ele>107.2</ele>
        <time>2012-06-13T08:12:53.000Z</time>
      </trkpt>
      <trkpt lat="44.06334" lon="4.72642">
        <ele>107</ele>
        <time>2012-06-13T08:12:54.000Z</time>
      </trkpt>
      <trkpt lat="44.06332" lon="4.72649">
        <ele>106.8</ele>
        <time>2012-06-13T08:12:55.000Z</time>
      </trkpt>
      <trkpt lat="44.06329" lon="4.72657">
        <ele>106.2</ele>
        <time>2012-06-13T08:12:56.000Z</time>
      </trkpt>
      <trkpt lat="44.06329" lon="4.72664">
        <ele>106</ele>
        <time>2012-06-13T08:12:57.000Z</time>
      </trkpt>
      <trkpt lat="44.06328" lon="4.72672">
        <ele>106.1</ele>
        <time>2012-06-13T08:12:58.000Z</time>
      </trkpt>
      <trkpt lat="44.06325" lon="4.7268">
        <ele>105.8</ele>
        <time>2012-06-13T08:12:59.000Z</time>
      </trkpt>
      <trkpt lat="44.06322" lon="4.72688">
        <ele>105.5</ele>
        <time>2012-06-13T08:13:00.000Z</time>
      </trkpt>
      <trkpt lat="44.0632" lon="4.72696">
        <ele>105.3</ele>
        <time>2012-06-13T08:13:01.000Z</time>
      </trkpt>
      <trkpt lat="44.06318" lon="4.72704">
        <ele>105.2</ele>
        <time>2012-06-13T08:13:02.000Z</time>
      </trkpt>
      <trkpt lat="44.06316" lon="4.72713">
        <ele>105</ele>
        <time>2012-06-13T08:13:03.000Z</time>
      </trkpt>
      <trkpt lat="44.06314" lon="4.72724">
        <ele>104.9</ele>
        <time>2012-06-13T08:13:04.000Z</time>
      </trkpt>
      <trkpt lat="44.06312" lon="4.72735">
        <ele>104.6</ele>
        <time>2012-06-13T08:13:05.000Z</time>
      </trkpt>
      <trkpt lat="44.06308" lon="4.72746">
        <ele>105.1</ele>
        <time>2012-06-13T08:13:06.000Z</time>
      </trkpt>
      <trkpt lat="44.06305" lon="4.72755">
        <ele>105.6</ele>
        <time>2012-06-13T08:13:07.000Z</time>
      </trkpt>
      <trkpt lat="44.06303" lon="4.72763">
        <ele>104.4</ele>
        <time>2012-06-13T08:13:08.000Z</time>
      </trkpt>
      <trkpt lat="44.06301" lon="4.72774">
        <ele>104.4</ele>
        <time>2012-06-13T08:13:09.000Z</time>
      </trkpt>
      <trkpt lat="44.063" lon="4.72784">
        <ele>104.2</ele>
        <time>2012-06-13T08:13:10.000Z</time>
      </trkpt>
      <trkpt lat="44.06297" lon="4.72794">
        <ele>104.2</ele>
        <time>2012-06-13T08:13:11.000Z</time>
      </trkpt>
      <trkpt lat="44.06294" lon="4.72804">
        <ele>104</ele>
        <time>2012-06-13T08:13:12.000Z</time>
      </trkpt>
      <trkpt lat="44.06292" lon="4.72814">
        <ele>103.1</ele>
        <time>2012-06-13T08:13:13.000Z</time>
      </trkpt>
      <trkpt lat="44.0629" lon="4.72826">
        <ele>103.3</ele>
        <time>2012-06-13T08:13:14.000Z</time>
      </trkpt>
      <trkpt lat="44.06287" lon="4.72835">
        <ele>103.7</ele>
        <time>2012-06-13T08:13:15.000Z</time>
      </trkpt>
      <trkpt lat="44.06286" lon="4.72844">
        <ele>102.5</ele>
        <time>2012-06-13T08:13:16.000Z</time>
      </trkpt>
      <trkpt lat="44.06284" lon="4.72854">
        <ele>102.7</ele>
        <time>2012-06-13T08:13:17.000Z</time>
      </trkpt>
      <trkpt lat="44.06282" lon="4.72865">
        <ele>102</ele>
        <time>2012-06-13T08:13:18.000Z</time>
      </trkpt>
      <trkpt lat="44.06281" lon="4.72875">
        <ele>102.8</ele>
        <time>2012-06-13T08:13:19.000Z</time>
      </trkpt>
      <trkpt lat="44.0628" lon="4.72884">
        <ele>102.6</ele>
        <time>2012-06-13T08:13:20.000Z</time>
      </trkpt>
      <trkpt lat="44.06279" lon="4.72893">
        <ele>102.2</ele>
        <time>2012-06-13T08:13:21.000Z</time>
      </trkpt>
      <trkpt lat="44.06276" lon="4.72901">
        <ele>101.6</ele>
        <time>2012-06-13T08:13:22.000Z</time>
      </trkpt>
      <trkpt lat="44.06274" lon="4.7291">
        <ele>101.5</ele>
        <time>2012-06-13T08:13:23.000Z</time>
      </trkpt>
      <trkpt lat="44.06272" lon="4.72917">
        <ele>101.8</ele>
        <time>2012-06-13T08:13:24.000Z</time>
      </trkpt>
      <trkpt lat="44.06269" lon="4.72927">
        <ele>101.8</ele>
        <time>2012-06-13T08:13:25.000Z</time>
      </trkpt>
      <trkpt lat="44.06265" lon="4.72937">
        <ele>101.5</ele>
        <time>2012-06-13T08:13:26.000Z</time>
      </trkpt>
      <trkpt lat="44.06261" lon="4.72946">
        <ele>101.4</ele>
        <time>2012-06-13T08:13:27.000Z</time>
      </trkpt>
      <trkpt lat="44.06258" lon="4.72954">
        <ele>101.5</ele>
        <time>2012-06-13T08:13:28.000Z</time>
      </trkpt>
      <trkpt lat="44.06256" lon="4.72963">
        <ele>101.4</ele>
        <time>2012-06-13T08:13:29.000Z</time>
      </trkpt>
      <trkpt lat="44.06253" lon="4.72972">
        <ele>102.1</ele>
        <time>2012-06-13T08:13:30.000Z</time>
      </trkpt>
      <trkpt lat="44.0625" lon="4.72982">
        <ele>102.9</ele>
        <time>2012-06-13T08:13:31.000Z</time>
      </trkpt>
      <trkpt lat="44.06247" lon="4.72992">
        <ele>103</ele>
        <time>2012-06-13T08:13:32.000Z</time>
      </trkpt>
      <trkpt lat="44.06245" lon="4.73001">
        <ele>103.2</ele>
        <time>2012-06-13T08:13:33.000Z</time>
      </trkpt>
      <trkpt lat="44.06243" lon="4.7301">
        <ele>103.2</ele>
        <time>2012-06-13T08:13:34.000Z</time>
      </trkpt>
      <trkpt lat="44.0624" lon="4.7302">
        <ele>103</ele>
        <time>2012-06-13T08:13:35.000Z</time>
      </trkpt>
      <trkpt lat="44.06237" lon="4.73028">
        <ele>103.2</ele>
        <time>2012-06-13T08:13:36.000Z</time>
      </trkpt>
      <trkpt lat="44.06235" lon="4.73037">
        <ele>103</ele>
        <time>2012-06-13T08:13:37.000Z</time>
      </trkpt>
      <trkpt lat="44.06234" lon="4.73045">
        <ele>102.9</ele>
        <time>2012-06-13T08:13:38.000Z</time>
      </trkpt>
      <trkpt lat="44.06232" lon="4.73054">
        <ele>102.9</ele>
        <time>2012-06-13T08:13:39.000Z</time>
      </trkpt>
      <trkpt lat="44.06229" lon="4.73063">
        <ele>102.7</ele>
        <time>2012-06-13T08:13:40.000Z</time>
      </trkpt>
      <trkpt lat="44.06225" lon="4.73072">
        <ele>102.3</ele>
        <time>2012-06-13T08:13:41.000Z</time>
      </trkpt>
      <trkpt lat="44.06221" lon="4.73083">
        <ele>102.6</ele>
        <time>2012-06-13T08:13:42.000Z</time>
      </trkpt>
      <trkpt lat="44.0622" lon="4.7309">
        <ele>102.4</ele>
        <time>2012-06-13T08:13:43.000Z</time>
      </trkpt>
      <trkpt lat="44.06217" lon="4.731">
        <ele>102.3</ele>
        <time>2012-06-13T08:13:44.000Z</time>
      </trkpt>
      <trkpt lat="44.06213" lon="4.7311">
        <ele>102.1</ele>
        <time>2012-06-13T08:13:45.000Z</time>
      </trkpt>
      <trkpt lat="44.06209" lon="4.73121">
        <ele>102</ele>
        <time>2012-06-13T08:13:46.000Z</time>
      </trkpt>
      <trkpt lat="44.06203" lon="4.73132">
        <ele>101.7</ele>
        <time>2012-06-13T08:13:47.000Z</time>
      </trkpt>
      <trkpt lat="44.062" lon="4.73142">
        <ele>101.4</ele>
        <time>2012-06-13T08:13:48.000Z</time>
      </trkpt>
      <trkpt lat="44.06194" lon="4.73154">
        <ele>101.1</ele>
        <time>2012-06-13T08:13:49.000Z</time>
      </trkpt>
      <trkpt lat="44.06192" lon="4.73164">
        <ele>100.7</ele>
        <time>2012-06-13T08:13:50.000Z</time>
      </trkpt>
      <trkpt lat="44.06189" lon="4.73174">
        <ele>100.9</ele>
        <time>2012-06-13T08:13:51.000Z</time>
      </trkpt>
      <trkpt lat="44.06185" lon="4.73183">
        <ele>100.2</ele>
        <time>2012-06-13T08:13:52.000Z</time>
      </trkpt>
      <trkpt lat="44.06182" lon="4.73194">
        <ele>100.1</ele>
        <time>2012-06-13T08:13:53.000Z</time>
      </trkpt>
      <trkpt lat="44.06179" lon="4.73205">
        <ele>99.5</ele>
        <time>2012-06-13T08:13:54.000Z</time>
      </trkpt>
      <trkpt lat="44.06177" lon="4.73216">
        <ele>99.6</ele>
        <time>2012-06-13T08:13:55.000Z</time>
      </trkpt>
      <trkpt lat="44.06174" lon="4.73228">
        <ele>100.6</ele>
        <time>2012-06-13T08:13:56.000Z</time>
      </trkpt>
      <trkpt lat="44.06171" lon="4.73238">
        <ele>101.3</ele>
        <time>2012-06-13T08:13:57.000Z</time>
      </trkpt>
      <trkpt lat="44.06168" lon="4.73247">
        <ele>101.2</ele>
        <time>2012-06-13T08:13:58.000Z</time>
      </trkpt>
      <trkpt lat="44.06164" lon="4.73258">
        <ele>101.3</ele>
        <time>2012-06-13T08:13:59.000Z</time>
      </trkpt>
      <trkpt lat="44.06161" lon="4.73269">
        <ele>100.6</ele>
        <time>2012-06-13T08:14:00.000Z</time>
      </trkpt>
      <trkpt lat="44.06157" lon="4.7328">
        <ele>100.9</ele>
        <time>2012-06-13T08:14:01.000Z</time>
      </trkpt>
      <trkpt lat="44.06153" lon="4.7329">
        <ele>100.7</ele>
        <time>2012-06-13T08:14:02.000Z</time>
      </trkpt>
      <trkpt lat="44.06148" lon="4.73302">
        <ele>100.9</ele>
        <time>2012-06-13T08:14:03.000Z</time>
      </trkpt>
      <trkpt lat="44.06145" lon="4.73313">
        <ele>100.8</ele>
        <time>2012-06-13T08:14:04.000Z</time>
      </trkpt>
      <trkpt lat="44.06141" lon="4.73325">
        <ele>100.5</ele>
        <time>2012-06-13T08:14:05.000Z</time>
      </trkpt>
      <trkpt lat="44.06137" lon="4.73337">
        <ele>99.7</ele>
        <time>2012-06-13T08:14:06.000Z</time>
      </trkpt>
      <trkpt lat="44.06133" lon="4.73348">
        <ele>99.6</ele>
        <time>2012-06-13T08:14:07.000Z</time>
      </trkpt>
      <trkpt lat="44.06129" lon="4.7336">
        <ele>99.7</ele>
        <time>2012-06-13T08:14:08.000Z</time>
      </trkpt>
      <trkpt lat="44.06125" lon="4.73372">
        <ele>99.3</ele>
        <time>2012-06-13T08:14:09.000Z</time>
      </trkpt>
      <trkpt lat="44.06121" lon="4.73382">
        <ele>98.8</ele>
        <time>2012-06-13T08:14:10.000Z</time>
      </trkpt>
      <trkpt lat="44.06117" lon="4.73394">
        <ele>98.5</ele>
        <time>2012-06-13T08:14:11.000Z</time>
      </trkpt>
      <trkpt lat="44.06114" lon="4.73406">
        <ele>98.7</ele>
        <time>2012-06-13T08:14:12.000Z</time>
      </trkpt>
      <trkpt lat="44.06111" lon="4.73418">
        <ele>99</ele>
        <time>2012-06-13T08:14:13.000Z</time>
      </trkpt>
      <trkpt lat="44.06109" lon="4.73429">
        <ele>99</ele>
        <time>2012-06-13T08:14:14.000Z</time>
      </trkpt>
      <trkpt lat="44.06105" lon="4.73439">
        <ele>98.8</ele>
        <time>2012-06-13T08:14:15.000Z</time>
      </trkpt>
      <trkpt lat="44.06101" lon="4.73451">
        <ele>98.7</ele>
        <time>2012-06-13T08:14:16.000Z</time>
      </trkpt>
      <trkpt lat="44.06099" lon="4.7346">
        <ele>98.5</ele>
        <time>2012-06-13T08:14:17.000Z</time>
      </trkpt>
      <trkpt lat="44.06095" lon="4.73469">
        <ele>98.4</ele>
        <time>2012-06-13T08:14:18.000Z</time>
      </trkpt>
      <trkpt lat="44.06091" lon="4.73479">
        <ele>97.5</ele>
        <time>2012-06-13T08:14:19.000Z</time>
      </trkpt>
      <trkpt lat="44.06088" lon="4.73491">
        <ele>96.8</ele>
        <time>2012-06-13T08:14:20.000Z</time>
      </trkpt>
      <trkpt lat="44.06085" lon="4.73502">
        <ele>96.6</ele>
        <time>2012-06-13T08:14:21.000Z</time>
      </trkpt>
      <trkpt lat="44.06082" lon="4.73511">
        <ele>97.2</ele>
        <time>2012-06-13T08:14:22.000Z</time>
      </trkpt>
      <trkpt lat="44.06078" lon="4.73522">
        <ele>96.7</ele>
        <time>2012-06-13T08:14:23.000Z</time>
      </trkpt>
      <trkpt lat="44.06074" lon="4.73536">
        <ele>96.9</ele>
        <time>2012-06-13T08:14:24.000Z</time>
      </trkpt>
      <trkpt lat="44.0607" lon="4.73547">
        <ele>96.1</ele>
        <time>2012-06-13T08:14:25.000Z</time>
      </trkpt>
      <trkpt lat="44.06067" lon="4.73558">
        <ele>96.3</ele>
        <time>2012-06-13T08:14:26.000Z</time>
      </trkpt>
      <trkpt lat="44.06063" lon="4.73569">
        <ele>96.8</ele>
        <time>2012-06-13T08:14:27.000Z</time>
      </trkpt>
      <trkpt lat="44.0606" lon="4.73579">
        <ele>96.8</ele>
        <time>2012-06-13T08:14:28.000Z</time>
      </trkpt>
      <trkpt lat="44.06057" lon="4.7359">
        <ele>97.4</ele>
        <time>2012-06-13T08:14:29.000Z</time>
      </trkpt>
      <trkpt lat="44.06055" lon="4.736">
        <ele>97.6</ele>
        <time>2012-06-13T08:14:30.000Z</time>
      </trkpt>
      <trkpt lat="44.06049" lon="4.73613">
        <ele>97.7</ele>
        <time>2012-06-13T08:14:31.000Z</time>
      </trkpt>
      <trkpt lat="44.06047" lon="4.73623">
        <ele>97.8</ele>
        <time>2012-06-13T08:14:32.000Z</time>
      </trkpt>
      <trkpt lat="44.06044" lon="4.73634">
        <ele>97.1</ele>
        <time>2012-06-13T08:14:33.000Z</time>
      </trkpt>
      <trkpt lat="44.0604" lon="4.73645">
        <ele>97</ele>
        <time>2012-06-13T08:14:34.000Z</time>
      </trkpt>
      <trkpt lat="44.06036" lon="4.73656">
        <ele>96.7</ele>
        <time>2012-06-13T08:14:35.000Z</time>
      </trkpt>
      <trkpt lat="44.06033" lon="4.73668">
        <ele>96.4</ele>
        <time>2012-06-13T08:14:36.000Z</time>
      </trkpt>
      <trkpt lat="44.06029" lon="4.73679">
        <ele>96.1</ele>
        <time>2012-06-13T08:14:37.000Z</time>
      </trkpt>
      <trkpt lat="44.06026" lon="4.73689">
        <ele>95.2</ele>
        <time>2012-06-13T08:14:38.000Z</time>
      </trkpt>
      <trkpt lat="44.06021" lon="4.737">
        <ele>94.4</ele>
        <time>2012-06-13T08:14:39.000Z</time>
      </trkpt>
      <trkpt lat="44.06018" lon="4.73712">
        <ele>93.8</ele>
        <time>2012-06-13T08:14:40.000Z</time>
      </trkpt>
      <trkpt lat="44.06016" lon="4.73723">
        <ele>93.4</ele>
        <time>2012-06-13T08:14:41.000Z</time>
      </trkpt>
      <trkpt lat="44.06012" lon="4.73734">
        <ele>93.6</ele>
        <time>2012-06-13T08:14:42.000Z</time>
      </trkpt>
      <trkpt lat="44.06007" lon="4.73746">
        <ele>93.5</ele>
        <time>2012-06-13T08:14:43.000Z</time>
      </trkpt>
      <trkpt lat="44.06005" lon="4.73756">
        <ele>93.6</ele>
        <time>2012-06-13T08:14:44.000Z</time>
      </trkpt>
      <trkpt lat="44.06002" lon="4.73767">
        <ele>92.7</ele>
        <time>2012-06-13T08:14:45.000Z</time>
      </trkpt>
      <trkpt lat="44.05998" lon="4.73777">
        <ele>92.7</ele>
        <time>2012-06-13T08:14:46.000Z</time>
      </trkpt>
      <trkpt lat="44.05994" lon="4.7379">
        <ele>93.1</ele>
        <time>2012-06-13T08:14:47.000Z</time>
      </trkpt>
      <trkpt lat="44.05991" lon="4.73801">
        <ele>92.8</ele>
        <time>2012-06-13T08:14:48.000Z</time>
      </trkpt>
      <trkpt lat="44.05988" lon="4.73811">
        <ele>93</ele>
        <time>2012-06-13T08:14:49.000Z</time>
      </trkpt>
      <trkpt lat="44.05983" lon="4.73822">
        <ele>93.2</ele>
        <time>2012-06-13T08:14:50.000Z</time>
      </trkpt>
      <trkpt lat="44.05979" lon="4.73832">
        <ele>93.3</ele>
        <time>2012-06-13T08:14:51.000Z</time>
      </trkpt>
      <trkpt lat="44.05977" lon="4.73842">
        <ele>92.8</ele>
        <time>2012-06-13T08:14:52.000Z</time>
      </trkpt>
      <trkpt lat="44.05974" lon="4.73851">
        <ele>91.9</ele>
        <time>2012-06-13T08:14:53.000Z</time>
      </trkpt>
      <trkpt lat="44.05971" lon="4.73861">
        <ele>91.8</ele>
        <time>2012-06-13T08:14:54.000Z</time>
      </trkpt>
      <trkpt lat="44.05968" lon="4.73872">
        <ele>91.4</ele>
        <time>2012-06-13T08:14:55.000Z</time>
      </trkpt>
      <trkpt lat="44.05963" lon="4.73884">
        <ele>91.4</ele>
        <time>2012-06-13T08:14:56.000Z</time>
      </trkpt>
      <trkpt lat="44.0596" lon="4.73893">
        <ele>91.1</ele>
        <time>2012-06-13T08:14:57.000Z</time>
      </trkpt>
      <trkpt lat="44.05956" lon="4.73904">
        <ele>90.9</ele>
        <time>2012-06-13T08:14:58.000Z</time>
      </trkpt>
      <trkpt lat="44.05953" lon="4.73914">
        <ele>91.1</ele>
        <time>2012-06-13T08:14:59.000Z</time>
      </trkpt>
      <trkpt lat="44.05948" lon="4.73924">
        <ele>90.2</ele>
        <time>2012-06-13T08:15:00.000Z</time>
      </trkpt>
      <trkpt lat="44.05945" lon="4.73934">
        <ele>89.3</ele>
        <time>2012-06-13T08:15:01.000Z</time>
      </trkpt>
      <trkpt lat="44.05941" lon="4.73944">
        <ele>89.4</ele>
        <time>2012-06-13T08:15:02.000Z</time>
      </trkpt>
      <trkpt lat="44.05939" lon="4.73952">
        <ele>88.9</ele>
        <time>2012-06-13T08:15:03.000Z</time>
      </trkpt>
      <trkpt lat="44.05934" lon="4.73962">
        <ele>88.2</ele>
        <time>2012-06-13T08:15:04.000Z</time>
      </trkpt>
      <trkpt lat="44.05933" lon="4.73972">
        <ele>87.1</ele>
        <time>2012-06-13T08:15:05.000Z</time>
      </trkpt>
      <trkpt lat="44.05929" lon="4.73985">
        <ele>87.6</ele>
        <time>2012-06-13T08:15:06.000Z</time>
      </trkpt>
      <trkpt lat="44.05926" lon="4.73997">
        <ele>88.6</ele>
        <time>2012-06-13T08:15:07.000Z</time>
      </trkpt>
      <trkpt lat="44.05922" lon="4.74007">
        <ele>89.1</ele>
        <time>2012-06-13T08:15:08.000Z</time>
      </trkpt>
      <trkpt lat="44.05918" lon="4.74018">
        <ele>88.7</ele>
        <time>2012-06-13T08:15:09.000Z</time>
      </trkpt>
      <trkpt lat="44.05915" lon="4.7403">
        <ele>88.3</ele>
        <time>2012-06-13T08:15:10.000Z</time>
      </trkpt>
      <trkpt lat="44.05913" lon="4.7404">
        <ele>88.2</ele>
        <time>2012-06-13T08:15:11.000Z</time>
      </trkpt>
      <trkpt lat="44.05909" lon="4.74052">
        <ele>88.3</ele>
        <time>2012-06-13T08:15:12.000Z</time>
      </trkpt>
      <trkpt lat="44.05906" lon="4.74062">
        <ele>89.1</ele>
        <time>2012-06-13T08:15:13.000Z</time>
      </trkpt>
      <trkpt lat="44.05902" lon="4.74074">
        <ele>90.8</ele>
        <time>2012-06-13T08:15:14.000Z</time>
      </trkpt>
      <trkpt lat="44.05899" lon="4.74084">
        <ele>91</ele>
        <time>2012-06-13T08:15:15.000Z</time>
      </trkpt>
      <trkpt lat="44.05896" lon="4.74095">
        <ele>90.1</ele>
        <time>2012-06-13T08:15:16.000Z</time>
      </trkpt>
      <trkpt lat="44.05892" lon="4.74104">
        <ele>89.6</ele>
        <time>2012-06-13T08:15:17.000Z</time>
      </trkpt>
      <trkpt lat="44.05889" lon="4.74114">
        <ele>90.2</ele>
        <time>2012-06-13T08:15:18.000Z</time>
      </trkpt>
      <trkpt lat="44.05886" lon="4.74124">
        <ele>90.1</ele>
        <time>2012-06-13T08:15:19.000Z</time>
      </trkpt>
      <trkpt lat="44.05884" lon="4.74134">
        <ele>90</ele>
        <time>2012-06-13T08:15:20.000Z</time>
      </trkpt>
      <trkpt lat="44.05881" lon="4.74143">
        <ele>89.8</ele>
        <time>2012-06-13T08:15:21.000Z</time>
      </trkpt>
      <trkpt lat="44.05877" lon="4.74152">
        <ele>89.9</ele>
        <time>2012-06-13T08:15:22.000Z</time>
      </trkpt>
      <trkpt lat="44.05874" lon="4.74161">
        <ele>89.7</ele>
        <time>2012-06-13T08:15:23.000Z</time>
      </trkpt>
      <trkpt lat="44.05872" lon="4.74172">
        <ele>90.1</ele>
        <time>2012-06-13T08:15:24.000Z</time>
      </trkpt>
      <trkpt lat="44.05869" lon="4.74182">
        <ele>90.6</ele>
        <time>2012-06-13T08:15:25.000Z</time>
      </trkpt>
      <trkpt lat="44.05865" lon="4.74192">
        <ele>90.4</ele>
        <time>2012-06-13T08:15:26.000Z</time>
      </trkpt>
      <trkpt lat="44.05862" lon="4.74202">
        <ele>90.7</ele>
        <time>2012-06-13T08:15:27.000Z</time>
      </trkpt>
      <trkpt lat="44.05858" lon="4.7421">
        <ele>90.1</ele>
        <time>2012-06-13T08:15:28.000Z</time>
      </trkpt>
      <trkpt lat="44.05853" lon="4.74223">
        <ele>90.2</ele>
        <time>2012-06-13T08:15:29.000Z</time>
      </trkpt>
      <trkpt lat="44.05851" lon="4.74231">
        <ele>89.2</ele>
        <time>2012-06-13T08:15:30.000Z</time>
      </trkpt>
      <trkpt lat="44.05847" lon="4.74242">
        <ele>89.4</ele>
        <time>2012-06-13T08:15:31.000Z</time>
      </trkpt>
      <trkpt lat="44.05844" lon="4.74252">
        <ele>89.7</ele>
        <time>2012-06-13T08:15:32.000Z</time>
      </trkpt>
      <trkpt lat="44.05841" lon="4.7426">
        <ele>89.1</ele>
        <time>2012-06-13T08:15:33.000Z</time>
      </trkpt>
      <trkpt lat="44.05838" lon="4.74269">
        <ele>89.4</ele>
        <time>2012-06-13T08:15:34.000Z</time>
      </trkpt>
      <trkpt lat="44.05836" lon="4.74278">
        <ele>89.8</ele>
        <time>2012-06-13T08:15:35.000Z</time>
      </trkpt>
      <trkpt lat="44.05833" lon="4.74288">
        <ele>89.4</ele>
        <time>2012-06-13T08:15:36.000Z</time>
      </trkpt>
      <trkpt lat="44.0583" lon="4.74296">
        <ele>90</ele>
        <time>2012-06-13T08:15:37.000Z</time>
      </trkpt>
      <trkpt lat="44.05828" lon="4.74305">
        <ele>89.8</ele>
        <time>2012-06-13T08:15:38.000Z</time>
      </trkpt>
      <trkpt lat="44.05825" lon="4.74314">
        <ele>88.6</ele>
        <time>2012-06-13T08:15:39.000Z</time>
      </trkpt>
      <trkpt lat="44.05821" lon="4.74323">
        <ele>88.6</ele>
        <time>2012-06-13T08:15:40.000Z</time>
      </trkpt>
      <trkpt lat="44.05818" lon="4.74334">
        <ele>89.1</ele>
        <time>2012-06-13T08:15:41.000Z</time>
      </trkpt>
      <trkpt lat="44.05815" lon="4.74343">
        <ele>89.2</ele>
        <time>2012-06-13T08:15:42.000Z</time>
      </trkpt>
      <trkpt lat="44.05814" lon="4.74351">
        <ele>88.7</ele>
        <time>2012-06-13T08:15:43.000Z</time>
      </trkpt>
      <trkpt lat="44.05812" lon="4.74359">
        <ele>88</ele>
        <time>2012-06-13T08:15:44.000Z</time>
      </trkpt>
      <trkpt lat="44.0581" lon="4.74369">
        <ele>87.9</ele>
        <time>2012-06-13T08:15:45.000Z</time>
      </trkpt>
      <trkpt lat="44.05807" lon="4.74378">
        <ele>87.7</ele>
        <time>2012-06-13T08:15:46.000Z</time>
      </trkpt>
      <trkpt lat="44.05802" lon="4.74389">
        <ele>88.8</ele>
        <time>2012-06-13T08:15:47.000Z</time>
      </trkpt>
      <trkpt lat="44.05801" lon="4.74398">
        <ele>88.6</ele>
        <time>2012-06-13T08:15:48.000Z</time>
      </trkpt>
      <trkpt lat="44.05797" lon="4.74407">
        <ele>89</ele>
        <time>2012-06-13T08:15:49.000Z</time>
      </trkpt>
      <trkpt lat="44.05794" lon="4.74416">
        <ele>89</ele>
        <time>2012-06-13T08:15:50.000Z</time>
      </trkpt>
      <trkpt lat="44.05791" lon="4.74426">
        <ele>88.5</ele>
        <time>2012-06-13T08:15:51.000Z</time>
      </trkpt>
      <trkpt lat="44.05788" lon="4.74434">
        <ele>88.6</ele>
        <time>2012-06-13T08:15:52.000Z</time>
      </trkpt>
      <trkpt lat="44.05785" lon="4.74441">
        <ele>88.5</ele>
        <time>2012-06-13T08:15:53.000Z</time>
      </trkpt>
      <trkpt lat="44.05782" lon="4.7445">
        <ele>88.4</ele>
        <time>2012-06-13T08:15:54.000Z</time>
      </trkpt>
      <trkpt lat="44.05778" lon="4.7446">
        <ele>88.6</ele>
        <time>2012-06-13T08:15:55.000Z</time>
      </trkpt>
      <trkpt lat="44.05776" lon="4.74468">
        <ele>89.1</ele>
        <time>2012-06-13T08:15:56.000Z</time>
      </trkpt>
      <trkpt lat="44.05774" lon="4.74477">
        <ele>89</ele>
        <time>2012-06-13T08:15:57.000Z</time>
      </trkpt>
      <trkpt lat="44.05771" lon="4.74486">
        <ele>89</ele>
        <time>2012-06-13T08:15:58.000Z</time>
      </trkpt>
      <trkpt lat="44.05769" lon="4.74494">
        <ele>88.7</ele>
        <time>2012-06-13T08:15:59.000Z</time>
      </trkpt>
      <trkpt lat="44.05766" lon="4.74501">
        <ele>88.3</ele>
        <time>2012-06-13T08:16:00.000Z</time>
      </trkpt>
      <trkpt lat="44.05764" lon="4.74509">
        <ele>88.7</ele>
        <time>2012-06-13T08:16:01.000Z</time>
      </trkpt>
      <trkpt lat="44.05761" lon="4.74517">
        <ele>88.7</ele>
        <time>2012-06-13T08:16:02.000Z</time>
      </trkpt>
      <trkpt lat="44.05759" lon="4.74524">
        <ele>88.7</ele>
        <time>2012-06-13T08:16:03.000Z</time>
      </trkpt>
      <trkpt lat="44.05758" lon="4.74532">
        <ele>88.7</ele>
        <time>2012-06-13T08:16:04.000Z</time>
      </trkpt>
      <trkpt lat="44.05755" lon="4.74539">
        <ele>88.6</ele>
        <time>2012-06-13T08:16:05.000Z</time>
      </trkpt>
      <trkpt lat="44.05753" lon="4.74545">
        <ele>88.4</ele>
        <time>2012-06-13T08:16:06.000Z</time>
      </trkpt>
      <trkpt lat="44.05751" lon="4.74552">
        <ele>88.4</ele>
        <time>2012-06-13T08:16:07.000Z</time>
      </trkpt>
      <trkpt lat="44.05747" lon="4.74563">
        <ele>88.1</ele>
        <time>2012-06-13T08:16:09.000Z</time>
      </trkpt>
      <trkpt lat="44.05744" lon="4.74576">
        <ele>87.3</ele>
        <time>2012-06-13T08:16:11.000Z</time>
      </trkpt>
      <trkpt lat="44.05738" lon="4.74587">
        <ele>87</ele>
        <time>2012-06-13T08:16:13.000Z</time>
      </trkpt>
      <trkpt lat="44.05737" lon="4.74593">
        <ele>87</ele>
        <time>2012-06-13T08:16:14.000Z</time>
      </trkpt>
      <trkpt lat="44.05734" lon="4.746">
        <ele>86.9</ele>
        <time>2012-06-13T08:16:15.000Z</time>
      </trkpt>
      <trkpt lat="44.05732" lon="4.74607">
        <ele>86.6</ele>
        <time>2012-06-13T08:16:16.000Z</time>
      </trkpt>
      <trkpt lat="44.0573" lon="4.74614">
        <ele>86.8</ele>
        <time>2012-06-13T08:16:17.000Z</time>
      </trkpt>
      <trkpt lat="44.05728" lon="4.74621">
        <ele>88</ele>
        <time>2012-06-13T08:16:18.000Z</time>
      </trkpt>
      <trkpt lat="44.05726" lon="4.74629">
        <ele>88.2</ele>
        <time>2012-06-13T08:16:19.000Z</time>
      </trkpt>
      <trkpt lat="44.05724" lon="4.74636">
        <ele>88</ele>
        <time>2012-06-13T08:16:20.000Z</time>
      </trkpt>
      <trkpt lat="44.05721" lon="4.74642">
        <ele>88</ele>
        <time>2012-06-13T08:16:21.000Z</time>
      </trkpt>
      <trkpt lat="44.05719" lon="4.74649">
        <ele>87.9</ele>
        <time>2012-06-13T08:16:22.000Z</time>
      </trkpt>
      <trkpt lat="44.05717" lon="4.74657">
        <ele>87.9</ele>
        <time>2012-06-13T08:16:23.000Z</time>
      </trkpt>
      <trkpt lat="44.05715" lon="4.74664">
        <ele>87.8</ele>
        <time>2012-06-13T08:16:24.000Z</time>
      </trkpt>
      <trkpt lat="44.05713" lon="4.74671">
        <ele>87.3</ele>
        <time>2012-06-13T08:16:25.000Z</time>
      </trkpt>
      <trkpt lat="44.05711" lon="4.74678">
        <ele>87</ele>
        <time>2012-06-13T08:16:26.000Z</time>
      </trkpt>
      <trkpt lat="44.05708" lon="4.74684">
        <ele>86.9</ele>
        <time>2012-06-13T08:16:27.000Z</time>
      </trkpt>
      <trkpt lat="44.05706" lon="4.74697">
        <ele>86.6</ele>
        <time>2012-06-13T08:16:29.000Z</time>
      </trkpt>
      <trkpt lat="44.05704" lon="4.74705">
        <ele>86.6</ele>
        <time>2012-06-13T08:16:30.000Z</time>
      </trkpt>
      <trkpt lat="44.05702" lon="4.74712">
        <ele>85.7</ele>
        <time>2012-06-13T08:16:31.000Z</time>
      </trkpt>
      <trkpt lat="44.057" lon="4.74719">
        <ele>85.6</ele>
        <time>2012-06-13T08:16:32.000Z</time>
      </trkpt>
      <trkpt lat="44.05697" lon="4.74726">
        <ele>85.4</ele>
        <time>2012-06-13T08:16:33.000Z</time>
      </trkpt>
      <trkpt lat="44.05694" lon="4.74733">
        <ele>85.2</ele>
        <time>2012-06-13T08:16:34.000Z</time>
      </trkpt>
      <trkpt lat="44.05691" lon="4.74741">
        <ele>85.1</ele>
        <time>2012-06-13T08:16:35.000Z</time>
      </trkpt>
      <trkpt lat="44.05689" lon="4.74748">
        <ele>85.3</ele>
        <time>2012-06-13T08:16:36.000Z</time>
      </trkpt>
      <trkpt lat="44.05686" lon="4.74757">
        <ele>85.7</ele>
        <time>2012-06-13T08:16:37.000Z</time>
      </trkpt>
      <trkpt lat="44.05684" lon="4.74764">
        <ele>85.9</ele>
        <time>2012-06-13T08:16:38.000Z</time>
      </trkpt>
      <trkpt lat="44.0568" lon="4.74772">
        <ele>85.7</ele>
        <time>2012-06-13T08:16:39.000Z</time>
      </trkpt>
      <trkpt lat="44.05679" lon="4.7478">
        <ele>85.7</ele>
        <time>2012-06-13T08:16:40.000Z</time>
      </trkpt>
      <trkpt lat="44.05678" lon="4.74786">
        <ele>85.9</ele>
        <time>2012-06-13T08:16:41.000Z</time>
      </trkpt>
      <trkpt lat="44.05675" lon="4.74792">
        <ele>86.3</ele>
        <time>2012-06-13T08:16:42.000Z</time>
      </trkpt>
      <trkpt lat="44.05673" lon="4.74798">
        <ele>86.5</ele>
        <time>2012-06-13T08:16:43.000Z</time>
      </trkpt>
      <trkpt lat="44.0567" lon="4.7481">
        <ele>87.6</ele>
        <time>2012-06-13T08:16:45.000Z</time>
      </trkpt>
      <trkpt lat="44.05668" lon="4.74816">
        <ele>87.5</ele>
        <time>2012-06-13T08:16:46.000Z</time>
      </trkpt>
      <trkpt lat="44.05666" lon="4.74822">
        <ele>87.7</ele>
        <time>2012-06-13T08:16:47.000Z</time>
      </trkpt>
      <trkpt lat="44.05663" lon="4.74836">
        <ele>87.9</ele>
        <time>2012-06-13T08:16:49.000Z</time>
      </trkpt>
      <trkpt lat="44.05662" lon="4.74843">
        <ele>88.1</ele>
        <time>2012-06-13T08:16:50.000Z</time>
      </trkpt>
      <trkpt lat="44.0566" lon="4.7485">
        <ele>88.4</ele>
        <time>2012-06-13T08:16:51.000Z</time>
      </trkpt>
      <trkpt lat="44.05658" lon="4.74858">
        <ele>87.7</ele>
        <time>2012-06-13T08:16:52.000Z</time>
      </trkpt>
      <trkpt lat="44.05658" lon="4.74864">
        <ele>88.2</ele>
        <time>2012-06-13T08:16:53.000Z</time>
      </trkpt>
      <trkpt lat="44.05657" lon="4.74872">
        <ele>87.7</ele>
        <time>2012-06-13T08:16:54.000Z</time>
      </trkpt>
      <trkpt lat="44.05655" lon="4.7488">
        <ele>87.3</ele>
        <time>2012-06-13T08:16:55.000Z</time>
      </trkpt>
      <trkpt lat="44.05654" lon="4.74888">
        <ele>87.3</ele>
        <time>2012-06-13T08:16:56.000Z</time>
      </trkpt>
      <trkpt lat="44.05654" lon="4.74894">
        <ele>87.2</ele>
        <time>2012-06-13T08:16:57.000Z</time>
      </trkpt>
      <trkpt lat="44.05654" lon="4.74902">
        <ele>86.1</ele>
        <time>2012-06-13T08:16:58.000Z</time>
      </trkpt>
      <trkpt lat="44.05653" lon="4.74909">
        <ele>86</ele>
        <time>2012-06-13T08:16:59.000Z</time>
      </trkpt>
      <trkpt lat="44.05652" lon="4.74916">
        <ele>85.9</ele>
        <time>2012-06-13T08:17:00.000Z</time>
      </trkpt>
      <trkpt lat="44.05651" lon="4.74924">
        <ele>86.1</ele>
        <time>2012-06-13T08:17:01.000Z</time>
      </trkpt>
      <trkpt lat="44.05651" lon="4.74933">
        <ele>86</ele>
        <time>2012-06-13T08:17:02.000Z</time>
      </trkpt>
      <trkpt lat="44.0565" lon="4.74941">
        <ele>85.9</ele>
        <time>2012-06-13T08:17:03.000Z</time>
      </trkpt>
      <trkpt lat="44.05649" lon="4.74948">
        <ele>85.8</ele>
        <time>2012-06-13T08:17:04.000Z</time>
      </trkpt>
      <trkpt lat="44.05648" lon="4.74956">
        <ele>85.5</ele>
        <time>2012-06-13T08:17:05.000Z</time>
      </trkpt>
      <trkpt lat="44.05647" lon="4.74964">
        <ele>85.5</ele>
        <time>2012-06-13T08:17:06.000Z</time>
      </trkpt>
      <trkpt lat="44.05646" lon="4.74972">
        <ele>85.3</ele>
        <time>2012-06-13T08:17:07.000Z</time>
      </trkpt>
      <trkpt lat="44.05646" lon="4.7498">
        <ele>85.3</ele>
        <time>2012-06-13T08:17:08.000Z</time>
      </trkpt>
      <trkpt lat="44.05644" lon="4.74987">
        <ele>85.6</ele>
        <time>2012-06-13T08:17:09.000Z</time>
      </trkpt>
      <trkpt lat="44.05644" lon="4.74995">
        <ele>85.6</ele>
        <time>2012-06-13T08:17:10.000Z</time>
      </trkpt>
      <trkpt lat="44.05642" lon="4.75003">
        <ele>85.5</ele>
        <time>2012-06-13T08:17:11.000Z</time>
      </trkpt>
      <trkpt lat="44.0564" lon="4.75011">
        <ele>85.4</ele>
        <time>2012-06-13T08:17:12.000Z</time>
      </trkpt>
      <trkpt lat="44.05639" lon="4.75018">
        <ele>85.5</ele>
        <time>2012-06-13T08:17:13.000Z</time>
      </trkpt>
      <trkpt lat="44.05637" lon="4.75026">
        <ele>85.3</ele>
        <time>2012-06-13T08:17:14.000Z</time>
      </trkpt>
      <trkpt lat="44.05636" lon="4.75034">
        <ele>85.1</ele>
        <time>2012-06-13T08:17:15.000Z</time>
      </trkpt>
      <trkpt lat="44.05635" lon="4.75044">
        <ele>85.6</ele>
        <time>2012-06-13T08:17:16.000Z</time>
      </trkpt>
      <trkpt lat="44.05634" lon="4.7505">
        <ele>85.2</ele>
        <time>2012-06-13T08:17:17.000Z</time>
      </trkpt>
      <trkpt lat="44.05634" lon="4.75058">
        <ele>85.2</ele>
        <time>2012-06-13T08:17:18.000Z</time>
      </trkpt>
      <trkpt lat="44.05634" lon="4.75066">
        <ele>84.9</ele>
        <time>2012-06-13T08:17:19.000Z</time>
      </trkpt>
      <trkpt lat="44.05633" lon="4.75076">
        <ele>85.1</ele>
        <time>2012-06-13T08:17:20.000Z</time>
      </trkpt>
      <trkpt lat="44.05632" lon="4.75084">
        <ele>85.4</ele>
        <time>2012-06-13T08:17:21.000Z</time>
      </trkpt>
      <trkpt lat="44.05632" lon="4.75092">
        <ele>85.7</ele>
        <time>2012-06-13T08:17:22.000Z</time>
      </trkpt>
      <trkpt lat="44.05632" lon="4.75098">
        <ele>85.4</ele>
        <time>2012-06-13T08:17:23.000Z</time>
      </trkpt>
      <trkpt lat="44.05631" lon="4.75106">
        <ele>85.3</ele>
        <time>2012-06-13T08:17:24.000Z</time>
      </trkpt>
      <trkpt lat="44.0563" lon="4.75114">
        <ele>85.5</ele>
        <time>2012-06-13T08:17:25.000Z</time>
      </trkpt>
      <trkpt lat="44.05628" lon="4.75121">
        <ele>85</ele>
        <time>2012-06-13T08:17:26.000Z</time>
      </trkpt>
      <trkpt lat="44.05627" lon="4.75129">
        <ele>84.8</ele>
        <time>2012-06-13T08:17:27.000Z</time>
      </trkpt>
      <trkpt lat="44.05626" lon="4.75137">
        <ele>84.8</ele>
        <time>2012-06-13T08:17:28.000Z</time>
      </trkpt>
      <trkpt lat="44.05623" lon="4.75146">
        <ele>84.5</ele>
        <time>2012-06-13T08:17:29.000Z</time>
      </trkpt>
      <trkpt lat="44.0562" lon="4.75156">
        <ele>84.4</ele>
        <time>2012-06-13T08:17:30.000Z</time>
      </trkpt>
      <trkpt lat="44.0562" lon="4.75164">
        <ele>83.9</ele>
        <time>2012-06-13T08:17:31.000Z</time>
      </trkpt>
      <trkpt lat="44.05619" lon="4.75172">
        <ele>83.9</ele>
        <time>2012-06-13T08:17:32.000Z</time>
      </trkpt>
      <trkpt lat="44.05616" lon="4.75182">
        <ele>83.8</ele>
        <time>2012-06-13T08:17:33.000Z</time>
      </trkpt>
      <trkpt lat="44.05617" lon="4.7519">
        <ele>84.1</ele>
        <time>2012-06-13T08:17:34.000Z</time>
      </trkpt>
      <trkpt lat="44.05616" lon="4.75197">
        <ele>83.6</ele>
        <time>2012-06-13T08:17:35.000Z</time>
      </trkpt>
      <trkpt lat="44.05617" lon="4.75206">
        <ele>83.6</ele>
        <time>2012-06-13T08:17:36.000Z</time>
      </trkpt>
      <trkpt lat="44.05615" lon="4.75213">
        <ele>83.7</ele>
        <time>2012-06-13T08:17:37.000Z</time>
      </trkpt>
      <trkpt lat="44.05615" lon="4.75221">
        <ele>83.5</ele>
        <time>2012-06-13T08:17:38.000Z</time>
      </trkpt>
      <trkpt lat="44.05615" lon="4.7523">
        <ele>83.2</ele>
        <time>2012-06-13T08:17:39.000Z</time>
      </trkpt>
      <trkpt lat="44.05614" lon="4.75239">
        <ele>83.7</ele>
        <time>2012-06-13T08:17:40.000Z</time>
      </trkpt>
      <trkpt lat="44.05613" lon="4.75248">
        <ele>83.8</ele>
        <time>2012-06-13T08:17:41.000Z</time>
      </trkpt>
      <trkpt lat="44.05612" lon="4.75256">
        <ele>84.1</ele>
        <time>2012-06-13T08:17:42.000Z</time>
      </trkpt>
      <trkpt lat="44.05612" lon="4.75265">
        <ele>84.2</ele>
        <time>2012-06-13T08:17:43.000Z</time>
      </trkpt>
      <trkpt lat="44.0561" lon="4.75275">
        <ele>84</ele>
        <time>2012-06-13T08:17:44.000Z</time>
      </trkpt>
      <trkpt lat="44.05609" lon="4.75283">
        <ele>83.8</ele>
        <time>2012-06-13T08:17:45.000Z</time>
      </trkpt>
      <trkpt lat="44.05609" lon="4.7529">
        <ele>83.6</ele>
        <time>2012-06-13T08:17:46.000Z</time>
      </trkpt>
      <trkpt lat="44.05608" lon="4.75298">
        <ele>83.4</ele>
        <time>2012-06-13T08:17:47.000Z</time>
      </trkpt>
      <trkpt lat="44.05607" lon="4.75306">
        <ele>83.2</ele>
        <time>2012-06-13T08:17:48.000Z</time>
      </trkpt>
      <trkpt lat="44.05606" lon="4.75316">
        <ele>83.4</ele>
        <time>2012-06-13T08:17:49.000Z</time>
      </trkpt>
      <trkpt lat="44.05604" lon="4.75325">
        <ele>84.6</ele>
        <time>2012-06-13T08:17:50.000Z</time>
      </trkpt>
      <trkpt lat="44.05602" lon="4.75334">
        <ele>84.5</ele>
        <time>2012-06-13T08:17:51.000Z</time>
      </trkpt>
      <trkpt lat="44.05601" lon="4.75344">
        <ele>84.4</ele>
        <time>2012-06-13T08:17:52.000Z</time>
      </trkpt>
      <trkpt lat="44.056" lon="4.75353">
        <ele>84.4</ele>
        <time>2012-06-13T08:17:53.000Z</time>
      </trkpt>
      <trkpt lat="44.05599" lon="4.75362">
        <ele>84</ele>
        <time>2012-06-13T08:17:54.000Z</time>
      </trkpt>
      <trkpt lat="44.05598" lon="4.75371">
        <ele>83.7</ele>
        <time>2012-06-13T08:17:55.000Z</time>
      </trkpt>
      <trkpt lat="44.05597" lon="4.75379">
        <ele>83.7</ele>
        <time>2012-06-13T08:17:56.000Z</time>
      </trkpt>
      <trkpt lat="44.05596" lon="4.75388">
        <ele>83.8</ele>
        <time>2012-06-13T08:17:57.000Z</time>
      </trkpt>
      <trkpt lat="44.05594" lon="4.75399">
        <ele>83.6</ele>
        <time>2012-06-13T08:17:58.000Z</time>
      </trkpt>
      <trkpt lat="44.05593" lon="4.75408">
        <ele>84.2</ele>
        <time>2012-06-13T08:17:59.000Z</time>
      </trkpt>
      <trkpt lat="44.05592" lon="4.75416">
        <ele>84.3</ele>
        <time>2012-06-13T08:18:00.000Z</time>
      </trkpt>
      <trkpt lat="44.0559" lon="4.75426">
        <ele>84.1</ele>
        <time>2012-06-13T08:18:01.000Z</time>
      </trkpt>
      <trkpt lat="44.05589" lon="4.75436">
        <ele>83.5</ele>
        <time>2012-06-13T08:18:02.000Z</time>
      </trkpt>
      <trkpt lat="44.05587" lon="4.75444">
        <ele>83.4</ele>
        <time>2012-06-13T08:18:03.000Z</time>
      </trkpt>
      <trkpt lat="44.05585" lon="4.75454">
        <ele>83.2</ele>
        <time>2012-06-13T08:18:04.000Z</time>
      </trkpt>
      <trkpt lat="44.05583" lon="4.75464">
        <ele>82.7</ele>
        <time>2012-06-13T08:18:05.000Z</time>
      </trkpt>
      <trkpt lat="44.05582" lon="4.75474">
        <ele>83.1</ele>
        <time>2012-06-13T08:18:06.000Z</time>
      </trkpt>
      <trkpt lat="44.0558" lon="4.75483">
        <ele>82.6</ele>
        <time>2012-06-13T08:18:07.000Z</time>
      </trkpt>
      <trkpt lat="44.0558" lon="4.75494">
        <ele>82.4</ele>
        <time>2012-06-13T08:18:08.000Z</time>
      </trkpt>
      <trkpt lat="44.05578" lon="4.75503">
        <ele>82.1</ele>
        <time>2012-06-13T08:18:09.000Z</time>
      </trkpt>
      <trkpt lat="44.05577" lon="4.75512">
        <ele>81.7</ele>
        <time>2012-06-13T08:18:10.000Z</time>
      </trkpt>
      <trkpt lat="44.05576" lon="4.7552">
        <ele>81.6</ele>
        <time>2012-06-13T08:18:11.000Z</time>
      </trkpt>
      <trkpt lat="44.05575" lon="4.75529">
        <ele>81.7</ele>
        <time>2012-06-13T08:18:12.000Z</time>
      </trkpt>
      <trkpt lat="44.05574" lon="4.75537">
        <ele>81.7</ele>
        <time>2012-06-13T08:18:13.000Z</time>
      </trkpt>
      <trkpt lat="44.05573" lon="4.75546">
        <ele>81.6</ele>
        <time>2012-06-13T08:18:14.000Z</time>
      </trkpt>
      <trkpt lat="44.05572" lon="4.75555">
        <ele>81.3</ele>
        <time>2012-06-13T08:18:15.000Z</time>
      </trkpt>
      <trkpt lat="44.05572" lon="4.75564">
        <ele>81.1</ele>
        <time>2012-06-13T08:18:16.000Z</time>
      </trkpt>
      <trkpt lat="44.05571" lon="4.75573">
        <ele>81.6</ele>
        <time>2012-06-13T08:18:17.000Z</time>
      </trkpt>
      <trkpt lat="44.05569" lon="4.75582">
        <ele>81.7</ele>
        <time>2012-06-13T08:18:18.000Z</time>
      </trkpt>
      <trkpt lat="44.05568" lon="4.75592">
        <ele>82.9</ele>
        <time>2012-06-13T08:18:19.000Z</time>
      </trkpt>
      <trkpt lat="44.05567" lon="4.75601">
        <ele>82.4</ele>
        <time>2012-06-13T08:18:20.000Z</time>
      </trkpt>
      <trkpt lat="44.05566" lon="4.75611">
        <ele>82.8</ele>
        <time>2012-06-13T08:18:21.000Z</time>
      </trkpt>
      <trkpt lat="44.05565" lon="4.7562">
        <ele>82.3</ele>
        <time>2012-06-13T08:18:22.000Z</time>
      </trkpt>
      <trkpt lat="44.05564" lon="4.75628">
        <ele>82.6</ele>
        <time>2012-06-13T08:18:23.000Z</time>
      </trkpt>
      <trkpt lat="44.05563" lon="4.75637">
        <ele>82.1</ele>
        <time>2012-06-13T08:18:24.000Z</time>
      </trkpt>
      <trkpt lat="44.05562" lon="4.75646">
        <ele>82</ele>
        <time>2012-06-13T08:18:25.000Z</time>
      </trkpt>
      <trkpt lat="44.05561" lon="4.75656">
        <ele>82.4</ele>
        <time>2012-06-13T08:18:26.000Z</time>
      </trkpt>
      <trkpt lat="44.05558" lon="4.75665">
        <ele>82.6</ele>
        <time>2012-06-13T08:18:27.000Z</time>
      </trkpt>
      <trkpt lat="44.05558" lon="4.75675">
        <ele>82.5</ele>
        <time>2012-06-13T08:18:28.000Z</time>
      </trkpt>
      <trkpt lat="44.05556" lon="4.75685">
        <ele>83</ele>
        <time>2012-06-13T08:18:29.000Z</time>
      </trkpt>
      <trkpt lat="44.05554" lon="4.75695">
        <ele>82.7</ele>
        <time>2012-06-13T08:18:30.000Z</time>
      </trkpt>
      <trkpt lat="44.05553" lon="4.75704">
        <ele>81.8</ele>
        <time>2012-06-13T08:18:31.000Z</time>
      </trkpt>
      <trkpt lat="44.05552" lon="4.75714">
        <ele>81.6</ele>
        <time>2012-06-13T08:18:32.000Z</time>
      </trkpt>
      <trkpt lat="44.05551" lon="4.75722">
        <ele>81.9</ele>
        <time>2012-06-13T08:18:33.000Z</time>
      </trkpt>
      <trkpt lat="44.05549" lon="4.75732">
        <ele>81.8</ele>
        <time>2012-06-13T08:18:34.000Z</time>
      </trkpt>
      <trkpt lat="44.05548" lon="4.7574">
        <ele>81.4</ele>
        <time>2012-06-13T08:18:35.000Z</time>
      </trkpt>
      <trkpt lat="44.05547" lon="4.75748">
        <ele>81.2</ele>
        <time>2012-06-13T08:18:36.000Z</time>
      </trkpt>
      <trkpt lat="44.05545" lon="4.75756">
        <ele>81.2</ele>
        <time>2012-06-13T08:18:37.000Z</time>
      </trkpt>
      <trkpt lat="44.05545" lon="4.75765">
        <ele>81</ele>
        <time>2012-06-13T08:18:38.000Z</time>
      </trkpt>
      <trkpt lat="44.05544" lon="4.75774">
        <ele>81.3</ele>
        <time>2012-06-13T08:18:39.000Z</time>
      </trkpt>
      <trkpt lat="44.05544" lon="4.75785">
        <ele>81.8</ele>
        <time>2012-06-13T08:18:40.000Z</time>
      </trkpt>
      <trkpt lat="44.05543" lon="4.75794">
        <ele>81.9</ele>
        <time>2012-06-13T08:18:41.000Z</time>
      </trkpt>
      <trkpt lat="44.05542" lon="4.75804">
        <ele>81.8</ele>
        <time>2012-06-13T08:18:42.000Z</time>
      </trkpt>
      <trkpt lat="44.0554" lon="4.75814">
        <ele>81.5</ele>
        <time>2012-06-13T08:18:43.000Z</time>
      </trkpt>
      <trkpt lat="44.05539" lon="4.75823">
        <ele>81</ele>
        <time>2012-06-13T08:18:44.000Z</time>
      </trkpt>
      <trkpt lat="44.05536" lon="4.75833">
        <ele>80.8</ele>
        <time>2012-06-13T08:18:45.000Z</time>
      </trkpt>
      <trkpt lat="44.05536" lon="4.75843">
        <ele>80.8</ele>
        <time>2012-06-13T08:18:46.000Z</time>
      </trkpt>
      <trkpt lat="44.05532" lon="4.75853">
        <ele>80.3</ele>
        <time>2012-06-13T08:18:47.000Z</time>
      </trkpt>
      <trkpt lat="44.05532" lon="4.75862">
        <ele>80.8</ele>
        <time>2012-06-13T08:18:48.000Z</time>
      </trkpt>
      <trkpt lat="44.05531" lon="4.75872">
        <ele>81.5</ele>
        <time>2012-06-13T08:18:49.000Z</time>
      </trkpt>
      <trkpt lat="44.0553" lon="4.75881">
        <ele>81.3</ele>
        <time>2012-06-13T08:18:50.000Z</time>
      </trkpt>
      <trkpt lat="44.05528" lon="4.7589">
        <ele>81.4</ele>
        <time>2012-06-13T08:18:51.000Z</time>
      </trkpt>
      <trkpt lat="44.05526" lon="4.75899">
        <ele>81.3</ele>
        <time>2012-06-13T08:18:52.000Z</time>
      </trkpt>
      <trkpt lat="44.05525" lon="4.75907">
        <ele>81.6</ele>
        <time>2012-06-13T08:18:53.000Z</time>
      </trkpt>
      <trkpt lat="44.05525" lon="4.75915">
        <ele>81.8</ele>
        <time>2012-06-13T08:18:54.000Z</time>
      </trkpt>
      <trkpt lat="44.05524" lon="4.75924">
        <ele>81.7</ele>
        <time>2012-06-13T08:18:55.000Z</time>
      </trkpt>
      <trkpt lat="44.05523" lon="4.75932">
        <ele>81.7</ele>
        <time>2012-06-13T08:18:56.000Z</time>
      </trkpt>
      <trkpt lat="44.05523" lon="4.7594">
        <ele>81.5</ele>
        <time>2012-06-13T08:18:57.000Z</time>
      </trkpt>
      <trkpt lat="44.05523" lon="4.7595">
        <ele>81.5</ele>
        <time>2012-06-13T08:18:58.000Z</time>
      </trkpt>
      <trkpt lat="44.05521" lon="4.7596">
        <ele>81.7</ele>
        <time>2012-06-13T08:18:59.000Z</time>
      </trkpt>
      <trkpt lat="44.0552" lon="4.75967">
        <ele>81.8</ele>
        <time>2012-06-13T08:19:00.000Z</time>
      </trkpt>
      <trkpt lat="44.05519" lon="4.75976">
        <ele>81.8</ele>
        <time>2012-06-13T08:19:01.000Z</time>
      </trkpt>
      <trkpt lat="44.05517" lon="4.75985">
        <ele>81.8</ele>
        <time>2012-06-13T08:19:02.000Z</time>
      </trkpt>
      <trkpt lat="44.05516" lon="4.75993">
        <ele>82.7</ele>
        <time>2012-06-13T08:19:03.000Z</time>
      </trkpt>
      <trkpt lat="44.05516" lon="4.76">
        <ele>82.6</ele>
        <time>2012-06-13T08:19:04.000Z</time>
      </trkpt>
      <trkpt lat="44.05515" lon="4.76008">
        <ele>82.3</ele>
        <time>2012-06-13T08:19:05.000Z</time>
      </trkpt>
      <trkpt lat="44.05514" lon="4.76015">
        <ele>82</ele>
        <time>2012-06-13T08:19:06.000Z</time>
      </trkpt>
      <trkpt lat="44.05512" lon="4.76024">
        <ele>82.2</ele>
        <time>2012-06-13T08:19:07.000Z</time>
      </trkpt>
      <trkpt lat="44.05511" lon="4.76033">
        <ele>82.1</ele>
        <time>2012-06-13T08:19:08.000Z</time>
      </trkpt>
      <trkpt lat="44.05511" lon="4.76041">
        <ele>82.3</ele>
        <time>2012-06-13T08:19:09.000Z</time>
      </trkpt>
      <trkpt lat="44.05509" lon="4.76052">
        <ele>84.3</ele>
        <time>2012-06-13T08:19:10.000Z</time>
      </trkpt>
      <trkpt lat="44.05508" lon="4.7606">
        <ele>83.7</ele>
        <time>2012-06-13T08:19:11.000Z</time>
      </trkpt>
      <trkpt lat="44.05508" lon="4.76068">
        <ele>84.3</ele>
        <time>2012-06-13T08:19:12.000Z</time>
      </trkpt>
      <trkpt lat="44.05507" lon="4.76076">
        <ele>84.3</ele>
        <time>2012-06-13T08:19:13.000Z</time>
      </trkpt>
      <trkpt lat="44.05506" lon="4.76085">
        <ele>84.3</ele>
        <time>2012-06-13T08:19:14.000Z</time>
      </trkpt>
      <trkpt lat="44.05504" lon="4.76093">
        <ele>84.3</ele>
        <time>2012-06-13T08:19:15.000Z</time>
      </trkpt>
      <trkpt lat="44.05504" lon="4.761">
        <ele>84.3</ele>
        <time>2012-06-13T08:19:16.000Z</time>
      </trkpt>
      <trkpt lat="44.05504" lon="4.76106">
        <ele>84.4</ele>
        <time>2012-06-13T08:19:17.000Z</time>
      </trkpt>
      <trkpt lat="44.05503" lon="4.76114">
        <ele>84.4</ele>
        <time>2012-06-13T08:19:18.000Z</time>
      </trkpt>
      <trkpt lat="44.05502" lon="4.76122">
        <ele>83.9</ele>
        <time>2012-06-13T08:19:19.000Z</time>
      </trkpt>
      <trkpt lat="44.055" lon="4.76131">
        <ele>83.5</ele>
        <time>2012-06-13T08:19:20.000Z</time>
      </trkpt>
      <trkpt lat="44.05499" lon="4.76142">
        <ele>83.5</ele>
        <time>2012-06-13T08:19:21.000Z</time>
      </trkpt>
      <trkpt lat="44.05498" lon="4.76154">
        <ele>83.2</ele>
        <time>2012-06-13T08:19:22.000Z</time>
      </trkpt>
      <trkpt lat="44.05494" lon="4.76169">
        <ele>83.6</ele>
        <time>2012-06-13T08:19:23.000Z</time>
      </trkpt>
      <trkpt lat="44.05494" lon="4.7618">
        <ele>83.6</ele>
        <time>2012-06-13T08:19:24.000Z</time>
      </trkpt>
      <trkpt lat="44.05494" lon="4.76188">
        <ele>83.6</ele>
        <time>2012-06-13T08:19:25.000Z</time>
      </trkpt>
      <trkpt lat="44.05493" lon="4.76196">
        <ele>83.3</ele>
        <time>2012-06-13T08:19:27.000Z</time>
      </trkpt>
      <trkpt lat="44.05489" lon="4.76209">
        <ele>82.7</ele>
        <time>2012-06-13T08:19:29.000Z</time>
      </trkpt>
      <trkpt lat="44.05488" lon="4.7622">
        <ele>82.8</ele>
        <time>2012-06-13T08:19:31.000Z</time>
      </trkpt>
      <trkpt lat="44.05485" lon="4.76234">
        <ele>83.1</ele>
        <time>2012-06-13T08:19:33.000Z</time>
      </trkpt>
      <trkpt lat="44.05486" lon="4.7624">
        <ele>83.2</ele>
        <time>2012-06-13T08:19:34.000Z</time>
      </trkpt>
      <trkpt lat="44.05484" lon="4.76247">
        <ele>83</ele>
        <time>2012-06-13T08:19:35.000Z</time>
      </trkpt>
      <trkpt lat="44.05484" lon="4.76254">
        <ele>83.2</ele>
        <time>2012-06-13T08:19:36.000Z</time>
      </trkpt>
      <trkpt lat="44.05484" lon="4.76261">
        <ele>83.3</ele>
        <time>2012-06-13T08:19:37.000Z</time>
      </trkpt>
      <trkpt lat="44.05483" lon="4.76268">
        <ele>83.2</ele>
        <time>2012-06-13T08:19:38.000Z</time>
      </trkpt>
      <trkpt lat="44.05482" lon="4.76275">
        <ele>82.8</ele>
        <time>2012-06-13T08:19:39.000Z</time>
      </trkpt>
      <trkpt lat="44.0548" lon="4.76289">
        <ele>82.6</ele>
        <time>2012-06-13T08:19:41.000Z</time>
      </trkpt>
      <trkpt lat="44.05478" lon="4.76298">
        <ele>82.8</ele>
        <time>2012-06-13T08:19:42.000Z</time>
      </trkpt>
      <trkpt lat="44.05479" lon="4.76305">
        <ele>82.9</ele>
        <time>2012-06-13T08:19:43.000Z</time>
      </trkpt>
      <trkpt lat="44.05479" lon="4.76311">
        <ele>83</ele>
        <time>2012-06-13T08:19:44.000Z</time>
      </trkpt>
      <trkpt lat="44.05478" lon="4.76319">
        <ele>82.7</ele>
        <time>2012-06-13T08:19:45.000Z</time>
      </trkpt>
      <trkpt lat="44.05476" lon="4.76326">
        <ele>82.1</ele>
        <time>2012-06-13T08:19:46.000Z</time>
      </trkpt>
      <trkpt lat="44.05474" lon="4.76334">
        <ele>82</ele>
        <time>2012-06-13T08:19:47.000Z</time>
      </trkpt>
      <trkpt lat="44.05472" lon="4.7634">
        <ele>82.1</ele>
        <time>2012-06-13T08:19:48.000Z</time>
      </trkpt>
      <trkpt lat="44.05471" lon="4.76347">
        <ele>81.9</ele>
        <time>2012-06-13T08:19:49.000Z</time>
      </trkpt>
      <trkpt lat="44.05471" lon="4.7636">
        <ele>81.8</ele>
        <time>2012-06-13T08:19:51.000Z</time>
      </trkpt>
      <trkpt lat="44.05469" lon="4.76368">
        <ele>81.6</ele>
        <time>2012-06-13T08:19:52.000Z</time>
      </trkpt>
      <trkpt lat="44.05468" lon="4.76374">
        <ele>81.9</ele>
        <time>2012-06-13T08:19:53.000Z</time>
      </trkpt>
      <trkpt lat="44.05467" lon="4.76382">
        <ele>82.3</ele>
        <time>2012-06-13T08:19:54.000Z</time>
      </trkpt>
      <trkpt lat="44.05467" lon="4.76391">
        <ele>82</ele>
        <time>2012-06-13T08:19:55.000Z</time>
      </trkpt>
      <trkpt lat="44.05467" lon="4.764">
        <ele>82.1</ele>
        <time>2012-06-13T08:19:56.000Z</time>
      </trkpt>
      <trkpt lat="44.05466" lon="4.76408">
        <ele>81.5</ele>
        <time>2012-06-13T08:19:57.000Z</time>
      </trkpt>
      <trkpt lat="44.05465" lon="4.76415">
        <ele>81.3</ele>
        <time>2012-06-13T08:19:58.000Z</time>
      </trkpt>
      <trkpt lat="44.05464" lon="4.76423">
        <ele>81</ele>
        <time>2012-06-13T08:19:59.000Z</time>
      </trkpt>
      <trkpt lat="44.05463" lon="4.76432">
        <ele>80.7</ele>
        <time>2012-06-13T08:20:00.000Z</time>
      </trkpt>
      <trkpt lat="44.05462" lon="4.76439">
        <ele>80.1</ele>
        <time>2012-06-13T08:20:01.000Z</time>
      </trkpt>
      <trkpt lat="44.0546" lon="4.76447">
        <ele>79.6</ele>
        <time>2012-06-13T08:20:02.000Z</time>
      </trkpt>
      <trkpt lat="44.0546" lon="4.76456">
        <ele>79.7</ele>
        <time>2012-06-13T08:20:03.000Z</time>
      </trkpt>
      <trkpt lat="44.0546" lon="4.76465">
        <ele>79.6</ele>
        <time>2012-06-13T08:20:04.000Z</time>
      </trkpt>
      <trkpt lat="44.05458" lon="4.76473">
        <ele>79.1</ele>
        <time>2012-06-13T08:20:05.000Z</time>
      </trkpt>
      <trkpt lat="44.05455" lon="4.76482">
        <ele>79.1</ele>
        <time>2012-06-13T08:20:06.000Z</time>
      </trkpt>
      <trkpt lat="44.05454" lon="4.76491">
        <ele>78.2</ele>
        <time>2012-06-13T08:20:07.000Z</time>
      </trkpt>
      <trkpt lat="44.05451" lon="4.765">
        <ele>78.2</ele>
        <time>2012-06-13T08:20:08.000Z</time>
      </trkpt>
      <trkpt lat="44.05448" lon="4.76508">
        <ele>77.7</ele>
        <time>2012-06-13T08:20:09.000Z</time>
      </trkpt>
      <trkpt lat="44.05447" lon="4.76517">
        <ele>77.9</ele>
        <time>2012-06-13T08:20:10.000Z</time>
      </trkpt>
      <trkpt lat="44.05447" lon="4.76526">
        <ele>78</ele>
        <time>2012-06-13T08:20:11.000Z</time>
      </trkpt>
      <trkpt lat="44.05449" lon="4.76535">
        <ele>78.2</ele>
        <time>2012-06-13T08:20:12.000Z</time>
      </trkpt>
      <trkpt lat="44.05443" lon="4.76544">
        <ele>78.5</ele>
        <time>2012-06-13T08:20:13.000Z</time>
      </trkpt>
      <trkpt lat="44.05441" lon="4.76551">
        <ele>78.2</ele>
        <time>2012-06-13T08:20:14.000Z</time>
      </trkpt>
      <trkpt lat="44.05438" lon="4.76559">
        <ele>77.7</ele>
        <time>2012-06-13T08:20:15.000Z</time>
      </trkpt>
      <trkpt lat="44.05437" lon="4.76567">
        <ele>77.2</ele>
        <time>2012-06-13T08:20:16.000Z</time>
      </trkpt>
      <trkpt lat="44.05439" lon="4.76573">
        <ele>76.7</ele>
        <time>2012-06-13T08:20:17.000Z</time>
      </trkpt>
      <trkpt lat="44.05438" lon="4.76581">
        <ele>77</ele>
        <time>2012-06-13T08:20:18.000Z</time>
      </trkpt>
      <trkpt lat="44.05435" lon="4.7659">
        <ele>77</ele>
        <time>2012-06-13T08:20:19.000Z</time>
      </trkpt>
      <trkpt lat="44.05434" lon="4.766">
        <ele>77</ele>
        <time>2012-06-13T08:20:20.000Z</time>
      </trkpt>
      <trkpt lat="44.05435" lon="4.76609">
        <ele>77.5</ele>
        <time>2012-06-13T08:20:21.000Z</time>
      </trkpt>
      <trkpt lat="44.05434" lon="4.76619">
        <ele>77.3</ele>
        <time>2012-06-13T08:20:22.000Z</time>
      </trkpt>
      <trkpt lat="44.05434" lon="4.76629">
        <ele>75.9</ele>
        <time>2012-06-13T08:20:23.000Z</time>
      </trkpt>
      <trkpt lat="44.05434" lon="4.76636">
        <ele>75.4</ele>
        <time>2012-06-13T08:20:24.000Z</time>
      </trkpt>
      <trkpt lat="44.05436" lon="4.76646">
        <ele>75.5</ele>
        <time>2012-06-13T08:20:25.000Z</time>
      </trkpt>
      <trkpt lat="44.05435" lon="4.76654">
        <ele>75.2</ele>
        <time>2012-06-13T08:20:26.000Z</time>
      </trkpt>
      <trkpt lat="44.05435" lon="4.76663">
        <ele>75.8</ele>
        <time>2012-06-13T08:20:27.000Z</time>
      </trkpt>
      <trkpt lat="44.05433" lon="4.76673">
        <ele>75.6</ele>
        <time>2012-06-13T08:20:28.000Z</time>
      </trkpt>
      <trkpt lat="44.05432" lon="4.76681">
        <ele>75.6</ele>
        <time>2012-06-13T08:20:29.000Z</time>
      </trkpt>
      <trkpt lat="44.05432" lon="4.76691">
        <ele>74.9</ele>
        <time>2012-06-13T08:20:30.000Z</time>
      </trkpt>
      <trkpt lat="44.05433" lon="4.76699">
        <ele>74.6</ele>
        <time>2012-06-13T08:20:31.000Z</time>
      </trkpt>
      <trkpt lat="44.05431" lon="4.76708">
        <ele>74.9</ele>
        <time>2012-06-13T08:20:32.000Z</time>
      </trkpt>
      <trkpt lat="44.0543" lon="4.76716">
        <ele>75.5</ele>
        <time>2012-06-13T08:20:33.000Z</time>
      </trkpt>
      <trkpt lat="44.05429" lon="4.76724">
        <ele>76</ele>
        <time>2012-06-13T08:20:34.000Z</time>
      </trkpt>
      <trkpt lat="44.05426" lon="4.76732">
        <ele>76</ele>
        <time>2012-06-13T08:20:35.000Z</time>
      </trkpt>
      <trkpt lat="44.05424" lon="4.76738">
        <ele>76.1</ele>
        <time>2012-06-13T08:20:36.000Z</time>
      </trkpt>
      <trkpt lat="44.05422" lon="4.76745">
        <ele>76.1</ele>
        <time>2012-06-13T08:20:37.000Z</time>
      </trkpt>
      <trkpt lat="44.05422" lon="4.76752">
        <ele>75.5</ele>
        <time>2012-06-13T08:20:38.000Z</time>
      </trkpt>
      <trkpt lat="44.0542" lon="4.7676">
        <ele>75.2</ele>
        <time>2012-06-13T08:20:39.000Z</time>
      </trkpt>
      <trkpt lat="44.05422" lon="4.76767">
        <ele>74.8</ele>
        <time>2012-06-13T08:20:40.000Z</time>
      </trkpt>
      <trkpt lat="44.05418" lon="4.76775">
        <ele>73.9</ele>
        <time>2012-06-13T08:20:41.000Z</time>
      </trkpt>
      <trkpt lat="44.05415" lon="4.76782">
        <ele>73.6</ele>
        <time>2012-06-13T08:20:42.000Z</time>
      </trkpt>
      <trkpt lat="44.05418" lon="4.7679">
        <ele>73.3</ele>
        <time>2012-06-13T08:20:43.000Z</time>
      </trkpt>
      <trkpt lat="44.05418" lon="4.76798">
        <ele>72.8</ele>
        <time>2012-06-13T08:20:44.000Z</time>
      </trkpt>
      <trkpt lat="44.05418" lon="4.76806">
        <ele>72.5</ele>
        <time>2012-06-13T08:20:45.000Z</time>
      </trkpt>
      <trkpt lat="44.0542" lon="4.76813">
        <ele>72.3</ele>
        <time>2012-06-13T08:20:46.000Z</time>
      </trkpt>
      <trkpt lat="44.0542" lon="4.76821">
        <ele>71.6</ele>
        <time>2012-06-13T08:20:47.000Z</time>
      </trkpt>
      <trkpt lat="44.05419" lon="4.7683">
        <ele>72.2</ele>
        <time>2012-06-13T08:20:48.000Z</time>
      </trkpt>
      <trkpt lat="44.0542" lon="4.7684">
        <ele>72.9</ele>
        <time>2012-06-13T08:20:49.000Z</time>
      </trkpt>
      <trkpt lat="44.05422" lon="4.76847">
        <ele>73.3</ele>
        <time>2012-06-13T08:20:50.000Z</time>
      </trkpt>
      <trkpt lat="44.05421" lon="4.76853">
        <ele>73</ele>
        <time>2012-06-13T08:20:51.000Z</time>
      </trkpt>
      <trkpt lat="44.05419" lon="4.76866">
        <ele>73</ele>
        <time>2012-06-13T08:20:53.000Z</time>
      </trkpt>
      <trkpt lat="44.05418" lon="4.76875">
        <ele>72.9</ele>
        <time>2012-06-13T08:20:54.000Z</time>
      </trkpt>
      <trkpt lat="44.05418" lon="4.76884">
        <ele>72.9</ele>
        <time>2012-06-13T08:20:55.000Z</time>
      </trkpt>
      <trkpt lat="44.05417" lon="4.7689">
        <ele>73.1</ele>
        <time>2012-06-13T08:20:56.000Z</time>
      </trkpt>
      <trkpt lat="44.05414" lon="4.76898">
        <ele>72.1</ele>
        <time>2012-06-13T08:20:57.000Z</time>
      </trkpt>
      <trkpt lat="44.05411" lon="4.76906">
        <ele>71.8</ele>
        <time>2012-06-13T08:20:58.000Z</time>
      </trkpt>
      <trkpt lat="44.05408" lon="4.76912">
        <ele>71.5</ele>
        <time>2012-06-13T08:20:59.000Z</time>
      </trkpt>
      <trkpt lat="44.05408" lon="4.76919">
        <ele>71.5</ele>
        <time>2012-06-13T08:21:00.000Z</time>
      </trkpt>
      <trkpt lat="44.05406" lon="4.76927">
        <ele>71</ele>
        <time>2012-06-13T08:21:01.000Z</time>
      </trkpt>
      <trkpt lat="44.05405" lon="4.76934">
        <ele>70.9</ele>
        <time>2012-06-13T08:21:02.000Z</time>
      </trkpt>
      <trkpt lat="44.05404" lon="4.76942">
        <ele>70.7</ele>
        <time>2012-06-13T08:21:03.000Z</time>
      </trkpt>
      <trkpt lat="44.05404" lon="4.7695">
        <ele>70.6</ele>
        <time>2012-06-13T08:21:04.000Z</time>
      </trkpt>
      <trkpt lat="44.05404" lon="4.76957">
        <ele>70.6</ele>
        <time>2012-06-13T08:21:05.000Z</time>
      </trkpt>
      <trkpt lat="44.05406" lon="4.76968">
        <ele>70.7</ele>
        <time>2012-06-13T08:21:07.000Z</time>
      </trkpt>
      <trkpt lat="44.05405" lon="4.76974">
        <ele>70.2</ele>
        <time>2012-06-13T08:21:08.000Z</time>
      </trkpt>
      <trkpt lat="44.05407" lon="4.76981">
        <ele>69.8</ele>
        <time>2012-06-13T08:21:09.000Z</time>
      </trkpt>
      <trkpt lat="44.05408" lon="4.76988">
        <ele>70.5</ele>
        <time>2012-06-13T08:21:10.000Z</time>
      </trkpt>
      <trkpt lat="44.05409" lon="4.76995">
        <ele>70.9</ele>
        <time>2012-06-13T08:21:11.000Z</time>
      </trkpt>
      <trkpt lat="44.05409" lon="4.77002">
        <ele>71.7</ele>
        <time>2012-06-13T08:21:12.000Z</time>
      </trkpt>
      <trkpt lat="44.05413" lon="4.77013">
        <ele>72.5</ele>
        <time>2012-06-13T08:21:14.000Z</time>
      </trkpt>
      <trkpt lat="44.05415" lon="4.77022">
        <ele>73.8</ele>
        <time>2012-06-13T08:21:15.000Z</time>
      </trkpt>
      <trkpt lat="44.05417" lon="4.77033">
        <ele>73.7</ele>
        <time>2012-06-13T08:21:17.000Z</time>
      </trkpt>
      <trkpt lat="44.0542" lon="4.77039">
        <ele>74.2</ele>
        <time>2012-06-13T08:21:18.000Z</time>
      </trkpt>
      <trkpt lat="44.05424" lon="4.7705">
        <ele>74.3</ele>
        <time>2012-06-13T08:21:20.000Z</time>
      </trkpt>
      <trkpt lat="44.05428" lon="4.77054">
        <ele>74.3</ele>
        <time>2012-06-13T08:21:21.000Z</time>
      </trkpt>
      <trkpt lat="44.05434" lon="4.77064">
        <ele>73.9</ele>
        <time>2012-06-13T08:21:23.000Z</time>
      </trkpt>
      <trkpt lat="44.05437" lon="4.77068">
        <ele>73.9</ele>
        <time>2012-06-13T08:21:24.000Z</time>
      </trkpt>
      <trkpt lat="44.05443" lon="4.77075">
        <ele>73.2</ele>
        <time>2012-06-13T08:21:26.000Z</time>
      </trkpt>
      <trkpt lat="44.05448" lon="4.77083">
        <ele>73.6</ele>
        <time>2012-06-13T08:21:28.000Z</time>
      </trkpt>
      <trkpt lat="44.05454" lon="4.77092">
        <ele>74.3</ele>
        <time>2012-06-13T08:21:30.000Z</time>
      </trkpt>
      <trkpt lat="44.05458" lon="4.77097">
        <ele>74</ele>
        <time>2012-06-13T08:21:31.000Z</time>
      </trkpt>
      <trkpt lat="44.05461" lon="4.77102">
        <ele>74.2</ele>
        <time>2012-06-13T08:21:32.000Z</time>
      </trkpt>
      <trkpt lat="44.05465" lon="4.77106">
        <ele>75</ele>
        <time>2012-06-13T08:21:33.000Z</time>
      </trkpt>
      <trkpt lat="44.05469" lon="4.77116">
        <ele>76.6</ele>
        <time>2012-06-13T08:21:35.000Z</time>
      </trkpt>
      <trkpt lat="44.05471" lon="4.77122">
        <ele>75.9</ele>
        <time>2012-06-13T08:21:36.000Z</time>
      </trkpt>
      <trkpt lat="44.0547" lon="4.77128">
        <ele>75.6</ele>
        <time>2012-06-13T08:21:37.000Z</time>
      </trkpt>
      <trkpt lat="44.05472" lon="4.77138">
        <ele>76.4</ele>
        <time>2012-06-13T08:21:39.000Z</time>
      </trkpt>
      <trkpt lat="44.05477" lon="4.77149">
        <ele>77.8</ele>
        <time>2012-06-13T08:21:41.000Z</time>
      </trkpt>
      <trkpt lat="44.05483" lon="4.77154">
        <ele>76.8</ele>
        <time>2012-06-13T08:21:42.000Z</time>
      </trkpt>
      <trkpt lat="44.05486" lon="4.77159">
        <ele>76.7</ele>
        <time>2012-06-13T08:21:43.000Z</time>
      </trkpt>
      <trkpt lat="44.0549" lon="4.77163">
        <ele>76.2</ele>
        <time>2012-06-13T08:21:44.000Z</time>
      </trkpt>
      <trkpt lat="44.05494" lon="4.77167">
        <ele>75.2</ele>
        <time>2012-06-13T08:21:45.000Z</time>
      </trkpt>
      <trkpt lat="44.05498" lon="4.7717">
        <ele>74.4</ele>
        <time>2012-06-13T08:21:46.000Z</time>
      </trkpt>
      <trkpt lat="44.05502" lon="4.77175">
        <ele>75.1</ele>
        <time>2012-06-13T08:21:47.000Z</time>
      </trkpt>
      <trkpt lat="44.05508" lon="4.77183">
        <ele>75</ele>
        <time>2012-06-13T08:21:49.000Z</time>
      </trkpt>
      <trkpt lat="44.05513" lon="4.77192">
        <ele>75.1</ele>
        <time>2012-06-13T08:21:51.000Z</time>
      </trkpt>
      <trkpt lat="44.05516" lon="4.77197">
        <ele>75.3</ele>
        <time>2012-06-13T08:21:52.000Z</time>
      </trkpt>
      <trkpt lat="44.05519" lon="4.7721">
        <ele>76</ele>
        <time>2012-06-13T08:21:54.000Z</time>
      </trkpt>
      <trkpt lat="44.05523" lon="4.77222">
        <ele>76.6</ele>
        <time>2012-06-13T08:21:56.000Z</time>
      </trkpt>
      <trkpt lat="44.05524" lon="4.7723">
        <ele>77.1</ele>
        <time>2012-06-13T08:21:57.000Z</time>
      </trkpt>
      <trkpt lat="44.05526" lon="4.77236">
        <ele>77.5</ele>
        <time>2012-06-13T08:21:58.000Z</time>
      </trkpt>
      <trkpt lat="44.05526" lon="4.77242">
        <ele>77.6</ele>
        <time>2012-06-13T08:21:59.000Z</time>
      </trkpt>
      <trkpt lat="44.05528" lon="4.77249">
        <ele>77.5</ele>
        <time>2012-06-13T08:22:00.000Z</time>
      </trkpt>
      <trkpt lat="44.0553" lon="4.77254">
        <ele>77.2</ele>
        <time>2012-06-13T08:22:01.000Z</time>
      </trkpt>
      <trkpt lat="44.05532" lon="4.77261">
        <ele>77.3</ele>
        <time>2012-06-13T08:22:02.000Z</time>
      </trkpt>
      <trkpt lat="44.05534" lon="4.77267">
        <ele>77.2</ele>
        <time>2012-06-13T08:22:03.000Z</time>
      </trkpt>
      <trkpt lat="44.05535" lon="4.77273">
        <ele>77.1</ele>
        <time>2012-06-13T08:22:04.000Z</time>
      </trkpt>
      <trkpt lat="44.05536" lon="4.77279">
        <ele>77</ele>
        <time>2012-06-13T08:22:05.000Z</time>
      </trkpt>
      <trkpt lat="44.05539" lon="4.77287">
        <ele>77.5</ele>
        <time>2012-06-13T08:22:07.000Z</time>
      </trkpt>
      <trkpt lat="44.05541" lon="4.77297">
        <ele>77</ele>
        <time>2012-06-13T08:22:09.000Z</time>
      </trkpt>
      <trkpt lat="44.0554" lon="4.77304">
        <ele>77.7</ele>
        <time>2012-06-13T08:22:10.000Z</time>
      </trkpt>
      <trkpt lat="44.0554" lon="4.77311">
        <ele>75.1</ele>
        <time>2012-06-13T08:24:48.000Z</time>
      </trkpt>
      <trkpt lat="44.05542" lon="4.7732">
        <ele>76.6</ele>
        <time>2012-06-13T08:24:59.000Z</time>
      </trkpt>
      <trkpt lat="44.05545" lon="4.77327">
        <ele>76.5</ele>
        <time>2012-06-13T08:25:01.000Z</time>
      </trkpt>
      <trkpt lat="44.05547" lon="4.77332">
        <ele>76.7</ele>
        <time>2012-06-13T08:25:03.000Z</time>
      </trkpt>
      <trkpt lat="44.05551" lon="4.7734">
        <ele>77</ele>
        <time>2012-06-13T08:25:05.000Z</time>
      </trkpt>
      <trkpt lat="44.05555" lon="4.77349">
        <ele>77</ele>
        <time>2012-06-13T08:25:07.000Z</time>
      </trkpt>
      <trkpt lat="44.05559" lon="4.77359">
        <ele>77.2</ele>
        <time>2012-06-13T08:25:09.000Z</time>
      </trkpt>
      <trkpt lat="44.05562" lon="4.77364">
        <ele>77.4</ele>
        <time>2012-06-13T08:25:10.000Z</time>
      </trkpt>
      <trkpt lat="44.05566" lon="4.77373">
        <ele>77.5</ele>
        <time>2012-06-13T08:25:12.000Z</time>
      </trkpt>
      <trkpt lat="44.05572" lon="4.77382">
        <ele>77.4</ele>
        <time>2012-06-13T08:25:14.000Z</time>
      </trkpt>
      <trkpt lat="44.05574" lon="4.77388">
        <ele>77.5</ele>
        <time>2012-06-13T08:25:15.000Z</time>
      </trkpt>
      <trkpt lat="44.05578" lon="4.77396">
        <ele>77.5</ele>
        <time>2012-06-13T08:25:17.000Z</time>
      </trkpt>
      <trkpt lat="44.0558" lon="4.77402">
        <ele>77.8</ele>
        <time>2012-06-13T08:25:18.000Z</time>
      </trkpt>
      <trkpt lat="44.05582" lon="4.77407">
        <ele>77.7</ele>
        <time>2012-06-13T08:25:19.000Z</time>
      </trkpt>
      <trkpt lat="44.05585" lon="4.77413">
        <ele>77.4</ele>
        <time>2012-06-13T08:25:20.000Z</time>
      </trkpt>
      <trkpt lat="44.0559" lon="4.77422">
        <ele>77.4</ele>
        <time>2012-06-13T08:25:22.000Z</time>
      </trkpt>
      <trkpt lat="44.05594" lon="4.77433">
        <ele>77.6</ele>
        <time>2012-06-13T08:25:24.000Z</time>
      </trkpt>
      <trkpt lat="44.05596" lon="4.77439">
        <ele>76.9</ele>
        <time>2012-06-13T08:25:25.000Z</time>
      </trkpt>
      <trkpt lat="44.05599" lon="4.7745">
        <ele>76.8</ele>
        <time>2012-06-13T08:25:27.000Z</time>
      </trkpt>
      <trkpt lat="44.05604" lon="4.77459">
        <ele>76.3</ele>
        <time>2012-06-13T08:25:29.000Z</time>
      </trkpt>
      <trkpt lat="44.05607" lon="4.77469">
        <ele>75.9</ele>
        <time>2012-06-13T08:25:31.000Z</time>
      </trkpt>
      <trkpt lat="44.05608" lon="4.77475">
        <ele>75.5</ele>
        <time>2012-06-13T08:25:32.000Z</time>
      </trkpt>
      <trkpt lat="44.05612" lon="4.77487">
        <ele>75.1</ele>
        <time>2012-06-13T08:25:34.000Z</time>
      </trkpt>
      <trkpt lat="44.05616" lon="4.775">
        <ele>73.6</ele>
        <time>2012-06-13T08:25:36.000Z</time>
      </trkpt>
      <trkpt lat="44.0562" lon="4.77512">
        <ele>73.2</ele>
        <time>2012-06-13T08:25:38.000Z</time>
      </trkpt>
      <trkpt lat="44.05621" lon="4.77519">
        <ele>72.9</ele>
        <time>2012-06-13T08:25:39.000Z</time>
      </trkpt>
      <trkpt lat="44.05623" lon="4.77526">
        <ele>73</ele>
        <time>2012-06-13T08:25:40.000Z</time>
      </trkpt>
      <trkpt lat="44.05624" lon="4.77533">
        <ele>72.9</ele>
        <time>2012-06-13T08:25:41.000Z</time>
      </trkpt>
      <trkpt lat="44.05626" lon="4.7754">
        <ele>72.5</ele>
        <time>2012-06-13T08:25:42.000Z</time>
      </trkpt>
      <trkpt lat="44.05626" lon="4.77547">
        <ele>72.4</ele>
        <time>2012-06-13T08:25:43.000Z</time>
      </trkpt>
      <trkpt lat="44.05625" lon="4.77556">
        <ele>72.8</ele>
        <time>2012-06-13T08:25:44.000Z</time>
      </trkpt>
      <trkpt lat="44.05625" lon="4.77568">
        <ele>75.8</ele>
        <time>2012-06-13T08:25:45.000Z</time>
      </trkpt>
      <trkpt lat="44.05625" lon="4.77577">
        <ele>76.8</ele>
        <time>2012-06-13T08:25:46.000Z</time>
      </trkpt>
      <trkpt lat="44.05626" lon="4.77583">
        <ele>76.5</ele>
        <time>2012-06-13T08:25:47.000Z</time>
      </trkpt>
      <trkpt lat="44.05626" lon="4.77592">
        <ele>76.5</ele>
        <time>2012-06-13T08:25:48.000Z</time>
      </trkpt>
      <trkpt lat="44.05625" lon="4.77599">
        <ele>76.4</ele>
        <time>2012-06-13T08:25:49.000Z</time>
      </trkpt>
      <trkpt lat="44.05626" lon="4.77606">
        <ele>75.6</ele>
        <time>2012-06-13T08:25:50.000Z</time>
      </trkpt>
      <trkpt lat="44.05625" lon="4.77614">
        <ele>75.5</ele>
        <time>2012-06-13T08:25:51.000Z</time>
      </trkpt>
      <trkpt lat="44.05625" lon="4.77621">
        <ele>75.1</ele>
        <time>2012-06-13T08:25:52.000Z</time>
      </trkpt>
      <trkpt lat="44.05625" lon="4.77628">
        <ele>75.1</ele>
        <time>2012-06-13T08:25:53.000Z</time>
      </trkpt>
      <trkpt lat="44.05624" lon="4.77635">
        <ele>75.5</ele>
        <time>2012-06-13T08:25:54.000Z</time>
      </trkpt>
      <trkpt lat="44.05623" lon="4.77642">
        <ele>75.2</ele>
        <time>2012-06-13T08:25:55.000Z</time>
      </trkpt>
      <trkpt lat="44.05623" lon="4.77649">
        <ele>75.3</ele>
        <time>2012-06-13T08:25:56.000Z</time>
      </trkpt>
      <trkpt lat="44.05622" lon="4.77657">
        <ele>75.9</ele>
        <time>2012-06-13T08:25:57.000Z</time>
      </trkpt>
      <trkpt lat="44.05619" lon="4.77665">
        <ele>77</ele>
        <time>2012-06-13T08:25:58.000Z</time>
      </trkpt>
      <trkpt lat="44.05616" lon="4.77671">
        <ele>77.5</ele>
        <time>2012-06-13T08:25:59.000Z</time>
      </trkpt>
      <trkpt lat="44.05613" lon="4.77676">
        <ele>77.9</ele>
        <time>2012-06-13T08:26:00.000Z</time>
      </trkpt>
      <trkpt lat="44.0561" lon="4.77683">
        <ele>78.5</ele>
        <time>2012-06-13T08:26:01.000Z</time>
      </trkpt>
      <trkpt lat="44.05609" lon="4.7769">
        <ele>78.6</ele>
        <time>2012-06-13T08:26:02.000Z</time>
      </trkpt>
      <trkpt lat="44.05609" lon="4.77698">
        <ele>78.3</ele>
        <time>2012-06-13T08:26:03.000Z</time>
      </trkpt>
      <trkpt lat="44.05609" lon="4.77705">
        <ele>77.7</ele>
        <time>2012-06-13T08:26:04.000Z</time>
      </trkpt>
      <trkpt lat="44.05615" lon="4.77717">
        <ele>77.5</ele>
        <time>2012-06-13T08:26:06.000Z</time>
      </trkpt>
      <trkpt lat="44.0562" lon="4.77726">
        <ele>77.8</ele>
        <time>2012-06-13T08:26:08.000Z</time>
      </trkpt>
      <trkpt lat="44.05623" lon="4.77732">
        <ele>77.8</ele>
        <time>2012-06-13T08:26:09.000Z</time>
      </trkpt>
      <trkpt lat="44.05625" lon="4.77737">
        <ele>77.7</ele>
        <time>2012-06-13T08:26:10.000Z</time>
      </trkpt>
      <trkpt lat="44.05627" lon="4.77743">
        <ele>77.3</ele>
        <time>2012-06-13T08:26:11.000Z</time>
      </trkpt>
      <trkpt lat="44.05632" lon="4.77753">
        <ele>77.2</ele>
        <time>2012-06-13T08:26:13.000Z</time>
      </trkpt>
      <trkpt lat="44.05636" lon="4.77765">
        <ele>77.1</ele>
        <time>2012-06-13T08:26:15.000Z</time>
      </trkpt>
      <trkpt lat="44.05638" lon="4.77776">
        <ele>77.1</ele>
        <time>2012-06-13T08:26:17.000Z</time>
      </trkpt>
      <trkpt lat="44.0564" lon="4.77783">
        <ele>77.4</ele>
        <time>2012-06-13T08:26:18.000Z</time>
      </trkpt>
      <trkpt lat="44.05642" lon="4.77789">
        <ele>77.4</ele>
        <time>2012-06-13T08:26:19.000Z</time>
      </trkpt>
      <trkpt lat="44.05642" lon="4.77795">
        <ele>77.6</ele>
        <time>2012-06-13T08:26:20.000Z</time>
      </trkpt>
      <trkpt lat="44.05644" lon="4.77807">
        <ele>74</ele>
        <time>2012-06-13T08:26:22.000Z</time>
      </trkpt>
      <trkpt lat="44.05645" lon="4.77815">
        <ele>74.1</ele>
        <time>2012-06-13T08:26:23.000Z</time>
      </trkpt>
      <trkpt lat="44.05647" lon="4.77822">
        <ele>74.4</ele>
        <time>2012-06-13T08:26:24.000Z</time>
      </trkpt>
      <trkpt lat="44.05646" lon="4.77829">
        <ele>74.5</ele>
        <time>2012-06-13T08:26:25.000Z</time>
      </trkpt>
      <trkpt lat="44.05647" lon="4.77836">
        <ele>75</ele>
        <time>2012-06-13T08:26:26.000Z</time>
      </trkpt>
      <trkpt lat="44.05647" lon="4.77842">
        <ele>74.6</ele>
        <time>2012-06-13T08:26:27.000Z</time>
      </trkpt>
      <trkpt lat="44.05648" lon="4.77855">
        <ele>74.5</ele>
        <time>2012-06-13T08:26:29.000Z</time>
      </trkpt>
      <trkpt lat="44.05648" lon="4.77862">
        <ele>75</ele>
        <time>2012-06-13T08:26:30.000Z</time>
      </trkpt>
      <trkpt lat="44.05648" lon="4.77868">
        <ele>74.9</ele>
        <time>2012-06-13T08:26:31.000Z</time>
      </trkpt>
      <trkpt lat="44.05649" lon="4.77875">
        <ele>74.8</ele>
        <time>2012-06-13T08:26:32.000Z</time>
      </trkpt>
      <trkpt lat="44.0565" lon="4.77887">
        <ele>74.8</ele>
        <time>2012-06-13T08:26:34.000Z</time>
      </trkpt>
      <trkpt lat="44.0565" lon="4.77897">
        <ele>73.6</ele>
        <time>2012-06-13T08:26:36.000Z</time>
      </trkpt>
      <trkpt lat="44.05651" lon="4.77904">
        <ele>73.2</ele>
        <time>2012-06-13T08:26:37.000Z</time>
      </trkpt>
      <trkpt lat="44.0565" lon="4.77916">
        <ele>72.8</ele>
        <time>2012-06-13T08:26:39.000Z</time>
      </trkpt>
      <trkpt lat="44.0565" lon="4.77927">
        <ele>72.7</ele>
        <time>2012-06-13T08:26:41.000Z</time>
      </trkpt>
      <trkpt lat="44.05652" lon="4.77939">
        <ele>72.7</ele>
        <time>2012-06-13T08:26:43.000Z</time>
      </trkpt>
      <trkpt lat="44.05653" lon="4.77952">
        <ele>71.8</ele>
        <time>2012-06-13T08:26:45.000Z</time>
      </trkpt>
      <trkpt lat="44.05654" lon="4.77963">
        <ele>72</ele>
        <time>2012-06-13T08:26:47.000Z</time>
      </trkpt>
      <trkpt lat="44.05654" lon="4.77971">
        <ele>71.6</ele>
        <time>2012-06-13T08:26:48.000Z</time>
      </trkpt>
      <trkpt lat="44.05654" lon="4.77978">
        <ele>72</ele>
        <time>2012-06-13T08:26:49.000Z</time>
      </trkpt>
      <trkpt lat="44.05654" lon="4.77984">
        <ele>72.1</ele>
        <time>2012-06-13T08:26:50.000Z</time>
      </trkpt>
      <trkpt lat="44.05654" lon="4.77991">
        <ele>72</ele>
        <time>2012-06-13T08:26:51.000Z</time>
      </trkpt>
      <trkpt lat="44.05653" lon="4.78005">
        <ele>71.6</ele>
        <time>2012-06-13T08:26:53.000Z</time>
      </trkpt>
      <trkpt lat="44.05652" lon="4.78013">
        <ele>71.2</ele>
        <time>2012-06-13T08:26:54.000Z</time>
      </trkpt>
      <trkpt lat="44.05652" lon="4.7802">
        <ele>70.8</ele>
        <time>2012-06-13T08:26:55.000Z</time>
      </trkpt>
      <trkpt lat="44.05652" lon="4.78026">
        <ele>70.5</ele>
        <time>2012-06-13T08:26:56.000Z</time>
      </trkpt>
      <trkpt lat="44.05652" lon="4.78034">
        <ele>70.1</ele>
        <time>2012-06-13T08:26:57.000Z</time>
      </trkpt>
      <trkpt lat="44.05652" lon="4.78041">
        <ele>70.1</ele>
        <time>2012-06-13T08:26:58.000Z</time>
      </trkpt>
      <trkpt lat="44.05651" lon="4.78049">
        <ele>70.9</ele>
        <time>2012-06-13T08:26:59.000Z</time>
      </trkpt>
      <trkpt lat="44.05651" lon="4.78057">
        <ele>71</ele>
        <time>2012-06-13T08:27:00.000Z</time>
      </trkpt>
      <trkpt lat="44.0565" lon="4.78063">
        <ele>70.9</ele>
        <time>2012-06-13T08:27:01.000Z</time>
      </trkpt>
      <trkpt lat="44.0565" lon="4.78072">
        <ele>71.6</ele>
        <time>2012-06-13T08:27:02.000Z</time>
      </trkpt>
      <trkpt lat="44.0565" lon="4.78078">
        <ele>71.5</ele>
        <time>2012-06-13T08:27:03.000Z</time>
      </trkpt>
      <trkpt lat="44.0565" lon="4.78085">
        <ele>71.3</ele>
        <time>2012-06-13T08:27:04.000Z</time>
      </trkpt>
      <trkpt lat="44.0565" lon="4.78092">
        <ele>71.7</ele>
        <time>2012-06-13T08:27:05.000Z</time>
      </trkpt>
      <trkpt lat="44.05648" lon="4.78106">
        <ele>71.9</ele>
        <time>2012-06-13T08:27:07.000Z</time>
      </trkpt>
      <trkpt lat="44.05647" lon="4.78114">
        <ele>72.1</ele>
        <time>2012-06-13T08:27:08.000Z</time>
      </trkpt>
      <trkpt lat="44.05648" lon="4.78121">
        <ele>72.2</ele>
        <time>2012-06-13T08:27:09.000Z</time>
      </trkpt>
      <trkpt lat="44.05647" lon="4.78128">
        <ele>72.8</ele>
        <time>2012-06-13T08:27:10.000Z</time>
      </trkpt>
      <trkpt lat="44.05646" lon="4.78134">
        <ele>73.3</ele>
        <time>2012-06-13T08:27:11.000Z</time>
      </trkpt>
      <trkpt lat="44.05644" lon="4.78148">
        <ele>73.7</ele>
        <time>2012-06-13T08:27:13.000Z</time>
      </trkpt>
      <trkpt lat="44.05642" lon="4.78154">
        <ele>73</ele>
        <time>2012-06-13T08:27:14.000Z</time>
      </trkpt>
      <trkpt lat="44.05641" lon="4.78161">
        <ele>73.3</ele>
        <time>2012-06-13T08:27:15.000Z</time>
      </trkpt>
      <trkpt lat="44.05637" lon="4.7817">
        <ele>74.1</ele>
        <time>2012-06-13T08:27:16.000Z</time>
      </trkpt>
      <trkpt lat="44.05635" lon="4.78177">
        <ele>75.3</ele>
        <time>2012-06-13T08:27:17.000Z</time>
      </trkpt>
      <trkpt lat="44.05633" lon="4.78185">
        <ele>76</ele>
        <time>2012-06-13T08:27:18.000Z</time>
      </trkpt>
      <trkpt lat="44.05629" lon="4.78192">
        <ele>75.6</ele>
        <time>2012-06-13T08:27:19.000Z</time>
      </trkpt>
      <trkpt lat="44.05626" lon="4.782">
        <ele>76.1</ele>
        <time>2012-06-13T08:27:20.000Z</time>
      </trkpt>
      <trkpt lat="44.05623" lon="4.78206">
        <ele>76</ele>
        <time>2012-06-13T08:27:21.000Z</time>
      </trkpt>
      <trkpt lat="44.05619" lon="4.78214">
        <ele>76.3</ele>
        <time>2012-06-13T08:27:22.000Z</time>
      </trkpt>
      <trkpt lat="44.05616" lon="4.78222">
        <ele>75.6</ele>
        <time>2012-06-13T08:27:23.000Z</time>
      </trkpt>
      <trkpt lat="44.05613" lon="4.78228">
        <ele>76</ele>
        <time>2012-06-13T08:27:24.000Z</time>
      </trkpt>
      <trkpt lat="44.05609" lon="4.78234">
        <ele>75.9</ele>
        <time>2012-06-13T08:27:25.000Z</time>
      </trkpt>
      <trkpt lat="44.05606" lon="4.78239">
        <ele>75.8</ele>
        <time>2012-06-13T08:27:26.000Z</time>
      </trkpt>
      <trkpt lat="44.05602" lon="4.78246">
        <ele>75.4</ele>
        <time>2012-06-13T08:27:27.000Z</time>
      </trkpt>
      <trkpt lat="44.05597" lon="4.7825">
        <ele>75.1</ele>
        <time>2012-06-13T08:27:28.000Z</time>
      </trkpt>
      <trkpt lat="44.05592" lon="4.78256">
        <ele>75.1</ele>
        <time>2012-06-13T08:27:29.000Z</time>
      </trkpt>
      <trkpt lat="44.05588" lon="4.78261">
        <ele>74.9</ele>
        <time>2012-06-13T08:27:30.000Z</time>
      </trkpt>
      <trkpt lat="44.05584" lon="4.78265">
        <ele>74.5</ele>
        <time>2012-06-13T08:27:31.000Z</time>
      </trkpt>
      <trkpt lat="44.0558" lon="4.78269">
        <ele>74.3</ele>
        <time>2012-06-13T08:27:32.000Z</time>
      </trkpt>
      <trkpt lat="44.05575" lon="4.78273">
        <ele>75.5</ele>
        <time>2012-06-13T08:27:33.000Z</time>
      </trkpt>
      <trkpt lat="44.0557" lon="4.78277">
        <ele>76.3</ele>
        <time>2012-06-13T08:27:34.000Z</time>
      </trkpt>
      <trkpt lat="44.05565" lon="4.78281">
        <ele>76.7</ele>
        <time>2012-06-13T08:27:35.000Z</time>
      </trkpt>
      <trkpt lat="44.0556" lon="4.78285">
        <ele>76.4</ele>
        <time>2012-06-13T08:27:36.000Z</time>
      </trkpt>
      <trkpt lat="44.05555" lon="4.78287">
        <ele>76.5</ele>
        <time>2012-06-13T08:27:37.000Z</time>
      </trkpt>
      <trkpt lat="44.0555" lon="4.7829">
        <ele>76.3</ele>
        <time>2012-06-13T08:27:38.000Z</time>
      </trkpt>
      <trkpt lat="44.05545" lon="4.78291">
        <ele>76.4</ele>
        <time>2012-06-13T08:27:39.000Z</time>
      </trkpt>
      <trkpt lat="44.05539" lon="4.78292">
        <ele>76.3</ele>
        <time>2012-06-13T08:27:40.000Z</time>
      </trkpt>
      <trkpt lat="44.05534" lon="4.78291">
        <ele>75.7</ele>
        <time>2012-06-13T08:27:41.000Z</time>
      </trkpt>
      <trkpt lat="44.05528" lon="4.78293">
        <ele>76.2</ele>
        <time>2012-06-13T08:27:42.000Z</time>
      </trkpt>
      <trkpt lat="44.05523" lon="4.78293">
        <ele>76.1</ele>
        <time>2012-06-13T08:27:43.000Z</time>
      </trkpt>
      <trkpt lat="44.05518" lon="4.78295">
        <ele>76.4</ele>
        <time>2012-06-13T08:27:44.000Z</time>
      </trkpt>
      <trkpt lat="44.05508" lon="4.78295">
        <ele>76.4</ele>
        <time>2012-06-13T08:27:46.000Z</time>
      </trkpt>
      <trkpt lat="44.05503" lon="4.78295">
        <ele>76.4</ele>
        <time>2012-06-13T08:27:47.000Z</time>
      </trkpt>
      <trkpt lat="44.05498" lon="4.78295">
        <ele>76</ele>
        <time>2012-06-13T08:27:48.000Z</time>
      </trkpt>
      <trkpt lat="44.05493" lon="4.78295">
        <ele>75.5</ele>
        <time>2012-06-13T08:27:49.000Z</time>
      </trkpt>
      <trkpt lat="44.05484" lon="4.78295">
        <ele>74.8</ele>
        <time>2012-06-13T08:27:51.000Z</time>
      </trkpt>
      <trkpt lat="44.05479" lon="4.78294">
        <ele>74.6</ele>
        <time>2012-06-13T08:27:52.000Z</time>
      </trkpt>
      <trkpt lat="44.05473" lon="4.78294">
        <ele>75.1</ele>
        <time>2012-06-13T08:27:53.000Z</time>
      </trkpt>
      <trkpt lat="44.05467" lon="4.78295">
        <ele>75.2</ele>
        <time>2012-06-13T08:27:54.000Z</time>
      </trkpt>
      <trkpt lat="44.05462" lon="4.78295">
        <ele>75.4</ele>
        <time>2012-06-13T08:27:55.000Z</time>
      </trkpt>
      <trkpt lat="44.05457" lon="4.78295">
        <ele>75.8</ele>
        <time>2012-06-13T08:27:56.000Z</time>
      </trkpt>
      <trkpt lat="44.05452" lon="4.78297">
        <ele>75.5</ele>
        <time>2012-06-13T08:27:57.000Z</time>
      </trkpt>
      <trkpt lat="44.05447" lon="4.78298">
        <ele>75</ele>
        <time>2012-06-13T08:27:58.000Z</time>
      </trkpt>
      <trkpt lat="44.05441" lon="4.78299">
        <ele>75.1</ele>
        <time>2012-06-13T08:27:59.000Z</time>
      </trkpt>
      <trkpt lat="44.0543" lon="4.783">
        <ele>75.4</ele>
        <time>2012-06-13T08:28:01.000Z</time>
      </trkpt>
      <trkpt lat="44.05425" lon="4.78301">
        <ele>75.5</ele>
        <time>2012-06-13T08:28:02.000Z</time>
      </trkpt>
      <trkpt lat="44.05419" lon="4.78304">
        <ele>76.7</ele>
        <time>2012-06-13T08:28:03.000Z</time>
      </trkpt>
      <trkpt lat="44.05413" lon="4.78305">
        <ele>76</ele>
        <time>2012-06-13T08:28:04.000Z</time>
      </trkpt>
      <trkpt lat="44.05408" lon="4.78308">
        <ele>76.7</ele>
        <time>2012-06-13T08:28:05.000Z</time>
      </trkpt>
      <trkpt lat="44.05404" lon="4.7831">
        <ele>77.3</ele>
        <time>2012-06-13T08:28:06.000Z</time>
      </trkpt>
      <trkpt lat="44.05398" lon="4.78311">
        <ele>78.6</ele>
        <time>2012-06-13T08:28:07.000Z</time>
      </trkpt>
      <trkpt lat="44.05392" lon="4.78312">
        <ele>77.3</ele>
        <time>2012-06-13T08:28:08.000Z</time>
      </trkpt>
      <trkpt lat="44.05387" lon="4.78313">
        <ele>77.6</ele>
        <time>2012-06-13T08:28:09.000Z</time>
      </trkpt>
      <trkpt lat="44.05382" lon="4.78315">
        <ele>77.4</ele>
        <time>2012-06-13T08:28:10.000Z</time>
      </trkpt>
      <trkpt lat="44.05376" lon="4.78316">
        <ele>77.1</ele>
        <time>2012-06-13T08:28:11.000Z</time>
      </trkpt>
      <trkpt lat="44.05372" lon="4.78317">
        <ele>77</ele>
        <time>2012-06-13T08:28:12.000Z</time>
      </trkpt>
      <trkpt lat="44.05367" lon="4.78319">
        <ele>77.2</ele>
        <time>2012-06-13T08:28:13.000Z</time>
      </trkpt>
      <trkpt lat="44.05363" lon="4.78324">
        <ele>78.3</ele>
        <time>2012-06-13T08:28:14.000Z</time>
      </trkpt>
      <trkpt lat="44.05357" lon="4.78326">
        <ele>78.4</ele>
        <time>2012-06-13T08:28:15.000Z</time>
      </trkpt>
      <trkpt lat="44.05351" lon="4.78329">
        <ele>79.6</ele>
        <time>2012-06-13T08:28:16.000Z</time>
      </trkpt>
      <trkpt lat="44.05346" lon="4.78332">
        <ele>79.7</ele>
        <time>2012-06-13T08:28:17.000Z</time>
      </trkpt>
      <trkpt lat="44.05341" lon="4.78334">
        <ele>79.5</ele>
        <time>2012-06-13T08:28:18.000Z</time>
      </trkpt>
      <trkpt lat="44.05336" lon="4.78337">
        <ele>79.5</ele>
        <time>2012-06-13T08:28:19.000Z</time>
      </trkpt>
      <trkpt lat="44.05331" lon="4.7834">
        <ele>79.7</ele>
        <time>2012-06-13T08:28:20.000Z</time>
      </trkpt>
      <trkpt lat="44.05326" lon="4.78343">
        <ele>79.3</ele>
        <time>2012-06-13T08:28:21.000Z</time>
      </trkpt>
      <trkpt lat="44.0532" lon="4.78347">
        <ele>80.4</ele>
        <time>2012-06-13T08:28:22.000Z</time>
      </trkpt>
      <trkpt lat="44.05316" lon="4.78348">
        <ele>80.5</ele>
        <time>2012-06-13T08:28:23.000Z</time>
      </trkpt>
      <trkpt lat="44.05311" lon="4.78351">
        <ele>80.7</ele>
        <time>2012-06-13T08:28:24.000Z</time>
      </trkpt>
      <trkpt lat="44.05305" lon="4.78355">
        <ele>81</ele>
        <time>2012-06-13T08:28:25.000Z</time>
      </trkpt>
      <trkpt lat="44.053" lon="4.78359">
        <ele>81.2</ele>
        <time>2012-06-13T08:28:26.000Z</time>
      </trkpt>
      <trkpt lat="44.05295" lon="4.78362">
        <ele>81.1</ele>
        <time>2012-06-13T08:28:27.000Z</time>
      </trkpt>
      <trkpt lat="44.05291" lon="4.78364">
        <ele>81.4</ele>
        <time>2012-06-13T08:28:28.000Z</time>
      </trkpt>
      <trkpt lat="44.05286" lon="4.78366">
        <ele>80.8</ele>
        <time>2012-06-13T08:28:29.000Z</time>
      </trkpt>
      <trkpt lat="44.05281" lon="4.78368">
        <ele>80.5</ele>
        <time>2012-06-13T08:28:30.000Z</time>
      </trkpt>
      <trkpt lat="44.05275" lon="4.78371">
        <ele>80.4</ele>
        <time>2012-06-13T08:28:31.000Z</time>
      </trkpt>
      <trkpt lat="44.05271" lon="4.78374">
        <ele>80.5</ele>
        <time>2012-06-13T08:28:32.000Z</time>
      </trkpt>
      <trkpt lat="44.05266" lon="4.78377">
        <ele>80.2</ele>
        <time>2012-06-13T08:28:33.000Z</time>
      </trkpt>
      <trkpt lat="44.05261" lon="4.7838">
        <ele>80</ele>
        <time>2012-06-13T08:28:34.000Z</time>
      </trkpt>
      <trkpt lat="44.05256" lon="4.78382">
        <ele>80.3</ele>
        <time>2012-06-13T08:28:35.000Z</time>
      </trkpt>
      <trkpt lat="44.05252" lon="4.78385">
        <ele>80.1</ele>
        <time>2012-06-13T08:28:36.000Z</time>
      </trkpt>
      <trkpt lat="44.05246" lon="4.78389">
        <ele>80.3</ele>
        <time>2012-06-13T08:28:37.000Z</time>
      </trkpt>
      <trkpt lat="44.05241" lon="4.78392">
        <ele>80.1</ele>
        <time>2012-06-13T08:28:38.000Z</time>
      </trkpt>
      <trkpt lat="44.05236" lon="4.78397">
        <ele>80.2</ele>
        <time>2012-06-13T08:28:39.000Z</time>
      </trkpt>
      <trkpt lat="44.0523" lon="4.78399">
        <ele>80.4</ele>
        <time>2012-06-13T08:28:40.000Z</time>
      </trkpt>
      <trkpt lat="44.05225" lon="4.78402">
        <ele>80.1</ele>
        <time>2012-06-13T08:28:41.000Z</time>
      </trkpt>
      <trkpt lat="44.05219" lon="4.78406">
        <ele>80.1</ele>
        <time>2012-06-13T08:28:42.000Z</time>
      </trkpt>
      <trkpt lat="44.05213" lon="4.78409">
        <ele>80.3</ele>
        <time>2012-06-13T08:28:43.000Z</time>
      </trkpt>
      <trkpt lat="44.05208" lon="4.78411">
        <ele>80.3</ele>
        <time>2012-06-13T08:28:44.000Z</time>
      </trkpt>
      <trkpt lat="44.05202" lon="4.78413">
        <ele>80.5</ele>
        <time>2012-06-13T08:28:45.000Z</time>
      </trkpt>
      <trkpt lat="44.05197" lon="4.78416">
        <ele>80.4</ele>
        <time>2012-06-13T08:28:46.000Z</time>
      </trkpt>
      <trkpt lat="44.05191" lon="4.78418">
        <ele>80.9</ele>
        <time>2012-06-13T08:28:47.000Z</time>
      </trkpt>
      <trkpt lat="44.05185" lon="4.78421">
        <ele>80.7</ele>
        <time>2012-06-13T08:28:48.000Z</time>
      </trkpt>
      <trkpt lat="44.05179" lon="4.78426">
        <ele>80.8</ele>
        <time>2012-06-13T08:28:49.000Z</time>
      </trkpt>
      <trkpt lat="44.05174" lon="4.7843">
        <ele>81.1</ele>
        <time>2012-06-13T08:28:50.000Z</time>
      </trkpt>
      <trkpt lat="44.05165" lon="4.78435">
        <ele>81</ele>
        <time>2012-06-13T08:28:52.000Z</time>
      </trkpt>
      <trkpt lat="44.05161" lon="4.78439">
        <ele>81.1</ele>
        <time>2012-06-13T08:28:53.000Z</time>
      </trkpt>
      <trkpt lat="44.05155" lon="4.78442">
        <ele>81.5</ele>
        <time>2012-06-13T08:28:54.000Z</time>
      </trkpt>
      <trkpt lat="44.0515" lon="4.78446">
        <ele>81.7</ele>
        <time>2012-06-13T08:28:55.000Z</time>
      </trkpt>
      <trkpt lat="44.05145" lon="4.78451">
        <ele>81.6</ele>
        <time>2012-06-13T08:28:56.000Z</time>
      </trkpt>
      <trkpt lat="44.05138" lon="4.78456">
        <ele>81.7</ele>
        <time>2012-06-13T08:28:57.000Z</time>
      </trkpt>
      <trkpt lat="44.05133" lon="4.78461">
        <ele>81.9</ele>
        <time>2012-06-13T08:28:58.000Z</time>
      </trkpt>
      <trkpt lat="44.05128" lon="4.78465">
        <ele>82.4</ele>
        <time>2012-06-13T08:28:59.000Z</time>
      </trkpt>
      <trkpt lat="44.05122" lon="4.78468">
        <ele>82.5</ele>
        <time>2012-06-13T08:29:00.000Z</time>
      </trkpt>
      <trkpt lat="44.05117" lon="4.78473">
        <ele>82.4</ele>
        <time>2012-06-13T08:29:01.000Z</time>
      </trkpt>
      <trkpt lat="44.05112" lon="4.78478">
        <ele>82.3</ele>
        <time>2012-06-13T08:29:02.000Z</time>
      </trkpt>
      <trkpt lat="44.05107" lon="4.78482">
        <ele>82.3</ele>
        <time>2012-06-13T08:29:03.000Z</time>
      </trkpt>
      <trkpt lat="44.05102" lon="4.78486">
        <ele>82.2</ele>
        <time>2012-06-13T08:29:04.000Z</time>
      </trkpt>
      <trkpt lat="44.05097" lon="4.78491">
        <ele>82.4</ele>
        <time>2012-06-13T08:29:05.000Z</time>
      </trkpt>
      <trkpt lat="44.05092" lon="4.78496">
        <ele>82.2</ele>
        <time>2012-06-13T08:29:06.000Z</time>
      </trkpt>
      <trkpt lat="44.05086" lon="4.78501">
        <ele>83</ele>
        <time>2012-06-13T08:29:07.000Z</time>
      </trkpt>
      <trkpt lat="44.0508" lon="4.78508">
        <ele>83.2</ele>
        <time>2012-06-13T08:29:08.000Z</time>
      </trkpt>
      <trkpt lat="44.05076" lon="4.78512">
        <ele>83.1</ele>
        <time>2012-06-13T08:29:09.000Z</time>
      </trkpt>
      <trkpt lat="44.05071" lon="4.78517">
        <ele>82.6</ele>
        <time>2012-06-13T08:29:10.000Z</time>
      </trkpt>
      <trkpt lat="44.05066" lon="4.78522">
        <ele>82.3</ele>
        <time>2012-06-13T08:29:11.000Z</time>
      </trkpt>
      <trkpt lat="44.05061" lon="4.78525">
        <ele>81.7</ele>
        <time>2012-06-13T08:29:12.000Z</time>
      </trkpt>
      <trkpt lat="44.05056" lon="4.7853">
        <ele>82</ele>
        <time>2012-06-13T08:29:13.000Z</time>
      </trkpt>
      <trkpt lat="44.0505" lon="4.78535">
        <ele>82.3</ele>
        <time>2012-06-13T08:29:14.000Z</time>
      </trkpt>
      <trkpt lat="44.05046" lon="4.78539">
        <ele>82.5</ele>
        <time>2012-06-13T08:29:15.000Z</time>
      </trkpt>
      <trkpt lat="44.05042" lon="4.78544">
        <ele>81.9</ele>
        <time>2012-06-13T08:29:16.000Z</time>
      </trkpt>
      <trkpt lat="44.05036" lon="4.78548">
        <ele>82.2</ele>
        <time>2012-06-13T08:29:17.000Z</time>
      </trkpt>
      <trkpt lat="44.0503" lon="4.78552">
        <ele>83.3</ele>
        <time>2012-06-13T08:29:18.000Z</time>
      </trkpt>
      <trkpt lat="44.05025" lon="4.78556">
        <ele>83.7</ele>
        <time>2012-06-13T08:29:19.000Z</time>
      </trkpt>
      <trkpt lat="44.0502" lon="4.78561">
        <ele>84</ele>
        <time>2012-06-13T08:29:20.000Z</time>
      </trkpt>
      <trkpt lat="44.05015" lon="4.78566">
        <ele>83.5</ele>
        <time>2012-06-13T08:29:21.000Z</time>
      </trkpt>
      <trkpt lat="44.0501" lon="4.78571">
        <ele>83</ele>
        <time>2012-06-13T08:29:22.000Z</time>
      </trkpt>
      <trkpt lat="44.05006" lon="4.78576">
        <ele>83.2</ele>
        <time>2012-06-13T08:29:23.000Z</time>
      </trkpt>
      <trkpt lat="44.05001" lon="4.78582">
        <ele>83.1</ele>
        <time>2012-06-13T08:29:24.000Z</time>
      </trkpt>
      <trkpt lat="44.04995" lon="4.78586">
        <ele>82.6</ele>
        <time>2012-06-13T08:29:25.000Z</time>
      </trkpt>
      <trkpt lat="44.04991" lon="4.7859">
        <ele>82.8</ele>
        <time>2012-06-13T08:29:26.000Z</time>
      </trkpt>
      <trkpt lat="44.04986" lon="4.78595">
        <ele>82.3</ele>
        <time>2012-06-13T08:29:27.000Z</time>
      </trkpt>
      <trkpt lat="44.04981" lon="4.786">
        <ele>82.5</ele>
        <time>2012-06-13T08:29:28.000Z</time>
      </trkpt>
      <trkpt lat="44.04976" lon="4.78604">
        <ele>82.4</ele>
        <time>2012-06-13T08:29:29.000Z</time>
      </trkpt>
      <trkpt lat="44.04971" lon="4.7861">
        <ele>82.6</ele>
        <time>2012-06-13T08:29:30.000Z</time>
      </trkpt>
      <trkpt lat="44.04966" lon="4.78615">
        <ele>82.5</ele>
        <time>2012-06-13T08:29:31.000Z</time>
      </trkpt>
      <trkpt lat="44.04961" lon="4.78621">
        <ele>82.5</ele>
        <time>2012-06-13T08:29:32.000Z</time>
      </trkpt>
      <trkpt lat="44.04958" lon="4.78628">
        <ele>82.3</ele>
        <time>2012-06-13T08:29:33.000Z</time>
      </trkpt>
      <trkpt lat="44.04954" lon="4.78633">
        <ele>81.9</ele>
        <time>2012-06-13T08:29:34.000Z</time>
      </trkpt>
      <trkpt lat="44.0495" lon="4.78639">
        <ele>81.7</ele>
        <time>2012-06-13T08:29:35.000Z</time>
      </trkpt>
      <trkpt lat="44.04946" lon="4.78645">
        <ele>81.5</ele>
        <time>2012-06-13T08:29:36.000Z</time>
      </trkpt>
      <trkpt lat="44.04942" lon="4.78651">
        <ele>81.7</ele>
        <time>2012-06-13T08:29:37.000Z</time>
      </trkpt>
      <trkpt lat="44.04937" lon="4.78657">
        <ele>81</ele>
        <time>2012-06-13T08:29:38.000Z</time>
      </trkpt>
      <trkpt lat="44.04933" lon="4.78664">
        <ele>80.6</ele>
        <time>2012-06-13T08:29:39.000Z</time>
      </trkpt>
      <trkpt lat="44.04929" lon="4.78669">
        <ele>80.6</ele>
        <time>2012-06-13T08:29:40.000Z</time>
      </trkpt>
      <trkpt lat="44.04925" lon="4.78677">
        <ele>80.4</ele>
        <time>2012-06-13T08:29:41.000Z</time>
      </trkpt>
      <trkpt lat="44.04921" lon="4.78685">
        <ele>80.8</ele>
        <time>2012-06-13T08:29:42.000Z</time>
      </trkpt>
      <trkpt lat="44.04916" lon="4.78692">
        <ele>81.1</ele>
        <time>2012-06-13T08:29:43.000Z</time>
      </trkpt>
      <trkpt lat="44.04912" lon="4.78699">
        <ele>81.2</ele>
        <time>2012-06-13T08:29:44.000Z</time>
      </trkpt>
      <trkpt lat="44.04907" lon="4.78705">
        <ele>81.3</ele>
        <time>2012-06-13T08:29:45.000Z</time>
      </trkpt>
      <trkpt lat="44.04904" lon="4.78712">
        <ele>81.3</ele>
        <time>2012-06-13T08:29:46.000Z</time>
      </trkpt>
      <trkpt lat="44.04899" lon="4.78718">
        <ele>81.3</ele>
        <time>2012-06-13T08:29:47.000Z</time>
      </trkpt>
      <trkpt lat="44.04896" lon="4.78724">
        <ele>81.3</ele>
        <time>2012-06-13T08:29:48.000Z</time>
      </trkpt>
      <trkpt lat="44.04893" lon="4.78729">
        <ele>81.1</ele>
        <time>2012-06-13T08:29:49.000Z</time>
      </trkpt>
      <trkpt lat="44.04889" lon="4.78735">
        <ele>81</ele>
        <time>2012-06-13T08:29:50.000Z</time>
      </trkpt>
      <trkpt lat="44.04885" lon="4.78741">
        <ele>81.3</ele>
        <time>2012-06-13T08:29:51.000Z</time>
      </trkpt>
      <trkpt lat="44.0488" lon="4.78748">
        <ele>81</ele>
        <time>2012-06-13T08:29:52.000Z</time>
      </trkpt>
      <trkpt lat="44.04875" lon="4.78755">
        <ele>80.7</ele>
        <time>2012-06-13T08:29:53.000Z</time>
      </trkpt>
      <trkpt lat="44.04872" lon="4.7876">
        <ele>80.9</ele>
        <time>2012-06-13T08:29:54.000Z</time>
      </trkpt>
      <trkpt lat="44.04869" lon="4.78766">
        <ele>80.4</ele>
        <time>2012-06-13T08:29:55.000Z</time>
      </trkpt>
      <trkpt lat="44.04866" lon="4.78772">
        <ele>80.3</ele>
        <time>2012-06-13T08:29:56.000Z</time>
      </trkpt>
      <trkpt lat="44.04862" lon="4.78777">
        <ele>80.3</ele>
        <time>2012-06-13T08:29:57.000Z</time>
      </trkpt>
      <trkpt lat="44.04858" lon="4.78783">
        <ele>80.1</ele>
        <time>2012-06-13T08:29:58.000Z</time>
      </trkpt>
      <trkpt lat="44.04854" lon="4.7879">
        <ele>79.8</ele>
        <time>2012-06-13T08:29:59.000Z</time>
      </trkpt>
      <trkpt lat="44.0485" lon="4.78796">
        <ele>79.6</ele>
        <time>2012-06-13T08:30:00.000Z</time>
      </trkpt>
      <trkpt lat="44.04847" lon="4.78802">
        <ele>79.3</ele>
        <time>2012-06-13T08:30:01.000Z</time>
      </trkpt>
      <trkpt lat="44.04843" lon="4.78808">
        <ele>79</ele>
        <time>2012-06-13T08:30:02.000Z</time>
      </trkpt>
      <trkpt lat="44.04839" lon="4.78815">
        <ele>78.9</ele>
        <time>2012-06-13T08:30:03.000Z</time>
      </trkpt>
      <trkpt lat="44.04835" lon="4.78822">
        <ele>78.6</ele>
        <time>2012-06-13T08:30:04.000Z</time>
      </trkpt>
      <trkpt lat="44.04832" lon="4.78829">
        <ele>78.3</ele>
        <time>2012-06-13T08:30:05.000Z</time>
      </trkpt>
      <trkpt lat="44.04828" lon="4.78836">
        <ele>78.3</ele>
        <time>2012-06-13T08:30:06.000Z</time>
      </trkpt>
      <trkpt lat="44.04824" lon="4.78843">
        <ele>78.6</ele>
        <time>2012-06-13T08:30:07.000Z</time>
      </trkpt>
      <trkpt lat="44.04821" lon="4.7885">
        <ele>78.4</ele>
        <time>2012-06-13T08:30:08.000Z</time>
      </trkpt>
      <trkpt lat="44.04817" lon="4.78858">
        <ele>78.6</ele>
        <time>2012-06-13T08:30:09.000Z</time>
      </trkpt>
      <trkpt lat="44.04813" lon="4.78865">
        <ele>78</ele>
        <time>2012-06-13T08:30:10.000Z</time>
      </trkpt>
      <trkpt lat="44.0481" lon="4.78871">
        <ele>78.3</ele>
        <time>2012-06-13T08:30:11.000Z</time>
      </trkpt>
      <trkpt lat="44.04806" lon="4.78879">
        <ele>78</ele>
        <time>2012-06-13T08:30:12.000Z</time>
      </trkpt>
      <trkpt lat="44.04803" lon="4.78884">
        <ele>77.9</ele>
        <time>2012-06-13T08:30:13.000Z</time>
      </trkpt>
      <trkpt lat="44.04799" lon="4.78893">
        <ele>77.5</ele>
        <time>2012-06-13T08:30:14.000Z</time>
      </trkpt>
      <trkpt lat="44.04796" lon="4.78899">
        <ele>77.5</ele>
        <time>2012-06-13T08:30:15.000Z</time>
      </trkpt>
      <trkpt lat="44.04793" lon="4.78906">
        <ele>77.6</ele>
        <time>2012-06-13T08:30:16.000Z</time>
      </trkpt>
      <trkpt lat="44.0479" lon="4.78912">
        <ele>77.2</ele>
        <time>2012-06-13T08:30:17.000Z</time>
      </trkpt>
      <trkpt lat="44.04785" lon="4.7892">
        <ele>77.3</ele>
        <time>2012-06-13T08:30:18.000Z</time>
      </trkpt>
      <trkpt lat="44.0478" lon="4.78926">
        <ele>76.8</ele>
        <time>2012-06-13T08:30:19.000Z</time>
      </trkpt>
      <trkpt lat="44.04777" lon="4.78932">
        <ele>76.7</ele>
        <time>2012-06-13T08:30:20.000Z</time>
      </trkpt>
      <trkpt lat="44.04774" lon="4.78939">
        <ele>77.5</ele>
        <time>2012-06-13T08:30:21.000Z</time>
      </trkpt>
      <trkpt lat="44.0477" lon="4.78946">
        <ele>77.6</ele>
        <time>2012-06-13T08:30:22.000Z</time>
      </trkpt>
      <trkpt lat="44.04765" lon="4.78954">
        <ele>77.8</ele>
        <time>2012-06-13T08:30:23.000Z</time>
      </trkpt>
      <trkpt lat="44.0476" lon="4.78963">
        <ele>78.2</ele>
        <time>2012-06-13T08:30:24.000Z</time>
      </trkpt>
      <trkpt lat="44.04756" lon="4.7897">
        <ele>78</ele>
        <time>2012-06-13T08:30:25.000Z</time>
      </trkpt>
      <trkpt lat="44.04753" lon="4.78977">
        <ele>78.2</ele>
        <time>2012-06-13T08:30:26.000Z</time>
      </trkpt>
      <trkpt lat="44.04748" lon="4.78984">
        <ele>78</ele>
        <time>2012-06-13T08:30:27.000Z</time>
      </trkpt>
      <trkpt lat="44.04744" lon="4.78992">
        <ele>78</ele>
        <time>2012-06-13T08:30:28.000Z</time>
      </trkpt>
      <trkpt lat="44.04741" lon="4.78998">
        <ele>77.7</ele>
        <time>2012-06-13T08:30:29.000Z</time>
      </trkpt>
      <trkpt lat="44.04737" lon="4.79006">
        <ele>77.7</ele>
        <time>2012-06-13T08:30:30.000Z</time>
      </trkpt>
      <trkpt lat="44.04731" lon="4.79015">
        <ele>78.6</ele>
        <time>2012-06-13T08:30:31.000Z</time>
      </trkpt>
      <trkpt lat="44.04726" lon="4.79021">
        <ele>79.1</ele>
        <time>2012-06-13T08:30:32.000Z</time>
      </trkpt>
      <trkpt lat="44.04723" lon="4.79027">
        <ele>78.9</ele>
        <time>2012-06-13T08:30:33.000Z</time>
      </trkpt>
      <trkpt lat="44.0472" lon="4.79035">
        <ele>78.3</ele>
        <time>2012-06-13T08:30:34.000Z</time>
      </trkpt>
      <trkpt lat="44.04715" lon="4.79042">
        <ele>79</ele>
        <time>2012-06-13T08:30:35.000Z</time>
      </trkpt>
      <trkpt lat="44.04712" lon="4.79048">
        <ele>79.4</ele>
        <time>2012-06-13T08:30:36.000Z</time>
      </trkpt>
      <trkpt lat="44.04708" lon="4.79054">
        <ele>79.4</ele>
        <time>2012-06-13T08:30:37.000Z</time>
      </trkpt>
      <trkpt lat="44.04705" lon="4.7906">
        <ele>78.9</ele>
        <time>2012-06-13T08:30:38.000Z</time>
      </trkpt>
      <trkpt lat="44.04701" lon="4.79067">
        <ele>79</ele>
        <time>2012-06-13T08:30:39.000Z</time>
      </trkpt>
      <trkpt lat="44.04698" lon="4.79075">
        <ele>78.9</ele>
        <time>2012-06-13T08:30:40.000Z</time>
      </trkpt>
      <trkpt lat="44.04693" lon="4.79082">
        <ele>78.7</ele>
        <time>2012-06-13T08:30:41.000Z</time>
      </trkpt>
      <trkpt lat="44.04689" lon="4.7909">
        <ele>78.2</ele>
        <time>2012-06-13T08:30:42.000Z</time>
      </trkpt>
      <trkpt lat="44.04685" lon="4.79097">
        <ele>78</ele>
        <time>2012-06-13T08:30:43.000Z</time>
      </trkpt>
      <trkpt lat="44.04681" lon="4.79103">
        <ele>77.7</ele>
        <time>2012-06-13T08:30:44.000Z</time>
      </trkpt>
      <trkpt lat="44.04677" lon="4.7911">
        <ele>77.4</ele>
        <time>2012-06-13T08:30:45.000Z</time>
      </trkpt>
      <trkpt lat="44.04672" lon="4.79118">
        <ele>77.5</ele>
        <time>2012-06-13T08:30:46.000Z</time>
      </trkpt>
      <trkpt lat="44.04667" lon="4.79127">
        <ele>78.5</ele>
        <time>2012-06-13T08:30:47.000Z</time>
      </trkpt>
      <trkpt lat="44.04662" lon="4.79134">
        <ele>78.6</ele>
        <time>2012-06-13T08:30:48.000Z</time>
      </trkpt>
      <trkpt lat="44.04659" lon="4.79141">
        <ele>78.4</ele>
        <time>2012-06-13T08:30:49.000Z</time>
      </trkpt>
      <trkpt lat="44.04655" lon="4.79149">
        <ele>79.1</ele>
        <time>2012-06-13T08:30:50.000Z</time>
      </trkpt>
      <trkpt lat="44.0465" lon="4.79159">
        <ele>79.8</ele>
        <time>2012-06-13T08:30:51.000Z</time>
      </trkpt>
      <trkpt lat="44.04644" lon="4.79166">
        <ele>81.1</ele>
        <time>2012-06-13T08:30:52.000Z</time>
      </trkpt>
      <trkpt lat="44.04641" lon="4.79173">
        <ele>80.7</ele>
        <time>2012-06-13T08:30:53.000Z</time>
      </trkpt>
      <trkpt lat="44.04638" lon="4.7918">
        <ele>80.5</ele>
        <time>2012-06-13T08:30:54.000Z</time>
      </trkpt>
      <trkpt lat="44.04633" lon="4.79188">
        <ele>81.3</ele>
        <time>2012-06-13T08:30:55.000Z</time>
      </trkpt>
      <trkpt lat="44.04629" lon="4.79196">
        <ele>81</ele>
        <time>2012-06-13T08:30:56.000Z</time>
      </trkpt>
      <trkpt lat="44.04626" lon="4.79203">
        <ele>81.2</ele>
        <time>2012-06-13T08:30:57.000Z</time>
      </trkpt>
      <trkpt lat="44.04622" lon="4.7921">
        <ele>81.3</ele>
        <time>2012-06-13T08:30:58.000Z</time>
      </trkpt>
      <trkpt lat="44.04618" lon="4.79217">
        <ele>81.1</ele>
        <time>2012-06-13T08:30:59.000Z</time>
      </trkpt>
      <trkpt lat="44.04615" lon="4.79222">
        <ele>78.1</ele>
        <time>2012-06-13T08:31:00.000Z</time>
      </trkpt>
      <trkpt lat="44.04611" lon="4.79228">
        <ele>76.9</ele>
        <time>2012-06-13T08:31:01.000Z</time>
      </trkpt>
      <trkpt lat="44.04608" lon="4.79235">
        <ele>76.5</ele>
        <time>2012-06-13T08:31:02.000Z</time>
      </trkpt>
      <trkpt lat="44.04604" lon="4.79242">
        <ele>76.3</ele>
        <time>2012-06-13T08:31:03.000Z</time>
      </trkpt>
      <trkpt lat="44.046" lon="4.7925">
        <ele>76</ele>
        <time>2012-06-13T08:31:04.000Z</time>
      </trkpt>
      <trkpt lat="44.04596" lon="4.79257">
        <ele>75.6</ele>
        <time>2012-06-13T08:31:05.000Z</time>
      </trkpt>
      <trkpt lat="44.04592" lon="4.79265">
        <ele>74.8</ele>
        <time>2012-06-13T08:31:06.000Z</time>
      </trkpt>
      <trkpt lat="44.04588" lon="4.79272">
        <ele>74.4</ele>
        <time>2012-06-13T08:31:07.000Z</time>
      </trkpt>
      <trkpt lat="44.04584" lon="4.79279">
        <ele>74.2</ele>
        <time>2012-06-13T08:31:08.000Z</time>
      </trkpt>
      <trkpt lat="44.0458" lon="4.79285">
        <ele>74.1</ele>
        <time>2012-06-13T08:31:09.000Z</time>
      </trkpt>
      <trkpt lat="44.04578" lon="4.79292">
        <ele>74.3</ele>
        <time>2012-06-13T08:31:10.000Z</time>
      </trkpt>
      <trkpt lat="44.04574" lon="4.79298">
        <ele>74.1</ele>
        <time>2012-06-13T08:31:11.000Z</time>
      </trkpt>
      <trkpt lat="44.0457" lon="4.79304">
        <ele>74.3</ele>
        <time>2012-06-13T08:31:12.000Z</time>
      </trkpt>
      <trkpt lat="44.04566" lon="4.79311">
        <ele>74</ele>
        <time>2012-06-13T08:31:13.000Z</time>
      </trkpt>
      <trkpt lat="44.04562" lon="4.79317">
        <ele>74</ele>
        <time>2012-06-13T08:31:14.000Z</time>
      </trkpt>
      <trkpt lat="44.04558" lon="4.79324">
        <ele>74.5</ele>
        <time>2012-06-13T08:31:15.000Z</time>
      </trkpt>
      <trkpt lat="44.04554" lon="4.7933">
        <ele>74.2</ele>
        <time>2012-06-13T08:31:16.000Z</time>
      </trkpt>
      <trkpt lat="44.0455" lon="4.79336">
        <ele>73.9</ele>
        <time>2012-06-13T08:31:17.000Z</time>
      </trkpt>
      <trkpt lat="44.04544" lon="4.79344">
        <ele>72.9</ele>
        <time>2012-06-13T08:31:18.000Z</time>
      </trkpt>
      <trkpt lat="44.04538" lon="4.79352">
        <ele>73.4</ele>
        <time>2012-06-13T08:31:19.000Z</time>
      </trkpt>
      <trkpt lat="44.04534" lon="4.79356">
        <ele>74.4</ele>
        <time>2012-06-13T08:31:20.000Z</time>
      </trkpt>
      <trkpt lat="44.0453" lon="4.79361">
        <ele>74.9</ele>
        <time>2012-06-13T08:31:21.000Z</time>
      </trkpt>
      <trkpt lat="44.04525" lon="4.79366">
        <ele>75.4</ele>
        <time>2012-06-13T08:31:22.000Z</time>
      </trkpt>
      <trkpt lat="44.04519" lon="4.79372">
        <ele>75.4</ele>
        <time>2012-06-13T08:31:23.000Z</time>
      </trkpt>
      <trkpt lat="44.04514" lon="4.79376">
        <ele>75.6</ele>
        <time>2012-06-13T08:31:24.000Z</time>
      </trkpt>
      <trkpt lat="44.04508" lon="4.7938">
        <ele>75.6</ele>
        <time>2012-06-13T08:31:25.000Z</time>
      </trkpt>
      <trkpt lat="44.04502" lon="4.79384">
        <ele>75.5</ele>
        <time>2012-06-13T08:31:26.000Z</time>
      </trkpt>
      <trkpt lat="44.04498" lon="4.79387">
        <ele>76.1</ele>
        <time>2012-06-13T08:31:27.000Z</time>
      </trkpt>
      <trkpt lat="44.04493" lon="4.79388">
        <ele>76.5</ele>
        <time>2012-06-13T08:31:28.000Z</time>
      </trkpt>
      <trkpt lat="44.04488" lon="4.79389">
        <ele>76.4</ele>
        <time>2012-06-13T08:31:29.000Z</time>
      </trkpt>
      <trkpt lat="44.04483" lon="4.79389">
        <ele>76.1</ele>
        <time>2012-06-13T08:31:30.000Z</time>
      </trkpt>
      <trkpt lat="44.04477" lon="4.79387">
        <ele>76</ele>
        <time>2012-06-13T08:31:31.000Z</time>
      </trkpt>
      <trkpt lat="44.04471" lon="4.79386">
        <ele>76.2</ele>
        <time>2012-06-13T08:31:32.000Z</time>
      </trkpt>
      <trkpt lat="44.04466" lon="4.79385">
        <ele>76.2</ele>
        <time>2012-06-13T08:31:33.000Z</time>
      </trkpt>
      <trkpt lat="44.04461" lon="4.79386">
        <ele>76.1</ele>
        <time>2012-06-13T08:31:34.000Z</time>
      </trkpt>
      <trkpt lat="44.04456" lon="4.79387">
        <ele>75.8</ele>
        <time>2012-06-13T08:31:35.000Z</time>
      </trkpt>
      <trkpt lat="44.04451" lon="4.7939">
        <ele>76</ele>
        <time>2012-06-13T08:31:36.000Z</time>
      </trkpt>
      <trkpt lat="44.04448" lon="4.79396">
        <ele>76.5</ele>
        <time>2012-06-13T08:31:37.000Z</time>
      </trkpt>
      <trkpt lat="44.04445" lon="4.79403">
        <ele>76.7</ele>
        <time>2012-06-13T08:31:38.000Z</time>
      </trkpt>
      <trkpt lat="44.04444" lon="4.7941">
        <ele>76.5</ele>
        <time>2012-06-13T08:31:39.000Z</time>
      </trkpt>
      <trkpt lat="44.04443" lon="4.79417">
        <ele>76.6</ele>
        <time>2012-06-13T08:31:40.000Z</time>
      </trkpt>
      <trkpt lat="44.04446" lon="4.79423">
        <ele>76.3</ele>
        <time>2012-06-13T08:31:41.000Z</time>
      </trkpt>
      <trkpt lat="44.04448" lon="4.79428">
        <ele>76.1</ele>
        <time>2012-06-13T08:31:42.000Z</time>
      </trkpt>
      <trkpt lat="44.04453" lon="4.79434">
        <ele>75</ele>
        <time>2012-06-13T08:31:43.000Z</time>
      </trkpt>
      <trkpt lat="44.04457" lon="4.79437">
        <ele>78.5</ele>
        <time>2012-06-13T08:31:44.000Z</time>
      </trkpt>
      <trkpt lat="44.04463" lon="4.79446">
        <ele>78.3</ele>
        <time>2012-06-13T08:31:46.000Z</time>
      </trkpt>
      <trkpt lat="44.04466" lon="4.79451">
        <ele>78.5</ele>
        <time>2012-06-13T08:31:47.000Z</time>
      </trkpt>
      <trkpt lat="44.04468" lon="4.79464">
        <ele>78.3</ele>
        <time>2012-06-13T08:31:49.000Z</time>
      </trkpt>
      <trkpt lat="44.04467" lon="4.79474">
        <ele>78.4</ele>
        <time>2012-06-13T08:31:51.000Z</time>
      </trkpt>
      <trkpt lat="44.04464" lon="4.79482">
        <ele>78</ele>
        <time>2012-06-13T08:31:53.000Z</time>
      </trkpt>
      <trkpt lat="44.04461" lon="4.79489">
        <ele>77.5</ele>
        <time>2012-06-13T08:31:55.000Z</time>
      </trkpt>
      <trkpt lat="44.04456" lon="4.79496">
        <ele>77.1</ele>
        <time>2012-06-13T08:31:57.000Z</time>
      </trkpt>
      <trkpt lat="44.04453" lon="4.79503">
        <ele>76.8</ele>
        <time>2012-06-13T08:31:59.000Z</time>
      </trkpt>
      <trkpt lat="44.04451" lon="4.79508">
        <ele>76.8</ele>
        <time>2012-06-13T08:32:01.000Z</time>
      </trkpt>
      <trkpt lat="44.0445" lon="4.79516">
        <ele>76.2</ele>
        <time>2012-06-13T08:32:03.000Z</time>
      </trkpt>
      <trkpt lat="44.04442" lon="4.79525">
        <ele>76.5</ele>
        <time>2012-06-13T08:32:05.000Z</time>
      </trkpt>
      <trkpt lat="44.04438" lon="4.79532">
        <ele>75.9</ele>
        <time>2012-06-13T08:32:07.000Z</time>
      </trkpt>
      <trkpt lat="44.04433" lon="4.7954">
        <ele>75.4</ele>
        <time>2012-06-13T08:32:09.000Z</time>
      </trkpt>
      <trkpt lat="44.04428" lon="4.79546">
        <ele>75.1</ele>
        <time>2012-06-13T08:32:11.000Z</time>
      </trkpt>
      <trkpt lat="44.04424" lon="4.79552">
        <ele>74.6</ele>
        <time>2012-06-13T08:32:13.000Z</time>
      </trkpt>
      <trkpt lat="44.04418" lon="4.79558">
        <ele>74.4</ele>
        <time>2012-06-13T08:32:15.000Z</time>
      </trkpt>
      <trkpt lat="44.04414" lon="4.79565">
        <ele>74.1</ele>
        <time>2012-06-13T08:32:17.000Z</time>
      </trkpt>
      <trkpt lat="44.0441" lon="4.79572">
        <ele>74</ele>
        <time>2012-06-13T08:32:19.000Z</time>
      </trkpt>
      <trkpt lat="44.04408" lon="4.79578">
        <ele>74.2</ele>
        <time>2012-06-13T08:32:20.000Z</time>
      </trkpt>
      <trkpt lat="44.04401" lon="4.79587">
        <ele>74.9</ele>
        <time>2012-06-13T08:32:22.000Z</time>
      </trkpt>
      <trkpt lat="44.04398" lon="4.79592">
        <ele>74.9</ele>
        <time>2012-06-13T08:32:23.000Z</time>
      </trkpt>
      <trkpt lat="44.0439" lon="4.79602">
        <ele>75.2</ele>
        <time>2012-06-13T08:32:25.000Z</time>
      </trkpt>
      <trkpt lat="44.04387" lon="4.79607">
        <ele>76</ele>
        <time>2012-06-13T08:32:26.000Z</time>
      </trkpt>
      <trkpt lat="44.04384" lon="4.79612">
        <ele>75.8</ele>
        <time>2012-06-13T08:32:27.000Z</time>
      </trkpt>
      <trkpt lat="44.0438" lon="4.79621">
        <ele>74.9</ele>
        <time>2012-06-13T08:32:29.000Z</time>
      </trkpt>
      <trkpt lat="44.04374" lon="4.7963">
        <ele>73.9</ele>
        <time>2012-06-13T08:32:31.000Z</time>
      </trkpt>
      <trkpt lat="44.0437" lon="4.79634">
        <ele>74.2</ele>
        <time>2012-06-13T08:32:32.000Z</time>
      </trkpt>
      <trkpt lat="44.04365" lon="4.79637">
        <ele>74</ele>
        <time>2012-06-13T08:32:33.000Z</time>
      </trkpt>
      <trkpt lat="44.0436" lon="4.79645">
        <ele>73.8</ele>
        <time>2012-06-13T08:32:35.000Z</time>
      </trkpt>
      <trkpt lat="44.04356" lon="4.79652">
        <ele>73.9</ele>
        <time>2012-06-13T08:32:37.000Z</time>
      </trkpt>
      <trkpt lat="44.04353" lon="4.79658">
        <ele>74.8</ele>
        <time>2012-06-13T08:32:38.000Z</time>
      </trkpt>
      <trkpt lat="44.0435" lon="4.79667">
        <ele>75.3</ele>
        <time>2012-06-13T08:32:40.000Z</time>
      </trkpt>
      <trkpt lat="44.04344" lon="4.79679">
        <ele>76.2</ele>
        <time>2012-06-13T08:32:42.000Z</time>
      </trkpt>
      <trkpt lat="44.04342" lon="4.79684">
        <ele>77</ele>
        <time>2012-06-13T08:32:43.000Z</time>
      </trkpt>
      <trkpt lat="44.04336" lon="4.79693">
        <ele>76.2</ele>
        <time>2012-06-13T08:32:45.000Z</time>
      </trkpt>
      <trkpt lat="44.04332" lon="4.79697">
        <ele>76.2</ele>
        <time>2012-06-13T08:32:46.000Z</time>
      </trkpt>
      <trkpt lat="44.04329" lon="4.79701">
        <ele>76.5</ele>
        <time>2012-06-13T08:32:47.000Z</time>
      </trkpt>
      <trkpt lat="44.04325" lon="4.79704">
        <ele>76.3</ele>
        <time>2012-06-13T08:32:48.000Z</time>
      </trkpt>
      <trkpt lat="44.04322" lon="4.79709">
        <ele>76.5</ele>
        <time>2012-06-13T08:32:49.000Z</time>
      </trkpt>
      <trkpt lat="44.04316" lon="4.79716">
        <ele>76.7</ele>
        <time>2012-06-13T08:32:51.000Z</time>
      </trkpt>
      <trkpt lat="44.04311" lon="4.79726">
        <ele>76.7</ele>
        <time>2012-06-13T08:32:53.000Z</time>
      </trkpt>
      <trkpt lat="44.04306" lon="4.79732">
        <ele>76.7</ele>
        <time>2012-06-13T08:32:55.000Z</time>
      </trkpt>
      <trkpt lat="44.04302" lon="4.7974">
        <ele>76.8</ele>
        <time>2012-06-13T08:32:57.000Z</time>
      </trkpt>
      <trkpt lat="44.04297" lon="4.79747">
        <ele>77.6</ele>
        <time>2012-06-13T08:32:59.000Z</time>
      </trkpt>
      <trkpt lat="44.04293" lon="4.79756">
        <ele>77</ele>
        <time>2012-06-13T08:33:01.000Z</time>
      </trkpt>
      <trkpt lat="44.04289" lon="4.79765">
        <ele>78.8</ele>
        <time>2012-06-13T08:33:03.000Z</time>
      </trkpt>
      <trkpt lat="44.04284" lon="4.79775">
        <ele>78.8</ele>
        <time>2012-06-13T08:33:05.000Z</time>
      </trkpt>
      <trkpt lat="44.04278" lon="4.79785">
        <ele>79</ele>
        <time>2012-06-13T08:33:07.000Z</time>
      </trkpt>
      <trkpt lat="44.04273" lon="4.79792">
        <ele>79.8</ele>
        <time>2012-06-13T08:33:08.000Z</time>
      </trkpt>
      <trkpt lat="44.0427" lon="4.79798">
        <ele>79.8</ele>
        <time>2012-06-13T08:33:09.000Z</time>
      </trkpt>
      <trkpt lat="44.04265" lon="4.79808">
        <ele>79.9</ele>
        <time>2012-06-13T08:33:11.000Z</time>
      </trkpt>
      <trkpt lat="44.04259" lon="4.79816">
        <ele>79.4</ele>
        <time>2012-06-13T08:33:13.000Z</time>
      </trkpt>
      <trkpt lat="44.04255" lon="4.79823">
        <ele>79.5</ele>
        <time>2012-06-13T08:33:15.000Z</time>
      </trkpt>
      <trkpt lat="44.04247" lon="4.79831">
        <ele>79.5</ele>
        <time>2012-06-13T08:33:17.000Z</time>
      </trkpt>
      <trkpt lat="44.04242" lon="4.79839">
        <ele>79.9</ele>
        <time>2012-06-13T08:33:19.000Z</time>
      </trkpt>
      <trkpt lat="44.04236" lon="4.79848">
        <ele>79.1</ele>
        <time>2012-06-13T08:33:21.000Z</time>
      </trkpt>
      <trkpt lat="44.04232" lon="4.79856">
        <ele>78.1</ele>
        <time>2012-06-13T08:33:23.000Z</time>
      </trkpt>
      <trkpt lat="44.04228" lon="4.79862">
        <ele>77.7</ele>
        <time>2012-06-13T08:33:24.000Z</time>
      </trkpt>
      <trkpt lat="44.04226" lon="4.79867">
        <ele>77.5</ele>
        <time>2012-06-13T08:33:25.000Z</time>
      </trkpt>
      <trkpt lat="44.0422" lon="4.79877">
        <ele>78.2</ele>
        <time>2012-06-13T08:33:27.000Z</time>
      </trkpt>
      <trkpt lat="44.04216" lon="4.79883">
        <ele>78.2</ele>
        <time>2012-06-13T08:33:28.000Z</time>
      </trkpt>
      <trkpt lat="44.0421" lon="4.79894">
        <ele>78.9</ele>
        <time>2012-06-13T08:33:30.000Z</time>
      </trkpt>
      <trkpt lat="44.04206" lon="4.79897">
        <ele>78.8</ele>
        <time>2012-06-13T08:33:31.000Z</time>
      </trkpt>
      <trkpt lat="44.04202" lon="4.79902">
        <ele>78.8</ele>
        <time>2012-06-13T08:33:32.000Z</time>
      </trkpt>
      <trkpt lat="44.04199" lon="4.79907">
        <ele>77.8</ele>
        <time>2012-06-13T08:33:33.000Z</time>
      </trkpt>
      <trkpt lat="44.04196" lon="4.79912">
        <ele>77.7</ele>
        <time>2012-06-13T08:33:34.000Z</time>
      </trkpt>
      <trkpt lat="44.04191" lon="4.79921">
        <ele>78.7</ele>
        <time>2012-06-13T08:33:36.000Z</time>
      </trkpt>
      <trkpt lat="44.04186" lon="4.79931">
        <ele>78.9</ele>
        <time>2012-06-13T08:33:38.000Z</time>
      </trkpt>
      <trkpt lat="44.0418" lon="4.79939">
        <ele>78.6</ele>
        <time>2012-06-13T08:33:40.000Z</time>
      </trkpt>
      <trkpt lat="44.04176" lon="4.79946">
        <ele>79.2</ele>
        <time>2012-06-13T08:33:42.000Z</time>
      </trkpt>
      <trkpt lat="44.04169" lon="4.79955">
        <ele>79</ele>
        <time>2012-06-13T08:33:44.000Z</time>
      </trkpt>
      <trkpt lat="44.04165" lon="4.7996">
        <ele>79.5</ele>
        <time>2012-06-13T08:33:45.000Z</time>
      </trkpt>
      <trkpt lat="44.04161" lon="4.79964">
        <ele>80</ele>
        <time>2012-06-13T08:33:46.000Z</time>
      </trkpt>
      <trkpt lat="44.04157" lon="4.79969">
        <ele>79.3</ele>
        <time>2012-06-13T08:33:47.000Z</time>
      </trkpt>
      <trkpt lat="44.04151" lon="4.79979">
        <ele>79.3</ele>
        <time>2012-06-13T08:33:49.000Z</time>
      </trkpt>
      <trkpt lat="44.04148" lon="4.79984">
        <ele>79.1</ele>
        <time>2012-06-13T08:33:50.000Z</time>
      </trkpt>
      <trkpt lat="44.04142" lon="4.79994">
        <ele>79.1</ele>
        <time>2012-06-13T08:33:52.000Z</time>
      </trkpt>
      <trkpt lat="44.04139" lon="4.79998">
        <ele>79.2</ele>
        <time>2012-06-13T08:33:53.000Z</time>
      </trkpt>
      <trkpt lat="44.04136" lon="4.80004">
        <ele>78.3</ele>
        <time>2012-06-13T08:33:54.000Z</time>
      </trkpt>
      <trkpt lat="44.04132" lon="4.80009">
        <ele>79.1</ele>
        <time>2012-06-13T08:33:55.000Z</time>
      </trkpt>
      <trkpt lat="44.04129" lon="4.80015">
        <ele>79.3</ele>
        <time>2012-06-13T08:33:56.000Z</time>
      </trkpt>
      <trkpt lat="44.04125" lon="4.8002">
        <ele>79</ele>
        <time>2012-06-13T08:33:57.000Z</time>
      </trkpt>
      <trkpt lat="44.04118" lon="4.8003">
        <ele>78.2</ele>
        <time>2012-06-13T08:33:59.000Z</time>
      </trkpt>
      <trkpt lat="44.04114" lon="4.8004">
        <ele>78.4</ele>
        <time>2012-06-13T08:34:01.000Z</time>
      </trkpt>
      <trkpt lat="44.04108" lon="4.80048">
        <ele>78.4</ele>
        <time>2012-06-13T08:34:03.000Z</time>
      </trkpt>
      <trkpt lat="44.04106" lon="4.80053">
        <ele>78.2</ele>
        <time>2012-06-13T08:34:04.000Z</time>
      </trkpt>
      <trkpt lat="44.041" lon="4.80063">
        <ele>77.7</ele>
        <time>2012-06-13T08:34:06.000Z</time>
      </trkpt>
      <trkpt lat="44.04095" lon="4.80069">
        <ele>77.8</ele>
        <time>2012-06-13T08:34:07.000Z</time>
      </trkpt>
      <trkpt lat="44.04092" lon="4.80074">
        <ele>77.8</ele>
        <time>2012-06-13T08:34:08.000Z</time>
      </trkpt>
      <trkpt lat="44.04088" lon="4.80078">
        <ele>77.6</ele>
        <time>2012-06-13T08:34:09.000Z</time>
      </trkpt>
      <trkpt lat="44.04084" lon="4.80086">
        <ele>78.6</ele>
        <time>2012-06-13T08:34:11.000Z</time>
      </trkpt>
      <trkpt lat="44.04078" lon="4.80094">
        <ele>78.8</ele>
        <time>2012-06-13T08:34:13.000Z</time>
      </trkpt>
      <trkpt lat="44.04075" lon="4.80102">
        <ele>78.8</ele>
        <time>2012-06-13T08:34:15.000Z</time>
      </trkpt>
      <trkpt lat="44.04069" lon="4.8011">
        <ele>79.6</ele>
        <time>2012-06-13T08:34:17.000Z</time>
      </trkpt>
      <trkpt lat="44.04064" lon="4.80118">
        <ele>80</ele>
        <time>2012-06-13T08:34:19.000Z</time>
      </trkpt>
      <trkpt lat="44.04058" lon="4.80126">
        <ele>80.2</ele>
        <time>2012-06-13T08:34:21.000Z</time>
      </trkpt>
      <trkpt lat="44.04054" lon="4.80131">
        <ele>78.9</ele>
        <time>2012-06-13T08:34:22.000Z</time>
      </trkpt>
      <trkpt lat="44.04048" lon="4.80139">
        <ele>77.9</ele>
        <time>2012-06-13T08:34:24.000Z</time>
      </trkpt>
      <trkpt lat="44.04044" lon="4.80145">
        <ele>78.1</ele>
        <time>2012-06-13T08:34:26.000Z</time>
      </trkpt>
      <trkpt lat="44.0404" lon="4.80151">
        <ele>77.8</ele>
        <time>2012-06-13T08:34:28.000Z</time>
      </trkpt>
      <trkpt lat="44.04035" lon="4.80157">
        <ele>77.2</ele>
        <time>2012-06-13T08:34:30.000Z</time>
      </trkpt>
      <trkpt lat="44.04032" lon="4.80162">
        <ele>77.3</ele>
        <time>2012-06-13T08:34:31.000Z</time>
      </trkpt>
      <trkpt lat="44.04027" lon="4.80173">
        <ele>77.8</ele>
        <time>2012-06-13T08:34:33.000Z</time>
      </trkpt>
      <trkpt lat="44.04023" lon="4.80182">
        <ele>77.7</ele>
        <time>2012-06-13T08:34:35.000Z</time>
      </trkpt>
      <trkpt lat="44.04018" lon="4.8019">
        <ele>77.6</ele>
        <time>2012-06-13T08:34:37.000Z</time>
      </trkpt>
      <trkpt lat="44.04015" lon="4.80195">
        <ele>77.9</ele>
        <time>2012-06-13T08:34:38.000Z</time>
      </trkpt>
      <trkpt lat="44.0401" lon="4.80204">
        <ele>77.6</ele>
        <time>2012-06-13T08:34:40.000Z</time>
      </trkpt>
      <trkpt lat="44.04004" lon="4.80213">
        <ele>75.1</ele>
        <time>2012-06-13T08:34:42.000Z</time>
      </trkpt>
      <trkpt lat="44.03998" lon="4.80221">
        <ele>75.1</ele>
        <time>2012-06-13T08:34:44.000Z</time>
      </trkpt>
      <trkpt lat="44.03994" lon="4.80229">
        <ele>74.9</ele>
        <time>2012-06-13T08:34:46.000Z</time>
      </trkpt>
      <trkpt lat="44.0399" lon="4.80234">
        <ele>75.4</ele>
        <time>2012-06-13T08:34:47.000Z</time>
      </trkpt>
      <trkpt lat="44.03986" lon="4.80241">
        <ele>75.5</ele>
        <time>2012-06-13T08:34:49.000Z</time>
      </trkpt>
      <trkpt lat="44.03981" lon="4.80248">
        <ele>75.5</ele>
        <time>2012-06-13T08:34:51.000Z</time>
      </trkpt>
      <trkpt lat="44.03976" lon="4.80254">
        <ele>75.6</ele>
        <time>2012-06-13T08:34:53.000Z</time>
      </trkpt>
      <trkpt lat="44.03971" lon="4.80263">
        <ele>76</ele>
        <time>2012-06-13T08:34:55.000Z</time>
      </trkpt>
      <trkpt lat="44.03968" lon="4.80272">
        <ele>77.3</ele>
        <time>2012-06-13T08:34:57.000Z</time>
      </trkpt>
      <trkpt lat="44.03963" lon="4.80281">
        <ele>76.7</ele>
        <time>2012-06-13T08:34:59.000Z</time>
      </trkpt>
      <trkpt lat="44.03959" lon="4.80289">
        <ele>77.2</ele>
        <time>2012-06-13T08:35:01.000Z</time>
      </trkpt>
      <trkpt lat="44.03953" lon="4.80298">
        <ele>77.1</ele>
        <time>2012-06-13T08:35:03.000Z</time>
      </trkpt>
      <trkpt lat="44.03946" lon="4.80304">
        <ele>77.2</ele>
        <time>2012-06-13T08:35:05.000Z</time>
      </trkpt>
      <trkpt lat="44.03941" lon="4.80312">
        <ele>76.8</ele>
        <time>2012-06-13T08:35:07.000Z</time>
      </trkpt>
      <trkpt lat="44.03935" lon="4.80319">
        <ele>77</ele>
        <time>2012-06-13T08:35:09.000Z</time>
      </trkpt>
      <trkpt lat="44.03931" lon="4.80328">
        <ele>76.5</ele>
        <time>2012-06-13T08:35:11.000Z</time>
      </trkpt>
      <trkpt lat="44.03927" lon="4.80332">
        <ele>76.4</ele>
        <time>2012-06-13T08:35:12.000Z</time>
      </trkpt>
      <trkpt lat="44.03922" lon="4.8034">
        <ele>75.3</ele>
        <time>2012-06-13T08:35:14.000Z</time>
      </trkpt>
      <trkpt lat="44.03916" lon="4.80348">
        <ele>74.9</ele>
        <time>2012-06-13T08:35:16.000Z</time>
      </trkpt>
      <trkpt lat="44.03911" lon="4.80355">
        <ele>75.1</ele>
        <time>2012-06-13T08:35:18.000Z</time>
      </trkpt>
      <trkpt lat="44.03907" lon="4.8036">
        <ele>74.6</ele>
        <time>2012-06-13T08:35:19.000Z</time>
      </trkpt>
      <trkpt lat="44.03903" lon="4.80369">
        <ele>74.4</ele>
        <time>2012-06-13T08:35:21.000Z</time>
      </trkpt>
      <trkpt lat="44.03897" lon="4.80376">
        <ele>74.4</ele>
        <time>2012-06-13T08:35:23.000Z</time>
      </trkpt>
      <trkpt lat="44.03891" lon="4.80384">
        <ele>74.2</ele>
        <time>2012-06-13T08:35:25.000Z</time>
      </trkpt>
      <trkpt lat="44.03887" lon="4.80392">
        <ele>73.5</ele>
        <time>2012-06-13T08:35:27.000Z</time>
      </trkpt>
      <trkpt lat="44.03881" lon="4.804">
        <ele>73.5</ele>
        <time>2012-06-13T08:35:29.000Z</time>
      </trkpt>
      <trkpt lat="44.03878" lon="4.80406">
        <ele>73.5</ele>
        <time>2012-06-13T08:35:30.000Z</time>
      </trkpt>
      <trkpt lat="44.03873" lon="4.80413">
        <ele>73.1</ele>
        <time>2012-06-13T08:35:32.000Z</time>
      </trkpt>
      <trkpt lat="44.03868" lon="4.80417">
        <ele>73.1</ele>
        <time>2012-06-13T08:35:34.000Z</time>
      </trkpt>
      <trkpt lat="44.03863" lon="4.80423">
        <ele>73.4</ele>
        <time>2012-06-13T08:35:36.000Z</time>
      </trkpt>
      <trkpt lat="44.03858" lon="4.80431">
        <ele>73.2</ele>
        <time>2012-06-13T08:35:38.000Z</time>
      </trkpt>
      <trkpt lat="44.03853" lon="4.80438">
        <ele>73.4</ele>
        <time>2012-06-13T08:35:40.000Z</time>
      </trkpt>
      <trkpt lat="44.0385" lon="4.80443">
        <ele>74.1</ele>
        <time>2012-06-13T08:35:41.000Z</time>
      </trkpt>
      <trkpt lat="44.03845" lon="4.80452">
        <ele>74.2</ele>
        <time>2012-06-13T08:35:43.000Z</time>
      </trkpt>
      <trkpt lat="44.0384" lon="4.8046">
        <ele>73.7</ele>
        <time>2012-06-13T08:35:45.000Z</time>
      </trkpt>
      <trkpt lat="44.03834" lon="4.80466">
        <ele>74.3</ele>
        <time>2012-06-13T08:35:47.000Z</time>
      </trkpt>
      <trkpt lat="44.03831" lon="4.80471">
        <ele>74.1</ele>
        <time>2012-06-13T08:35:48.000Z</time>
      </trkpt>
      <trkpt lat="44.03826" lon="4.8048">
        <ele>74.1</ele>
        <time>2012-06-13T08:35:50.000Z</time>
      </trkpt>
      <trkpt lat="44.03822" lon="4.80486">
        <ele>74</ele>
        <time>2012-06-13T08:35:52.000Z</time>
      </trkpt>
      <trkpt lat="44.03818" lon="4.80494">
        <ele>73.4</ele>
        <time>2012-06-13T08:35:54.000Z</time>
      </trkpt>
      <trkpt lat="44.03813" lon="4.80503">
        <ele>73.9</ele>
        <time>2012-06-13T08:35:56.000Z</time>
      </trkpt>
      <trkpt lat="44.0381" lon="4.80509">
        <ele>72.3</ele>
        <time>2012-06-13T08:35:58.000Z</time>
      </trkpt>
      <trkpt lat="44.03805" lon="4.80518">
        <ele>72.1</ele>
        <time>2012-06-13T08:36:00.000Z</time>
      </trkpt>
      <trkpt lat="44.03803" lon="4.80524">
        <ele>73.7</ele>
        <time>2012-06-13T08:36:01.000Z</time>
      </trkpt>
      <trkpt lat="44.038" lon="4.80531">
        <ele>75.2</ele>
        <time>2012-06-13T08:36:02.000Z</time>
      </trkpt>
      <trkpt lat="44.03794" lon="4.80538">
        <ele>75.1</ele>
        <time>2012-06-13T08:36:04.000Z</time>
      </trkpt>
      <trkpt lat="44.0379" lon="4.80542">
        <ele>75.5</ele>
        <time>2012-06-13T08:36:05.000Z</time>
      </trkpt>
      <trkpt lat="44.03786" lon="4.80547">
        <ele>76</ele>
        <time>2012-06-13T08:36:06.000Z</time>
      </trkpt>
      <trkpt lat="44.03782" lon="4.80556">
        <ele>76.4</ele>
        <time>2012-06-13T08:36:08.000Z</time>
      </trkpt>
      <trkpt lat="44.03778" lon="4.80561">
        <ele>76.9</ele>
        <time>2012-06-13T08:36:09.000Z</time>
      </trkpt>
      <trkpt lat="44.03774" lon="4.80571">
        <ele>77.3</ele>
        <time>2012-06-13T08:36:11.000Z</time>
      </trkpt>
      <trkpt lat="44.03768" lon="4.8058">
        <ele>77.4</ele>
        <time>2012-06-13T08:36:13.000Z</time>
      </trkpt>
      <trkpt lat="44.03762" lon="4.80588">
        <ele>77.6</ele>
        <time>2012-06-13T08:36:15.000Z</time>
      </trkpt>
      <trkpt lat="44.03757" lon="4.80594">
        <ele>77.7</ele>
        <time>2012-06-13T08:36:17.000Z</time>
      </trkpt>
      <trkpt lat="44.0375" lon="4.80602">
        <ele>77.6</ele>
        <time>2012-06-13T08:36:19.000Z</time>
      </trkpt>
      <trkpt lat="44.03746" lon="4.80609">
        <ele>77.3</ele>
        <time>2012-06-13T08:36:21.000Z</time>
      </trkpt>
      <trkpt lat="44.03741" lon="4.80618">
        <ele>76.9</ele>
        <time>2012-06-13T08:36:23.000Z</time>
      </trkpt>
      <trkpt lat="44.03736" lon="4.80627">
        <ele>77</ele>
        <time>2012-06-13T08:36:25.000Z</time>
      </trkpt>
      <trkpt lat="44.0373" lon="4.80637">
        <ele>78.3</ele>
        <time>2012-06-13T08:36:27.000Z</time>
      </trkpt>
      <trkpt lat="44.03726" lon="4.80641">
        <ele>77.4</ele>
        <time>2012-06-13T08:36:28.000Z</time>
      </trkpt>
      <trkpt lat="44.0372" lon="4.80649">
        <ele>77.8</ele>
        <time>2012-06-13T08:36:30.000Z</time>
      </trkpt>
      <trkpt lat="44.03715" lon="4.80656">
        <ele>77.8</ele>
        <time>2012-06-13T08:36:32.000Z</time>
      </trkpt>
      <trkpt lat="44.03709" lon="4.80664">
        <ele>77.5</ele>
        <time>2012-06-13T08:36:34.000Z</time>
      </trkpt>
      <trkpt lat="44.03706" lon="4.80668">
        <ele>77.6</ele>
        <time>2012-06-13T08:36:35.000Z</time>
      </trkpt>
      <trkpt lat="44.037" lon="4.80675">
        <ele>77.3</ele>
        <time>2012-06-13T08:36:37.000Z</time>
      </trkpt>
      <trkpt lat="44.03697" lon="4.80679">
        <ele>77.4</ele>
        <time>2012-06-13T08:36:38.000Z</time>
      </trkpt>
      <trkpt lat="44.03691" lon="4.80686">
        <ele>77.4</ele>
        <time>2012-06-13T08:36:40.000Z</time>
      </trkpt>
      <trkpt lat="44.03687" lon="4.80692">
        <ele>74.8</ele>
        <time>2012-06-13T08:36:41.000Z</time>
      </trkpt>
      <trkpt lat="44.0368" lon="4.80699">
        <ele>73.6</ele>
        <time>2012-06-13T08:36:43.000Z</time>
      </trkpt>
      <trkpt lat="44.03676" lon="4.80703">
        <ele>74.1</ele>
        <time>2012-06-13T08:36:44.000Z</time>
      </trkpt>
      <trkpt lat="44.0367" lon="4.80708">
        <ele>72.7</ele>
        <time>2012-06-13T08:36:46.000Z</time>
      </trkpt>
      <trkpt lat="44.03664" lon="4.80714">
        <ele>72.2</ele>
        <time>2012-06-13T08:36:48.000Z</time>
      </trkpt>
      <trkpt lat="44.03657" lon="4.8072">
        <ele>72.8</ele>
        <time>2012-06-13T08:36:50.000Z</time>
      </trkpt>
      <trkpt lat="44.0365" lon="4.80726">
        <ele>74.2</ele>
        <time>2012-06-13T08:36:52.000Z</time>
      </trkpt>
      <trkpt lat="44.03643" lon="4.80735">
        <ele>72.8</ele>
        <time>2012-06-13T08:36:54.000Z</time>
      </trkpt>
      <trkpt lat="44.0364" lon="4.80738">
        <ele>71.1</ele>
        <time>2012-06-13T08:36:55.000Z</time>
      </trkpt>
      <trkpt lat="44.03633" lon="4.80744">
        <ele>73.7</ele>
        <time>2012-06-13T08:36:57.000Z</time>
      </trkpt>
      <trkpt lat="44.03627" lon="4.8075">
        <ele>74</ele>
        <time>2012-06-13T08:36:59.000Z</time>
      </trkpt>
      <trkpt lat="44.0362" lon="4.80757">
        <ele>73.9</ele>
        <time>2012-06-13T08:37:01.000Z</time>
      </trkpt>
      <trkpt lat="44.03613" lon="4.80762">
        <ele>73.3</ele>
        <time>2012-06-13T08:37:03.000Z</time>
      </trkpt>
      <trkpt lat="44.03606" lon="4.80767">
        <ele>72.8</ele>
        <time>2012-06-13T08:37:05.000Z</time>
      </trkpt>
      <trkpt lat="44.03601" lon="4.80773">
        <ele>71.7</ele>
        <time>2012-06-13T08:37:07.000Z</time>
      </trkpt>
      <trkpt lat="44.03595" lon="4.8078">
        <ele>71.7</ele>
        <time>2012-06-13T08:37:09.000Z</time>
      </trkpt>
      <trkpt lat="44.03588" lon="4.80786">
        <ele>71.8</ele>
        <time>2012-06-13T08:37:11.000Z</time>
      </trkpt>
      <trkpt lat="44.03581" lon="4.80791">
        <ele>73.3</ele>
        <time>2012-06-13T08:37:13.000Z</time>
      </trkpt>
      <trkpt lat="44.03575" lon="4.80797">
        <ele>74</ele>
        <time>2012-06-13T08:37:15.000Z</time>
      </trkpt>
      <trkpt lat="44.03568" lon="4.80804">
        <ele>74.7</ele>
        <time>2012-06-13T08:37:17.000Z</time>
      </trkpt>
      <trkpt lat="44.03562" lon="4.8081">
        <ele>74.9</ele>
        <time>2012-06-13T08:37:19.000Z</time>
      </trkpt>
      <trkpt lat="44.03555" lon="4.80814">
        <ele>75</ele>
        <time>2012-06-13T08:37:21.000Z</time>
      </trkpt>
      <trkpt lat="44.03549" lon="4.8082">
        <ele>74.6</ele>
        <time>2012-06-13T08:37:23.000Z</time>
      </trkpt>
      <trkpt lat="44.03544" lon="4.80827">
        <ele>74.9</ele>
        <time>2012-06-13T08:37:25.000Z</time>
      </trkpt>
      <trkpt lat="44.03536" lon="4.80834">
        <ele>74.7</ele>
        <time>2012-06-13T08:37:27.000Z</time>
      </trkpt>
      <trkpt lat="44.0353" lon="4.80841">
        <ele>75</ele>
        <time>2012-06-13T08:37:29.000Z</time>
      </trkpt>
      <trkpt lat="44.03526" lon="4.80844">
        <ele>75.1</ele>
        <time>2012-06-13T08:37:30.000Z</time>
      </trkpt>
      <trkpt lat="44.0352" lon="4.80851">
        <ele>75.6</ele>
        <time>2012-06-13T08:37:32.000Z</time>
      </trkpt>
      <trkpt lat="44.03512" lon="4.80858">
        <ele>75.4</ele>
        <time>2012-06-13T08:37:34.000Z</time>
      </trkpt>
      <trkpt lat="44.03506" lon="4.80865">
        <ele>75.2</ele>
        <time>2012-06-13T08:37:36.000Z</time>
      </trkpt>
      <trkpt lat="44.03499" lon="4.8087">
        <ele>75.8</ele>
        <time>2012-06-13T08:37:38.000Z</time>
      </trkpt>
      <trkpt lat="44.03491" lon="4.80876">
        <ele>76.3</ele>
        <time>2012-06-13T08:37:40.000Z</time>
      </trkpt>
      <trkpt lat="44.03484" lon="4.80883">
        <ele>76.5</ele>
        <time>2012-06-13T08:37:42.000Z</time>
      </trkpt>
      <trkpt lat="44.03479" lon="4.8089">
        <ele>76.4</ele>
        <time>2012-06-13T08:37:44.000Z</time>
      </trkpt>
      <trkpt lat="44.03474" lon="4.80896">
        <ele>76.1</ele>
        <time>2012-06-13T08:37:46.000Z</time>
      </trkpt>
      <trkpt lat="44.03467" lon="4.80904">
        <ele>80</ele>
        <time>2012-06-13T08:37:48.000Z</time>
      </trkpt>
      <trkpt lat="44.03459" lon="4.8091">
        <ele>81.4</ele>
        <time>2012-06-13T08:37:50.000Z</time>
      </trkpt>
      <trkpt lat="44.03452" lon="4.80912">
        <ele>82.5</ele>
        <time>2012-06-13T08:37:52.000Z</time>
      </trkpt>
      <trkpt lat="44.03448" lon="4.8091">
        <ele>82.5</ele>
        <time>2012-06-13T08:37:54.000Z</time>
      </trkpt>
      <trkpt lat="44.03443" lon="4.80904">
        <ele>82.6</ele>
        <time>2012-06-13T08:37:57.000Z</time>
      </trkpt>
      <trkpt lat="44.0344" lon="4.80897">
        <ele>81.3</ele>
        <time>2012-06-13T08:38:00.000Z</time>
      </trkpt>
      <trkpt lat="44.03438" lon="4.80889">
        <ele>79.7</ele>
        <time>2012-06-13T08:38:03.000Z</time>
      </trkpt>
      <trkpt lat="44.03438" lon="4.80882">
        <ele>77.2</ele>
        <time>2012-06-13T08:38:05.000Z</time>
      </trkpt>
      <trkpt lat="44.03436" lon="4.80875">
        <ele>76</ele>
        <time>2012-06-13T08:38:07.000Z</time>
      </trkpt>
      <trkpt lat="44.03434" lon="4.80867">
        <ele>76</ele>
        <time>2012-06-13T08:38:09.000Z</time>
      </trkpt>
      <trkpt lat="44.03433" lon="4.80861">
        <ele>75</ele>
        <time>2012-06-13T08:38:10.000Z</time>
      </trkpt>
      <trkpt lat="44.03433" lon="4.8085">
        <ele>72.9</ele>
        <time>2012-06-13T08:38:13.000Z</time>
      </trkpt>
      <trkpt lat="44.03434" lon="4.80842">
        <ele>70.6</ele>
        <time>2012-06-13T08:38:15.000Z</time>
      </trkpt>
      <trkpt lat="44.03432" lon="4.80831">
        <ele>69.7</ele>
        <time>2012-06-13T08:38:17.000Z</time>
      </trkpt>
      <trkpt lat="44.03428" lon="4.80824">
        <ele>69.1</ele>
        <time>2012-06-13T08:38:18.000Z</time>
      </trkpt>
      <trkpt lat="44.03426" lon="4.80817">
        <ele>68.8</ele>
        <time>2012-06-13T08:38:19.000Z</time>
      </trkpt>
      <trkpt lat="44.03422" lon="4.8081">
        <ele>69.3</ele>
        <time>2012-06-13T08:38:20.000Z</time>
      </trkpt>
      <trkpt lat="44.0342" lon="4.80803">
        <ele>68.7</ele>
        <time>2012-06-13T08:38:21.000Z</time>
      </trkpt>
      <trkpt lat="44.03417" lon="4.80791">
        <ele>69</ele>
        <time>2012-06-13T08:38:23.000Z</time>
      </trkpt>
      <trkpt lat="44.03415" lon="4.80784">
        <ele>69.1</ele>
        <time>2012-06-13T08:38:24.000Z</time>
      </trkpt>
      <trkpt lat="44.03412" lon="4.80778">
        <ele>69</ele>
        <time>2012-06-13T08:38:25.000Z</time>
      </trkpt>
      <trkpt lat="44.0341" lon="4.80768">
        <ele>68.8</ele>
        <time>2012-06-13T08:38:27.000Z</time>
      </trkpt>
      <trkpt lat="44.03408" lon="4.80759">
        <ele>68.8</ele>
        <time>2012-06-13T08:38:29.000Z</time>
      </trkpt>
      <trkpt lat="44.03406" lon="4.80754">
        <ele>68.9</ele>
        <time>2012-06-13T08:38:30.000Z</time>
      </trkpt>
      <trkpt lat="44.03404" lon="4.80747">
        <ele>69.6</ele>
        <time>2012-06-13T08:38:31.000Z</time>
      </trkpt>
      <trkpt lat="44.03399" lon="4.80739">
        <ele>68.4</ele>
        <time>2012-06-13T08:38:33.000Z</time>
      </trkpt>
      <trkpt lat="44.03398" lon="4.80732">
        <ele>67.3</ele>
        <time>2012-06-13T08:38:34.000Z</time>
      </trkpt>
      <trkpt lat="44.03399" lon="4.80725">
        <ele>66.4</ele>
        <time>2012-06-13T08:38:35.000Z</time>
      </trkpt>
      <trkpt lat="44.03394" lon="4.80719">
        <ele>65.5</ele>
        <time>2012-06-13T08:38:37.000Z</time>
      </trkpt>
      <trkpt lat="44.0339" lon="4.80713">
        <ele>66.8</ele>
        <time>2012-06-13T08:38:38.000Z</time>
      </trkpt>
      <trkpt lat="44.03386" lon="4.80709">
        <ele>67</ele>
        <time>2012-06-13T08:38:39.000Z</time>
      </trkpt>
      <trkpt lat="44.03379" lon="4.80703">
        <ele>68.8</ele>
        <time>2012-06-13T08:38:40.000Z</time>
      </trkpt>
      <trkpt lat="44.03372" lon="4.80695">
        <ele>69.7</ele>
        <time>2012-06-13T08:38:41.000Z</time>
      </trkpt>
      <trkpt lat="44.03366" lon="4.80691">
        <ele>69.9</ele>
        <time>2012-06-13T08:38:42.000Z</time>
      </trkpt>
      <trkpt lat="44.0336" lon="4.80687">
        <ele>71.1</ele>
        <time>2012-06-13T08:38:43.000Z</time>
      </trkpt>
      <trkpt lat="44.03355" lon="4.80685">
        <ele>71.6</ele>
        <time>2012-06-13T08:38:44.000Z</time>
      </trkpt>
      <trkpt lat="44.0335" lon="4.80681">
        <ele>72</ele>
        <time>2012-06-13T08:38:45.000Z</time>
      </trkpt>
      <trkpt lat="44.03344" lon="4.80678">
        <ele>72.4</ele>
        <time>2012-06-13T08:38:46.000Z</time>
      </trkpt>
      <trkpt lat="44.03339" lon="4.80676">
        <ele>73.5</ele>
        <time>2012-06-13T08:38:47.000Z</time>
      </trkpt>
      <trkpt lat="44.03333" lon="4.80674">
        <ele>75.2</ele>
        <time>2012-06-13T08:38:48.000Z</time>
      </trkpt>
      <trkpt lat="44.03328" lon="4.80671">
        <ele>74.8</ele>
        <time>2012-06-13T08:38:49.000Z</time>
      </trkpt>
      <trkpt lat="44.03322" lon="4.80668">
        <ele>74.6</ele>
        <time>2012-06-13T08:38:50.000Z</time>
      </trkpt>
      <trkpt lat="44.03318" lon="4.80668">
        <ele>74.9</ele>
        <time>2012-06-13T08:38:51.000Z</time>
      </trkpt>
      <trkpt lat="44.03311" lon="4.80666">
        <ele>75.9</ele>
        <time>2012-06-13T08:38:52.000Z</time>
      </trkpt>
      <trkpt lat="44.03305" lon="4.80663">
        <ele>76</ele>
        <time>2012-06-13T08:38:53.000Z</time>
      </trkpt>
      <trkpt lat="44.033" lon="4.80662">
        <ele>76</ele>
        <time>2012-06-13T08:38:54.000Z</time>
      </trkpt>
      <trkpt lat="44.03294" lon="4.80661">
        <ele>76.1</ele>
        <time>2012-06-13T08:38:55.000Z</time>
      </trkpt>
      <trkpt lat="44.03289" lon="4.80658">
        <ele>76.7</ele>
        <time>2012-06-13T08:38:56.000Z</time>
      </trkpt>
      <trkpt lat="44.03285" lon="4.80656">
        <ele>76.8</ele>
        <time>2012-06-13T08:38:57.000Z</time>
      </trkpt>
      <trkpt lat="44.0328" lon="4.80653">
        <ele>77.6</ele>
        <time>2012-06-13T08:38:58.000Z</time>
      </trkpt>
      <trkpt lat="44.03274" lon="4.80651">
        <ele>78.6</ele>
        <time>2012-06-13T08:38:59.000Z</time>
      </trkpt>
      <trkpt lat="44.03269" lon="4.80649">
        <ele>77.8</ele>
        <time>2012-06-13T08:39:00.000Z</time>
      </trkpt>
      <trkpt lat="44.0326" lon="4.80647">
        <ele>78.7</ele>
        <time>2012-06-13T08:39:02.000Z</time>
      </trkpt>
      <trkpt lat="44.03255" lon="4.80646">
        <ele>78.7</ele>
        <time>2012-06-13T08:39:03.000Z</time>
      </trkpt>
      <trkpt lat="44.03249" lon="4.80644">
        <ele>78.3</ele>
        <time>2012-06-13T08:39:04.000Z</time>
      </trkpt>
      <trkpt lat="44.03244" lon="4.80643">
        <ele>78.3</ele>
        <time>2012-06-13T08:39:05.000Z</time>
      </trkpt>
      <trkpt lat="44.03239" lon="4.80641">
        <ele>78.1</ele>
        <time>2012-06-13T08:39:06.000Z</time>
      </trkpt>
      <trkpt lat="44.03234" lon="4.80639">
        <ele>78.2</ele>
        <time>2012-06-13T08:39:07.000Z</time>
      </trkpt>
      <trkpt lat="44.03228" lon="4.80637">
        <ele>78.3</ele>
        <time>2012-06-13T08:39:08.000Z</time>
      </trkpt>
      <trkpt lat="44.03222" lon="4.80635">
        <ele>78.2</ele>
        <time>2012-06-13T08:39:09.000Z</time>
      </trkpt>
      <trkpt lat="44.03218" lon="4.80634">
        <ele>79.8</ele>
        <time>2012-06-13T08:39:10.000Z</time>
      </trkpt>
      <trkpt lat="44.0321" lon="4.80628">
        <ele>80.6</ele>
        <time>2012-06-13T08:39:12.000Z</time>
      </trkpt>
      <trkpt lat="44.03206" lon="4.80624">
        <ele>80.2</ele>
        <time>2012-06-13T08:39:13.000Z</time>
      </trkpt>
      <trkpt lat="44.032" lon="4.80615">
        <ele>80.1</ele>
        <time>2012-06-13T08:39:15.000Z</time>
      </trkpt>
      <trkpt lat="44.03194" lon="4.80606">
        <ele>80.3</ele>
        <time>2012-06-13T08:39:17.000Z</time>
      </trkpt>
      <trkpt lat="44.03191" lon="4.806">
        <ele>80.6</ele>
        <time>2012-06-13T08:39:18.000Z</time>
      </trkpt>
      <trkpt lat="44.03188" lon="4.80592">
        <ele>80.3</ele>
        <time>2012-06-13T08:39:20.000Z</time>
      </trkpt>
      <trkpt lat="44.03185" lon="4.80586">
        <ele>80.2</ele>
        <time>2012-06-13T08:39:21.000Z</time>
      </trkpt>
      <trkpt lat="44.03179" lon="4.80577">
        <ele>80.3</ele>
        <time>2012-06-13T08:39:23.000Z</time>
      </trkpt>
      <trkpt lat="44.03172" lon="4.80568">
        <ele>80.4</ele>
        <time>2012-06-13T08:39:25.000Z</time>
      </trkpt>
      <trkpt lat="44.0317" lon="4.80562">
        <ele>80.4</ele>
        <time>2012-06-13T08:39:26.000Z</time>
      </trkpt>
      <trkpt lat="44.03165" lon="4.80557">
        <ele>80.1</ele>
        <time>2012-06-13T08:39:27.000Z</time>
      </trkpt>
      <trkpt lat="44.03159" lon="4.80548">
        <ele>80.1</ele>
        <time>2012-06-13T08:39:29.000Z</time>
      </trkpt>
      <trkpt lat="44.03157" lon="4.80542">
        <ele>80.2</ele>
        <time>2012-06-13T08:39:30.000Z</time>
      </trkpt>
      <trkpt lat="44.03154" lon="4.80532">
        <ele>80.3</ele>
        <time>2012-06-13T08:39:32.000Z</time>
      </trkpt>
      <trkpt lat="44.0315" lon="4.80526">
        <ele>80.1</ele>
        <time>2012-06-13T08:39:33.000Z</time>
      </trkpt>
      <trkpt lat="44.03145" lon="4.80517">
        <ele>79.4</ele>
        <time>2012-06-13T08:39:35.000Z</time>
      </trkpt>
      <trkpt lat="44.03141" lon="4.80507">
        <ele>79.5</ele>
        <time>2012-06-13T08:39:37.000Z</time>
      </trkpt>
      <trkpt lat="44.03136" lon="4.80497">
        <ele>79.3</ele>
        <time>2012-06-13T08:39:39.000Z</time>
      </trkpt>
      <trkpt lat="44.03133" lon="4.80491">
        <ele>79.3</ele>
        <time>2012-06-13T08:39:40.000Z</time>
      </trkpt>
      <trkpt lat="44.03128" lon="4.80482">
        <ele>79.4</ele>
        <time>2012-06-13T08:39:42.000Z</time>
      </trkpt>
      <trkpt lat="44.03123" lon="4.80473">
        <ele>79.3</ele>
        <time>2012-06-13T08:39:44.000Z</time>
      </trkpt>
      <trkpt lat="44.0312" lon="4.80468">
        <ele>79.9</ele>
        <time>2012-06-13T08:39:45.000Z</time>
      </trkpt>
      <trkpt lat="44.03116" lon="4.80461">
        <ele>79.9</ele>
        <time>2012-06-13T08:39:46.000Z</time>
      </trkpt>
      <trkpt lat="44.03112" lon="4.80455">
        <ele>79.9</ele>
        <time>2012-06-13T08:39:47.000Z</time>
      </trkpt>
      <trkpt lat="44.03106" lon="4.80446">
        <ele>80.1</ele>
        <time>2012-06-13T08:39:49.000Z</time>
      </trkpt>
      <trkpt lat="44.03102" lon="4.8044">
        <ele>80.3</ele>
        <time>2012-06-13T08:39:50.000Z</time>
      </trkpt>
      <trkpt lat="44.03096" lon="4.80431">
        <ele>79.7</ele>
        <time>2012-06-13T08:39:52.000Z</time>
      </trkpt>
      <trkpt lat="44.03091" lon="4.80426">
        <ele>79.6</ele>
        <time>2012-06-13T08:39:53.000Z</time>
      </trkpt>
      <trkpt lat="44.03088" lon="4.8042">
        <ele>79.2</ele>
        <time>2012-06-13T08:39:54.000Z</time>
      </trkpt>
      <trkpt lat="44.0308" lon="4.8041">
        <ele>78.8</ele>
        <time>2012-06-13T08:39:56.000Z</time>
      </trkpt>
      <trkpt lat="44.03077" lon="4.80404">
        <ele>78.3</ele>
        <time>2012-06-13T08:39:57.000Z</time>
      </trkpt>
      <trkpt lat="44.03074" lon="4.80398">
        <ele>77</ele>
        <time>2012-06-13T08:39:58.000Z</time>
      </trkpt>
      <trkpt lat="44.03067" lon="4.80387">
        <ele>76.4</ele>
        <time>2012-06-13T08:40:00.000Z</time>
      </trkpt>
      <trkpt lat="44.03064" lon="4.80383">
        <ele>76.8</ele>
        <time>2012-06-13T08:40:01.000Z</time>
      </trkpt>
      <trkpt lat="44.03059" lon="4.80374">
        <ele>76.6</ele>
        <time>2012-06-13T08:40:03.000Z</time>
      </trkpt>
      <trkpt lat="44.03056" lon="4.80367">
        <ele>76.7</ele>
        <time>2012-06-13T08:40:04.000Z</time>
      </trkpt>
      <trkpt lat="44.03053" lon="4.80362">
        <ele>76.8</ele>
        <time>2012-06-13T08:40:05.000Z</time>
      </trkpt>
      <trkpt lat="44.0305" lon="4.80358">
        <ele>76.8</ele>
        <time>2012-06-13T08:40:06.000Z</time>
      </trkpt>
      <trkpt lat="44.03045" lon="4.80352">
        <ele>77.1</ele>
        <time>2012-06-13T08:40:07.000Z</time>
      </trkpt>
      <trkpt lat="44.03042" lon="4.80348">
        <ele>77.2</ele>
        <time>2012-06-13T08:40:08.000Z</time>
      </trkpt>
      <trkpt lat="44.03039" lon="4.80339">
        <ele>77</ele>
        <time>2012-06-13T08:40:10.000Z</time>
      </trkpt>
      <trkpt lat="44.03034" lon="4.80332">
        <ele>77</ele>
        <time>2012-06-13T08:40:12.000Z</time>
      </trkpt>
      <trkpt lat="44.0303" lon="4.80326">
        <ele>77.1</ele>
        <time>2012-06-13T08:40:14.000Z</time>
      </trkpt>
      <trkpt lat="44.03027" lon="4.80319">
        <ele>77.2</ele>
        <time>2012-06-13T08:40:16.000Z</time>
      </trkpt>
      <trkpt lat="44.03023" lon="4.80312">
        <ele>77.3</ele>
        <time>2012-06-13T08:40:17.000Z</time>
      </trkpt>
      <trkpt lat="44.03018" lon="4.80305">
        <ele>76.6</ele>
        <time>2012-06-13T08:40:18.000Z</time>
      </trkpt>
      <trkpt lat="44.03012" lon="4.80295">
        <ele>76.6</ele>
        <time>2012-06-13T08:40:20.000Z</time>
      </trkpt>
      <trkpt lat="44.03007" lon="4.80287">
        <ele>76.7</ele>
        <time>2012-06-13T08:40:22.000Z</time>
      </trkpt>
      <trkpt lat="44.03001" lon="4.80278">
        <ele>76.8</ele>
        <time>2012-06-13T08:40:24.000Z</time>
      </trkpt>
      <trkpt lat="44.02998" lon="4.80272">
        <ele>77.4</ele>
        <time>2012-06-13T08:40:25.000Z</time>
      </trkpt>
      <trkpt lat="44.02994" lon="4.80267">
        <ele>77.4</ele>
        <time>2012-06-13T08:40:27.000Z</time>
      </trkpt>
      <trkpt lat="44.02992" lon="4.80259">
        <ele>76.8</ele>
        <time>2012-06-13T08:40:29.000Z</time>
      </trkpt>
      <trkpt lat="44.02987" lon="4.80254">
        <ele>76.8</ele>
        <time>2012-06-13T08:40:30.000Z</time>
      </trkpt>
      <trkpt lat="44.02977" lon="4.80244">
        <ele>77.3</ele>
        <time>2012-06-13T08:40:32.000Z</time>
      </trkpt>
      <trkpt lat="44.0297" lon="4.80239">
        <ele>77.2</ele>
        <time>2012-06-13T08:40:34.000Z</time>
      </trkpt>
      <trkpt lat="44.02963" lon="4.8024">
        <ele>76</ele>
        <time>2012-06-13T08:40:36.000Z</time>
      </trkpt>
      <trkpt lat="44.02959" lon="4.80244">
        <ele>76</ele>
        <time>2012-06-13T08:40:38.000Z</time>
      </trkpt>
      <trkpt lat="44.02954" lon="4.80247">
        <ele>76.1</ele>
        <time>2012-06-13T08:40:40.000Z</time>
      </trkpt>
      <trkpt lat="44.02948" lon="4.80252">
        <ele>75.5</ele>
        <time>2012-06-13T08:40:42.000Z</time>
      </trkpt>
      <trkpt lat="44.02945" lon="4.80256">
        <ele>75.6</ele>
        <time>2012-06-13T08:40:43.000Z</time>
      </trkpt>
      <trkpt lat="44.02941" lon="4.80262">
        <ele>75.7</ele>
        <time>2012-06-13T08:40:44.000Z</time>
      </trkpt>
      <trkpt lat="44.02936" lon="4.80274">
        <ele>78.8</ele>
        <time>2012-06-13T08:40:46.000Z</time>
      </trkpt>
      <trkpt lat="44.02934" lon="4.8028">
        <ele>80.7</ele>
        <time>2012-06-13T08:40:47.000Z</time>
      </trkpt>
      <trkpt lat="44.02931" lon="4.80286">
        <ele>80.6</ele>
        <time>2012-06-13T08:40:48.000Z</time>
      </trkpt>
      <trkpt lat="44.02928" lon="4.80291">
        <ele>80.9</ele>
        <time>2012-06-13T08:40:49.000Z</time>
      </trkpt>
      <trkpt lat="44.02922" lon="4.80301">
        <ele>80</ele>
        <time>2012-06-13T08:40:50.000Z</time>
      </trkpt>
      <trkpt lat="44.02918" lon="4.80307">
        <ele>79.6</ele>
        <time>2012-06-13T08:40:51.000Z</time>
      </trkpt>
      <trkpt lat="44.02914" lon="4.80313">
        <ele>79</ele>
        <time>2012-06-13T08:40:52.000Z</time>
      </trkpt>
      <trkpt lat="44.02909" lon="4.80324">
        <ele>78.9</ele>
        <time>2012-06-13T08:40:54.000Z</time>
      </trkpt>
      <trkpt lat="44.02905" lon="4.80329">
        <ele>78.6</ele>
        <time>2012-06-13T08:40:55.000Z</time>
      </trkpt>
      <trkpt lat="44.02901" lon="4.80333">
        <ele>78.6</ele>
        <time>2012-06-13T08:40:56.000Z</time>
      </trkpt>
      <trkpt lat="44.02897" lon="4.80338">
        <ele>78.1</ele>
        <time>2012-06-13T08:40:57.000Z</time>
      </trkpt>
      <trkpt lat="44.02892" lon="4.80343">
        <ele>78</ele>
        <time>2012-06-13T08:40:58.000Z</time>
      </trkpt>
      <trkpt lat="44.02887" lon="4.80346">
        <ele>77.9</ele>
        <time>2012-06-13T08:40:59.000Z</time>
      </trkpt>
      <trkpt lat="44.02883" lon="4.80348">
        <ele>77.5</ele>
        <time>2012-06-13T08:41:00.000Z</time>
      </trkpt>
      <trkpt lat="44.02877" lon="4.80352">
        <ele>77.9</ele>
        <time>2012-06-13T08:41:01.000Z</time>
      </trkpt>
      <trkpt lat="44.02873" lon="4.80354">
        <ele>77.8</ele>
        <time>2012-06-13T08:41:02.000Z</time>
      </trkpt>
      <trkpt lat="44.02864" lon="4.8036">
        <ele>77.9</ele>
        <time>2012-06-13T08:41:04.000Z</time>
      </trkpt>
      <trkpt lat="44.02859" lon="4.80362">
        <ele>78</ele>
        <time>2012-06-13T08:41:05.000Z</time>
      </trkpt>
      <trkpt lat="44.02855" lon="4.80364">
        <ele>78.1</ele>
        <time>2012-06-13T08:41:06.000Z</time>
      </trkpt>
      <trkpt lat="44.02846" lon="4.80368">
        <ele>78.4</ele>
        <time>2012-06-13T08:41:08.000Z</time>
      </trkpt>
      <trkpt lat="44.02842" lon="4.80371">
        <ele>78.9</ele>
        <time>2012-06-13T08:41:09.000Z</time>
      </trkpt>
      <trkpt lat="44.02836" lon="4.80374">
        <ele>79</ele>
        <time>2012-06-13T08:41:10.000Z</time>
      </trkpt>
      <trkpt lat="44.02832" lon="4.80377">
        <ele>79</ele>
        <time>2012-06-13T08:41:11.000Z</time>
      </trkpt>
      <trkpt lat="44.02827" lon="4.80379">
        <ele>79.2</ele>
        <time>2012-06-13T08:41:12.000Z</time>
      </trkpt>
      <trkpt lat="44.02822" lon="4.80382">
        <ele>81.1</ele>
        <time>2012-06-13T08:41:13.000Z</time>
      </trkpt>
      <trkpt lat="44.02816" lon="4.80384">
        <ele>80.8</ele>
        <time>2012-06-13T08:41:14.000Z</time>
      </trkpt>
      <trkpt lat="44.02811" lon="4.80387">
        <ele>80.8</ele>
        <time>2012-06-13T08:41:15.000Z</time>
      </trkpt>
      <trkpt lat="44.02806" lon="4.8039">
        <ele>80.6</ele>
        <time>2012-06-13T08:41:16.000Z</time>
      </trkpt>
      <trkpt lat="44.02802" lon="4.80392">
        <ele>80.9</ele>
        <time>2012-06-13T08:41:17.000Z</time>
      </trkpt>
      <trkpt lat="44.02793" lon="4.80397">
        <ele>81.6</ele>
        <time>2012-06-13T08:41:19.000Z</time>
      </trkpt>
      <trkpt lat="44.02788" lon="4.804">
        <ele>81.2</ele>
        <time>2012-06-13T08:41:20.000Z</time>
      </trkpt>
      <trkpt lat="44.02783" lon="4.80403">
        <ele>81.2</ele>
        <time>2012-06-13T08:41:21.000Z</time>
      </trkpt>
      <trkpt lat="44.02779" lon="4.80405">
        <ele>81</ele>
        <time>2012-06-13T08:41:22.000Z</time>
      </trkpt>
      <trkpt lat="44.02774" lon="4.80408">
        <ele>81.2</ele>
        <time>2012-06-13T08:41:23.000Z</time>
      </trkpt>
      <trkpt lat="44.02768" lon="4.80409">
        <ele>81.8</ele>
        <time>2012-06-13T08:41:24.000Z</time>
      </trkpt>
      <trkpt lat="44.02764" lon="4.80412">
        <ele>81.5</ele>
        <time>2012-06-13T08:41:25.000Z</time>
      </trkpt>
      <trkpt lat="44.02759" lon="4.80416">
        <ele>81.7</ele>
        <time>2012-06-13T08:41:26.000Z</time>
      </trkpt>
      <trkpt lat="44.02754" lon="4.8042">
        <ele>81.8</ele>
        <time>2012-06-13T08:41:27.000Z</time>
      </trkpt>
      <trkpt lat="44.02746" lon="4.80426">
        <ele>79</ele>
        <time>2012-06-13T08:41:29.000Z</time>
      </trkpt>
      <trkpt lat="44.02738" lon="4.80432">
        <ele>78.9</ele>
        <time>2012-06-13T08:41:31.000Z</time>
      </trkpt>
      <trkpt lat="44.02734" lon="4.80437">
        <ele>78.9</ele>
        <time>2012-06-13T08:41:32.000Z</time>
      </trkpt>
      <trkpt lat="44.0273" lon="4.80442">
        <ele>79</ele>
        <time>2012-06-13T08:41:33.000Z</time>
      </trkpt>
      <trkpt lat="44.02724" lon="4.8045">
        <ele>78.8</ele>
        <time>2012-06-13T08:41:35.000Z</time>
      </trkpt>
      <trkpt lat="44.02719" lon="4.80454">
        <ele>78.7</ele>
        <time>2012-06-13T08:41:36.000Z</time>
      </trkpt>
      <trkpt lat="44.02713" lon="4.80461">
        <ele>78.5</ele>
        <time>2012-06-13T08:41:38.000Z</time>
      </trkpt>
      <trkpt lat="44.02709" lon="4.80465">
        <ele>78.5</ele>
        <time>2012-06-13T08:41:39.000Z</time>
      </trkpt>
      <trkpt lat="44.02704" lon="4.80468">
        <ele>78.5</ele>
        <time>2012-06-13T08:41:40.000Z</time>
      </trkpt>
      <trkpt lat="44.02697" lon="4.80479">
        <ele>78.4</ele>
        <time>2012-06-13T08:41:42.000Z</time>
      </trkpt>
      <trkpt lat="44.02693" lon="4.80483">
        <ele>77.8</ele>
        <time>2012-06-13T08:41:43.000Z</time>
      </trkpt>
      <trkpt lat="44.02689" lon="4.80488">
        <ele>77.5</ele>
        <time>2012-06-13T08:41:44.000Z</time>
      </trkpt>
      <trkpt lat="44.02686" lon="4.80493">
        <ele>77.6</ele>
        <time>2012-06-13T08:41:45.000Z</time>
      </trkpt>
      <trkpt lat="44.02681" lon="4.80497">
        <ele>77.3</ele>
        <time>2012-06-13T08:41:46.000Z</time>
      </trkpt>
      <trkpt lat="44.02677" lon="4.80502">
        <ele>77.1</ele>
        <time>2012-06-13T08:41:47.000Z</time>
      </trkpt>
      <trkpt lat="44.02672" lon="4.80506">
        <ele>76.9</ele>
        <time>2012-06-13T08:41:48.000Z</time>
      </trkpt>
      <trkpt lat="44.02666" lon="4.80512">
        <ele>77.2</ele>
        <time>2012-06-13T08:41:49.000Z</time>
      </trkpt>
      <trkpt lat="44.02662" lon="4.80516">
        <ele>77.2</ele>
        <time>2012-06-13T08:41:50.000Z</time>
      </trkpt>
      <trkpt lat="44.02657" lon="4.80517">
        <ele>77.3</ele>
        <time>2012-06-13T08:41:51.000Z</time>
      </trkpt>
      <trkpt lat="44.02652" lon="4.80518">
        <ele>77</ele>
        <time>2012-06-13T08:41:52.000Z</time>
      </trkpt>
      <trkpt lat="44.02644" lon="4.80518">
        <ele>77</ele>
        <time>2012-06-13T08:41:54.000Z</time>
      </trkpt>
      <trkpt lat="44.02639" lon="4.80518">
        <ele>76.6</ele>
        <time>2012-06-13T08:41:55.000Z</time>
      </trkpt>
      <trkpt lat="44.02634" lon="4.8052">
        <ele>76.4</ele>
        <time>2012-06-13T08:41:56.000Z</time>
      </trkpt>
      <trkpt lat="44.0263" lon="4.80519">
        <ele>76.3</ele>
        <time>2012-06-13T08:41:57.000Z</time>
      </trkpt>
      <trkpt lat="44.02625" lon="4.80519">
        <ele>76.2</ele>
        <time>2012-06-13T08:41:58.000Z</time>
      </trkpt>
      <trkpt lat="44.02619" lon="4.80521">
        <ele>76.2</ele>
        <time>2012-06-13T08:41:59.000Z</time>
      </trkpt>
      <trkpt lat="44.02614" lon="4.80522">
        <ele>76.2</ele>
        <time>2012-06-13T08:42:00.000Z</time>
      </trkpt>
      <trkpt lat="44.02605" lon="4.8052">
        <ele>75.8</ele>
        <time>2012-06-13T08:42:02.000Z</time>
      </trkpt>
      <trkpt lat="44.026" lon="4.80519">
        <ele>76.2</ele>
        <time>2012-06-13T08:42:03.000Z</time>
      </trkpt>
      <trkpt lat="44.02596" lon="4.80523">
        <ele>77</ele>
        <time>2012-06-13T08:42:04.000Z</time>
      </trkpt>
      <trkpt lat="44.0259" lon="4.80523">
        <ele>77.5</ele>
        <time>2012-06-13T08:42:05.000Z</time>
      </trkpt>
      <trkpt lat="44.02583" lon="4.80525">
        <ele>78.7</ele>
        <time>2012-06-13T08:42:06.000Z</time>
      </trkpt>
      <trkpt lat="44.02577" lon="4.80524">
        <ele>77.8</ele>
        <time>2012-06-13T08:42:07.000Z</time>
      </trkpt>
      <trkpt lat="44.02571" lon="4.80525">
        <ele>77.9</ele>
        <time>2012-06-13T08:42:08.000Z</time>
      </trkpt>
      <trkpt lat="44.02566" lon="4.80527">
        <ele>77.2</ele>
        <time>2012-06-13T08:42:09.000Z</time>
      </trkpt>
      <trkpt lat="44.02559" lon="4.80528">
        <ele>77.2</ele>
        <time>2012-06-13T08:42:10.000Z</time>
      </trkpt>
      <trkpt lat="44.02554" lon="4.80529">
        <ele>77.2</ele>
        <time>2012-06-13T08:42:11.000Z</time>
      </trkpt>
      <trkpt lat="44.02545" lon="4.80531">
        <ele>77.4</ele>
        <time>2012-06-13T08:42:13.000Z</time>
      </trkpt>
      <trkpt lat="44.02539" lon="4.80532">
        <ele>76.6</ele>
        <time>2012-06-13T08:42:15.000Z</time>
      </trkpt>
      <trkpt lat="44.02535" lon="4.80527">
        <ele>76.2</ele>
        <time>2012-06-13T08:42:17.000Z</time>
      </trkpt>
      <trkpt lat="44.02532" lon="4.80518">
        <ele>76.2</ele>
        <time>2012-06-13T08:42:19.000Z</time>
      </trkpt>
      <trkpt lat="44.02529" lon="4.80512">
        <ele>76.2</ele>
        <time>2012-06-13T08:42:20.000Z</time>
      </trkpt>
      <trkpt lat="44.02526" lon="4.80501">
        <ele>75.7</ele>
        <time>2012-06-13T08:42:22.000Z</time>
      </trkpt>
      <trkpt lat="44.02526" lon="4.80492">
        <ele>75.6</ele>
        <time>2012-06-13T08:42:23.000Z</time>
      </trkpt>
      <trkpt lat="44.02524" lon="4.80486">
        <ele>75.3</ele>
        <time>2012-06-13T08:42:24.000Z</time>
      </trkpt>
      <trkpt lat="44.02523" lon="4.80479">
        <ele>75.2</ele>
        <time>2012-06-13T08:42:25.000Z</time>
      </trkpt>
      <trkpt lat="44.02522" lon="4.80472">
        <ele>74.9</ele>
        <time>2012-06-13T08:42:26.000Z</time>
      </trkpt>
      <trkpt lat="44.02521" lon="4.80465">
        <ele>74.6</ele>
        <time>2012-06-13T08:42:27.000Z</time>
      </trkpt>
      <trkpt lat="44.02521" lon="4.80459">
        <ele>74.4</ele>
        <time>2012-06-13T08:42:28.000Z</time>
      </trkpt>
      <trkpt lat="44.0252" lon="4.80452">
        <ele>74.4</ele>
        <time>2012-06-13T08:42:29.000Z</time>
      </trkpt>
      <trkpt lat="44.0252" lon="4.80443">
        <ele>74.3</ele>
        <time>2012-06-13T08:42:30.000Z</time>
      </trkpt>
      <trkpt lat="44.0252" lon="4.80436">
        <ele>74.3</ele>
        <time>2012-06-13T08:42:31.000Z</time>
      </trkpt>
      <trkpt lat="44.0252" lon="4.80428">
        <ele>74</ele>
        <time>2012-06-13T08:42:32.000Z</time>
      </trkpt>
      <trkpt lat="44.0252" lon="4.8042">
        <ele>73.8</ele>
        <time>2012-06-13T08:42:33.000Z</time>
      </trkpt>
      <trkpt lat="44.02519" lon="4.80414">
        <ele>73.9</ele>
        <time>2012-06-13T08:42:34.000Z</time>
      </trkpt>
      <trkpt lat="44.02518" lon="4.80403">
        <ele>74.5</ele>
        <time>2012-06-13T08:42:36.000Z</time>
      </trkpt>
      <trkpt lat="44.02519" lon="4.80392">
        <ele>74.1</ele>
        <time>2012-06-13T08:42:38.000Z</time>
      </trkpt>
      <trkpt lat="44.02521" lon="4.80385">
        <ele>74.5</ele>
        <time>2012-06-13T08:42:39.000Z</time>
      </trkpt>
      <trkpt lat="44.02523" lon="4.80372">
        <ele>75.1</ele>
        <time>2012-06-13T08:42:41.000Z</time>
      </trkpt>
      <trkpt lat="44.02523" lon="4.80365">
        <ele>75.2</ele>
        <time>2012-06-13T08:42:42.000Z</time>
      </trkpt>
      <trkpt lat="44.02522" lon="4.80358">
        <ele>75</ele>
        <time>2012-06-13T08:42:43.000Z</time>
      </trkpt>
      <trkpt lat="44.02523" lon="4.80352">
        <ele>74.7</ele>
        <time>2012-06-13T08:42:44.000Z</time>
      </trkpt>
      <trkpt lat="44.02529" lon="4.80341">
        <ele>75</ele>
        <time>2012-06-13T08:42:46.000Z</time>
      </trkpt>
      <trkpt lat="44.02531" lon="4.80335">
        <ele>74</ele>
        <time>2012-06-13T08:42:47.000Z</time>
      </trkpt>
      <trkpt lat="44.02534" lon="4.80325">
        <ele>72.5</ele>
        <time>2012-06-13T08:42:48.000Z</time>
      </trkpt>
      <trkpt lat="44.02536" lon="4.80318">
        <ele>72.8</ele>
        <time>2012-06-13T08:42:49.000Z</time>
      </trkpt>
      <trkpt lat="44.02537" lon="4.80312">
        <ele>72.5</ele>
        <time>2012-06-13T08:42:50.000Z</time>
      </trkpt>
      <trkpt lat="44.02538" lon="4.80304">
        <ele>72.3</ele>
        <time>2012-06-13T08:42:52.000Z</time>
      </trkpt>
      <trkpt lat="44.02538" lon="4.80291">
        <ele>73.8</ele>
        <time>2012-06-13T08:42:54.000Z</time>
      </trkpt>
      <trkpt lat="44.02539" lon="4.80285">
        <ele>73.9</ele>
        <time>2012-06-13T08:42:55.000Z</time>
      </trkpt>
      <trkpt lat="44.0254" lon="4.80278">
        <ele>73.5</ele>
        <time>2012-06-13T08:42:56.000Z</time>
      </trkpt>
      <trkpt lat="44.0254" lon="4.8027">
        <ele>73.3</ele>
        <time>2012-06-13T08:42:57.000Z</time>
      </trkpt>
      <trkpt lat="44.0254" lon="4.80263">
        <ele>73.5</ele>
        <time>2012-06-13T08:42:58.000Z</time>
      </trkpt>
      <trkpt lat="44.02539" lon="4.80255">
        <ele>73.9</ele>
        <time>2012-06-13T08:42:59.000Z</time>
      </trkpt>
      <trkpt lat="44.02538" lon="4.80248">
        <ele>74.4</ele>
        <time>2012-06-13T08:43:00.000Z</time>
      </trkpt>
      <trkpt lat="44.02536" lon="4.80243">
        <ele>74.4</ele>
        <time>2012-06-13T08:43:01.000Z</time>
      </trkpt>
      <trkpt lat="44.02533" lon="4.80232">
        <ele>74.1</ele>
        <time>2012-06-13T08:43:03.000Z</time>
      </trkpt>
      <trkpt lat="44.02531" lon="4.80226">
        <ele>74</ele>
        <time>2012-06-13T08:43:04.000Z</time>
      </trkpt>
      <trkpt lat="44.02529" lon="4.80219">
        <ele>74.1</ele>
        <time>2012-06-13T08:43:05.000Z</time>
      </trkpt>
      <trkpt lat="44.02528" lon="4.80213">
        <ele>74</ele>
        <time>2012-06-13T08:43:06.000Z</time>
      </trkpt>
      <trkpt lat="44.02525" lon="4.80201">
        <ele>75</ele>
        <time>2012-06-13T08:43:08.000Z</time>
      </trkpt>
      <trkpt lat="44.02522" lon="4.80194">
        <ele>74.6</ele>
        <time>2012-06-13T08:43:09.000Z</time>
      </trkpt>
      <trkpt lat="44.02515" lon="4.80186">
        <ele>74.3</ele>
        <time>2012-06-13T08:43:11.000Z</time>
      </trkpt>
      <trkpt lat="44.02513" lon="4.80179">
        <ele>74.3</ele>
        <time>2012-06-13T08:43:13.000Z</time>
      </trkpt>
      <trkpt lat="44.02512" lon="4.80172">
        <ele>73.9</ele>
        <time>2012-06-13T08:43:15.000Z</time>
      </trkpt>
      <trkpt lat="44.02508" lon="4.80162">
        <ele>73.7</ele>
        <time>2012-06-13T08:43:17.000Z</time>
      </trkpt>
      <trkpt lat="44.02505" lon="4.80157">
        <ele>73.9</ele>
        <time>2012-06-13T08:43:18.000Z</time>
      </trkpt>
      <trkpt lat="44.02501" lon="4.8015">
        <ele>73.9</ele>
        <time>2012-06-13T08:43:20.000Z</time>
      </trkpt>
      <trkpt lat="44.025" lon="4.80143">
        <ele>73.5</ele>
        <time>2012-06-13T08:43:21.000Z</time>
      </trkpt>
      <trkpt lat="44.02497" lon="4.80138">
        <ele>73.2</ele>
        <time>2012-06-13T08:43:22.000Z</time>
      </trkpt>
      <trkpt lat="44.02495" lon="4.80124">
        <ele>72.9</ele>
        <time>2012-06-13T08:43:24.000Z</time>
      </trkpt>
      <trkpt lat="44.02493" lon="4.80118">
        <ele>72.7</ele>
        <time>2012-06-13T08:43:25.000Z</time>
      </trkpt>
      <trkpt lat="44.0249" lon="4.80107">
        <ele>73.1</ele>
        <time>2012-06-13T08:43:27.000Z</time>
      </trkpt>
      <trkpt lat="44.02487" lon="4.80101">
        <ele>73.2</ele>
        <time>2012-06-13T08:43:28.000Z</time>
      </trkpt>
      <trkpt lat="44.02485" lon="4.80096">
        <ele>73.6</ele>
        <time>2012-06-13T08:43:29.000Z</time>
      </trkpt>
      <trkpt lat="44.0248" lon="4.80083">
        <ele>73.4</ele>
        <time>2012-06-13T08:43:31.000Z</time>
      </trkpt>
      <trkpt lat="44.02478" lon="4.80077">
        <ele>73.2</ele>
        <time>2012-06-13T08:43:32.000Z</time>
      </trkpt>
      <trkpt lat="44.02475" lon="4.80071">
        <ele>73.3</ele>
        <time>2012-06-13T08:43:33.000Z</time>
      </trkpt>
      <trkpt lat="44.02469" lon="4.80059">
        <ele>72.4</ele>
        <time>2012-06-13T08:43:35.000Z</time>
      </trkpt>
      <trkpt lat="44.02466" lon="4.80054">
        <ele>72.2</ele>
        <time>2012-06-13T08:43:36.000Z</time>
      </trkpt>
      <trkpt lat="44.0246" lon="4.80044">
        <ele>72.6</ele>
        <time>2012-06-13T08:43:38.000Z</time>
      </trkpt>
      <trkpt lat="44.02456" lon="4.80034">
        <ele>73.3</ele>
        <time>2012-06-13T08:43:40.000Z</time>
      </trkpt>
      <trkpt lat="44.0245" lon="4.80031">
        <ele>74.6</ele>
        <time>2012-06-13T08:43:42.000Z</time>
      </trkpt>
      <trkpt lat="44.02445" lon="4.8003">
        <ele>74.3</ele>
        <time>2012-06-13T08:43:44.000Z</time>
      </trkpt>
      <trkpt lat="44.02438" lon="4.80031">
        <ele>73.3</ele>
        <time>2012-06-13T08:43:46.000Z</time>
      </trkpt>
      <trkpt lat="44.02432" lon="4.80032">
        <ele>73.2</ele>
        <time>2012-06-13T08:43:48.000Z</time>
      </trkpt>
      <trkpt lat="44.02425" lon="4.80034">
        <ele>73.5</ele>
        <time>2012-06-13T08:43:50.000Z</time>
      </trkpt>
      <trkpt lat="44.02416" lon="4.80032">
        <ele>75.2</ele>
        <time>2012-06-13T08:43:52.000Z</time>
      </trkpt>
      <trkpt lat="44.02408" lon="4.80036">
        <ele>75.1</ele>
        <time>2012-06-13T08:43:54.000Z</time>
      </trkpt>
      <trkpt lat="44.02401" lon="4.80041">
        <ele>75.1</ele>
        <time>2012-06-13T08:43:56.000Z</time>
      </trkpt>
      <trkpt lat="44.02397" lon="4.80043">
        <ele>74.2</ele>
        <time>2012-06-13T08:44:19.000Z</time>
      </trkpt>
      <trkpt lat="44.02394" lon="4.80049">
        <ele>72.7</ele>
        <time>2012-06-13T08:44:24.000Z</time>
      </trkpt>
    </trkseg>
  </trk>
</gpx>